﻿<?xml version="1.0" encoding="utf-8"?><gpx creator="Garmin Desktop App" version="1.1" xsi:schemaLocation="http://www.topografix.com/GPX/1/1 http://www.topografix.com/GPX/1/1/gpx.xsd http://www.garmin.com/xmlschemas/WaypointExtension/v1 http://www8.garmin.com/xmlschemas/WaypointExtensionv1.xsd http://www.garmin.com/xmlschemas/TrackPointExtension/v1 http://www.garmin.com/xmlschemas/TrackPointExtensionv1.xsd http://www.garmin.com/xmlschemas/GpxExtensions/v3 http://www8.garmin.com/xmlschemas/GpxExtensionsv3.xsd http://www.garmin.com/xmlschemas/ActivityExtension/v1 http://www8.garmin.com/xmlschemas/ActivityExtensionv1.xsd http://www.garmin.com/xmlschemas/AdventuresExtensions/v1 http://www8.garmin.com/xmlschemas/AdventuresExtensionv1.xsd http://www.garmin.com/xmlschemas/PressureExtension/v1 http://www.garmin.com/xmlschemas/PressureExtensionv1.xsd http://www.garmin.com/xmlschemas/TripExtensions/v1 http://www.garmin.com/xmlschemas/TripExtensionsv1.xsd http://www.garmin.com/xmlschemas/TripMetaDataExtensions/v1 http://www.garmin.com/xmlschemas/TripMetaDataExtensionsv1.xsd http://www.garmin.com/xmlschemas/ViaPointTransportationModeExtensions/v1 http://www.garmin.com/xmlschemas/ViaPointTransportationModeExtensionsv1.xsd http://www.garmin.com/xmlschemas/CreationTimeExtension/v1 http://www.garmin.com/xmlschemas/CreationTimeExtensionsv1.xsd http://www.garmin.com/xmlschemas/AccelerationExtension/v1 http://www.garmin.com/xmlschemas/AccelerationExtensionv1.xsd http://www.garmin.com/xmlschemas/PowerExtension/v1 http://www.garmin.com/xmlschemas/PowerExtensionv1.xsd http://www.garmin.com/xmlschemas/VideoExtension/v1 http://www.garmin.com/xmlschemas/VideoExtensionv1.xsd" xmlns="http://www.topografix.com/GPX/1/1" xmlns:xsi="http://www.w3.org/2001/XMLSchema-instance" xmlns:wptx1="http://www.garmin.com/xmlschemas/WaypointExtension/v1" xmlns:gpxtrx="http://www.garmin.com/xmlschemas/GpxExtensions/v3" xmlns:gpxtpx="http://www.garmin.com/xmlschemas/TrackPointExtension/v1" xmlns:gpxx="http://www.garmin.com/xmlschemas/GpxExtensions/v3" xmlns:trp="http://www.garmin.com/xmlschemas/TripExtensions/v1" xmlns:adv="http://www.garmin.com/xmlschemas/AdventuresExtensions/v1" xmlns:prs="http://www.garmin.com/xmlschemas/PressureExtension/v1" xmlns:tmd="http://www.garmin.com/xmlschemas/TripMetaDataExtensions/v1" xmlns:vptm="http://www.garmin.com/xmlschemas/ViaPointTransportationModeExtensions/v1" xmlns:ctx="http://www.garmin.com/xmlschemas/CreationTimeExtension/v1" xmlns:gpxacc="http://www.garmin.com/xmlschemas/AccelerationExtension/v1" xmlns:gpxpx="http://www.garmin.com/xmlschemas/PowerExtension/v1" xmlns:vidx1="http://www.garmin.com/xmlschemas/VideoExtension/v1">

  <metadata>
    <link href="http://www.garmin.com">
      <text>Garmin International</text>
    </link>
    <time>2021-01-15T19:14:08Z</time>
    <bounds maxlat="46.20005602017045" maxlon="10.52500301040709" minlat="45.916661527007818" minlon="10.364732723683119" />
  </metadata>

  <trk>
    <name>1adamello2018-07-07</name>
    <extensions>
      <gpxx:TrackExtension>
        <gpxx:DisplayColor>Yellow</gpxx:DisplayColor>
      </gpxx:TrackExtension>
      <gpxtrkx:TrackStatsExtension xmlns:gpxtrkx="http://www.garmin.com/xmlschemas/TrackStatsExtension/v1">
        <gpxtrkx:Distance>8245</gpxtrkx:Distance>
        <gpxtrkx:TotalElapsedTime>12681</gpxtrkx:TotalElapsedTime>
        <gpxtrkx:MovingTime>8971</gpxtrkx:MovingTime>
        <gpxtrkx:StoppedTime>3681</gpxtrkx:StoppedTime>
        <gpxtrkx:MovingSpeed>1</gpxtrkx:MovingSpeed>
        <gpxtrkx:MaxSpeed>2</gpxtrkx:MaxSpeed>
        <gpxtrkx:MaxElevation>2376</gpxtrkx:MaxElevation>
        <gpxtrkx:MinElevation>1808</gpxtrkx:MinElevation>
        <gpxtrkx:Ascent>658</gpxtrkx:Ascent>
        <gpxtrkx:Descent>93</gpxtrkx:Descent>
        <gpxtrkx:AvgAscentRate>0</gpxtrkx:AvgAscentRate>
        <gpxtrkx:MaxAscentRate>0</gpxtrkx:MaxAscentRate>
        <gpxtrkx:AvgDescentRate>0</gpxtrkx:AvgDescentRate>
        <gpxtrkx:MaxDescentRate>-0</gpxtrkx:MaxDescentRate>
      </gpxtrkx:TrackStatsExtension>
    </extensions>
    <trkseg>
      <trkpt lat="45.916825141757727" lon="10.395213011652231">
        <ele>1808.8599999999999</ele>
        <time>2018-07-07T08:41:18Z</time>
      </trkpt>
      <trkpt lat="45.916829081252217" lon="10.395223572850227">
        <ele>1809.8199999999999</ele>
        <time>2018-07-07T08:41:28Z</time>
      </trkpt>
      <trkpt lat="45.916827069595456" lon="10.395245030522346">
        <ele>1809.8199999999999</ele>
        <time>2018-07-07T08:41:42Z</time>
      </trkpt>
      <trkpt lat="45.916825141757727" lon="10.395297920331359">
        <ele>1809.8199999999999</ele>
        <time>2018-07-07T08:41:54Z</time>
      </trkpt>
      <trkpt lat="45.916804606094956" lon="10.395377548411489">
        <ele>1809.3399999999999</ele>
        <time>2018-07-07T08:42:00Z</time>
      </trkpt>
      <trkpt lat="45.916717601940036" lon="10.395533703267574">
        <ele>1809.3399999999999</ele>
        <time>2018-07-07T08:42:13Z</time>
      </trkpt>
      <trkpt lat="45.916661527007818" lon="10.39563856087625">
        <ele>1809.8199999999999</ele>
        <time>2018-07-07T08:42:24Z</time>
      </trkpt>
      <trkpt lat="45.916673177853227" lon="10.395674016326666">
        <ele>1810.3</ele>
        <time>2018-07-07T08:42:28Z</time>
      </trkpt>
      <trkpt lat="45.916723385453224" lon="10.395687008276582">
        <ele>1810.78</ele>
        <time>2018-07-07T08:42:38Z</time>
      </trkpt>
      <trkpt lat="45.916768396273255" lon="10.395767139270902">
        <ele>1811.26</ele>
        <time>2018-07-07T08:42:48Z</time>
      </trkpt>
      <trkpt lat="45.916784573346376" lon="10.395778538659215">
        <ele>1811.26</ele>
        <time>2018-07-07T08:42:50Z</time>
      </trkpt>
      <trkpt lat="45.91687903739512" lon="10.395889850333333">
        <ele>1811.74</ele>
        <time>2018-07-07T08:43:03Z</time>
      </trkpt>
      <trkpt lat="45.916888760402799" lon="10.395897729322314">
        <ele>1811.74</ele>
        <time>2018-07-07T08:43:04Z</time>
      </trkpt>
      <trkpt lat="45.916906110942364" lon="10.395914409309626">
        <ele>1811.74</ele>
        <time>2018-07-07T08:43:06Z</time>
      </trkpt>
      <trkpt lat="45.916996635496616" lon="10.395992612466216">
        <ele>1812.7</ele>
        <time>2018-07-07T08:43:17Z</time>
      </trkpt>
      <trkpt lat="45.917104342952371" lon="10.396050782874227">
        <ele>1813.1800000000001</ele>
        <time>2018-07-07T08:43:29Z</time>
      </trkpt>
      <trkpt lat="45.917206853628159" lon="10.396080538630486">
        <ele>1813.6600000000001</ele>
        <time>2018-07-07T08:43:40Z</time>
      </trkpt>
      <trkpt lat="45.917317578569055" lon="10.396121023222804">
        <ele>1814.6300000000001</ele>
        <time>2018-07-07T08:43:52Z</time>
      </trkpt>
      <trkpt lat="45.917404415085912" lon="10.396194951608777">
        <ele>1815.5899999999999</ele>
        <time>2018-07-07T08:44:03Z</time>
      </trkpt>
      <trkpt lat="45.917457556352019" lon="10.396229904145002">
        <ele>1816.55</ele>
        <time>2018-07-07T08:44:10Z</time>
      </trkpt>
      <trkpt lat="45.917550008744001" lon="10.396274914965034">
        <ele>1817.51</ele>
        <time>2018-07-07T08:44:21Z</time>
      </trkpt>
      <trkpt lat="45.917638689279556" lon="10.396369881927967">
        <ele>1817.99</ele>
        <time>2018-07-07T08:44:32Z</time>
      </trkpt>
      <trkpt lat="45.917664337903261" lon="10.396401984617114">
        <ele>1817.99</ele>
        <time>2018-07-07T08:44:36Z</time>
      </trkpt>
      <trkpt lat="45.917744468897581" lon="10.396460993215442">
        <ele>1818.95</ele>
        <time>2018-07-07T08:44:46Z</time>
      </trkpt>
      <trkpt lat="45.91776005923748" lon="10.396454120054841">
        <ele>1818.95</ele>
        <time>2018-07-07T08:44:48Z</time>
      </trkpt>
      <trkpt lat="45.917857624590397" lon="10.396399637684226">
        <ele>1819.4300000000001</ele>
        <time>2018-07-07T08:44:59Z</time>
      </trkpt>
      <trkpt lat="45.91789148747921" lon="10.396402068436146">
        <ele>1819.9100000000001</ele>
        <time>2018-07-07T08:45:02Z</time>
      </trkpt>
      <trkpt lat="45.917950496077538" lon="10.396439200267196">
        <ele>1819.9100000000001</ele>
        <time>2018-07-07T08:45:08Z</time>
      </trkpt>
      <trkpt lat="45.918067172169685" lon="10.396543722599745">
        <ele>1820.8699999999999</ele>
        <time>2018-07-07T08:45:21Z</time>
      </trkpt>
      <trkpt lat="45.91815878637135" lon="10.396644389256835">
        <ele>1821.3499999999999</ele>
        <time>2018-07-07T08:45:32Z</time>
      </trkpt>
      <trkpt lat="45.918216705322266" lon="10.396791743114591">
        <ele>1822.3199999999999</ele>
        <time>2018-07-07T08:45:43Z</time>
      </trkpt>
      <trkpt lat="45.918232882395387" lon="10.396955776959658">
        <ele>1823.28</ele>
        <time>2018-07-07T08:45:55Z</time>
      </trkpt>
      <trkpt lat="45.918241683393717" lon="10.396984191611409">
        <ele>1823.76</ele>
        <time>2018-07-07T08:45:59Z</time>
      </trkpt>
      <trkpt lat="45.918308738619089" lon="10.397007660940289">
        <ele>1825.2</ele>
        <time>2018-07-07T08:46:08Z</time>
      </trkpt>
      <trkpt lat="45.918397419154644" lon="10.396970193833113">
        <ele>1827.1199999999999</ele>
        <time>2018-07-07T08:46:19Z</time>
      </trkpt>
      <trkpt lat="45.918495068326592" lon="10.396912358701229">
        <ele>1828.5599999999999</ele>
        <time>2018-07-07T08:46:31Z</time>
      </trkpt>
      <trkpt lat="45.918588107451797" lon="10.396856032311916">
        <ele>1829.05</ele>
        <time>2018-07-07T08:46:43Z</time>
      </trkpt>
      <trkpt lat="45.91868014074862" lon="10.396802304312587">
        <ele>1830.49</ele>
        <time>2018-07-07T08:46:54Z</time>
      </trkpt>
      <trkpt lat="45.918762534856796" lon="10.396735416725278">
        <ele>1831.45</ele>
        <time>2018-07-07T08:47:04Z</time>
      </trkpt>
      <trkpt lat="45.91883746907115" lon="10.396695015951991">
        <ele>1832.8900000000001</ele>
        <time>2018-07-07T08:47:14Z</time>
      </trkpt>
      <trkpt lat="45.918925311416388" lon="10.39663533680141">
        <ele>1833.8499999999999</ele>
        <time>2018-07-07T08:47:26Z</time>
      </trkpt>
      <trkpt lat="45.918992953374982" lon="10.39656207896769">
        <ele>1835.29</ele>
        <time>2018-07-07T08:47:36Z</time>
      </trkpt>
      <trkpt lat="45.9190593380481" lon="10.396490832790732">
        <ele>1836.74</ele>
        <time>2018-07-07T08:47:46Z</time>
      </trkpt>
      <trkpt lat="45.919137625023723" lon="10.396418916061521">
        <ele>1838.6600000000001</ele>
        <time>2018-07-07T08:47:58Z</time>
      </trkpt>
      <trkpt lat="45.919223455712199" lon="10.396388908848166">
        <ele>1840.0999999999999</ele>
        <time>2018-07-07T08:48:08Z</time>
      </trkpt>
      <trkpt lat="45.919309537857771" lon="10.396395279094577">
        <ele>1841.54</ele>
        <time>2018-07-07T08:48:19Z</time>
      </trkpt>
      <trkpt lat="45.919378353282809" lon="10.39647214114666">
        <ele>1842.5</ele>
        <time>2018-07-07T08:48:29Z</time>
      </trkpt>
      <trkpt lat="45.919381706044078" lon="10.396491251885891">
        <ele>1842.98</ele>
        <time>2018-07-07T08:48:31Z</time>
      </trkpt>
      <trkpt lat="45.919367121532559" lon="10.396637851372361">
        <ele>1844.9100000000001</ele>
        <time>2018-07-07T08:48:42Z</time>
      </trkpt>
      <trkpt lat="45.919319512322545" lon="10.396757461130619">
        <ele>1846.8299999999999</ele>
        <time>2018-07-07T08:48:55Z</time>
      </trkpt>
      <trkpt lat="45.919286487624049" lon="10.396846812218428">
        <ele>1849.23</ele>
        <time>2018-07-07T08:49:07Z</time>
      </trkpt>
      <trkpt lat="45.919257905334234" lon="10.396967176347971">
        <ele>1851.1600000000001</ele>
        <time>2018-07-07T08:49:21Z</time>
      </trkpt>
      <trkpt lat="45.919215828180313" lon="10.397110003978014">
        <ele>1853.0799999999999</ele>
        <time>2018-07-07T08:49:36Z</time>
      </trkpt>
      <trkpt lat="45.919197304174304" lon="10.397202540189028">
        <ele>1854.52</ele>
        <time>2018-07-07T08:49:47Z</time>
      </trkpt>
      <trkpt lat="45.91917266137898" lon="10.397313265129924">
        <ele>1856.4400000000001</ele>
        <time>2018-07-07T08:50:00Z</time>
      </trkpt>
      <trkpt lat="45.919171571731567" lon="10.397404544055462">
        <ele>1857.4000000000001</ele>
        <time>2018-07-07T08:50:08Z</time>
      </trkpt>
      <trkpt lat="45.919189341366291" lon="10.397538570687175">
        <ele>1858.3699999999999</ele>
        <time>2018-07-07T08:50:20Z</time>
      </trkpt>
      <trkpt lat="45.919187748804688" lon="10.397642003372312">
        <ele>1859.8099999999999</ele>
        <time>2018-07-07T08:50:30Z</time>
      </trkpt>
      <trkpt lat="45.919221779331565" lon="10.397763038054109">
        <ele>1860.29</ele>
        <time>2018-07-07T08:50:41Z</time>
      </trkpt>
      <trkpt lat="45.919258994981647" lon="10.397874601185322">
        <ele>1861.25</ele>
        <time>2018-07-07T08:50:51Z</time>
      </trkpt>
      <trkpt lat="45.91928749345243" lon="10.397991444915533">
        <ele>1862.21</ele>
        <time>2018-07-07T08:51:01Z</time>
      </trkpt>
      <trkpt lat="45.919323703274131" lon="10.398093117401004">
        <ele>1863.1700000000001</ele>
        <time>2018-07-07T08:51:10Z</time>
      </trkpt>
      <trkpt lat="45.919414646923542" lon="10.398147851228714">
        <ele>1864.1300000000001</ele>
        <time>2018-07-07T08:51:21Z</time>
      </trkpt>
      <trkpt lat="45.919482624158263" lon="10.398203171789646">
        <ele>1865.0899999999999</ele>
        <time>2018-07-07T08:51:30Z</time>
      </trkpt>
      <trkpt lat="45.919509194791317" lon="10.398225300014019">
        <ele>1865.5799999999999</ele>
        <time>2018-07-07T08:51:34Z</time>
      </trkpt>
      <trkpt lat="45.919564934447408" lon="10.398248517885804">
        <ele>1866.0599999999999</ele>
        <time>2018-07-07T08:51:41Z</time>
      </trkpt>
      <trkpt lat="45.919647160917521" lon="10.398295456543565">
        <ele>1867.5</ele>
        <time>2018-07-07T08:51:51Z</time>
      </trkpt>
      <trkpt lat="45.91972628608346" lon="10.398264108225703">
        <ele>1868.46</ele>
        <time>2018-07-07T08:52:01Z</time>
      </trkpt>
      <trkpt lat="45.919816056266427" lon="10.398269891738892">
        <ele>1870.3800000000001</ele>
        <time>2018-07-07T08:52:12Z</time>
      </trkpt>
      <trkpt lat="45.919906329363585" lon="10.398276010528207">
        <ele>1871.8199999999999</ele>
        <time>2018-07-07T08:52:25Z</time>
      </trkpt>
      <trkpt lat="45.919932313263416" lon="10.398272573947906">
        <ele>1872.79</ele>
        <time>2018-07-07T08:52:29Z</time>
      </trkpt>
      <trkpt lat="45.920038176700473" lon="10.398298306390643">
        <ele>1874.23</ele>
        <time>2018-07-07T08:52:41Z</time>
      </trkpt>
      <trkpt lat="45.920106321573257" lon="10.39828791283071">
        <ele>1875.1900000000001</ele>
        <time>2018-07-07T08:52:51Z</time>
      </trkpt>
      <trkpt lat="45.92023640871048" lon="10.398287829011679">
        <ele>1876.6300000000001</ele>
        <time>2018-07-07T08:53:05Z</time>
      </trkpt>
      <trkpt lat="45.920285861939192" lon="10.398314567282796">
        <ele>1877.1099999999999</ele>
        <time>2018-07-07T08:53:11Z</time>
      </trkpt>
      <trkpt lat="45.920384014025331" lon="10.398388914763927">
        <ele>1878.0699999999999</ele>
        <time>2018-07-07T08:53:23Z</time>
      </trkpt>
      <trkpt lat="45.920429695397615" lon="10.398404924198985">
        <ele>1879.03</ele>
        <time>2018-07-07T08:53:29Z</time>
      </trkpt>
      <trkpt lat="45.920525584369898" lon="10.398426968604326">
        <ele>1880.48</ele>
        <time>2018-07-07T08:53:41Z</time>
      </trkpt>
      <trkpt lat="45.920607056468725" lon="10.39850290864706">
        <ele>1882.4000000000001</ele>
        <time>2018-07-07T08:53:54Z</time>
      </trkpt>
      <trkpt lat="45.920671094208956" lon="10.398568455129862">
        <ele>1885.28</ele>
        <time>2018-07-07T08:54:06Z</time>
      </trkpt>
      <trkpt lat="45.920743681490421" lon="10.398589242249727">
        <ele>1886.72</ele>
        <time>2018-07-07T08:54:17Z</time>
      </trkpt>
      <trkpt lat="45.920817861333489" lon="10.398617908358574">
        <ele>1888.6500000000001</ele>
        <time>2018-07-07T08:54:29Z</time>
      </trkpt>
      <trkpt lat="45.920889023691416" lon="10.398644814267755">
        <ele>1891.05</ele>
        <time>2018-07-07T08:54:41Z</time>
      </trkpt>
      <trkpt lat="45.920936968177557" lon="10.398682868108153">
        <ele>1893.45</ele>
        <time>2018-07-07T08:54:52Z</time>
      </trkpt>
      <trkpt lat="45.921011650934815" lon="10.398730561137199">
        <ele>1894.4200000000001</ele>
        <time>2018-07-07T08:55:04Z</time>
      </trkpt>
      <trkpt lat="45.921095386147499" lon="10.398748246952891">
        <ele>1895.8599999999999</ele>
        <time>2018-07-07T08:55:16Z</time>
      </trkpt>
      <trkpt lat="45.921127153560519" lon="10.398813625797629">
        <ele>1896.3399999999999</ele>
        <time>2018-07-07T08:55:23Z</time>
      </trkpt>
      <trkpt lat="45.921160848811269" lon="10.398823851719499">
        <ele>1897.3</ele>
        <time>2018-07-07T08:55:28Z</time>
      </trkpt>
      <trkpt lat="45.921207116916776" lon="10.398883195593953">
        <ele>1898.74</ele>
        <time>2018-07-07T08:55:38Z</time>
      </trkpt>
      <trkpt lat="45.921273585408926" lon="10.398941617459059">
        <ele>1900.6600000000001</ele>
        <time>2018-07-07T08:55:51Z</time>
      </trkpt>
      <trkpt lat="45.921344328671694" lon="10.398983862251043">
        <ele>1903.0699999999999</ele>
        <time>2018-07-07T08:56:05Z</time>
      </trkpt>
      <trkpt lat="45.921413647010922" lon="10.399010851979256">
        <ele>1904.99</ele>
        <time>2018-07-07T08:56:18Z</time>
      </trkpt>
      <trkpt lat="45.921465614810586" lon="10.399071872234344">
        <ele>1906.9100000000001</ele>
        <time>2018-07-07T08:56:29Z</time>
      </trkpt>
      <trkpt lat="45.921498388051987" lon="10.399143118411303">
        <ele>1909.3199999999999</ele>
        <time>2018-07-07T08:56:41Z</time>
      </trkpt>
      <trkpt lat="45.921540381386876" lon="10.399220902472734">
        <ele>1911.24</ele>
        <time>2018-07-07T08:56:53Z</time>
      </trkpt>
      <trkpt lat="45.921591594815254" lon="10.399279911071062">
        <ele>1913.6400000000001</ele>
        <time>2018-07-07T08:57:06Z</time>
      </trkpt>
      <trkpt lat="45.921663930639625" lon="10.399325424805284">
        <ele>1915.5599999999999</ele>
        <time>2018-07-07T08:57:19Z</time>
      </trkpt>
      <trkpt lat="45.921753533184528" lon="10.399359371513128">
        <ele>1917.97</ele>
        <time>2018-07-07T08:57:31Z</time>
      </trkpt>
      <trkpt lat="45.921796029433608" lon="10.399383511394262">
        <ele>1919.4100000000001</ele>
        <time>2018-07-07T08:57:41Z</time>
      </trkpt>
      <trkpt lat="45.921875657513738" lon="10.399398012086749">
        <ele>1921.3299999999999</ele>
        <time>2018-07-07T08:57:53Z</time>
      </trkpt>
      <trkpt lat="45.921927457675338" lon="10.399420978501439">
        <ele>1922.77</ele>
        <time>2018-07-07T08:58:03Z</time>
      </trkpt>
      <trkpt lat="45.921997865661979" lon="10.399458529427648">
        <ele>1924.7</ele>
        <time>2018-07-07T08:58:15Z</time>
      </trkpt>
      <trkpt lat="45.922078499570489" lon="10.399497002363205">
        <ele>1926.6199999999999</ele>
        <time>2018-07-07T08:58:26Z</time>
      </trkpt>
      <trkpt lat="45.922146644443274" lon="10.399504881352186">
        <ele>1928.0599999999999</ele>
        <time>2018-07-07T08:58:37Z</time>
      </trkpt>
      <trkpt lat="45.922215962782502" lon="10.399517035111785">
        <ele>1929.5</ele>
        <time>2018-07-07T08:58:47Z</time>
      </trkpt>
      <trkpt lat="45.922286789864302" lon="10.399529943242669">
        <ele>1931.4300000000001</ele>
        <time>2018-07-07T08:58:59Z</time>
      </trkpt>
      <trkpt lat="45.92236340045929" lon="10.399557519704103">
        <ele>1934.3099999999999</ele>
        <time>2018-07-07T08:59:16Z</time>
      </trkpt>
      <trkpt lat="45.922406567260623" lon="10.399607643485069">
        <ele>1935.75</ele>
        <time>2018-07-07T08:59:27Z</time>
      </trkpt>
      <trkpt lat="45.922470018267632" lon="10.399664472788572">
        <ele>1938.1600000000001</ele>
        <time>2018-07-07T08:59:42Z</time>
      </trkpt>
      <trkpt lat="45.922457529231906" lon="10.399684337899089">
        <ele>1938.6400000000001</ele>
        <time>2018-07-07T08:59:53Z</time>
      </trkpt>
      <trkpt lat="45.922493990510702" lon="10.399704286828637">
        <ele>1939.1199999999999</ele>
        <time>2018-07-07T09:00:03Z</time>
      </trkpt>
      <trkpt lat="45.922544533386827" lon="10.399712584912777">
        <ele>1940.5599999999999</ele>
        <time>2018-07-07T09:00:12Z</time>
      </trkpt>
      <trkpt lat="45.922601949423552" lon="10.399764217436314">
        <ele>1941.52</ele>
        <time>2018-07-07T09:00:22Z</time>
      </trkpt>
      <trkpt lat="45.92264830134809" lon="10.399805037304759">
        <ele>1943.4400000000001</ele>
        <time>2018-07-07T09:00:32Z</time>
      </trkpt>
      <trkpt lat="45.922705130651593" lon="10.399879887700081">
        <ele>1945.8499999999999</ele>
        <time>2018-07-07T09:00:44Z</time>
      </trkpt>
      <trkpt lat="45.92276900075376" lon="10.39995850995183">
        <ele>1948.25</ele>
        <time>2018-07-07T09:00:57Z</time>
      </trkpt>
      <trkpt lat="45.922805210575461" lon="10.400018524378538">
        <ele>1950.1700000000001</ele>
        <time>2018-07-07T09:01:09Z</time>
      </trkpt>
      <trkpt lat="45.922835636883974" lon="10.400105779990554">
        <ele>1952.0899999999999</ele>
        <time>2018-07-07T09:01:20Z</time>
      </trkpt>
      <trkpt lat="45.922860195860267" lon="10.400159927085042">
        <ele>1954.02</ele>
        <time>2018-07-07T09:01:29Z</time>
      </trkpt>
      <trkpt lat="45.922897830605507" lon="10.400237627327442">
        <ele>1955.9400000000001</ele>
        <time>2018-07-07T09:01:40Z</time>
      </trkpt>
      <trkpt lat="45.922940326854587" lon="10.400343993678689">
        <ele>1957.8599999999999</ele>
        <time>2018-07-07T09:01:54Z</time>
      </trkpt>
      <trkpt lat="45.922982236370444" lon="10.400435943156481">
        <ele>1958.8199999999999</ele>
        <time>2018-07-07T09:02:05Z</time>
      </trkpt>
      <trkpt lat="45.923040071502328" lon="10.400517918169498">
        <ele>1960.27</ele>
        <time>2018-07-07T09:02:16Z</time>
      </trkpt>
      <trkpt lat="45.923096481710672" lon="10.400590840727091">
        <ele>1961.23</ele>
        <time>2018-07-07T09:02:27Z</time>
      </trkpt>
      <trkpt lat="45.923120034858584" lon="10.400697039440274">
        <ele>1963.6300000000001</ele>
        <time>2018-07-07T09:02:39Z</time>
      </trkpt>
      <trkpt lat="45.923138139769435" lon="10.400631409138441">
        <ele>1965.0699999999999</ele>
        <time>2018-07-07T09:02:49Z</time>
      </trkpt>
      <trkpt lat="45.923124812543392" lon="10.400563012808561">
        <ele>1965.55</ele>
        <time>2018-07-07T09:02:59Z</time>
      </trkpt>
      <trkpt lat="45.923110395669937" lon="10.400414150208235">
        <ele>1966.99</ele>
        <time>2018-07-07T09:03:12Z</time>
      </trkpt>
      <trkpt lat="45.923094218596816" lon="10.400296887382865">
        <ele>1968.4400000000001</ele>
        <time>2018-07-07T09:03:24Z</time>
      </trkpt>
      <trkpt lat="45.92308365739882" lon="10.400181720033288">
        <ele>1969.8800000000001</ele>
        <time>2018-07-07T09:03:35Z</time>
      </trkpt>
      <trkpt lat="45.923087680712342" lon="10.400140313431621">
        <ele>1970.3599999999999</ele>
        <time>2018-07-07T09:03:49Z</time>
      </trkpt>
      <trkpt lat="45.923083322122693" lon="10.400042496621609">
        <ele>1971.3199999999999</ele>
        <time>2018-07-07T09:04:00Z</time>
      </trkpt>
      <trkpt lat="45.923091368749738" lon="10.400007795542479">
        <ele>1972.28</ele>
        <time>2018-07-07T09:04:03Z</time>
      </trkpt>
      <trkpt lat="45.923093715682626" lon="10.399976028129458">
        <ele>1972.76</ele>
        <time>2018-07-07T09:04:06Z</time>
      </trkpt>
      <trkpt lat="45.9231330268085" lon="10.399834457784891">
        <ele>1974.6900000000001</ele>
        <time>2018-07-07T09:04:18Z</time>
      </trkpt>
      <trkpt lat="45.923184575513005" lon="10.399726834148169">
        <ele>1976.1300000000001</ele>
        <time>2018-07-07T09:04:28Z</time>
      </trkpt>
      <trkpt lat="45.923191783949733" lon="10.399710321798921">
        <ele>1976.6099999999999</ele>
        <time>2018-07-07T09:04:30Z</time>
      </trkpt>
      <trkpt lat="45.923264538869262" lon="10.399585263803601">
        <ele>1978.53</ele>
        <time>2018-07-07T09:04:43Z</time>
      </trkpt>
      <trkpt lat="45.923314411193132" lon="10.399510497227311">
        <ele>1979.49</ele>
        <time>2018-07-07T09:04:52Z</time>
      </trkpt>
      <trkpt lat="45.923370067030191" lon="10.399416871368885">
        <ele>1981.4100000000001</ele>
        <time>2018-07-07T09:05:03Z</time>
      </trkpt>
      <trkpt lat="45.923425471410155" lon="10.39932718500495">
        <ele>1982.3800000000001</ele>
        <time>2018-07-07T09:05:14Z</time>
      </trkpt>
      <trkpt lat="45.923479283228517" lon="10.399249317124486">
        <ele>1983.8199999999999</ele>
        <time>2018-07-07T09:05:25Z</time>
      </trkpt>
      <trkpt lat="45.923538627102971" lon="10.399153931066394">
        <ele>1985.26</ele>
        <time>2018-07-07T09:05:36Z</time>
      </trkpt>
      <trkpt lat="45.923588667064905" lon="10.399043122306466">
        <ele>1986.7</ele>
        <time>2018-07-07T09:05:48Z</time>
      </trkpt>
      <trkpt lat="45.923633594065905" lon="10.398947987705469">
        <ele>1988.6199999999999</ele>
        <time>2018-07-07T09:05:59Z</time>
      </trkpt>
      <trkpt lat="45.923672234639525" lon="10.398852685466409">
        <ele>1990.0699999999999</ele>
        <time>2018-07-07T09:06:10Z</time>
      </trkpt>
      <trkpt lat="45.92369151301682" lon="10.398764172568917">
        <ele>1991.51</ele>
        <time>2018-07-07T09:06:20Z</time>
      </trkpt>
      <trkpt lat="45.923705594614148" lon="10.398716563358903">
        <ele>1991.99</ele>
        <time>2018-07-07T09:06:25Z</time>
      </trkpt>
      <trkpt lat="45.923725543543696" lon="10.39867976680398">
        <ele>1992.47</ele>
        <time>2018-07-07T09:06:36Z</time>
      </trkpt>
      <trkpt lat="45.923770386725664" lon="10.398589745163918">
        <ele>1994.3900000000001</ele>
        <time>2018-07-07T09:06:46Z</time>
      </trkpt>
      <trkpt lat="45.923858312889934" lon="10.398602904751897">
        <ele>1995.8299999999999</ele>
        <time>2018-07-07T09:06:58Z</time>
      </trkpt>
      <trkpt lat="45.923917824402452" lon="10.398712875321507">
        <ele>1996.8</ele>
        <time>2018-07-07T09:07:09Z</time>
      </trkpt>
      <trkpt lat="45.923945317044854" lon="10.398837681859732">
        <ele>1996.8</ele>
        <time>2018-07-07T09:07:22Z</time>
      </trkpt>
      <trkpt lat="45.923950346186757" lon="10.39885419420898">
        <ele>1998.24</ele>
        <time>2018-07-07T09:07:24Z</time>
      </trkpt>
      <trkpt lat="45.923985298722982" lon="10.398943712934852">
        <ele>2000.6400000000001</ele>
        <time>2018-07-07T09:07:35Z</time>
      </trkpt>
      <trkpt lat="45.924013378098607" lon="10.39904328994453">
        <ele>2001.5999999999999</ele>
        <time>2018-07-07T09:07:45Z</time>
      </trkpt>
      <trkpt lat="45.924061574041843" lon="10.3991380892694">
        <ele>2003.04</ele>
        <time>2018-07-07T09:07:55Z</time>
      </trkpt>
      <trkpt lat="45.924102393910289" lon="10.399208916351199">
        <ele>2004.01</ele>
        <time>2018-07-07T09:08:04Z</time>
      </trkpt>
      <trkpt lat="45.924114715307951" lon="10.399276809766889">
        <ele>2005.45</ele>
        <time>2018-07-07T09:08:12Z</time>
      </trkpt>
      <trkpt lat="45.924148913472891" lon="10.399389127269387">
        <ele>2006.8900000000001</ele>
        <time>2018-07-07T09:08:23Z</time>
      </trkpt>
      <trkpt lat="45.924157882109284" lon="10.399458780884743">
        <ele>2007.8499999999999</ele>
        <time>2018-07-07T09:08:31Z</time>
      </trkpt>
      <trkpt lat="45.924213202670217" lon="10.3995456174016">
        <ele>2008.8099999999999</ele>
        <time>2018-07-07T09:08:42Z</time>
      </trkpt>
      <trkpt lat="45.924268523231149" lon="10.399623150005937">
        <ele>2010.25</ele>
        <time>2018-07-07T09:08:52Z</time>
      </trkpt>
      <trkpt lat="45.924279084429145" lon="10.399640165269375">
        <ele>2010.25</ele>
        <time>2018-07-07T09:08:54Z</time>
      </trkpt>
      <trkpt lat="45.924305990338326" lon="10.399734964594245">
        <ele>2011.7</ele>
        <time>2018-07-07T09:09:04Z</time>
      </trkpt>
      <trkpt lat="45.924334991723299" lon="10.399837894365191">
        <ele>2013.1400000000001</ele>
        <time>2018-07-07T09:09:14Z</time>
      </trkpt>
      <trkpt lat="45.924363574013114" lon="10.399935124441981">
        <ele>2014.0999999999999</ele>
        <time>2018-07-07T09:09:23Z</time>
      </trkpt>
      <trkpt lat="45.924415206536651" lon="10.400010058656335">
        <ele>2015.54</ele>
        <time>2018-07-07T09:09:34Z</time>
      </trkpt>
      <trkpt lat="45.924477316439152" lon="10.400062026455998">
        <ele>2016.98</ele>
        <time>2018-07-07T09:09:45Z</time>
      </trkpt>
      <trkpt lat="45.924522830173373" lon="10.400095302611589">
        <ele>2017.46</ele>
        <time>2018-07-07T09:09:55Z</time>
      </trkpt>
      <trkpt lat="45.924529787153006" lon="10.40009873919189">
        <ele>2017.9400000000001</ele>
        <time>2018-07-07T09:10:00Z</time>
      </trkpt>
      <trkpt lat="45.924619305878878" lon="10.400118185207248">
        <ele>2018.9100000000001</ele>
        <time>2018-07-07T09:10:11Z</time>
      </trkpt>
      <trkpt lat="45.92466096393764" lon="10.400154227390885">
        <ele>2019.3900000000001</ele>
        <time>2018-07-07T09:10:21Z</time>
      </trkpt>
      <trkpt lat="45.924659874290228" lon="10.400174763053656">
        <ele>2019.8699999999999</ele>
        <time>2018-07-07T09:10:30Z</time>
      </trkpt>
      <trkpt lat="45.924700610339642" lon="10.400177361443639">
        <ele>2020.3499999999999</ele>
        <time>2018-07-07T09:10:37Z</time>
      </trkpt>
      <trkpt lat="45.924766659736633" lon="10.400199824944139">
        <ele>2021.79</ele>
        <time>2018-07-07T09:10:45Z</time>
      </trkpt>
      <trkpt lat="45.924843186512589" lon="10.400231089442968">
        <ele>2023.23</ele>
        <time>2018-07-07T09:10:55Z</time>
      </trkpt>
      <trkpt lat="45.924913343042135" lon="10.400247517973185">
        <ele>2024.1900000000001</ele>
        <time>2018-07-07T09:11:04Z</time>
      </trkpt>
      <trkpt lat="45.924929939210415" lon="10.400242740288377">
        <ele>2024.1900000000001</ele>
        <time>2018-07-07T09:11:12Z</time>
      </trkpt>
      <trkpt lat="45.924955923110247" lon="10.40025900118053">
        <ele>2024.6700000000001</ele>
        <time>2018-07-07T09:11:15Z</time>
      </trkpt>
      <trkpt lat="45.924973944202065" lon="10.400274004787207">
        <ele>2025.1500000000001</ele>
        <time>2018-07-07T09:11:17Z</time>
      </trkpt>
      <trkpt lat="45.925055332481861" lon="10.400304347276688">
        <ele>2026.5999999999999</ele>
        <time>2018-07-07T09:11:27Z</time>
      </trkpt>
      <trkpt lat="45.925138564780354" lon="10.400352375581861">
        <ele>2028.52</ele>
        <time>2018-07-07T09:11:39Z</time>
      </trkpt>
      <trkpt lat="45.925219785422087" lon="10.400357320904732">
        <ele>2029.96</ele>
        <time>2018-07-07T09:11:49Z</time>
      </trkpt>
      <trkpt lat="45.925301173701882" lon="10.400385651737452">
        <ele>2031.4000000000001</ele>
        <time>2018-07-07T09:11:59Z</time>
      </trkpt>
      <trkpt lat="45.925344508141279" lon="10.400423621758819">
        <ele>2032.3599999999999</ele>
        <time>2018-07-07T09:12:06Z</time>
      </trkpt>
      <trkpt lat="45.925426399335265" lon="10.40048573166132">
        <ele>2034.77</ele>
        <time>2018-07-07T09:12:19Z</time>
      </trkpt>
      <trkpt lat="45.925449868664145" lon="10.400596959516406">
        <ele>2036.6900000000001</ele>
        <time>2018-07-07T09:12:30Z</time>
      </trkpt>
      <trkpt lat="45.925457663834095" lon="10.400681449100375">
        <ele>2039.0899999999999</ele>
        <time>2018-07-07T09:12:41Z</time>
      </trkpt>
      <trkpt lat="45.92550384812057" lon="10.400767531245947">
        <ele>2041.5</ele>
        <time>2018-07-07T09:12:54Z</time>
      </trkpt>
      <trkpt lat="45.925541650503874" lon="10.400858139619231">
        <ele>2044.3800000000001</ele>
        <time>2018-07-07T09:13:06Z</time>
      </trkpt>
      <trkpt lat="45.925602754577994" lon="10.400978084653616">
        <ele>2046.3</ele>
        <time>2018-07-07T09:13:20Z</time>
      </trkpt>
      <trkpt lat="45.925616417080164" lon="10.401046480983496">
        <ele>2047.26</ele>
        <time>2018-07-07T09:13:30Z</time>
      </trkpt>
      <trkpt lat="45.925610633566976" lon="10.401059808209538">
        <ele>2046.78</ele>
        <time>2018-07-07T09:13:40Z</time>
      </trkpt>
      <trkpt lat="45.925592947751284" lon="10.40105301886797">
        <ele>2048.23</ele>
        <time>2018-07-07T09:13:49Z</time>
      </trkpt>
      <trkpt lat="45.925622703507543" lon="10.401096772402525">
        <ele>2048.71</ele>
        <time>2018-07-07T09:13:58Z</time>
      </trkpt>
      <trkpt lat="45.925611639395356" lon="10.401119403541088">
        <ele>2049.6700000000001</ele>
        <time>2018-07-07T09:14:10Z</time>
      </trkpt>
      <trkpt lat="45.925604850053787" lon="10.401152679696679">
        <ele>2048.71</ele>
        <time>2018-07-07T09:14:26Z</time>
      </trkpt>
      <trkpt lat="45.925601245835423" lon="10.401189727708697">
        <ele>2049.1900000000001</ele>
        <time>2018-07-07T09:14:35Z</time>
      </trkpt>
      <trkpt lat="45.925569729879498" lon="10.401279581710696">
        <ele>2050.6300000000001</ele>
        <time>2018-07-07T09:14:47Z</time>
      </trkpt>
      <trkpt lat="45.925496555864811" lon="10.401327610015869">
        <ele>2051.5900000000001</ele>
        <time>2018-07-07T09:14:57Z</time>
      </trkpt>
      <trkpt lat="45.925478618592024" lon="10.401300033554435">
        <ele>2052.0700000000002</ele>
        <time>2018-07-07T09:15:05Z</time>
      </trkpt>
      <trkpt lat="45.925509799271822" lon="10.401283856481314">
        <ele>2052.0700000000002</ele>
        <time>2018-07-07T09:15:16Z</time>
      </trkpt>
      <trkpt lat="45.925504770129919" lon="10.401281593367457">
        <ele>2052.0700000000002</ele>
        <time>2018-07-07T09:15:31Z</time>
      </trkpt>
      <trkpt lat="45.925482641905546" lon="10.401283856481314">
        <ele>2052.0700000000002</ele>
        <time>2018-07-07T09:15:36Z</time>
      </trkpt>
      <trkpt lat="45.9254315122962" lon="10.401335321366787">
        <ele>2052.5500000000002</ele>
        <time>2018-07-07T09:15:47Z</time>
      </trkpt>
      <trkpt lat="45.925400918349624" lon="10.401385026052594">
        <ele>2053.0300000000002</ele>
        <time>2018-07-07T09:15:53Z</time>
      </trkpt>
      <trkpt lat="45.925362780690193" lon="10.401442106813192">
        <ele>2053.5100000000002</ele>
        <time>2018-07-07T09:16:04Z</time>
      </trkpt>
      <trkpt lat="45.925366636365652" lon="10.401495918631554">
        <ele>2054.4699999999998</ele>
        <time>2018-07-07T09:16:13Z</time>
      </trkpt>
      <trkpt lat="45.925321709364653" lon="10.401604967191815">
        <ele>2055.9200000000001</ele>
        <time>2018-07-07T09:16:24Z</time>
      </trkpt>
      <trkpt lat="45.925308633595705" lon="10.401741759851575">
        <ele>2057.3600000000001</ele>
        <time>2018-07-07T09:16:36Z</time>
      </trkpt>
      <trkpt lat="45.925311231985688" lon="10.401865812018514">
        <ele>2058.8000000000002</ele>
        <time>2018-07-07T09:16:47Z</time>
      </trkpt>
      <trkpt lat="45.925301006063819" lon="10.401892634108663">
        <ele>2059.2800000000002</ele>
        <time>2018-07-07T09:16:55Z</time>
      </trkpt>
      <trkpt lat="45.925313998013735" lon="10.401972597464919">
        <ele>2060.2399999999998</ele>
        <time>2018-07-07T09:17:04Z</time>
      </trkpt>
      <trkpt lat="45.925318272784352" lon="10.401992462575436">
        <ele>2061.1999999999998</ele>
        <time>2018-07-07T09:17:13Z</time>
      </trkpt>
      <trkpt lat="45.925312237814069" lon="10.402050297707319">
        <ele>2061.6799999999998</ele>
        <time>2018-07-07T09:17:23Z</time>
      </trkpt>
      <trkpt lat="45.925315087661147" lon="10.402100337669253">
        <ele>2062.1700000000001</ele>
        <time>2018-07-07T09:17:32Z</time>
      </trkpt>
      <trkpt lat="45.925320954993367" lon="10.402194382622838">
        <ele>2063.6100000000001</ele>
        <time>2018-07-07T09:17:41Z</time>
      </trkpt>
      <trkpt lat="45.925321709364653" lon="10.402313824743032">
        <ele>2065.0500000000002</ele>
        <time>2018-07-07T09:17:52Z</time>
      </trkpt>
      <trkpt lat="45.925323134288192" lon="10.40243829600513">
        <ele>2066.9699999999998</ele>
        <time>2018-07-07T09:18:04Z</time>
      </trkpt>
      <trkpt lat="45.925310980528593" lon="10.402548434212804">
        <ele>2068.4099999999999</ele>
        <time>2018-07-07T09:18:15Z</time>
      </trkpt>
      <trkpt lat="45.925311902537942" lon="10.402666116133332">
        <ele>2069.8600000000001</ele>
        <time>2018-07-07T09:18:27Z</time>
      </trkpt>
      <trkpt lat="45.9253088850528" lon="10.40269972756505">
        <ele>2070.3400000000001</ele>
        <time>2018-07-07T09:18:33Z</time>
      </trkpt>
      <trkpt lat="45.925319781526923" lon="10.402782373130322">
        <ele>2070.8200000000002</ele>
        <time>2018-07-07T09:18:44Z</time>
      </trkpt>
      <trkpt lat="45.925321374088526" lon="10.402791844680905">
        <ele>2071.3000000000002</ele>
        <time>2018-07-07T09:18:46Z</time>
      </trkpt>
      <trkpt lat="45.925353979691863" lon="10.402859151363373">
        <ele>2071.7800000000002</ele>
        <time>2018-07-07T09:18:53Z</time>
      </trkpt>
      <trkpt lat="45.92538071796298" lon="10.402974570170045">
        <ele>2072.7399999999998</ele>
        <time>2018-07-07T09:19:03Z</time>
      </trkpt>
      <trkpt lat="45.925410054624081" lon="10.403057048097253">
        <ele>2074.1799999999998</ele>
        <time>2018-07-07T09:19:12Z</time>
      </trkpt>
      <trkpt lat="45.925434613600373" lon="10.403151428326964">
        <ele>2075.6199999999999</ele>
        <time>2018-07-07T09:19:22Z</time>
      </trkpt>
      <trkpt lat="45.925444671884179" lon="10.403169952332973">
        <ele>2075.6199999999999</ele>
        <time>2018-07-07T09:19:24Z</time>
      </trkpt>
      <trkpt lat="45.925473924726248" lon="10.403274726122618">
        <ele>2076.5900000000001</ele>
        <time>2018-07-07T09:19:35Z</time>
      </trkpt>
      <trkpt lat="45.925489347428083" lon="10.40335888043046">
        <ele>2078.0300000000002</ele>
        <time>2018-07-07T09:19:43Z</time>
      </trkpt>
      <trkpt lat="45.925531508401036" lon="10.403451835736632">
        <ele>2079.4699999999998</ele>
        <time>2018-07-07T09:19:53Z</time>
      </trkpt>
      <trkpt lat="45.925574926659465" lon="10.403521237894893">
        <ele>2080.9099999999999</ele>
        <time>2018-07-07T09:20:01Z</time>
      </trkpt>
      <trkpt lat="45.925627984106541" lon="10.403590891510248">
        <ele>2081.8699999999999</ele>
        <time>2018-07-07T09:20:10Z</time>
      </trkpt>
      <trkpt lat="45.92562991194427" lon="10.403626598417759">
        <ele>2082.8299999999999</ele>
        <time>2018-07-07T09:20:18Z</time>
      </trkpt>
      <trkpt lat="45.925660924986005" lon="10.403688959777355">
        <ele>2083.3099999999999</ele>
        <time>2018-07-07T09:20:27Z</time>
      </trkpt>
      <trkpt lat="45.925723621621728" lon="10.403733719140291">
        <ele>2084.7600000000002</ele>
        <time>2018-07-07T09:20:37Z</time>
      </trkpt>
      <trkpt lat="45.92579310759902" lon="10.403761798515916">
        <ele>2086.1999999999998</ele>
        <time>2018-07-07T09:20:48Z</time>
      </trkpt>
      <trkpt lat="45.925845662131906" lon="10.403764396905899">
        <ele>2087.1599999999999</ele>
        <time>2018-07-07T09:20:55Z</time>
      </trkpt>
      <trkpt lat="45.925933923572302" lon="10.403806306421757">
        <ele>2088.5999999999999</ele>
        <time>2018-07-07T09:21:06Z</time>
      </trkpt>
      <trkpt lat="45.926005924120545" lon="10.403890628367662">
        <ele>2089.5599999999999</ele>
        <time>2018-07-07T09:21:17Z</time>
      </trkpt>
      <trkpt lat="45.926075661554933" lon="10.403950894251466">
        <ele>2091.4899999999998</ele>
        <time>2018-07-07T09:21:28Z</time>
      </trkpt>
      <trkpt lat="45.92609410174191" lon="10.403983164578676">
        <ele>2092.4499999999998</ele>
        <time>2018-07-07T09:21:35Z</time>
      </trkpt>
      <trkpt lat="45.926111619919538" lon="10.403998838737607">
        <ele>2092.9299999999998</ele>
        <time>2018-07-07T09:21:38Z</time>
      </trkpt>
      <trkpt lat="45.926157217472792" lon="10.404041754081845">
        <ele>2093.8899999999999</ele>
        <time>2018-07-07T09:21:48Z</time>
      </trkpt>
      <trkpt lat="45.926163420081139" lon="10.40413822978735">
        <ele>2095.3299999999999</ele>
        <time>2018-07-07T09:22:00Z</time>
      </trkpt>
      <trkpt lat="45.926093850284815" lon="10.404167901724577">
        <ele>2096.77</ele>
        <time>2018-07-07T09:22:10Z</time>
      </trkpt>
      <trkpt lat="45.926031488925219" lon="10.404230849817395">
        <ele>2098.21</ele>
        <time>2018-07-07T09:22:21Z</time>
      </trkpt>
      <trkpt lat="45.926028219982982" lon="10.404332857578993">
        <ele>2099.1799999999998</ele>
        <time>2018-07-07T09:22:32Z</time>
      </trkpt>
      <trkpt lat="45.926017574965954" lon="10.404471829533577">
        <ele>2101.5799999999999</ele>
        <time>2018-07-07T09:22:46Z</time>
      </trkpt>
      <trkpt lat="45.926018329337239" lon="10.404555648565292">
        <ele>2102.54</ele>
        <time>2018-07-07T09:22:56Z</time>
      </trkpt>
      <trkpt lat="45.926046911627054" lon="10.404656734317541">
        <ele>2103.98</ele>
        <time>2018-07-07T09:23:06Z</time>
      </trkpt>
      <trkpt lat="45.926066692918539" lon="10.404700739309192">
        <ele>2104.46</ele>
        <time>2018-07-07T09:23:11Z</time>
      </trkpt>
      <trkpt lat="45.926080103963614" lon="10.404802998527884">
        <ele>2105.9099999999999</ele>
        <time>2018-07-07T09:23:20Z</time>
      </trkpt>
      <trkpt lat="45.926093850284815" lon="10.404883213341236">
        <ele>2107.3499999999999</ele>
        <time>2018-07-07T09:23:28Z</time>
      </trkpt>
      <trkpt lat="45.926119331270456" lon="10.405004834756255">
        <ele>2108.79</ele>
        <time>2018-07-07T09:23:40Z</time>
      </trkpt>
      <trkpt lat="45.926128886640072" lon="10.405093934386969">
        <ele>2109.75</ele>
        <time>2018-07-07T09:23:49Z</time>
      </trkpt>
      <trkpt lat="45.926140705123544" lon="10.405124528333545">
        <ele>2110.23</ele>
        <time>2018-07-07T09:23:52Z</time>
      </trkpt>
      <trkpt lat="45.926166269928217" lon="10.405239276587963">
        <ele>2111.6700000000001</ele>
        <time>2018-07-07T09:24:04Z</time>
      </trkpt>
      <trkpt lat="45.926183117553592" lon="10.405355365946889">
        <ele>2113.5999999999999</ele>
        <time>2018-07-07T09:24:17Z</time>
      </trkpt>
      <trkpt lat="45.926199965178967" lon="10.405442034825683">
        <ele>2114.5599999999999</ele>
        <time>2018-07-07T09:24:26Z</time>
      </trkpt>
      <trkpt lat="45.926229804754257" lon="10.405518477782607">
        <ele>2115.04</ele>
        <time>2018-07-07T09:24:33Z</time>
      </trkpt>
      <trkpt lat="45.926243886351585" lon="10.405556699261069">
        <ele>2115.52</ele>
        <time>2018-07-07T09:24:36Z</time>
      </trkpt>
      <trkpt lat="45.926288813352585" lon="10.405710758641362">
        <ele>2116</ele>
        <time>2018-07-07T09:24:48Z</time>
      </trkpt>
      <trkpt lat="45.926294093951583" lon="10.405722409486771">
        <ele>2115.52</ele>
        <time>2018-07-07T09:24:49Z</time>
      </trkpt>
      <trkpt lat="45.926308007910848" lon="10.405751243233681">
        <ele>2115.52</ele>
        <time>2018-07-07T09:24:52Z</time>
      </trkpt>
      <trkpt lat="45.926351426169276" lon="10.405852496623993">
        <ele>2116</ele>
        <time>2018-07-07T09:25:01Z</time>
      </trkpt>
      <trkpt lat="45.926409009844065" lon="10.405975542962551">
        <ele>2116.96</ele>
        <time>2018-07-07T09:25:12Z</time>
      </trkpt>
      <trkpt lat="45.926412362605333" lon="10.405996581539512">
        <ele>2116.96</ele>
        <time>2018-07-07T09:25:14Z</time>
      </trkpt>
      <trkpt lat="45.926421415060759" lon="10.406106384471059">
        <ele>2117.9200000000001</ele>
        <time>2018-07-07T09:25:22Z</time>
      </trkpt>
      <trkpt lat="45.92645326629281" lon="10.406211325898767">
        <ele>2118.4000000000001</ele>
        <time>2018-07-07T09:25:31Z</time>
      </trkpt>
      <trkpt lat="45.926493834704161" lon="10.406343257054687">
        <ele>2119.3600000000001</ele>
        <time>2018-07-07T09:25:43Z</time>
      </trkpt>
      <trkpt lat="45.926503054797649" lon="10.406476864591241">
        <ele>2120.8099999999999</ele>
        <time>2018-07-07T09:25:55Z</time>
      </trkpt>
      <trkpt lat="45.926508335396647" lon="10.406549284234643">
        <ele>2121.77</ele>
        <time>2018-07-07T09:26:02Z</time>
      </trkpt>
      <trkpt lat="45.926527362316847" lon="10.406656069681048">
        <ele>2122.73</ele>
        <time>2018-07-07T09:26:12Z</time>
      </trkpt>
      <trkpt lat="45.926541779190302" lon="10.40674801915884">
        <ele>2123.6900000000001</ele>
        <time>2018-07-07T09:26:23Z</time>
      </trkpt>
      <trkpt lat="45.926548819988966" lon="10.406835107132792">
        <ele>2124.1700000000001</ele>
        <time>2018-07-07T09:26:34Z</time>
      </trkpt>
      <trkpt lat="45.926582347601652" lon="10.406988747417927">
        <ele>2126.0900000000001</ele>
        <time>2018-07-07T09:26:46Z</time>
      </trkpt>
      <trkpt lat="45.926598189398646" lon="10.40710274130106">
        <ele>2127.0500000000002</ele>
        <time>2018-07-07T09:26:55Z</time>
      </trkpt>
      <trkpt lat="45.926607577130198" lon="10.407241629436612">
        <ele>2128.5</ele>
        <time>2018-07-07T09:27:07Z</time>
      </trkpt>
      <trkpt lat="45.926613109186292" lon="10.407373309135437">
        <ele>2129.9400000000001</ele>
        <time>2018-07-07T09:27:17Z</time>
      </trkpt>
      <trkpt lat="45.926626352593303" lon="10.407505324110389">
        <ele>2131.3800000000001</ele>
        <time>2018-07-07T09:27:28Z</time>
      </trkpt>
      <trkpt lat="45.926639847457409" lon="10.407635159790516">
        <ele>2132.8200000000002</ele>
        <time>2018-07-07T09:27:40Z</time>
      </trkpt>
      <trkpt lat="45.92663062736392" lon="10.407733479514718">
        <ele>2134.2600000000002</ele>
        <time>2018-07-07T09:27:50Z</time>
      </trkpt>
      <trkpt lat="45.926611851900816" lon="10.407789302989841">
        <ele>2134.7399999999998</ele>
        <time>2018-07-07T09:27:55Z</time>
      </trkpt>
      <trkpt lat="45.926569188013673" lon="10.407913606613874">
        <ele>2136.6700000000001</ele>
        <time>2018-07-07T09:28:07Z</time>
      </trkpt>
      <trkpt lat="45.926509592682123" lon="10.408032545819879">
        <ele>2138.1100000000001</ele>
        <time>2018-07-07T09:28:19Z</time>
      </trkpt>
      <trkpt lat="45.926481429487467" lon="10.408129524439573">
        <ele>2139.5500000000002</ele>
        <time>2018-07-07T09:28:29Z</time>
      </trkpt>
      <trkpt lat="45.926455277949572" lon="10.408212337642908">
        <ele>2140.9899999999998</ele>
        <time>2018-07-07T09:28:38Z</time>
      </trkpt>
      <trkpt lat="45.926394173875451" lon="10.408315937966108">
        <ele>2142.9200000000001</ele>
        <time>2018-07-07T09:28:50Z</time>
      </trkpt>
      <trkpt lat="45.92632619664073" lon="10.408363630995154">
        <ele>2144.3600000000001</ele>
        <time>2018-07-07T09:29:00Z</time>
      </trkpt>
      <trkpt lat="45.926278252154589" lon="10.408450970426202">
        <ele>2145.8000000000002</ele>
        <time>2018-07-07T09:29:12Z</time>
      </trkpt>
      <trkpt lat="45.926254447549582" lon="10.408434793353081">
        <ele>2145.8000000000002</ele>
        <time>2018-07-07T09:29:22Z</time>
      </trkpt>
      <trkpt lat="45.926209185272455" lon="10.408501932397485">
        <ele>2147.2399999999998</ele>
        <time>2018-07-07T09:29:33Z</time>
      </trkpt>
      <trkpt lat="45.926181860268116" lon="10.408533532172441">
        <ele>2148.1999999999998</ele>
        <time>2018-07-07T09:29:38Z</time>
      </trkpt>
      <trkpt lat="45.926165012642741" lon="10.408590529114008">
        <ele>2148.6799999999998</ele>
        <time>2018-07-07T09:29:48Z</time>
      </trkpt>
      <trkpt lat="45.926122013479471" lon="10.408690860494971">
        <ele>2150.6100000000001</ele>
        <time>2018-07-07T09:30:00Z</time>
      </trkpt>
      <trkpt lat="45.926065435633063" lon="10.408750288188457">
        <ele>2152.0500000000002</ele>
        <time>2018-07-07T09:30:10Z</time>
      </trkpt>
      <trkpt lat="45.926027549430728" lon="10.40884030982852">
        <ele>2153.4899999999998</ele>
        <time>2018-07-07T09:30:21Z</time>
      </trkpt>
      <trkpt lat="45.926016066223383" lon="10.408862018957734">
        <ele>2153.9699999999998</ele>
        <time>2018-07-07T09:30:24Z</time>
      </trkpt>
      <trkpt lat="45.925944317132235" lon="10.408973162993789">
        <ele>2155.4099999999999</ele>
        <time>2018-07-07T09:30:36Z</time>
      </trkpt>
      <trkpt lat="45.925886733457446" lon="10.409053293988109">
        <ele>2157.3400000000001</ele>
        <time>2018-07-07T09:30:48Z</time>
      </trkpt>
      <trkpt lat="45.925895031541586" lon="10.409064190462232">
        <ele>2157.3400000000001</ele>
        <time>2018-07-07T09:30:55Z</time>
      </trkpt>
      <trkpt lat="45.92586544342339" lon="10.409111715853214">
        <ele>2158.3000000000002</ele>
        <time>2018-07-07T09:31:07Z</time>
      </trkpt>
      <trkpt lat="45.92585957609117" lon="10.409147590398788">
        <ele>2158.7800000000002</ele>
        <time>2018-07-07T09:31:11Z</time>
      </trkpt>
      <trkpt lat="45.925814146175981" lon="10.409193942323327">
        <ele>2159.7399999999998</ele>
        <time>2018-07-07T09:31:19Z</time>
      </trkpt>
      <trkpt lat="45.925765028223395" lon="10.409264182671905">
        <ele>2161.1799999999998</ele>
        <time>2018-07-07T09:31:31Z</time>
      </trkpt>
      <trkpt lat="45.925718508660793" lon="10.40932453237474">
        <ele>2162.1399999999999</ele>
        <time>2018-07-07T09:31:39Z</time>
      </trkpt>
      <trkpt lat="45.925678694620728" lon="10.409388151019812">
        <ele>2163.5799999999999</ele>
        <time>2018-07-07T09:31:48Z</time>
      </trkpt>
      <trkpt lat="45.925644244998693" lon="10.409451937302947">
        <ele>2164.5500000000002</ele>
        <time>2018-07-07T09:31:58Z</time>
      </trkpt>
      <trkpt lat="45.92560887336731" lon="10.409551598131657">
        <ele>2165.0300000000002</ele>
        <time>2018-07-07T09:32:08Z</time>
      </trkpt>
      <trkpt lat="45.92559764161706" lon="10.409600548446178">
        <ele>2165.0300000000002</ele>
        <time>2018-07-07T09:32:17Z</time>
      </trkpt>
      <trkpt lat="45.925600910559297" lon="10.40961773134768">
        <ele>2165.5100000000002</ele>
        <time>2018-07-07T09:32:29Z</time>
      </trkpt>
      <trkpt lat="45.925595127046108" lon="10.409636758267879">
        <ele>2165.5100000000002</ele>
        <time>2018-07-07T09:32:38Z</time>
      </trkpt>
      <trkpt lat="45.925602000206709" lon="10.409626699984074">
        <ele>2165.5100000000002</ele>
        <time>2018-07-07T09:32:54Z</time>
      </trkpt>
      <trkpt lat="45.925632594153285" lon="10.409634411334991">
        <ele>2165.5100000000002</ele>
        <time>2018-07-07T09:33:10Z</time>
      </trkpt>
      <trkpt lat="45.925627229735255" lon="10.409645810723305">
        <ele>2165.9899999999998</ele>
        <time>2018-07-07T09:33:21Z</time>
      </trkpt>
      <trkpt lat="45.925646172836423" lon="10.409622509032488">
        <ele>2165.0300000000002</ele>
        <time>2018-07-07T09:33:30Z</time>
      </trkpt>
      <trkpt lat="45.925656650215387" lon="10.409606667235494">
        <ele>2165.0300000000002</ele>
        <time>2018-07-07T09:33:51Z</time>
      </trkpt>
      <trkpt lat="45.925636114552617" lon="10.409588813781738">
        <ele>2165.0300000000002</ele>
        <time>2018-07-07T09:34:11Z</time>
      </trkpt>
      <trkpt lat="45.925589511170983" lon="10.409599123522639">
        <ele>2165.5100000000002</ele>
        <time>2018-07-07T09:34:35Z</time>
      </trkpt>
      <trkpt lat="45.925573501735926" lon="10.409627035260201">
        <ele>2165.5100000000002</ele>
        <time>2018-07-07T09:34:57Z</time>
      </trkpt>
      <trkpt lat="45.92554927803576" lon="10.409654695540667">
        <ele>2166.4699999999998</ele>
        <time>2018-07-07T09:35:06Z</time>
      </trkpt>
      <trkpt lat="45.925581967458129" lon="10.409642457962036">
        <ele>2165.9899999999998</ele>
        <time>2018-07-07T09:35:14Z</time>
      </trkpt>
      <trkpt lat="45.92561474069953" lon="10.409623263403773">
        <ele>2166.4699999999998</ele>
        <time>2018-07-07T09:35:29Z</time>
      </trkpt>
      <trkpt lat="45.925634689629078" lon="10.409618485718966">
        <ele>2166.9499999999998</ele>
        <time>2018-07-07T09:35:46Z</time>
      </trkpt>
      <trkpt lat="45.925628822296858" lon="10.409662323072553">
        <ele>2166.4699999999998</ele>
        <time>2018-07-07T09:35:54Z</time>
      </trkpt>
      <trkpt lat="45.925656817853451" lon="10.40965486317873">
        <ele>2166.4699999999998</ele>
        <time>2018-07-07T09:36:07Z</time>
      </trkpt>
      <trkpt lat="45.925693698227406" lon="10.409626280888915">
        <ele>2166.4699999999998</ele>
        <time>2018-07-07T09:36:26Z</time>
      </trkpt>
      <trkpt lat="45.925662685185671" lon="10.40962946601212">
        <ele>2166.9499999999998</ele>
        <time>2018-07-07T09:36:45Z</time>
      </trkpt>
      <trkpt lat="45.925662349909544" lon="10.409629801288247">
        <ele>2168.3899999999999</ele>
        <time>2018-07-07T09:36:49Z</time>
      </trkpt>
      <trkpt lat="45.925661008805037" lon="10.409634076058865">
        <ele>2166.9499999999998</ele>
        <time>2018-07-07T09:36:51Z</time>
      </trkpt>
      <trkpt lat="45.925633516162634" lon="10.409627202898264">
        <ele>2166.9499999999998</ele>
        <time>2018-07-07T09:37:11Z</time>
      </trkpt>
      <trkpt lat="45.925622116774321" lon="10.409648660570383">
        <ele>2166.9499999999998</ele>
        <time>2018-07-07T09:37:33Z</time>
      </trkpt>
      <trkpt lat="45.925644328817725" lon="10.409664418548346">
        <ele>2166.9499999999998</ele>
        <time>2018-07-07T09:37:52Z</time>
      </trkpt>
      <trkpt lat="45.925637036561966" lon="10.409650253131986">
        <ele>2167.4299999999998</ele>
        <time>2018-07-07T09:38:05Z</time>
      </trkpt>
      <trkpt lat="45.925643155351281" lon="10.409639272838831">
        <ele>2167.9099999999999</ele>
        <time>2018-07-07T09:38:19Z</time>
      </trkpt>
      <trkpt lat="45.925630498677492" lon="10.409648576751351">
        <ele>2167.4299999999998</ele>
        <time>2018-07-07T09:38:33Z</time>
      </trkpt>
      <trkpt lat="45.925607616081834" lon="10.409669866785407">
        <ele>2166.9499999999998</ele>
        <time>2018-07-07T09:38:47Z</time>
      </trkpt>
      <trkpt lat="45.925622703507543" lon="10.409655617550015">
        <ele>2167.9099999999999</ele>
        <time>2018-07-07T09:39:02Z</time>
      </trkpt>
      <trkpt lat="45.925629492849112" lon="10.409646229818463">
        <ele>2167.4299999999998</ele>
        <time>2018-07-07T09:39:15Z</time>
      </trkpt>
      <trkpt lat="45.92562890611589" lon="10.409657880663872">
        <ele>2167.4299999999998</ele>
        <time>2018-07-07T09:39:31Z</time>
      </trkpt>
      <trkpt lat="45.925633516162634" lon="10.409623011946678">
        <ele>2167.9099999999999</ele>
        <time>2018-07-07T09:39:37Z</time>
      </trkpt>
      <trkpt lat="45.925609208643436" lon="10.409549754112959">
        <ele>2167.4299999999998</ele>
        <time>2018-07-07T09:39:46Z</time>
      </trkpt>
      <trkpt lat="45.925597054883838" lon="10.409534415230155">
        <ele>2167.9099999999999</ele>
        <time>2018-07-07T09:39:59Z</time>
      </trkpt>
      <trkpt lat="45.925600491464138" lon="10.409558722749352">
        <ele>2167.9099999999999</ele>
        <time>2018-07-07T09:40:12Z</time>
      </trkpt>
      <trkpt lat="45.925574088469148" lon="10.409558387473226">
        <ele>2167.4299999999998</ele>
        <time>2018-07-07T09:40:28Z</time>
      </trkpt>
      <trkpt lat="45.925619937479496" lon="10.409634914249182">
        <ele>2167.4299999999998</ele>
        <time>2018-07-07T09:40:37Z</time>
      </trkpt>
      <trkpt lat="45.925628989934921" lon="10.409695096313953">
        <ele>2167.9099999999999</ele>
        <time>2018-07-07T09:40:47Z</time>
      </trkpt>
      <trkpt lat="45.925609124824405" lon="10.409714290872216">
        <ele>2168.3899999999999</ele>
        <time>2018-07-07T09:41:00Z</time>
      </trkpt>
      <trkpt lat="45.925589511170983" lon="10.409707836806774">
        <ele>2168.3899999999999</ele>
        <time>2018-07-07T09:41:13Z</time>
      </trkpt>
      <trkpt lat="45.925614656880498" lon="10.409816969186068">
        <ele>2168.3899999999999</ele>
        <time>2018-07-07T09:41:22Z</time>
      </trkpt>
      <trkpt lat="45.925609795376658" lon="10.409818477928638">
        <ele>2168.3899999999999</ele>
        <time>2018-07-07T09:41:30Z</time>
      </trkpt>
      <trkpt lat="45.925650531426072" lon="10.409844210371375">
        <ele>2168.3899999999999</ele>
        <time>2018-07-07T09:41:42Z</time>
      </trkpt>
      <trkpt lat="45.925661092624068" lon="10.409880084916949">
        <ele>2168.8699999999999</ele>
        <time>2018-07-07T09:41:45Z</time>
      </trkpt>
      <trkpt lat="45.925674419850111" lon="10.409988882020116">
        <ele>2169.3499999999999</ele>
        <time>2018-07-07T09:41:54Z</time>
      </trkpt>
      <trkpt lat="45.925682215020061" lon="10.410048477351665">
        <ele>2169.3499999999999</ele>
        <time>2018-07-07T09:41:59Z</time>
      </trkpt>
      <trkpt lat="45.925746839493513" lon="10.410179989412427">
        <ele>2170.79</ele>
        <time>2018-07-07T09:42:12Z</time>
      </trkpt>
      <trkpt lat="45.925790425390005" lon="10.410266993567348">
        <ele>2172.2399999999998</ele>
        <time>2018-07-07T09:42:22Z</time>
      </trkpt>
      <trkpt lat="45.925811463966966" lon="10.410346202552319">
        <ele>2173.1999999999998</ele>
        <time>2018-07-07T09:42:31Z</time>
      </trkpt>
      <trkpt lat="45.925834765657783" lon="10.410454161465168">
        <ele>2174.1599999999999</ele>
        <time>2018-07-07T09:42:43Z</time>
      </trkpt>
      <trkpt lat="45.925883548334241" lon="10.410515600815415">
        <ele>2176.5599999999999</ele>
        <time>2018-07-07T09:42:52Z</time>
      </trkpt>
      <trkpt lat="45.925917243584991" lon="10.410602940246463">
        <ele>2175.5999999999999</ele>
        <time>2018-07-07T09:43:01Z</time>
      </trkpt>
      <trkpt lat="45.925920847803354" lon="10.410608053207397">
        <ele>2175.5999999999999</ele>
        <time>2018-07-07T09:43:02Z</time>
      </trkpt>
      <trkpt lat="45.925992513075471" lon="10.410732105374336">
        <ele>2176.0799999999999</ele>
        <time>2018-07-07T09:43:14Z</time>
      </trkpt>
      <trkpt lat="45.926054371520877" lon="10.41082120500505">
        <ele>2176.5599999999999</ele>
        <time>2018-07-07T09:43:24Z</time>
      </trkpt>
      <trkpt lat="45.926085719838738" lon="10.410900413990021">
        <ele>2177.04</ele>
        <time>2018-07-07T09:43:31Z</time>
      </trkpt>
      <trkpt lat="45.926095694303513" lon="10.410933019593358">
        <ele>2177.52</ele>
        <time>2018-07-07T09:43:34Z</time>
      </trkpt>
      <trkpt lat="45.926166018471122" lon="10.411039553582668">
        <ele>2177.52</ele>
        <time>2018-07-07T09:43:45Z</time>
      </trkpt>
      <trkpt lat="45.926218740642071" lon="10.411110129207373">
        <ele>2177.52</ele>
        <time>2018-07-07T09:43:53Z</time>
      </trkpt>
      <trkpt lat="45.926333069801331" lon="10.411201911047101">
        <ele>2177.52</ele>
        <time>2018-07-07T09:44:06Z</time>
      </trkpt>
      <trkpt lat="45.926389815285802" lon="10.411248682066798">
        <ele>2177.04</ele>
        <time>2018-07-07T09:44:13Z</time>
      </trkpt>
      <trkpt lat="45.926493918523192" lon="10.411316491663456">
        <ele>2177.04</ele>
        <time>2018-07-07T09:44:25Z</time>
      </trkpt>
      <trkpt lat="45.926555190235376" lon="10.411352114751935">
        <ele>2177.04</ele>
        <time>2018-07-07T09:44:31Z</time>
      </trkpt>
      <trkpt lat="45.926698688417673" lon="10.41143492795527">
        <ele>2177.04</ele>
        <time>2018-07-07T09:44:45Z</time>
      </trkpt>
      <trkpt lat="45.926793152466416" lon="10.411544060334563">
        <ele>2176.5599999999999</ele>
        <time>2018-07-07T09:44:56Z</time>
      </trkpt>
      <trkpt lat="45.9268993511796" lon="10.411648079752922">
        <ele>2175.5999999999999</ele>
        <time>2018-07-07T09:45:08Z</time>
      </trkpt>
      <trkpt lat="45.92699071392417" lon="10.41173935867846">
        <ele>2174.1599999999999</ele>
        <time>2018-07-07T09:45:19Z</time>
      </trkpt>
      <trkpt lat="45.927097834646702" lon="10.411815801635385">
        <ele>2173.1999999999998</ele>
        <time>2018-07-07T09:45:31Z</time>
      </trkpt>
      <trkpt lat="45.927174780517817" lon="10.411880007013679">
        <ele>2172.2399999999998</ele>
        <time>2018-07-07T09:45:39Z</time>
      </trkpt>
      <trkpt lat="45.927242841571569" lon="10.411941949278116">
        <ele>2171.27</ele>
        <time>2018-07-07T09:45:46Z</time>
      </trkpt>
      <trkpt lat="45.927279638126493" lon="10.411986038088799">
        <ele>2171.27</ele>
        <time>2018-07-07T09:45:50Z</time>
      </trkpt>
      <trkpt lat="45.927370833232999" lon="10.412094919010997">
        <ele>2170.3099999999999</ele>
        <time>2018-07-07T09:46:02Z</time>
      </trkpt>
      <trkpt lat="45.927479043602943" lon="10.412198435515165">
        <ele>2168.8699999999999</ele>
        <time>2018-07-07T09:46:15Z</time>
      </trkpt>
      <trkpt lat="45.927610639482737" lon="10.412313602864742">
        <ele>2167.9099999999999</ele>
        <time>2018-07-07T09:46:28Z</time>
      </trkpt>
      <trkpt lat="45.927713653072715" lon="10.41238434612751">
        <ele>2167.4299999999998</ele>
        <time>2018-07-07T09:46:39Z</time>
      </trkpt>
      <trkpt lat="45.927726645022631" lon="10.412386944517493">
        <ele>2167.4299999999998</ele>
        <time>2018-07-07T09:46:40Z</time>
      </trkpt>
      <trkpt lat="45.927758496254683" lon="10.412406725808978">
        <ele>2166.9499999999998</ele>
        <time>2018-07-07T09:46:47Z</time>
      </trkpt>
      <trkpt lat="45.927848182618618" lon="10.412402786314487">
        <ele>2168.3899999999999</ele>
        <time>2018-07-07T09:46:54Z</time>
      </trkpt>
      <trkpt lat="45.927870646119118" lon="10.412397421896458">
        <ele>2167.9099999999999</ele>
        <time>2018-07-07T09:46:56Z</time>
      </trkpt>
      <trkpt lat="45.927905095741153" lon="10.412405887618661">
        <ele>2167.4299999999998</ele>
        <time>2018-07-07T09:46:59Z</time>
      </trkpt>
      <trkpt lat="45.928009366616607" lon="10.412435978651047">
        <ele>2168.3899999999999</ele>
        <time>2018-07-07T09:47:09Z</time>
      </trkpt>
      <trkpt lat="45.928123025223613" lon="10.412451736629009">
        <ele>2169.8299999999999</ele>
        <time>2018-07-07T09:47:21Z</time>
      </trkpt>
      <trkpt lat="45.928226793184876" lon="10.412483252584934">
        <ele>2170.3099999999999</ele>
        <time>2018-07-07T09:47:33Z</time>
      </trkpt>
      <trkpt lat="45.928311869502068" lon="10.412526587024331">
        <ele>2171.27</ele>
        <time>2018-07-07T09:47:43Z</time>
      </trkpt>
      <trkpt lat="45.928407171741128" lon="10.412590289488435">
        <ele>2172.2399999999998</ele>
        <time>2018-07-07T09:47:54Z</time>
      </trkpt>
      <trkpt lat="45.928483949974179" lon="10.412653405219316">
        <ele>2172.2399999999998</ele>
        <time>2018-07-07T09:48:03Z</time>
      </trkpt>
      <trkpt lat="45.928583526983857" lon="10.412708977237344">
        <ele>2172.7199999999998</ele>
        <time>2018-07-07T09:48:14Z</time>
      </trkpt>
      <trkpt lat="45.928681176155806" lon="10.412735547870398">
        <ele>2173.6799999999998</ele>
        <time>2018-07-07T09:48:25Z</time>
      </trkpt>
      <trkpt lat="45.928756278008223" lon="10.412756083533168">
        <ele>2174.1599999999999</ele>
        <time>2018-07-07T09:48:34Z</time>
      </trkpt>
      <trkpt lat="45.928834648802876" lon="10.412762453779578">
        <ele>2175.1199999999999</ele>
        <time>2018-07-07T09:48:44Z</time>
      </trkpt>
      <trkpt lat="45.928914193063974" lon="10.412802519276738">
        <ele>2176.0799999999999</ele>
        <time>2018-07-07T09:48:54Z</time>
      </trkpt>
      <trkpt lat="45.928967082872987" lon="10.412835795432329">
        <ele>2177.04</ele>
        <time>2018-07-07T09:49:03Z</time>
      </trkpt>
      <trkpt lat="45.92904344201088" lon="10.412885835394263">
        <ele>2178</ele>
        <time>2018-07-07T09:49:14Z</time>
      </trkpt>
      <trkpt lat="45.92911091633141" lon="10.41292036883533">
        <ele>2179.4499999999998</ele>
        <time>2018-07-07T09:49:23Z</time>
      </trkpt>
      <trkpt lat="45.929198255762458" lon="10.41295113041997">
        <ele>2180.4099999999999</ele>
        <time>2018-07-07T09:49:35Z</time>
      </trkpt>
      <trkpt lat="45.929309399798512" lon="10.412968900054693">
        <ele>2181.8499999999999</ele>
        <time>2018-07-07T09:49:48Z</time>
      </trkpt>
      <trkpt lat="45.929387351498008" lon="10.412984741851687">
        <ele>2183.29</ele>
        <time>2018-07-07T09:49:59Z</time>
      </trkpt>
      <trkpt lat="45.929429847747087" lon="10.412986082956195">
        <ele>2183.77</ele>
        <time>2018-07-07T09:50:05Z</time>
      </trkpt>
      <trkpt lat="45.929517270997167" lon="10.412978706881404">
        <ele>2185.21</ele>
        <time>2018-07-07T09:50:17Z</time>
      </trkpt>
      <trkpt lat="45.929564544931054" lon="10.412951465696096">
        <ele>2186.1799999999998</ele>
        <time>2018-07-07T09:50:24Z</time>
      </trkpt>
      <trkpt lat="45.929645011201501" lon="10.41292916983366">
        <ele>2187.1399999999999</ele>
        <time>2018-07-07T09:50:34Z</time>
      </trkpt>
      <trkpt lat="45.929735116660595" lon="10.412908969447017">
        <ele>2188.0999999999999</ele>
        <time>2018-07-07T09:50:45Z</time>
      </trkpt>
      <trkpt lat="45.929767219349742" lon="10.41290083900094">
        <ele>2188.5799999999999</ele>
        <time>2018-07-07T09:50:55Z</time>
      </trkpt>
      <trkpt lat="45.92976319603622" lon="10.412908047437668">
        <ele>2188.5799999999999</ele>
        <time>2018-07-07T09:51:00Z</time>
      </trkpt>
      <trkpt lat="45.929839722812176" lon="10.412881141528487">
        <ele>2189.54</ele>
        <time>2018-07-07T09:51:10Z</time>
      </trkpt>
      <trkpt lat="45.929934773594141" lon="10.412889691069722">
        <ele>2190.98</ele>
        <time>2018-07-07T09:51:20Z</time>
      </trkpt>
      <trkpt lat="45.930023621767759" lon="10.412933947518468">
        <ele>2191.9400000000001</ele>
        <time>2018-07-07T09:51:30Z</time>
      </trkpt>
      <trkpt lat="45.930120265111327" lon="10.412965714931488">
        <ele>2193.3899999999999</ele>
        <time>2018-07-07T09:51:42Z</time>
      </trkpt>
      <trkpt lat="45.930182207375765" lon="10.412949621677399">
        <ele>2194.3499999999999</ele>
        <time>2018-07-07T09:51:50Z</time>
      </trkpt>
      <trkpt lat="45.930245239287615" lon="10.412908801808953">
        <ele>2195.3099999999999</ele>
        <time>2018-07-07T09:52:01Z</time>
      </trkpt>
      <trkpt lat="45.930298632010818" lon="10.41288809850812">
        <ele>2195.79</ele>
        <time>2018-07-07T09:52:20Z</time>
      </trkpt>
      <trkpt lat="45.930383540689945" lon="10.412830598652363">
        <ele>2196.75</ele>
        <time>2018-07-07T09:52:31Z</time>
      </trkpt>
      <trkpt lat="45.930392341688275" lon="10.412829928100109">
        <ele>2197.23</ele>
        <time>2018-07-07T09:52:32Z</time>
      </trkpt>
      <trkpt lat="45.930453361943364" lon="10.412860857322812">
        <ele>2197.71</ele>
        <time>2018-07-07T09:52:39Z</time>
      </trkpt>
      <trkpt lat="45.930522764101624" lon="10.412949286401272">
        <ele>2198.6700000000001</ele>
        <time>2018-07-07T09:52:49Z</time>
      </trkpt>
      <trkpt lat="45.930527541786432" lon="10.412961607798934">
        <ele>2199.1500000000001</ele>
        <time>2018-07-07T09:52:50Z</time>
      </trkpt>
      <trkpt lat="45.930542377755046" lon="10.412996979430318">
        <ele>2199.6300000000001</ele>
        <time>2018-07-07T09:52:53Z</time>
      </trkpt>
      <trkpt lat="45.930587807670236" lon="10.413077278062701">
        <ele>2200.5900000000001</ele>
        <time>2018-07-07T09:53:02Z</time>
      </trkpt>
      <trkpt lat="45.930613121017814" lon="10.413090856745839">
        <ele>2201.0799999999999</ele>
        <time>2018-07-07T09:53:06Z</time>
      </trkpt>
      <trkpt lat="45.930680595338345" lon="10.413124719634652">
        <ele>2202.04</ele>
        <time>2018-07-07T09:53:17Z</time>
      </trkpt>
      <trkpt lat="45.930754272267222" lon="10.413161013275385">
        <ele>2203.48</ele>
        <time>2018-07-07T09:53:28Z</time>
      </trkpt>
      <trkpt lat="45.93083281069994" lon="10.413182219490409">
        <ele>2204.4400000000001</ele>
        <time>2018-07-07T09:53:40Z</time>
      </trkpt>
      <trkpt lat="45.93086851760745" lon="10.413173334673047">
        <ele>2204.9200000000001</ele>
        <time>2018-07-07T09:53:45Z</time>
      </trkpt>
      <trkpt lat="45.930952671915293" lon="10.413188338279724">
        <ele>2205.8800000000001</ele>
        <time>2018-07-07T09:53:55Z</time>
      </trkpt>
      <trkpt lat="45.931032802909613" lon="10.413209879770875">
        <ele>2206.8400000000001</ele>
        <time>2018-07-07T09:54:05Z</time>
      </trkpt>
      <trkpt lat="45.931122740730643" lon="10.413221530616283">
        <ele>2207.8099999999999</ele>
        <time>2018-07-07T09:54:17Z</time>
      </trkpt>
      <trkpt lat="45.931208739057183" lon="10.413250867277384">
        <ele>2208.77</ele>
        <time>2018-07-07T09:54:28Z</time>
      </trkpt>
      <trkpt lat="45.931237572804093" lon="10.413274168968201">
        <ele>2208.77</ele>
        <time>2018-07-07T09:54:38Z</time>
      </trkpt>
      <trkpt lat="45.931321224197745" lon="10.413297638297081">
        <ele>2210.21</ele>
        <time>2018-07-07T09:54:48Z</time>
      </trkpt>
      <trkpt lat="45.931417280808091" lon="10.413307948037982">
        <ele>2212.1300000000001</ele>
        <time>2018-07-07T09:54:59Z</time>
      </trkpt>
      <trkpt lat="45.931503279134631" lon="10.413340469822288">
        <ele>2212.6100000000001</ele>
        <time>2018-07-07T09:55:10Z</time>
      </trkpt>
      <trkpt lat="45.931570753455162" lon="10.413362011313438">
        <ele>2213.5700000000002</ele>
        <time>2018-07-07T09:55:19Z</time>
      </trkpt>
      <trkpt lat="45.931628337129951" lon="10.413386654108763">
        <ele>2214.5300000000002</ele>
        <time>2018-07-07T09:55:28Z</time>
      </trkpt>
      <trkpt lat="45.931693380698562" lon="10.413428312167525">
        <ele>2215.98</ele>
        <time>2018-07-07T09:55:37Z</time>
      </trkpt>
      <trkpt lat="45.931758088991046" lon="10.413496289402246">
        <ele>2216.9400000000001</ele>
        <time>2018-07-07T09:55:47Z</time>
      </trkpt>
      <trkpt lat="45.931791616603732" lon="10.413524368777871">
        <ele>2217.4200000000001</ele>
        <time>2018-07-07T09:55:52Z</time>
      </trkpt>
      <trkpt lat="45.931864036247134" lon="10.413584969937801">
        <ele>2218.3800000000001</ele>
        <time>2018-07-07T09:56:02Z</time>
      </trkpt>
      <trkpt lat="45.93192882835865" lon="10.413623107597232">
        <ele>2219.3400000000001</ele>
        <time>2018-07-07T09:56:11Z</time>
      </trkpt>
      <trkpt lat="45.931999403983355" lon="10.413674740120769">
        <ele>2220.3000000000002</ele>
        <time>2018-07-07T09:56:20Z</time>
      </trkpt>
      <trkpt lat="45.93207199126482" lon="10.413712291046977">
        <ele>2221.2600000000002</ele>
        <time>2018-07-07T09:56:29Z</time>
      </trkpt>
      <trkpt lat="45.932169808074832" lon="10.413762498646975">
        <ele>2222.71</ele>
        <time>2018-07-07T09:56:41Z</time>
      </trkpt>
      <trkpt lat="45.932210711762309" lon="10.413795104250312">
        <ele>2223.1900000000001</ele>
        <time>2018-07-07T09:56:46Z</time>
      </trkpt>
      <trkpt lat="45.932254381477833" lon="10.413805330172181">
        <ele>2224.1500000000001</ele>
        <time>2018-07-07T09:56:52Z</time>
      </trkpt>
      <trkpt lat="45.932355551049113" lon="10.413823686540127">
        <ele>2225.5900000000001</ele>
        <time>2018-07-07T09:57:04Z</time>
      </trkpt>
      <trkpt lat="45.932427635416389" lon="10.413827709853649">
        <ele>2226.5500000000002</ele>
        <time>2018-07-07T09:57:13Z</time>
      </trkpt>
      <trkpt lat="45.932492092251778" lon="10.413898453116417">
        <ele>2227.5100000000002</ele>
        <time>2018-07-07T09:57:24Z</time>
      </trkpt>
      <trkpt lat="45.932558476924896" lon="10.413943128660321">
        <ele>2227.9899999999998</ele>
        <time>2018-07-07T09:57:34Z</time>
      </trkpt>
      <trkpt lat="45.932606253772974" lon="10.413950169458985">
        <ele>2228.9499999999998</ele>
        <time>2018-07-07T09:57:40Z</time>
      </trkpt>
      <trkpt lat="45.932658556848764" lon="10.413962909951806">
        <ele>2229.4299999999998</ele>
        <time>2018-07-07T09:57:46Z</time>
      </trkpt>
      <trkpt lat="45.932739274576306" lon="10.414001969620585">
        <ele>2230.4000000000001</ele>
        <time>2018-07-07T09:57:55Z</time>
      </trkpt>
      <trkpt lat="45.932800965383649" lon="10.414077574387193">
        <ele>2231.3600000000001</ele>
        <time>2018-07-07T09:58:05Z</time>
      </trkpt>
      <trkpt lat="45.932820327579975" lon="10.414101965725422">
        <ele>2231.8400000000001</ele>
        <time>2018-07-07T09:58:08Z</time>
      </trkpt>
      <trkpt lat="45.932878749445081" lon="10.414180336520076">
        <ele>2232.8000000000002</ele>
        <time>2018-07-07T09:58:19Z</time>
      </trkpt>
      <trkpt lat="45.932901883497834" lon="10.414206655696034">
        <ele>2233.2800000000002</ele>
        <time>2018-07-07T09:58:23Z</time>
      </trkpt>
      <trkpt lat="45.932970950379968" lon="10.414287457242608">
        <ele>2234.7199999999998</ele>
        <time>2018-07-07T09:58:34Z</time>
      </trkpt>
      <trkpt lat="45.933032808825374" lon="10.41431394405663">
        <ele>2235.1999999999998</ele>
        <time>2018-07-07T09:58:43Z</time>
      </trkpt>
      <trkpt lat="45.933111682534218" lon="10.414324002340436">
        <ele>2236.1599999999999</ele>
        <time>2018-07-07T09:58:55Z</time>
      </trkpt>
      <trkpt lat="45.933149484917521" lon="10.414352333173156">
        <ele>2236.6399999999999</ele>
        <time>2018-07-07T09:59:00Z</time>
      </trkpt>
      <trkpt lat="45.933221569284797" lon="10.41440773755312">
        <ele>2237.1300000000001</ele>
        <time>2018-07-07T09:59:10Z</time>
      </trkpt>
      <trkpt lat="45.93329650349915" lon="10.414482755586505">
        <ele>2238.0900000000001</ele>
        <time>2018-07-07T09:59:20Z</time>
      </trkpt>
      <trkpt lat="45.933390129357576" lon="10.414528772234917">
        <ele>2239.0500000000002</ele>
        <time>2018-07-07T09:59:32Z</time>
      </trkpt>
      <trkpt lat="45.933393901214004" lon="10.414518713951111">
        <ele>2239.0500000000002</ele>
        <time>2018-07-07T09:59:35Z</time>
      </trkpt>
      <trkpt lat="45.933492975309491" lon="10.414567748084664">
        <ele>2240.0100000000002</ele>
        <time>2018-07-07T09:59:45Z</time>
      </trkpt>
      <trkpt lat="45.933564221486449" lon="10.414561126381159">
        <ele>2240.9699999999998</ele>
        <time>2018-07-07T09:59:53Z</time>
      </trkpt>
      <trkpt lat="45.933656338602304" lon="10.4144830070436">
        <ele>2241.4499999999998</ele>
        <time>2018-07-07T10:00:05Z</time>
      </trkpt>
      <trkpt lat="45.933746360242367" lon="10.414375299587846">
        <ele>2242.4099999999999</ele>
        <time>2018-07-07T10:00:17Z</time>
      </trkpt>
      <trkpt lat="45.933797238394618" lon="10.414312519133091">
        <ele>2242.4099999999999</ele>
        <time>2018-07-07T10:00:24Z</time>
      </trkpt>
      <trkpt lat="45.933899246156216" lon="10.414238590747118">
        <ele>2242.8899999999999</ele>
        <time>2018-07-07T10:00:37Z</time>
      </trkpt>
      <trkpt lat="45.933950040489435" lon="10.414187461137772">
        <ele>2243.3699999999999</ele>
        <time>2018-07-07T10:00:47Z</time>
      </trkpt>
      <trkpt lat="45.933985915035009" lon="10.414141695946455">
        <ele>2243.8499999999999</ele>
        <time>2018-07-07T10:00:55Z</time>
      </trkpt>
      <trkpt lat="45.934079373255372" lon="10.414056368172169">
        <ele>2244.3299999999999</ele>
        <time>2018-07-07T10:01:07Z</time>
      </trkpt>
      <trkpt lat="45.934125557541847" lon="10.414035245776176">
        <ele>2245.3000000000002</ele>
        <time>2018-07-07T10:01:12Z</time>
      </trkpt>
      <trkpt lat="45.93421658501029" lon="10.414024014025927">
        <ele>2246.2600000000002</ele>
        <time>2018-07-07T10:01:23Z</time>
      </trkpt>
      <trkpt lat="45.934312138706446" lon="10.414008507505059">
        <ele>2247.6999999999998</ele>
        <time>2018-07-07T10:01:34Z</time>
      </trkpt>
      <trkpt lat="45.934319430962205" lon="10.414002221077681">
        <ele>2247.6999999999998</ele>
        <time>2018-07-07T10:01:35Z</time>
      </trkpt>
      <trkpt lat="45.934395957738161" lon="10.41396114975214">
        <ele>2248.6599999999999</ele>
        <time>2018-07-07T10:01:46Z</time>
      </trkpt>
      <trkpt lat="45.934463012963533" lon="10.41390641592443">
        <ele>2249.6199999999999</ele>
        <time>2018-07-07T10:01:56Z</time>
      </trkpt>
      <trkpt lat="45.934487404301763" lon="10.413893088698387">
        <ele>2250.0999999999999</ele>
        <time>2018-07-07T10:01:59Z</time>
      </trkpt>
      <trkpt lat="45.934561248868704" lon="10.413802396506071">
        <ele>2250.5799999999999</ele>
        <time>2018-07-07T10:02:10Z</time>
      </trkpt>
      <trkpt lat="45.934609277173877" lon="10.413792338222265">
        <ele>2251.54</ele>
        <time>2018-07-07T10:02:17Z</time>
      </trkpt>
      <trkpt lat="45.934706004336476" lon="10.413724277168512">
        <ele>2252.9899999999998</ele>
        <time>2018-07-07T10:02:29Z</time>
      </trkpt>
      <trkpt lat="45.93479560688138" lon="10.413685971871018">
        <ele>2254.4299999999998</ele>
        <time>2018-07-07T10:02:40Z</time>
      </trkpt>
      <trkpt lat="45.934885125607252" lon="10.413664514198899">
        <ele>2255.8699999999999</ele>
        <time>2018-07-07T10:02:52Z</time>
      </trkpt>
      <trkpt lat="45.93491823412478" lon="10.413647247478366">
        <ele>2255.8699999999999</ele>
        <time>2018-07-07T10:02:56Z</time>
      </trkpt>
      <trkpt lat="45.934990318492055" lon="10.413634506985545">
        <ele>2256.8299999999999</ele>
        <time>2018-07-07T10:03:07Z</time>
      </trkpt>
      <trkpt lat="45.935053769499063" lon="10.413602655753493">
        <ele>2257.79</ele>
        <time>2018-07-07T10:03:17Z</time>
      </trkpt>
      <trkpt lat="45.935103055089712" lon="10.413552448153496">
        <ele>2258.75</ele>
        <time>2018-07-07T10:03:26Z</time>
      </trkpt>
      <trkpt lat="45.935178576037288" lon="10.413490338250995">
        <ele>2260.1999999999998</ele>
        <time>2018-07-07T10:03:37Z</time>
      </trkpt>
      <trkpt lat="45.935261975973845" lon="10.413437448441982">
        <ele>2261.1599999999999</ele>
        <time>2018-07-07T10:03:47Z</time>
      </trkpt>
      <trkpt lat="45.935353925451636" lon="10.413396041840315">
        <ele>2262.5999999999999</ele>
        <time>2018-07-07T10:03:59Z</time>
      </trkpt>
      <trkpt lat="45.935440175235271" lon="10.41336796246469">
        <ele>2263.5599999999999</ele>
        <time>2018-07-07T10:04:10Z</time>
      </trkpt>
      <trkpt lat="45.935523742809892" lon="10.413360418751836">
        <ele>2265</ele>
        <time>2018-07-07T10:04:20Z</time>
      </trkpt>
      <trkpt lat="45.935607142746449" lon="10.41330442763865">
        <ele>2266.4499999999998</ele>
        <time>2018-07-07T10:04:32Z</time>
      </trkpt>
      <trkpt lat="45.935700181871653" lon="10.413289256393909">
        <ele>2267.8899999999999</ele>
        <time>2018-07-07T10:04:44Z</time>
      </trkpt>
      <trkpt lat="45.935717951506376" lon="10.413283975794911">
        <ele>2267.8899999999999</ele>
        <time>2018-07-07T10:04:46Z</time>
      </trkpt>
      <trkpt lat="45.93579581938684" lon="10.413297722116113">
        <ele>2269.3299999999999</ele>
        <time>2018-07-07T10:04:55Z</time>
      </trkpt>
      <trkpt lat="45.935863964259624" lon="10.41327802464366">
        <ele>2270.77</ele>
        <time>2018-07-07T10:05:05Z</time>
      </trkpt>
      <trkpt lat="45.935892965644598" lon="10.413269223645329">
        <ele>2269.8099999999999</ele>
        <time>2018-07-07T10:05:08Z</time>
      </trkpt>
      <trkpt lat="45.93592724762857" lon="10.41327802464366">
        <ele>2269.8099999999999</ele>
        <time>2018-07-07T10:05:12Z</time>
      </trkpt>
      <trkpt lat="45.935949040576816" lon="10.413283305242658">
        <ele>2270.77</ele>
        <time>2018-07-07T10:05:16Z</time>
      </trkpt>
      <trkpt lat="45.936057837679982" lon="10.413287244737148">
        <ele>2272.21</ele>
        <time>2018-07-07T10:05:28Z</time>
      </trkpt>
      <trkpt lat="45.93614861369133" lon="10.413308367133141">
        <ele>2273.1700000000001</ele>
        <time>2018-07-07T10:05:38Z</time>
      </trkpt>
      <trkpt lat="45.93624098226428" lon="10.413322784006596">
        <ele>2274.6199999999999</ele>
        <time>2018-07-07T10:05:49Z</time>
      </trkpt>
      <trkpt lat="45.936270570382476" lon="10.413331585004926">
        <ele>2275.0999999999999</ele>
        <time>2018-07-07T10:05:53Z</time>
      </trkpt>
      <trkpt lat="45.936333350837231" lon="10.413367124274373">
        <ele>2275.5799999999999</ele>
        <time>2018-07-07T10:05:59Z</time>
      </trkpt>
      <trkpt lat="45.936415325850248" lon="10.413437448441982">
        <ele>2276.54</ele>
        <time>2018-07-07T10:06:10Z</time>
      </trkpt>
      <trkpt lat="45.936469892039895" lon="10.413487907499075">
        <ele>2277.5</ele>
        <time>2018-07-07T10:06:18Z</time>
      </trkpt>
      <trkpt lat="45.936525799334049" lon="10.413561332970858">
        <ele>2278.46</ele>
        <time>2018-07-07T10:06:28Z</time>
      </trkpt>
      <trkpt lat="45.936553627252579" lon="10.413584047928452">
        <ele>2278.9400000000001</ele>
        <time>2018-07-07T10:06:31Z</time>
      </trkpt>
      <trkpt lat="45.936623616144061" lon="10.413708435371518">
        <ele>2279.9000000000001</ele>
        <time>2018-07-07T10:06:42Z</time>
      </trkpt>
      <trkpt lat="45.936627388000488" lon="10.413722936064005">
        <ele>2279.9000000000001</ele>
        <time>2018-07-07T10:06:43Z</time>
      </trkpt>
      <trkpt lat="45.936626130715013" lon="10.413831062614918">
        <ele>2280.8699999999999</ele>
        <time>2018-07-07T10:06:51Z</time>
      </trkpt>
      <trkpt lat="45.936615569517016" lon="10.413970202207565">
        <ele>2280.8699999999999</ele>
        <time>2018-07-07T10:07:02Z</time>
      </trkpt>
      <trkpt lat="45.936640128493309" lon="10.414030635729432">
        <ele>2283.27</ele>
        <time>2018-07-07T10:07:08Z</time>
      </trkpt>
      <trkpt lat="45.936652114614844" lon="10.414125015959144">
        <ele>2281.8299999999999</ele>
        <time>2018-07-07T10:07:16Z</time>
      </trkpt>
      <trkpt lat="45.936719086021185" lon="10.414274130016565">
        <ele>2283.75</ele>
        <time>2018-07-07T10:07:31Z</time>
      </trkpt>
      <trkpt lat="45.936738196760416" lon="10.414295000955462">
        <ele>2284.23</ele>
        <time>2018-07-07T10:07:34Z</time>
      </trkpt>
      <trkpt lat="45.936784381046891" lon="10.414392147213221">
        <ele>2285.6700000000001</ele>
        <time>2018-07-07T10:07:45Z</time>
      </trkpt>
      <trkpt lat="45.936840875074267" lon="10.414453418925405">
        <ele>2286.1500000000001</ele>
        <time>2018-07-07T10:07:54Z</time>
      </trkpt>
      <trkpt lat="45.936902901157737" lon="10.414521815255284">
        <ele>2287.1100000000001</ele>
        <time>2018-07-07T10:08:04Z</time>
      </trkpt>
      <trkpt lat="45.936967190355062" lon="10.414614602923393">
        <ele>2288.5599999999999</ele>
        <time>2018-07-07T10:08:16Z</time>
      </trkpt>
      <trkpt lat="45.937015889212489" lon="10.41467746719718">
        <ele>2289.04</ele>
        <time>2018-07-07T10:08:24Z</time>
      </trkpt>
      <trkpt lat="45.937045393511653" lon="10.414723567664623">
        <ele>2289.52</ele>
        <time>2018-07-07T10:08:32Z</time>
      </trkpt>
      <trkpt lat="45.937098450958729" lon="10.41482113301754">
        <ele>2290.96</ele>
        <time>2018-07-07T10:08:42Z</time>
      </trkpt>
      <trkpt lat="45.937139606103301" lon="10.414845943450928">
        <ele>2291.4400000000001</ele>
        <time>2018-07-07T10:08:46Z</time>
      </trkpt>
      <trkpt lat="45.937220240011811" lon="10.414942838251591">
        <ele>2292.8800000000001</ele>
        <time>2018-07-07T10:08:59Z</time>
      </trkpt>
      <trkpt lat="45.93729056417942" lon="10.415000673383474">
        <ele>2294.8000000000002</ele>
        <time>2018-07-07T10:09:08Z</time>
      </trkpt>
      <trkpt lat="45.937312105670571" lon="10.415055155754089">
        <ele>2294.3200000000002</ele>
        <time>2018-07-07T10:09:13Z</time>
      </trkpt>
      <trkpt lat="45.937328282743692" lon="10.415076026692986">
        <ele>2294.3200000000002</ele>
        <time>2018-07-07T10:09:15Z</time>
      </trkpt>
      <trkpt lat="45.93734479509294" lon="10.415107877925038">
        <ele>2294.8000000000002</ele>
        <time>2018-07-07T10:09:18Z</time>
      </trkpt>
      <trkpt lat="45.937401289120317" lon="10.415207035839558">
        <ele>2295.77</ele>
        <time>2018-07-07T10:09:30Z</time>
      </trkpt>
      <trkpt lat="45.937461974099278" lon="10.415281886234879">
        <ele>2296.73</ele>
        <time>2018-07-07T10:09:40Z</time>
      </trkpt>
      <trkpt lat="45.937502961605787" lon="10.415286831557751">
        <ele>2297.21</ele>
        <time>2018-07-07T10:09:49Z</time>
      </trkpt>
      <trkpt lat="45.937574123963714" lon="10.415309378877282">
        <ele>2298.1700000000001</ele>
        <time>2018-07-07T10:09:59Z</time>
      </trkpt>
      <trkpt lat="45.937660457566381" lon="10.415362603962421">
        <ele>2299.6100000000001</ele>
        <time>2018-07-07T10:10:09Z</time>
      </trkpt>
      <trkpt lat="45.937760872766376" lon="10.415388587862253">
        <ele>2300.5700000000002</ele>
        <time>2018-07-07T10:10:20Z</time>
      </trkpt>
      <trkpt lat="45.937813092023134" lon="10.41541675105691">
        <ele>2301.5300000000002</ele>
        <time>2018-07-07T10:10:28Z</time>
      </trkpt>
      <trkpt lat="45.937820551916957" lon="10.415420355275273">
        <ele>2301.5300000000002</ele>
        <time>2018-07-07T10:10:29Z</time>
      </trkpt>
      <trkpt lat="45.937900431454182" lon="10.415487410500646">
        <ele>2302.4899999999998</ele>
        <time>2018-07-07T10:10:41Z</time>
      </trkpt>
      <trkpt lat="45.937993386760354" lon="10.415548346936703">
        <ele>2303.46</ele>
        <time>2018-07-07T10:10:52Z</time>
      </trkpt>
      <trkpt lat="45.938052646815777" lon="10.415590507909656">
        <ele>2304.4200000000001</ele>
        <time>2018-07-07T10:11:01Z</time>
      </trkpt>
      <trkpt lat="45.93812464736402" lon="10.415659071877599">
        <ele>2305.3800000000001</ele>
        <time>2018-07-07T10:11:12Z</time>
      </trkpt>
      <trkpt lat="45.938177788630128" lon="10.41572411544621">
        <ele>2306.8200000000002</ele>
        <time>2018-07-07T10:11:23Z</time>
      </trkpt>
      <trkpt lat="45.938257919624448" lon="10.415771389380097">
        <ele>2306.8200000000002</ele>
        <time>2018-07-07T10:11:32Z</time>
      </trkpt>
      <trkpt lat="45.938272085040808" lon="10.415769210085273">
        <ele>2306.3400000000001</ele>
        <time>2018-07-07T10:11:34Z</time>
      </trkpt>
      <trkpt lat="45.938387336209416" lon="10.415792679414153">
        <ele>2307.3000000000002</ele>
        <time>2018-07-07T10:11:46Z</time>
      </trkpt>
      <trkpt lat="45.938513819128275" lon="10.415830817073584">
        <ele>2308.2600000000002</ele>
        <time>2018-07-07T10:11:59Z</time>
      </trkpt>
      <trkpt lat="45.938541647046804" lon="10.415860991925001">
        <ele>2308.7399999999998</ele>
        <time>2018-07-07T10:12:09Z</time>
      </trkpt>
      <trkpt lat="45.938569139689207" lon="10.415864679962397">
        <ele>2309.6999999999998</ele>
        <time>2018-07-07T10:12:13Z</time>
      </trkpt>
      <trkpt lat="45.938695874065161" lon="10.415828134864569">
        <ele>2309.6999999999998</ele>
        <time>2018-07-07T10:12:26Z</time>
      </trkpt>
      <trkpt lat="45.938801988959312" lon="10.415787734091282">
        <ele>2310.6700000000001</ele>
        <time>2018-07-07T10:12:37Z</time>
      </trkpt>
      <trkpt lat="45.938865020871162" lon="10.415793601423502">
        <ele>2312.5900000000001</ele>
        <time>2018-07-07T10:12:47Z</time>
      </trkpt>
      <trkpt lat="45.938879773020744" lon="10.415790667757392">
        <ele>2312.5900000000001</ele>
        <time>2018-07-07T10:12:49Z</time>
      </trkpt>
      <trkpt lat="45.938998041674495" lon="10.41572755202651">
        <ele>2311.6300000000001</ele>
        <time>2018-07-07T10:13:00Z</time>
      </trkpt>
      <trkpt lat="45.939029809087515" lon="10.415736185386777">
        <ele>2311.6300000000001</ele>
        <time>2018-07-07T10:13:12Z</time>
      </trkpt>
      <trkpt lat="45.939079178497195" lon="10.415724785998464">
        <ele>2311.6300000000001</ele>
        <time>2018-07-07T10:13:17Z</time>
      </trkpt>
      <trkpt lat="45.939205074682832" lon="10.415673824027181">
        <ele>2312.5900000000001</ele>
        <time>2018-07-07T10:13:31Z</time>
      </trkpt>
      <trkpt lat="45.93927288427949" lon="10.415647085756063">
        <ele>2314.0300000000002</ele>
        <time>2018-07-07T10:13:41Z</time>
      </trkpt>
      <trkpt lat="45.939333150163293" lon="10.415623281151056">
        <ele>2315.4699999999998</ele>
        <time>2018-07-07T10:13:51Z</time>
      </trkpt>
      <trkpt lat="45.939366091042757" lon="10.415604840964079">
        <ele>2316.9099999999999</ele>
        <time>2018-07-07T10:14:03Z</time>
      </trkpt>
      <trkpt lat="45.939424177631736" lon="10.415572235360742">
        <ele>2318.8400000000001</ele>
        <time>2018-07-07T10:14:13Z</time>
      </trkpt>
      <trkpt lat="45.939500704407692" lon="10.415549939498305">
        <ele>2320.7600000000002</ele>
        <time>2018-07-07T10:14:25Z</time>
      </trkpt>
      <trkpt lat="45.939529286697507" lon="10.415541809052229">
        <ele>2321.7199999999998</ele>
        <time>2018-07-07T10:14:38Z</time>
      </trkpt>
      <trkpt lat="45.939579075202346" lon="10.415578940883279">
        <ele>2322.6799999999998</ele>
        <time>2018-07-07T10:14:48Z</time>
      </trkpt>
      <trkpt lat="45.939628947526217" lon="10.415628310292959">
        <ele>2324.6100000000001</ele>
        <time>2018-07-07T10:14:59Z</time>
      </trkpt>
      <trkpt lat="45.939689967781305" lon="10.415642475709319">
        <ele>2325.5700000000002</ele>
        <time>2018-07-07T10:15:10Z</time>
      </trkpt>
      <trkpt lat="45.93971855007112" lon="10.415631579235196">
        <ele>2326.0500000000002</ele>
        <time>2018-07-07T10:15:20Z</time>
      </trkpt>
      <trkpt lat="45.939744953066111" lon="10.415641637519002">
        <ele>2327.0100000000002</ele>
        <time>2018-07-07T10:15:29Z</time>
      </trkpt>
      <trkpt lat="45.939786862581968" lon="10.415683463215828">
        <ele>2328.4499999999998</ele>
        <time>2018-07-07T10:15:41Z</time>
      </trkpt>
      <trkpt lat="45.939851989969611" lon="10.415683211758733">
        <ele>2329.8899999999999</ele>
        <time>2018-07-07T10:15:52Z</time>
      </trkpt>
      <trkpt lat="45.939895994961262" lon="10.415702825412154">
        <ele>2331.8099999999999</ele>
        <time>2018-07-07T10:16:02Z</time>
      </trkpt>
      <trkpt lat="45.939933210611343" lon="10.41570458561182">
        <ele>2332.7800000000002</ele>
        <time>2018-07-07T10:16:12Z</time>
      </trkpt>
      <trkpt lat="45.939952908083797" lon="10.415701400488615">
        <ele>2333.7399999999998</ele>
        <time>2018-07-07T10:16:21Z</time>
      </trkpt>
      <trkpt lat="45.939961038529873" lon="10.415697628632188">
        <ele>2334.2199999999998</ele>
        <time>2018-07-07T10:16:34Z</time>
      </trkpt>
      <trkpt lat="45.940008815377951" lon="10.415720092132688">
        <ele>2336.6199999999999</ele>
        <time>2018-07-07T10:16:44Z</time>
      </trkpt>
      <trkpt lat="45.94002490863204" lon="10.415733922272921">
        <ele>2336.1399999999999</ele>
        <time>2018-07-07T10:16:59Z</time>
      </trkpt>
      <trkpt lat="45.940020382404327" lon="10.415765857324004">
        <ele>2336.1399999999999</ele>
        <time>2018-07-07T10:17:15Z</time>
      </trkpt>
      <trkpt lat="45.940033039078116" lon="10.415792595595121">
        <ele>2337.0999999999999</ele>
        <time>2018-07-07T10:17:28Z</time>
      </trkpt>
      <trkpt lat="45.940031949430704" lon="10.415830062702298">
        <ele>2337.0999999999999</ele>
        <time>2018-07-07T10:17:38Z</time>
      </trkpt>
      <trkpt lat="45.939988028258085" lon="10.415882617235184">
        <ele>2336.6199999999999</ele>
        <time>2018-07-07T10:17:48Z</time>
      </trkpt>
      <trkpt lat="45.939979813992977" lon="10.415889490395784">
        <ele>2337.5799999999999</ele>
        <time>2018-07-07T10:17:56Z</time>
      </trkpt>
      <trkpt lat="45.940004708245397" lon="10.415928047150373">
        <ele>2336.1399999999999</ele>
        <time>2018-07-07T10:18:09Z</time>
      </trkpt>
      <trkpt lat="45.940006468445063" lon="10.415937267243862">
        <ele>2334.6999999999998</ele>
        <time>2018-07-07T10:18:18Z</time>
      </trkpt>
      <trkpt lat="45.940001606941223" lon="10.415932154282928">
        <ele>2334.2199999999998</ele>
        <time>2018-07-07T10:18:28Z</time>
      </trkpt>
      <trkpt lat="45.940004624426365" lon="10.415915055200458">
        <ele>2334.2199999999998</ele>
        <time>2018-07-07T10:18:38Z</time>
      </trkpt>
      <trkpt lat="45.940014095976949" lon="10.415933076292276">
        <ele>2334.2199999999998</ele>
        <time>2018-07-07T10:18:58Z</time>
      </trkpt>
      <trkpt lat="45.940012168139219" lon="10.415952438488603">
        <ele>2334.6999999999998</ele>
        <time>2018-07-07T10:19:20Z</time>
      </trkpt>
      <trkpt lat="45.94002834521234" lon="10.415956294164062">
        <ele>2334.6999999999998</ele>
        <time>2018-07-07T10:19:45Z</time>
      </trkpt>
      <trkpt lat="45.940027758479118" lon="10.415954869240522">
        <ele>2334.6999999999998</ele>
        <time>2018-07-07T10:19:47Z</time>
      </trkpt>
      <trkpt lat="45.940029183402658" lon="10.415976494550705">
        <ele>2333.7399999999998</ele>
        <time>2018-07-07T10:19:56Z</time>
      </trkpt>
      <trkpt lat="45.940027423202991" lon="10.415952857583761">
        <ele>2334.2199999999998</ele>
        <time>2018-07-07T10:20:09Z</time>
      </trkpt>
      <trkpt lat="45.940036308020353" lon="10.415936429053545">
        <ele>2334.2199999999998</ele>
        <time>2018-07-07T10:20:35Z</time>
      </trkpt>
      <trkpt lat="45.940019795671105" lon="10.415943469852209">
        <ele>2334.2199999999998</ele>
        <time>2018-07-07T10:20:54Z</time>
      </trkpt>
      <trkpt lat="45.940017700195313" lon="10.415923185646534">
        <ele>2334.2199999999998</ele>
        <time>2018-07-07T10:21:16Z</time>
      </trkpt>
      <trkpt lat="45.940006133168936" lon="10.415938356891274">
        <ele>2334.6999999999998</ele>
        <time>2018-07-07T10:21:45Z</time>
      </trkpt>
      <trkpt lat="45.940006971359253" lon="10.415937267243862">
        <ele>2334.6999999999998</ele>
        <time>2018-07-07T10:22:10Z</time>
      </trkpt>
      <trkpt lat="45.940022226423025" lon="10.41593324393034">
        <ele>2334.6999999999998</ele>
        <time>2018-07-07T10:22:29Z</time>
      </trkpt>
      <trkpt lat="45.940005797892809" lon="10.415941039100289">
        <ele>2334.6999999999998</ele>
        <time>2018-07-07T10:22:54Z</time>
      </trkpt>
      <trkpt lat="45.940012587234378" lon="10.415935087949038">
        <ele>2334.6999999999998</ele>
        <time>2018-07-07T10:23:22Z</time>
      </trkpt>
      <trkpt lat="45.940016023814678" lon="10.415943050757051">
        <ele>2335.1799999999998</ele>
        <time>2018-07-07T10:23:43Z</time>
      </trkpt>
      <trkpt lat="45.940002780407667" lon="10.415948666632175">
        <ele>2335.1799999999998</ele>
        <time>2018-07-07T10:24:01Z</time>
      </trkpt>
      <trkpt lat="45.940013006329536" lon="10.415942128747702">
        <ele>2335.1799999999998</ele>
        <time>2018-07-07T10:24:33Z</time>
      </trkpt>
      <trkpt lat="45.940007222816348" lon="10.415920168161392">
        <ele>2335.1799999999998</ele>
        <time>2018-07-07T10:25:01Z</time>
      </trkpt>
      <trkpt lat="45.940009402111173" lon="10.415897201746702">
        <ele>2335.1799999999998</ele>
        <time>2018-07-07T10:25:27Z</time>
      </trkpt>
      <trkpt lat="45.94000730663538" lon="10.415917318314314">
        <ele>2335.6599999999999</ele>
        <time>2018-07-07T10:25:49Z</time>
      </trkpt>
      <trkpt lat="45.939999427646399" lon="10.415913881734014">
        <ele>2335.6599999999999</ele>
        <time>2018-07-07T10:26:12Z</time>
      </trkpt>
      <trkpt lat="45.939991883933544" lon="10.415895357728004">
        <ele>2335.1799999999998</ele>
        <time>2018-07-07T10:26:37Z</time>
      </trkpt>
      <trkpt lat="45.940006049349904" lon="10.41589074768126">
        <ele>2335.1799999999998</ele>
        <time>2018-07-07T10:27:06Z</time>
      </trkpt>
      <trkpt lat="45.940006971359253" lon="10.415913881734014">
        <ele>2335.6599999999999</ele>
        <time>2018-07-07T10:27:32Z</time>
      </trkpt>
      <trkpt lat="45.939991464838386" lon="10.415853196755052">
        <ele>2335.6599999999999</ele>
        <time>2018-07-07T10:27:53Z</time>
      </trkpt>
      <trkpt lat="45.93999951146543" lon="10.415898794308305">
        <ele>2335.6599999999999</ele>
        <time>2018-07-07T10:28:17Z</time>
      </trkpt>
      <trkpt lat="45.940008480101824" lon="10.415898710489273">
        <ele>2335.6599999999999</ele>
        <time>2018-07-07T10:28:46Z</time>
      </trkpt>
      <trkpt lat="45.940009485930204" lon="10.415906170383096">
        <ele>2335.6599999999999</ele>
        <time>2018-07-07T10:29:07Z</time>
      </trkpt>
      <trkpt lat="45.940019125118852" lon="10.415940703824162">
        <ele>2335.6599999999999</ele>
        <time>2018-07-07T10:29:35Z</time>
      </trkpt>
      <trkpt lat="45.940016862004995" lon="10.415960401296616">
        <ele>2336.1399999999999</ele>
        <time>2018-07-07T10:30:04Z</time>
      </trkpt>
      <trkpt lat="45.94001904129982" lon="10.415966268628836">
        <ele>2336.1399999999999</ele>
        <time>2018-07-07T10:30:34Z</time>
      </trkpt>
      <trkpt lat="45.940013090148568" lon="10.41593911126256">
        <ele>2336.1399999999999</ele>
        <time>2018-07-07T10:31:00Z</time>
      </trkpt>
      <trkpt lat="45.940017867833376" lon="10.415937099605799">
        <ele>2336.6199999999999</ele>
        <time>2018-07-07T10:31:22Z</time>
      </trkpt>
      <trkpt lat="45.94000487588346" lon="10.415933914482594">
        <ele>2336.6199999999999</ele>
        <time>2018-07-07T10:31:50Z</time>
      </trkpt>
      <trkpt lat="45.940005797892809" lon="10.415944894775748">
        <ele>2337.0999999999999</ele>
        <time>2018-07-07T10:32:16Z</time>
      </trkpt>
      <trkpt lat="45.940013593062758" lon="10.415970962494612">
        <ele>2337.5799999999999</ele>
        <time>2018-07-07T10:32:25Z</time>
      </trkpt>
      <trkpt lat="45.940023399889469" lon="10.415950929746032">
        <ele>2337.0999999999999</ele>
        <time>2018-07-07T10:32:41Z</time>
      </trkpt>
      <trkpt lat="45.940034883096814" lon="10.415945816785097">
        <ele>2337.5799999999999</ele>
        <time>2018-07-07T10:33:02Z</time>
      </trkpt>
      <trkpt lat="45.940001355484128" lon="10.415920754894614">
        <ele>2337.0999999999999</ele>
        <time>2018-07-07T10:33:33Z</time>
      </trkpt>
      <trkpt lat="45.940000433474779" lon="10.415955875068903">
        <ele>2337.0999999999999</ele>
        <time>2018-07-07T10:34:06Z</time>
      </trkpt>
      <trkpt lat="45.939999595284462" lon="10.415951851755381">
        <ele>2337.0999999999999</ele>
        <time>2018-07-07T10:34:31Z</time>
      </trkpt>
      <trkpt lat="45.939994314685464" lon="10.415931902825832">
        <ele>2337.0999999999999</ele>
        <time>2018-07-07T10:35:04Z</time>
      </trkpt>
      <trkpt lat="45.940006719902158" lon="10.415931902825832">
        <ele>2337.0999999999999</ele>
        <time>2018-07-07T10:35:21Z</time>
      </trkpt>
      <trkpt lat="45.940010827034712" lon="10.415941039100289">
        <ele>2337.0999999999999</ele>
        <time>2018-07-07T10:35:44Z</time>
      </trkpt>
      <trkpt lat="45.940003031864762" lon="10.415942212566733">
        <ele>2337.0999999999999</ele>
        <time>2018-07-07T10:36:02Z</time>
      </trkpt>
      <trkpt lat="45.940023316070437" lon="10.415947828441858">
        <ele>2337.0999999999999</ele>
        <time>2018-07-07T10:36:27Z</time>
      </trkpt>
      <trkpt lat="45.940037565305829" lon="10.415961490944028">
        <ele>2337.0999999999999</ele>
        <time>2018-07-07T10:36:58Z</time>
      </trkpt>
      <trkpt lat="45.940020550042391" lon="10.415938943624496">
        <ele>2337.0999999999999</ele>
        <time>2018-07-07T10:37:23Z</time>
      </trkpt>
      <trkpt lat="45.940021220594645" lon="10.415951013565063">
        <ele>2337.5799999999999</ele>
        <time>2018-07-07T10:37:46Z</time>
      </trkpt>
      <trkpt lat="45.940012419596314" lon="10.41595134884119">
        <ele>2332.7800000000002</ele>
        <time>2018-07-07T10:37:55Z</time>
      </trkpt>
      <trkpt lat="45.940012503415346" lon="10.415953947231174">
        <ele>2337.5799999999999</ele>
        <time>2018-07-07T10:37:56Z</time>
      </trkpt>
      <trkpt lat="45.940010407939553" lon="10.415960652753711">
        <ele>2337.5799999999999</ele>
        <time>2018-07-07T10:38:29Z</time>
      </trkpt>
      <trkpt lat="45.940012503415346" lon="10.415943469852209">
        <ele>2337.5799999999999</ele>
        <time>2018-07-07T10:39:08Z</time>
      </trkpt>
      <trkpt lat="45.940014347434044" lon="10.415963837876916">
        <ele>2337.5799999999999</ele>
        <time>2018-07-07T10:39:38Z</time>
      </trkpt>
      <trkpt lat="45.939986184239388" lon="10.415924191474915">
        <ele>2337.5799999999999</ele>
        <time>2018-07-07T10:40:11Z</time>
      </trkpt>
      <trkpt lat="45.940022142603993" lon="10.415956042706966">
        <ele>2337.5799999999999</ele>
        <time>2018-07-07T10:40:45Z</time>
      </trkpt>
      <trkpt lat="45.940001355484128" lon="10.415950007736683">
        <ele>2337.5799999999999</ele>
        <time>2018-07-07T10:41:11Z</time>
      </trkpt>
      <trkpt lat="45.940004037693143" lon="10.415931819006801">
        <ele>2338.0599999999999</ele>
        <time>2018-07-07T10:41:34Z</time>
      </trkpt>
      <trkpt lat="45.940008983016014" lon="10.415940955281258">
        <ele>2338.0599999999999</ele>
        <time>2018-07-07T10:42:03Z</time>
      </trkpt>
      <trkpt lat="45.94003421254456" lon="10.415970711037517">
        <ele>2338.54</ele>
        <time>2018-07-07T10:42:29Z</time>
      </trkpt>
      <trkpt lat="45.940018370747566" lon="10.415971549227834">
        <ele>2338.54</ele>
        <time>2018-07-07T10:42:59Z</time>
      </trkpt>
      <trkpt lat="45.940015437081456" lon="10.415975404903293">
        <ele>2338.54</ele>
        <time>2018-07-07T10:43:30Z</time>
      </trkpt>
      <trkpt lat="45.940018370747566" lon="10.415981523692608">
        <ele>2338.54</ele>
        <time>2018-07-07T10:44:03Z</time>
      </trkpt>
      <trkpt lat="45.940013760700822" lon="10.415950845927">
        <ele>2339.02</ele>
        <time>2018-07-07T10:44:11Z</time>
      </trkpt>
      <trkpt lat="45.940028429031372" lon="10.415927963331342">
        <ele>2339.02</ele>
        <time>2018-07-07T10:44:23Z</time>
      </trkpt>
      <trkpt lat="45.940016694366932" lon="10.415924526751041">
        <ele>2339.02</ele>
        <time>2018-07-07T10:44:38Z</time>
      </trkpt>
      <trkpt lat="45.940023483708501" lon="10.415923856198788">
        <ele>2339.02</ele>
        <time>2018-07-07T10:44:51Z</time>
      </trkpt>
      <trkpt lat="45.940022226423025" lon="10.415909690782428">
        <ele>2339.5100000000002</ele>
        <time>2018-07-07T10:45:04Z</time>
      </trkpt>
      <trkpt lat="45.940049467608333" lon="10.415934165939689">
        <ele>2339.02</ele>
        <time>2018-07-07T10:45:19Z</time>
      </trkpt>
      <trkpt lat="45.940074026584625" lon="10.415990240871906">
        <ele>2338.54</ele>
        <time>2018-07-07T10:45:33Z</time>
      </trkpt>
      <trkpt lat="45.940071009099483" lon="10.415986133739352">
        <ele>2335.6599999999999</ele>
        <time>2018-07-07T10:45:39Z</time>
      </trkpt>
      <trkpt lat="45.940071092918515" lon="10.415987893939018">
        <ele>2338.54</ele>
        <time>2018-07-07T10:45:40Z</time>
      </trkpt>
      <trkpt lat="45.940075032413006" lon="10.416002562269568">
        <ele>2338.54</ele>
        <time>2018-07-07T10:45:55Z</time>
      </trkpt>
      <trkpt lat="45.940068745985627" lon="10.416011027991772">
        <ele>2339.02</ele>
        <time>2018-07-07T10:46:08Z</time>
      </trkpt>
      <trkpt lat="45.940046366304159" lon="10.416020499542356">
        <ele>2338.54</ele>
        <time>2018-07-07T10:46:31Z</time>
      </trkpt>
      <trkpt lat="45.940058771520853" lon="10.416022427380085">
        <ele>2338.54</ele>
        <time>2018-07-07T10:46:47Z</time>
      </trkpt>
      <trkpt lat="45.94005131162703" lon="10.416029719635844">
        <ele>2338.54</ele>
        <time>2018-07-07T10:47:05Z</time>
      </trkpt>
      <trkpt lat="45.940063549205661" lon="10.416082609444857">
        <ele>2337.5799999999999</ele>
        <time>2018-07-07T10:47:16Z</time>
      </trkpt>
      <trkpt lat="45.940086850896478" lon="10.416138600558043">
        <ele>2335.6599999999999</ele>
        <time>2018-07-07T10:47:25Z</time>
      </trkpt>
      <trkpt lat="45.940136052668095" lon="10.416176654398441">
        <ele>2334.2199999999998</ele>
        <time>2018-07-07T10:47:35Z</time>
      </trkpt>
      <trkpt lat="45.940183326601982" lon="10.416228538379073">
        <ele>2332.3000000000002</ele>
        <time>2018-07-07T10:47:46Z</time>
      </trkpt>
      <trkpt lat="45.940164048224688" lon="10.416330965235829">
        <ele>2330.8499999999999</ele>
        <time>2018-07-07T10:47:57Z</time>
      </trkpt>
      <trkpt lat="45.940134963020682" lon="10.416424004361033">
        <ele>2328.9299999999998</ele>
        <time>2018-07-07T10:48:08Z</time>
      </trkpt>
      <trkpt lat="45.940183075144887" lon="10.416392153128982">
        <ele>2327.9699999999998</ele>
        <time>2018-07-07T10:48:17Z</time>
      </trkpt>
      <trkpt lat="45.940294470638037" lon="10.416335156187415">
        <ele>2325.5700000000002</ele>
        <time>2018-07-07T10:48:30Z</time>
      </trkpt>
      <trkpt lat="45.940424222499132" lon="10.416313195601106">
        <ele>2323.6399999999999</ele>
        <time>2018-07-07T10:48:44Z</time>
      </trkpt>
      <trkpt lat="45.940519776195288" lon="10.416316129267216">
        <ele>2322.1999999999998</ele>
        <time>2018-07-07T10:48:55Z</time>
      </trkpt>
      <trkpt lat="45.940569816157222" lon="10.416345298290253">
        <ele>2321.2399999999998</ele>
        <time>2018-07-07T10:49:05Z</time>
      </trkpt>
      <trkpt lat="45.940639972686768" lon="10.416356194764376">
        <ele>2319.8000000000002</ele>
        <time>2018-07-07T10:49:15Z</time>
      </trkpt>
      <trkpt lat="45.940707782283425" lon="10.416382849216461">
        <ele>2318.3600000000001</ele>
        <time>2018-07-07T10:49:25Z</time>
      </trkpt>
      <trkpt lat="45.940806269645691" lon="10.416382681578398">
        <ele>2315.9499999999998</ele>
        <time>2018-07-07T10:49:37Z</time>
      </trkpt>
      <trkpt lat="45.940834013745189" lon="10.416393158957362">
        <ele>2315.4699999999998</ele>
        <time>2018-07-07T10:49:40Z</time>
      </trkpt>
      <trkpt lat="45.940927723422647" lon="10.416406402364373">
        <ele>2314.0300000000002</ele>
        <time>2018-07-07T10:49:51Z</time>
      </trkpt>
      <trkpt lat="45.940999556332827" lon="10.416467757895589">
        <ele>2312.5900000000001</ele>
        <time>2018-07-07T10:50:03Z</time>
      </trkpt>
      <trkpt lat="45.941034341230989" lon="10.416511259973049">
        <ele>2311.6300000000001</ele>
        <time>2018-07-07T10:50:10Z</time>
      </trkpt>
      <trkpt lat="45.941106760874391" lon="10.416574962437153">
        <ele>2311.1500000000001</ele>
        <time>2018-07-07T10:50:18Z</time>
      </trkpt>
      <trkpt lat="45.941214468330145" lon="10.416672192513943">
        <ele>2311.1500000000001</ele>
        <time>2018-07-07T10:50:31Z</time>
      </trkpt>
      <trkpt lat="45.941343633458018" lon="10.41675659827888">
        <ele>2311.1500000000001</ele>
        <time>2018-07-07T10:50:44Z</time>
      </trkpt>
      <trkpt lat="45.941459136083722" lon="10.41684159077704">
        <ele>2311.1500000000001</ele>
        <time>2018-07-07T10:50:56Z</time>
      </trkpt>
      <trkpt lat="45.941602634266019" lon="10.4169403295964">
        <ele>2311.6300000000001</ele>
        <time>2018-07-07T10:51:11Z</time>
      </trkpt>
      <trkpt lat="45.941635491326451" lon="10.416949298232794">
        <ele>2312.1100000000001</ele>
        <time>2018-07-07T10:51:15Z</time>
      </trkpt>
      <trkpt lat="45.941686704754829" lon="10.416969414800406">
        <ele>2312.1100000000001</ele>
        <time>2018-07-07T10:51:21Z</time>
      </trkpt>
      <trkpt lat="45.941782090812922" lon="10.417063040658832">
        <ele>2311.6300000000001</ele>
        <time>2018-07-07T10:51:32Z</time>
      </trkpt>
      <trkpt lat="45.941885355859995" lon="10.417161863297224">
        <ele>2311.6300000000001</ele>
        <time>2018-07-07T10:51:44Z</time>
      </trkpt>
      <trkpt lat="45.941971018910408" lon="10.417184410616755">
        <ele>2312.1100000000001</ele>
        <time>2018-07-07T10:51:54Z</time>
      </trkpt>
      <trkpt lat="45.942024243995547" lon="10.417250040918589">
        <ele>2311.6300000000001</ele>
        <time>2018-07-07T10:52:00Z</time>
      </trkpt>
      <trkpt lat="45.94214309938252" lon="10.417332937940955">
        <ele>2312.1100000000001</ele>
        <time>2018-07-07T10:52:13Z</time>
      </trkpt>
      <trkpt lat="45.942208981141448" lon="10.417392533272505">
        <ele>2311.1500000000001</ele>
        <time>2018-07-07T10:52:21Z</time>
      </trkpt>
      <trkpt lat="45.942270671948791" lon="10.417567379772663">
        <ele>2308.2600000000002</ele>
        <time>2018-07-07T10:52:34Z</time>
      </trkpt>
      <trkpt lat="45.94227796420455" lon="10.417576180770993">
        <ele>2308.2600000000002</ele>
        <time>2018-07-07T10:52:35Z</time>
      </trkpt>
      <trkpt lat="45.942327668890357" lon="10.417734934017062">
        <ele>2309.2199999999998</ele>
        <time>2018-07-07T10:52:47Z</time>
      </trkpt>
      <trkpt lat="45.942395478487015" lon="10.417852951213717">
        <ele>2310.6700000000001</ele>
        <time>2018-07-07T10:52:59Z</time>
      </trkpt>
      <trkpt lat="45.942405369132757" lon="10.417893854901195">
        <ele>2310.6700000000001</ele>
        <time>2018-07-07T10:53:02Z</time>
      </trkpt>
      <trkpt lat="45.942492792382836" lon="10.418018326163292">
        <ele>2309.2199999999998</ele>
        <time>2018-07-07T10:53:14Z</time>
      </trkpt>
      <trkpt lat="45.942585077136755" lon="10.418137600645423">
        <ele>2309.6999999999998</ele>
        <time>2018-07-07T10:53:26Z</time>
      </trkpt>
      <trkpt lat="45.942649617791176" lon="10.418180599808693">
        <ele>2311.1500000000001</ele>
        <time>2018-07-07T10:53:36Z</time>
      </trkpt>
      <trkpt lat="45.942722791805863" lon="10.418186718598008">
        <ele>2312.5900000000001</ele>
        <time>2018-07-07T10:53:47Z</time>
      </trkpt>
      <trkpt lat="45.942738214507699" lon="10.418190825730562">
        <ele>2313.0700000000002</ele>
        <time>2018-07-07T10:53:49Z</time>
      </trkpt>
      <trkpt lat="45.942776016891003" lon="10.418191412463784">
        <ele>2313.5500000000002</ele>
        <time>2018-07-07T10:53:53Z</time>
      </trkpt>
      <trkpt lat="45.942918257787824" lon="10.418227538466454">
        <ele>2313.5500000000002</ele>
        <time>2018-07-07T10:54:06Z</time>
      </trkpt>
      <trkpt lat="45.943088997155428" lon="10.418260814622045">
        <ele>2313.5500000000002</ele>
        <time>2018-07-07T10:54:21Z</time>
      </trkpt>
      <trkpt lat="45.943209026008844" lon="10.418276572600007">
        <ele>2314.5100000000002</ele>
        <time>2018-07-07T10:54:33Z</time>
      </trkpt>
      <trkpt lat="45.9433304797858" lon="10.418341951444745">
        <ele>2314.9899999999998</ele>
        <time>2018-07-07T10:54:45Z</time>
      </trkpt>
      <trkpt lat="45.943362331017852" lon="10.418333234265447">
        <ele>2314.9899999999998</ele>
        <time>2018-07-07T10:54:49Z</time>
      </trkpt>
      <trkpt lat="45.943437684327364" lon="10.418277913704515">
        <ele>2314.5100000000002</ele>
        <time>2018-07-07T10:55:02Z</time>
      </trkpt>
      <trkpt lat="45.943480432033539" lon="10.418276321142912">
        <ele>2315.4699999999998</ele>
        <time>2018-07-07T10:55:11Z</time>
      </trkpt>
      <trkpt lat="45.94355771318078" lon="10.41829526424408">
        <ele>2314.9899999999998</ele>
        <time>2018-07-07T10:55:24Z</time>
      </trkpt>
      <trkpt lat="45.943577829748392" lon="10.418321918696165">
        <ele>2315.4699999999998</ele>
        <time>2018-07-07T10:55:27Z</time>
      </trkpt>
      <trkpt lat="45.943624014034867" lon="10.418364331126213">
        <ele>2315.4699999999998</ele>
        <time>2018-07-07T10:55:32Z</time>
      </trkpt>
      <trkpt lat="45.943752508610487" lon="10.418391153216362">
        <ele>2315.9499999999998</ele>
        <time>2018-07-07T10:55:45Z</time>
      </trkpt>
      <trkpt lat="45.943809421733022" lon="10.418427949771285">
        <ele>2316.4299999999998</ele>
        <time>2018-07-07T10:55:57Z</time>
      </trkpt>
      <trkpt lat="45.943822413682938" lon="10.418456448242068">
        <ele>2316.4299999999998</ele>
        <time>2018-07-07T10:56:01Z</time>
      </trkpt>
      <trkpt lat="45.943775307387114" lon="10.418617213144898">
        <ele>2315.9499999999998</ele>
        <time>2018-07-07T10:56:14Z</time>
      </trkpt>
      <trkpt lat="45.943783689290285" lon="10.418631713837385">
        <ele>2315.9499999999998</ele>
        <time>2018-07-07T10:56:17Z</time>
      </trkpt>
      <trkpt lat="45.943770110607147" lon="10.418690387159586">
        <ele>2316.4299999999998</ele>
        <time>2018-07-07T10:56:25Z</time>
      </trkpt>
      <trkpt lat="45.943803554400802" lon="10.418810583651066">
        <ele>2315.9499999999998</ele>
        <time>2018-07-07T10:56:36Z</time>
      </trkpt>
      <trkpt lat="45.943852001801133" lon="10.419006133452058">
        <ele>2316.4299999999998</ele>
        <time>2018-07-07T10:56:49Z</time>
      </trkpt>
      <trkpt lat="45.943887792527676" lon="10.419149296358228">
        <ele>2316.4299999999998</ele>
        <time>2018-07-07T10:56:59Z</time>
      </trkpt>
      <trkpt lat="45.943883517757058" lon="10.419312994927168">
        <ele>2316.4299999999998</ele>
        <time>2018-07-07T10:57:09Z</time>
      </trkpt>
      <trkpt lat="45.943835992366076" lon="10.419485829770565">
        <ele>2316.4299999999998</ele>
        <time>2018-07-07T10:57:21Z</time>
      </trkpt>
      <trkpt lat="45.943834148347378" lon="10.419501420110464">
        <ele>2316.4299999999998</ele>
        <time>2018-07-07T10:57:22Z</time>
      </trkpt>
      <trkpt lat="45.943749491125345" lon="10.419639889150858">
        <ele>2315.9499999999998</ele>
        <time>2018-07-07T10:57:34Z</time>
      </trkpt>
      <trkpt lat="45.943687632679939" lon="10.419720355421305">
        <ele>2315.4699999999998</ele>
        <time>2018-07-07T10:57:42Z</time>
      </trkpt>
      <trkpt lat="45.943642035126686" lon="10.419816076755524">
        <ele>2313.5500000000002</ele>
        <time>2018-07-07T10:57:52Z</time>
      </trkpt>
      <trkpt lat="45.943581517785788" lon="10.419959658756852">
        <ele>2313.5500000000002</ele>
        <time>2018-07-07T10:58:04Z</time>
      </trkpt>
      <trkpt lat="45.94353474676609" lon="10.420118914917111">
        <ele>2313.5500000000002</ele>
        <time>2018-07-07T10:58:18Z</time>
      </trkpt>
      <trkpt lat="45.94349317252636" lon="10.42023760266602">
        <ele>2314.5100000000002</ele>
        <time>2018-07-07T10:58:28Z</time>
      </trkpt>
      <trkpt lat="45.943471295759082" lon="10.420383531600237">
        <ele>2312.1100000000001</ele>
        <time>2018-07-07T10:58:39Z</time>
      </trkpt>
      <trkpt lat="45.943488646298647" lon="10.42054882273078">
        <ele>2311.6300000000001</ele>
        <time>2018-07-07T10:58:51Z</time>
      </trkpt>
      <trkpt lat="45.943505074828863" lon="10.420574219897389">
        <ele>2311.6300000000001</ele>
        <time>2018-07-07T10:58:54Z</time>
      </trkpt>
      <trkpt lat="45.943601550534368" lon="10.420592073351145">
        <ele>2312.5900000000001</ele>
        <time>2018-07-07T10:59:05Z</time>
      </trkpt>
      <trkpt lat="45.943694924935699" lon="10.420603808015585">
        <ele>2312.5900000000001</ele>
        <time>2018-07-07T10:59:15Z</time>
      </trkpt>
      <trkpt lat="45.943731972947717" lon="10.420666001737118">
        <ele>2313.0700000000002</ele>
        <time>2018-07-07T10:59:21Z</time>
      </trkpt>
      <trkpt lat="45.943768015131354" lon="10.420733308419585">
        <ele>2313.5500000000002</ele>
        <time>2018-07-07T10:59:28Z</time>
      </trkpt>
      <trkpt lat="45.943815791979432" lon="10.420845206826925">
        <ele>2313.5500000000002</ele>
        <time>2018-07-07T10:59:38Z</time>
      </trkpt>
      <trkpt lat="45.943852169439197" lon="10.420977724716067">
        <ele>2313.5500000000002</ele>
        <time>2018-07-07T10:59:48Z</time>
      </trkpt>
      <trkpt lat="45.943879662081599" lon="10.421114433556795">
        <ele>2313.0700000000002</ele>
        <time>2018-07-07T10:59:58Z</time>
      </trkpt>
      <trkpt lat="45.94388603232801" lon="10.421137483790517">
        <ele>2313.0700000000002</ele>
        <time>2018-07-07T11:00:00Z</time>
      </trkpt>
      <trkpt lat="45.943974796682596" lon="10.421238569542766">
        <ele>2313.0700000000002</ele>
        <time>2018-07-07T11:00:12Z</time>
      </trkpt>
      <trkpt lat="45.944026261568069" lon="10.421286430209875">
        <ele>2313.0700000000002</ele>
        <time>2018-07-07T11:00:18Z</time>
      </trkpt>
      <trkpt lat="45.944118713960052" lon="10.42130378074944">
        <ele>2313.0700000000002</ele>
        <time>2018-07-07T11:00:28Z</time>
      </trkpt>
      <trkpt lat="45.944140758365393" lon="10.421333452686667">
        <ele>2313.0700000000002</ele>
        <time>2018-07-07T11:00:31Z</time>
      </trkpt>
      <trkpt lat="45.944094741716981" lon="10.421528331935406">
        <ele>2312.5900000000001</ele>
        <time>2018-07-07T11:00:44Z</time>
      </trkpt>
      <trkpt lat="45.944088790565729" lon="10.421541575342417">
        <ele>2312.5900000000001</ele>
        <time>2018-07-07T11:00:45Z</time>
      </trkpt>
      <trkpt lat="45.94412986189127" lon="10.42161550372839">
        <ele>2312.1100000000001</ele>
        <time>2018-07-07T11:00:56Z</time>
      </trkpt>
      <trkpt lat="45.944151822477579" lon="10.42162723839283">
        <ele>2312.1100000000001</ele>
        <time>2018-07-07T11:00:59Z</time>
      </trkpt>
      <trkpt lat="45.944258105009794" lon="10.421714913100004">
        <ele>2311.6300000000001</ele>
        <time>2018-07-07T11:01:11Z</time>
      </trkpt>
      <trkpt lat="45.944358520209789" lon="10.421807030215859">
        <ele>2311.6300000000001</ele>
        <time>2018-07-07T11:01:22Z</time>
      </trkpt>
      <trkpt lat="45.944445272907615" lon="10.421871235594153">
        <ele>2311.6300000000001</ele>
        <time>2018-07-07T11:01:32Z</time>
      </trkpt>
      <trkpt lat="45.944567983970046" lon="10.421960586681962">
        <ele>2311.1500000000001</ele>
        <time>2018-07-07T11:01:46Z</time>
      </trkpt>
      <trkpt lat="45.944670746102929" lon="10.422013308852911">
        <ele>2311.6300000000001</ele>
        <time>2018-07-07T11:01:57Z</time>
      </trkpt>
      <trkpt lat="45.944688264280558" lon="10.422025294974446">
        <ele>2311.6300000000001</ele>
        <time>2018-07-07T11:01:59Z</time>
      </trkpt>
      <trkpt lat="45.944748781621456" lon="10.422090506181121">
        <ele>2311.6300000000001</ele>
        <time>2018-07-07T11:02:06Z</time>
      </trkpt>
      <trkpt lat="45.944813070818782" lon="10.422115484252572">
        <ele>2311.6300000000001</ele>
        <time>2018-07-07T11:02:13Z</time>
      </trkpt>
      <trkpt lat="45.944937290623784" lon="10.422163680195808">
        <ele>2311.6300000000001</ele>
        <time>2018-07-07T11:02:26Z</time>
      </trkpt>
      <trkpt lat="45.945023959502578" lon="10.422131242230535">
        <ele>2311.6300000000001</ele>
        <time>2018-07-07T11:02:34Z</time>
      </trkpt>
      <trkpt lat="45.945160752162337" lon="10.422205002978444">
        <ele>2312.1100000000001</ele>
        <time>2018-07-07T11:02:49Z</time>
      </trkpt>
      <trkpt lat="45.945304669439793" lon="10.4223074298352">
        <ele>2312.1100000000001</ele>
        <time>2018-07-07T11:03:03Z</time>
      </trkpt>
      <trkpt lat="45.945429392158985" lon="10.422371132299304">
        <ele>2311.6300000000001</ele>
        <time>2018-07-07T11:03:15Z</time>
      </trkpt>
      <trkpt lat="45.945498291403055" lon="10.422526532784104">
        <ele>2311.1500000000001</ele>
        <time>2018-07-07T11:03:27Z</time>
      </trkpt>
      <trkpt lat="45.945542547851801" lon="10.422655530273914">
        <ele>2311.1500000000001</ele>
        <time>2018-07-07T11:03:36Z</time>
      </trkpt>
      <trkpt lat="45.945598622784019" lon="10.422749994322658">
        <ele>2310.6700000000001</ele>
        <time>2018-07-07T11:03:46Z</time>
      </trkpt>
      <trkpt lat="45.9456392750144" lon="10.422790981829166">
        <ele>2311.6300000000001</ele>
        <time>2018-07-07T11:03:56Z</time>
      </trkpt>
      <trkpt lat="45.945698283612728" lon="10.422854935750365">
        <ele>2310.6700000000001</ele>
        <time>2018-07-07T11:04:04Z</time>
      </trkpt>
      <trkpt lat="45.945818061009049" lon="10.422962810844183">
        <ele>2310.6700000000001</ele>
        <time>2018-07-07T11:04:18Z</time>
      </trkpt>
      <trkpt lat="45.945904729887843" lon="10.423104129731655">
        <ele>2311.1500000000001</ele>
        <time>2018-07-07T11:04:31Z</time>
      </trkpt>
      <trkpt lat="45.945956027135253" lon="10.423260200768709">
        <ele>2312.1100000000001</ele>
        <time>2018-07-07T11:04:43Z</time>
      </trkpt>
      <trkpt lat="45.945968516170979" lon="10.423271851614118">
        <ele>2312.1100000000001</ele>
        <time>2018-07-07T11:04:45Z</time>
      </trkpt>
      <trkpt lat="45.946045126765966" lon="10.423292052000761">
        <ele>2312.1100000000001</ele>
        <time>2018-07-07T11:04:55Z</time>
      </trkpt>
      <trkpt lat="45.946113858371973" lon="10.423343097791076">
        <ele>2311.6300000000001</ele>
        <time>2018-07-07T11:05:06Z</time>
      </trkpt>
      <trkpt lat="45.946142608299851" lon="10.423428593203425">
        <ele>2311.6300000000001</ele>
        <time>2018-07-07T11:05:13Z</time>
      </trkpt>
      <trkpt lat="45.946090305224061" lon="10.423644008114934">
        <ele>2311.1500000000001</ele>
        <time>2018-07-07T11:05:26Z</time>
      </trkpt>
      <trkpt lat="45.946077983826399" lon="10.423796558752656">
        <ele>2310.6700000000001</ele>
        <time>2018-07-07T11:05:37Z</time>
      </trkpt>
      <trkpt lat="45.946087874472141" lon="10.423878533765674">
        <ele>2310.6700000000001</ele>
        <time>2018-07-07T11:05:49Z</time>
      </trkpt>
      <trkpt lat="45.946089802309871" lon="10.423923460766673">
        <ele>2310.6700000000001</ele>
        <time>2018-07-07T11:05:52Z</time>
      </trkpt>
      <trkpt lat="45.946075553074479" lon="10.423971572890878">
        <ele>2310.6700000000001</ele>
        <time>2018-07-07T11:05:56Z</time>
      </trkpt>
      <trkpt lat="45.946067254990339" lon="10.424064109101892">
        <ele>2310.6700000000001</ele>
        <time>2018-07-07T11:06:02Z</time>
      </trkpt>
      <trkpt lat="45.946080582216382" lon="10.424267370253801">
        <ele>2309.6999999999998</ele>
        <time>2018-07-07T11:06:15Z</time>
      </trkpt>
      <trkpt lat="45.946086784824729" lon="10.42429612018168">
        <ele>2309.2199999999998</ele>
        <time>2018-07-07T11:06:17Z</time>
      </trkpt>
      <trkpt lat="45.946101117879152" lon="10.424324199557304">
        <ele>2309.2199999999998</ele>
        <time>2018-07-07T11:06:19Z</time>
      </trkpt>
      <trkpt lat="45.946111679077148" lon="10.424407515674829">
        <ele>2308.2600000000002</ele>
        <time>2018-07-07T11:06:30Z</time>
      </trkpt>
      <trkpt lat="45.946118300780654" lon="10.424431236460805">
        <ele>2308.7399999999998</ele>
        <time>2018-07-07T11:06:34Z</time>
      </trkpt>
      <trkpt lat="45.946128275245428" lon="10.424460489302874">
        <ele>2308.7399999999998</ele>
        <time>2018-07-07T11:06:37Z</time>
      </trkpt>
      <trkpt lat="45.946138752624393" lon="10.424682861194015">
        <ele>2309.2199999999998</ele>
        <time>2018-07-07T11:06:50Z</time>
      </trkpt>
      <trkpt lat="45.946161719039083" lon="10.424763159826398">
        <ele>2309.6999999999998</ele>
        <time>2018-07-07T11:06:55Z</time>
      </trkpt>
      <trkpt lat="45.946113271638751" lon="10.424980586394668">
        <ele>2309.6999999999998</ele>
        <time>2018-07-07T11:07:08Z</time>
      </trkpt>
      <trkpt lat="45.946064488962293" lon="10.425049066543579">
        <ele>2309.2199999999998</ele>
        <time>2018-07-07T11:07:14Z</time>
      </trkpt>
      <trkpt lat="45.945917973294854" lon="10.425091646611691">
        <ele>2308.7399999999998</ele>
        <time>2018-07-07T11:07:27Z</time>
      </trkpt>
      <trkpt lat="45.945764752104878" lon="10.42517077177763">
        <ele>2308.2600000000002</ele>
        <time>2018-07-07T11:07:40Z</time>
      </trkpt>
      <trkpt lat="45.945661403238773" lon="10.425265654921532">
        <ele>2307.7800000000002</ele>
        <time>2018-07-07T11:07:52Z</time>
      </trkpt>
      <trkpt lat="45.945569118484855" lon="10.425341427326202">
        <ele>2307.7800000000002</ele>
        <time>2018-07-07T11:08:03Z</time>
      </trkpt>
      <trkpt lat="45.945458225905895" lon="10.425359699875116">
        <ele>2308.7399999999998</ele>
        <time>2018-07-07T11:08:15Z</time>
      </trkpt>
      <trkpt lat="45.945437019690871" lon="10.425367075949907">
        <ele>2309.2199999999998</ele>
        <time>2018-07-07T11:08:17Z</time>
      </trkpt>
      <trkpt lat="45.945413634181023" lon="10.425392556935549">
        <ele>2309.2199999999998</ele>
        <time>2018-07-07T11:08:21Z</time>
      </trkpt>
      <trkpt lat="45.945363761857152" lon="10.425514932721853">
        <ele>2309.6999999999998</ele>
        <time>2018-07-07T11:08:33Z</time>
      </trkpt>
      <trkpt lat="45.945366779342294" lon="10.4255211353302">
        <ele>2309.6999999999998</ele>
        <time>2018-07-07T11:08:34Z</time>
      </trkpt>
      <trkpt lat="45.945360660552979" lon="10.425573438405991">
        <ele>2309.6999999999998</ele>
        <time>2018-07-07T11:08:38Z</time>
      </trkpt>
      <trkpt lat="45.945363761857152" lon="10.425645355135202">
        <ele>2309.2199999999998</ele>
        <time>2018-07-07T11:08:46Z</time>
      </trkpt>
      <trkpt lat="45.945381531491876" lon="10.425755912438035">
        <ele>2308.2600000000002</ele>
        <time>2018-07-07T11:08:56Z</time>
      </trkpt>
      <trkpt lat="45.945424195379019" lon="10.425859680399299">
        <ele>2309.2199999999998</ele>
        <time>2018-07-07T11:09:04Z</time>
      </trkpt>
      <trkpt lat="45.945473900064826" lon="10.425904942676425">
        <ele>2309.2199999999998</ele>
        <time>2018-07-07T11:09:09Z</time>
      </trkpt>
      <trkpt lat="45.945489155128598" lon="10.425972668454051">
        <ele>2309.2199999999998</ele>
        <time>2018-07-07T11:09:14Z</time>
      </trkpt>
      <trkpt lat="45.94553517177701" lon="10.426154723390937">
        <ele>2309.6999999999998</ele>
        <time>2018-07-07T11:09:28Z</time>
      </trkpt>
      <trkpt lat="45.945535842329264" lon="10.426179617643356">
        <ele>2309.6999999999998</ele>
        <time>2018-07-07T11:09:30Z</time>
      </trkpt>
      <trkpt lat="45.9455356746912" lon="10.426332838833332">
        <ele>2309.6999999999998</ele>
        <time>2018-07-07T11:09:43Z</time>
      </trkpt>
      <trkpt lat="45.945571633055806" lon="10.426456639543176">
        <ele>2310.1900000000001</ele>
        <time>2018-07-07T11:09:54Z</time>
      </trkpt>
      <trkpt lat="45.945581858977675" lon="10.426476337015629">
        <ele>2310.6700000000001</ele>
        <time>2018-07-07T11:09:56Z</time>
      </trkpt>
      <trkpt lat="45.945644220337272" lon="10.426546242088079">
        <ele>2310.6700000000001</ele>
        <time>2018-07-07T11:10:03Z</time>
      </trkpt>
      <trkpt lat="45.945686129853129" lon="10.426695523783565">
        <ele>2310.6700000000001</ele>
        <time>2018-07-07T11:10:14Z</time>
      </trkpt>
      <trkpt lat="45.945770284160972" lon="10.426784204319119">
        <ele>2311.6300000000001</ele>
        <time>2018-07-07T11:10:25Z</time>
      </trkpt>
      <trkpt lat="45.945857623592019" lon="10.426922170445323">
        <ele>2311.6300000000001</ele>
        <time>2018-07-07T11:10:37Z</time>
      </trkpt>
      <trkpt lat="45.945897521451116" lon="10.426959050819278">
        <ele>2312.1100000000001</ele>
        <time>2018-07-07T11:10:42Z</time>
      </trkpt>
      <trkpt lat="45.945934318006039" lon="10.427010348066688">
        <ele>2312.1100000000001</ele>
        <time>2018-07-07T11:10:47Z</time>
      </trkpt>
      <trkpt lat="45.945980753749609" lon="10.427122330293059">
        <ele>2312.5900000000001</ele>
        <time>2018-07-07T11:10:56Z</time>
      </trkpt>
      <trkpt lat="45.946033140644431" lon="10.427217129617929">
        <ele>2314.0300000000002</ele>
        <time>2018-07-07T11:11:07Z</time>
      </trkpt>
      <trkpt lat="45.94607412815094" lon="10.427302876487374">
        <ele>2314.9899999999998</ele>
        <time>2018-07-07T11:11:16Z</time>
      </trkpt>
      <trkpt lat="45.946087706834078" lon="10.427319891750813">
        <ele>2314.9899999999998</ele>
        <time>2018-07-07T11:11:18Z</time>
      </trkpt>
      <trkpt lat="45.946178985759616" lon="10.427437070757151">
        <ele>2314.9899999999998</ele>
        <time>2018-07-07T11:11:30Z</time>
      </trkpt>
      <trkpt lat="45.946234054863453" lon="10.427540419623256">
        <ele>2315.4699999999998</ele>
        <time>2018-07-07T11:11:40Z</time>
      </trkpt>
      <trkpt lat="45.946263391524553" lon="10.427634045481682">
        <ele>2316.4299999999998</ele>
        <time>2018-07-07T11:11:48Z</time>
      </trkpt>
      <trkpt lat="45.946274204179645" lon="10.427791709080338">
        <ele>2317.4000000000001</ele>
        <time>2018-07-07T11:12:00Z</time>
      </trkpt>
      <trkpt lat="45.946267582476139" lon="10.427922969684005">
        <ele>2317.8800000000001</ele>
        <time>2018-07-07T11:12:09Z</time>
      </trkpt>
      <trkpt lat="45.946266828104854" lon="10.428006369620562">
        <ele>2317.8800000000001</ele>
        <time>2018-07-07T11:12:20Z</time>
      </trkpt>
      <trkpt lat="45.946266828104854" lon="10.428007123991847">
        <ele>2317.8800000000001</ele>
        <time>2018-07-07T11:12:32Z</time>
      </trkpt>
      <trkpt lat="45.946243945509195" lon="10.428192280232906">
        <ele>2318.3600000000001</ele>
        <time>2018-07-07T11:12:43Z</time>
      </trkpt>
      <trkpt lat="45.946241011843085" lon="10.428240727633238">
        <ele>2317.8800000000001</ele>
        <time>2018-07-07T11:12:46Z</time>
      </trkpt>
      <trkpt lat="45.946231288835406" lon="10.428323289379478">
        <ele>2318.3600000000001</ele>
        <time>2018-07-07T11:12:58Z</time>
      </trkpt>
      <trkpt lat="45.94623539596796" lon="10.428350027650595">
        <ele>2318.3600000000001</ele>
        <time>2018-07-07T11:13:07Z</time>
      </trkpt>
      <trkpt lat="45.946286609396338" lon="10.428501907736063">
        <ele>2318.8400000000001</ele>
        <time>2018-07-07T11:13:19Z</time>
      </trkpt>
      <trkpt lat="45.946307731792331" lon="10.428680777549744">
        <ele>2318.8400000000001</ele>
        <time>2018-07-07T11:13:31Z</time>
      </trkpt>
      <trkpt lat="45.946310078725219" lon="10.428852355107665">
        <ele>2318.3600000000001</ele>
        <time>2018-07-07T11:13:42Z</time>
      </trkpt>
      <trkpt lat="45.946301026269794" lon="10.428884290158749">
        <ele>2318.8400000000001</ele>
        <time>2018-07-07T11:13:44Z</time>
      </trkpt>
      <trkpt lat="45.946326004341245" lon="10.429014293476939">
        <ele>2319.8000000000002</ele>
        <time>2018-07-07T11:13:54Z</time>
      </trkpt>
      <trkpt lat="45.946363136172295" lon="10.429166844114661">
        <ele>2320.2800000000002</ele>
        <time>2018-07-07T11:14:05Z</time>
      </trkpt>
      <trkpt lat="45.946385264396667" lon="10.429231552407146">
        <ele>2320.2800000000002</ele>
        <time>2018-07-07T11:14:16Z</time>
      </trkpt>
      <trkpt lat="45.94640152528882" lon="10.429238090291619">
        <ele>2320.2800000000002</ele>
        <time>2018-07-07T11:14:20Z</time>
      </trkpt>
      <trkpt lat="45.946517866104841" lon="10.429219985380769">
        <ele>2320.7600000000002</ele>
        <time>2018-07-07T11:14:32Z</time>
      </trkpt>
      <trkpt lat="45.946636302396655" lon="10.429137842729688">
        <ele>2320.2800000000002</ele>
        <time>2018-07-07T11:14:44Z</time>
      </trkpt>
      <trkpt lat="45.946655748412013" lon="10.429129712283611">
        <ele>2320.2800000000002</ele>
        <time>2018-07-07T11:14:46Z</time>
      </trkpt>
      <trkpt lat="45.946705956012011" lon="10.429149912670255">
        <ele>2320.2800000000002</ele>
        <time>2018-07-07T11:14:51Z</time>
      </trkpt>
      <trkpt lat="45.946788350120187" lon="10.429281843826175">
        <ele>2319.8000000000002</ele>
        <time>2018-07-07T11:15:02Z</time>
      </trkpt>
      <trkpt lat="45.946887927129865" lon="10.4293651599437">
        <ele>2319.3200000000002</ele>
        <time>2018-07-07T11:15:14Z</time>
      </trkpt>
      <trkpt lat="45.946951294317842" lon="10.429318891838193">
        <ele>2318.3600000000001</ele>
        <time>2018-07-07T11:15:24Z</time>
      </trkpt>
      <trkpt lat="45.947015499696136" lon="10.42926206253469">
        <ele>2317.8800000000001</ele>
        <time>2018-07-07T11:15:32Z</time>
      </trkpt>
      <trkpt lat="45.94706947915256" lon="10.429223338142037">
        <ele>2317.4000000000001</ele>
        <time>2018-07-07T11:15:38Z</time>
      </trkpt>
      <trkpt lat="45.94710560515523" lon="10.429170280694962">
        <ele>2317.4000000000001</ele>
        <time>2018-07-07T11:15:43Z</time>
      </trkpt>
      <trkpt lat="45.947178192436695" lon="10.4290422052145">
        <ele>2316.4299999999998</ele>
        <time>2018-07-07T11:15:56Z</time>
      </trkpt>
      <trkpt lat="45.947226975113153" lon="10.428969953209162">
        <ele>2315.9499999999998</ele>
        <time>2018-07-07T11:16:07Z</time>
      </trkpt>
      <trkpt lat="45.947248516604304" lon="10.428949417546391">
        <ele>2315.9499999999998</ele>
        <time>2018-07-07T11:16:21Z</time>
      </trkpt>
      <trkpt lat="45.947283636778593" lon="10.428984872996807">
        <ele>2315.4699999999998</ele>
        <time>2018-07-07T11:16:37Z</time>
      </trkpt>
      <trkpt lat="45.947271650657058" lon="10.429085791110992">
        <ele>2315.4699999999998</ele>
        <time>2018-07-07T11:16:48Z</time>
      </trkpt>
      <trkpt lat="45.947282211855054" lon="10.429181847721338">
        <ele>2315.4699999999998</ele>
        <time>2018-07-07T11:16:59Z</time>
      </trkpt>
      <trkpt lat="45.947297299280763" lon="10.429251082241535">
        <ele>2314.9899999999998</ele>
        <time>2018-07-07T11:17:05Z</time>
      </trkpt>
      <trkpt lat="45.947292940691113" lon="10.429406985640526">
        <ele>2314.9899999999998</ele>
        <time>2018-07-07T11:17:17Z</time>
      </trkpt>
      <trkpt lat="45.947291348129511" lon="10.429527433589101">
        <ele>2315.9499999999998</ele>
        <time>2018-07-07T11:17:28Z</time>
      </trkpt>
      <trkpt lat="45.947280116379261" lon="10.429649725556374">
        <ele>2316.9099999999999</ele>
        <time>2018-07-07T11:17:38Z</time>
      </trkpt>
      <trkpt lat="45.947266537696123" lon="10.429714014753699">
        <ele>2317.4000000000001</ele>
        <time>2018-07-07T11:17:44Z</time>
      </trkpt>
      <trkpt lat="45.947260670363903" lon="10.429815435782075">
        <ele>2317.8800000000001</ele>
        <time>2018-07-07T11:17:53Z</time>
      </trkpt>
      <trkpt lat="45.947279697284102" lon="10.429957676678896">
        <ele>2317.4000000000001</ele>
        <time>2018-07-07T11:18:05Z</time>
      </trkpt>
      <trkpt lat="45.947276595979929" lon="10.43007368221879">
        <ele>2317.8800000000001</ele>
        <time>2018-07-07T11:18:14Z</time>
      </trkpt>
      <trkpt lat="45.947272907942533" lon="10.430100671947002">
        <ele>2317.8800000000001</ele>
        <time>2018-07-07T11:18:16Z</time>
      </trkpt>
      <trkpt lat="45.947289168834686" lon="10.430255988612771">
        <ele>2317.8800000000001</ele>
        <time>2018-07-07T11:18:27Z</time>
      </trkpt>
      <trkpt lat="45.947255054488778" lon="10.430422453209758">
        <ele>2318.3600000000001</ele>
        <time>2018-07-07T11:18:40Z</time>
      </trkpt>
      <trkpt lat="45.947225131094456" lon="10.43051783926785">
        <ele>2318.8400000000001</ele>
        <time>2018-07-07T11:18:48Z</time>
      </trkpt>
      <trkpt lat="45.947217335924506" lon="10.430586319416761">
        <ele>2319.3200000000002</ele>
        <time>2018-07-07T11:18:52Z</time>
      </trkpt>
      <trkpt lat="45.947196548804641" lon="10.430744318291545">
        <ele>2319.3200000000002</ele>
        <time>2018-07-07T11:19:03Z</time>
      </trkpt>
      <trkpt lat="45.947197135537863" lon="10.430755717679858">
        <ele>2319.3200000000002</ele>
        <time>2018-07-07T11:19:04Z</time>
      </trkpt>
      <trkpt lat="45.94719311222434" lon="10.430785724893212">
        <ele>2319.3200000000002</ele>
        <time>2018-07-07T11:19:06Z</time>
      </trkpt>
      <trkpt lat="45.947154387831688" lon="10.43092536740005">
        <ele>2320.2800000000002</ele>
        <time>2018-07-07T11:19:18Z</time>
      </trkpt>
      <trkpt lat="45.947121195495129" lon="10.431003486737609">
        <ele>2320.7600000000002</ele>
        <time>2018-07-07T11:19:25Z</time>
      </trkpt>
      <trkpt lat="45.947096385061741" lon="10.431068697944283">
        <ele>2321.2399999999998</ele>
        <time>2018-07-07T11:19:32Z</time>
      </trkpt>
      <trkpt lat="45.947038969025016" lon="10.431188140064478">
        <ele>2321.2399999999998</ele>
        <time>2018-07-07T11:19:43Z</time>
      </trkpt>
      <trkpt lat="45.947019523009658" lon="10.431221583858132">
        <ele>2322.1999999999998</ele>
        <time>2018-07-07T11:19:47Z</time>
      </trkpt>
      <trkpt lat="45.947010638192296" lon="10.431240275502205">
        <ele>2322.1999999999998</ele>
        <time>2018-07-07T11:19:49Z</time>
      </trkpt>
      <trkpt lat="45.946988677605987" lon="10.431263158097863">
        <ele>2322.1999999999998</ele>
        <time>2018-07-07T11:19:52Z</time>
      </trkpt>
      <trkpt lat="45.947006111964583" lon="10.431411853060126">
        <ele>2322.6799999999998</ele>
        <time>2018-07-07T11:20:05Z</time>
      </trkpt>
      <trkpt lat="45.947028994560242" lon="10.431521823629737">
        <ele>2322.6799999999998</ele>
        <time>2018-07-07T11:20:14Z</time>
      </trkpt>
      <trkpt lat="45.946984151378274" lon="10.431670434772968">
        <ele>2323.1599999999999</ele>
        <time>2018-07-07T11:20:25Z</time>
      </trkpt>
      <trkpt lat="45.946936877444386" lon="10.431780992075801">
        <ele>2324.1199999999999</ele>
        <time>2018-07-07T11:20:35Z</time>
      </trkpt>
      <trkpt lat="45.946894800290465" lon="10.431914515793324">
        <ele>2325.0900000000001</ele>
        <time>2018-07-07T11:20:46Z</time>
      </trkpt>
      <trkpt lat="45.946862613782287" lon="10.432058768346906">
        <ele>2325.0900000000001</ele>
        <time>2018-07-07T11:20:57Z</time>
      </trkpt>
      <trkpt lat="45.946866720914841" lon="10.432180389761925">
        <ele>2325.5700000000002</ele>
        <time>2018-07-07T11:21:06Z</time>
      </trkpt>
      <trkpt lat="45.946879042312503" lon="10.432344004511833">
        <ele>2325.5700000000002</ele>
        <time>2018-07-07T11:21:18Z</time>
      </trkpt>
      <trkpt lat="45.946872755885124" lon="10.432355487719178">
        <ele>2325.5700000000002</ele>
        <time>2018-07-07T11:21:22Z</time>
      </trkpt>
      <trkpt lat="45.946874096989632" lon="10.432383315637708">
        <ele>2325.5700000000002</ele>
        <time>2018-07-07T11:21:24Z</time>
      </trkpt>
      <trkpt lat="45.946853728964925" lon="10.432542404159904">
        <ele>2326.0500000000002</ele>
        <time>2018-07-07T11:21:35Z</time>
      </trkpt>
      <trkpt lat="45.946847861632705" lon="10.432585822418332">
        <ele>2326.5300000000002</ele>
        <time>2018-07-07T11:21:39Z</time>
      </trkpt>
      <trkpt lat="45.946835121139884" lon="10.432735523208976">
        <ele>2326.5300000000002</ele>
        <time>2018-07-07T11:21:49Z</time>
      </trkpt>
      <trkpt lat="45.946829589083791" lon="10.432894360274076">
        <ele>2327.0100000000002</ele>
        <time>2018-07-07T11:22:01Z</time>
      </trkpt>
      <trkpt lat="45.946839479729533" lon="10.43293266557157">
        <ele>2326.5300000000002</ele>
        <time>2018-07-07T11:22:12Z</time>
      </trkpt>
      <trkpt lat="45.946847191080451" lon="10.43304456397891">
        <ele>2327.4899999999998</ele>
        <time>2018-07-07T11:22:21Z</time>
      </trkpt>
      <trkpt lat="45.94685104675591" lon="10.433207005262375">
        <ele>2327.4899999999998</ele>
        <time>2018-07-07T11:22:32Z</time>
      </trkpt>
      <trkpt lat="45.94687644392252" lon="10.433321502059698">
        <ele>2327.9699999999998</ele>
        <time>2018-07-07T11:22:40Z</time>
      </trkpt>
      <trkpt lat="45.946899326518178" lon="10.433423761278391">
        <ele>2327.9699999999998</ele>
        <time>2018-07-07T11:22:49Z</time>
      </trkpt>
      <trkpt lat="45.94693218357861" lon="10.433565163984895">
        <ele>2328.9299999999998</ele>
        <time>2018-07-07T11:23:00Z</time>
      </trkpt>
      <trkpt lat="45.946974512189627" lon="10.433681253343821">
        <ele>2329.4099999999999</ele>
        <time>2018-07-07T11:23:10Z</time>
      </trkpt>
      <trkpt lat="45.947016086429358" lon="10.433707237243652">
        <ele>2329.8899999999999</ele>
        <time>2018-07-07T11:23:15Z</time>
      </trkpt>
      <trkpt lat="45.947100911289454" lon="10.433791223913431">
        <ele>2330.8499999999999</ele>
        <time>2018-07-07T11:23:26Z</time>
      </trkpt>
      <trkpt lat="45.947107030078769" lon="10.433818884193897">
        <ele>2330.8499999999999</ele>
        <time>2018-07-07T11:23:28Z</time>
      </trkpt>
      <trkpt lat="45.947125470265746" lon="10.433899518102407">
        <ele>2331.3299999999999</ele>
        <time>2018-07-07T11:23:34Z</time>
      </trkpt>
      <trkpt lat="45.947168217971921" lon="10.434023067355156">
        <ele>2331.8099999999999</ele>
        <time>2018-07-07T11:23:44Z</time>
      </trkpt>
      <trkpt lat="45.947206104174256" lon="10.434140413999557">
        <ele>2332.7800000000002</ele>
        <time>2018-07-07T11:23:54Z</time>
      </trkpt>
      <trkpt lat="45.947260418906808" lon="10.434261448681355">
        <ele>2333.7399999999998</ele>
        <time>2018-07-07T11:24:05Z</time>
      </trkpt>
      <trkpt lat="45.947292940691113" lon="10.434287181124091">
        <ele>2334.2199999999998</ele>
        <time>2018-07-07T11:24:10Z</time>
      </trkpt>
      <trkpt lat="45.947306100279093" lon="10.434310818091035">
        <ele>2334.2199999999998</ele>
        <time>2018-07-07T11:24:12Z</time>
      </trkpt>
      <trkpt lat="45.947368545457721" lon="10.434378627687693">
        <ele>2335.1799999999998</ele>
        <time>2018-07-07T11:24:22Z</time>
      </trkpt>
      <trkpt lat="45.947447754442692" lon="10.434422381222248">
        <ele>2335.6599999999999</ele>
        <time>2018-07-07T11:24:32Z</time>
      </trkpt>
      <trkpt lat="45.947516486048698" lon="10.434455825015903">
        <ele>2336.6199999999999</ele>
        <time>2018-07-07T11:24:41Z</time>
      </trkpt>
      <trkpt lat="45.947525287047029" lon="10.434457920491695">
        <ele>2336.6199999999999</ele>
        <time>2018-07-07T11:24:42Z</time>
      </trkpt>
      <trkpt lat="45.947620421648026" lon="10.434507960453629">
        <ele>2338.0599999999999</ele>
        <time>2018-07-07T11:24:54Z</time>
      </trkpt>
      <trkpt lat="45.947685046121478" lon="10.434547271579504">
        <ele>2338.54</ele>
        <time>2018-07-07T11:25:01Z</time>
      </trkpt>
      <trkpt lat="45.94777992926538" lon="10.434599490836263">
        <ele>2339.5100000000002</ele>
        <time>2018-07-07T11:25:12Z</time>
      </trkpt>
      <trkpt lat="45.947801638394594" lon="10.434716586023569">
        <ele>2341.9099999999999</ele>
        <time>2018-07-07T11:25:23Z</time>
      </trkpt>
      <trkpt lat="45.947829214856029" lon="10.434862514957786">
        <ele>2341.9099999999999</ele>
        <time>2018-07-07T11:25:35Z</time>
      </trkpt>
      <trkpt lat="45.947832064703107" lon="10.43487005867064">
        <ele>2342.3899999999999</ele>
        <time>2018-07-07T11:25:43Z</time>
      </trkpt>
      <trkpt lat="45.947834327816963" lon="10.434922277927399">
        <ele>2341.9099999999999</ele>
        <time>2018-07-07T11:25:55Z</time>
      </trkpt>
      <trkpt lat="45.947865005582571" lon="10.434933509677649">
        <ele>2342.3899999999999</ele>
        <time>2018-07-07T11:26:10Z</time>
      </trkpt>
      <trkpt lat="45.947944968938828" lon="10.435006432235241">
        <ele>2343.8299999999999</ele>
        <time>2018-07-07T11:26:21Z</time>
      </trkpt>
      <trkpt lat="45.947981933131814" lon="10.435135597363114">
        <ele>2344.3099999999999</ele>
        <time>2018-07-07T11:26:32Z</time>
      </trkpt>
      <trkpt lat="45.948025351390243" lon="10.435205334797502">
        <ele>2345.75</ele>
        <time>2018-07-07T11:26:41Z</time>
      </trkpt>
      <trkpt lat="45.948084862902761" lon="10.435296194627881">
        <ele>2347.1999999999998</ele>
        <time>2018-07-07T11:26:52Z</time>
      </trkpt>
      <trkpt lat="45.948130795732141" lon="10.435395855456591">
        <ele>2348.6399999999999</ele>
        <time>2018-07-07T11:27:03Z</time>
      </trkpt>
      <trkpt lat="45.948165412992239" lon="10.435461485758424">
        <ele>2349.5999999999999</ele>
        <time>2018-07-07T11:27:10Z</time>
      </trkpt>
      <trkpt lat="45.948192989453673" lon="10.435629626736045">
        <ele>2350.0799999999999</ele>
        <time>2018-07-07T11:27:23Z</time>
      </trkpt>
      <trkpt lat="45.948251578956842" lon="10.435756109654903">
        <ele>2352</ele>
        <time>2018-07-07T11:27:36Z</time>
      </trkpt>
      <trkpt lat="45.948304384946823" lon="10.435908157378435">
        <ele>2353.4400000000001</ele>
        <time>2018-07-07T11:27:49Z</time>
      </trkpt>
      <trkpt lat="45.948351239785552" lon="10.43602860532701">
        <ele>2354.4099999999999</ele>
        <time>2018-07-07T11:28:00Z</time>
      </trkpt>
      <trkpt lat="45.948399435728788" lon="10.436136899515986">
        <ele>2355.8499999999999</ele>
        <time>2018-07-07T11:28:11Z</time>
      </trkpt>
      <trkpt lat="45.94846498221159" lon="10.436257096007466">
        <ele>2356.3299999999999</ele>
        <time>2018-07-07T11:28:24Z</time>
      </trkpt>
      <trkpt lat="45.948469759896398" lon="10.436406629160047">
        <ele>2357.29</ele>
        <time>2018-07-07T11:28:35Z</time>
      </trkpt>
      <trkpt lat="45.948482668027282" lon="10.436483658850193">
        <ele>2357.77</ele>
        <time>2018-07-07T11:28:46Z</time>
      </trkpt>
      <trkpt lat="45.948489205911756" lon="10.436474438756704">
        <ele>2357.77</ele>
        <time>2018-07-07T11:28:58Z</time>
      </trkpt>
      <trkpt lat="45.948525918647647" lon="10.436518862843513">
        <ele>2357.77</ele>
        <time>2018-07-07T11:29:03Z</time>
      </trkpt>
      <trkpt lat="45.9485715162009" lon="10.436639897525311">
        <ele>2357.77</ele>
        <time>2018-07-07T11:29:14Z</time>
      </trkpt>
      <trkpt lat="45.948625579476357" lon="10.436750706285238">
        <ele>2358.73</ele>
        <time>2018-07-07T11:29:25Z</time>
      </trkpt>
      <trkpt lat="45.948659358546138" lon="10.436849780380726">
        <ele>2359.21</ele>
        <time>2018-07-07T11:29:34Z</time>
      </trkpt>
      <trkpt lat="45.948722390457988" lon="10.436888253316283">
        <ele>2360.1700000000001</ele>
        <time>2018-07-07T11:29:45Z</time>
      </trkpt>
      <trkpt lat="45.948754576966166" lon="10.436900826171041">
        <ele>2360.6500000000001</ele>
        <time>2018-07-07T11:29:56Z</time>
      </trkpt>
      <trkpt lat="45.948796151205897" lon="10.436878614127636">
        <ele>2360.6500000000001</ele>
        <time>2018-07-07T11:30:06Z</time>
      </trkpt>
      <trkpt lat="45.948864631354809" lon="10.436871321871877">
        <ele>2361.1399999999999</ele>
        <time>2018-07-07T11:30:16Z</time>
      </trkpt>
      <trkpt lat="45.948931183665991" lon="10.436871740967035">
        <ele>2361.6199999999999</ele>
        <time>2018-07-07T11:30:28Z</time>
      </trkpt>
      <trkpt lat="45.948939817026258" lon="10.436887834221125">
        <ele>2361.6199999999999</ele>
        <time>2018-07-07T11:30:39Z</time>
      </trkpt>
      <trkpt lat="45.948951467871666" lon="10.436896719038486">
        <ele>2362.0999999999999</ele>
        <time>2018-07-07T11:30:51Z</time>
      </trkpt>
      <trkpt lat="45.94898097217083" lon="10.436949860304594">
        <ele>2362.0999999999999</ele>
        <time>2018-07-07T11:31:00Z</time>
      </trkpt>
      <trkpt lat="45.948982816189528" lon="10.437002666294575">
        <ele>2362.5799999999999</ele>
        <time>2018-07-07T11:31:10Z</time>
      </trkpt>
      <trkpt lat="45.948977535590529" lon="10.43700585141778">
        <ele>2361.6199999999999</ele>
        <time>2018-07-07T11:31:21Z</time>
      </trkpt>
      <trkpt lat="45.948941158130765" lon="10.437003001570702">
        <ele>2361.6199999999999</ele>
        <time>2018-07-07T11:31:39Z</time>
      </trkpt>
      <trkpt lat="45.948958676308393" lon="10.437007611617446">
        <ele>2362.0999999999999</ele>
        <time>2018-07-07T11:31:59Z</time>
      </trkpt>
      <trkpt lat="45.948973512277007" lon="10.437024710699916">
        <ele>2362.5799999999999</ele>
        <time>2018-07-07T11:32:17Z</time>
      </trkpt>
      <trkpt lat="45.948975943028927" lon="10.437001325190067">
        <ele>2361.6199999999999</ele>
        <time>2018-07-07T11:32:31Z</time>
      </trkpt>
      <trkpt lat="45.948987929150462" lon="10.437014233320951">
        <ele>2361.6199999999999</ele>
        <time>2018-07-07T11:32:55Z</time>
      </trkpt>
      <trkpt lat="45.948977870866656" lon="10.436985399574041">
        <ele>2361.6199999999999</ele>
        <time>2018-07-07T11:33:18Z</time>
      </trkpt>
      <trkpt lat="45.948996897786856" lon="10.437003085389733">
        <ele>2361.6199999999999</ele>
        <time>2018-07-07T11:33:48Z</time>
      </trkpt>
      <trkpt lat="45.94896974042058" lon="10.436969138681889">
        <ele>2361.6199999999999</ele>
        <time>2018-07-07T11:34:09Z</time>
      </trkpt>
      <trkpt lat="45.948987929150462" lon="10.436989171430469">
        <ele>2362.0999999999999</ele>
        <time>2018-07-07T11:34:34Z</time>
      </trkpt>
      <trkpt lat="45.948997316882014" lon="10.437020938843489">
        <ele>2362.0999999999999</ele>
        <time>2018-07-07T11:34:56Z</time>
      </trkpt>
      <trkpt lat="45.948985917493701" lon="10.437040133401752">
        <ele>2362.0999999999999</ele>
        <time>2018-07-07T11:35:21Z</time>
      </trkpt>
      <trkpt lat="45.948983486741781" lon="10.436996631324291">
        <ele>2362.0999999999999</ele>
        <time>2018-07-07T11:35:49Z</time>
      </trkpt>
      <trkpt lat="45.949021624401212" lon="10.437028650194407">
        <ele>2362.0999999999999</ele>
        <time>2018-07-07T11:36:06Z</time>
      </trkpt>
      <trkpt lat="45.949042830616236" lon="10.437006270512938">
        <ele>2362.0999999999999</ele>
        <time>2018-07-07T11:36:31Z</time>
      </trkpt>
      <trkpt lat="45.949050541967154" lon="10.437029656022787">
        <ele>2362.0999999999999</ele>
        <time>2018-07-07T11:37:00Z</time>
      </trkpt>
      <trkpt lat="45.949060767889023" lon="10.436994954943657">
        <ele>2362.5799999999999</ele>
        <time>2018-07-07T11:37:26Z</time>
      </trkpt>
      <trkpt lat="45.94908507540822" lon="10.436994284391403">
        <ele>2362.5799999999999</ele>
        <time>2018-07-07T11:37:54Z</time>
      </trkpt>
      <trkpt lat="45.949104856699705" lon="10.437013143673539">
        <ele>2363.0599999999999</ele>
        <time>2018-07-07T11:38:13Z</time>
      </trkpt>
      <trkpt lat="45.949112735688686" lon="10.437025297433138">
        <ele>2363.0599999999999</ele>
        <time>2018-07-07T11:38:34Z</time>
      </trkpt>
      <trkpt lat="45.949160847812891" lon="10.437024543061852">
        <ele>2363.54</ele>
        <time>2018-07-07T11:38:58Z</time>
      </trkpt>
      <trkpt lat="45.94917643815279" lon="10.437030326575041">
        <ele>2364.02</ele>
        <time>2018-07-07T11:39:22Z</time>
      </trkpt>
      <trkpt lat="45.949163949117064" lon="10.437041642144322">
        <ele>2364.02</ele>
        <time>2018-07-07T11:39:51Z</time>
      </trkpt>
      <trkpt lat="45.949080465361476" lon="10.436996379867196">
        <ele>2364.02</ele>
        <time>2018-07-07T11:40:13Z</time>
      </trkpt>
      <trkpt lat="45.949108880013227" lon="10.437041306868196">
        <ele>2364.5</ele>
        <time>2018-07-07T11:40:29Z</time>
      </trkpt>
      <trkpt lat="45.949113992974162" lon="10.43704298324883">
        <ele>2364.98</ele>
        <time>2018-07-07T11:40:54Z</time>
      </trkpt>
      <trkpt lat="45.949083482846618" lon="10.437055723741651">
        <ele>2364.98</ele>
        <time>2018-07-07T11:41:18Z</time>
      </trkpt>
      <trkpt lat="45.949068646878004" lon="10.437048431485891">
        <ele>2365.46</ele>
        <time>2018-07-07T11:41:41Z</time>
      </trkpt>
      <trkpt lat="45.949071999639273" lon="10.437052873894572">
        <ele>2365.46</ele>
        <time>2018-07-07T11:42:03Z</time>
      </trkpt>
      <trkpt lat="45.949056074023247" lon="10.436973916366696">
        <ele>2365.46</ele>
        <time>2018-07-07T11:42:30Z</time>
      </trkpt>
      <trkpt lat="45.949065461754799" lon="10.437025129795074">
        <ele>2365.9400000000001</ele>
        <time>2018-07-07T11:43:03Z</time>
      </trkpt>
      <trkpt lat="45.949079543352127" lon="10.437016412615776">
        <ele>2366.4200000000001</ele>
        <time>2018-07-07T11:43:39Z</time>
      </trkpt>
      <trkpt lat="45.948984827846289" lon="10.437007360160351">
        <ele>2366.4200000000001</ele>
        <time>2018-07-07T11:44:13Z</time>
      </trkpt>
      <trkpt lat="45.948973596096039" lon="10.437014987692237">
        <ele>2366.9000000000001</ele>
        <time>2018-07-07T11:44:47Z</time>
      </trkpt>
      <trkpt lat="45.948937721550465" lon="10.436967462301254">
        <ele>2366.9000000000001</ele>
        <time>2018-07-07T11:45:12Z</time>
      </trkpt>
      <trkpt lat="45.948957921937108" lon="10.437010210007429">
        <ele>2366.9000000000001</ele>
        <time>2018-07-07T11:45:41Z</time>
      </trkpt>
      <trkpt lat="45.948997316882014" lon="10.43702932074666">
        <ele>2366.9000000000001</ele>
        <time>2018-07-07T11:46:06Z</time>
      </trkpt>
      <trkpt lat="45.949023384600878" lon="10.437057735398412">
        <ele>2366.9000000000001</ele>
        <time>2018-07-07T11:46:38Z</time>
      </trkpt>
      <trkpt lat="45.948976948857307" lon="10.437042731791735">
        <ele>2366.9000000000001</ele>
        <time>2018-07-07T11:47:01Z</time>
      </trkpt>
      <trkpt lat="45.948961107060313" lon="10.437042731791735">
        <ele>2366.9000000000001</ele>
        <time>2018-07-07T11:47:24Z</time>
      </trkpt>
      <trkpt lat="45.948962531983852" lon="10.437053460627794">
        <ele>2366.9000000000001</ele>
        <time>2018-07-07T11:48:00Z</time>
      </trkpt>
      <trkpt lat="45.948953730985522" lon="10.437027309089899">
        <ele>2366.9000000000001</ele>
        <time>2018-07-07T11:48:31Z</time>
      </trkpt>
      <trkpt lat="45.948969153687358" lon="10.437028734013438">
        <ele>2366.9000000000001</ele>
        <time>2018-07-07T11:49:02Z</time>
      </trkpt>
      <trkpt lat="45.94898390583694" lon="10.437079612165689">
        <ele>2366.9000000000001</ele>
        <time>2018-07-07T11:49:30Z</time>
      </trkpt>
      <trkpt lat="45.948986755684018" lon="10.437031500041485">
        <ele>2366.9000000000001</ele>
        <time>2018-07-07T11:49:51Z</time>
      </trkpt>
      <trkpt lat="45.948965884745121" lon="10.436993865296245">
        <ele>2366.9000000000001</ele>
        <time>2018-07-07T11:50:15Z</time>
      </trkpt>
      <trkpt lat="45.948945516720414" lon="10.43695111759007">
        <ele>2366.9000000000001</ele>
        <time>2018-07-07T11:50:41Z</time>
      </trkpt>
      <trkpt lat="45.948948785662651" lon="10.436948519200087">
        <ele>2366.9000000000001</ele>
        <time>2018-07-07T11:51:04Z</time>
      </trkpt>
      <trkpt lat="45.948953395709395" lon="10.436903843656182">
        <ele>2366.4200000000001</ele>
        <time>2018-07-07T11:51:28Z</time>
      </trkpt>
      <trkpt lat="45.948966722935438" lon="10.436969138681889">
        <ele>2366.9000000000001</ele>
        <time>2018-07-07T11:51:44Z</time>
      </trkpt>
      <trkpt lat="45.948972254991531" lon="10.43697115033865">
        <ele>2366.9000000000001</ele>
        <time>2018-07-07T11:52:10Z</time>
      </trkpt>
      <trkpt lat="45.948950378224254" lon="10.436952710151672">
        <ele>2367.3800000000001</ele>
        <time>2018-07-07T11:52:32Z</time>
      </trkpt>
      <trkpt lat="45.948914838954806" lon="10.436924044042826">
        <ele>2367.3800000000001</ele>
        <time>2018-07-07T11:52:54Z</time>
      </trkpt>
      <trkpt lat="45.948919449001551" lon="10.436987746506929">
        <ele>2368.3499999999999</ele>
        <time>2018-07-07T11:53:07Z</time>
      </trkpt>
      <trkpt lat="45.948928417637944" lon="10.437004929408431">
        <ele>2368.3499999999999</ele>
        <time>2018-07-07T11:53:19Z</time>
      </trkpt>
      <trkpt lat="45.948945097625256" lon="10.437047677114606">
        <ele>2368.3499999999999</ele>
        <time>2018-07-07T11:53:36Z</time>
      </trkpt>
      <trkpt lat="45.948964459821582" lon="10.437028650194407">
        <ele>2367.8600000000001</ele>
        <time>2018-07-07T11:53:55Z</time>
      </trkpt>
      <trkpt lat="45.948964711278677" lon="10.437020184472203">
        <ele>2368.3499999999999</ele>
        <time>2018-07-07T11:54:16Z</time>
      </trkpt>
      <trkpt lat="45.948947528377175" lon="10.437023201957345">
        <ele>2367.8600000000001</ele>
        <time>2018-07-07T11:54:39Z</time>
      </trkpt>
      <trkpt lat="45.948954988270998" lon="10.437029991298914">
        <ele>2368.3499999999999</ele>
        <time>2018-07-07T11:54:47Z</time>
      </trkpt>
      <trkpt lat="45.948956329375505" lon="10.437022112309933">
        <ele>2368.3499999999999</ele>
        <time>2018-07-07T11:55:03Z</time>
      </trkpt>
      <trkpt lat="45.948961693793535" lon="10.437019346281886">
        <ele>2368.3499999999999</ele>
        <time>2018-07-07T11:55:20Z</time>
      </trkpt>
      <trkpt lat="45.948987426236272" lon="10.437086233869195">
        <ele>2368.8299999999999</ele>
        <time>2018-07-07T11:55:30Z</time>
      </trkpt>
      <trkpt lat="45.948999747633934" lon="10.437143482267857">
        <ele>2369.79</ele>
        <time>2018-07-07T11:55:37Z</time>
      </trkpt>
      <trkpt lat="45.949025899171829" lon="10.437254877761006">
        <ele>2370.75</ele>
        <time>2018-07-07T11:55:50Z</time>
      </trkpt>
      <trkpt lat="45.949024809524417" lon="10.437321932986379">
        <ele>2371.23</ele>
        <time>2018-07-07T11:55:58Z</time>
      </trkpt>
      <trkpt lat="45.949015254154801" lon="10.437351772561669">
        <ele>2371.23</ele>
        <time>2018-07-07T11:56:00Z</time>
      </trkpt>
      <trkpt lat="45.949000250548124" lon="10.437501976266503">
        <ele>2370.75</ele>
        <time>2018-07-07T11:56:14Z</time>
      </trkpt>
      <trkpt lat="45.948999496176839" lon="10.437508430331945">
        <ele>2370.27</ele>
        <time>2018-07-07T11:56:24Z</time>
      </trkpt>
      <trkpt lat="45.948951803147793" lon="10.437536928802729">
        <ele>2370.27</ele>
        <time>2018-07-07T11:56:29Z</time>
      </trkpt>
      <trkpt lat="45.948908384889364" lon="10.437665926292539">
        <ele>2369.79</ele>
        <time>2018-07-07T11:56:41Z</time>
      </trkpt>
      <trkpt lat="45.948922047391534" lon="10.437781428918242">
        <ele>2369.3099999999999</ele>
        <time>2018-07-07T11:56:53Z</time>
      </trkpt>
      <trkpt lat="45.948929255828261" lon="10.437819063663483">
        <ele>2368.8299999999999</ele>
        <time>2018-07-07T11:56:56Z</time>
      </trkpt>
      <trkpt lat="45.948958089575171" lon="10.437931548804045">
        <ele>2368.3499999999999</ele>
        <time>2018-07-07T11:57:05Z</time>
      </trkpt>
      <trkpt lat="45.949066048488021" lon="10.437959460541606">
        <ele>2367.8600000000001</ele>
        <time>2018-07-07T11:57:18Z</time>
      </trkpt>
      <trkpt lat="45.949098067358136" lon="10.437970859929919">
        <ele>2366.9000000000001</ele>
        <time>2018-07-07T11:57:23Z</time>
      </trkpt>
      <trkpt lat="45.949192950502038" lon="10.437977649271488">
        <ele>2364.5</ele>
        <time>2018-07-07T11:57:35Z</time>
      </trkpt>
      <trkpt lat="45.94927073456347" lon="10.438069347292185">
        <ele>2362.0999999999999</ele>
        <time>2018-07-07T11:57:47Z</time>
      </trkpt>
      <trkpt lat="45.949275596067309" lon="10.43812676332891">
        <ele>2361.6199999999999</ele>
        <time>2018-07-07T11:57:52Z</time>
      </trkpt>
      <trkpt lat="45.949281547218561" lon="10.438268920406699">
        <ele>2359.21</ele>
        <time>2018-07-07T11:58:04Z</time>
      </trkpt>
      <trkpt lat="45.949304345995188" lon="10.438432367518544">
        <ele>2359.21</ele>
        <time>2018-07-07T11:58:17Z</time>
      </trkpt>
      <trkpt lat="45.949358493089676" lon="10.438556168228388">
        <ele>2359.21</ele>
        <time>2018-07-07T11:58:29Z</time>
      </trkpt>
      <trkpt lat="45.949416244402528" lon="10.438666893169284">
        <ele>2356.3299999999999</ele>
        <time>2018-07-07T11:58:41Z</time>
      </trkpt>
      <trkpt lat="45.949485478922725" lon="10.438767140731215">
        <ele>2354.8899999999999</ele>
        <time>2018-07-07T11:58:54Z</time>
      </trkpt>
      <trkpt lat="45.949492854997516" lon="10.438782479614019">
        <ele>2354.8899999999999</ele>
        <time>2018-07-07T11:58:56Z</time>
      </trkpt>
      <trkpt lat="45.949569214135408" lon="10.438882391899824">
        <ele>2354.4099999999999</ele>
        <time>2018-07-07T11:59:07Z</time>
      </trkpt>
      <trkpt lat="45.949620008468628" lon="10.439020609483123">
        <ele>2355.3699999999999</ele>
        <time>2018-07-07T11:59:18Z</time>
      </trkpt>
      <trkpt lat="45.949672143906355" lon="10.439175590872765">
        <ele>2353.9299999999998</ele>
        <time>2018-07-07T11:59:30Z</time>
      </trkpt>
      <trkpt lat="45.949710700660944" lon="10.439268043264747">
        <ele>2354.8899999999999</ele>
        <time>2018-07-07T11:59:39Z</time>
      </trkpt>
      <trkpt lat="45.949733583256602" lon="10.439409445971251">
        <ele>2352.48</ele>
        <time>2018-07-07T11:59:50Z</time>
      </trkpt>
      <trkpt lat="45.949771218001842" lon="10.439516566693783">
        <ele>2351.52</ele>
        <time>2018-07-07T11:59:59Z</time>
      </trkpt>
      <trkpt lat="45.949843302369118" lon="10.439598290249705">
        <ele>2351.04</ele>
        <time>2018-07-07T12:00:07Z</time>
      </trkpt>
      <trkpt lat="45.949879596009851" lon="10.439770957455039">
        <ele>2350.5599999999999</ele>
        <time>2018-07-07T12:00:19Z</time>
      </trkpt>
      <trkpt lat="45.949948076158762" lon="10.439926106482744">
        <ele>2350.0799999999999</ele>
        <time>2018-07-07T12:00:32Z</time>
      </trkpt>
      <trkpt lat="45.949956374242902" lon="10.439928034320474">
        <ele>2350.0799999999999</ele>
        <time>2018-07-07T12:00:33Z</time>
      </trkpt>
      <trkpt lat="45.950024016201496" lon="10.439983271062374">
        <ele>2348.6399999999999</ele>
        <time>2018-07-07T12:00:40Z</time>
      </trkpt>
      <trkpt lat="45.950034661218524" lon="10.440185694023967">
        <ele>2347.1999999999998</ele>
        <time>2018-07-07T12:00:54Z</time>
      </trkpt>
      <trkpt lat="45.95003348775208" lon="10.440291473641992">
        <ele>2346.23</ele>
        <time>2018-07-07T12:01:01Z</time>
      </trkpt>
      <trkpt lat="45.950080007314682" lon="10.440432876348495">
        <ele>2347.6799999999998</ele>
        <time>2018-07-07T12:01:14Z</time>
      </trkpt>
      <trkpt lat="45.950129628181458" lon="10.440539410337806">
        <ele>2349.1199999999999</ele>
        <time>2018-07-07T12:01:25Z</time>
      </trkpt>
      <trkpt lat="45.950154103338718" lon="10.440634209662676">
        <ele>2350.5599999999999</ele>
        <time>2018-07-07T12:01:35Z</time>
      </trkpt>
      <trkpt lat="45.950198443606496" lon="10.440737223252654">
        <ele>2352</ele>
        <time>2018-07-07T12:01:46Z</time>
      </trkpt>
      <trkpt lat="45.950251584872603" lon="10.440814085304737">
        <ele>2353.9299999999998</ele>
        <time>2018-07-07T12:01:57Z</time>
      </trkpt>
      <trkpt lat="45.950290309265256" lon="10.440868148580194">
        <ele>2355.3699999999999</ele>
        <time>2018-07-07T12:02:07Z</time>
      </trkpt>
      <trkpt lat="45.950374212116003" lon="10.440945597365499">
        <ele>2355.8499999999999</ele>
        <time>2018-07-07T12:02:19Z</time>
      </trkpt>
      <trkpt lat="45.950442776083946" lon="10.441062776371837">
        <ele>2354.8899999999999</ele>
        <time>2018-07-07T12:02:30Z</time>
      </trkpt>
      <trkpt lat="45.950470352545381" lon="10.441177356988192">
        <ele>2355.3699999999999</ele>
        <time>2018-07-07T12:02:39Z</time>
      </trkpt>
      <trkpt lat="45.950475046411157" lon="10.441188588738441">
        <ele>2355.3699999999999</ele>
        <time>2018-07-07T12:02:40Z</time>
      </trkpt>
      <trkpt lat="45.950537575408816" lon="10.441260589286685">
        <ele>2354.4099999999999</ele>
        <time>2018-07-07T12:02:49Z</time>
      </trkpt>
      <trkpt lat="45.950562721118331" lon="10.441256565973163">
        <ele>2354.4099999999999</ele>
        <time>2018-07-07T12:03:02Z</time>
      </trkpt>
      <trkpt lat="45.950580993667245" lon="10.441288081929088">
        <ele>2353.9299999999998</ele>
        <time>2018-07-07T12:03:07Z</time>
      </trkpt>
      <trkpt lat="45.950699765235186" lon="10.441367039456964">
        <ele>2352</ele>
        <time>2018-07-07T12:03:21Z</time>
      </trkpt>
      <trkpt lat="45.950794396921992" lon="10.441454211249948">
        <ele>2350.5599999999999</ele>
        <time>2018-07-07T12:03:31Z</time>
      </trkpt>
      <trkpt lat="45.950918113812804" lon="10.441541215404868">
        <ele>2350.0799999999999</ele>
        <time>2018-07-07T12:03:42Z</time>
      </trkpt>
      <trkpt lat="45.950991790741682" lon="10.441624028608203">
        <ele>2349.5999999999999</ele>
        <time>2018-07-07T12:03:52Z</time>
      </trkpt>
      <trkpt lat="45.951089188456535" lon="10.441715642809868">
        <ele>2348.6399999999999</ele>
        <time>2018-07-07T12:04:03Z</time>
      </trkpt>
      <trkpt lat="45.951177114620805" lon="10.441738273948431">
        <ele>2348.1599999999999</ele>
        <time>2018-07-07T12:04:12Z</time>
      </trkpt>
      <trkpt lat="45.951265376061201" lon="10.441780854016542">
        <ele>2348.1599999999999</ele>
        <time>2018-07-07T12:04:22Z</time>
      </trkpt>
      <trkpt lat="45.951292030513287" lon="10.441792588680983">
        <ele>2348.1599999999999</ele>
        <time>2018-07-07T12:04:25Z</time>
      </trkpt>
      <trkpt lat="45.951400157064199" lon="10.44180809520185">
        <ele>2348.1599999999999</ele>
        <time>2018-07-07T12:04:36Z</time>
      </trkpt>
      <trkpt lat="45.951483137905598" lon="10.441847825422883">
        <ele>2349.1199999999999</ele>
        <time>2018-07-07T12:04:45Z</time>
      </trkpt>
      <trkpt lat="45.951577601954341" lon="10.441899374127388">
        <ele>2350.0799999999999</ele>
        <time>2018-07-07T12:04:57Z</time>
      </trkpt>
      <trkpt lat="45.951642142608762" lon="10.441897111013532">
        <ele>2351.04</ele>
        <time>2018-07-07T12:05:06Z</time>
      </trkpt>
      <trkpt lat="45.951681789010763" lon="10.441893758252263">
        <ele>2351.52</ele>
        <time>2018-07-07T12:05:11Z</time>
      </trkpt>
      <trkpt lat="45.951734343543649" lon="10.441891076043248">
        <ele>2352.96</ele>
        <time>2018-07-07T12:05:22Z</time>
      </trkpt>
      <trkpt lat="45.95181698910892" lon="10.441887052729726">
        <ele>2352</ele>
        <time>2018-07-07T12:05:32Z</time>
      </trkpt>
      <trkpt lat="45.951888402923942" lon="10.441933237016201">
        <ele>2351.04</ele>
        <time>2018-07-07T12:05:41Z</time>
      </trkpt>
      <trkpt lat="45.95193668268621" lon="10.441924603655934">
        <ele>2351.04</ele>
        <time>2018-07-07T12:05:50Z</time>
      </trkpt>
      <trkpt lat="45.951999044045806" lon="10.441956706345081">
        <ele>2351.04</ele>
        <time>2018-07-07T12:05:59Z</time>
      </trkpt>
      <trkpt lat="45.952036008238792" lon="10.442032562568784">
        <ele>2351.52</ele>
        <time>2018-07-07T12:06:11Z</time>
      </trkpt>
      <trkpt lat="45.952053023502231" lon="10.442068437114358">
        <ele>2352</ele>
        <time>2018-07-07T12:06:18Z</time>
      </trkpt>
      <trkpt lat="45.952048413455486" lon="10.442071622237563">
        <ele>2352</ele>
        <time>2018-07-07T12:06:20Z</time>
      </trkpt>
      <trkpt lat="45.952081102877855" lon="10.442176731303334">
        <ele>2352.96</ele>
        <time>2018-07-07T12:06:29Z</time>
      </trkpt>
      <trkpt lat="45.952108176425099" lon="10.442246468737721">
        <ele>2355.3699999999999</ele>
        <time>2018-07-07T12:06:41Z</time>
      </trkpt>
      <trkpt lat="45.952144134789705" lon="10.442206235602498">
        <ele>2356.3299999999999</ele>
        <time>2018-07-07T12:06:51Z</time>
      </trkpt>
      <trkpt lat="45.95214388333261" lon="10.442147059366107">
        <ele>2356.8099999999999</ele>
        <time>2018-07-07T12:06:57Z</time>
      </trkpt>
      <trkpt lat="45.952166011556983" lon="10.442065503448248">
        <ele>2357.77</ele>
        <time>2018-07-07T12:07:06Z</time>
      </trkpt>
      <trkpt lat="45.952174561098218" lon="10.442139599472284">
        <ele>2358.73</ele>
        <time>2018-07-07T12:07:15Z</time>
      </trkpt>
      <trkpt lat="45.95218344591558" lon="10.442107077687979">
        <ele>2359.6900000000001</ele>
        <time>2018-07-07T12:07:23Z</time>
      </trkpt>
      <trkpt lat="45.952185960486531" lon="10.4420973546803">
        <ele>2358.73</ele>
        <time>2018-07-07T12:07:25Z</time>
      </trkpt>
      <trkpt lat="45.952226528897882" lon="10.442056199535728">
        <ele>2360.1700000000001</ele>
        <time>2018-07-07T12:07:35Z</time>
      </trkpt>
      <trkpt lat="45.952245723456144" lon="10.441999789327383">
        <ele>2361.1399999999999</ele>
        <time>2018-07-07T12:07:41Z</time>
      </trkpt>
      <trkpt lat="45.952264750376344" lon="10.441980427131057">
        <ele>2361.1399999999999</ele>
        <time>2018-07-07T12:07:43Z</time>
      </trkpt>
      <trkpt lat="45.95232124440372" lon="10.441934997215867">
        <ele>2362.5799999999999</ele>
        <time>2018-07-07T12:07:53Z</time>
      </trkpt>
      <trkpt lat="45.952347228303552" lon="10.441907588392496">
        <ele>2363.0599999999999</ele>
        <time>2018-07-07T12:07:57Z</time>
      </trkpt>
      <trkpt lat="45.952366506680846" lon="10.441888477653265">
        <ele>2363.0599999999999</ele>
        <time>2018-07-07T12:08:00Z</time>
      </trkpt>
      <trkpt lat="45.952438674867153" lon="10.441898033022881">
        <ele>2363.54</ele>
        <time>2018-07-07T12:08:09Z</time>
      </trkpt>
      <trkpt lat="45.952459629625082" lon="10.441908091306686">
        <ele>2363.54</ele>
        <time>2018-07-07T12:08:18Z</time>
      </trkpt>
      <trkpt lat="45.952508160844445" lon="10.441926615312696">
        <ele>2365.46</ele>
        <time>2018-07-07T12:08:29Z</time>
      </trkpt>
      <trkpt lat="45.952531881630421" lon="10.441944636404514">
        <ele>2366.4200000000001</ele>
        <time>2018-07-07T12:08:37Z</time>
      </trkpt>
      <trkpt lat="45.952549399808049" lon="10.441949414089322">
        <ele>2366.4200000000001</ele>
        <time>2018-07-07T12:08:41Z</time>
      </trkpt>
      <trkpt lat="45.952575635164976" lon="10.44196936301887">
        <ele>2366.9000000000001</ele>
        <time>2018-07-07T12:08:46Z</time>
      </trkpt>
      <trkpt lat="45.952623998746276" lon="10.441953940317035">
        <ele>2367.3800000000001</ele>
        <time>2018-07-07T12:08:55Z</time>
      </trkpt>
      <trkpt lat="45.952653670683503" lon="10.442021917551756">
        <ele>2368.8299999999999</ele>
        <time>2018-07-07T12:09:05Z</time>
      </trkpt>
      <trkpt lat="45.95268770121038" lon="10.442125350236893">
        <ele>2371.23</ele>
        <time>2018-07-07T12:09:18Z</time>
      </trkpt>
      <trkpt lat="45.952695999294519" lon="10.442161308601499">
        <ele>2371.71</ele>
        <time>2018-07-07T12:09:23Z</time>
      </trkpt>
      <trkpt lat="45.952730616554618" lon="10.442195003852248">
        <ele>2371.71</ele>
        <time>2018-07-07T12:09:35Z</time>
      </trkpt>
      <trkpt lat="45.952742770314217" lon="10.442171953618526">
        <ele>2372.1900000000001</ele>
        <time>2018-07-07T12:09:44Z</time>
      </trkpt>
      <trkpt lat="45.95273220911622" lon="10.442157201468945">
        <ele>2372.1900000000001</ele>
        <time>2018-07-07T12:09:59Z</time>
      </trkpt>
      <trkpt lat="45.952738830819726" lon="10.442211851477623">
        <ele>2372.1900000000001</ele>
        <time>2018-07-07T12:10:11Z</time>
      </trkpt>
      <trkpt lat="45.952740842476487" lon="10.442242696881294">
        <ele>2372.6700000000001</ele>
        <time>2018-07-07T12:10:15Z</time>
      </trkpt>
      <trkpt lat="45.952741345390677" lon="10.442272536456585">
        <ele>2372.6700000000001</ele>
        <time>2018-07-07T12:10:17Z</time>
      </trkpt>
      <trkpt lat="45.952705470845103" lon="10.442369766533375">
        <ele>2372.6700000000001</ele>
        <time>2018-07-07T12:10:26Z</time>
      </trkpt>
      <trkpt lat="45.952685857191682" lon="10.442525753751397">
        <ele>2372.1900000000001</ele>
        <time>2018-07-07T12:10:39Z</time>
      </trkpt>
      <trkpt lat="45.95263690687716" lon="10.442577805370092">
        <ele>2373.1500000000001</ele>
        <time>2018-07-07T12:10:49Z</time>
      </trkpt>
      <trkpt lat="45.952614862471819" lon="10.442589623853564">
        <ele>2374.1100000000001</ele>
        <time>2018-07-07T12:11:00Z</time>
      </trkpt>
      <trkpt lat="45.952578233554959" lon="10.442640418186784">
        <ele>2374.5900000000001</ele>
        <time>2018-07-07T12:11:10Z</time>
      </trkpt>
      <trkpt lat="45.95258560962975" lon="10.442622983828187">
        <ele>2374.5900000000001</ele>
        <time>2018-07-07T12:11:20Z</time>
      </trkpt>
      <trkpt lat="45.952587705105543" lon="10.442669419571757">
        <ele>2374.5900000000001</ele>
        <time>2018-07-07T12:11:32Z</time>
      </trkpt>
      <trkpt lat="45.952560463920236" lon="10.442687021568418">
        <ele>2374.5900000000001</ele>
        <time>2018-07-07T12:11:50Z</time>
      </trkpt>
    </trkseg>
  </trk>

  <trk>
    <name>2adamello2018-07-08</name>
    <extensions>
      <gpxx:TrackExtension>
        <gpxx:DisplayColor>Yellow</gpxx:DisplayColor>
      </gpxx:TrackExtension>
      <gpxtrkx:TrackStatsExtension xmlns:gpxtrkx="http://www.garmin.com/xmlschemas/TrackStatsExtension/v1">
        <gpxtrkx:Distance>13071</gpxtrkx:Distance>
        <gpxtrkx:TotalElapsedTime>26935</gpxtrkx:TotalElapsedTime>
        <gpxtrkx:MovingTime>18445</gpxtrkx:MovingTime>
        <gpxtrkx:StoppedTime>8478</gpxtrkx:StoppedTime>
        <gpxtrkx:MovingSpeed>1</gpxtrkx:MovingSpeed>
        <gpxtrkx:MaxSpeed>2</gpxtrkx:MaxSpeed>
        <gpxtrkx:MaxElevation>2721</gpxtrkx:MaxElevation>
        <gpxtrkx:MinElevation>2257</gpxtrkx:MinElevation>
        <gpxtrkx:Ascent>931</gpxtrkx:Ascent>
        <gpxtrkx:Descent>730</gpxtrkx:Descent>
        <gpxtrkx:AvgAscentRate>0</gpxtrkx:AvgAscentRate>
        <gpxtrkx:MaxAscentRate>0</gpxtrkx:MaxAscentRate>
        <gpxtrkx:AvgDescentRate>0</gpxtrkx:AvgDescentRate>
        <gpxtrkx:MaxDescentRate>-0</gpxtrkx:MaxDescentRate>
      </gpxtrkx:TrackStatsExtension>
    </extensions>
    <trkseg>
      <trkpt lat="45.952748050913215" lon="10.442335903644562">
        <ele>2380.3600000000001</ele>
        <time>2018-07-08T06:16:12Z</time>
      </trkpt>
      <trkpt lat="45.95274779945612" lon="10.442337412387133">
        <ele>2380.3600000000001</ele>
        <time>2018-07-08T06:16:13Z</time>
      </trkpt>
      <trkpt lat="45.952744781970978" lon="10.442341016605496">
        <ele>2377</ele>
        <time>2018-07-08T06:16:16Z</time>
      </trkpt>
      <trkpt lat="45.952747380360961" lon="10.442340094596148">
        <ele>2377</ele>
        <time>2018-07-08T06:16:17Z</time>
      </trkpt>
      <trkpt lat="45.952790044248104" lon="10.442266082391143">
        <ele>2376.52</ele>
        <time>2018-07-08T06:16:28Z</time>
      </trkpt>
      <trkpt lat="45.9527971688658" lon="10.4422527551651">
        <ele>2377.48</ele>
        <time>2018-07-08T06:16:31Z</time>
      </trkpt>
      <trkpt lat="45.952807227149606" lon="10.442193914204836">
        <ele>2376.52</ele>
        <time>2018-07-08T06:16:41Z</time>
      </trkpt>
      <trkpt lat="45.95284360460937" lon="10.442141108214855">
        <ele>2374.1100000000001</ele>
        <time>2018-07-08T06:16:49Z</time>
      </trkpt>
      <trkpt lat="45.952856009826064" lon="10.44212568551302">
        <ele>2374.1100000000001</ele>
        <time>2018-07-08T06:16:51Z</time>
      </trkpt>
      <trkpt lat="45.952907307073474" lon="10.442084278911352">
        <ele>2373.6300000000001</ele>
        <time>2018-07-08T06:16:58Z</time>
      </trkpt>
      <trkpt lat="45.952966315671802" lon="10.442085871472955">
        <ele>2373.6300000000001</ele>
        <time>2018-07-08T06:17:04Z</time>
      </trkpt>
      <trkpt lat="45.953015517443419" lon="10.442095678299665">
        <ele>2373.6300000000001</ele>
        <time>2018-07-08T06:17:09Z</time>
      </trkpt>
      <trkpt lat="45.953124146908522" lon="10.442056534811854">
        <ele>2374.1100000000001</ele>
        <time>2018-07-08T06:17:20Z</time>
      </trkpt>
      <trkpt lat="45.953214922919869" lon="10.442070029675961">
        <ele>2373.6300000000001</ele>
        <time>2018-07-08T06:17:30Z</time>
      </trkpt>
      <trkpt lat="45.953280720859766" lon="10.442159045487642">
        <ele>2375.0700000000002</ele>
        <time>2018-07-08T06:17:40Z</time>
      </trkpt>
      <trkpt lat="45.953334365040064" lon="10.442229118198156">
        <ele>2376.52</ele>
        <time>2018-07-08T06:17:49Z</time>
      </trkpt>
      <trkpt lat="45.953349033370614" lon="10.442248564213514">
        <ele>2375.0700000000002</ele>
        <time>2018-07-08T06:17:51Z</time>
      </trkpt>
      <trkpt lat="45.953430673107505" lon="10.442372281104326">
        <ele>2375.0700000000002</ele>
        <time>2018-07-08T06:18:02Z</time>
      </trkpt>
      <trkpt lat="45.953473839908838" lon="10.442457692697644">
        <ele>2375.0700000000002</ele>
        <time>2018-07-08T06:18:12Z</time>
      </trkpt>
      <trkpt lat="45.953493872657418" lon="10.442527681589127">
        <ele>2375.5500000000002</ele>
        <time>2018-07-08T06:18:18Z</time>
      </trkpt>
      <trkpt lat="45.95355506055057" lon="10.442620301619172">
        <ele>2376.04</ele>
        <time>2018-07-08T06:18:28Z</time>
      </trkpt>
      <trkpt lat="45.953582972288132" lon="10.442642346024513">
        <ele>2376.04</ele>
        <time>2018-07-08T06:18:32Z</time>
      </trkpt>
      <trkpt lat="45.953671904280782" lon="10.442634047940373">
        <ele>2377</ele>
        <time>2018-07-08T06:18:43Z</time>
      </trkpt>
      <trkpt lat="45.953764775767922" lon="10.442610997706652">
        <ele>2378.4400000000001</ele>
        <time>2018-07-08T06:18:55Z</time>
      </trkpt>
      <trkpt lat="45.953834345564246" lon="10.442591048777103">
        <ele>2379.8800000000001</ele>
        <time>2018-07-08T06:19:06Z</time>
      </trkpt>
      <trkpt lat="45.953890085220337" lon="10.442552575841546">
        <ele>2381.3200000000002</ele>
        <time>2018-07-08T06:19:15Z</time>
      </trkpt>
      <trkpt lat="45.953955966979265" lon="10.442515695467591">
        <ele>2381.8000000000002</ele>
        <time>2018-07-08T06:19:25Z</time>
      </trkpt>
      <trkpt lat="45.954037187620997" lon="10.442456267774105">
        <ele>2381.8000000000002</ele>
        <time>2018-07-08T06:19:36Z</time>
      </trkpt>
      <trkpt lat="45.954124694690108" lon="10.44240421615541">
        <ele>2381.8000000000002</ele>
        <time>2018-07-08T06:19:46Z</time>
      </trkpt>
      <trkpt lat="45.954218488186598" lon="10.442429697141051">
        <ele>2380.8400000000001</ele>
        <time>2018-07-08T06:19:56Z</time>
      </trkpt>
      <trkpt lat="45.954290237277746" lon="10.442484766244888">
        <ele>2380.8400000000001</ele>
        <time>2018-07-08T06:20:05Z</time>
      </trkpt>
      <trkpt lat="45.954297026619315" lon="10.44248778373003">
        <ele>2381.3200000000002</ele>
        <time>2018-07-08T06:20:06Z</time>
      </trkpt>
      <trkpt lat="45.954361148178577" lon="10.44257428497076">
        <ele>2381.8000000000002</ele>
        <time>2018-07-08T06:20:17Z</time>
      </trkpt>
      <trkpt lat="45.954358382150531" lon="10.442630611360073">
        <ele>2381.8000000000002</ele>
        <time>2018-07-08T06:20:21Z</time>
      </trkpt>
      <trkpt lat="45.954298786818981" lon="10.44275508262217">
        <ele>2382.2800000000002</ele>
        <time>2018-07-08T06:20:32Z</time>
      </trkpt>
      <trkpt lat="45.954243633896112" lon="10.44281367212534">
        <ele>2383.25</ele>
        <time>2018-07-08T06:20:41Z</time>
      </trkpt>
      <trkpt lat="45.954187139868736" lon="10.442890031263232">
        <ele>2384.21</ele>
        <time>2018-07-08T06:20:51Z</time>
      </trkpt>
      <trkpt lat="45.954128047451377" lon="10.442967312410474">
        <ele>2385.6500000000001</ele>
        <time>2018-07-08T06:21:01Z</time>
      </trkpt>
      <trkpt lat="45.95410424284637" lon="10.44302623718977">
        <ele>2386.6100000000001</ele>
        <time>2018-07-08T06:21:11Z</time>
      </trkpt>
      <trkpt lat="45.954179679974914" lon="10.443030260503292">
        <ele>2387.5700000000002</ele>
        <time>2018-07-08T06:21:21Z</time>
      </trkpt>
      <trkpt lat="45.954259894788265" lon="10.443056831136346">
        <ele>2389.0100000000002</ele>
        <time>2018-07-08T06:21:33Z</time>
      </trkpt>
      <trkpt lat="45.954291662201285" lon="10.44307267293334">
        <ele>2389.4899999999998</ele>
        <time>2018-07-08T06:21:38Z</time>
      </trkpt>
      <trkpt lat="45.954367099329829" lon="10.443140063434839">
        <ele>2390.9400000000001</ele>
        <time>2018-07-08T06:21:49Z</time>
      </trkpt>
      <trkpt lat="45.95443507656455" lon="10.4431870020926">
        <ele>2390.9400000000001</ele>
        <time>2018-07-08T06:21:59Z</time>
      </trkpt>
      <trkpt lat="45.954509088769555" lon="10.443236455321312">
        <ele>2392.3800000000001</ele>
        <time>2018-07-08T06:22:10Z</time>
      </trkpt>
      <trkpt lat="45.954599445685744" lon="10.443265708163381">
        <ele>2393.8200000000002</ele>
        <time>2018-07-08T06:22:22Z</time>
      </trkpt>
      <trkpt lat="45.954627022147179" lon="10.443284315988421">
        <ele>2393.8200000000002</ele>
        <time>2018-07-08T06:22:26Z</time>
      </trkpt>
      <trkpt lat="45.954664908349514" lon="10.443282052874565">
        <ele>2394.3000000000002</ele>
        <time>2018-07-08T06:22:30Z</time>
      </trkpt>
      <trkpt lat="45.954689802601933" lon="10.443298229947686">
        <ele>2394.3000000000002</ele>
        <time>2018-07-08T06:22:33Z</time>
      </trkpt>
      <trkpt lat="45.954716792330146" lon="10.443325219675899">
        <ele>2394.7800000000002</ele>
        <time>2018-07-08T06:22:36Z</time>
      </trkpt>
      <trkpt lat="45.954758618026972" lon="10.44340593740344">
        <ele>2393.8200000000002</ele>
        <time>2018-07-08T06:22:43Z</time>
      </trkpt>
      <trkpt lat="45.954792816191912" lon="10.44356276281178">
        <ele>2393.8200000000002</ele>
        <time>2018-07-08T06:22:54Z</time>
      </trkpt>
      <trkpt lat="45.954828020185232" lon="10.443715648725629">
        <ele>2393.3400000000001</ele>
        <time>2018-07-08T06:23:07Z</time>
      </trkpt>
      <trkpt lat="45.954831289127469" lon="10.443726126104593">
        <ele>2393.3400000000001</ele>
        <time>2018-07-08T06:23:08Z</time>
      </trkpt>
      <trkpt lat="45.954872528091073" lon="10.443865265697241">
        <ele>2393.3400000000001</ele>
        <time>2018-07-08T06:23:19Z</time>
      </trkpt>
      <trkpt lat="45.954921310767531" lon="10.443965513259172">
        <ele>2394.7800000000002</ele>
        <time>2018-07-08T06:23:30Z</time>
      </trkpt>
      <trkpt lat="45.954949557781219" lon="10.443954113870859">
        <ele>2396.2199999999998</ele>
        <time>2018-07-08T06:23:37Z</time>
      </trkpt>
      <trkpt lat="45.954969841986895" lon="10.44391505420208">
        <ele>2397.6700000000001</ele>
        <time>2018-07-08T06:23:47Z</time>
      </trkpt>
      <trkpt lat="45.955002196133137" lon="10.443837018683553">
        <ele>2398.6300000000001</ele>
        <time>2018-07-08T06:23:58Z</time>
      </trkpt>
      <trkpt lat="45.955052319914103" lon="10.443802820518613">
        <ele>2400.5500000000002</ele>
        <time>2018-07-08T06:24:08Z</time>
      </trkpt>
      <trkpt lat="45.955052739009261" lon="10.443847915157676">
        <ele>2401.0300000000002</ele>
        <time>2018-07-08T06:24:12Z</time>
      </trkpt>
      <trkpt lat="45.95503069460392" lon="10.443952018395066">
        <ele>2402.4699999999998</ele>
        <time>2018-07-08T06:24:22Z</time>
      </trkpt>
      <trkpt lat="45.955029353499413" lon="10.444043381139636">
        <ele>2403.9099999999999</ele>
        <time>2018-07-08T06:24:35Z</time>
      </trkpt>
      <trkpt lat="45.955064054578543" lon="10.444019241258502">
        <ele>2405.3600000000001</ele>
        <time>2018-07-08T06:24:45Z</time>
      </trkpt>
      <trkpt lat="45.95510738901794" lon="10.443966602906585">
        <ele>2406.3200000000002</ele>
        <time>2018-07-08T06:24:55Z</time>
      </trkpt>
      <trkpt lat="45.955150974914432" lon="10.443946067243814">
        <ele>2408.2399999999998</ele>
        <time>2018-07-08T06:25:04Z</time>
      </trkpt>
      <trkpt lat="45.955186346545815" lon="10.44391262345016">
        <ele>2409.1999999999998</ele>
        <time>2018-07-08T06:25:15Z</time>
      </trkpt>
      <trkpt lat="45.955230854451656" lon="10.44393022544682">
        <ele>2410.6399999999999</ele>
        <time>2018-07-08T06:25:24Z</time>
      </trkpt>
      <trkpt lat="45.955209312960505" lon="10.443976325914264">
        <ele>2411.1199999999999</ele>
        <time>2018-07-08T06:25:33Z</time>
      </trkpt>
      <trkpt lat="45.955192381516099" lon="10.444047907367349">
        <ele>2412.5700000000002</ele>
        <time>2018-07-08T06:25:42Z</time>
      </trkpt>
      <trkpt lat="45.955212246626616" lon="10.444068778306246">
        <ele>2414.0100000000002</ele>
        <time>2018-07-08T06:25:51Z</time>
      </trkpt>
      <trkpt lat="45.955264884978533" lon="10.444036927074194">
        <ele>2415.4499999999998</ele>
        <time>2018-07-08T06:26:02Z</time>
      </trkpt>
      <trkpt lat="45.95534828491509" lon="10.444032065570354">
        <ele>2416.8899999999999</ele>
        <time>2018-07-08T06:26:14Z</time>
      </trkpt>
      <trkpt lat="45.955388098955154" lon="10.444055031985044">
        <ele>2416.8899999999999</ele>
        <time>2018-07-08T06:26:24Z</time>
      </trkpt>
      <trkpt lat="45.955451549962163" lon="10.444115130230784">
        <ele>2417.8499999999999</ele>
        <time>2018-07-08T06:26:37Z</time>
      </trkpt>
      <trkpt lat="45.955514498054981" lon="10.444146478548646">
        <ele>2419.3000000000002</ele>
        <time>2018-07-08T06:26:48Z</time>
      </trkpt>
      <trkpt lat="45.955577697604895" lon="10.444209175184369">
        <ele>2420.7399999999998</ele>
        <time>2018-07-08T06:26:58Z</time>
      </trkpt>
      <trkpt lat="45.955634778365493" lon="10.444231471046805">
        <ele>2421.6999999999998</ele>
        <time>2018-07-08T06:27:08Z</time>
      </trkpt>
      <trkpt lat="45.955691942945123" lon="10.444280421361327">
        <ele>2424.0999999999999</ele>
        <time>2018-07-08T06:27:21Z</time>
      </trkpt>
      <trkpt lat="45.955742234364152" lon="10.444330964237452">
        <ele>2423.1399999999999</ele>
        <time>2018-07-08T06:27:30Z</time>
      </trkpt>
      <trkpt lat="45.955789675936103" lon="10.444382512941957">
        <ele>2425.0599999999999</ele>
        <time>2018-07-08T06:27:40Z</time>
      </trkpt>
      <trkpt lat="45.955818090587854" lon="10.444435570389032">
        <ele>2426.02</ele>
        <time>2018-07-08T06:27:52Z</time>
      </trkpt>
      <trkpt lat="45.955865951254964" lon="10.444504721090198">
        <ele>2428.4299999999998</ele>
        <time>2018-07-08T06:28:01Z</time>
      </trkpt>
      <trkpt lat="45.955920517444611" lon="10.444562807679176">
        <ele>2427.4699999999998</ele>
        <time>2018-07-08T06:28:12Z</time>
      </trkpt>
      <trkpt lat="45.955977011471987" lon="10.444625336676836">
        <ele>2428.4299999999998</ele>
        <time>2018-07-08T06:28:21Z</time>
      </trkpt>
      <trkpt lat="45.956026548519731" lon="10.444691218435764">
        <ele>2428.9099999999999</ele>
        <time>2018-07-08T06:28:30Z</time>
      </trkpt>
      <trkpt lat="45.956081617623568" lon="10.444760201498866">
        <ele>2429.8699999999999</ele>
        <time>2018-07-08T06:28:41Z</time>
      </trkpt>
      <trkpt lat="45.956114558503032" lon="10.444827256724238">
        <ele>2430.3499999999999</ele>
        <time>2018-07-08T06:28:50Z</time>
      </trkpt>
      <trkpt lat="45.956168454140425" lon="10.44487620703876">
        <ele>2431.79</ele>
        <time>2018-07-08T06:29:01Z</time>
      </trkpt>
      <trkpt lat="45.956213213503361" lon="10.444906046614051">
        <ele>2432.75</ele>
        <time>2018-07-08T06:29:11Z</time>
      </trkpt>
      <trkpt lat="45.956256380304694" lon="10.444959104061127">
        <ele>2434.1999999999998</ele>
        <time>2018-07-08T06:29:21Z</time>
      </trkpt>
      <trkpt lat="45.956273060292006" lon="10.444967318326235">
        <ele>2434.6799999999998</ele>
        <time>2018-07-08T06:29:23Z</time>
      </trkpt>
      <trkpt lat="45.956316897645593" lon="10.445030266419053">
        <ele>2435.6399999999999</ele>
        <time>2018-07-08T06:29:33Z</time>
      </trkpt>
      <trkpt lat="45.956361321732402" lon="10.445086089894176">
        <ele>2437.0799999999999</ele>
        <time>2018-07-08T06:29:43Z</time>
      </trkpt>
      <trkpt lat="45.956406751647592" lon="10.445148618891835">
        <ele>2439</ele>
        <time>2018-07-08T06:29:54Z</time>
      </trkpt>
      <trkpt lat="45.956461653113365" lon="10.445253560319543">
        <ele>2439.48</ele>
        <time>2018-07-08T06:30:06Z</time>
      </trkpt>
      <trkpt lat="45.95648679882288" lon="10.445354646071792">
        <ele>2440.4400000000001</ele>
        <time>2018-07-08T06:30:17Z</time>
      </trkpt>
      <trkpt lat="45.956522505730391" lon="10.445418180897832">
        <ele>2441.8899999999999</ele>
        <time>2018-07-08T06:30:27Z</time>
      </trkpt>
      <trkpt lat="45.956568438559771" lon="10.445475010201335">
        <ele>2442.8499999999999</ele>
        <time>2018-07-08T06:30:36Z</time>
      </trkpt>
      <trkpt lat="45.956594841554761" lon="10.445515075698495">
        <ele>2443.8099999999999</ele>
        <time>2018-07-08T06:30:44Z</time>
      </trkpt>
      <trkpt lat="45.95664219930768" lon="10.445558913052082">
        <ele>2444.77</ele>
        <time>2018-07-08T06:30:54Z</time>
      </trkpt>
      <trkpt lat="45.956680588424206" lon="10.445607863366604">
        <ele>2446.21</ele>
        <time>2018-07-08T06:31:05Z</time>
      </trkpt>
      <trkpt lat="45.956727275624871" lon="10.445635439828038">
        <ele>2447.6500000000001</ele>
        <time>2018-07-08T06:31:15Z</time>
      </trkpt>
      <trkpt lat="45.956767173483968" lon="10.445663686841726">
        <ele>2448.6199999999999</ele>
        <time>2018-07-08T06:31:24Z</time>
      </trkpt>
      <trkpt lat="45.956800114363432" lon="10.445692772045732">
        <ele>2449.5799999999999</ele>
        <time>2018-07-08T06:31:33Z</time>
      </trkpt>
      <trkpt lat="45.956850321963429" lon="10.445728395134211">
        <ele>2450.54</ele>
        <time>2018-07-08T06:31:41Z</time>
      </trkpt>
      <trkpt lat="45.956888124346733" lon="10.445763599127531">
        <ele>2451.5</ele>
        <time>2018-07-08T06:31:51Z</time>
      </trkpt>
      <trkpt lat="45.956935985013843" lon="10.445813052356243">
        <ele>2452.9400000000001</ele>
        <time>2018-07-08T06:32:00Z</time>
      </trkpt>
      <trkpt lat="45.956994155421853" lon="10.445852531120181">
        <ele>2454.3800000000001</ele>
        <time>2018-07-08T06:32:12Z</time>
      </trkpt>
      <trkpt lat="45.957017373293638" lon="10.445910282433033">
        <ele>2455.8200000000002</ele>
        <time>2018-07-08T06:32:22Z</time>
      </trkpt>
      <trkpt lat="45.957065988332033" lon="10.445960322394967">
        <ele>2456.79</ele>
        <time>2018-07-08T06:32:32Z</time>
      </trkpt>
      <trkpt lat="45.957096582278609" lon="10.44603768736124">
        <ele>2457.75</ele>
        <time>2018-07-08T06:32:43Z</time>
      </trkpt>
      <trkpt lat="45.957149220630527" lon="10.446097701787949">
        <ele>2459.1900000000001</ele>
        <time>2018-07-08T06:32:54Z</time>
      </trkpt>
      <trkpt lat="45.957208899781108" lon="10.44613391160965">
        <ele>2460.6300000000001</ele>
        <time>2018-07-08T06:33:07Z</time>
      </trkpt>
      <trkpt lat="45.957292215898633" lon="10.446189818903804">
        <ele>2462.0700000000002</ele>
        <time>2018-07-08T06:33:19Z</time>
      </trkpt>
      <trkpt lat="45.957342339679599" lon="10.446245223283768">
        <ele>2463.04</ele>
        <time>2018-07-08T06:33:29Z</time>
      </trkpt>
      <trkpt lat="45.957410736009479" lon="10.446308339014649">
        <ele>2464</ele>
        <time>2018-07-08T06:33:40Z</time>
      </trkpt>
      <trkpt lat="45.95743965357542" lon="10.446369023993611">
        <ele>2465.9200000000001</ele>
        <time>2018-07-08T06:33:52Z</time>
      </trkpt>
      <trkpt lat="45.957487598061562" lon="10.446400372311473">
        <ele>2467.8400000000001</ele>
        <time>2018-07-08T06:34:04Z</time>
      </trkpt>
      <trkpt lat="45.957509307190776" lon="10.446452340111136">
        <ele>2468.8000000000002</ele>
        <time>2018-07-08T06:34:14Z</time>
      </trkpt>
      <trkpt lat="45.957558592781425" lon="10.44649944640696">
        <ele>2469.7600000000002</ele>
        <time>2018-07-08T06:34:23Z</time>
      </trkpt>
      <trkpt lat="45.957591533660889" lon="10.446550995111465">
        <ele>2471.21</ele>
        <time>2018-07-08T06:34:31Z</time>
      </trkpt>
      <trkpt lat="45.95764190889895" lon="10.446576476097107">
        <ele>2473.1300000000001</ele>
        <time>2018-07-08T06:34:44Z</time>
      </trkpt>
      <trkpt lat="45.957649620249867" lon="10.446602208539844">
        <ele>2473.6100000000001</ele>
        <time>2018-07-08T06:34:48Z</time>
      </trkpt>
      <trkpt lat="45.957688009366393" lon="10.446652667596936">
        <ele>2475.0500000000002</ele>
        <time>2018-07-08T06:34:59Z</time>
      </trkpt>
      <trkpt lat="45.957713657990098" lon="10.446658618748188">
        <ele>2475.5300000000002</ele>
        <time>2018-07-08T06:35:06Z</time>
      </trkpt>
      <trkpt lat="45.957756405696273" lon="10.446685776114464">
        <ele>2476.4899999999998</ele>
        <time>2018-07-08T06:35:16Z</time>
      </trkpt>
      <trkpt lat="45.957816168665886" lon="10.446697426959872">
        <ele>2477.9400000000001</ele>
        <time>2018-07-08T06:35:27Z</time>
      </trkpt>
      <trkpt lat="45.957883726805449" lon="10.446726679801941">
        <ele>2479.3800000000001</ele>
        <time>2018-07-08T06:35:38Z</time>
      </trkpt>
      <trkpt lat="45.957926725968719" lon="10.446740509942174">
        <ele>2480.3400000000001</ele>
        <time>2018-07-08T06:35:48Z</time>
      </trkpt>
      <trkpt lat="45.957982465624809" lon="10.446774959564209">
        <ele>2481.3000000000002</ele>
        <time>2018-07-08T06:36:00Z</time>
      </trkpt>
      <trkpt lat="45.958022447302938" lon="10.44679650105536">
        <ele>2482.2600000000002</ele>
        <time>2018-07-08T06:36:08Z</time>
      </trkpt>
      <trkpt lat="45.958071649074554" lon="10.446824748069048">
        <ele>2483.2199999999998</ele>
        <time>2018-07-08T06:36:17Z</time>
      </trkpt>
      <trkpt lat="45.958112468943" lon="10.446853833273053">
        <ele>2484.6599999999999</ele>
        <time>2018-07-08T06:36:26Z</time>
      </trkpt>
      <trkpt lat="45.958159910514951" lon="10.446871686726809">
        <ele>2486.1100000000001</ele>
        <time>2018-07-08T06:36:36Z</time>
      </trkpt>
      <trkpt lat="45.958201736211777" lon="10.446892976760864">
        <ele>2487.0700000000002</ele>
        <time>2018-07-08T06:36:45Z</time>
      </trkpt>
      <trkpt lat="45.958231408149004" lon="10.446881325915456">
        <ele>2487.5500000000002</ele>
        <time>2018-07-08T06:36:55Z</time>
      </trkpt>
      <trkpt lat="45.958286644890904" lon="10.446868501603603">
        <ele>2488.9899999999998</ele>
        <time>2018-07-08T06:37:06Z</time>
      </trkpt>
      <trkpt lat="45.958331571891904" lon="10.446823993697762">
        <ele>2489.9499999999998</ele>
        <time>2018-07-08T06:37:16Z</time>
      </trkpt>
      <trkpt lat="45.958370380103588" lon="10.446794237941504">
        <ele>2491.3899999999999</ele>
        <time>2018-07-08T06:37:27Z</time>
      </trkpt>
      <trkpt lat="45.958397034555674" lon="10.446817288175225">
        <ele>2492.3600000000001</ele>
        <time>2018-07-08T06:37:37Z</time>
      </trkpt>
      <trkpt lat="45.958395693451166" lon="10.446896497160196">
        <ele>2493.8000000000002</ele>
        <time>2018-07-08T06:37:46Z</time>
      </trkpt>
      <trkpt lat="45.95837046392262" lon="10.446983501315117">
        <ele>2494.7600000000002</ele>
        <time>2018-07-08T06:37:56Z</time>
      </trkpt>
      <trkpt lat="45.958325453102589" lon="10.447062877938151">
        <ele>2495.7199999999998</ele>
        <time>2018-07-08T06:38:08Z</time>
      </trkpt>
      <trkpt lat="45.958276251330972" lon="10.447140326723456">
        <ele>2496.6799999999998</ele>
        <time>2018-07-08T06:38:21Z</time>
      </trkpt>
      <trkpt lat="45.958227217197418" lon="10.447196569293737">
        <ele>2497.6399999999999</ele>
        <time>2018-07-08T06:38:30Z</time>
      </trkpt>
      <trkpt lat="45.958165777847171" lon="10.447208555415273">
        <ele>2498.5999999999999</ele>
        <time>2018-07-08T06:38:40Z</time>
      </trkpt>
      <trkpt lat="45.95808464102447" lon="10.447244262322783">
        <ele>2500.5300000000002</ele>
        <time>2018-07-08T06:38:52Z</time>
      </trkpt>
      <trkpt lat="45.958048179745674" lon="10.44725582934916">
        <ele>2500.5300000000002</ele>
        <time>2018-07-08T06:39:04Z</time>
      </trkpt>
      <trkpt lat="45.958082880824804" lon="10.447283908724785">
        <ele>2502.4499999999998</ele>
        <time>2018-07-08T06:39:15Z</time>
      </trkpt>
      <trkpt lat="45.95811489969492" lon="10.447285836562514">
        <ele>2503.4099999999999</ele>
        <time>2018-07-08T06:39:24Z</time>
      </trkpt>
      <trkpt lat="45.958140464499593" lon="10.447315843775868">
        <ele>2504.3699999999999</ele>
        <time>2018-07-08T06:39:36Z</time>
      </trkpt>
      <trkpt lat="45.958206010982394" lon="10.447359848767519">
        <ele>2505.3299999999999</ele>
        <time>2018-07-08T06:39:47Z</time>
      </trkpt>
      <trkpt lat="45.958242723718286" lon="10.447405865415931">
        <ele>2507.2600000000002</ele>
        <time>2018-07-08T06:39:58Z</time>
      </trkpt>
      <trkpt lat="45.958250602707267" lon="10.447467640042305">
        <ele>2508.2199999999998</ele>
        <time>2018-07-08T06:40:09Z</time>
      </trkpt>
      <trkpt lat="45.958192432299256" lon="10.447507537901402">
        <ele>2509.6599999999999</ele>
        <time>2018-07-08T06:40:19Z</time>
      </trkpt>
      <trkpt lat="45.958143146708608" lon="10.447571408003569">
        <ele>2511.0999999999999</ele>
        <time>2018-07-08T06:40:30Z</time>
      </trkpt>
      <trkpt lat="45.958081539720297" lon="10.447631254792213">
        <ele>2512.54</ele>
        <time>2018-07-08T06:40:43Z</time>
      </trkpt>
      <trkpt lat="45.957989506423473" lon="10.447670985013247">
        <ele>2513.5</ele>
        <time>2018-07-08T06:40:55Z</time>
      </trkpt>
      <trkpt lat="45.957915997132659" lon="10.447712140157819">
        <ele>2514.4699999999998</ele>
        <time>2018-07-08T06:41:07Z</time>
      </trkpt>
      <trkpt lat="45.957889091223478" lon="10.447772741317749">
        <ele>2515.9099999999999</ele>
        <time>2018-07-08T06:41:18Z</time>
      </trkpt>
      <trkpt lat="45.957906441763043" lon="10.447807190939784">
        <ele>2517.3499999999999</ele>
        <time>2018-07-08T06:41:29Z</time>
      </trkpt>
      <trkpt lat="45.957950949668884" lon="10.44783242046833">
        <ele>2518.3099999999999</ele>
        <time>2018-07-08T06:41:38Z</time>
      </trkpt>
      <trkpt lat="45.95799864269793" lon="10.447863349691033">
        <ele>2519.27</ele>
        <time>2018-07-08T06:41:47Z</time>
      </trkpt>
      <trkpt lat="45.958028314635158" lon="10.447870306670666">
        <ele>2520.71</ele>
        <time>2018-07-08T06:41:56Z</time>
      </trkpt>
      <trkpt lat="45.958082713186741" lon="10.447891931980848">
        <ele>2521.1900000000001</ele>
        <time>2018-07-08T06:42:06Z</time>
      </trkpt>
      <trkpt lat="45.958153288811445" lon="10.447908528149128">
        <ele>2522.6399999999999</ele>
        <time>2018-07-08T06:42:16Z</time>
      </trkpt>
      <trkpt lat="45.95822243951261" lon="10.447928057983518">
        <ele>2523.5999999999999</ele>
        <time>2018-07-08T06:42:27Z</time>
      </trkpt>
      <trkpt lat="45.958296870812774" lon="10.447922693565488">
        <ele>2525.04</ele>
        <time>2018-07-08T06:42:40Z</time>
      </trkpt>
      <trkpt lat="45.958397621288896" lon="10.447925459593534">
        <ele>2526.96</ele>
        <time>2018-07-08T06:42:53Z</time>
      </trkpt>
      <trkpt lat="45.958466855809093" lon="10.447960076853633">
        <ele>2528.4000000000001</ele>
        <time>2018-07-08T06:43:04Z</time>
      </trkpt>
      <trkpt lat="45.958544975146651" lon="10.448005422949791">
        <ele>2529.3699999999999</ele>
        <time>2018-07-08T06:43:18Z</time>
      </trkpt>
      <trkpt lat="45.95858596265316" lon="10.448093181475997">
        <ele>2530.8099999999999</ele>
        <time>2018-07-08T06:43:30Z</time>
      </trkpt>
      <trkpt lat="45.958569450303912" lon="10.448137940838933">
        <ele>2530.8099999999999</ele>
        <time>2018-07-08T06:43:39Z</time>
      </trkpt>
      <trkpt lat="45.958562241867185" lon="10.448125116527081">
        <ele>2530.8099999999999</ele>
        <time>2018-07-08T06:43:47Z</time>
      </trkpt>
      <trkpt lat="45.958557045087218" lon="10.448113968595862">
        <ele>2530.3299999999999</ele>
        <time>2018-07-08T06:43:58Z</time>
      </trkpt>
      <trkpt lat="45.958596859127283" lon="10.448083877563477">
        <ele>2530.3299999999999</ele>
        <time>2018-07-08T06:44:23Z</time>
      </trkpt>
      <trkpt lat="45.958617813885212" lon="10.448088152334094">
        <ele>2530.3299999999999</ele>
        <time>2018-07-08T06:44:48Z</time>
      </trkpt>
      <trkpt lat="45.95856785774231" lon="10.448114220052958">
        <ele>2530.8099999999999</ele>
        <time>2018-07-08T06:44:53Z</time>
      </trkpt>
      <trkpt lat="45.958553859964013" lon="10.448142467066646">
        <ele>2530.8099999999999</ele>
        <time>2018-07-08T06:45:02Z</time>
      </trkpt>
      <trkpt lat="45.958551093935966" lon="10.448145233094692">
        <ele>2531.29</ele>
        <time>2018-07-08T06:45:14Z</time>
      </trkpt>
      <trkpt lat="45.958568025380373" lon="10.448129726573825">
        <ele>2531.29</ele>
        <time>2018-07-08T06:45:36Z</time>
      </trkpt>
      <trkpt lat="45.958561403676867" lon="10.448120255023241">
        <ele>2532.25</ele>
        <time>2018-07-08T06:45:48Z</time>
      </trkpt>
      <trkpt lat="45.958563331514597" lon="10.448151435703039">
        <ele>2532.25</ele>
        <time>2018-07-08T06:45:58Z</time>
      </trkpt>
      <trkpt lat="45.958553859964013" lon="10.448167361319065">
        <ele>2531.77</ele>
        <time>2018-07-08T06:46:13Z</time>
      </trkpt>
      <trkpt lat="45.958552770316601" lon="10.448143556714058">
        <ele>2532.25</ele>
        <time>2018-07-08T06:46:26Z</time>
      </trkpt>
      <trkpt lat="45.958506753668189" lon="10.448145568370819">
        <ele>2532.73</ele>
        <time>2018-07-08T06:46:34Z</time>
      </trkpt>
      <trkpt lat="45.958435256034136" lon="10.448191417381167">
        <ele>2534.6500000000001</ele>
        <time>2018-07-08T06:46:45Z</time>
      </trkpt>
      <trkpt lat="45.958390831947327" lon="10.448250258341432">
        <ele>2536.0999999999999</ele>
        <time>2018-07-08T06:46:56Z</time>
      </trkpt>
      <trkpt lat="45.9583904966712" lon="10.4483054112643">
        <ele>2537.54</ele>
        <time>2018-07-08T06:47:07Z</time>
      </trkpt>
      <trkpt lat="45.958458641543984" lon="10.448352517560124">
        <ele>2538.98</ele>
        <time>2018-07-08T06:47:19Z</time>
      </trkpt>
      <trkpt lat="45.958515638485551" lon="10.448410687968135">
        <ele>2539.9400000000001</ele>
        <time>2018-07-08T06:47:29Z</time>
      </trkpt>
      <trkpt lat="45.958511531352997" lon="10.448480928316712">
        <ele>2541.3800000000001</ele>
        <time>2018-07-08T06:47:38Z</time>
      </trkpt>
      <trkpt lat="45.958445146679878" lon="10.448544714599848">
        <ele>2542.8200000000002</ele>
        <time>2018-07-08T06:47:50Z</time>
      </trkpt>
      <trkpt lat="45.9584457334131" lon="10.448577655479312">
        <ele>2543.79</ele>
        <time>2018-07-08T06:48:00Z</time>
      </trkpt>
      <trkpt lat="45.958394855260849" lon="10.44859073124826">
        <ele>2543.79</ele>
        <time>2018-07-08T06:48:10Z</time>
      </trkpt>
      <trkpt lat="45.958316484466195" lon="10.448626689612865">
        <ele>2545.23</ele>
        <time>2018-07-08T06:48:22Z</time>
      </trkpt>
      <trkpt lat="45.95825269818306" lon="10.448657618835568">
        <ele>2547.1500000000001</ele>
        <time>2018-07-08T06:48:36Z</time>
      </trkpt>
      <trkpt lat="45.958208022639155" lon="10.448682345449924">
        <ele>2547.6300000000001</ele>
        <time>2018-07-08T06:48:45Z</time>
      </trkpt>
      <trkpt lat="45.958163179457188" lon="10.448710676282644">
        <ele>2549.0700000000002</ele>
        <time>2018-07-08T06:48:55Z</time>
      </trkpt>
      <trkpt lat="45.958126131445169" lon="10.448764571920037">
        <ele>2550.0300000000002</ele>
        <time>2018-07-08T06:49:04Z</time>
      </trkpt>
      <trkpt lat="45.958050275221467" lon="10.448844786733389">
        <ele>2551.96</ele>
        <time>2018-07-08T06:49:18Z</time>
      </trkpt>
      <trkpt lat="45.958005851134658" lon="10.448864148929715">
        <ele>2552.9200000000001</ele>
        <time>2018-07-08T06:49:27Z</time>
      </trkpt>
      <trkpt lat="45.957928234711289" lon="10.448904046788812">
        <ele>2554.3600000000001</ele>
        <time>2018-07-08T06:49:41Z</time>
      </trkpt>
      <trkpt lat="45.957867549732327" lon="10.448911590501666">
        <ele>2555.8000000000002</ele>
        <time>2018-07-08T06:49:51Z</time>
      </trkpt>
      <trkpt lat="45.957796638831496" lon="10.448961462825537">
        <ele>2558.21</ele>
        <time>2018-07-08T06:50:03Z</time>
      </trkpt>
      <trkpt lat="45.95771667547524" lon="10.448990883305669">
        <ele>2558.6900000000001</ele>
        <time>2018-07-08T06:50:16Z</time>
      </trkpt>
      <trkpt lat="45.957682896405458" lon="10.449009323492646">
        <ele>2559.6500000000001</ele>
        <time>2018-07-08T06:50:23Z</time>
      </trkpt>
      <trkpt lat="45.957610392943025" lon="10.449015945196152">
        <ele>2561.0900000000001</ele>
        <time>2018-07-08T06:50:35Z</time>
      </trkpt>
      <trkpt lat="45.957558089867234" lon="10.449009072035551">
        <ele>2562.5300000000002</ele>
        <time>2018-07-08T06:50:46Z</time>
      </trkpt>
      <trkpt lat="45.957495057955384" lon="10.448993649333715">
        <ele>2564.4499999999998</ele>
        <time>2018-07-08T06:50:59Z</time>
      </trkpt>
      <trkpt lat="45.957418531179428" lon="10.44901829212904">
        <ele>2565.9000000000001</ele>
        <time>2018-07-08T06:51:10Z</time>
      </trkpt>
      <trkpt lat="45.957356924191117" lon="10.44903539121151">
        <ele>2566.8600000000001</ele>
        <time>2018-07-08T06:51:20Z</time>
      </trkpt>
      <trkpt lat="45.957296993583441" lon="10.449081910774112">
        <ele>2568.3000000000002</ele>
        <time>2018-07-08T06:51:34Z</time>
      </trkpt>
      <trkpt lat="45.957250306382775" lon="10.449110325425863">
        <ele>2569.7399999999998</ele>
        <time>2018-07-08T06:51:44Z</time>
      </trkpt>
      <trkpt lat="45.957204541191459" lon="10.449146954342723">
        <ele>2570.6999999999998</ele>
        <time>2018-07-08T06:51:53Z</time>
      </trkpt>
      <trkpt lat="45.957158608362079" lon="10.449195150285959">
        <ele>2572.1399999999999</ele>
        <time>2018-07-08T06:52:05Z</time>
      </trkpt>
      <trkpt lat="45.957115609198809" lon="10.44924795627594">
        <ele>2572.1399999999999</ele>
        <time>2018-07-08T06:52:14Z</time>
      </trkpt>
      <trkpt lat="45.957068251445889" lon="10.449276035651565">
        <ele>2573.1100000000001</ele>
        <time>2018-07-08T06:52:24Z</time>
      </trkpt>
      <trkpt lat="45.957030197605491" lon="10.449299504980445">
        <ele>2574.5500000000002</ele>
        <time>2018-07-08T06:52:33Z</time>
      </trkpt>
      <trkpt lat="45.957002956420183" lon="10.449329679831862">
        <ele>2575.0300000000002</ele>
        <time>2018-07-08T06:52:40Z</time>
      </trkpt>
      <trkpt lat="45.956933218985796" lon="10.449363710358739">
        <ele>2576.4699999999998</ele>
        <time>2018-07-08T06:52:52Z</time>
      </trkpt>
      <trkpt lat="45.956917209550738" lon="10.449383407831192">
        <ele>2577.9099999999999</ele>
        <time>2018-07-08T06:53:05Z</time>
      </trkpt>
      <trkpt lat="45.95695149153471" lon="10.449440740048885">
        <ele>2577.9099999999999</ele>
        <time>2018-07-08T06:53:14Z</time>
      </trkpt>
      <trkpt lat="45.956990132108331" lon="10.449500167742372">
        <ele>2579.3499999999999</ele>
        <time>2018-07-08T06:53:23Z</time>
      </trkpt>
      <trkpt lat="45.957031287252903" lon="10.449530510231853">
        <ele>2580.8000000000002</ele>
        <time>2018-07-08T06:53:32Z</time>
      </trkpt>
      <trkpt lat="45.957066658884287" lon="10.449602762237191">
        <ele>2581.7600000000002</ele>
        <time>2018-07-08T06:53:42Z</time>
      </trkpt>
      <trkpt lat="45.957125248387456" lon="10.449683982878923">
        <ele>2583.6799999999998</ele>
        <time>2018-07-08T06:53:55Z</time>
      </trkpt>
      <trkpt lat="45.957171935588121" lon="10.44973511248827">
        <ele>2584.1599999999999</ele>
        <time>2018-07-08T06:54:04Z</time>
      </trkpt>
      <trkpt lat="45.957221640273929" lon="10.449789511039853">
        <ele>2585.5999999999999</ele>
        <time>2018-07-08T06:54:13Z</time>
      </trkpt>
      <trkpt lat="45.957262879237533" lon="10.449842317029834">
        <ele>2586.0799999999999</ele>
        <time>2018-07-08T06:54:22Z</time>
      </trkpt>
      <trkpt lat="45.957305207848549" lon="10.449894620105624">
        <ele>2587.04</ele>
        <time>2018-07-08T06:54:33Z</time>
      </trkpt>
      <trkpt lat="45.95736145041883" lon="10.44994474388659">
        <ele>2587.5300000000002</ele>
        <time>2018-07-08T06:54:45Z</time>
      </trkpt>
      <trkpt lat="45.95739564858377" lon="10.449985647574067">
        <ele>2588.0100000000002</ele>
        <time>2018-07-08T06:54:55Z</time>
      </trkpt>
      <trkpt lat="45.957420542836189" lon="10.45002831146121">
        <ele>2588.4899999999998</ele>
        <time>2018-07-08T06:55:04Z</time>
      </trkpt>
      <trkpt lat="45.957446694374084" lon="10.450099557638168">
        <ele>2589.9299999999998</ele>
        <time>2018-07-08T06:55:14Z</time>
      </trkpt>
      <trkpt lat="45.957482736557722" lon="10.450131157413125">
        <ele>2590.8899999999999</ele>
        <time>2018-07-08T06:55:24Z</time>
      </trkpt>
      <trkpt lat="45.957517689093947" lon="10.450165523216128">
        <ele>2592.3299999999999</ele>
        <time>2018-07-08T06:55:35Z</time>
      </trkpt>
      <trkpt lat="45.957559095695615" lon="10.450207097455859">
        <ele>2593.29</ele>
        <time>2018-07-08T06:55:45Z</time>
      </trkpt>
      <trkpt lat="45.957605866715312" lon="10.450240457430482">
        <ele>2594.25</ele>
        <time>2018-07-08T06:55:58Z</time>
      </trkpt>
      <trkpt lat="45.957635706290603" lon="10.450267363339663">
        <ele>2595.2199999999998</ele>
        <time>2018-07-08T06:56:04Z</time>
      </trkpt>
      <trkpt lat="45.957712987437844" lon="10.450313799083233">
        <ele>2596.6599999999999</ele>
        <time>2018-07-08T06:56:16Z</time>
      </trkpt>
      <trkpt lat="45.957764033228159" lon="10.450335592031479">
        <ele>2597.6199999999999</ele>
        <time>2018-07-08T06:56:26Z</time>
      </trkpt>
      <trkpt lat="45.957826981320977" lon="10.450352188199759">
        <ele>2599.0599999999999</ele>
        <time>2018-07-08T06:56:36Z</time>
      </trkpt>
      <trkpt lat="45.957883978262544" lon="10.450376747176051">
        <ele>2599.54</ele>
        <time>2018-07-08T06:56:49Z</time>
      </trkpt>
      <trkpt lat="45.957949524745345" lon="10.450439108535647">
        <ele>2600.5</ele>
        <time>2018-07-08T06:57:00Z</time>
      </trkpt>
      <trkpt lat="45.958016328513622" lon="10.450495183467865">
        <ele>2601.9499999999998</ele>
        <time>2018-07-08T06:57:11Z</time>
      </trkpt>
      <trkpt lat="45.958074331283569" lon="10.450558215379715">
        <ele>2603.3899999999999</ele>
        <time>2018-07-08T06:57:25Z</time>
      </trkpt>
      <trkpt lat="45.958104087039828" lon="10.450585959479213">
        <ele>2603.3899999999999</ele>
        <time>2018-07-08T06:57:34Z</time>
      </trkpt>
      <trkpt lat="45.958068212494254" lon="10.450602639466524">
        <ele>2604.3499999999999</ele>
        <time>2018-07-08T06:57:47Z</time>
      </trkpt>
      <trkpt lat="45.958030745387077" lon="10.450623342767358">
        <ele>2604.8299999999999</ele>
        <time>2018-07-08T06:57:58Z</time>
      </trkpt>
      <trkpt lat="45.957979951053858" lon="10.450632479041815">
        <ele>2606.75</ele>
        <time>2018-07-08T06:58:09Z</time>
      </trkpt>
      <trkpt lat="45.95791800878942" lon="10.450665419921279">
        <ele>2608.6700000000001</ele>
        <time>2018-07-08T06:58:20Z</time>
      </trkpt>
      <trkpt lat="45.957851875573397" lon="10.450694756582379">
        <ele>2610.1199999999999</ele>
        <time>2018-07-08T06:58:32Z</time>
      </trkpt>
      <trkpt lat="45.957781383767724" lon="10.450699785724282">
        <ele>2611.5599999999999</ele>
        <time>2018-07-08T06:58:44Z</time>
      </trkpt>
      <trkpt lat="45.957713657990098" lon="10.45070942491293">
        <ele>2612.52</ele>
        <time>2018-07-08T06:58:54Z</time>
      </trkpt>
      <trkpt lat="45.957634532824159" lon="10.450776563957334">
        <ele>2613.96</ele>
        <time>2018-07-08T06:59:08Z</time>
      </trkpt>
      <trkpt lat="45.957662109285593" lon="10.450757201761007">
        <ele>2614.9200000000001</ele>
        <time>2018-07-08T06:59:13Z</time>
      </trkpt>
      <trkpt lat="45.957695553079247" lon="10.450737085193396">
        <ele>2614.9200000000001</ele>
        <time>2018-07-08T06:59:16Z</time>
      </trkpt>
      <trkpt lat="45.957766799256206" lon="10.450741024687886">
        <ele>2615.8800000000001</ele>
        <time>2018-07-08T06:59:26Z</time>
      </trkpt>
      <trkpt lat="45.957819856703281" lon="10.450749406591058">
        <ele>2616.8499999999999</ele>
        <time>2018-07-08T06:59:37Z</time>
      </trkpt>
      <trkpt lat="45.957878530025482" lon="10.450762901455164">
        <ele>2617.8099999999999</ele>
        <time>2018-07-08T06:59:46Z</time>
      </trkpt>
      <trkpt lat="45.957941394299269" lon="10.450796680524945">
        <ele>2618.77</ele>
        <time>2018-07-08T06:59:57Z</time>
      </trkpt>
      <trkpt lat="45.958001911640167" lon="10.45085116289556">
        <ele>2620.6900000000001</ele>
        <time>2018-07-08T07:00:07Z</time>
      </trkpt>
      <trkpt lat="45.958015657961369" lon="10.4509337246418">
        <ele>2621.1700000000001</ele>
        <time>2018-07-08T07:00:17Z</time>
      </trkpt>
      <trkpt lat="45.958056226372719" lon="10.450939340516925">
        <ele>2621.1700000000001</ele>
        <time>2018-07-08T07:00:30Z</time>
      </trkpt>
      <trkpt lat="45.958109702914953" lon="10.451003545895219">
        <ele>2621.6500000000001</ele>
        <time>2018-07-08T07:00:42Z</time>
      </trkpt>
      <trkpt lat="45.958130406215787" lon="10.45102215372026">
        <ele>2622.6100000000001</ele>
        <time>2018-07-08T07:00:45Z</time>
      </trkpt>
      <trkpt lat="45.958169801160693" lon="10.451092394068837">
        <ele>2623.0900000000001</ele>
        <time>2018-07-08T07:00:52Z</time>
      </trkpt>
      <trkpt lat="45.958235515281558" lon="10.451210159808397">
        <ele>2624.0599999999999</ele>
        <time>2018-07-08T07:01:03Z</time>
      </trkpt>
      <trkpt lat="45.958285136148334" lon="10.451307222247124">
        <ele>2625.02</ele>
        <time>2018-07-08T07:01:13Z</time>
      </trkpt>
      <trkpt lat="45.958320591598749" lon="10.451363380998373">
        <ele>2625.5</ele>
        <time>2018-07-08T07:01:22Z</time>
      </trkpt>
      <trkpt lat="45.958374654874206" lon="10.45145264826715">
        <ele>2625.98</ele>
        <time>2018-07-08T07:01:33Z</time>
      </trkpt>
      <trkpt lat="45.958412121981382" lon="10.451489612460136">
        <ele>2625.5</ele>
        <time>2018-07-08T07:01:42Z</time>
      </trkpt>
      <trkpt lat="45.958450762555003" lon="10.451561193913221">
        <ele>2625.02</ele>
        <time>2018-07-08T07:01:52Z</time>
      </trkpt>
      <trkpt lat="45.958483954891562" lon="10.45160268433392">
        <ele>2625.02</ele>
        <time>2018-07-08T07:02:00Z</time>
      </trkpt>
      <trkpt lat="45.958482529968023" lon="10.451611150056124">
        <ele>2625.5</ele>
        <time>2018-07-08T07:02:15Z</time>
      </trkpt>
      <trkpt lat="45.95850046724081" lon="10.45166571624577">
        <ele>2625.98</ele>
        <time>2018-07-08T07:02:24Z</time>
      </trkpt>
      <trkpt lat="45.958519745618105" lon="10.451694717630744">
        <ele>2625.98</ele>
        <time>2018-07-08T07:02:33Z</time>
      </trkpt>
      <trkpt lat="45.958539359271526" lon="10.45170578174293">
        <ele>2625.5</ele>
        <time>2018-07-08T07:02:44Z</time>
      </trkpt>
      <trkpt lat="45.958542209118605" lon="10.451740818098187">
        <ele>2625.98</ele>
        <time>2018-07-08T07:02:55Z</time>
      </trkpt>
      <trkpt lat="45.958546316251159" lon="10.451775854453444">
        <ele>2625.98</ele>
        <time>2018-07-08T07:03:07Z</time>
      </trkpt>
      <trkpt lat="45.958570288494229" lon="10.45178540982306">
        <ele>2625.5</ele>
        <time>2018-07-08T07:03:19Z</time>
      </trkpt>
      <trkpt lat="45.958591494709253" lon="10.451811561360955">
        <ele>2625.02</ele>
        <time>2018-07-08T07:03:30Z</time>
      </trkpt>
      <trkpt lat="45.95860599540174" lon="10.451849531382322">
        <ele>2625.02</ele>
        <time>2018-07-08T07:03:43Z</time>
      </trkpt>
      <trkpt lat="45.958654610440135" lon="10.451904768124223">
        <ele>2624.0599999999999</ele>
        <time>2018-07-08T07:03:56Z</time>
      </trkpt>
      <trkpt lat="45.958708254620433" lon="10.451961094513535">
        <ele>2624.54</ele>
        <time>2018-07-08T07:04:08Z</time>
      </trkpt>
      <trkpt lat="45.958754690364003" lon="10.452015995979309">
        <ele>2625.5</ele>
        <time>2018-07-08T07:04:20Z</time>
      </trkpt>
      <trkpt lat="45.95876969397068" lon="10.452007865533233">
        <ele>2625.98</ele>
        <time>2018-07-08T07:04:31Z</time>
      </trkpt>
      <trkpt lat="45.958803221583366" lon="10.45199453830719">
        <ele>2625.98</ele>
        <time>2018-07-08T07:04:44Z</time>
      </trkpt>
      <trkpt lat="45.958799868822098" lon="10.452008536085486">
        <ele>2626.46</ele>
        <time>2018-07-08T07:04:56Z</time>
      </trkpt>
      <trkpt lat="45.958842951804399" lon="10.452017085626721">
        <ele>2626.9400000000001</ele>
        <time>2018-07-08T07:05:09Z</time>
      </trkpt>
      <trkpt lat="45.958910342305899" lon="10.452037453651428">
        <ele>2628.8600000000001</ele>
        <time>2018-07-08T07:05:19Z</time>
      </trkpt>
      <trkpt lat="45.958962058648467" lon="10.452050613239408">
        <ele>2629.8200000000002</ele>
        <time>2018-07-08T07:05:26Z</time>
      </trkpt>
      <trkpt lat="45.959023917093873" lon="10.45208053663373">
        <ele>2630.79</ele>
        <time>2018-07-08T07:05:36Z</time>
      </trkpt>
      <trkpt lat="45.959068005904555" lon="10.452102832496166">
        <ele>2631.75</ele>
        <time>2018-07-08T07:05:46Z</time>
      </trkpt>
      <trkpt lat="45.959105053916574" lon="10.452111968770623">
        <ele>2632.71</ele>
        <time>2018-07-08T07:05:52Z</time>
      </trkpt>
      <trkpt lat="45.959154423326254" lon="10.452128062024713">
        <ele>2633.6700000000001</ele>
        <time>2018-07-08T07:06:01Z</time>
      </trkpt>
      <trkpt lat="45.959185436367989" lon="10.452147256582975">
        <ele>2634.1500000000001</ele>
        <time>2018-07-08T07:06:09Z</time>
      </trkpt>
      <trkpt lat="45.959217119961977" lon="10.452184053137898">
        <ele>2635.5900000000001</ele>
        <time>2018-07-08T07:06:19Z</time>
      </trkpt>
      <trkpt lat="45.959239415824413" lon="10.452241469174623">
        <ele>2636.5500000000002</ele>
        <time>2018-07-08T07:06:29Z</time>
      </trkpt>
      <trkpt lat="45.959279229864478" lon="10.452205007895827">
        <ele>2637.0300000000002</ele>
        <time>2018-07-08T07:06:39Z</time>
      </trkpt>
      <trkpt lat="45.959317116066813" lon="10.452231327071786">
        <ele>2637.5100000000002</ele>
        <time>2018-07-08T07:06:47Z</time>
      </trkpt>
      <trkpt lat="45.959297921508551" lon="10.452251862734556">
        <ele>2638.96</ele>
        <time>2018-07-08T07:07:01Z</time>
      </trkpt>
      <trkpt lat="45.959299933165312" lon="10.452252365648746">
        <ele>2638.48</ele>
        <time>2018-07-08T07:07:19Z</time>
      </trkpt>
      <trkpt lat="45.959303369745612" lon="10.452251527458429">
        <ele>2638.96</ele>
        <time>2018-07-08T07:07:31Z</time>
      </trkpt>
      <trkpt lat="45.959302196279168" lon="10.452296370640397">
        <ele>2638.48</ele>
        <time>2018-07-08T07:07:49Z</time>
      </trkpt>
      <trkpt lat="45.95935164950788" lon="10.452272985130548">
        <ele>2639.9200000000001</ele>
        <time>2018-07-08T07:08:02Z</time>
      </trkpt>
      <trkpt lat="45.959363216534257" lon="10.452254712581635">
        <ele>2639.9200000000001</ele>
        <time>2018-07-08T07:08:12Z</time>
      </trkpt>
      <trkpt lat="45.959395403042436" lon="10.452245827764273">
        <ele>2639.4400000000001</ele>
        <time>2018-07-08T07:08:23Z</time>
      </trkpt>
      <trkpt lat="45.959392888471484" lon="10.452240128070116">
        <ele>2639.4400000000001</ele>
        <time>2018-07-08T07:08:27Z</time>
      </trkpt>
      <trkpt lat="45.959430020302534" lon="10.452231327071786">
        <ele>2639.4400000000001</ele>
        <time>2018-07-08T07:08:35Z</time>
      </trkpt>
      <trkpt lat="45.95947964116931" lon="10.452242642641068">
        <ele>2638.96</ele>
        <time>2018-07-08T07:08:44Z</time>
      </trkpt>
      <trkpt lat="45.959499841555953" lon="10.45224130153656">
        <ele>2638.48</ele>
        <time>2018-07-08T07:08:48Z</time>
      </trkpt>
      <trkpt lat="45.959516353905201" lon="10.452230740338564">
        <ele>2638.48</ele>
        <time>2018-07-08T07:08:50Z</time>
      </trkpt>
      <trkpt lat="45.95957494340837" lon="10.452217329293489">
        <ele>2638.48</ele>
        <time>2018-07-08T07:09:00Z</time>
      </trkpt>
      <trkpt lat="45.959587600082159" lon="10.452231494709849">
        <ele>2638.48</ele>
        <time>2018-07-08T07:09:12Z</time>
      </trkpt>
      <trkpt lat="45.959590282291174" lon="10.45222420245409">
        <ele>2638.48</ele>
        <time>2018-07-08T07:09:24Z</time>
      </trkpt>
      <trkpt lat="45.959611991420388" lon="10.452254209667444">
        <ele>2638.96</ele>
        <time>2018-07-08T07:09:32Z</time>
      </trkpt>
      <trkpt lat="45.959649626165628" lon="10.452247420325875">
        <ele>2638.48</ele>
        <time>2018-07-08T07:09:39Z</time>
      </trkpt>
      <trkpt lat="45.959685333073139" lon="10.452195201069117">
        <ele>2638.96</ele>
        <time>2018-07-08T07:09:48Z</time>
      </trkpt>
      <trkpt lat="45.959686925634742" lon="10.452187824994326">
        <ele>2638.96</ele>
        <time>2018-07-08T07:09:49Z</time>
      </trkpt>
      <trkpt lat="45.959730846807361" lon="10.452090762555599">
        <ele>2638.96</ele>
        <time>2018-07-08T07:10:01Z</time>
      </trkpt>
      <trkpt lat="45.959748700261116" lon="10.452057821676135">
        <ele>2640.4000000000001</ele>
        <time>2018-07-08T07:10:06Z</time>
      </trkpt>
      <trkpt lat="45.959761189296842" lon="10.452042398974299">
        <ele>2640.8800000000001</ele>
        <time>2018-07-08T07:10:08Z</time>
      </trkpt>
      <trkpt lat="45.959812738001347" lon="10.452032089233398">
        <ele>2641.8400000000001</ele>
        <time>2018-07-08T07:10:14Z</time>
      </trkpt>
      <trkpt lat="45.959834363311529" lon="10.452083386480808">
        <ele>2641.8400000000001</ele>
        <time>2018-07-08T07:10:25Z</time>
      </trkpt>
      <trkpt lat="45.959845427423716" lon="10.452103754505515">
        <ele>2641.3600000000001</ele>
        <time>2018-07-08T07:10:34Z</time>
      </trkpt>
      <trkpt lat="45.959828579798341" lon="10.452122027054429">
        <ele>2641.8400000000001</ele>
        <time>2018-07-08T07:10:48Z</time>
      </trkpt>
      <trkpt lat="45.959816258400679" lon="10.452116578817368">
        <ele>2641.8400000000001</ele>
        <time>2018-07-08T07:11:04Z</time>
      </trkpt>
      <trkpt lat="45.959830591455102" lon="10.452154045924544">
        <ele>2640.8800000000001</ele>
        <time>2018-07-08T07:11:30Z</time>
      </trkpt>
      <trkpt lat="45.959817515686154" lon="10.452162008732557">
        <ele>2641.3600000000001</ele>
        <time>2018-07-08T07:11:50Z</time>
      </trkpt>
      <trkpt lat="45.959799746051431" lon="10.452129654586315">
        <ele>2641.3600000000001</ele>
        <time>2018-07-08T07:11:57Z</time>
      </trkpt>
      <trkpt lat="45.959823969751596" lon="10.45201750472188">
        <ele>2642.3200000000002</ele>
        <time>2018-07-08T07:12:07Z</time>
      </trkpt>
      <trkpt lat="45.959897981956601" lon="10.452053043991327">
        <ele>2644.2399999999998</ele>
        <time>2018-07-08T07:12:18Z</time>
      </trkpt>
      <trkpt lat="45.959892701357603" lon="10.452059414237738">
        <ele>2643.2800000000002</ele>
        <time>2018-07-08T07:12:24Z</time>
      </trkpt>
      <trkpt lat="45.959878116846085" lon="10.45206100679934">
        <ele>2642.8000000000002</ele>
        <time>2018-07-08T07:12:52Z</time>
      </trkpt>
      <trkpt lat="45.959869315847754" lon="10.45206343755126">
        <ele>2643.2800000000002</ele>
        <time>2018-07-08T07:13:08Z</time>
      </trkpt>
      <trkpt lat="45.959862694144249" lon="10.452067544683814">
        <ele>2642.3200000000002</ele>
        <time>2018-07-08T07:13:21Z</time>
      </trkpt>
      <trkpt lat="45.959876105189323" lon="10.452036447823048">
        <ele>2643.2800000000002</ele>
        <time>2018-07-08T07:13:40Z</time>
      </trkpt>
      <trkpt lat="45.959898987784982" lon="10.452021444216371">
        <ele>2643.7600000000002</ele>
        <time>2018-07-08T07:13:59Z</time>
      </trkpt>
      <trkpt lat="45.95991063863039" lon="10.452031753957272">
        <ele>2643.7600000000002</ele>
        <time>2018-07-08T07:14:25Z</time>
      </trkpt>
      <trkpt lat="45.959920864552259" lon="10.452030161395669">
        <ele>2644.2399999999998</ele>
        <time>2018-07-08T07:14:46Z</time>
      </trkpt>
      <trkpt lat="45.959922624751925" lon="10.452013732865453">
        <ele>2643.7600000000002</ele>
        <time>2018-07-08T07:15:13Z</time>
      </trkpt>
      <trkpt lat="45.959926228970289" lon="10.452025216072798">
        <ele>2643.7600000000002</ele>
        <time>2018-07-08T07:15:42Z</time>
      </trkpt>
      <trkpt lat="45.959919271990657" lon="10.452039381489158">
        <ele>2643.7600000000002</ele>
        <time>2018-07-08T07:16:01Z</time>
      </trkpt>
      <trkpt lat="45.959913823753595" lon="10.452027395367622">
        <ele>2643.7600000000002</ele>
        <time>2018-07-08T07:16:22Z</time>
      </trkpt>
      <trkpt lat="45.959914661943913" lon="10.452031586319208">
        <ele>2643.2800000000002</ele>
        <time>2018-07-08T07:16:48Z</time>
      </trkpt>
      <trkpt lat="45.959911393001676" lon="10.452045165002346">
        <ele>2643.7600000000002</ele>
        <time>2018-07-08T07:17:11Z</time>
      </trkpt>
      <trkpt lat="45.959915919229388" lon="10.452042818069458">
        <ele>2643.7600000000002</ele>
        <time>2018-07-08T07:17:36Z</time>
      </trkpt>
      <trkpt lat="45.959914494305849" lon="10.452023539692163">
        <ele>2644.2399999999998</ele>
        <time>2018-07-08T07:18:02Z</time>
      </trkpt>
      <trkpt lat="45.959927402436733" lon="10.452017756178975">
        <ele>2643.7600000000002</ele>
        <time>2018-07-08T07:18:36Z</time>
      </trkpt>
      <trkpt lat="45.959909884259105" lon="10.452027479186654">
        <ele>2643.7600000000002</ele>
        <time>2018-07-08T07:19:06Z</time>
      </trkpt>
      <trkpt lat="45.959931006655097" lon="10.452026054263115">
        <ele>2644.2399999999998</ele>
        <time>2018-07-08T07:19:36Z</time>
      </trkpt>
      <trkpt lat="45.959905106574297" lon="10.452057151123881">
        <ele>2644.2399999999998</ele>
        <time>2018-07-08T07:20:02Z</time>
      </trkpt>
      <trkpt lat="45.959909800440073" lon="10.452039130032063">
        <ele>2644.2399999999998</ele>
        <time>2018-07-08T07:20:28Z</time>
      </trkpt>
      <trkpt lat="45.959909381344914" lon="10.452039297670126">
        <ele>2644.2399999999998</ele>
        <time>2018-07-08T07:20:53Z</time>
      </trkpt>
      <trkpt lat="45.959910973906517" lon="10.452028987929225">
        <ele>2643.7600000000002</ele>
        <time>2018-07-08T07:21:24Z</time>
      </trkpt>
      <trkpt lat="45.959914829581976" lon="10.452025886625051">
        <ele>2643.7600000000002</ele>
        <time>2018-07-08T07:21:51Z</time>
      </trkpt>
      <trkpt lat="45.95990527421236" lon="10.452020773664117">
        <ele>2643.2800000000002</ele>
        <time>2018-07-08T07:22:23Z</time>
      </trkpt>
      <trkpt lat="45.959911225363612" lon="10.452038291841745">
        <ele>2643.7600000000002</ele>
        <time>2018-07-08T07:22:49Z</time>
      </trkpt>
      <trkpt lat="45.95991843380034" lon="10.452035525813699">
        <ele>2643.7600000000002</ele>
        <time>2018-07-08T07:23:12Z</time>
      </trkpt>
      <trkpt lat="45.959911728277802" lon="10.452019097283483">
        <ele>2643.7600000000002</ele>
        <time>2018-07-08T07:23:37Z</time>
      </trkpt>
      <trkpt lat="45.959929330274463" lon="10.45204290188849">
        <ele>2643.2800000000002</ele>
        <time>2018-07-08T07:24:00Z</time>
      </trkpt>
      <trkpt lat="45.959944585338235" lon="10.452041141688824">
        <ele>2643.7600000000002</ele>
        <time>2018-07-08T07:24:24Z</time>
      </trkpt>
      <trkpt lat="45.959931425750256" lon="10.452020606026053">
        <ele>2643.7600000000002</ele>
        <time>2018-07-08T07:24:47Z</time>
      </trkpt>
      <trkpt lat="45.959926145151258" lon="10.452004680410028">
        <ele>2643.7600000000002</ele>
        <time>2018-07-08T07:25:04Z</time>
      </trkpt>
      <trkpt lat="45.959937041625381" lon="10.452027730643749">
        <ele>2643.2800000000002</ele>
        <time>2018-07-08T07:25:28Z</time>
      </trkpt>
      <trkpt lat="45.959929581731558" lon="10.452029993757606">
        <ele>2643.2800000000002</ele>
        <time>2018-07-08T07:25:54Z</time>
      </trkpt>
      <trkpt lat="45.959917595610023" lon="10.45202923938632">
        <ele>2643.7600000000002</ele>
        <time>2018-07-08T07:26:22Z</time>
      </trkpt>
      <trkpt lat="45.959921199828386" lon="10.452034771442413">
        <ele>2643.7600000000002</ele>
        <time>2018-07-08T07:26:49Z</time>
      </trkpt>
      <trkpt lat="45.959917763248086" lon="10.452008871361613">
        <ele>2643.7600000000002</ele>
        <time>2018-07-08T07:27:18Z</time>
      </trkpt>
      <trkpt lat="45.959923630580306" lon="10.452028652653098">
        <ele>2644.2399999999998</ele>
        <time>2018-07-08T07:27:37Z</time>
      </trkpt>
      <trkpt lat="45.959910973906517" lon="10.452036866918206">
        <ele>2645.21</ele>
        <time>2018-07-08T07:27:46Z</time>
      </trkpt>
      <trkpt lat="45.959908291697502" lon="10.452052541077137">
        <ele>2645.6900000000001</ele>
        <time>2018-07-08T07:27:59Z</time>
      </trkpt>
      <trkpt lat="45.959907621145248" lon="10.452057151123881">
        <ele>2645.6900000000001</ele>
        <time>2018-07-08T07:28:13Z</time>
      </trkpt>
      <trkpt lat="45.959895383566618" lon="10.452060587704182">
        <ele>2645.6900000000001</ele>
        <time>2018-07-08T07:28:27Z</time>
      </trkpt>
      <trkpt lat="45.959899825975299" lon="10.452073579654098">
        <ele>2644.7199999999998</ele>
        <time>2018-07-08T07:28:45Z</time>
      </trkpt>
      <trkpt lat="45.959858167916536" lon="10.452028149738908">
        <ele>2644.2399999999998</ele>
        <time>2018-07-08T07:28:54Z</time>
      </trkpt>
      <trkpt lat="45.95981290563941" lon="10.451962938532233">
        <ele>2642.3200000000002</ele>
        <time>2018-07-08T07:29:05Z</time>
      </trkpt>
      <trkpt lat="45.959798907861114" lon="10.451883897185326">
        <ele>2641.8400000000001</ele>
        <time>2018-07-08T07:29:14Z</time>
      </trkpt>
      <trkpt lat="45.959845343604684" lon="10.451807538047433">
        <ele>2641.8400000000001</ele>
        <time>2018-07-08T07:29:24Z</time>
      </trkpt>
      <trkpt lat="45.959898820146918" lon="10.451751127839088">
        <ele>2642.8000000000002</ele>
        <time>2018-07-08T07:29:35Z</time>
      </trkpt>
      <trkpt lat="45.959951877593994" lon="10.451670242473483">
        <ele>2643.2800000000002</ele>
        <time>2018-07-08T07:29:46Z</time>
      </trkpt>
      <trkpt lat="45.96000543795526" lon="10.45160704292357">
        <ele>2643.7600000000002</ele>
        <time>2018-07-08T07:29:54Z</time>
      </trkpt>
      <trkpt lat="45.96009336411953" lon="10.451577203348279">
        <ele>2643.7600000000002</ele>
        <time>2018-07-08T07:30:06Z</time>
      </trkpt>
      <trkpt lat="45.960099650546908" lon="10.451613832265139">
        <ele>2643.7600000000002</ele>
        <time>2018-07-08T07:30:17Z</time>
      </trkpt>
      <trkpt lat="45.960082300007343" lon="10.451604276895523">
        <ele>2643.7600000000002</ele>
        <time>2018-07-08T07:30:19Z</time>
      </trkpt>
      <trkpt lat="45.960099566727877" lon="10.451459689065814">
        <ele>2642.3200000000002</ele>
        <time>2018-07-08T07:30:29Z</time>
      </trkpt>
      <trkpt lat="45.960109289735556" lon="10.451417025178671">
        <ele>2642.3200000000002</ele>
        <time>2018-07-08T07:30:32Z</time>
      </trkpt>
      <trkpt lat="45.960173327475786" lon="10.451363045722246">
        <ele>2642.3200000000002</ele>
        <time>2018-07-08T07:30:40Z</time>
      </trkpt>
      <trkpt lat="45.960232755169272" lon="10.451329434290528">
        <ele>2642.3200000000002</ele>
        <time>2018-07-08T07:30:48Z</time>
      </trkpt>
      <trkpt lat="45.960314646363258" lon="10.451380982995033">
        <ele>2640.8800000000001</ele>
        <time>2018-07-08T07:30:59Z</time>
      </trkpt>
      <trkpt lat="45.960381533950567" lon="10.451426915824413">
        <ele>2639.9200000000001</ele>
        <time>2018-07-08T07:31:10Z</time>
      </trkpt>
      <trkpt lat="45.960429813712835" lon="10.451469998806715">
        <ele>2641.3600000000001</ele>
        <time>2018-07-08T07:31:21Z</time>
      </trkpt>
      <trkpt lat="45.960484547540545" lon="10.45150394551456">
        <ele>2642.3200000000002</ele>
        <time>2018-07-08T07:31:31Z</time>
      </trkpt>
      <trkpt lat="45.960479769855738" lon="10.451617101207376">
        <ele>2643.2800000000002</ele>
        <time>2018-07-08T07:31:42Z</time>
      </trkpt>
      <trkpt lat="45.960474740713835" lon="10.451727826148272">
        <ele>2643.7600000000002</ele>
        <time>2018-07-08T07:31:55Z</time>
      </trkpt>
      <trkpt lat="45.960513465106487" lon="10.451797815039754">
        <ele>2641.8400000000001</ele>
        <time>2018-07-08T07:32:06Z</time>
      </trkpt>
      <trkpt lat="45.960571216419339" lon="10.451830001547933">
        <ele>2640.4000000000001</ele>
        <time>2018-07-08T07:32:16Z</time>
      </trkpt>
      <trkpt lat="45.960619328543544" lon="10.451911557465792">
        <ele>2639.9200000000001</ele>
        <time>2018-07-08T07:32:26Z</time>
      </trkpt>
      <trkpt lat="45.960654951632023" lon="10.451934188604355">
        <ele>2640.4000000000001</ele>
        <time>2018-07-08T07:32:36Z</time>
      </trkpt>
      <trkpt lat="45.960674313828349" lon="10.451951706781983">
        <ele>2640.4000000000001</ele>
        <time>2018-07-08T07:32:39Z</time>
      </trkpt>
      <trkpt lat="45.960689317435026" lon="10.45197743922472">
        <ele>2639.9200000000001</ele>
        <time>2018-07-08T07:32:41Z</time>
      </trkpt>
      <trkpt lat="45.960740530863404" lon="10.452036866918206">
        <ele>2640.4000000000001</ele>
        <time>2018-07-08T07:32:51Z</time>
      </trkpt>
      <trkpt lat="45.960789062082767" lon="10.452110962942243">
        <ele>2640.4000000000001</ele>
        <time>2018-07-08T07:33:02Z</time>
      </trkpt>
      <trkpt lat="45.960831558331847" lon="10.452165529131889">
        <ele>2639.4400000000001</ele>
        <time>2018-07-08T07:33:13Z</time>
      </trkpt>
      <trkpt lat="45.960854860022664" lon="10.452169049531221">
        <ele>2640.4000000000001</ele>
        <time>2018-07-08T07:33:23Z</time>
      </trkpt>
      <trkpt lat="45.960895428434014" lon="10.452171647921205">
        <ele>2642.3200000000002</ele>
        <time>2018-07-08T07:33:36Z</time>
      </trkpt>
      <trkpt lat="45.960926944389939" lon="10.452219005674124">
        <ele>2642.3200000000002</ele>
        <time>2018-07-08T07:33:44Z</time>
      </trkpt>
      <trkpt lat="45.960912527516484" lon="10.452225795015693">
        <ele>2641.8400000000001</ele>
        <time>2018-07-08T07:33:52Z</time>
      </trkpt>
      <trkpt lat="45.960904816165566" lon="10.452239289879799">
        <ele>2641.8400000000001</ele>
        <time>2018-07-08T07:34:07Z</time>
      </trkpt>
      <trkpt lat="45.960990227758884" lon="10.452245408669114">
        <ele>2642.8000000000002</ele>
        <time>2018-07-08T07:34:17Z</time>
      </trkpt>
      <trkpt lat="45.961029371246696" lon="10.452223950996995">
        <ele>2641.8400000000001</ele>
        <time>2018-07-08T07:34:27Z</time>
      </trkpt>
      <trkpt lat="45.961070442572236" lon="10.452182879671454">
        <ele>2641.8400000000001</ele>
        <time>2018-07-08T07:34:39Z</time>
      </trkpt>
      <trkpt lat="45.961086787283421" lon="10.452182041481137">
        <ele>2641.8400000000001</ele>
        <time>2018-07-08T07:34:41Z</time>
      </trkpt>
      <trkpt lat="45.961170522496104" lon="10.452196877449751">
        <ele>2641.8400000000001</ele>
        <time>2018-07-08T07:34:51Z</time>
      </trkpt>
      <trkpt lat="45.961242606863379" lon="10.452223280444741">
        <ele>2642.8000000000002</ele>
        <time>2018-07-08T07:35:02Z</time>
      </trkpt>
      <trkpt lat="45.961219137534499" lon="10.452317157760262">
        <ele>2643.2800000000002</ele>
        <time>2018-07-08T07:35:11Z</time>
      </trkpt>
      <trkpt lat="45.961253335699439" lon="10.452331658452749">
        <ele>2643.7600000000002</ele>
        <time>2018-07-08T07:35:22Z</time>
      </trkpt>
      <trkpt lat="45.961272278800607" lon="10.452373819425702">
        <ele>2643.7600000000002</ele>
        <time>2018-07-08T07:35:33Z</time>
      </trkpt>
      <trkpt lat="45.961287282407284" lon="10.452330484986305">
        <ele>2645.21</ele>
        <time>2018-07-08T07:35:43Z</time>
      </trkpt>
      <trkpt lat="45.96131443977356" lon="10.452357139438391">
        <ele>2645.21</ele>
        <time>2018-07-08T07:35:54Z</time>
      </trkpt>
      <trkpt lat="45.961361043155193" lon="10.452400054782629">
        <ele>2646.6500000000001</ele>
        <time>2018-07-08T07:36:04Z</time>
      </trkpt>
      <trkpt lat="45.961419967934489" lon="10.452409442514181">
        <ele>2647.1300000000001</ele>
        <time>2018-07-08T07:36:14Z</time>
      </trkpt>
      <trkpt lat="45.9614297747612" lon="10.452434672042727">
        <ele>2648.5700000000002</ele>
        <time>2018-07-08T07:36:26Z</time>
      </trkpt>
      <trkpt lat="45.961436899378896" lon="10.452423440292478">
        <ele>2648.0900000000001</ele>
        <time>2018-07-08T07:36:41Z</time>
      </trkpt>
      <trkpt lat="45.961442934349179" lon="10.452414304018021">
        <ele>2647.6100000000001</ele>
        <time>2018-07-08T07:36:56Z</time>
      </trkpt>
      <trkpt lat="45.961440755054355" lon="10.452416650950909">
        <ele>2647.6100000000001</ele>
        <time>2018-07-08T07:37:10Z</time>
      </trkpt>
      <trkpt lat="45.961519377306104" lon="10.452401731163263">
        <ele>2648.5700000000002</ele>
        <time>2018-07-08T07:37:22Z</time>
      </trkpt>
      <trkpt lat="45.961523652076721" lon="10.452501224353909">
        <ele>2650.0100000000002</ele>
        <time>2018-07-08T07:37:31Z</time>
      </trkpt>
      <trkpt lat="45.961521388962865" lon="10.452523017302155">
        <ele>2650.0100000000002</ele>
        <time>2018-07-08T07:37:34Z</time>
      </trkpt>
      <trkpt lat="45.961536560207605" lon="10.452659307047725">
        <ele>2650.0100000000002</ele>
        <time>2018-07-08T07:37:45Z</time>
      </trkpt>
      <trkpt lat="45.961523484438658" lon="10.452763075008988">
        <ele>2650.0100000000002</ele>
        <time>2018-07-08T07:37:55Z</time>
      </trkpt>
      <trkpt lat="45.96153236925602" lon="10.452785370871425">
        <ele>2649.5300000000002</ele>
        <time>2018-07-08T07:37:58Z</time>
      </trkpt>
      <trkpt lat="45.96156220883131" lon="10.452895006164908">
        <ele>2649.0500000000002</ele>
        <time>2018-07-08T07:38:07Z</time>
      </trkpt>
      <trkpt lat="45.961594982072711" lon="10.452908501029015">
        <ele>2650.4899999999998</ele>
        <time>2018-07-08T07:38:12Z</time>
      </trkpt>
      <trkpt lat="45.961621636524796" lon="10.452934568747878">
        <ele>2650.4899999999998</ele>
        <time>2018-07-08T07:38:16Z</time>
      </trkpt>
      <trkpt lat="45.961691709235311" lon="10.453010592609644">
        <ele>2650.4899999999998</ele>
        <time>2018-07-08T07:38:28Z</time>
      </trkpt>
      <trkpt lat="45.961725823581219" lon="10.453025596216321">
        <ele>2651.4499999999998</ele>
        <time>2018-07-08T07:38:38Z</time>
      </trkpt>
      <trkpt lat="45.961784077808261" lon="10.453027859330177">
        <ele>2652.9000000000001</ele>
        <time>2018-07-08T07:38:51Z</time>
      </trkpt>
      <trkpt lat="45.96184317022562" lon="10.453021321445704">
        <ele>2655.3000000000002</ele>
        <time>2018-07-08T07:39:02Z</time>
      </trkpt>
      <trkpt lat="45.961904190480709" lon="10.45301771722734">
        <ele>2655.7800000000002</ele>
        <time>2018-07-08T07:39:11Z</time>
      </trkpt>
      <trkpt lat="45.961966551840305" lon="10.453009502962232">
        <ele>2657.2199999999998</ele>
        <time>2018-07-08T07:39:22Z</time>
      </trkpt>
      <trkpt lat="45.962015502154827" lon="10.453027272596955">
        <ele>2658.6599999999999</ele>
        <time>2018-07-08T07:39:34Z</time>
      </trkpt>
      <trkpt lat="45.96205280162394" lon="10.453061806038022">
        <ele>2659.1399999999999</ele>
        <time>2018-07-08T07:39:44Z</time>
      </trkpt>
      <trkpt lat="45.962077612057328" lon="10.453111175447702">
        <ele>2660.5900000000001</ele>
        <time>2018-07-08T07:39:54Z</time>
      </trkpt>
      <trkpt lat="45.962108708918095" lon="10.453092316165566">
        <ele>2662.0300000000002</ele>
        <time>2018-07-08T07:40:04Z</time>
      </trkpt>
      <trkpt lat="45.962155144661665" lon="10.453128274530172">
        <ele>2663.9499999999998</ele>
        <time>2018-07-08T07:40:16Z</time>
      </trkpt>
      <trkpt lat="45.962207112461329" lon="10.453145205974579">
        <ele>2663.9499999999998</ele>
        <time>2018-07-08T07:40:25Z</time>
      </trkpt>
      <trkpt lat="45.962263103574514" lon="10.453156689181924">
        <ele>2664.9099999999999</ele>
        <time>2018-07-08T07:40:34Z</time>
      </trkpt>
      <trkpt lat="45.962363770231605" lon="10.453156605362892">
        <ele>2664.9099999999999</ele>
        <time>2018-07-08T07:40:46Z</time>
      </trkpt>
      <trkpt lat="45.962414983659983" lon="10.453193569555879">
        <ele>2664.9099999999999</ele>
        <time>2018-07-08T07:40:55Z</time>
      </trkpt>
      <trkpt lat="45.962508106604218" lon="10.453194240108132">
        <ele>2663.4699999999998</ele>
        <time>2018-07-08T07:41:06Z</time>
      </trkpt>
      <trkpt lat="45.962593769654632" lon="10.45322097837925">
        <ele>2663.9499999999998</ele>
        <time>2018-07-08T07:41:19Z</time>
      </trkpt>
      <trkpt lat="45.962633918970823" lon="10.453221732750535">
        <ele>2664.9099999999999</ele>
        <time>2018-07-08T07:41:29Z</time>
      </trkpt>
      <trkpt lat="45.962653113529086" lon="10.453184684738517">
        <ele>2665.8699999999999</ele>
        <time>2018-07-08T07:41:40Z</time>
      </trkpt>
      <trkpt lat="45.962706338614225" lon="10.453159706667066">
        <ele>2667.8000000000002</ele>
        <time>2018-07-08T07:41:50Z</time>
      </trkpt>
      <trkpt lat="45.962748751044273" lon="10.453141266480088">
        <ele>2669.2399999999998</ele>
        <time>2018-07-08T07:42:02Z</time>
      </trkpt>
      <trkpt lat="45.962768448516726" lon="10.453121736645699">
        <ele>2670.1999999999998</ele>
        <time>2018-07-08T07:42:10Z</time>
      </trkpt>
      <trkpt lat="45.962847406044602" lon="10.453110840171576">
        <ele>2672.1199999999999</ele>
        <time>2018-07-08T07:42:22Z</time>
      </trkpt>
      <trkpt lat="45.962874228134751" lon="10.453165573999286">
        <ele>2671.6399999999999</ele>
        <time>2018-07-08T07:42:33Z</time>
      </trkpt>
      <trkpt lat="45.962949497625232" lon="10.453174961730838">
        <ele>2671.1599999999999</ele>
        <time>2018-07-08T07:42:44Z</time>
      </trkpt>
      <trkpt lat="45.962981516495347" lon="10.453211925923824">
        <ele>2672.5999999999999</ele>
        <time>2018-07-08T07:42:53Z</time>
      </trkpt>
      <trkpt lat="45.962976235896349" lon="10.453229863196611">
        <ele>2672.1199999999999</ele>
        <time>2018-07-08T07:43:03Z</time>
      </trkpt>
      <trkpt lat="45.962964668869972" lon="10.453220726922154">
        <ele>2672.5999999999999</ele>
        <time>2018-07-08T07:43:12Z</time>
      </trkpt>
      <trkpt lat="45.962922172620893" lon="10.453225085511804">
        <ele>2671.6399999999999</ele>
        <time>2018-07-08T07:43:21Z</time>
      </trkpt>
      <trkpt lat="45.962867103517056" lon="10.45325081795454">
        <ele>2669.7199999999998</ele>
        <time>2018-07-08T07:43:32Z</time>
      </trkpt>
      <trkpt lat="45.962854782119393" lon="10.453288871794939">
        <ele>2667.8000000000002</ele>
        <time>2018-07-08T07:43:40Z</time>
      </trkpt>
      <trkpt lat="45.9628682769835" lon="10.45334561727941">
        <ele>2666.3499999999999</ele>
        <time>2018-07-08T07:43:47Z</time>
      </trkpt>
      <trkpt lat="45.962877832353115" lon="10.453484505414963">
        <ele>2665.8699999999999</ele>
        <time>2018-07-08T07:43:59Z</time>
      </trkpt>
      <trkpt lat="45.962844640016556" lon="10.453542927280068">
        <ele>2664.4299999999998</ele>
        <time>2018-07-08T07:44:08Z</time>
      </trkpt>
      <trkpt lat="45.962832570075989" lon="10.453641079366207">
        <ele>2663.9499999999998</ele>
        <time>2018-07-08T07:44:18Z</time>
      </trkpt>
      <trkpt lat="45.962823517620564" lon="10.453692963346839">
        <ele>2662.9899999999998</ele>
        <time>2018-07-08T07:44:28Z</time>
      </trkpt>
      <trkpt lat="45.962834749370813" lon="10.453738393262029">
        <ele>2662.5100000000002</ele>
        <time>2018-07-08T07:44:40Z</time>
      </trkpt>
      <trkpt lat="45.962923849001527" lon="10.45378047041595">
        <ele>2662.5100000000002</ele>
        <time>2018-07-08T07:44:51Z</time>
      </trkpt>
      <trkpt lat="45.962942456826568" lon="10.453849453479052">
        <ele>2660.5900000000001</ele>
        <time>2018-07-08T07:45:02Z</time>
      </trkpt>
      <trkpt lat="45.963029712438583" lon="10.453927153721452">
        <ele>2660.1100000000001</ele>
        <time>2018-07-08T07:45:15Z</time>
      </trkpt>
      <trkpt lat="45.963068772107363" lon="10.454009380191565">
        <ele>2658.6599999999999</ele>
        <time>2018-07-08T07:45:26Z</time>
      </trkpt>
      <trkpt lat="45.963099868968129" lon="10.454095127061009">
        <ele>2657.6999999999998</ele>
        <time>2018-07-08T07:45:35Z</time>
      </trkpt>
      <trkpt lat="45.963139683008194" lon="10.454178778454661">
        <ele>2656.7399999999998</ele>
        <time>2018-07-08T07:45:44Z</time>
      </trkpt>
      <trkpt lat="45.963123086839914" lon="10.454242648556828">
        <ele>2656.7399999999998</ele>
        <time>2018-07-08T07:45:55Z</time>
      </trkpt>
      <trkpt lat="45.963171534240246" lon="10.454276176169515">
        <ele>2657.2199999999998</ele>
        <time>2018-07-08T07:46:01Z</time>
      </trkpt>
      <trkpt lat="45.963189052417874" lon="10.454287743195891">
        <ele>2657.2199999999998</ele>
        <time>2018-07-08T07:46:03Z</time>
      </trkpt>
      <trkpt lat="45.96322987228632" lon="10.454310709610581">
        <ele>2657.6999999999998</ele>
        <time>2018-07-08T07:46:07Z</time>
      </trkpt>
      <trkpt lat="45.963297095149755" lon="10.454401066526771">
        <ele>2656.7399999999998</ele>
        <time>2018-07-08T07:46:18Z</time>
      </trkpt>
      <trkpt lat="45.96330706961453" lon="10.45447189360857">
        <ele>2655.3000000000002</ele>
        <time>2018-07-08T07:46:27Z</time>
      </trkpt>
      <trkpt lat="45.963304806500673" lon="10.454511791467667">
        <ele>2655.3000000000002</ele>
        <time>2018-07-08T07:46:41Z</time>
      </trkpt>
      <trkpt lat="45.963295502588153" lon="10.454533416777849">
        <ele>2654.8200000000002</ele>
        <time>2018-07-08T07:46:53Z</time>
      </trkpt>
      <trkpt lat="45.963293658569455" lon="10.454536182805896">
        <ele>2654.8200000000002</ele>
        <time>2018-07-08T07:46:57Z</time>
      </trkpt>
      <trkpt lat="45.963311428204179" lon="10.454565519466996">
        <ele>2654.8200000000002</ele>
        <time>2018-07-08T07:47:00Z</time>
      </trkpt>
      <trkpt lat="45.96334470435977" lon="10.454602316021919">
        <ele>2654.8200000000002</ele>
        <time>2018-07-08T07:47:04Z</time>
      </trkpt>
      <trkpt lat="45.963434223085642" lon="10.454714382067323">
        <ele>2652.4200000000001</ele>
        <time>2018-07-08T07:47:16Z</time>
      </trkpt>
      <trkpt lat="45.963451405987144" lon="10.454811444506049">
        <ele>2649.5300000000002</ele>
        <time>2018-07-08T07:47:26Z</time>
      </trkpt>
      <trkpt lat="45.963440174236894" lon="10.4548813495785">
        <ele>2647.6100000000001</ele>
        <time>2018-07-08T07:47:34Z</time>
      </trkpt>
      <trkpt lat="45.963469846174121" lon="10.45496491715312">
        <ele>2645.21</ele>
        <time>2018-07-08T07:47:44Z</time>
      </trkpt>
      <trkpt lat="45.96351083368063" lon="10.455024093389511">
        <ele>2645.6900000000001</ele>
        <time>2018-07-08T07:47:58Z</time>
      </trkpt>
      <trkpt lat="45.963563807308674" lon="10.455038426443934">
        <ele>2647.1300000000001</ele>
        <time>2018-07-08T07:48:05Z</time>
      </trkpt>
      <trkpt lat="45.96365257166326" lon="10.455050496384501">
        <ele>2648.0900000000001</ele>
        <time>2018-07-08T07:48:16Z</time>
      </trkpt>
      <trkpt lat="45.963660199195147" lon="10.455053513869643">
        <ele>2649.0500000000002</ele>
        <time>2018-07-08T07:48:17Z</time>
      </trkpt>
      <trkpt lat="45.963732367381454" lon="10.455125849694014">
        <ele>2648.5700000000002</ele>
        <time>2018-07-08T07:48:28Z</time>
      </trkpt>
      <trkpt lat="45.963786682114005" lon="10.455140853300691">
        <ele>2648.0900000000001</ele>
        <time>2018-07-08T07:48:39Z</time>
      </trkpt>
      <trkpt lat="45.963784586638212" lon="10.455153342336416">
        <ele>2647.6100000000001</ele>
        <time>2018-07-08T07:48:41Z</time>
      </trkpt>
      <trkpt lat="45.96377762965858" lon="10.455250907689333">
        <ele>2647.6100000000001</ele>
        <time>2018-07-08T07:48:51Z</time>
      </trkpt>
      <trkpt lat="45.96379523165524" lon="10.455260379239917">
        <ele>2647.1300000000001</ele>
        <time>2018-07-08T07:48:53Z</time>
      </trkpt>
      <trkpt lat="45.96384652890265" lon="10.455347215756774">
        <ele>2646.1700000000001</ele>
        <time>2018-07-08T07:49:03Z</time>
      </trkpt>
      <trkpt lat="45.963839488103986" lon="10.455440422520041">
        <ele>2647.1300000000001</ele>
        <time>2018-07-08T07:49:12Z</time>
      </trkpt>
      <trkpt lat="45.963860107585788" lon="10.455483756959438">
        <ele>2645.6900000000001</ele>
        <time>2018-07-08T07:49:23Z</time>
      </trkpt>
      <trkpt lat="45.963925821706653" lon="10.45554687269032">
        <ele>2643.2800000000002</ele>
        <time>2018-07-08T07:49:34Z</time>
      </trkpt>
      <trkpt lat="45.963991032913327" lon="10.455597331747413">
        <ele>2641.8400000000001</ele>
        <time>2018-07-08T07:49:47Z</time>
      </trkpt>
      <trkpt lat="45.964001342654228" lon="10.455632451921701">
        <ele>2641.8400000000001</ele>
        <time>2018-07-08T07:49:56Z</time>
      </trkpt>
      <trkpt lat="45.964054986834526" lon="10.455733118578792">
        <ele>2640.4000000000001</ele>
        <time>2018-07-08T07:50:08Z</time>
      </trkpt>
      <trkpt lat="45.964117683470249" lon="10.455797994509339">
        <ele>2640.4000000000001</ele>
        <time>2018-07-08T07:50:18Z</time>
      </trkpt>
      <trkpt lat="45.964131094515324" lon="10.455808807164431">
        <ele>2637.9899999999998</ele>
        <time>2018-07-08T07:50:21Z</time>
      </trkpt>
      <trkpt lat="45.96418566070497" lon="10.455838982015848">
        <ele>2636.5500000000002</ele>
        <time>2018-07-08T07:50:31Z</time>
      </trkpt>
      <trkpt lat="45.964247100055218" lon="10.455918107181787">
        <ele>2638.48</ele>
        <time>2018-07-08T07:50:43Z</time>
      </trkpt>
      <trkpt lat="45.96430585719645" lon="10.455959010869265">
        <ele>2637.0300000000002</ele>
        <time>2018-07-08T07:50:55Z</time>
      </trkpt>
      <trkpt lat="45.96429948695004" lon="10.455968314781785">
        <ele>2637.0300000000002</ele>
        <time>2018-07-08T07:51:08Z</time>
      </trkpt>
      <trkpt lat="45.964313568547368" lon="10.45597049407661">
        <ele>2636.5500000000002</ele>
        <time>2018-07-08T07:51:31Z</time>
      </trkpt>
      <trkpt lat="45.964361345395446" lon="10.456060348078609">
        <ele>2634.1500000000001</ele>
        <time>2018-07-08T07:51:43Z</time>
      </trkpt>
      <trkpt lat="45.964419767260551" lon="10.456124134361744">
        <ele>2633.6700000000001</ele>
        <time>2018-07-08T07:51:54Z</time>
      </trkpt>
      <trkpt lat="45.964441811665893" lon="10.456144837662578">
        <ele>2632.71</ele>
        <time>2018-07-08T07:52:04Z</time>
      </trkpt>
      <trkpt lat="45.964467711746693" lon="10.456244247034192">
        <ele>2630.79</ele>
        <time>2018-07-08T07:52:14Z</time>
      </trkpt>
      <trkpt lat="45.964506939053535" lon="10.456301830708981">
        <ele>2629.3400000000001</ele>
        <time>2018-07-08T07:52:22Z</time>
      </trkpt>
      <trkpt lat="45.964486738666892" lon="10.456391600891948">
        <ele>2627.9000000000001</ele>
        <time>2018-07-08T07:52:33Z</time>
      </trkpt>
      <trkpt lat="45.964516494423151" lon="10.456500062718987">
        <ele>2625.5</ele>
        <time>2018-07-08T07:52:45Z</time>
      </trkpt>
      <trkpt lat="45.964564019814134" lon="10.456544905900955">
        <ele>2624.0599999999999</ele>
        <time>2018-07-08T07:52:54Z</time>
      </trkpt>
      <trkpt lat="45.964558068662882" lon="10.456650601699948">
        <ele>2622.6100000000001</ele>
        <time>2018-07-08T07:53:05Z</time>
      </trkpt>
      <trkpt lat="45.964556559920311" lon="10.456689074635506">
        <ele>2621.6500000000001</ele>
        <time>2018-07-08T07:53:08Z</time>
      </trkpt>
      <trkpt lat="45.964539879933" lon="10.456786556169391">
        <ele>2618.77</ele>
        <time>2018-07-08T07:53:18Z</time>
      </trkpt>
      <trkpt lat="45.964526468887925" lon="10.456850677728653">
        <ele>2616.3699999999999</ele>
        <time>2018-07-08T07:53:27Z</time>
      </trkpt>
      <trkpt lat="45.964526636525989" lon="10.456918068230152">
        <ele>2613.48</ele>
        <time>2018-07-08T07:53:38Z</time>
      </trkpt>
      <trkpt lat="45.964576005935669" lon="10.456955283880234">
        <ele>2612.52</ele>
        <time>2018-07-08T07:53:47Z</time>
      </trkpt>
      <trkpt lat="45.964625459164381" lon="10.456986296921968">
        <ele>2612.04</ele>
        <time>2018-07-08T07:53:58Z</time>
      </trkpt>
      <trkpt lat="45.964676840230823" lon="10.456986045464873">
        <ele>2613.96</ele>
        <time>2018-07-08T07:54:09Z</time>
      </trkpt>
      <trkpt lat="45.964668206870556" lon="10.457017226144671">
        <ele>2614.4400000000001</ele>
        <time>2018-07-08T07:54:21Z</time>
      </trkpt>
      <trkpt lat="45.964740291237831" lon="10.457023680210114">
        <ele>2613.96</ele>
        <time>2018-07-08T07:54:31Z</time>
      </trkpt>
      <trkpt lat="45.964806256815791" lon="10.45702401548624">
        <ele>2613.96</ele>
        <time>2018-07-08T07:54:41Z</time>
      </trkpt>
      <trkpt lat="45.964874820783734" lon="10.457089729607105">
        <ele>2611.5599999999999</ele>
        <time>2018-07-08T07:54:52Z</time>
      </trkpt>
      <trkpt lat="45.964926956221461" lon="10.457136500626802">
        <ele>2610.1199999999999</ele>
        <time>2018-07-08T07:55:00Z</time>
      </trkpt>
      <trkpt lat="45.965004488825798" lon="10.457151588052511">
        <ele>2607.71</ele>
        <time>2018-07-08T07:55:13Z</time>
      </trkpt>
      <trkpt lat="45.965039860457182" lon="10.457091657444835">
        <ele>2606.27</ele>
        <time>2018-07-08T07:55:23Z</time>
      </trkpt>
      <trkpt lat="45.965071124956012" lon="10.457108253613114">
        <ele>2605.79</ele>
        <time>2018-07-08T07:55:33Z</time>
      </trkpt>
      <trkpt lat="45.965072214603424" lon="10.457094088196754">
        <ele>2605.79</ele>
        <time>2018-07-08T07:55:44Z</time>
      </trkpt>
      <trkpt lat="45.965077662840486" lon="10.457088220864534">
        <ele>2605.79</ele>
        <time>2018-07-08T07:55:59Z</time>
      </trkpt>
      <trkpt lat="45.965102389454842" lon="10.457095177844167">
        <ele>2605.3099999999999</ele>
        <time>2018-07-08T07:56:17Z</time>
      </trkpt>
      <trkpt lat="45.965088810771704" lon="10.457102973014116">
        <ele>2604.8299999999999</ele>
        <time>2018-07-08T07:56:33Z</time>
      </trkpt>
      <trkpt lat="45.965095851570368" lon="10.457063829526305">
        <ele>2605.3099999999999</ele>
        <time>2018-07-08T07:56:42Z</time>
      </trkpt>
      <trkpt lat="45.965121332556009" lon="10.457053855061531">
        <ele>2604.8299999999999</ele>
        <time>2018-07-08T07:56:52Z</time>
      </trkpt>
      <trkpt lat="45.96514287404716" lon="10.457095932215452">
        <ele>2603.8699999999999</ele>
        <time>2018-07-08T07:57:02Z</time>
      </trkpt>
      <trkpt lat="45.965149411931634" lon="10.457069277763367">
        <ele>2603.3899999999999</ele>
        <time>2018-07-08T07:57:10Z</time>
      </trkpt>
      <trkpt lat="45.965206576511264" lon="10.457018483430147">
        <ele>2602.4299999999998</ele>
        <time>2018-07-08T07:57:20Z</time>
      </trkpt>
      <trkpt lat="45.965250581502914" lon="10.456994427368045">
        <ele>2601.46</ele>
        <time>2018-07-08T07:57:29Z</time>
      </trkpt>
      <trkpt lat="45.965278744697571" lon="10.457016890868545">
        <ele>2600.02</ele>
        <time>2018-07-08T07:57:38Z</time>
      </trkpt>
      <trkpt lat="45.965336747467518" lon="10.45695947483182">
        <ele>2599.0599999999999</ele>
        <time>2018-07-08T07:57:50Z</time>
      </trkpt>
      <trkpt lat="45.965373376384377" lon="10.456960229203105">
        <ele>2599.0599999999999</ele>
        <time>2018-07-08T07:58:00Z</time>
      </trkpt>
      <trkpt lat="45.965389972552657" lon="10.45695947483182">
        <ele>2598.5799999999999</ele>
        <time>2018-07-08T07:58:13Z</time>
      </trkpt>
      <trkpt lat="45.965409921482205" lon="10.456909015774727">
        <ele>2598.0999999999999</ele>
        <time>2018-07-08T07:58:17Z</time>
      </trkpt>
      <trkpt lat="45.965444706380367" lon="10.456883870065212">
        <ele>2597.6199999999999</ele>
        <time>2018-07-08T07:58:21Z</time>
      </trkpt>
      <trkpt lat="45.965470187366009" lon="10.456871129572392">
        <ele>2597.1399999999999</ele>
        <time>2018-07-08T07:58:24Z</time>
      </trkpt>
      <trkpt lat="45.965518886223435" lon="10.456777838990092">
        <ele>2596.6599999999999</ele>
        <time>2018-07-08T07:58:35Z</time>
      </trkpt>
      <trkpt lat="45.96553179435432" lon="10.456715729087591">
        <ele>2597.1399999999999</ele>
        <time>2018-07-08T07:58:45Z</time>
      </trkpt>
      <trkpt lat="45.965549144893885" lon="10.456652529537678">
        <ele>2599.0599999999999</ele>
        <time>2018-07-08T07:58:54Z</time>
      </trkpt>
      <trkpt lat="45.965578984469175" lon="10.456608021631837">
        <ele>2600.02</ele>
        <time>2018-07-08T07:59:03Z</time>
      </trkpt>
      <trkpt lat="45.965607147663832" lon="10.456604501232505">
        <ele>2600.02</ele>
        <time>2018-07-08T07:59:12Z</time>
      </trkpt>
      <trkpt lat="45.965623827651143" lon="10.456560496240854">
        <ele>2599.54</ele>
        <time>2018-07-08T07:59:27Z</time>
      </trkpt>
      <trkpt lat="45.965653918683529" lon="10.45648941770196">
        <ele>2600.5</ele>
        <time>2018-07-08T07:59:36Z</time>
      </trkpt>
      <trkpt lat="45.965683590620756" lon="10.45644792728126">
        <ele>2600.98</ele>
        <time>2018-07-08T07:59:46Z</time>
      </trkpt>
      <trkpt lat="45.965763553977013" lon="10.45644742436707">
        <ele>2601.46</ele>
        <time>2018-07-08T07:59:57Z</time>
      </trkpt>
      <trkpt lat="45.965802194550633" lon="10.456377854570746">
        <ele>2602.4299999999998</ele>
        <time>2018-07-08T08:00:08Z</time>
      </trkpt>
      <trkpt lat="45.965849971398711" lon="10.456311469897628">
        <ele>2603.8699999999999</ele>
        <time>2018-07-08T08:00:19Z</time>
      </trkpt>
      <trkpt lat="45.965905543416739" lon="10.456279199570417">
        <ele>2603.3899999999999</ele>
        <time>2018-07-08T08:00:28Z</time>
      </trkpt>
      <trkpt lat="45.965959271416068" lon="10.456251371651888">
        <ele>2601.46</ele>
        <time>2018-07-08T08:00:40Z</time>
      </trkpt>
      <trkpt lat="45.9659886918962" lon="10.456285150721669">
        <ele>2600.5</ele>
        <time>2018-07-08T08:00:48Z</time>
      </trkpt>
      <trkpt lat="45.966045605018735" lon="10.456282552331686">
        <ele>2598.0999999999999</ele>
        <time>2018-07-08T08:00:59Z</time>
      </trkpt>
      <trkpt lat="45.966090699657798" lon="10.456298729404807">
        <ele>2596.6599999999999</ele>
        <time>2018-07-08T08:01:08Z</time>
      </trkpt>
      <trkpt lat="45.966101344674826" lon="10.456292191520333">
        <ele>2596.1799999999998</ele>
        <time>2018-07-08T08:01:12Z</time>
      </trkpt>
      <trkpt lat="45.966153228655457" lon="10.45622949488461">
        <ele>2597.1399999999999</ele>
        <time>2018-07-08T08:01:23Z</time>
      </trkpt>
      <trkpt lat="45.966205364093184" lon="10.456237206235528">
        <ele>2598.0999999999999</ele>
        <time>2018-07-08T08:01:33Z</time>
      </trkpt>
      <trkpt lat="45.966282058507204" lon="10.456249192357063">
        <ele>2596.1799999999998</ele>
        <time>2018-07-08T08:01:45Z</time>
      </trkpt>
      <trkpt lat="45.966345258057117" lon="10.456221867352724">
        <ele>2595.2199999999998</ele>
        <time>2018-07-08T08:01:55Z</time>
      </trkpt>
      <trkpt lat="45.966363362967968" lon="10.456241481006145">
        <ele>2595.6999999999998</ele>
        <time>2018-07-08T08:02:03Z</time>
      </trkpt>
      <trkpt lat="45.966356070712209" lon="10.456256652250886">
        <ele>2595.6999999999998</ele>
        <time>2018-07-08T08:02:23Z</time>
      </trkpt>
      <trkpt lat="45.966364620253444" lon="10.456229662522674">
        <ele>2595.6999999999998</ele>
        <time>2018-07-08T08:02:39Z</time>
      </trkpt>
      <trkpt lat="45.966403679922223" lon="10.456230584532022">
        <ele>2595.2199999999998</ele>
        <time>2018-07-08T08:02:50Z</time>
      </trkpt>
      <trkpt lat="45.966456066817045" lon="10.45626612380147">
        <ele>2592.8099999999999</ele>
        <time>2018-07-08T08:03:00Z</time>
      </trkpt>
      <trkpt lat="45.966504262760282" lon="10.456297053024173">
        <ele>2591.3699999999999</ele>
        <time>2018-07-08T08:03:10Z</time>
      </trkpt>
      <trkpt lat="45.966527229174972" lon="10.456302752718329">
        <ele>2590.4099999999999</ele>
        <time>2018-07-08T08:03:19Z</time>
      </trkpt>
      <trkpt lat="45.96654717810452" lon="10.456285485997796">
        <ele>2591.3699999999999</ele>
        <time>2018-07-08T08:03:24Z</time>
      </trkpt>
      <trkpt lat="45.966615993529558" lon="10.456322785466909">
        <ele>2590.8899999999999</ele>
        <time>2018-07-08T08:03:35Z</time>
      </trkpt>
      <trkpt lat="45.966694783419371" lon="10.456339130178094">
        <ele>2589.9299999999998</ele>
        <time>2018-07-08T08:03:46Z</time>
      </trkpt>
      <trkpt lat="45.966757563874125" lon="10.456376178190112">
        <ele>2587.5300000000002</ele>
        <time>2018-07-08T08:03:57Z</time>
      </trkpt>
      <trkpt lat="45.966816321015358" lon="10.456390678882599">
        <ele>2587.5300000000002</ele>
        <time>2018-07-08T08:04:08Z</time>
      </trkpt>
      <trkpt lat="45.966887986287475" lon="10.456382045522332">
        <ele>2586.5599999999999</ele>
        <time>2018-07-08T08:04:19Z</time>
      </trkpt>
      <trkpt lat="45.966939702630043" lon="10.456409119069576">
        <ele>2586.0799999999999</ele>
        <time>2018-07-08T08:04:29Z</time>
      </trkpt>
      <trkpt lat="45.966994101181626" lon="10.4564562253654">
        <ele>2585.1199999999999</ele>
        <time>2018-07-08T08:04:40Z</time>
      </trkpt>
      <trkpt lat="45.967038022354245" lon="10.456449436023831">
        <ele>2583.6799999999998</ele>
        <time>2018-07-08T08:04:52Z</time>
      </trkpt>
      <trkpt lat="45.967044308781624" lon="10.456446753814816">
        <ele>2583.6799999999998</ele>
        <time>2018-07-08T08:04:53Z</time>
      </trkpt>
      <trkpt lat="45.967105496674776" lon="10.456448346376419">
        <ele>2583.1999999999998</ele>
        <time>2018-07-08T08:05:02Z</time>
      </trkpt>
      <trkpt lat="45.967133576050401" lon="10.456451615318656">
        <ele>2583.1999999999998</ele>
        <time>2018-07-08T08:05:06Z</time>
      </trkpt>
      <trkpt lat="45.967202140018344" lon="10.456482041627169">
        <ele>2582.7199999999998</ele>
        <time>2018-07-08T08:05:17Z</time>
      </trkpt>
      <trkpt lat="45.967262824997306" lon="10.456510372459888">
        <ele>2581.7600000000002</ele>
        <time>2018-07-08T08:05:27Z</time>
      </trkpt>
      <trkpt lat="45.967301968485117" lon="10.456533590331674">
        <ele>2580.8000000000002</ele>
        <time>2018-07-08T08:05:37Z</time>
      </trkpt>
      <trkpt lat="45.967328706756234" lon="10.456517832353711">
        <ele>2580.3200000000002</ele>
        <time>2018-07-08T08:05:49Z</time>
      </trkpt>
      <trkpt lat="45.967360557988286" lon="10.456479610875249">
        <ele>2581.2800000000002</ele>
        <time>2018-07-08T08:05:59Z</time>
      </trkpt>
      <trkpt lat="45.967400958761573" lon="10.456449771299958">
        <ele>2582.2399999999998</ele>
        <time>2018-07-08T08:06:09Z</time>
      </trkpt>
      <trkpt lat="45.967483688145876" lon="10.45644499361515">
        <ele>2582.7199999999998</ele>
        <time>2018-07-08T08:06:19Z</time>
      </trkpt>
      <trkpt lat="45.967532638460398" lon="10.456489585340023">
        <ele>2582.2399999999998</ele>
        <time>2018-07-08T08:06:28Z</time>
      </trkpt>
      <trkpt lat="45.967564908787608" lon="10.45651825144887">
        <ele>2579.8400000000001</ele>
        <time>2018-07-08T08:06:36Z</time>
      </trkpt>
      <trkpt lat="45.967606650665402" lon="10.456506097689271">
        <ele>2578.8699999999999</ele>
        <time>2018-07-08T08:06:45Z</time>
      </trkpt>
      <trkpt lat="45.967646883800626" lon="10.456482795998454">
        <ele>2577.9099999999999</ele>
        <time>2018-07-08T08:06:53Z</time>
      </trkpt>
      <trkpt lat="45.96769399009645" lon="10.456494363024831">
        <ele>2576.9499999999998</ele>
        <time>2018-07-08T08:07:01Z</time>
      </trkpt>
      <trkpt lat="45.967745035886765" lon="10.456481538712978">
        <ele>2576.9499999999998</ele>
        <time>2018-07-08T08:07:10Z</time>
      </trkpt>
      <trkpt lat="45.967782838270068" lon="10.456451866775751">
        <ele>2578.3899999999999</ele>
        <time>2018-07-08T08:07:20Z</time>
      </trkpt>
      <trkpt lat="45.967821897938848" lon="10.45644449070096">
        <ele>2578.3899999999999</ele>
        <time>2018-07-08T08:07:26Z</time>
      </trkpt>
      <trkpt lat="45.967883672565222" lon="10.456474414095283">
        <ele>2578.8699999999999</ele>
        <time>2018-07-08T08:07:36Z</time>
      </trkpt>
      <trkpt lat="45.967950560152531" lon="10.456469804048538">
        <ele>2578.8699999999999</ele>
        <time>2018-07-08T08:07:47Z</time>
      </trkpt>
      <trkpt lat="45.967966904863715" lon="10.456472905352712">
        <ele>2578.3899999999999</ele>
        <time>2018-07-08T08:07:49Z</time>
      </trkpt>
      <trkpt lat="45.96803748048842" lon="10.456479610875249">
        <ele>2576.9499999999998</ele>
        <time>2018-07-08T08:07:59Z</time>
      </trkpt>
      <trkpt lat="45.968056172132492" lon="10.456467876210809">
        <ele>2576.9499999999998</ele>
        <time>2018-07-08T08:08:02Z</time>
      </trkpt>
      <trkpt lat="45.968137057498097" lon="10.456462344154716">
        <ele>2575.9899999999998</ele>
        <time>2018-07-08T08:08:12Z</time>
      </trkpt>
      <trkpt lat="45.96820461563766" lon="10.456431582570076">
        <ele>2575.5100000000002</ele>
        <time>2018-07-08T08:08:22Z</time>
      </trkpt>
      <trkpt lat="45.968248620629311" lon="10.456408280879259">
        <ele>2576.4699999999998</ele>
        <time>2018-07-08T08:08:31Z</time>
      </trkpt>
      <trkpt lat="45.968273766338825" lon="10.456400820985436">
        <ele>2575.9899999999998</ele>
        <time>2018-07-08T08:08:40Z</time>
      </trkpt>
      <trkpt lat="45.968334032222629" lon="10.456493524834514">
        <ele>2574.0700000000002</ele>
        <time>2018-07-08T08:08:53Z</time>
      </trkpt>
      <trkpt lat="45.968385161831975" lon="10.456502409651875">
        <ele>2572.1399999999999</ele>
        <time>2018-07-08T08:09:04Z</time>
      </trkpt>
      <trkpt lat="45.968439728021622" lon="10.456482628360391">
        <ele>2571.6599999999999</ele>
        <time>2018-07-08T08:09:14Z</time>
      </trkpt>
      <trkpt lat="45.968508711084723" lon="10.456472486257553">
        <ele>2570.2199999999998</ele>
        <time>2018-07-08T08:09:24Z</time>
      </trkpt>
      <trkpt lat="45.968605522066355" lon="10.456429235637188">
        <ele>2568.7800000000002</ele>
        <time>2018-07-08T08:09:38Z</time>
      </trkpt>
      <trkpt lat="45.968678360804915" lon="10.456413812935352">
        <ele>2569.2600000000002</ele>
        <time>2018-07-08T08:09:49Z</time>
      </trkpt>
      <trkpt lat="45.968730328604579" lon="10.45639269053936">
        <ele>2568.7800000000002</ele>
        <time>2018-07-08T08:09:56Z</time>
      </trkpt>
      <trkpt lat="45.968799982219934" lon="10.456334101036191">
        <ele>2567.8200000000002</ele>
        <time>2018-07-08T08:10:07Z</time>
      </trkpt>
      <trkpt lat="45.968828815966845" lon="10.456226225942373">
        <ele>2568.3000000000002</ele>
        <time>2018-07-08T08:10:18Z</time>
      </trkpt>
      <trkpt lat="45.968864606693387" lon="10.456156656146049">
        <ele>2567.8200000000002</ele>
        <time>2018-07-08T08:10:25Z</time>
      </trkpt>
      <trkpt lat="45.968934595584869" lon="10.456096641719341">
        <ele>2567.3400000000001</ele>
        <time>2018-07-08T08:10:36Z</time>
      </trkpt>
      <trkpt lat="45.969005171209574" lon="10.456068981438875">
        <ele>2566.3800000000001</ele>
        <time>2018-07-08T08:10:47Z</time>
      </trkpt>
      <trkpt lat="45.96909586340189" lon="10.456027742475271">
        <ele>2564.4499999999998</ele>
        <time>2018-07-08T08:10:59Z</time>
      </trkpt>
      <trkpt lat="45.969185382127762" lon="10.455945683643222">
        <ele>2564.4499999999998</ele>
        <time>2018-07-08T08:11:12Z</time>
      </trkpt>
      <trkpt lat="45.969262914732099" lon="10.455873599275947">
        <ele>2564.4499999999998</ele>
        <time>2018-07-08T08:11:23Z</time>
      </trkpt>
      <trkpt lat="45.969296023249626" lon="10.455884914845228">
        <ele>2563.9699999999998</ele>
        <time>2018-07-08T08:11:33Z</time>
      </trkpt>
      <trkpt lat="45.969318905845284" lon="10.455832947045565">
        <ele>2564.4499999999998</ele>
        <time>2018-07-08T08:11:47Z</time>
      </trkpt>
      <trkpt lat="45.969356037676334" lon="10.455735633149743">
        <ele>2563.9699999999998</ele>
        <time>2018-07-08T08:11:57Z</time>
      </trkpt>
      <trkpt lat="45.969410100951791" lon="10.455693975090981">
        <ele>2562.5300000000002</ele>
        <time>2018-07-08T08:12:07Z</time>
      </trkpt>
      <trkpt lat="45.969450669363141" lon="10.455692801624537">
        <ele>2560.6100000000001</ele>
        <time>2018-07-08T08:12:17Z</time>
      </trkpt>
      <trkpt lat="45.969453351572156" lon="10.455690622329712">
        <ele>2560.1300000000001</ele>
        <time>2018-07-08T08:12:19Z</time>
      </trkpt>
      <trkpt lat="45.969471372663975" lon="10.455692885443568">
        <ele>2559.1700000000001</ele>
        <time>2018-07-08T08:12:28Z</time>
      </trkpt>
      <trkpt lat="45.96947506070137" lon="10.45567637309432">
        <ele>2559.6500000000001</ele>
        <time>2018-07-08T08:12:39Z</time>
      </trkpt>
      <trkpt lat="45.969497356563807" lon="10.455648796632886">
        <ele>2558.6900000000001</ele>
        <time>2018-07-08T08:12:49Z</time>
      </trkpt>
      <trkpt lat="45.969549240544438" lon="10.455635469406843">
        <ele>2556.7600000000002</ele>
        <time>2018-07-08T08:13:01Z</time>
      </trkpt>
      <trkpt lat="45.969542367383838" lon="10.455628009513021">
        <ele>2556.7600000000002</ele>
        <time>2018-07-08T08:13:14Z</time>
      </trkpt>
      <trkpt lat="45.969593832269311" lon="10.455590207129717">
        <ele>2554.3600000000001</ele>
        <time>2018-07-08T08:13:24Z</time>
      </trkpt>
      <trkpt lat="45.969642782583833" lon="10.455637313425541">
        <ele>2552.4400000000001</ele>
        <time>2018-07-08T08:13:35Z</time>
      </trkpt>
      <trkpt lat="45.969668347388506" lon="10.455705374479294">
        <ele>2549.5500000000002</ele>
        <time>2018-07-08T08:13:46Z</time>
      </trkpt>
      <trkpt lat="45.969670526683331" lon="10.45577947050333">
        <ele>2546.6700000000001</ele>
        <time>2018-07-08T08:13:57Z</time>
      </trkpt>
      <trkpt lat="45.969672370702028" lon="10.455832947045565">
        <ele>2544.75</ele>
        <time>2018-07-08T08:14:05Z</time>
      </trkpt>
      <trkpt lat="45.969675555825233" lon="10.455866223201156">
        <ele>2543.3099999999999</ele>
        <time>2018-07-08T08:14:14Z</time>
      </trkpt>
      <trkpt lat="45.969707071781158" lon="10.455878209322691">
        <ele>2542.3400000000001</ele>
        <time>2018-07-08T08:14:23Z</time>
      </trkpt>
      <trkpt lat="45.969719560816884" lon="10.455893967300653">
        <ele>2541.8600000000001</ele>
        <time>2018-07-08T08:14:35Z</time>
      </trkpt>
      <trkpt lat="45.969767589122057" lon="10.455878041684628">
        <ele>2540.9000000000001</ele>
        <time>2018-07-08T08:14:44Z</time>
      </trkpt>
      <trkpt lat="45.96980924718082" lon="10.455885753035545">
        <ele>2540.4200000000001</ele>
        <time>2018-07-08T08:14:53Z</time>
      </trkpt>
      <trkpt lat="45.969837242737412" lon="10.455900421366096">
        <ele>2539.9400000000001</ele>
        <time>2018-07-08T08:14:57Z</time>
      </trkpt>
      <trkpt lat="45.96989918500185" lon="10.455899499356747">
        <ele>2539.9400000000001</ele>
        <time>2018-07-08T08:15:06Z</time>
      </trkpt>
      <trkpt lat="45.969938412308693" lon="10.455862451344728">
        <ele>2540.4200000000001</ele>
        <time>2018-07-08T08:15:16Z</time>
      </trkpt>
      <trkpt lat="45.969944782555103" lon="10.455856081098318">
        <ele>2540.4200000000001</ele>
        <time>2018-07-08T08:15:17Z</time>
      </trkpt>
      <trkpt lat="45.969992727041245" lon="10.45581417158246">
        <ele>2540.9000000000001</ele>
        <time>2018-07-08T08:15:26Z</time>
      </trkpt>
      <trkpt lat="45.970043521374464" lon="10.455758096650243">
        <ele>2541.3800000000001</ele>
        <time>2018-07-08T08:15:36Z</time>
      </trkpt>
      <trkpt lat="45.970084592700005" lon="10.455716270953417">
        <ele>2541.3800000000001</ele>
        <time>2018-07-08T08:15:44Z</time>
      </trkpt>
      <trkpt lat="45.97014594823122" lon="10.455674445256591">
        <ele>2541.3800000000001</ele>
        <time>2018-07-08T08:15:53Z</time>
      </trkpt>
      <trkpt lat="45.97020898014307" lon="10.455682156607509">
        <ele>2542.3400000000001</ele>
        <time>2018-07-08T08:16:03Z</time>
      </trkpt>
      <trkpt lat="45.970225408673286" lon="10.45564946718514">
        <ele>2542.8200000000002</ele>
        <time>2018-07-08T08:16:11Z</time>
      </trkpt>
      <trkpt lat="45.970246782526374" lon="10.455671595409513">
        <ele>2543.3099999999999</ele>
        <time>2018-07-08T08:16:20Z</time>
      </trkpt>
      <trkpt lat="45.970244100317359" lon="10.455669332295656">
        <ele>2543.3099999999999</ele>
        <time>2018-07-08T08:16:36Z</time>
      </trkpt>
      <trkpt lat="45.970304617658257" lon="10.455633625388145">
        <ele>2543.79</ele>
        <time>2018-07-08T08:16:47Z</time>
      </trkpt>
      <trkpt lat="45.97035801038146" lon="10.455615101382136">
        <ele>2544.75</ele>
        <time>2018-07-08T08:16:57Z</time>
      </trkpt>
      <trkpt lat="45.970419449731708" lon="10.455566486343741">
        <ele>2545.23</ele>
        <time>2018-07-08T08:17:08Z</time>
      </trkpt>
      <trkpt lat="45.970496563240886" lon="10.455561876296997">
        <ele>2544.75</ele>
        <time>2018-07-08T08:17:18Z</time>
      </trkpt>
      <trkpt lat="45.970575269311666" lon="10.455560870468616">
        <ele>2544.75</ele>
        <time>2018-07-08T08:17:29Z</time>
      </trkpt>
      <trkpt lat="45.970668308436871" lon="10.455528181046247">
        <ele>2544.75</ele>
        <time>2018-07-08T08:17:41Z</time>
      </trkpt>
      <trkpt lat="45.970758581534028" lon="10.455488786101341">
        <ele>2545.23</ele>
        <time>2018-07-08T08:17:53Z</time>
      </trkpt>
      <trkpt lat="45.97084759734571" lon="10.455447547137737">
        <ele>2546.1900000000001</ele>
        <time>2018-07-08T08:18:05Z</time>
      </trkpt>
      <trkpt lat="45.970862852409482" lon="10.455454252660275">
        <ele>2546.1900000000001</ele>
        <time>2018-07-08T08:18:07Z</time>
      </trkpt>
      <trkpt lat="45.970967207103968" lon="10.455468166619539">
        <ele>2545.71</ele>
        <time>2018-07-08T08:18:18Z</time>
      </trkpt>
      <trkpt lat="45.971056390553713" lon="10.455475207418203">
        <ele>2545.71</ele>
        <time>2018-07-08T08:18:29Z</time>
      </trkpt>
      <trkpt lat="45.971098970621824" lon="10.455474620684981">
        <ele>2547.1500000000001</ele>
        <time>2018-07-08T08:18:34Z</time>
      </trkpt>
      <trkpt lat="45.971198044717312" lon="10.455494318157434">
        <ele>2545.23</ele>
        <time>2018-07-08T08:18:46Z</time>
      </trkpt>
      <trkpt lat="45.971271973103285" lon="10.455496748909354">
        <ele>2544.75</ele>
        <time>2018-07-08T08:18:56Z</time>
      </trkpt>
      <trkpt lat="45.971339866518974" lon="10.455497838556767">
        <ele>2543.79</ele>
        <time>2018-07-08T08:19:07Z</time>
      </trkpt>
      <trkpt lat="45.971404574811459" lon="10.455493312329054">
        <ele>2543.3099999999999</ele>
        <time>2018-07-08T08:19:17Z</time>
      </trkpt>
      <trkpt lat="45.971486382186413" lon="10.455515021458268">
        <ele>2542.3400000000001</ele>
        <time>2018-07-08T08:19:28Z</time>
      </trkpt>
      <trkpt lat="45.97157321870327" lon="10.455530863255262">
        <ele>2542.3400000000001</ele>
        <time>2018-07-08T08:19:38Z</time>
      </trkpt>
      <trkpt lat="45.97164262086153" lon="10.455540334805846">
        <ele>2541.8600000000001</ele>
        <time>2018-07-08T08:19:46Z</time>
      </trkpt>
      <trkpt lat="45.971736162900925" lon="10.455543352290988">
        <ele>2540.9000000000001</ele>
        <time>2018-07-08T08:19:57Z</time>
      </trkpt>
      <trkpt lat="45.971808917820454" lon="10.45556740835309">
        <ele>2538.98</ele>
        <time>2018-07-08T08:20:08Z</time>
      </trkpt>
      <trkpt lat="45.971894161775708" lon="10.455574281513691">
        <ele>2538.5</ele>
        <time>2018-07-08T08:20:18Z</time>
      </trkpt>
      <trkpt lat="45.9719895478338" lon="10.455572688952088">
        <ele>2537.0599999999999</ele>
        <time>2018-07-08T08:20:30Z</time>
      </trkpt>
      <trkpt lat="45.972058027982712" lon="10.455577382817864">
        <ele>2536.0999999999999</ele>
        <time>2018-07-08T08:20:40Z</time>
      </trkpt>
      <trkpt lat="45.972123155370355" lon="10.455543017014861">
        <ele>2535.6100000000001</ele>
        <time>2018-07-08T08:20:51Z</time>
      </trkpt>
      <trkpt lat="45.972186103463173" lon="10.455523822456598">
        <ele>2535.1300000000001</ele>
        <time>2018-07-08T08:21:01Z</time>
      </trkpt>
      <trkpt lat="45.972253158688545" lon="10.455536311492324">
        <ele>2534.6500000000001</ele>
        <time>2018-07-08T08:21:11Z</time>
      </trkpt>
      <trkpt lat="45.972242848947644" lon="10.455569168552756">
        <ele>2535.1300000000001</ele>
        <time>2018-07-08T08:21:26Z</time>
      </trkpt>
      <trkpt lat="45.972267743200064" lon="10.455560032278299">
        <ele>2535.1300000000001</ele>
        <time>2018-07-08T08:21:43Z</time>
      </trkpt>
      <trkpt lat="45.972356759011745" lon="10.455527761951089">
        <ele>2535.6100000000001</ele>
        <time>2018-07-08T08:21:54Z</time>
      </trkpt>
      <trkpt lat="45.972370840609074" lon="10.455527929589152">
        <ele>2535.6100000000001</ele>
        <time>2018-07-08T08:21:56Z</time>
      </trkpt>
      <trkpt lat="45.972446529194713" lon="10.455532371997833">
        <ele>2536.5799999999999</ele>
        <time>2018-07-08T08:22:06Z</time>
      </trkpt>
      <trkpt lat="45.972561864182353" lon="10.455587860196829">
        <ele>2536.0999999999999</ele>
        <time>2018-07-08T08:22:19Z</time>
      </trkpt>
      <trkpt lat="45.972611149773002" lon="10.455607390031219">
        <ele>2536.0999999999999</ele>
        <time>2018-07-08T08:22:26Z</time>
      </trkpt>
      <trkpt lat="45.972702261060476" lon="10.455655083060265">
        <ele>2538.5</ele>
        <time>2018-07-08T08:22:37Z</time>
      </trkpt>
      <trkpt lat="45.97278892993927" lon="10.455685341730714">
        <ele>2536.5799999999999</ele>
        <time>2018-07-08T08:22:47Z</time>
      </trkpt>
      <trkpt lat="45.972798485308886" lon="10.455691711977124">
        <ele>2536.0999999999999</ele>
        <time>2018-07-08T08:22:49Z</time>
      </trkpt>
      <trkpt lat="45.97286612726748" lon="10.455721719190478">
        <ele>2533.6900000000001</ele>
        <time>2018-07-08T08:23:00Z</time>
      </trkpt>
      <trkpt lat="45.972917759791017" lon="10.455770669505">
        <ele>2531.77</ele>
        <time>2018-07-08T08:23:09Z</time>
      </trkpt>
      <trkpt lat="45.972994370386004" lon="10.455771340057254">
        <ele>2531.29</ele>
        <time>2018-07-08T08:23:20Z</time>
      </trkpt>
      <trkpt lat="45.972998142242432" lon="10.455772429704666">
        <ele>2531.77</ele>
        <time>2018-07-08T08:23:21Z</time>
      </trkpt>
      <trkpt lat="45.973060671240091" lon="10.455845352262259">
        <ele>2530.8099999999999</ele>
        <time>2018-07-08T08:23:32Z</time>
      </trkpt>
      <trkpt lat="45.973133007064462" lon="10.455929590389132">
        <ele>2529.8499999999999</ele>
        <time>2018-07-08T08:23:44Z</time>
      </trkpt>
      <trkpt lat="45.973144490271807" lon="10.455941995605826">
        <ele>2529.8499999999999</ele>
        <time>2018-07-08T08:23:46Z</time>
      </trkpt>
      <trkpt lat="45.973211545497179" lon="10.456027910113335">
        <ele>2529.3699999999999</ele>
        <time>2018-07-08T08:23:58Z</time>
      </trkpt>
      <trkpt lat="45.973246162757277" lon="10.45612396672368">
        <ele>2528.4000000000001</ele>
        <time>2018-07-08T08:24:08Z</time>
      </trkpt>
      <trkpt lat="45.973266698420048" lon="10.456198146566749">
        <ele>2527.4400000000001</ele>
        <time>2018-07-08T08:24:18Z</time>
      </trkpt>
      <trkpt lat="45.973327634856105" lon="10.456244330853224">
        <ele>2528.4000000000001</ele>
        <time>2018-07-08T08:24:28Z</time>
      </trkpt>
      <trkpt lat="45.973354792222381" lon="10.45627442188561">
        <ele>2527.4400000000001</ele>
        <time>2018-07-08T08:24:32Z</time>
      </trkpt>
      <trkpt lat="45.973445735871792" lon="10.456397635862231">
        <ele>2526.48</ele>
        <time>2018-07-08T08:24:45Z</time>
      </trkpt>
      <trkpt lat="45.973530225455761" lon="10.456492519006133">
        <ele>2525.52</ele>
        <time>2018-07-08T08:24:57Z</time>
      </trkpt>
      <trkpt lat="45.973566686734557" lon="10.456545744091272">
        <ele>2524.5599999999999</ele>
        <time>2018-07-08T08:25:08Z</time>
      </trkpt>
      <trkpt lat="45.973587222397327" lon="10.456548258662224">
        <ele>2525.04</ele>
        <time>2018-07-08T08:25:24Z</time>
      </trkpt>
      <trkpt lat="45.973639357835054" lon="10.456607770174742">
        <ele>2524.5599999999999</ele>
        <time>2018-07-08T08:25:33Z</time>
      </trkpt>
      <trkpt lat="45.973664838820696" lon="10.456656636670232">
        <ele>2524.0799999999999</ele>
        <time>2018-07-08T08:25:46Z</time>
      </trkpt>
      <trkpt lat="45.973760643973947" lon="10.456769289448857">
        <ele>2522.1599999999999</ele>
        <time>2018-07-08T08:25:59Z</time>
      </trkpt>
      <trkpt lat="45.973803894594312" lon="10.456812875345349">
        <ele>2522.6399999999999</ele>
        <time>2018-07-08T08:26:05Z</time>
      </trkpt>
      <trkpt lat="45.973819065839052" lon="10.456828633323312">
        <ele>2522.1599999999999</ele>
        <time>2018-07-08T08:26:07Z</time>
      </trkpt>
      <trkpt lat="45.973886623978615" lon="10.456878757104278">
        <ele>2521.1900000000001</ele>
        <time>2018-07-08T08:26:16Z</time>
      </trkpt>
      <trkpt lat="45.97391813993454" lon="10.456938436254859">
        <ele>2521.1900000000001</ele>
        <time>2018-07-08T08:26:21Z</time>
      </trkpt>
      <trkpt lat="45.973982932046056" lon="10.457054693251848">
        <ele>2521.6799999999998</ele>
        <time>2018-07-08T08:26:33Z</time>
      </trkpt>
      <trkpt lat="45.974046550691128" lon="10.45715443789959">
        <ele>2522.6399999999999</ele>
        <time>2018-07-08T08:26:44Z</time>
      </trkpt>
      <trkpt lat="45.974104050546885" lon="10.457206573337317">
        <ele>2523.5999999999999</ele>
        <time>2018-07-08T08:26:54Z</time>
      </trkpt>
      <trkpt lat="45.974173117429018" lon="10.457253428176045">
        <ele>2524.5599999999999</ele>
        <time>2018-07-08T08:27:04Z</time>
      </trkpt>
      <trkpt lat="45.974214188754559" lon="10.457319309934974">
        <ele>2525.52</ele>
        <time>2018-07-08T08:27:13Z</time>
      </trkpt>
      <trkpt lat="45.974264312535524" lon="10.457401368767023">
        <ele>2526.48</ele>
        <time>2018-07-08T08:27:24Z</time>
      </trkpt>
      <trkpt lat="45.974246375262737" lon="10.457466244697571">
        <ele>2526</ele>
        <time>2018-07-08T08:27:34Z</time>
      </trkpt>
      <trkpt lat="45.974243022501469" lon="10.457487450912595">
        <ele>2526</ele>
        <time>2018-07-08T08:27:48Z</time>
      </trkpt>
      <trkpt lat="45.974233634769917" lon="10.4574940726161">
        <ele>2526</ele>
        <time>2018-07-08T08:28:04Z</time>
      </trkpt>
      <trkpt lat="45.974258948117495" lon="10.457524498924613">
        <ele>2526</ele>
        <time>2018-07-08T08:28:22Z</time>
      </trkpt>
      <trkpt lat="45.974305216223001" lon="10.457607815042138">
        <ele>2527.4400000000001</ele>
        <time>2018-07-08T08:28:34Z</time>
      </trkpt>
      <trkpt lat="45.97436036914587" lon="10.45762499794364">
        <ele>2529.3699999999999</ele>
        <time>2018-07-08T08:28:44Z</time>
      </trkpt>
      <trkpt lat="45.974378222599626" lon="10.457620974630117">
        <ele>2530.3299999999999</ele>
        <time>2018-07-08T08:28:54Z</time>
      </trkpt>
      <trkpt lat="45.97435743547976" lon="10.457707894966006">
        <ele>2530.8099999999999</ele>
        <time>2018-07-08T08:29:02Z</time>
      </trkpt>
      <trkpt lat="45.974355759099126" lon="10.457745948806405">
        <ele>2531.29</ele>
        <time>2018-07-08T08:29:06Z</time>
      </trkpt>
      <trkpt lat="45.974350813776255" lon="10.45778282918036">
        <ele>2531.29</ele>
        <time>2018-07-08T08:29:09Z</time>
      </trkpt>
      <trkpt lat="45.974376210942864" lon="10.457915179431438">
        <ele>2531.29</ele>
        <time>2018-07-08T08:29:21Z</time>
      </trkpt>
      <trkpt lat="45.974382748827338" lon="10.458025485277176">
        <ele>2531.29</ele>
        <time>2018-07-08T08:29:30Z</time>
      </trkpt>
      <trkpt lat="45.974411498755217" lon="10.458147190511227">
        <ele>2530.8099999999999</ele>
        <time>2018-07-08T08:29:42Z</time>
      </trkpt>
      <trkpt lat="45.974394399672747" lon="10.45824509114027">
        <ele>2528.8899999999999</ele>
        <time>2018-07-08T08:29:51Z</time>
      </trkpt>
      <trkpt lat="45.974404374137521" lon="10.45829932205379">
        <ele>2529.8499999999999</ele>
        <time>2018-07-08T08:29:59Z</time>
      </trkpt>
      <trkpt lat="45.974452570080757" lon="10.458376603201032">
        <ele>2530.3299999999999</ele>
        <time>2018-07-08T08:30:10Z</time>
      </trkpt>
      <trkpt lat="45.974487606436014" lon="10.458465116098523">
        <ele>2530.8099999999999</ele>
        <time>2018-07-08T08:30:20Z</time>
      </trkpt>
      <trkpt lat="45.974535802379251" lon="10.458536446094513">
        <ele>2531.77</ele>
        <time>2018-07-08T08:30:31Z</time>
      </trkpt>
      <trkpt lat="45.974580310285091" lon="10.458576092496514">
        <ele>2533.21</ele>
        <time>2018-07-08T08:30:43Z</time>
      </trkpt>
      <trkpt lat="45.974584417417645" lon="10.458617834374309">
        <ele>2533.6900000000001</ele>
        <time>2018-07-08T08:30:48Z</time>
      </trkpt>
      <trkpt lat="45.974625656381249" lon="10.45869268476963">
        <ele>2534.6500000000001</ele>
        <time>2018-07-08T08:30:59Z</time>
      </trkpt>
      <trkpt lat="45.974687347188592" lon="10.458706934005022">
        <ele>2535.6100000000001</ele>
        <time>2018-07-08T08:31:08Z</time>
      </trkpt>
      <trkpt lat="45.974716851487756" lon="10.458727721124887">
        <ele>2535.6100000000001</ele>
        <time>2018-07-08T08:31:20Z</time>
      </trkpt>
      <trkpt lat="45.974726574495435" lon="10.458802403882146">
        <ele>2536.5799999999999</ele>
        <time>2018-07-08T08:31:28Z</time>
      </trkpt>
      <trkpt lat="45.974770663306117" lon="10.458877589553595">
        <ele>2537.54</ele>
        <time>2018-07-08T08:31:39Z</time>
      </trkpt>
      <trkpt lat="45.974822212010622" lon="10.458872225135565">
        <ele>2538.98</ele>
        <time>2018-07-08T08:31:48Z</time>
      </trkpt>
      <trkpt lat="45.974862780421972" lon="10.45890910550952">
        <ele>2540.4200000000001</ele>
        <time>2018-07-08T08:31:57Z</time>
      </trkpt>
      <trkpt lat="45.974900331348181" lon="10.458969622850418">
        <ele>2540.9000000000001</ele>
        <time>2018-07-08T08:32:07Z</time>
      </trkpt>
      <trkpt lat="45.97494819201529" lon="10.459048831835389">
        <ele>2541.8600000000001</ele>
        <time>2018-07-08T08:32:18Z</time>
      </trkpt>
      <trkpt lat="45.974967135116458" lon="10.459045059978962">
        <ele>2543.3099999999999</ele>
        <time>2018-07-08T08:32:28Z</time>
      </trkpt>
      <trkpt lat="45.974973002448678" lon="10.459045059978962">
        <ele>2543.79</ele>
        <time>2018-07-08T08:32:36Z</time>
      </trkpt>
      <trkpt lat="45.974995298311114" lon="10.459057800471783">
        <ele>2544.27</ele>
        <time>2018-07-08T08:32:49Z</time>
      </trkpt>
      <trkpt lat="45.975038716569543" lon="10.459064338356256">
        <ele>2545.71</ele>
        <time>2018-07-08T08:33:00Z</time>
      </trkpt>
      <trkpt lat="45.975080877542496" lon="10.459056794643402">
        <ele>2547.6300000000001</ele>
        <time>2018-07-08T08:33:11Z</time>
      </trkpt>
      <trkpt lat="45.975143657997251" lon="10.459091495722532">
        <ele>2549.0700000000002</ele>
        <time>2018-07-08T08:33:21Z</time>
      </trkpt>
      <trkpt lat="45.975184477865696" lon="10.459143379703164">
        <ele>2550.0300000000002</ele>
        <time>2018-07-08T08:33:32Z</time>
      </trkpt>
      <trkpt lat="45.975194284692407" lon="10.459101386368275">
        <ele>2550.5100000000002</ele>
        <time>2018-07-08T08:33:40Z</time>
      </trkpt>
      <trkpt lat="45.975242648273706" lon="10.459107337519526">
        <ele>2550.5100000000002</ele>
        <time>2018-07-08T08:33:49Z</time>
      </trkpt>
      <trkpt lat="45.975242983549833" lon="10.459095602855086">
        <ele>2551</ele>
        <time>2018-07-08T08:34:01Z</time>
      </trkpt>
      <trkpt lat="45.975236361846328" lon="10.459048496559262">
        <ele>2551.96</ele>
        <time>2018-07-08T08:34:15Z</time>
      </trkpt>
      <trkpt lat="45.975228399038315" lon="10.459051178768277">
        <ele>2552.4400000000001</ele>
        <time>2018-07-08T08:34:26Z</time>
      </trkpt>
      <trkpt lat="45.97522865049541" lon="10.459025781601667">
        <ele>2551.48</ele>
        <time>2018-07-08T08:34:35Z</time>
      </trkpt>
      <trkpt lat="45.975239295512438" lon="10.459049167111516">
        <ele>2552.4400000000001</ele>
        <time>2018-07-08T08:34:50Z</time>
      </trkpt>
      <trkpt lat="45.975230410695076" lon="10.459029385820031">
        <ele>2551.48</ele>
        <time>2018-07-08T08:34:58Z</time>
      </trkpt>
      <trkpt lat="45.97521984949708" lon="10.459028044715524">
        <ele>2551.48</ele>
        <time>2018-07-08T08:35:23Z</time>
      </trkpt>
      <trkpt lat="45.975231416523457" lon="10.459024775773287">
        <ele>2551</ele>
        <time>2018-07-08T08:35:54Z</time>
      </trkpt>
      <trkpt lat="45.975230326876044" lon="10.459031816571951">
        <ele>2551</ele>
        <time>2018-07-08T08:36:21Z</time>
      </trkpt>
      <trkpt lat="45.975226135924459" lon="10.459035420790315">
        <ele>2551</ele>
        <time>2018-07-08T08:36:57Z</time>
      </trkpt>
      <trkpt lat="45.975231332704425" lon="10.459029637277126">
        <ele>2551</ele>
        <time>2018-07-08T08:37:16Z</time>
      </trkpt>
      <trkpt lat="45.975230662152171" lon="10.459035085514188">
        <ele>2551</ele>
        <time>2018-07-08T08:37:49Z</time>
      </trkpt>
      <trkpt lat="45.975224627181888" lon="10.459034917876124">
        <ele>2551</ele>
        <time>2018-07-08T08:38:19Z</time>
      </trkpt>
      <trkpt lat="45.975229991599917" lon="10.459040449932218">
        <ele>2551</ele>
        <time>2018-07-08T08:38:51Z</time>
      </trkpt>
      <trkpt lat="45.975228482857347" lon="10.459031229838729">
        <ele>2551.48</ele>
        <time>2018-07-08T08:39:28Z</time>
      </trkpt>
      <trkpt lat="45.97522814758122" lon="10.459028212353587">
        <ele>2551</ele>
        <time>2018-07-08T08:40:10Z</time>
      </trkpt>
      <trkpt lat="45.975230075418949" lon="10.459032319486141">
        <ele>2551</ele>
        <time>2018-07-08T08:40:47Z</time>
      </trkpt>
      <trkpt lat="45.975232422351837" lon="10.459029553458095">
        <ele>2551.48</ele>
        <time>2018-07-08T08:41:22Z</time>
      </trkpt>
      <trkpt lat="45.975242229178548" lon="10.459016812965274">
        <ele>2551.48</ele>
        <time>2018-07-08T08:41:44Z</time>
      </trkpt>
      <trkpt lat="45.97523937933147" lon="10.459038689732552">
        <ele>2551</ele>
        <time>2018-07-08T08:42:04Z</time>
      </trkpt>
      <trkpt lat="45.975231835618615" lon="10.4590396117419">
        <ele>2551.48</ele>
        <time>2018-07-08T08:42:30Z</time>
      </trkpt>
      <trkpt lat="45.975222699344158" lon="10.459036510437727">
        <ele>2551.96</ele>
        <time>2018-07-08T08:42:49Z</time>
      </trkpt>
      <trkpt lat="45.975236194208264" lon="10.459032068029046">
        <ele>2551.48</ele>
        <time>2018-07-08T08:43:11Z</time>
      </trkpt>
      <trkpt lat="45.975232506170869" lon="10.459023015573621">
        <ele>2551.48</ele>
        <time>2018-07-08T08:43:44Z</time>
      </trkpt>
      <trkpt lat="45.975229991599917" lon="10.459028044715524">
        <ele>2551.48</ele>
        <time>2018-07-08T08:44:01Z</time>
      </trkpt>
      <trkpt lat="45.975237535312772" lon="10.459024272859097">
        <ele>2551.48</ele>
        <time>2018-07-08T08:44:36Z</time>
      </trkpt>
      <trkpt lat="45.975244324654341" lon="10.459024021402001">
        <ele>2551.48</ele>
        <time>2018-07-08T08:45:10Z</time>
      </trkpt>
      <trkpt lat="45.975239966064692" lon="10.459029050543904">
        <ele>2551.96</ele>
        <time>2018-07-08T08:45:46Z</time>
      </trkpt>
      <trkpt lat="45.975245330482721" lon="10.459020249545574">
        <ele>2551.96</ele>
        <time>2018-07-08T08:46:16Z</time>
      </trkpt>
      <trkpt lat="45.975242899730802" lon="10.459022512659431">
        <ele>2551.96</ele>
        <time>2018-07-08T08:46:38Z</time>
      </trkpt>
      <trkpt lat="45.975243654102087" lon="10.459023434668779">
        <ele>2551.48</ele>
        <time>2018-07-08T08:47:07Z</time>
      </trkpt>
      <trkpt lat="45.975242648273706" lon="10.459023518487811">
        <ele>2551.48</ele>
        <time>2018-07-08T08:47:30Z</time>
      </trkpt>
      <trkpt lat="45.975247258320451" lon="10.459023183211684">
        <ele>2551.48</ele>
        <time>2018-07-08T08:47:52Z</time>
      </trkpt>
      <trkpt lat="45.975242983549833" lon="10.459022512659431">
        <ele>2551.48</ele>
        <time>2018-07-08T08:48:19Z</time>
      </trkpt>
      <trkpt lat="45.975250946357846" lon="10.45903910882771">
        <ele>2551.48</ele>
        <time>2018-07-08T08:48:46Z</time>
      </trkpt>
      <trkpt lat="45.97528288140893" lon="10.459058471024036">
        <ele>2553.4000000000001</ele>
        <time>2018-07-08T08:48:54Z</time>
      </trkpt>
      <trkpt lat="45.975294699892402" lon="10.459063248708844">
        <ele>2551.96</ele>
        <time>2018-07-08T08:49:00Z</time>
      </trkpt>
      <trkpt lat="45.975304003804922" lon="10.459051933139563">
        <ele>2551.96</ele>
        <time>2018-07-08T08:49:25Z</time>
      </trkpt>
      <trkpt lat="45.975285395979881" lon="10.459065176546574">
        <ele>2551.96</ele>
        <time>2018-07-08T08:49:41Z</time>
      </trkpt>
      <trkpt lat="45.975274667143822" lon="10.459062494337559">
        <ele>2551.96</ele>
        <time>2018-07-08T08:50:02Z</time>
      </trkpt>
      <trkpt lat="45.975251197814941" lon="10.459042713046074">
        <ele>2551.96</ele>
        <time>2018-07-08T08:50:18Z</time>
      </trkpt>
      <trkpt lat="45.975243486464024" lon="10.459041371941566">
        <ele>2551.96</ele>
        <time>2018-07-08T08:50:31Z</time>
      </trkpt>
      <trkpt lat="45.975241474807262" lon="10.459039779379964">
        <ele>2551.96</ele>
        <time>2018-07-08T08:50:41Z</time>
      </trkpt>
      <trkpt lat="45.97523937933147" lon="10.459035504609346">
        <ele>2551.48</ele>
        <time>2018-07-08T08:50:52Z</time>
      </trkpt>
      <trkpt lat="45.97523401491344" lon="10.459037683904171">
        <ele>2551</ele>
        <time>2018-07-08T08:51:03Z</time>
      </trkpt>
      <trkpt lat="45.975240049883723" lon="10.459029050543904">
        <ele>2551</ele>
        <time>2018-07-08T08:51:33Z</time>
      </trkpt>
      <trkpt lat="45.975221190601587" lon="10.459031397476792">
        <ele>2551</ele>
        <time>2018-07-08T08:52:09Z</time>
      </trkpt>
      <trkpt lat="45.975211802870035" lon="10.459029050543904">
        <ele>2551</ele>
        <time>2018-07-08T08:52:31Z</time>
      </trkpt>
      <trkpt lat="45.975204426795244" lon="10.459031565114856">
        <ele>2551</ele>
        <time>2018-07-08T08:53:00Z</time>
      </trkpt>
      <trkpt lat="45.975204091519117" lon="10.459039863198996">
        <ele>2551</ele>
        <time>2018-07-08T08:53:22Z</time>
      </trkpt>
      <trkpt lat="45.975201828405261" lon="10.459036007523537">
        <ele>2551.48</ele>
        <time>2018-07-08T08:53:39Z</time>
      </trkpt>
      <trkpt lat="45.975180622190237" lon="10.45904790982604">
        <ele>2552.4400000000001</ele>
        <time>2018-07-08T08:53:48Z</time>
      </trkpt>
      <trkpt lat="45.975185316056013" lon="10.459036258980632">
        <ele>2551.96</ele>
        <time>2018-07-08T08:53:59Z</time>
      </trkpt>
      <trkpt lat="45.975198224186897" lon="10.459052184596658">
        <ele>2552.4400000000001</ele>
        <time>2018-07-08T08:54:09Z</time>
      </trkpt>
      <trkpt lat="45.975188333541155" lon="10.459053525701165">
        <ele>2552.4400000000001</ele>
        <time>2018-07-08T08:54:21Z</time>
      </trkpt>
      <trkpt lat="45.975197637453675" lon="10.45910800807178">
        <ele>2550.5100000000002</ele>
        <time>2018-07-08T08:54:32Z</time>
      </trkpt>
      <trkpt lat="45.975253293290734" lon="10.459079006686807">
        <ele>2550.5100000000002</ele>
        <time>2018-07-08T08:54:42Z</time>
      </trkpt>
      <trkpt lat="45.975296040996909" lon="10.459097195416689">
        <ele>2549.5500000000002</ele>
        <time>2018-07-08T08:54:53Z</time>
      </trkpt>
      <trkpt lat="45.975278355181217" lon="10.459114378318191">
        <ele>2550.0300000000002</ele>
        <time>2018-07-08T08:55:07Z</time>
      </trkpt>
      <trkpt lat="45.975307440385222" lon="10.459057716652751">
        <ele>2549.5500000000002</ele>
        <time>2018-07-08T08:55:15Z</time>
      </trkpt>
      <trkpt lat="45.975402826443315" lon="10.458984123542905">
        <ele>2549.5500000000002</ele>
        <time>2018-07-08T08:55:27Z</time>
      </trkpt>
      <trkpt lat="45.975470468401909" lon="10.458905668929219">
        <ele>2549.5500000000002</ele>
        <time>2018-07-08T08:55:38Z</time>
      </trkpt>
      <trkpt lat="45.975533751770854" lon="10.458830986171961">
        <ele>2550.0300000000002</ele>
        <time>2018-07-08T08:55:49Z</time>
      </trkpt>
      <trkpt lat="45.975596532225609" lon="10.45879720710218">
        <ele>2549.0700000000002</ele>
        <time>2018-07-08T08:56:01Z</time>
      </trkpt>
      <trkpt lat="45.975658809766173" lon="10.458755800500512">
        <ele>2548.1100000000001</ele>
        <time>2018-07-08T08:56:13Z</time>
      </trkpt>
      <trkpt lat="45.975724523887038" lon="10.458708526566625">
        <ele>2548.1100000000001</ele>
        <time>2018-07-08T08:56:25Z</time>
      </trkpt>
      <trkpt lat="45.975767271593213" lon="10.458688577637076">
        <ele>2547.6300000000001</ele>
        <time>2018-07-08T08:56:32Z</time>
      </trkpt>
      <trkpt lat="45.975860226899385" lon="10.458625294268131">
        <ele>2546.1900000000001</ele>
        <time>2018-07-08T08:56:42Z</time>
      </trkpt>
      <trkpt lat="45.975928036496043" lon="10.458573577925563">
        <ele>2544.27</ele>
        <time>2018-07-08T08:56:53Z</time>
      </trkpt>
      <trkpt lat="45.975986458361149" lon="10.458574332296848">
        <ele>2542.8200000000002</ele>
        <time>2018-07-08T08:57:01Z</time>
      </trkpt>
      <trkpt lat="45.97601973451674" lon="10.45853091403842">
        <ele>2542.3400000000001</ele>
        <time>2018-07-08T08:57:09Z</time>
      </trkpt>
      <trkpt lat="45.97607740201056" lon="10.458525130525231">
        <ele>2540.9000000000001</ele>
        <time>2018-07-08T08:57:17Z</time>
      </trkpt>
      <trkpt lat="45.976172871887684" lon="10.458543905988336">
        <ele>2539.46</ele>
        <time>2018-07-08T08:57:29Z</time>
      </trkpt>
      <trkpt lat="45.976252416148782" lon="10.458569973707199">
        <ele>2538.5</ele>
        <time>2018-07-08T08:57:39Z</time>
      </trkpt>
      <trkpt lat="45.976318549364805" lon="10.45860081911087">
        <ele>2538.02</ele>
        <time>2018-07-08T08:57:48Z</time>
      </trkpt>
      <trkpt lat="45.97639549523592" lon="10.458610961213708">
        <ele>2536.0999999999999</ele>
        <time>2018-07-08T08:57:58Z</time>
      </trkpt>
      <trkpt lat="45.976414522156119" lon="10.45861498452723">
        <ele>2536.0999999999999</ele>
        <time>2018-07-08T08:58:00Z</time>
      </trkpt>
      <trkpt lat="45.976491551846266" lon="10.458698971197009">
        <ele>2534.6500000000001</ele>
        <time>2018-07-08T08:58:13Z</time>
      </trkpt>
      <trkpt lat="45.976545782759786" lon="10.458739204332232">
        <ele>2532.25</ele>
        <time>2018-07-08T08:58:23Z</time>
      </trkpt>
      <trkpt lat="45.976634463295341" lon="10.458749430254102">
        <ele>2530.8099999999999</ele>
        <time>2018-07-08T08:58:34Z</time>
      </trkpt>
      <trkpt lat="45.976712834089994" lon="10.458707688376307">
        <ele>2529.8499999999999</ele>
        <time>2018-07-08T08:58:44Z</time>
      </trkpt>
      <trkpt lat="45.97676195204258" lon="10.458762673661113">
        <ele>2528.4000000000001</ele>
        <time>2018-07-08T08:58:54Z</time>
      </trkpt>
      <trkpt lat="45.976793887093663" lon="10.458809779956937">
        <ele>2527.4400000000001</ele>
        <time>2018-07-08T08:59:02Z</time>
      </trkpt>
      <trkpt lat="45.976818613708019" lon="10.458822436630726">
        <ele>2526</ele>
        <time>2018-07-08T08:59:12Z</time>
      </trkpt>
      <trkpt lat="45.976863540709019" lon="10.458839535713196">
        <ele>2525.52</ele>
        <time>2018-07-08T08:59:21Z</time>
      </trkpt>
      <trkpt lat="45.976922130212188" lon="10.458827465772629">
        <ele>2524.5599999999999</ele>
        <time>2018-07-08T08:59:30Z</time>
      </trkpt>
      <trkpt lat="45.977000501006842" lon="10.458837104961276">
        <ele>2522.6399999999999</ele>
        <time>2018-07-08T08:59:40Z</time>
      </trkpt>
      <trkpt lat="45.977053642272949" lon="10.458848588168621">
        <ele>2520.71</ele>
        <time>2018-07-08T08:59:50Z</time>
      </trkpt>
      <trkpt lat="45.977085409685969" lon="10.458853533491492">
        <ele>2519.27</ele>
        <time>2018-07-08T08:59:58Z</time>
      </trkpt>
      <trkpt lat="45.977122290059924" lon="10.458849761635065">
        <ele>2519.75</ele>
        <time>2018-07-08T09:00:06Z</time>
      </trkpt>
      <trkpt lat="45.9771719109267" lon="10.458903992548585">
        <ele>2517.3499999999999</ele>
        <time>2018-07-08T09:00:17Z</time>
      </trkpt>
      <trkpt lat="45.977153386920691" lon="10.458977585658431">
        <ele>2514.4699999999998</ele>
        <time>2018-07-08T09:00:27Z</time>
      </trkpt>
      <trkpt lat="45.977182136848569" lon="10.459034834057093">
        <ele>2512.54</ele>
        <time>2018-07-08T09:00:37Z</time>
      </trkpt>
      <trkpt lat="45.977245587855577" lon="10.459043802693486">
        <ele>2510.6199999999999</ele>
        <time>2018-07-08T09:00:46Z</time>
      </trkpt>
      <trkpt lat="45.977345835417509" lon="10.459014382213354">
        <ele>2510.1399999999999</ele>
        <time>2018-07-08T09:00:57Z</time>
      </trkpt>
      <trkpt lat="45.977394534274936" lon="10.45899510383606">
        <ele>2508.6999999999998</ele>
        <time>2018-07-08T09:01:04Z</time>
      </trkpt>
      <trkpt lat="45.977465696632862" lon="10.458953278139234">
        <ele>2509.1799999999998</ele>
        <time>2018-07-08T09:01:15Z</time>
      </trkpt>
      <trkpt lat="45.977520430460572" lon="10.458955205976963">
        <ele>2509.1799999999998</ele>
        <time>2018-07-08T09:01:24Z</time>
      </trkpt>
      <trkpt lat="45.977595197036862" lon="10.458931652829051">
        <ele>2509.1799999999998</ele>
        <time>2018-07-08T09:01:34Z</time>
      </trkpt>
      <trkpt lat="45.977657223120332" lon="10.458947075530887">
        <ele>2507.7399999999998</ele>
        <time>2018-07-08T09:01:44Z</time>
      </trkpt>
      <trkpt lat="45.977715896442533" lon="10.458922181278467">
        <ele>2505.3299999999999</ele>
        <time>2018-07-08T09:01:56Z</time>
      </trkpt>
      <trkpt lat="45.977770294994116" lon="10.458911117166281">
        <ele>2504.3699999999999</ele>
        <time>2018-07-08T09:02:05Z</time>
      </trkpt>
      <trkpt lat="45.977771719917655" lon="10.45895311050117">
        <ele>2503.8899999999999</ele>
        <time>2018-07-08T09:02:16Z</time>
      </trkpt>
      <trkpt lat="45.977824274450541" lon="10.458906255662441">
        <ele>2502.4499999999998</ele>
        <time>2018-07-08T09:02:27Z</time>
      </trkpt>
      <trkpt lat="45.977887138724327" lon="10.458920672535896">
        <ele>2501.0100000000002</ele>
        <time>2018-07-08T09:02:35Z</time>
      </trkpt>
      <trkpt lat="45.977939525619149" lon="10.458917655050755">
        <ele>2501.0100000000002</ele>
        <time>2018-07-08T09:02:42Z</time>
      </trkpt>
      <trkpt lat="45.977955954149365" lon="10.458906507119536">
        <ele>2500.5300000000002</ele>
        <time>2018-07-08T09:02:44Z</time>
      </trkpt>
      <trkpt lat="45.978032983839512" lon="10.458881612867117">
        <ele>2500.5300000000002</ele>
        <time>2018-07-08T09:02:56Z</time>
      </trkpt>
      <trkpt lat="45.978087550029159" lon="10.45888127759099">
        <ele>2500.0500000000002</ele>
        <time>2018-07-08T09:03:04Z</time>
      </trkpt>
      <trkpt lat="45.978096267208457" lon="10.458883624523878">
        <ele>2499.5700000000002</ele>
        <time>2018-07-08T09:03:05Z</time>
      </trkpt>
      <trkpt lat="45.978146977722645" lon="10.458879349753261">
        <ele>2498.5999999999999</ele>
        <time>2018-07-08T09:03:13Z</time>
      </trkpt>
      <trkpt lat="45.978214871138334" lon="10.458877002820373">
        <ele>2496.6799999999998</ele>
        <time>2018-07-08T09:03:23Z</time>
      </trkpt>
      <trkpt lat="45.978274131193757" lon="10.458893431350589">
        <ele>2494.7600000000002</ele>
        <time>2018-07-08T09:03:32Z</time>
      </trkpt>
      <trkpt lat="45.978333475068212" lon="10.458928383886814">
        <ele>2492.3600000000001</ele>
        <time>2018-07-08T09:03:42Z</time>
      </trkpt>
      <trkpt lat="45.978370858356357" lon="10.458920504897833">
        <ele>2491.3899999999999</ele>
        <time>2018-07-08T09:03:48Z</time>
      </trkpt>
      <trkpt lat="45.978388376533985" lon="10.458905501291156">
        <ele>2491.3899999999999</ele>
        <time>2018-07-08T09:03:50Z</time>
      </trkpt>
      <trkpt lat="45.97840229049325" lon="10.458892928436399">
        <ele>2491.3899999999999</ele>
        <time>2018-07-08T09:03:52Z</time>
      </trkpt>
      <trkpt lat="45.978434644639492" lon="10.458870381116867">
        <ele>2491.3899999999999</ele>
        <time>2018-07-08T09:03:57Z</time>
      </trkpt>
      <trkpt lat="45.978522067889571" lon="10.458819335326552">
        <ele>2491.3899999999999</ele>
        <time>2018-07-08T09:04:09Z</time>
      </trkpt>
      <trkpt lat="45.978536568582058" lon="10.458819083869457">
        <ele>2491.3899999999999</ele>
        <time>2018-07-08T09:04:11Z</time>
      </trkpt>
      <trkpt lat="45.97862265072763" lon="10.45878304168582">
        <ele>2490.4299999999998</ele>
        <time>2018-07-08T09:04:23Z</time>
      </trkpt>
      <trkpt lat="45.978657100349665" lon="10.458724536001682">
        <ele>2491.3899999999999</ele>
        <time>2018-07-08T09:04:33Z</time>
      </trkpt>
      <trkpt lat="45.978686604648829" lon="10.458681536838412">
        <ele>2491.3899999999999</ele>
        <time>2018-07-08T09:04:40Z</time>
      </trkpt>
      <trkpt lat="45.97872918471694" lon="10.45866921544075">
        <ele>2490.9099999999999</ele>
        <time>2018-07-08T09:04:45Z</time>
      </trkpt>
      <trkpt lat="45.978806214407086" lon="10.458696037530899">
        <ele>2489.9499999999998</ele>
        <time>2018-07-08T09:04:55Z</time>
      </trkpt>
      <trkpt lat="45.978875448927283" lon="10.458690254017711">
        <ele>2488.5100000000002</ele>
        <time>2018-07-08T09:05:05Z</time>
      </trkpt>
      <trkpt lat="45.978929847478867" lon="10.458734426647425">
        <ele>2487.0700000000002</ele>
        <time>2018-07-08T09:05:15Z</time>
      </trkpt>
      <trkpt lat="45.978959854692221" lon="10.458744736388326">
        <ele>2486.1100000000001</ele>
        <time>2018-07-08T09:05:19Z</time>
      </trkpt>
      <trkpt lat="45.979006206616759" lon="10.458729481324553">
        <ele>2485.6300000000001</ele>
        <time>2018-07-08T09:05:25Z</time>
      </trkpt>
      <trkpt lat="45.979072172194719" lon="10.458722859621048">
        <ele>2485.1500000000001</ele>
        <time>2018-07-08T09:05:33Z</time>
      </trkpt>
      <trkpt lat="45.979094719514251" lon="10.458718165755272">
        <ele>2485.6300000000001</ele>
        <time>2018-07-08T09:05:35Z</time>
      </trkpt>
      <trkpt lat="45.979162026196718" lon="10.45867558568716">
        <ele>2485.6300000000001</ele>
        <time>2018-07-08T09:05:46Z</time>
      </trkpt>
      <trkpt lat="45.97923151217401" lon="10.458646081387997">
        <ele>2485.1500000000001</ele>
        <time>2018-07-08T09:05:56Z</time>
      </trkpt>
      <trkpt lat="45.979304853826761" lon="10.458627641201019">
        <ele>2485.6300000000001</ele>
        <time>2018-07-08T09:06:07Z</time>
      </trkpt>
      <trkpt lat="45.979371322318912" lon="10.45860375277698">
        <ele>2485.6300000000001</ele>
        <time>2018-07-08T09:06:17Z</time>
      </trkpt>
      <trkpt lat="45.979416249319911" lon="10.458571901544929">
        <ele>2485.6300000000001</ele>
        <time>2018-07-08T09:06:22Z</time>
      </trkpt>
      <trkpt lat="45.97950560040772" lon="10.458513647317886">
        <ele>2485.6300000000001</ele>
        <time>2018-07-08T09:06:34Z</time>
      </trkpt>
      <trkpt lat="45.979548934847116" lon="10.458481628447771">
        <ele>2485.6300000000001</ele>
        <time>2018-07-08T09:06:41Z</time>
      </trkpt>
      <trkpt lat="45.979521526023746" lon="10.458479449152946">
        <ele>2485.1500000000001</ele>
        <time>2018-07-08T09:06:50Z</time>
      </trkpt>
      <trkpt lat="45.979614900425076" lon="10.45847961679101">
        <ele>2483.6999999999998</ele>
        <time>2018-07-08T09:07:01Z</time>
      </trkpt>
      <trkpt lat="45.979702994227409" lon="10.458479449152946">
        <ele>2483.2199999999998</ele>
        <time>2018-07-08T09:07:12Z</time>
      </trkpt>
      <trkpt lat="45.979768205434084" lon="10.45844835229218">
        <ele>2483.6999999999998</ele>
        <time>2018-07-08T09:07:22Z</time>
      </trkpt>
      <trkpt lat="45.979858310893178" lon="10.458416165784001">
        <ele>2483.2199999999998</ele>
        <time>2018-07-08T09:07:33Z</time>
      </trkpt>
      <trkpt lat="45.979919917881489" lon="10.458389092236757">
        <ele>2483.2199999999998</ele>
        <time>2018-07-08T09:07:42Z</time>
      </trkpt>
      <trkpt lat="45.979994433000684" lon="10.458423290401697">
        <ele>2483.2199999999998</ele>
        <time>2018-07-08T09:07:51Z</time>
      </trkpt>
      <trkpt lat="45.980052435770631" lon="10.458409460261464">
        <ele>2482.7399999999998</ele>
        <time>2018-07-08T09:08:02Z</time>
      </trkpt>
      <trkpt lat="45.98005679436028" lon="10.458405185490847">
        <ele>2482.7399999999998</ele>
        <time>2018-07-08T09:08:03Z</time>
      </trkpt>
      <trkpt lat="45.980074815452099" lon="10.45839655213058">
        <ele>2482.7399999999998</ele>
        <time>2018-07-08T09:08:05Z</time>
      </trkpt>
      <trkpt lat="45.980137595906854" lon="10.458382721990347">
        <ele>2482.2600000000002</ele>
        <time>2018-07-08T09:08:14Z</time>
      </trkpt>
      <trkpt lat="45.980216050520539" lon="10.458373334258795">
        <ele>2481.3000000000002</ele>
        <time>2018-07-08T09:08:24Z</time>
      </trkpt>
      <trkpt lat="45.980284614488482" lon="10.45835942029953">
        <ele>2479.8600000000001</ele>
        <time>2018-07-08T09:08:34Z</time>
      </trkpt>
      <trkpt lat="45.980334570631385" lon="10.458374172449112">
        <ele>2479.8600000000001</ele>
        <time>2018-07-08T09:08:44Z</time>
      </trkpt>
      <trkpt lat="45.980397602543235" lon="10.45836235396564">
        <ele>2479.8600000000001</ele>
        <time>2018-07-08T09:08:54Z</time>
      </trkpt>
      <trkpt lat="45.980435404926538" lon="10.458364952355623">
        <ele>2479.8600000000001</ele>
        <time>2018-07-08T09:08:59Z</time>
      </trkpt>
      <trkpt lat="45.980529366061091" lon="10.458337543532252">
        <ele>2479.8600000000001</ele>
        <time>2018-07-08T09:09:11Z</time>
      </trkpt>
      <trkpt lat="45.980564653873444" lon="10.458278199657798">
        <ele>2480.3400000000001</ele>
        <time>2018-07-08T09:09:21Z</time>
      </trkpt>
      <trkpt lat="45.980598768219352" lon="10.458213659003377">
        <ele>2481.7800000000002</ele>
        <time>2018-07-08T09:09:30Z</time>
      </trkpt>
      <trkpt lat="45.980673870071769" lon="10.458143418654799">
        <ele>2481.7800000000002</ele>
        <time>2018-07-08T09:09:41Z</time>
      </trkpt>
      <trkpt lat="45.980752827599645" lon="10.458114417269826">
        <ele>2482.2600000000002</ele>
        <time>2018-07-08T09:09:51Z</time>
      </trkpt>
      <trkpt lat="45.980823487043381" lon="10.458095977082849">
        <ele>2482.2600000000002</ele>
        <time>2018-07-08T09:10:00Z</time>
      </trkpt>
      <trkpt lat="45.980862211436033" lon="10.458102682605386">
        <ele>2481.7800000000002</ele>
        <time>2018-07-08T09:10:09Z</time>
      </trkpt>
      <trkpt lat="45.980910323560238" lon="10.458062952384353">
        <ele>2481.3000000000002</ele>
        <time>2018-07-08T09:10:14Z</time>
      </trkpt>
      <trkpt lat="45.980998585000634" lon="10.458109555765986">
        <ele>2480.3400000000001</ele>
        <time>2018-07-08T09:10:24Z</time>
      </trkpt>
      <trkpt lat="45.981090283021331" lon="10.458174766972661">
        <ele>2479.3800000000001</ele>
        <time>2018-07-08T09:10:35Z</time>
      </trkpt>
      <trkpt lat="45.981107633560896" lon="10.458177281543612">
        <ele>2478.9000000000001</ele>
        <time>2018-07-08T09:10:38Z</time>
      </trkpt>
      <trkpt lat="45.981135461479425" lon="10.458135455846786">
        <ele>2477.9400000000001</ele>
        <time>2018-07-08T09:10:49Z</time>
      </trkpt>
      <trkpt lat="45.981152225285769" lon="10.458125481382012">
        <ele>2476.4899999999998</ele>
        <time>2018-07-08T09:10:58Z</time>
      </trkpt>
      <trkpt lat="45.981156751513481" lon="10.458139982074499">
        <ele>2476.0100000000002</ele>
        <time>2018-07-08T09:11:01Z</time>
      </trkpt>
      <trkpt lat="45.981205953285098" lon="10.458189770579338">
        <ele>2474.0900000000001</ele>
        <time>2018-07-08T09:11:11Z</time>
      </trkpt>
      <trkpt lat="45.981197655200958" lon="10.458270907402039">
        <ele>2471.21</ele>
        <time>2018-07-08T09:11:21Z</time>
      </trkpt>
      <trkpt lat="45.981243252754211" lon="10.4582729190588">
        <ele>2469.7600000000002</ele>
        <time>2018-07-08T09:11:31Z</time>
      </trkpt>
      <trkpt lat="45.981311062350869" lon="10.458318097516894">
        <ele>2466.8800000000001</ele>
        <time>2018-07-08T09:11:42Z</time>
      </trkpt>
      <trkpt lat="45.981370322406292" lon="10.458330335095525">
        <ele>2464.96</ele>
        <time>2018-07-08T09:11:51Z</time>
      </trkpt>
      <trkpt lat="45.98141566850245" lon="10.45837601646781">
        <ele>2462.5500000000002</ele>
        <time>2018-07-08T09:12:00Z</time>
      </trkpt>
      <trkpt lat="45.981444837525487" lon="10.458403509110212">
        <ele>2462.0700000000002</ele>
        <time>2018-07-08T09:12:05Z</time>
      </trkpt>
      <trkpt lat="45.981523375958204" lon="10.45846788212657">
        <ele>2460.6300000000001</ele>
        <time>2018-07-08T09:12:16Z</time>
      </trkpt>
      <trkpt lat="45.981574505567551" lon="10.458477102220058">
        <ele>2459.6700000000001</ele>
        <time>2018-07-08T09:12:23Z</time>
      </trkpt>
      <trkpt lat="45.981588251888752" lon="10.458494955673814">
        <ele>2459.1900000000001</ele>
        <time>2018-07-08T09:12:25Z</time>
      </trkpt>
      <trkpt lat="45.981605937704444" lon="10.458510378375649">
        <ele>2458.71</ele>
        <time>2018-07-08T09:12:27Z</time>
      </trkpt>
      <trkpt lat="45.981620773673058" lon="10.458524459972978">
        <ele>2458.23</ele>
        <time>2018-07-08T09:12:29Z</time>
      </trkpt>
      <trkpt lat="45.981617420911789" lon="10.458563435822725">
        <ele>2457.75</ele>
        <time>2018-07-08T09:12:40Z</time>
      </trkpt>
      <trkpt lat="45.981634352356195" lon="10.458555808290839">
        <ele>2457.75</ele>
        <time>2018-07-08T09:12:42Z</time>
      </trkpt>
      <trkpt lat="45.981668718159199" lon="10.458545498549938">
        <ele>2457.27</ele>
        <time>2018-07-08T09:12:45Z</time>
      </trkpt>
      <trkpt lat="45.98174742422998" lon="10.458563268184662">
        <ele>2455.3400000000001</ele>
        <time>2018-07-08T09:12:55Z</time>
      </trkpt>
      <trkpt lat="45.981763517484069" lon="10.458556143566966">
        <ele>2454.8600000000001</ele>
        <time>2018-07-08T09:12:58Z</time>
      </trkpt>
      <trkpt lat="45.981819089502096" lon="10.458617582917213">
        <ele>2452.9400000000001</ele>
        <time>2018-07-08T09:13:08Z</time>
      </trkpt>
      <trkpt lat="45.981867117807269" lon="10.458644153550267">
        <ele>2451.02</ele>
        <time>2018-07-08T09:13:19Z</time>
      </trkpt>
      <trkpt lat="45.98191506229341" lon="10.458704000338912">
        <ele>2449.0999999999999</ele>
        <time>2018-07-08T09:13:30Z</time>
      </trkpt>
      <trkpt lat="45.981956720352173" lon="10.45878991484642">
        <ele>2447.1700000000001</ele>
        <time>2018-07-08T09:13:42Z</time>
      </trkpt>
      <trkpt lat="45.982030648738146" lon="10.458808187395334">
        <ele>2447.1700000000001</ele>
        <time>2018-07-08T09:13:52Z</time>
      </trkpt>
      <trkpt lat="45.982122430577874" lon="10.45883827842772">
        <ele>2444.77</ele>
        <time>2018-07-08T09:14:04Z</time>
      </trkpt>
      <trkpt lat="45.982138020917773" lon="10.458842134103179">
        <ele>2444.29</ele>
        <time>2018-07-08T09:14:06Z</time>
      </trkpt>
      <trkpt lat="45.982160484418273" lon="10.458924360573292">
        <ele>2441.8899999999999</ele>
        <time>2018-07-08T09:14:15Z</time>
      </trkpt>
      <trkpt lat="45.982232568785548" lon="10.45896484516561">
        <ele>2439.48</ele>
        <time>2018-07-08T09:14:26Z</time>
      </trkpt>
      <trkpt lat="45.982274562120438" lon="10.45896970666945">
        <ele>2438.04</ele>
        <time>2018-07-08T09:14:33Z</time>
      </trkpt>
      <trkpt lat="45.982367349788547" lon="10.458984626457095">
        <ele>2436.5999999999999</ele>
        <time>2018-07-08T09:14:44Z</time>
      </trkpt>
      <trkpt lat="45.982454521581531" lon="10.458951015025377">
        <ele>2436.5999999999999</ele>
        <time>2018-07-08T09:14:54Z</time>
      </trkpt>
      <trkpt lat="45.982480421662331" lon="10.458934502676129">
        <ele>2437.0799999999999</ele>
        <time>2018-07-08T09:15:03Z</time>
      </trkpt>
      <trkpt lat="45.982478577643633" lon="10.458907429128885">
        <ele>2436.5999999999999</ele>
        <time>2018-07-08T09:15:15Z</time>
      </trkpt>
      <trkpt lat="45.982517553493381" lon="10.458917738869786">
        <ele>2435.6399999999999</ele>
        <time>2018-07-08T09:15:24Z</time>
      </trkpt>
      <trkpt lat="45.982566503807902" lon="10.458936514332891">
        <ele>2434.6799999999998</ele>
        <time>2018-07-08T09:15:34Z</time>
      </trkpt>
      <trkpt lat="45.982638001441956" lon="10.458956463262439">
        <ele>2434.1999999999998</ele>
        <time>2018-07-08T09:15:45Z</time>
      </trkpt>
      <trkpt lat="45.982669098302722" lon="10.459019746631384">
        <ele>2433.23</ele>
        <time>2018-07-08T09:15:54Z</time>
      </trkpt>
      <trkpt lat="45.982741517946124" lon="10.459053106606007">
        <ele>2432.27</ele>
        <time>2018-07-08T09:16:05Z</time>
      </trkpt>
      <trkpt lat="45.98281410522759" lon="10.459051681682467">
        <ele>2431.3099999999999</ele>
        <time>2018-07-08T09:16:15Z</time>
      </trkpt>
      <trkpt lat="45.982867078855634" lon="10.459071043878794">
        <ele>2429.8699999999999</ele>
        <time>2018-07-08T09:16:24Z</time>
      </trkpt>
      <trkpt lat="45.982912760227919" lon="10.459071714431047">
        <ele>2429.3899999999999</ele>
        <time>2018-07-08T09:16:34Z</time>
      </trkpt>
      <trkpt lat="45.982933212071657" lon="10.459081269800663">
        <ele>2428.9099999999999</ele>
        <time>2018-07-08T09:16:45Z</time>
      </trkpt>
      <trkpt lat="45.982947126030922" lon="10.459081437438726">
        <ele>2428.4299999999998</ele>
        <time>2018-07-08T09:17:00Z</time>
      </trkpt>
      <trkpt lat="45.98297193646431" lon="10.459083365276456">
        <ele>2428.4299999999998</ele>
        <time>2018-07-08T09:17:10Z</time>
      </trkpt>
      <trkpt lat="45.983010241761804" lon="10.4591104388237">
        <ele>2426.5</ele>
        <time>2018-07-08T09:17:20Z</time>
      </trkpt>
      <trkpt lat="45.983011079952121" lon="10.459085125476122">
        <ele>2426.5</ele>
        <time>2018-07-08T09:17:36Z</time>
      </trkpt>
      <trkpt lat="45.983037399128079" lon="10.459128879010677">
        <ele>2426.02</ele>
        <time>2018-07-08T09:17:47Z</time>
      </trkpt>
      <trkpt lat="45.983107723295689" lon="10.459109432995319">
        <ele>2424.0999999999999</ele>
        <time>2018-07-08T09:17:56Z</time>
      </trkpt>
      <trkpt lat="45.983122223988175" lon="10.459122005850077">
        <ele>2423.6199999999999</ele>
        <time>2018-07-08T09:18:05Z</time>
      </trkpt>
      <trkpt lat="45.983127169311047" lon="10.459126951172948">
        <ele>2423.1399999999999</ele>
        <time>2018-07-08T09:18:07Z</time>
      </trkpt>
      <trkpt lat="45.983202857896686" lon="10.459118569269776">
        <ele>2421.2199999999998</ele>
        <time>2018-07-08T09:18:17Z</time>
      </trkpt>
      <trkpt lat="45.983272511512041" lon="10.459089819341898">
        <ele>2419.3000000000002</ele>
        <time>2018-07-08T09:18:28Z</time>
      </trkpt>
      <trkpt lat="45.983312577009201" lon="10.459074480459094">
        <ele>2417.8499999999999</ele>
        <time>2018-07-08T09:18:38Z</time>
      </trkpt>
      <trkpt lat="45.983387511223555" lon="10.459052016958594">
        <ele>2416.4099999999999</ele>
        <time>2018-07-08T09:18:48Z</time>
      </trkpt>
      <trkpt lat="45.983419949188828" lon="10.459065344184637">
        <ele>2415.9299999999998</ele>
        <time>2018-07-08T09:18:51Z</time>
      </trkpt>
      <trkpt lat="45.983467139303684" lon="10.459133153781295">
        <ele>2414.9699999999998</ele>
        <time>2018-07-08T09:18:58Z</time>
      </trkpt>
      <trkpt lat="45.983565542846918" lon="10.459137763828039">
        <ele>2414.4899999999998</ele>
        <time>2018-07-08T09:19:09Z</time>
      </trkpt>
      <trkpt lat="45.983653720468283" lon="10.459155114367604">
        <ele>2412.5700000000002</ele>
        <time>2018-07-08T09:19:20Z</time>
      </trkpt>
      <trkpt lat="45.983730414882302" lon="10.459149749949574">
        <ele>2411.5999999999999</ele>
        <time>2018-07-08T09:19:31Z</time>
      </trkpt>
      <trkpt lat="45.983750782907009" lon="10.459146061912179">
        <ele>2411.1199999999999</ele>
        <time>2018-07-08T09:19:34Z</time>
      </trkpt>
      <trkpt lat="45.983828231692314" lon="10.459163580089808">
        <ele>2410.1599999999999</ele>
        <time>2018-07-08T09:19:44Z</time>
      </trkpt>
      <trkpt lat="45.983917331323028" lon="10.459201131016016">
        <ele>2408.7199999999998</ele>
        <time>2018-07-08T09:19:54Z</time>
      </trkpt>
      <trkpt lat="45.983954044058919" lon="10.459208507090807">
        <ele>2408.7199999999998</ele>
        <time>2018-07-08T09:19:58Z</time>
      </trkpt>
      <trkpt lat="45.98404792137444" lon="10.459222923964262">
        <ele>2407.7600000000002</ele>
        <time>2018-07-08T09:20:08Z</time>
      </trkpt>
      <trkpt lat="45.984094189479947" lon="10.459210937842727">
        <ele>2407.7600000000002</ele>
        <time>2018-07-08T09:20:16Z</time>
      </trkpt>
      <trkpt lat="45.984108857810497" lon="10.459203226491809">
        <ele>2407.7600000000002</ele>
        <time>2018-07-08T09:20:19Z</time>
      </trkpt>
      <trkpt lat="45.984165770933032" lon="10.459184367209673">
        <ele>2408.2399999999998</ele>
        <time>2018-07-08T09:20:25Z</time>
      </trkpt>
      <trkpt lat="45.984263168647885" lon="10.459199119359255">
        <ele>2407.7600000000002</ele>
        <time>2018-07-08T09:20:36Z</time>
      </trkpt>
      <trkpt lat="45.984292756766081" lon="10.459214961156249">
        <ele>2408.7199999999998</ele>
        <time>2018-07-08T09:20:43Z</time>
      </trkpt>
      <trkpt lat="45.984358470886946" lon="10.459194844588637">
        <ele>2408.7199999999998</ele>
        <time>2018-07-08T09:20:50Z</time>
      </trkpt>
      <trkpt lat="45.984446564689279" lon="10.459170369431376">
        <ele>2407.2800000000002</ele>
        <time>2018-07-08T09:21:01Z</time>
      </trkpt>
      <trkpt lat="45.984528204426169" lon="10.459156958386302">
        <ele>2406.3200000000002</ele>
        <time>2018-07-08T09:21:11Z</time>
      </trkpt>
      <trkpt lat="45.9845663420856" lon="10.459172213450074">
        <ele>2405.8400000000001</ele>
        <time>2018-07-08T09:21:19Z</time>
      </trkpt>
      <trkpt lat="45.984557205811143" lon="10.459201047196984">
        <ele>2406.8000000000002</ele>
        <time>2018-07-08T09:21:31Z</time>
      </trkpt>
      <trkpt lat="45.984540190547705" lon="10.459199035540223">
        <ele>2405.3600000000001</ele>
        <time>2018-07-08T09:21:46Z</time>
      </trkpt>
      <trkpt lat="45.984553350135684" lon="10.45920574106276">
        <ele>2404.3899999999999</ele>
        <time>2018-07-08T09:22:01Z</time>
      </trkpt>
      <trkpt lat="45.984550416469574" lon="10.459209177643061">
        <ele>2405.8400000000001</ele>
        <time>2018-07-08T09:22:18Z</time>
      </trkpt>
      <trkpt lat="45.98457564599812" lon="10.45917397364974">
        <ele>2405.8400000000001</ele>
        <time>2018-07-08T09:22:27Z</time>
      </trkpt>
      <trkpt lat="45.984631972387433" lon="10.45914757065475">
        <ele>2405.3600000000001</ele>
        <time>2018-07-08T09:22:36Z</time>
      </trkpt>
      <trkpt lat="45.984643707051873" lon="10.459140529856086">
        <ele>2405.3600000000001</ele>
        <time>2018-07-08T09:22:37Z</time>
      </trkpt>
      <trkpt lat="45.984729873016477" lon="10.459115719422698">
        <ele>2403.4299999999998</ele>
        <time>2018-07-08T09:22:49Z</time>
      </trkpt>
      <trkpt lat="45.984795838594437" lon="10.459150839596987">
        <ele>2401.5100000000002</ele>
        <time>2018-07-08T09:22:58Z</time>
      </trkpt>
      <trkpt lat="45.984882172197104" lon="10.459147905930877">
        <ele>2399.1100000000001</ele>
        <time>2018-07-08T09:23:08Z</time>
      </trkpt>
      <trkpt lat="45.984912179410458" lon="10.459161149337888">
        <ele>2397.6700000000001</ele>
        <time>2018-07-08T09:23:17Z</time>
      </trkpt>
      <trkpt lat="45.984977055341005" lon="10.459182187914848">
        <ele>2396.6999999999998</ele>
        <time>2018-07-08T09:23:27Z</time>
      </trkpt>
      <trkpt lat="45.985034974291921" lon="10.459223175421357">
        <ele>2395.2600000000002</ele>
        <time>2018-07-08T09:23:36Z</time>
      </trkpt>
      <trkpt lat="45.985104376450181" lon="10.459227953106165">
        <ele>2394.7800000000002</ele>
        <time>2018-07-08T09:23:46Z</time>
      </trkpt>
      <trkpt lat="45.985160702839494" lon="10.45925410464406">
        <ele>2393.3400000000001</ele>
        <time>2018-07-08T09:23:56Z</time>
      </trkpt>
      <trkpt lat="45.98518492653966" lon="10.459293248131871">
        <ele>2391.4200000000001</ele>
        <time>2018-07-08T09:24:04Z</time>
      </trkpt>
      <trkpt lat="45.985267739742994" lon="10.459280340000987">
        <ele>2391.9000000000001</ele>
        <time>2018-07-08T09:24:15Z</time>
      </trkpt>
      <trkpt lat="45.985329765826464" lon="10.459263073280454">
        <ele>2390.46</ele>
        <time>2018-07-08T09:24:26Z</time>
      </trkpt>
      <trkpt lat="45.985385170206428" lon="10.459301210939884">
        <ele>2388.5300000000002</ele>
        <time>2018-07-08T09:24:36Z</time>
      </trkpt>
      <trkpt lat="45.985410902649164" lon="10.459353262558579">
        <ele>2386.1300000000001</ele>
        <time>2018-07-08T09:24:43Z</time>
      </trkpt>
      <trkpt lat="45.985465804114938" lon="10.45937723480165">
        <ele>2385.6500000000001</ele>
        <time>2018-07-08T09:24:49Z</time>
      </trkpt>
      <trkpt lat="45.985545264557004" lon="10.459342114627361">
        <ele>2386.1300000000001</ele>
        <time>2018-07-08T09:24:59Z</time>
      </trkpt>
      <trkpt lat="45.985648948699236" lon="10.459399027749896">
        <ele>2385.1700000000001</ele>
        <time>2018-07-08T09:25:11Z</time>
      </trkpt>
      <trkpt lat="45.985654564574361" lon="10.459399949759245">
        <ele>2384.21</ele>
        <time>2018-07-08T09:25:13Z</time>
      </trkpt>
      <trkpt lat="45.985677028074861" lon="10.459389723837376">
        <ele>2384.21</ele>
        <time>2018-07-08T09:25:16Z</time>
      </trkpt>
      <trkpt lat="45.98571851849556" lon="10.459423754364252">
        <ele>2382.7600000000002</ele>
        <time>2018-07-08T09:25:22Z</time>
      </trkpt>
      <trkpt lat="45.985796386376023" lon="10.459522912278771">
        <ele>2381.8000000000002</ele>
        <time>2018-07-08T09:25:33Z</time>
      </trkpt>
      <trkpt lat="45.985910715535283" lon="10.459545459598303">
        <ele>2380.3600000000001</ele>
        <time>2018-07-08T09:25:46Z</time>
      </trkpt>
      <trkpt lat="45.985935023054481" lon="10.459559205919504">
        <ele>2379.4000000000001</ele>
        <time>2018-07-08T09:25:57Z</time>
      </trkpt>
      <trkpt lat="45.985957738012075" lon="10.459613353013992">
        <ele>2378.9200000000001</ele>
        <time>2018-07-08T09:26:06Z</time>
      </trkpt>
      <trkpt lat="45.985988583415747" lon="10.459638498723507">
        <ele>2377.96</ele>
        <time>2018-07-08T09:26:16Z</time>
      </trkpt>
      <trkpt lat="45.986058237031102" lon="10.459645874798298">
        <ele>2376.04</ele>
        <time>2018-07-08T09:26:26Z</time>
      </trkpt>
      <trkpt lat="45.986108276993036" lon="10.459628272801638">
        <ele>2374.5900000000001</ele>
        <time>2018-07-08T09:26:35Z</time>
      </trkpt>
      <trkpt lat="45.986131997779012" lon="10.459628524258733">
        <ele>2374.5900000000001</ele>
        <time>2018-07-08T09:26:38Z</time>
      </trkpt>
      <trkpt lat="45.986151276156306" lon="10.459644198417664">
        <ele>2374.5900000000001</ele>
        <time>2018-07-08T09:26:41Z</time>
      </trkpt>
      <trkpt lat="45.986193688586354" lon="10.459670852869749">
        <ele>2374.5900000000001</ele>
        <time>2018-07-08T09:26:47Z</time>
      </trkpt>
      <trkpt lat="45.986236017197371" lon="10.459669595584273">
        <ele>2375.5500000000002</ele>
        <time>2018-07-08T09:26:58Z</time>
      </trkpt>
      <trkpt lat="45.986250936985016" lon="10.459644868969917">
        <ele>2375.5500000000002</ele>
        <time>2018-07-08T09:27:09Z</time>
      </trkpt>
      <trkpt lat="45.986272897571325" lon="10.459650568664074">
        <ele>2375.0700000000002</ele>
        <time>2018-07-08T09:27:16Z</time>
      </trkpt>
      <trkpt lat="45.986287817358971" lon="10.459710247814655">
        <ele>2372.6700000000001</ele>
        <time>2018-07-08T09:27:25Z</time>
      </trkpt>
      <trkpt lat="45.986313885077834" lon="10.459730783477426">
        <ele>2370.75</ele>
        <time>2018-07-08T09:27:35Z</time>
      </trkpt>
      <trkpt lat="45.986329140141606" lon="10.459758695214987">
        <ele>2370.27</ele>
        <time>2018-07-08T09:27:43Z</time>
      </trkpt>
      <trkpt lat="45.986347161233425" lon="10.459762802347541">
        <ele>2369.3099999999999</ele>
        <time>2018-07-08T09:27:50Z</time>
      </trkpt>
      <trkpt lat="45.986384712159634" lon="10.459776129573584">
        <ele>2367.8600000000001</ele>
        <time>2018-07-08T09:27:59Z</time>
      </trkpt>
      <trkpt lat="45.986430142074823" lon="10.459807896986604">
        <ele>2366.9000000000001</ele>
        <time>2018-07-08T09:28:05Z</time>
      </trkpt>
      <trkpt lat="45.986485797911882" lon="10.45987562276423">
        <ele>2366.4200000000001</ele>
        <time>2018-07-08T09:28:18Z</time>
      </trkpt>
      <trkpt lat="45.986489150673151" lon="10.459870593622327">
        <ele>2366.4200000000001</ele>
        <time>2018-07-08T09:28:33Z</time>
      </trkpt>
      <trkpt lat="45.986502645537257" lon="10.459863385185599">
        <ele>2366.4200000000001</ele>
        <time>2018-07-08T09:28:48Z</time>
      </trkpt>
      <trkpt lat="45.986503735184669" lon="10.45988735742867">
        <ele>2366.4200000000001</ele>
        <time>2018-07-08T09:29:04Z</time>
      </trkpt>
      <trkpt lat="45.98648370243609" lon="10.459871515631676">
        <ele>2366.9000000000001</ele>
        <time>2018-07-08T09:29:14Z</time>
      </trkpt>
      <trkpt lat="45.986497784033418" lon="10.459878891706467">
        <ele>2365.9400000000001</ele>
        <time>2018-07-08T09:29:24Z</time>
      </trkpt>
      <trkpt lat="45.986493173986673" lon="10.459868581965566">
        <ele>2365.46</ele>
        <time>2018-07-08T09:29:46Z</time>
      </trkpt>
      <trkpt lat="45.986485965549946" lon="10.459872270002961">
        <ele>2365.46</ele>
        <time>2018-07-08T09:30:09Z</time>
      </trkpt>
      <trkpt lat="45.986500130966306" lon="10.459871683269739">
        <ele>2365.46</ele>
        <time>2018-07-08T09:30:23Z</time>
      </trkpt>
      <trkpt lat="45.986512200906873" lon="10.459875119850039">
        <ele>2365.46</ele>
        <time>2018-07-08T09:30:48Z</time>
      </trkpt>
      <trkpt lat="45.986514883115888" lon="10.459871264174581">
        <ele>2365.46</ele>
        <time>2018-07-08T09:31:11Z</time>
      </trkpt>
      <trkpt lat="45.986492419615388" lon="10.459880651906133">
        <ele>2365.46</ele>
        <time>2018-07-08T09:31:32Z</time>
      </trkpt>
      <trkpt lat="45.986490994691849" lon="10.459898253902793">
        <ele>2364.98</ele>
        <time>2018-07-08T09:31:48Z</time>
      </trkpt>
      <trkpt lat="45.986483534798026" lon="10.459906719624996">
        <ele>2364.98</ele>
        <time>2018-07-08T09:32:06Z</time>
      </trkpt>
      <trkpt lat="45.986472805961967" lon="10.459909066557884">
        <ele>2364.98</ele>
        <time>2018-07-08T09:32:38Z</time>
      </trkpt>
      <trkpt lat="45.986477080732584" lon="10.459909737110138">
        <ele>2364.98</ele>
        <time>2018-07-08T09:33:05Z</time>
      </trkpt>
      <trkpt lat="45.986472303047776" lon="10.459913928061724">
        <ele>2364.98</ele>
        <time>2018-07-08T09:33:22Z</time>
      </trkpt>
      <trkpt lat="45.986479260027409" lon="10.459870509803295">
        <ele>2365.46</ele>
        <time>2018-07-08T09:33:33Z</time>
      </trkpt>
      <trkpt lat="45.986481690779328" lon="10.459843352437019">
        <ele>2365.9400000000001</ele>
        <time>2018-07-08T09:33:52Z</time>
      </trkpt>
      <trkpt lat="45.986496778205037" lon="10.459882160648704">
        <ele>2365.9400000000001</ele>
        <time>2018-07-08T09:34:03Z</time>
      </trkpt>
      <trkpt lat="45.986489737406373" lon="10.45990495942533">
        <ele>2365.46</ele>
        <time>2018-07-08T09:34:18Z</time>
      </trkpt>
      <trkpt lat="45.986485630273819" lon="10.459908731281757">
        <ele>2365.46</ele>
        <time>2018-07-08T09:34:32Z</time>
      </trkpt>
      <trkpt lat="45.986488731577992" lon="10.459881657734513">
        <ele>2365.46</ele>
        <time>2018-07-08T09:34:50Z</time>
      </trkpt>
      <trkpt lat="45.986485546454787" lon="10.459872270002961">
        <ele>2365.46</ele>
        <time>2018-07-08T09:35:07Z</time>
      </trkpt>
      <trkpt lat="45.986488312482834" lon="10.459875119850039">
        <ele>2364.98</ele>
        <time>2018-07-08T09:35:25Z</time>
      </trkpt>
      <trkpt lat="45.986485294997692" lon="10.459871431812644">
        <ele>2364.98</ele>
        <time>2018-07-08T09:35:44Z</time>
      </trkpt>
      <trkpt lat="45.98648470826447" lon="10.459851734340191">
        <ele>2364.98</ele>
        <time>2018-07-08T09:36:09Z</time>
      </trkpt>
      <trkpt lat="45.986492754891515" lon="10.459872772917151">
        <ele>2364.5</ele>
        <time>2018-07-08T09:36:26Z</time>
      </trkpt>
      <trkpt lat="45.986494012176991" lon="10.459866402670741">
        <ele>2364.98</ele>
        <time>2018-07-08T09:36:43Z</time>
      </trkpt>
      <trkpt lat="45.986495101824403" lon="10.459877550601959">
        <ele>2365.46</ele>
        <time>2018-07-08T09:37:02Z</time>
      </trkpt>
      <trkpt lat="45.986484289169312" lon="10.459874784573913">
        <ele>2365.46</ele>
        <time>2018-07-08T09:37:19Z</time>
      </trkpt>
      <trkpt lat="45.986481523141265" lon="10.459868079051375">
        <ele>2364.98</ele>
        <time>2018-07-08T09:37:35Z</time>
      </trkpt>
      <trkpt lat="45.98649300634861" lon="10.459887189790606">
        <ele>2364.98</ele>
        <time>2018-07-08T09:37:51Z</time>
      </trkpt>
      <trkpt lat="45.986506417393684" lon="10.459879729896784">
        <ele>2364.98</ele>
        <time>2018-07-08T09:38:05Z</time>
      </trkpt>
      <trkpt lat="45.986503483727574" lon="10.459889620542526">
        <ele>2364.98</ele>
        <time>2018-07-08T09:38:23Z</time>
      </trkpt>
      <trkpt lat="45.986526617780328" lon="10.45991669408977">
        <ele>2365.46</ele>
        <time>2018-07-08T09:38:33Z</time>
      </trkpt>
      <trkpt lat="45.986532904207706" lon="10.459902612492442">
        <ele>2365.46</ele>
        <time>2018-07-08T09:38:49Z</time>
      </trkpt>
      <trkpt lat="45.986527539789677" lon="10.459896493703127">
        <ele>2364.98</ele>
        <time>2018-07-08T09:39:06Z</time>
      </trkpt>
      <trkpt lat="45.986532401293516" lon="10.459903618320823">
        <ele>2365.46</ele>
        <time>2018-07-08T09:39:18Z</time>
      </trkpt>
      <trkpt lat="45.98653550259769" lon="10.459904288873076">
        <ele>2364.98</ele>
        <time>2018-07-08T09:39:37Z</time>
      </trkpt>
      <trkpt lat="45.986535334959626" lon="10.459893392398953">
        <ele>2364.98</ele>
        <time>2018-07-08T09:39:54Z</time>
      </trkpt>
      <trkpt lat="45.986565593630075" lon="10.459885513409972">
        <ele>2364.98</ele>
        <time>2018-07-08T09:40:04Z</time>
      </trkpt>
      <trkpt lat="45.986618064343929" lon="10.459856260567904">
        <ele>2365.9400000000001</ele>
        <time>2018-07-08T09:40:14Z</time>
      </trkpt>
      <trkpt lat="45.986646562814713" lon="10.459821727126837">
        <ele>2365.9400000000001</ele>
        <time>2018-07-08T09:40:24Z</time>
      </trkpt>
      <trkpt lat="45.986710516735911" lon="10.459858858957887">
        <ele>2364.02</ele>
        <time>2018-07-08T09:40:35Z</time>
      </trkpt>
      <trkpt lat="45.98674756474793" lon="10.459841340780258">
        <ele>2362.5799999999999</ele>
        <time>2018-07-08T09:40:44Z</time>
      </trkpt>
      <trkpt lat="45.986861223354936" lon="10.459875538945198">
        <ele>2361.6199999999999</ele>
        <time>2018-07-08T09:40:57Z</time>
      </trkpt>
      <trkpt lat="45.986942360177636" lon="10.459899930283427">
        <ele>2359.6900000000001</ele>
        <time>2018-07-08T09:41:07Z</time>
      </trkpt>
      <trkpt lat="45.987010337412357" lon="10.459930272772908">
        <ele>2359.6900000000001</ele>
        <time>2018-07-08T09:41:17Z</time>
      </trkpt>
      <trkpt lat="45.987044619396329" lon="10.459906216710806">
        <ele>2359.6900000000001</ele>
        <time>2018-07-08T09:41:23Z</time>
      </trkpt>
      <trkpt lat="45.987082421779633" lon="10.45991275459528">
        <ele>2359.21</ele>
        <time>2018-07-08T09:41:27Z</time>
      </trkpt>
      <trkpt lat="45.987124498933554" lon="10.460012163966894">
        <ele>2358.25</ele>
        <time>2018-07-08T09:41:37Z</time>
      </trkpt>
      <trkpt lat="45.987176802009344" lon="10.460079554468393">
        <ele>2356.8099999999999</ele>
        <time>2018-07-08T09:41:48Z</time>
      </trkpt>
      <trkpt lat="45.987179735675454" lon="10.460088942199945">
        <ele>2356.8099999999999</ele>
        <time>2018-07-08T09:41:49Z</time>
      </trkpt>
      <trkpt lat="45.987229524180293" lon="10.46011651866138">
        <ele>2355.8499999999999</ele>
        <time>2018-07-08T09:41:57Z</time>
      </trkpt>
      <trkpt lat="45.987291634082794" lon="10.460171168670058">
        <ele>2355.3699999999999</ele>
        <time>2018-07-08T09:42:08Z</time>
      </trkpt>
      <trkpt lat="45.987298507243395" lon="10.460191871970892">
        <ele>2354.8899999999999</ele>
        <time>2018-07-08T09:42:10Z</time>
      </trkpt>
      <trkpt lat="45.987358773127198" lon="10.460170917212963">
        <ele>2353.9299999999998</ele>
        <time>2018-07-08T09:42:21Z</time>
      </trkpt>
      <trkpt lat="45.987377129495144" lon="10.460170665755868">
        <ele>2353.9299999999998</ele>
        <time>2018-07-08T09:42:24Z</time>
      </trkpt>
      <trkpt lat="45.987433204427361" lon="10.46020645648241">
        <ele>2352.96</ele>
        <time>2018-07-08T09:42:35Z</time>
      </trkpt>
      <trkpt lat="45.987476287409663" lon="10.460255406796932">
        <ele>2351.04</ele>
        <time>2018-07-08T09:42:44Z</time>
      </trkpt>
      <trkpt lat="45.987532027065754" lon="10.460315840318799">
        <ele>2350.0799999999999</ele>
        <time>2018-07-08T09:42:54Z</time>
      </trkpt>
      <trkpt lat="45.987546443939209" lon="10.460352636873722">
        <ele>2349.1199999999999</ele>
        <time>2018-07-08T09:42:57Z</time>
      </trkpt>
      <trkpt lat="45.987605284899473" lon="10.460422541946173">
        <ele>2347.1999999999998</ele>
        <time>2018-07-08T09:43:08Z</time>
      </trkpt>
      <trkpt lat="45.987669322639704" lon="10.460439054295421">
        <ele>2346.23</ele>
        <time>2018-07-08T09:43:18Z</time>
      </trkpt>
      <trkpt lat="45.987723805010319" lon="10.460492363199592">
        <ele>2348.1599999999999</ele>
        <time>2018-07-08T09:43:29Z</time>
      </trkpt>
      <trkpt lat="45.987799325957894" lon="10.460522454231977">
        <ele>2347.6799999999998</ele>
        <time>2018-07-08T09:43:39Z</time>
      </trkpt>
      <trkpt lat="45.987876104190946" lon="10.460572745651007">
        <ele>2345.27</ele>
        <time>2018-07-08T09:43:50Z</time>
      </trkpt>
      <trkpt lat="45.987899489700794" lon="10.460624629631639">
        <ele>2344.3099999999999</ele>
        <time>2018-07-08T09:43:56Z</time>
      </trkpt>
      <trkpt lat="45.987944332882762" lon="10.460679531097412">
        <ele>2343.8299999999999</ele>
        <time>2018-07-08T09:44:02Z</time>
      </trkpt>
      <trkpt lat="45.98798087798059" lon="10.460725212469697">
        <ele>2343.3499999999999</ele>
        <time>2018-07-08T09:44:08Z</time>
      </trkpt>
      <trkpt lat="45.988001497462392" lon="10.460767708718777">
        <ele>2342.8699999999999</ele>
        <time>2018-07-08T09:44:17Z</time>
      </trkpt>
      <trkpt lat="45.988010717555881" lon="10.460768211632967">
        <ele>2342.3899999999999</ele>
        <time>2018-07-08T09:44:32Z</time>
      </trkpt>
      <trkpt lat="45.988024799153209" lon="10.460769049823284">
        <ele>2343.3499999999999</ele>
        <time>2018-07-08T09:44:49Z</time>
      </trkpt>
      <trkpt lat="45.988084226846695" lon="10.460705514997244">
        <ele>2342.8699999999999</ele>
        <time>2018-07-08T09:44:59Z</time>
      </trkpt>
      <trkpt lat="45.988099398091435" lon="10.460706437006593">
        <ele>2342.8699999999999</ele>
        <time>2018-07-08T09:45:01Z</time>
      </trkpt>
      <trkpt lat="45.988192185759544" lon="10.460717501118779">
        <ele>2341.4299999999998</ele>
        <time>2018-07-08T09:45:11Z</time>
      </trkpt>
      <trkpt lat="45.988221354782581" lon="10.460769468918443">
        <ele>2340.9499999999998</ele>
        <time>2018-07-08T09:45:15Z</time>
      </trkpt>
      <trkpt lat="45.988291427493095" lon="10.460786987096071">
        <ele>2340.4699999999998</ele>
        <time>2018-07-08T09:45:24Z</time>
      </trkpt>
      <trkpt lat="45.988358147442341" lon="10.460800565779209">
        <ele>2338.54</ele>
        <time>2018-07-08T09:45:33Z</time>
      </trkpt>
      <trkpt lat="45.988445486873388" lon="10.460825292393565">
        <ele>2337.5799999999999</ele>
        <time>2018-07-08T09:45:44Z</time>
      </trkpt>
      <trkpt lat="45.988540789112449" lon="10.460853455588222">
        <ele>2337.0999999999999</ele>
        <time>2018-07-08T09:45:56Z</time>
      </trkpt>
      <trkpt lat="45.988596109673381" lon="10.460842978209257">
        <ele>2336.1399999999999</ele>
        <time>2018-07-08T09:46:04Z</time>
      </trkpt>
      <trkpt lat="45.988670960068703" lon="10.460874997079372">
        <ele>2335.1799999999998</ele>
        <time>2018-07-08T09:46:15Z</time>
      </trkpt>
      <trkpt lat="45.988708343356848" lon="10.460936017334461">
        <ele>2332.7800000000002</ele>
        <time>2018-07-08T09:46:26Z</time>
      </trkpt>
      <trkpt lat="45.988731142133474" lon="10.460989829152822">
        <ele>2330.3699999999999</ele>
        <time>2018-07-08T09:46:35Z</time>
      </trkpt>
      <trkpt lat="45.988742876797915" lon="10.461007514968514">
        <ele>2330.3699999999999</ele>
        <time>2018-07-08T09:46:38Z</time>
      </trkpt>
      <trkpt lat="45.988760311156511" lon="10.461020674556494">
        <ele>2329.4099999999999</ele>
        <time>2018-07-08T09:46:41Z</time>
      </trkpt>
      <trkpt lat="45.988859971985221" lon="10.460975244641304">
        <ele>2328.4499999999998</ele>
        <time>2018-07-08T09:46:52Z</time>
      </trkpt>
      <trkpt lat="45.988923758268356" lon="10.460935849696398">
        <ele>2326.5300000000002</ele>
        <time>2018-07-08T09:47:01Z</time>
      </trkpt>
      <trkpt lat="45.988954687491059" lon="10.460950518026948">
        <ele>2326.5300000000002</ele>
        <time>2018-07-08T09:47:05Z</time>
      </trkpt>
      <trkpt lat="45.988983521237969" lon="10.46099117025733">
        <ele>2326.0500000000002</ele>
        <time>2018-07-08T09:47:09Z</time>
      </trkpt>
      <trkpt lat="45.989067507907748" lon="10.460955463349819">
        <ele>2327.4899999999998</ele>
        <time>2018-07-08T09:47:21Z</time>
      </trkpt>
      <trkpt lat="45.989118302240968" lon="10.460956636816263">
        <ele>2327.0100000000002</ele>
        <time>2018-07-08T09:47:28Z</time>
      </trkpt>
      <trkpt lat="45.989203127101064" lon="10.460991589352489">
        <ele>2325.5700000000002</ele>
        <time>2018-07-08T09:47:40Z</time>
      </trkpt>
      <trkpt lat="45.989262135699391" lon="10.460987817496061">
        <ele>2324.1199999999999</ele>
        <time>2018-07-08T09:47:48Z</time>
      </trkpt>
      <trkpt lat="45.989309912547469" lon="10.461045065894723">
        <ele>2323.1599999999999</ele>
        <time>2018-07-08T09:47:57Z</time>
      </trkpt>
      <trkpt lat="45.989340338855982" lon="10.461063086986542">
        <ele>2321.7199999999998</ele>
        <time>2018-07-08T09:48:01Z</time>
      </trkpt>
      <trkpt lat="45.989398509263992" lon="10.461077420040965">
        <ele>2320.2800000000002</ele>
        <time>2018-07-08T09:48:08Z</time>
      </trkpt>
      <trkpt lat="45.989498253911734" lon="10.461140284314752">
        <ele>2319.8000000000002</ele>
        <time>2018-07-08T09:48:19Z</time>
      </trkpt>
      <trkpt lat="45.989595232531428" lon="10.461196107789874">
        <ele>2318.3600000000001</ele>
        <time>2018-07-08T09:48:30Z</time>
      </trkpt>
      <trkpt lat="45.989654744043946" lon="10.461208848282695">
        <ele>2317.8800000000001</ele>
        <time>2018-07-08T09:48:37Z</time>
      </trkpt>
      <trkpt lat="45.989724481478333" lon="10.461259307339787">
        <ele>2315.9499999999998</ele>
        <time>2018-07-08T09:48:46Z</time>
      </trkpt>
      <trkpt lat="45.98979807458818" lon="10.461276490241289">
        <ele>2314.5100000000002</ele>
        <time>2018-07-08T09:48:56Z</time>
      </trkpt>
      <trkpt lat="45.989851802587509" lon="10.461280178278685">
        <ele>2313.5500000000002</ele>
        <time>2018-07-08T09:49:03Z</time>
      </trkpt>
      <trkpt lat="45.989956995472312" lon="10.461288895457983">
        <ele>2313.0700000000002</ele>
        <time>2018-07-08T09:49:15Z</time>
      </trkpt>
      <trkpt lat="45.989963365718722" lon="10.461293086409569">
        <ele>2313.0700000000002</ele>
        <time>2018-07-08T09:49:16Z</time>
      </trkpt>
      <trkpt lat="45.990027990192175" lon="10.461375564336777">
        <ele>2310.1900000000001</ele>
        <time>2018-07-08T09:49:27Z</time>
      </trkpt>
      <trkpt lat="45.990072581917048" lon="10.461378414183855">
        <ele>2310.1900000000001</ele>
        <time>2018-07-08T09:49:38Z</time>
      </trkpt>
      <trkpt lat="45.990063948556781" lon="10.461375899612904">
        <ele>2309.6999999999998</ele>
        <time>2018-07-08T09:49:56Z</time>
      </trkpt>
      <trkpt lat="45.99011080339551" lon="10.461382856592536">
        <ele>2309.6999999999998</ele>
        <time>2018-07-08T09:50:10Z</time>
      </trkpt>
      <trkpt lat="45.990219851955771" lon="10.461359219625592">
        <ele>2309.2199999999998</ele>
        <time>2018-07-08T09:50:22Z</time>
      </trkpt>
      <trkpt lat="45.990269221365452" lon="10.461361315101385">
        <ele>2309.2199999999998</ele>
        <time>2018-07-08T09:50:34Z</time>
      </trkpt>
      <trkpt lat="45.990257654339075" lon="10.461349245160818">
        <ele>2308.7399999999998</ele>
        <time>2018-07-08T09:50:49Z</time>
      </trkpt>
      <trkpt lat="45.990348430350423" lon="10.461378246545792">
        <ele>2308.2600000000002</ele>
        <time>2018-07-08T09:51:00Z</time>
      </trkpt>
      <trkpt lat="45.990433255210519" lon="10.461403811350465">
        <ele>2306.3400000000001</ele>
        <time>2018-07-08T09:51:11Z</time>
      </trkpt>
      <trkpt lat="45.990493521094322" lon="10.46146173030138">
        <ele>2304.9000000000001</ele>
        <time>2018-07-08T09:51:21Z</time>
      </trkpt>
      <trkpt lat="45.990543561056256" lon="10.461484109982848">
        <ele>2304.9000000000001</ele>
        <time>2018-07-08T09:51:27Z</time>
      </trkpt>
      <trkpt lat="45.990554541349411" lon="10.461503472179174">
        <ele>2304.9000000000001</ele>
        <time>2018-07-08T09:51:29Z</time>
      </trkpt>
      <trkpt lat="45.990607850253582" lon="10.461586117744446">
        <ele>2303.46</ele>
        <time>2018-07-08T09:51:38Z</time>
      </trkpt>
      <trkpt lat="45.990639701485634" lon="10.46163959428668">
        <ele>2302.98</ele>
        <time>2018-07-08T09:51:43Z</time>
      </trkpt>
      <trkpt lat="45.990731148049235" lon="10.461654933169484">
        <ele>2302.4899999999998</ele>
        <time>2018-07-08T09:51:53Z</time>
      </trkpt>
      <trkpt lat="45.990833910182118" lon="10.461745290085673">
        <ele>2301.0500000000002</ele>
        <time>2018-07-08T09:52:06Z</time>
      </trkpt>
      <trkpt lat="45.990889901295304" lon="10.461821649223566">
        <ele>2299.6100000000001</ele>
        <time>2018-07-08T09:52:16Z</time>
      </trkpt>
      <trkpt lat="45.990954525768757" lon="10.461819553747773">
        <ele>2298.6500000000001</ele>
        <time>2018-07-08T09:52:26Z</time>
      </trkpt>
      <trkpt lat="45.991044128313661" lon="10.46180035918951">
        <ele>2297.21</ele>
        <time>2018-07-08T09:52:37Z</time>
      </trkpt>
      <trkpt lat="45.991096179932356" lon="10.461908401921391">
        <ele>2294.8000000000002</ele>
        <time>2018-07-08T09:52:50Z</time>
      </trkpt>
      <trkpt lat="45.991184022277594" lon="10.46194645576179">
        <ele>2293.3600000000001</ele>
        <time>2018-07-08T09:53:00Z</time>
      </trkpt>
      <trkpt lat="45.991254262626171" lon="10.462008146569133">
        <ele>2291.9200000000001</ele>
        <time>2018-07-08T09:53:09Z</time>
      </trkpt>
      <trkpt lat="45.991273960098624" lon="10.462015438824892">
        <ele>2291.4400000000001</ele>
        <time>2018-07-08T09:53:11Z</time>
      </trkpt>
      <trkpt lat="45.991351576521993" lon="10.46210914850235">
        <ele>2290</ele>
        <time>2018-07-08T09:53:22Z</time>
      </trkpt>
      <trkpt lat="45.991410333663225" lon="10.462164049968123">
        <ele>2289.52</ele>
        <time>2018-07-08T09:53:30Z</time>
      </trkpt>
      <trkpt lat="45.991505887359381" lon="10.462198415771127">
        <ele>2288.5599999999999</ele>
        <time>2018-07-08T09:53:42Z</time>
      </trkpt>
      <trkpt lat="45.991549305617809" lon="10.462224734947085">
        <ele>2290</ele>
        <time>2018-07-08T09:53:52Z</time>
      </trkpt>
      <trkpt lat="45.991597250103951" lon="10.462244600057602">
        <ele>2290</ele>
        <time>2018-07-08T09:54:02Z</time>
      </trkpt>
      <trkpt lat="45.991684840992093" lon="10.462262537330389">
        <ele>2290.96</ele>
        <time>2018-07-08T09:54:14Z</time>
      </trkpt>
      <trkpt lat="45.991730354726315" lon="10.46228994615376">
        <ele>2290</ele>
        <time>2018-07-08T09:54:24Z</time>
      </trkpt>
      <trkpt lat="45.991776203736663" lon="10.462317019701004">
        <ele>2289.52</ele>
        <time>2018-07-08T09:54:33Z</time>
      </trkpt>
      <trkpt lat="45.991850132122636" lon="10.462401174008846">
        <ele>2289.04</ele>
        <time>2018-07-08T09:54:44Z</time>
      </trkpt>
      <trkpt lat="45.991928670555353" lon="10.462457248941064">
        <ele>2287.5900000000001</ele>
        <time>2018-07-08T09:54:55Z</time>
      </trkpt>
      <trkpt lat="45.991988349705935" lon="10.462506283074617">
        <ele>2286.6300000000001</ele>
        <time>2018-07-08T09:55:05Z</time>
      </trkpt>
      <trkpt lat="45.992012741044164" lon="10.462562022730708">
        <ele>2287.1100000000001</ele>
        <time>2018-07-08T09:55:10Z</time>
      </trkpt>
      <trkpt lat="45.992108294740319" lon="10.462645757943392">
        <ele>2286.6300000000001</ele>
        <time>2018-07-08T09:55:23Z</time>
      </trkpt>
      <trkpt lat="45.992150120437145" lon="10.462703928351402">
        <ele>2285.1900000000001</ele>
        <time>2018-07-08T09:55:34Z</time>
      </trkpt>
      <trkpt lat="45.992180379107594" lon="10.462703593075275">
        <ele>2284.71</ele>
        <time>2018-07-08T09:55:45Z</time>
      </trkpt>
      <trkpt lat="45.992239387705922" lon="10.462760338559747">
        <ele>2282.3099999999999</ele>
        <time>2018-07-08T09:55:56Z</time>
      </trkpt>
      <trkpt lat="45.992257241159678" lon="10.462807696312666">
        <ele>2280.8699999999999</ele>
        <time>2018-07-08T09:56:05Z</time>
      </trkpt>
      <trkpt lat="45.992288840934634" lon="10.462830830365419">
        <ele>2278.9400000000001</ele>
        <time>2018-07-08T09:56:15Z</time>
      </trkpt>
      <trkpt lat="45.992336953058839" lon="10.462807361036539">
        <ele>2277.98</ele>
        <time>2018-07-08T09:56:26Z</time>
      </trkpt>
      <trkpt lat="45.992400236427784" lon="10.462841978296638">
        <ele>2275.5799999999999</ele>
        <time>2018-07-08T09:56:37Z</time>
      </trkpt>
      <trkpt lat="45.992457401007414" lon="10.462905177846551">
        <ele>2272.6900000000001</ele>
        <time>2018-07-08T09:56:49Z</time>
      </trkpt>
      <trkpt lat="45.992471231147647" lon="10.462922109290957">
        <ele>2272.6900000000001</ele>
        <time>2018-07-08T09:56:51Z</time>
      </trkpt>
      <trkpt lat="45.992497382685542" lon="10.462988996878266">
        <ele>2271.25</ele>
        <time>2018-07-08T09:57:00Z</time>
      </trkpt>
      <trkpt lat="45.992540884763002" lon="10.463036270812154">
        <ele>2269.8099999999999</ele>
        <time>2018-07-08T09:57:07Z</time>
      </trkpt>
      <trkpt lat="45.99262629635632" lon="10.463099554181099">
        <ele>2268.3699999999999</ele>
        <time>2018-07-08T09:57:18Z</time>
      </trkpt>
      <trkpt lat="45.99264775402844" lon="10.463133249431849">
        <ele>2267.8899999999999</ele>
        <time>2018-07-08T09:57:22Z</time>
      </trkpt>
      <trkpt lat="45.992715312168002" lon="10.463177841156721">
        <ele>2265.96</ele>
        <time>2018-07-08T09:57:33Z</time>
      </trkpt>
      <trkpt lat="45.992768872529268" lon="10.463236765936017">
        <ele>2265</ele>
        <time>2018-07-08T09:57:42Z</time>
      </trkpt>
      <trkpt lat="45.992795024067163" lon="10.463308179751039">
        <ele>2263.0799999999999</ele>
        <time>2018-07-08T09:57:53Z</time>
      </trkpt>
      <trkpt lat="45.992810446768999" lon="10.463307676836848">
        <ele>2262.1199999999999</ele>
        <time>2018-07-08T09:58:02Z</time>
      </trkpt>
      <trkpt lat="45.992816397920251" lon="10.463300971314311">
        <ele>2262.5999999999999</ele>
        <time>2018-07-08T09:58:20Z</time>
      </trkpt>
      <trkpt lat="45.992825198918581" lon="10.463301977142692">
        <ele>2262.1199999999999</ele>
        <time>2018-07-08T09:58:31Z</time>
      </trkpt>
      <trkpt lat="45.992890410125256" lon="10.463307090103626">
        <ele>2261.1599999999999</ele>
        <time>2018-07-08T09:58:43Z</time>
      </trkpt>
      <trkpt lat="45.992938606068492" lon="10.463378923013806">
        <ele>2259.7199999999998</ele>
        <time>2018-07-08T09:58:53Z</time>
      </trkpt>
      <trkpt lat="45.992989651858807" lon="10.463387137278914">
        <ele>2258.75</ele>
        <time>2018-07-08T09:59:03Z</time>
      </trkpt>
      <trkpt lat="45.993024269118905" lon="10.463463664054871">
        <ele>2258.27</ele>
        <time>2018-07-08T09:59:13Z</time>
      </trkpt>
      <trkpt lat="45.993069447577" lon="10.463484954088926">
        <ele>2258.27</ele>
        <time>2018-07-08T09:59:24Z</time>
      </trkpt>
      <trkpt lat="45.993079673498869" lon="10.463494006544352">
        <ele>2258.27</ele>
        <time>2018-07-08T09:59:34Z</time>
      </trkpt>
      <trkpt lat="45.993098700419068" lon="10.463530635461211">
        <ele>2257.79</ele>
        <time>2018-07-08T09:59:43Z</time>
      </trkpt>
      <trkpt lat="45.993132395669818" lon="10.463575478643179">
        <ele>2257.79</ele>
        <time>2018-07-08T09:59:52Z</time>
      </trkpt>
      <trkpt lat="45.993162654340267" lon="10.463612861931324">
        <ele>2257.79</ele>
        <time>2018-07-08T10:00:02Z</time>
      </trkpt>
      <trkpt lat="45.993203893303871" lon="10.463644713163376">
        <ele>2257.79</ele>
        <time>2018-07-08T10:00:13Z</time>
      </trkpt>
      <trkpt lat="45.993256196379662" lon="10.463685700669885">
        <ele>2257.79</ele>
        <time>2018-07-08T10:00:22Z</time>
      </trkpt>
      <trkpt lat="45.993253849446774" lon="10.463693663477898">
        <ele>2257.79</ele>
        <time>2018-07-08T10:00:35Z</time>
      </trkpt>
      <trkpt lat="45.993252256885171" lon="10.463742781430483">
        <ele>2257.3099999999999</ele>
        <time>2018-07-08T10:00:53Z</time>
      </trkpt>
      <trkpt lat="45.993260387331247" lon="10.463739093393087">
        <ele>2257.79</ele>
        <time>2018-07-08T10:01:03Z</time>
      </trkpt>
      <trkpt lat="45.993273546919227" lon="10.463756779208779">
        <ele>2257.79</ele>
        <time>2018-07-08T10:01:10Z</time>
      </trkpt>
      <trkpt lat="45.993329118937254" lon="10.46378024853766">
        <ele>2258.27</ele>
        <time>2018-07-08T10:01:21Z</time>
      </trkpt>
      <trkpt lat="45.993369268253446" lon="10.463810674846172">
        <ele>2258.75</ele>
        <time>2018-07-08T10:01:32Z</time>
      </trkpt>
      <trkpt lat="45.993386199697852" lon="10.463822912424803">
        <ele>2258.27</ele>
        <time>2018-07-08T10:01:37Z</time>
      </trkpt>
      <trkpt lat="45.993418637663126" lon="10.463870689272881">
        <ele>2258.75</ele>
        <time>2018-07-08T10:01:42Z</time>
      </trkpt>
      <trkpt lat="45.993439760059118" lon="10.463913520798087">
        <ele>2258.75</ele>
        <time>2018-07-08T10:01:52Z</time>
      </trkpt>
      <trkpt lat="45.993499774485826" lon="10.463966242969036">
        <ele>2259.2399999999998</ele>
        <time>2018-07-08T10:02:02Z</time>
      </trkpt>
      <trkpt lat="45.993540594354272" lon="10.464018126949668">
        <ele>2259.7199999999998</ele>
        <time>2018-07-08T10:02:09Z</time>
      </trkpt>
      <trkpt lat="45.993602955713868" lon="10.464091300964355">
        <ele>2260.6799999999998</ele>
        <time>2018-07-08T10:02:20Z</time>
      </trkpt>
      <trkpt lat="45.993656432256103" lon="10.464149471372366">
        <ele>2262.5999999999999</ele>
        <time>2018-07-08T10:02:32Z</time>
      </trkpt>
      <trkpt lat="45.993706891313195" lon="10.46421954408288">
        <ele>2262.1199999999999</ele>
        <time>2018-07-08T10:02:41Z</time>
      </trkpt>
      <trkpt lat="45.99379020743072" lon="10.464329095557332">
        <ele>2263.0799999999999</ele>
        <time>2018-07-08T10:02:55Z</time>
      </trkpt>
      <trkpt lat="45.993873188272119" lon="10.464351391419768">
        <ele>2264.52</ele>
        <time>2018-07-08T10:03:07Z</time>
      </trkpt>
      <trkpt lat="45.993962958455086" lon="10.464359857141972">
        <ele>2265.96</ele>
        <time>2018-07-08T10:03:19Z</time>
      </trkpt>
      <trkpt lat="45.994029259309173" lon="10.464364383369684">
        <ele>2268.3699999999999</ele>
        <time>2018-07-08T10:03:31Z</time>
      </trkpt>
      <trkpt lat="45.994110312312841" lon="10.464395228773355">
        <ele>2268.3699999999999</ele>
        <time>2018-07-08T10:03:43Z</time>
      </trkpt>
      <trkpt lat="45.994172422215343" lon="10.464442754164338">
        <ele>2269.3299999999999</ele>
        <time>2018-07-08T10:03:53Z</time>
      </trkpt>
      <trkpt lat="45.994238136336207" lon="10.464466055855155">
        <ele>2270.29</ele>
        <time>2018-07-08T10:04:03Z</time>
      </trkpt>
      <trkpt lat="45.994285410270095" lon="10.464444514364004">
        <ele>2271.73</ele>
        <time>2018-07-08T10:04:13Z</time>
      </trkpt>
      <trkpt lat="45.994322709739208" lon="10.464437641203403">
        <ele>2271.25</ele>
        <time>2018-07-08T10:04:24Z</time>
      </trkpt>
      <trkpt lat="45.994393369182944" lon="10.464412327855825">
        <ele>2272.6900000000001</ele>
        <time>2018-07-08T10:04:34Z</time>
      </trkpt>
      <trkpt lat="45.994422538205981" lon="10.464406125247478">
        <ele>2272.6900000000001</ele>
        <time>2018-07-08T10:04:40Z</time>
      </trkpt>
      <trkpt lat="45.994518594816327" lon="10.464435629546642">
        <ele>2273.1700000000001</ele>
        <time>2018-07-08T10:04:52Z</time>
      </trkpt>
      <trkpt lat="45.994566371664405" lon="10.464478125795722">
        <ele>2273.6599999999999</ele>
        <time>2018-07-08T10:04:59Z</time>
      </trkpt>
      <trkpt lat="45.994654633104801" lon="10.46454350464046">
        <ele>2273.6599999999999</ele>
        <time>2018-07-08T10:05:11Z</time>
      </trkpt>
      <trkpt lat="45.994709031656384" lon="10.464625479653478">
        <ele>2274.1399999999999</ele>
        <time>2018-07-08T10:05:23Z</time>
      </trkpt>
      <trkpt lat="45.994737027212977" lon="10.464642997831106">
        <ele>2275.0999999999999</ele>
        <time>2018-07-08T10:05:31Z</time>
      </trkpt>
      <trkpt lat="45.994768710806966" lon="10.464633777737617">
        <ele>2276.0599999999999</ele>
        <time>2018-07-08T10:05:37Z</time>
      </trkpt>
      <trkpt lat="45.99482118152082" lon="10.464663952589035">
        <ele>2277.02</ele>
        <time>2018-07-08T10:05:47Z</time>
      </trkpt>
      <trkpt lat="45.994863845407963" lon="10.464734695851803">
        <ele>2277.5</ele>
        <time>2018-07-08T10:05:57Z</time>
      </trkpt>
      <trkpt lat="45.994928469881415" lon="10.464766127988696">
        <ele>2278.46</ele>
        <time>2018-07-08T10:06:08Z</time>
      </trkpt>
      <trkpt lat="45.994989490136504" lon="10.464814826846123">
        <ele>2278.9400000000001</ele>
        <time>2018-07-08T10:06:17Z</time>
      </trkpt>
      <trkpt lat="45.995048163458705" lon="10.464848103001714">
        <ele>2279.4200000000001</ele>
        <time>2018-07-08T10:06:27Z</time>
      </trkpt>
      <trkpt lat="45.995098622515798" lon="10.464904010295868">
        <ele>2278.9400000000001</ele>
        <time>2018-07-08T10:06:34Z</time>
      </trkpt>
      <trkpt lat="45.995154026895761" lon="10.464934017509222">
        <ele>2279.4200000000001</ele>
        <time>2018-07-08T10:06:42Z</time>
      </trkpt>
      <trkpt lat="45.995219238102436" lon="10.465001491829753">
        <ele>2279.4200000000001</ele>
        <time>2018-07-08T10:06:51Z</time>
      </trkpt>
      <trkpt lat="45.99530640989542" lon="10.465146079659462">
        <ele>2277.5</ele>
        <time>2018-07-08T10:07:06Z</time>
      </trkpt>
      <trkpt lat="45.995396599173546" lon="10.465239286422729">
        <ele>2276.54</ele>
        <time>2018-07-08T10:07:19Z</time>
      </trkpt>
      <trkpt lat="45.995430462062359" lon="10.465265354141593">
        <ele>2275.5799999999999</ele>
        <time>2018-07-08T10:07:29Z</time>
      </trkpt>
      <trkpt lat="45.995449656620622" lon="10.465312208980322">
        <ele>2274.1399999999999</ele>
        <time>2018-07-08T10:07:38Z</time>
      </trkpt>
      <trkpt lat="45.995443034917116" lon="10.465352106839418">
        <ele>2273.6599999999999</ele>
        <time>2018-07-08T10:07:47Z</time>
      </trkpt>
      <trkpt lat="45.995434653013945" lon="10.465390076860785">
        <ele>2272.6900000000001</ele>
        <time>2018-07-08T10:08:06Z</time>
      </trkpt>
      <trkpt lat="45.995429120957851" lon="10.465449504554272">
        <ele>2272.21</ele>
        <time>2018-07-08T10:08:13Z</time>
      </trkpt>
      <trkpt lat="45.995465749874711" lon="10.465539442375302">
        <ele>2269.8099999999999</ele>
        <time>2018-07-08T10:08:24Z</time>
      </trkpt>
      <trkpt lat="45.995511766523123" lon="10.465605910867453">
        <ele>2268.3699999999999</ele>
        <time>2018-07-08T10:08:33Z</time>
      </trkpt>
      <trkpt lat="45.995561303570867" lon="10.465696938335896">
        <ele>2268.3699999999999</ele>
        <time>2018-07-08T10:08:43Z</time>
      </trkpt>
      <trkpt lat="45.995587036013603" lon="10.465800957754254">
        <ele>2267.8899999999999</ele>
        <time>2018-07-08T10:08:54Z</time>
      </trkpt>
      <trkpt lat="45.995643027126789" lon="10.465860804542899">
        <ele>2268.3699999999999</ele>
        <time>2018-07-08T10:09:04Z</time>
      </trkpt>
      <trkpt lat="45.995685188099742" lon="10.465909335762262">
        <ele>2268.3699999999999</ele>
        <time>2018-07-08T10:09:14Z</time>
      </trkpt>
      <trkpt lat="45.995742604136467" lon="10.465979324653745">
        <ele>2268.3699999999999</ele>
        <time>2018-07-08T10:09:25Z</time>
      </trkpt>
      <trkpt lat="45.995777389034629" lon="10.465998100116849">
        <ele>2268.3699999999999</ele>
        <time>2018-07-08T10:09:34Z</time>
      </trkpt>
      <trkpt lat="45.995797421783209" lon="10.466005727648735">
        <ele>2268.3699999999999</ele>
        <time>2018-07-08T10:09:37Z</time>
      </trkpt>
      <trkpt lat="45.995818292722106" lon="10.466045793145895">
        <ele>2268.3699999999999</ele>
        <time>2018-07-08T10:09:41Z</time>
      </trkpt>
      <trkpt lat="45.995885096490383" lon="10.466108825057745">
        <ele>2268.8499999999999</ele>
        <time>2018-07-08T10:09:50Z</time>
      </trkpt>
      <trkpt lat="45.995918540284038" lon="10.466148555278778">
        <ele>2268.8499999999999</ele>
        <time>2018-07-08T10:09:55Z</time>
      </trkpt>
      <trkpt lat="45.995994312688708" lon="10.466259699314833">
        <ele>2269.3299999999999</ele>
        <time>2018-07-08T10:10:08Z</time>
      </trkpt>
      <trkpt lat="45.996039658784866" lon="10.466335723176599">
        <ele>2269.3299999999999</ele>
        <time>2018-07-08T10:10:18Z</time>
      </trkpt>
      <trkpt lat="45.996101768687367" lon="10.466453656554222">
        <ele>2268.3699999999999</ele>
        <time>2018-07-08T10:10:30Z</time>
      </trkpt>
      <trkpt lat="45.996117275208235" lon="10.466474192216992">
        <ele>2268.3699999999999</ele>
        <time>2018-07-08T10:10:33Z</time>
      </trkpt>
      <trkpt lat="45.996164632961154" lon="10.466563794761896">
        <ele>2268.3699999999999</ele>
        <time>2018-07-08T10:10:43Z</time>
      </trkpt>
      <trkpt lat="45.996190113946795" lon="10.466595226898789">
        <ele>2268.3699999999999</ele>
        <time>2018-07-08T10:10:51Z</time>
      </trkpt>
      <trkpt lat="45.9962088894099" lon="10.466618444770575">
        <ele>2268.8499999999999</ele>
        <time>2018-07-08T10:10:55Z</time>
      </trkpt>
      <trkpt lat="45.996271083131433" lon="10.466743838042021">
        <ele>2268.8499999999999</ele>
        <time>2018-07-08T10:11:07Z</time>
      </trkpt>
      <trkpt lat="45.996307712048292" lon="10.466787926852703">
        <ele>2269.8099999999999</ele>
        <time>2018-07-08T10:11:17Z</time>
      </trkpt>
      <trkpt lat="45.996335623785853" lon="10.466832853853703">
        <ele>2270.77</ele>
        <time>2018-07-08T10:11:26Z</time>
      </trkpt>
      <trkpt lat="45.996400164440274" lon="10.466918852180243">
        <ele>2271.73</ele>
        <time>2018-07-08T10:11:37Z</time>
      </trkpt>
      <trkpt lat="45.996449282392859" lon="10.466975346207619">
        <ele>2272.6900000000001</ele>
        <time>2018-07-08T10:11:49Z</time>
      </trkpt>
      <trkpt lat="45.9964869171381" lon="10.466984231024981">
        <ele>2274.1399999999999</ele>
        <time>2018-07-08T10:11:58Z</time>
      </trkpt>
      <trkpt lat="45.996520193293691" lon="10.467013819143176">
        <ele>2275.5799999999999</ele>
        <time>2018-07-08T10:12:07Z</time>
      </trkpt>
      <trkpt lat="45.996579872444272" lon="10.467089843004942">
        <ele>2276.0599999999999</ele>
        <time>2018-07-08T10:12:18Z</time>
      </trkpt>
      <trkpt lat="45.996606191620231" lon="10.467089843004942">
        <ele>2277.02</ele>
        <time>2018-07-08T10:12:27Z</time>
      </trkpt>
      <trkpt lat="45.996647849678993" lon="10.467150863260031">
        <ele>2277.98</ele>
        <time>2018-07-08T10:12:38Z</time>
      </trkpt>
      <trkpt lat="45.996687160804868" lon="10.467219008132815">
        <ele>2279.4200000000001</ele>
        <time>2018-07-08T10:12:49Z</time>
      </trkpt>
      <trkpt lat="45.996694955974817" lon="10.467294696718454">
        <ele>2279.4200000000001</ele>
        <time>2018-07-08T10:12:58Z</time>
      </trkpt>
      <trkpt lat="45.996708869934082" lon="10.467336773872375">
        <ele>2279.4200000000001</ele>
        <time>2018-07-08T10:13:05Z</time>
      </trkpt>
      <trkpt lat="45.996755221858621" lon="10.467378599569201">
        <ele>2278.9400000000001</ele>
        <time>2018-07-08T10:13:15Z</time>
      </trkpt>
      <trkpt lat="45.996759915724397" lon="10.467410366982222">
        <ele>2278.9400000000001</ele>
        <time>2018-07-08T10:13:18Z</time>
      </trkpt>
      <trkpt lat="45.996787659823895" lon="10.467486893758178">
        <ele>2277.98</ele>
        <time>2018-07-08T10:13:24Z</time>
      </trkpt>
      <trkpt lat="45.996789336204529" lon="10.467516062781215">
        <ele>2277.98</ele>
        <time>2018-07-08T10:13:26Z</time>
      </trkpt>
      <trkpt lat="45.996797047555447" lon="10.467535173520446">
        <ele>2277.98</ele>
        <time>2018-07-08T10:13:28Z</time>
      </trkpt>
      <trkpt lat="45.996814062818885" lon="10.46757398173213">
        <ele>2277.5</ele>
        <time>2018-07-08T10:13:32Z</time>
      </trkpt>
      <trkpt lat="45.99686024710536" lon="10.467638103291392">
        <ele>2277.98</ele>
        <time>2018-07-08T10:13:42Z</time>
      </trkpt>
      <trkpt lat="45.996889248490334" lon="10.467719743028283">
        <ele>2278.9400000000001</ele>
        <time>2018-07-08T10:13:52Z</time>
      </trkpt>
      <trkpt lat="45.99689100869" lon="10.467728124931455">
        <ele>2279.4200000000001</ele>
        <time>2018-07-08T10:13:53Z</time>
      </trkpt>
      <trkpt lat="45.996890170499682" lon="10.467827618122101">
        <ele>2279.9000000000001</ele>
        <time>2018-07-08T10:14:05Z</time>
      </trkpt>
      <trkpt lat="45.996906012296677" lon="10.467871874570847">
        <ele>2281.3499999999999</ele>
        <time>2018-07-08T10:14:16Z</time>
      </trkpt>
      <trkpt lat="45.996916070580482" lon="10.467893332242966">
        <ele>2281.8299999999999</ele>
        <time>2018-07-08T10:14:26Z</time>
      </trkpt>
      <trkpt lat="45.996944904327393" lon="10.467937085777521">
        <ele>2283.27</ele>
        <time>2018-07-08T10:14:34Z</time>
      </trkpt>
      <trkpt lat="45.996962925419211" lon="10.467974552884698">
        <ele>2285.1900000000001</ele>
        <time>2018-07-08T10:14:46Z</time>
      </trkpt>
      <trkpt lat="45.996965356171131" lon="10.467987125739455">
        <ele>2285.6700000000001</ele>
        <time>2018-07-08T10:14:58Z</time>
      </trkpt>
      <trkpt lat="45.996958063915372" lon="10.468022581189871">
        <ele>2285.6700000000001</ele>
        <time>2018-07-08T10:15:09Z</time>
      </trkpt>
      <trkpt lat="45.996976085007191" lon="10.468022078275681">
        <ele>2287.1100000000001</ele>
        <time>2018-07-08T10:15:20Z</time>
      </trkpt>
      <trkpt lat="45.996984047815204" lon="10.468050828203559">
        <ele>2288.0799999999999</ele>
        <time>2018-07-08T10:15:30Z</time>
      </trkpt>
      <trkpt lat="45.996993351727724" lon="10.468097012490034">
        <ele>2288.5599999999999</ele>
        <time>2018-07-08T10:15:41Z</time>
      </trkpt>
      <trkpt lat="45.997010702267289" lon="10.468143448233604">
        <ele>2290</ele>
        <time>2018-07-08T10:15:51Z</time>
      </trkpt>
      <trkpt lat="45.997023107483983" lon="10.468159960582852">
        <ele>2291.4400000000001</ele>
        <time>2018-07-08T10:16:01Z</time>
      </trkpt>
      <trkpt lat="45.997026041150093" lon="10.468199020251632">
        <ele>2292.4000000000001</ele>
        <time>2018-07-08T10:16:11Z</time>
      </trkpt>
      <trkpt lat="45.997031908482313" lon="10.468255681917071">
        <ele>2294.3200000000002</ele>
        <time>2018-07-08T10:16:23Z</time>
      </trkpt>
      <trkpt lat="45.997048085555434" lon="10.468323994427919">
        <ele>2296.25</ele>
        <time>2018-07-08T10:16:35Z</time>
      </trkpt>
      <trkpt lat="45.997032076120377" lon="10.46843639574945">
        <ele>2297.21</ele>
        <time>2018-07-08T10:16:47Z</time>
      </trkpt>
      <trkpt lat="45.997034171596169" lon="10.468481909483671">
        <ele>2298.6500000000001</ele>
        <time>2018-07-08T10:16:58Z</time>
      </trkpt>
      <trkpt lat="45.997044648975134" lon="10.468526501208544">
        <ele>2299.6100000000001</ele>
        <time>2018-07-08T10:17:09Z</time>
      </trkpt>
      <trkpt lat="45.997068621218204" lon="10.468573439866304">
        <ele>2301.5300000000002</ele>
        <time>2018-07-08T10:17:19Z</time>
      </trkpt>
      <trkpt lat="45.997100137174129" lon="10.468591209501028">
        <ele>2301.5300000000002</ele>
        <time>2018-07-08T10:17:31Z</time>
      </trkpt>
      <trkpt lat="45.997124277055264" lon="10.468621887266636">
        <ele>2301.5300000000002</ele>
        <time>2018-07-08T10:17:43Z</time>
      </trkpt>
      <trkpt lat="45.997139113023877" lon="10.468644602224231">
        <ele>2301.5300000000002</ele>
        <time>2018-07-08T10:17:52Z</time>
      </trkpt>
      <trkpt lat="45.997165935114026" lon="10.468614511191845">
        <ele>2301.0500000000002</ele>
        <time>2018-07-08T10:18:03Z</time>
      </trkpt>
      <trkpt lat="45.997176244854927" lon="10.468603279441595">
        <ele>2301.0500000000002</ele>
        <time>2018-07-08T10:18:06Z</time>
      </trkpt>
      <trkpt lat="45.997201893478632" lon="10.46856832690537">
        <ele>2299.6100000000001</ele>
        <time>2018-07-08T10:18:18Z</time>
      </trkpt>
      <trkpt lat="45.997193092480302" lon="10.468548545613885">
        <ele>2300.0900000000001</ele>
        <time>2018-07-08T10:18:27Z</time>
      </trkpt>
      <trkpt lat="45.997196026146412" lon="10.468553071841598">
        <ele>2300.0900000000001</ele>
        <time>2018-07-08T10:18:48Z</time>
      </trkpt>
      <trkpt lat="45.997208934277296" lon="10.468553071841598">
        <ele>2299.6100000000001</ele>
        <time>2018-07-08T10:19:02Z</time>
      </trkpt>
      <trkpt lat="45.997215304523706" lon="10.468553826212883">
        <ele>2299.6100000000001</ele>
        <time>2018-07-08T10:19:21Z</time>
      </trkpt>
      <trkpt lat="45.997235169634223" lon="10.468530105426908">
        <ele>2298.6500000000001</ele>
        <time>2018-07-08T10:19:32Z</time>
      </trkpt>
      <trkpt lat="45.997268948704004" lon="10.468524908646941">
        <ele>2297.6900000000001</ele>
        <time>2018-07-08T10:19:44Z</time>
      </trkpt>
      <trkpt lat="45.997259058058262" lon="10.468490291386843">
        <ele>2296.25</ele>
        <time>2018-07-08T10:19:54Z</time>
      </trkpt>
      <trkpt lat="45.99729954265058" lon="10.468464056029916">
        <ele>2294.8000000000002</ele>
        <time>2018-07-08T10:20:04Z</time>
      </trkpt>
      <trkpt lat="45.997340362519026" lon="10.468417787924409">
        <ele>2292.8800000000001</ele>
        <time>2018-07-08T10:20:15Z</time>
      </trkpt>
      <trkpt lat="45.997388893738389" lon="10.468395324423909">
        <ele>2290.96</ele>
        <time>2018-07-08T10:20:24Z</time>
      </trkpt>
      <trkpt lat="45.997431054711342" lon="10.468362048268318">
        <ele>2289.52</ele>
        <time>2018-07-08T10:20:34Z</time>
      </trkpt>
      <trkpt lat="45.997456200420856" lon="10.468341344967484">
        <ele>2289.04</ele>
        <time>2018-07-08T10:20:45Z</time>
      </trkpt>
      <trkpt lat="45.997501378878951" lon="10.468305889517069">
        <ele>2286.6300000000001</ele>
        <time>2018-07-08T10:20:56Z</time>
      </trkpt>
      <trkpt lat="45.99750523455441" lon="10.468299351632595">
        <ele>2286.6300000000001</ele>
        <time>2018-07-08T10:20:57Z</time>
      </trkpt>
      <trkpt lat="45.997567512094975" lon="10.468211006373167">
        <ele>2286.6300000000001</ele>
        <time>2018-07-08T10:21:09Z</time>
      </trkpt>
      <trkpt lat="45.997643619775772" lon="10.468142693862319">
        <ele>2286.6300000000001</ele>
        <time>2018-07-08T10:21:21Z</time>
      </trkpt>
      <trkpt lat="45.997699275612831" lon="10.468114195391536">
        <ele>2286.6300000000001</ele>
        <time>2018-07-08T10:21:30Z</time>
      </trkpt>
      <trkpt lat="45.997751746326685" lon="10.468064993619919">
        <ele>2286.6300000000001</ele>
        <time>2018-07-08T10:21:43Z</time>
      </trkpt>
      <trkpt lat="45.997803714126348" lon="10.468073878437281">
        <ele>2284.23</ele>
        <time>2018-07-08T10:21:52Z</time>
      </trkpt>
      <trkpt lat="45.997846880927682" lon="10.468081338331103">
        <ele>2283.27</ele>
        <time>2018-07-08T10:22:03Z</time>
      </trkpt>
      <trkpt lat="45.997893149033189" lon="10.468090390786529">
        <ele>2281.3499999999999</ele>
        <time>2018-07-08T10:22:12Z</time>
      </trkpt>
      <trkpt lat="45.997935980558395" lon="10.46812760643661">
        <ele>2279.4200000000001</ele>
        <time>2018-07-08T10:22:22Z</time>
      </trkpt>
      <trkpt lat="45.997981829568744" lon="10.468139760196209">
        <ele>2278.9400000000001</ele>
        <time>2018-07-08T10:22:32Z</time>
      </trkpt>
      <trkpt lat="45.998045951128006" lon="10.46813297085464">
        <ele>2278.9400000000001</ele>
        <time>2018-07-08T10:22:43Z</time>
      </trkpt>
      <trkpt lat="45.998099343851209" lon="10.468163480982184">
        <ele>2278.46</ele>
        <time>2018-07-08T10:22:53Z</time>
      </trkpt>
      <trkpt lat="45.998123399913311" lon="10.468164570629597">
        <ele>2278.9400000000001</ele>
        <time>2018-07-08T10:22:57Z</time>
      </trkpt>
      <trkpt lat="45.998217612504959" lon="10.46820723451674">
        <ele>2278.9400000000001</ele>
        <time>2018-07-08T10:23:10Z</time>
      </trkpt>
      <trkpt lat="45.998266646638513" lon="10.468181166797876">
        <ele>2279.4200000000001</ele>
        <time>2018-07-08T10:23:22Z</time>
      </trkpt>
      <trkpt lat="45.998318362981081" lon="10.468130288645625">
        <ele>2281.3499999999999</ele>
        <time>2018-07-08T10:23:35Z</time>
      </trkpt>
      <trkpt lat="45.998334037140012" lon="10.468055857345462">
        <ele>2282.79</ele>
        <time>2018-07-08T10:23:47Z</time>
      </trkpt>
      <trkpt lat="45.99837745539844" lon="10.467999950051308">
        <ele>2282.3099999999999</ele>
        <time>2018-07-08T10:23:58Z</time>
      </trkpt>
      <trkpt lat="45.998414838686585" lon="10.468003135174513">
        <ele>2282.3099999999999</ele>
        <time>2018-07-08T10:24:08Z</time>
      </trkpt>
      <trkpt lat="45.998440152034163" lon="10.467992154881358">
        <ele>2281.8299999999999</ele>
        <time>2018-07-08T10:24:17Z</time>
      </trkpt>
      <trkpt lat="45.99846781231463" lon="10.467960387468338">
        <ele>2281.3499999999999</ele>
        <time>2018-07-08T10:24:27Z</time>
      </trkpt>
      <trkpt lat="45.998495388776064" lon="10.4679502453655">
        <ele>2281.3499999999999</ele>
        <time>2018-07-08T10:24:36Z</time>
      </trkpt>
      <trkpt lat="45.998531263321638" lon="10.467965165153146">
        <ele>2280.8699999999999</ele>
        <time>2018-07-08T10:24:43Z</time>
      </trkpt>
      <trkpt lat="45.998563449829817" lon="10.467950664460659">
        <ele>2280.8699999999999</ele>
        <time>2018-07-08T10:24:53Z</time>
      </trkpt>
      <trkpt lat="45.998577447608113" lon="10.46789743937552">
        <ele>2281.3499999999999</ele>
        <time>2018-07-08T10:25:03Z</time>
      </trkpt>
      <trkpt lat="45.99860611371696" lon="10.467856284230947">
        <ele>2282.3099999999999</ele>
        <time>2018-07-08T10:25:13Z</time>
      </trkpt>
      <trkpt lat="45.998653974384069" lon="10.467855529859662">
        <ele>2282.3099999999999</ele>
        <time>2018-07-08T10:25:23Z</time>
      </trkpt>
      <trkpt lat="45.998693788424134" lon="10.467796018347144">
        <ele>2283.27</ele>
        <time>2018-07-08T10:25:33Z</time>
      </trkpt>
      <trkpt lat="45.99873854778707" lon="10.467765675857663">
        <ele>2284.23</ele>
        <time>2018-07-08T10:25:45Z</time>
      </trkpt>
      <trkpt lat="45.998735446482897" lon="10.46766928397119">
        <ele>2285.6700000000001</ele>
        <time>2018-07-08T10:25:57Z</time>
      </trkpt>
      <trkpt lat="45.998780289664865" lon="10.467645898461342">
        <ele>2287.1100000000001</ele>
        <time>2018-07-08T10:26:07Z</time>
      </trkpt>
      <trkpt lat="45.998823707923293" lon="10.467605162411928">
        <ele>2288.5599999999999</ele>
        <time>2018-07-08T10:26:18Z</time>
      </trkpt>
      <trkpt lat="45.99888414144516" lon="10.467586470767856">
        <ele>2290</ele>
        <time>2018-07-08T10:26:30Z</time>
      </trkpt>
      <trkpt lat="45.998934265226126" lon="10.467546153813601">
        <ele>2290</ele>
        <time>2018-07-08T10:26:41Z</time>
      </trkpt>
      <trkpt lat="45.998926470056176" lon="10.467452444136143">
        <ele>2291.4400000000001</ele>
        <time>2018-07-08T10:26:54Z</time>
      </trkpt>
      <trkpt lat="45.998912891373038" lon="10.467371055856347">
        <ele>2292.8800000000001</ele>
        <time>2018-07-08T10:27:04Z</time>
      </trkpt>
      <trkpt lat="45.998930912464857" lon="10.467248260974884">
        <ele>2293.8400000000001</ele>
        <time>2018-07-08T10:27:15Z</time>
      </trkpt>
      <trkpt lat="45.998945664614439" lon="10.467143906280398">
        <ele>2293.8400000000001</ele>
        <time>2018-07-08T10:27:26Z</time>
      </trkpt>
      <trkpt lat="45.99893300794065" lon="10.467036282643676">
        <ele>2294.3200000000002</ele>
        <time>2018-07-08T10:27:38Z</time>
      </trkpt>
      <trkpt lat="45.998932085931301" lon="10.466961683705449">
        <ele>2294.3200000000002</ele>
        <time>2018-07-08T10:27:47Z</time>
      </trkpt>
      <trkpt lat="45.998949352651834" lon="10.466921953484416">
        <ele>2292.8800000000001</ele>
        <time>2018-07-08T10:27:57Z</time>
      </trkpt>
      <trkpt lat="45.998962093144655" lon="10.466922204941511">
        <ele>2292.8800000000001</ele>
        <time>2018-07-08T10:27:59Z</time>
      </trkpt>
      <trkpt lat="45.998985227197409" lon="10.466933520510793">
        <ele>2292.4000000000001</ele>
        <time>2018-07-08T10:28:09Z</time>
      </trkpt>
      <trkpt lat="45.999007606878877" lon="10.466893538832664">
        <ele>2290.96</ele>
        <time>2018-07-08T10:28:21Z</time>
      </trkpt>
      <trkpt lat="45.999043397605419" lon="10.466866800561547">
        <ele>2289.52</ele>
        <time>2018-07-08T10:28:35Z</time>
      </trkpt>
      <trkpt lat="45.999086899682879" lon="10.466794716194272">
        <ele>2289.52</ele>
        <time>2018-07-08T10:28:44Z</time>
      </trkpt>
      <trkpt lat="45.999139370396733" lon="10.466775773093104">
        <ele>2288.0799999999999</ele>
        <time>2018-07-08T10:28:54Z</time>
      </trkpt>
      <trkpt lat="45.999186811968684" lon="10.466750124469399">
        <ele>2288.0799999999999</ele>
        <time>2018-07-08T10:29:01Z</time>
      </trkpt>
      <trkpt lat="45.999233163893223" lon="10.466735539957881">
        <ele>2289.04</ele>
        <time>2018-07-08T10:29:06Z</time>
      </trkpt>
      <trkpt lat="45.99933760240674" lon="10.466723050922155">
        <ele>2287.5900000000001</ele>
        <time>2018-07-08T10:29:18Z</time>
      </trkpt>
      <trkpt lat="45.999422427266836" lon="10.466697569936514">
        <ele>2289.04</ele>
        <time>2018-07-08T10:29:29Z</time>
      </trkpt>
      <trkpt lat="45.99948663264513" lon="10.46662556938827">
        <ele>2291.4400000000001</ele>
        <time>2018-07-08T10:29:43Z</time>
      </trkpt>
      <trkpt lat="45.999566093087196" lon="10.46658550389111">
        <ele>2292.4000000000001</ele>
        <time>2018-07-08T10:29:54Z</time>
      </trkpt>
      <trkpt lat="45.999577911570668" lon="10.466596903279424">
        <ele>2292.4000000000001</ele>
        <time>2018-07-08T10:30:03Z</time>
      </trkpt>
      <trkpt lat="45.999589813873172" lon="10.466587012633681">
        <ele>2292.4000000000001</ele>
        <time>2018-07-08T10:30:12Z</time>
      </trkpt>
      <trkpt lat="45.999625353142619" lon="10.466592544689775">
        <ele>2291.9200000000001</ele>
        <time>2018-07-08T10:30:23Z</time>
      </trkpt>
      <trkpt lat="45.999643206596375" lon="10.466549545526505">
        <ele>2291.4400000000001</ele>
        <time>2018-07-08T10:30:30Z</time>
      </trkpt>
      <trkpt lat="45.999716967344284" lon="10.466526160016656">
        <ele>2291.9200000000001</ele>
        <time>2018-07-08T10:30:41Z</time>
      </trkpt>
      <trkpt lat="45.999789889901876" lon="10.466498583555222">
        <ele>2292.4000000000001</ele>
        <time>2018-07-08T10:30:52Z</time>
      </trkpt>
      <trkpt lat="45.999847557395697" lon="10.466504618525505">
        <ele>2293.3600000000001</ele>
        <time>2018-07-08T10:31:01Z</time>
      </trkpt>
      <trkpt lat="45.999873373657465" lon="10.466505624353886">
        <ele>2293.3600000000001</ele>
        <time>2018-07-08T10:31:04Z</time>
      </trkpt>
      <trkpt lat="45.999902207404375" lon="10.466496152803302">
        <ele>2293.8400000000001</ele>
        <time>2018-07-08T10:31:08Z</time>
      </trkpt>
      <trkpt lat="45.999978063628078" lon="10.466513419523835">
        <ele>2294.8000000000002</ele>
        <time>2018-07-08T10:31:21Z</time>
      </trkpt>
      <trkpt lat="46.000030534341931" lon="10.466499086469412">
        <ele>2296.73</ele>
        <time>2018-07-08T10:31:33Z</time>
      </trkpt>
      <trkpt lat="46.000055512413383" lon="10.466507552191615">
        <ele>2297.6900000000001</ele>
        <time>2018-07-08T10:31:43Z</time>
      </trkpt>
      <trkpt lat="46.000102618709207" lon="10.466478047892451">
        <ele>2299.6100000000001</ele>
        <time>2018-07-08T10:31:57Z</time>
      </trkpt>
      <trkpt lat="46.000144444406033" lon="10.466473437845707">
        <ele>2300.5700000000002</ele>
        <time>2018-07-08T10:32:07Z</time>
      </trkpt>
      <trkpt lat="46.000180151313543" lon="10.466452483087778">
        <ele>2301.5300000000002</ele>
        <time>2018-07-08T10:32:17Z</time>
      </trkpt>
      <trkpt lat="46.000206135213375" lon="10.466448543593287">
        <ele>2302.4899999999998</ele>
        <time>2018-07-08T10:32:28Z</time>
      </trkpt>
      <trkpt lat="46.000276040285826" lon="10.466421050950885">
        <ele>2302.0100000000002</ele>
        <time>2018-07-08T10:32:40Z</time>
      </trkpt>
      <trkpt lat="46.000335635617375" lon="10.466456087306142">
        <ele>2303.46</ele>
        <time>2018-07-08T10:32:53Z</time>
      </trkpt>
      <trkpt lat="46.000384502112865" lon="10.466460362076759">
        <ele>2303.9400000000001</ele>
        <time>2018-07-08T10:33:03Z</time>
      </trkpt>
      <trkpt lat="46.000440241768956" lon="10.46644770540297">
        <ele>2304.4200000000001</ele>
        <time>2018-07-08T10:33:13Z</time>
      </trkpt>
      <trkpt lat="46.00052347406745" lon="10.466432282701135">
        <ele>2304.4200000000001</ele>
        <time>2018-07-08T10:33:24Z</time>
      </trkpt>
      <trkpt lat="46.000584242865443" lon="10.466444520279765">
        <ele>2305.3800000000001</ele>
        <time>2018-07-08T10:33:35Z</time>
      </trkpt>
      <trkpt lat="46.000624811276793" lon="10.466377632692456">
        <ele>2306.3400000000001</ele>
        <time>2018-07-08T10:33:46Z</time>
      </trkpt>
      <trkpt lat="46.000672336667776" lon="10.466316863894463">
        <ele>2307.3000000000002</ele>
        <time>2018-07-08T10:33:56Z</time>
      </trkpt>
      <trkpt lat="46.000744756311178" lon="10.466296914964914">
        <ele>2308.7399999999998</ele>
        <time>2018-07-08T10:34:07Z</time>
      </trkpt>
      <trkpt lat="46.000791778787971" lon="10.46626883558929">
        <ele>2310.1900000000001</ele>
        <time>2018-07-08T10:34:17Z</time>
      </trkpt>
      <trkpt lat="46.000792030245066" lon="10.466252155601978">
        <ele>2311.6300000000001</ele>
        <time>2018-07-08T10:34:26Z</time>
      </trkpt>
      <trkpt lat="46.000809632241726" lon="10.466278474777937">
        <ele>2310.6700000000001</ele>
        <time>2018-07-08T10:34:38Z</time>
      </trkpt>
      <trkpt lat="46.000809967517853" lon="10.466259615495801">
        <ele>2310.6700000000001</ele>
        <time>2018-07-08T10:34:54Z</time>
      </trkpt>
      <trkpt lat="46.000816002488136" lon="10.46624444425106">
        <ele>2310.1900000000001</ele>
        <time>2018-07-08T10:35:16Z</time>
      </trkpt>
      <trkpt lat="46.000796556472778" lon="10.466243773698807">
        <ele>2310.1900000000001</ele>
        <time>2018-07-08T10:35:39Z</time>
      </trkpt>
      <trkpt lat="46.000793455168605" lon="10.466268248856068">
        <ele>2310.1900000000001</ele>
        <time>2018-07-08T10:35:49Z</time>
      </trkpt>
      <trkpt lat="46.000793455168605" lon="10.466275624930859">
        <ele>2310.6700000000001</ele>
        <time>2018-07-08T10:36:08Z</time>
      </trkpt>
      <trkpt lat="46.000815667212009" lon="10.466253245249391">
        <ele>2310.6700000000001</ele>
        <time>2018-07-08T10:36:29Z</time>
      </trkpt>
      <trkpt lat="46.000813320279121" lon="10.46626347117126">
        <ele>2310.1900000000001</ele>
        <time>2018-07-08T10:36:58Z</time>
      </trkpt>
      <trkpt lat="46.000801082700491" lon="10.46624050475657">
        <ele>2310.6700000000001</ele>
        <time>2018-07-08T10:37:19Z</time>
      </trkpt>
      <trkpt lat="46.000819941982627" lon="10.466244863346219">
        <ele>2310.1900000000001</ele>
        <time>2018-07-08T10:37:43Z</time>
      </trkpt>
      <trkpt lat="46.000805860385299" lon="10.466254586353898">
        <ele>2310.1900000000001</ele>
        <time>2018-07-08T10:38:03Z</time>
      </trkpt>
      <trkpt lat="46.000805776566267" lon="10.46626053750515">
        <ele>2310.1900000000001</ele>
        <time>2018-07-08T10:38:22Z</time>
      </trkpt>
      <trkpt lat="46.000817846506834" lon="10.466258358210325">
        <ele>2310.1900000000001</ele>
        <time>2018-07-08T10:38:46Z</time>
      </trkpt>
      <trkpt lat="46.000817427411675" lon="10.466248551383615">
        <ele>2310.6700000000001</ele>
        <time>2018-07-08T10:39:11Z</time>
      </trkpt>
      <trkpt lat="46.000822121277452" lon="10.466263554990292">
        <ele>2310.6700000000001</ele>
        <time>2018-07-08T10:39:34Z</time>
      </trkpt>
      <trkpt lat="46.000818097963929" lon="10.46627763658762">
        <ele>2310.1900000000001</ele>
        <time>2018-07-08T10:39:57Z</time>
      </trkpt>
      <trkpt lat="46.000816840678453" lon="10.466285431757569">
        <ele>2310.1900000000001</ele>
        <time>2018-07-08T10:40:29Z</time>
      </trkpt>
      <trkpt lat="46.000832179561257" lon="10.466264309361577">
        <ele>2310.6700000000001</ele>
        <time>2018-07-08T10:40:57Z</time>
      </trkpt>
      <trkpt lat="46.000825222581625" lon="10.466267829760909">
        <ele>2310.6700000000001</ele>
        <time>2018-07-08T10:41:20Z</time>
      </trkpt>
      <trkpt lat="46.000817008316517" lon="10.466261459514499">
        <ele>2310.6700000000001</ele>
        <time>2018-07-08T10:41:48Z</time>
      </trkpt>
      <trkpt lat="46.000811560079455" lon="10.466276714578271">
        <ele>2310.6700000000001</ele>
        <time>2018-07-08T10:42:15Z</time>
      </trkpt>
      <trkpt lat="46.000821366906166" lon="10.466257687658072">
        <ele>2310.6700000000001</ele>
        <time>2018-07-08T10:42:46Z</time>
      </trkpt>
      <trkpt lat="46.0008230432868" lon="10.466267829760909">
        <ele>2310.6700000000001</ele>
        <time>2018-07-08T10:43:16Z</time>
      </trkpt>
      <trkpt lat="46.000822288915515" lon="10.466275876387954">
        <ele>2310.6700000000001</ele>
        <time>2018-07-08T10:43:39Z</time>
      </trkpt>
      <trkpt lat="46.000816253945231" lon="10.46626397408545">
        <ele>2311.1500000000001</ele>
        <time>2018-07-08T10:44:05Z</time>
      </trkpt>
      <trkpt lat="46.000815499573946" lon="10.466267326846719">
        <ele>2311.1500000000001</ele>
        <time>2018-07-08T10:44:39Z</time>
      </trkpt>
      <trkpt lat="46.000802339985967" lon="10.466282917186618">
        <ele>2310.6700000000001</ele>
        <time>2018-07-08T10:44:59Z</time>
      </trkpt>
      <trkpt lat="46.000810135155916" lon="10.466283420100808">
        <ele>2310.6700000000001</ele>
        <time>2018-07-08T10:45:24Z</time>
      </trkpt>
      <trkpt lat="46.000818852335215" lon="10.466291969642043">
        <ele>2310.6700000000001</ele>
        <time>2018-07-08T10:45:49Z</time>
      </trkpt>
      <trkpt lat="46.000815331935883" lon="10.466302027925849">
        <ele>2311.1500000000001</ele>
        <time>2018-07-08T10:46:19Z</time>
      </trkpt>
      <trkpt lat="46.000816421583295" lon="10.466303620487452">
        <ele>2311.1500000000001</ele>
        <time>2018-07-08T10:46:42Z</time>
      </trkpt>
      <trkpt lat="46.000823210924864" lon="10.466291047632694">
        <ele>2311.1500000000001</ele>
        <time>2018-07-08T10:47:04Z</time>
      </trkpt>
      <trkpt lat="46.000817511230707" lon="10.466287862509489">
        <ele>2311.1500000000001</ele>
        <time>2018-07-08T10:47:34Z</time>
      </trkpt>
      <trkpt lat="46.000815415754914" lon="10.466285431757569">
        <ele>2311.1500000000001</ele>
        <time>2018-07-08T10:48:02Z</time>
      </trkpt>
      <trkpt lat="46.000800160691142" lon="10.46628694050014">
        <ele>2311.1500000000001</ele>
        <time>2018-07-08T10:48:21Z</time>
      </trkpt>
      <trkpt lat="46.000798651948571" lon="10.466263387352228">
        <ele>2311.1500000000001</ele>
        <time>2018-07-08T10:48:41Z</time>
      </trkpt>
      <trkpt lat="46.000808123499155" lon="10.466270344331861">
        <ele>2311.1500000000001</ele>
        <time>2018-07-08T10:49:03Z</time>
      </trkpt>
      <trkpt lat="46.000800244510174" lon="10.466269170865417">
        <ele>2311.1500000000001</ele>
        <time>2018-07-08T10:49:28Z</time>
      </trkpt>
      <trkpt lat="46.000794880092144" lon="10.466273529455066">
        <ele>2311.1500000000001</ele>
        <time>2018-07-08T10:49:47Z</time>
      </trkpt>
      <trkpt lat="46.000791192054749" lon="10.466254167258739">
        <ele>2311.1500000000001</ele>
        <time>2018-07-08T10:50:21Z</time>
      </trkpt>
      <trkpt lat="46.00080837495625" lon="10.466253580525517">
        <ele>2311.1500000000001</ele>
        <time>2018-07-08T10:50:36Z</time>
      </trkpt>
      <trkpt lat="46.000813571736217" lon="10.46626933850348">
        <ele>2311.1500000000001</ele>
        <time>2018-07-08T10:51:03Z</time>
      </trkpt>
      <trkpt lat="46.000818936154246" lon="10.466275541111827">
        <ele>2311.1500000000001</ele>
        <time>2018-07-08T10:51:27Z</time>
      </trkpt>
      <trkpt lat="46.00079907104373" lon="10.46627813950181">
        <ele>2311.1500000000001</ele>
        <time>2018-07-08T10:51:42Z</time>
      </trkpt>
      <trkpt lat="46.00081080570817" lon="10.46627570874989">
        <ele>2311.1500000000001</ele>
        <time>2018-07-08T10:52:08Z</time>
      </trkpt>
      <trkpt lat="46.000820612534881" lon="10.466272691264749">
        <ele>2310.6700000000001</ele>
        <time>2018-07-08T10:52:32Z</time>
      </trkpt>
      <trkpt lat="46.000800998881459" lon="10.466260369867086">
        <ele>2310.6700000000001</ele>
        <time>2018-07-08T10:52:55Z</time>
      </trkpt>
      <trkpt lat="46.000808794051409" lon="10.466260872781277">
        <ele>2310.6700000000001</ele>
        <time>2018-07-08T10:53:24Z</time>
      </trkpt>
      <trkpt lat="46.000803764909506" lon="10.466248383745551">
        <ele>2310.6700000000001</ele>
        <time>2018-07-08T10:54:00Z</time>
      </trkpt>
      <trkpt lat="46.000806698575616" lon="10.466255759820342">
        <ele>2310.6700000000001</ele>
        <time>2018-07-08T10:54:26Z</time>
      </trkpt>
      <trkpt lat="46.000810135155916" lon="10.466253664344549">
        <ele>2311.1500000000001</ele>
        <time>2018-07-08T10:54:56Z</time>
      </trkpt>
      <trkpt lat="46.000812565907836" lon="10.466268919408321">
        <ele>2310.6700000000001</ele>
        <time>2018-07-08T10:55:23Z</time>
      </trkpt>
      <trkpt lat="46.000809045508504" lon="10.46625760383904">
        <ele>2311.1500000000001</ele>
        <time>2018-07-08T10:55:45Z</time>
      </trkpt>
      <trkpt lat="46.000801920890808" lon="10.466261208057404">
        <ele>2311.6300000000001</ele>
        <time>2018-07-08T10:56:05Z</time>
      </trkpt>
      <trkpt lat="46.000804686918855" lon="10.466259950771928">
        <ele>2311.1500000000001</ele>
        <time>2018-07-08T10:56:36Z</time>
      </trkpt>
      <trkpt lat="46.000798568129539" lon="10.466257939115167">
        <ele>2311.1500000000001</ele>
        <time>2018-07-08T10:56:58Z</time>
      </trkpt>
      <trkpt lat="46.000802172347903" lon="10.466250646859407">
        <ele>2311.1500000000001</ele>
        <time>2018-07-08T10:57:21Z</time>
      </trkpt>
      <trkpt lat="46.000794460996985" lon="10.466247629374266">
        <ele>2311.6300000000001</ele>
        <time>2018-07-08T10:57:42Z</time>
      </trkpt>
      <trkpt lat="46.000798316672444" lon="10.4662527423352">
        <ele>2311.1500000000001</ele>
        <time>2018-07-08T10:58:13Z</time>
      </trkpt>
      <trkpt lat="46.000808626413345" lon="10.466252826154232">
        <ele>2311.1500000000001</ele>
        <time>2018-07-08T10:58:46Z</time>
      </trkpt>
      <trkpt lat="46.000808291137218" lon="10.46625810675323">
        <ele>2311.1500000000001</ele>
        <time>2018-07-08T10:59:07Z</time>
      </trkpt>
      <trkpt lat="46.00079613737762" lon="10.466253329068422">
        <ele>2312.1100000000001</ele>
        <time>2018-07-08T10:59:17Z</time>
      </trkpt>
      <trkpt lat="46.00078783929348" lon="10.466246623545885">
        <ele>2312.1100000000001</ele>
        <time>2018-07-08T10:59:28Z</time>
      </trkpt>
      <trkpt lat="46.000779373571277" lon="10.46624444425106">
        <ele>2311.6300000000001</ele>
        <time>2018-07-08T10:59:40Z</time>
      </trkpt>
      <trkpt lat="46.000807117670774" lon="10.466271350160241">
        <ele>2312.1100000000001</ele>
        <time>2018-07-08T10:59:51Z</time>
      </trkpt>
      <trkpt lat="46.000801334157586" lon="10.466269254684448">
        <ele>2312.1100000000001</ele>
        <time>2018-07-08T11:00:04Z</time>
      </trkpt>
      <trkpt lat="46.000813487917185" lon="10.466267745941877">
        <ele>2312.1100000000001</ele>
        <time>2018-07-08T11:00:22Z</time>
      </trkpt>
      <trkpt lat="46.000807955861092" lon="10.466272104531527">
        <ele>2312.1100000000001</ele>
        <time>2018-07-08T11:00:41Z</time>
      </trkpt>
      <trkpt lat="46.000812062993646" lon="10.466263638809323">
        <ele>2312.1100000000001</ele>
        <time>2018-07-08T11:00:54Z</time>
      </trkpt>
      <trkpt lat="46.000865790992975" lon="10.466307979077101">
        <ele>2310.6700000000001</ele>
        <time>2018-07-08T11:01:08Z</time>
      </trkpt>
      <trkpt lat="46.000891355797648" lon="10.466308733448386">
        <ele>2310.6700000000001</ele>
        <time>2018-07-08T11:01:19Z</time>
      </trkpt>
      <trkpt lat="46.000941395759583" lon="10.466353995725513">
        <ele>2309.6999999999998</ele>
        <time>2018-07-08T11:01:29Z</time>
      </trkpt>
      <trkpt lat="46.000987999141216" lon="10.46638760715723">
        <ele>2309.6999999999998</ele>
        <time>2018-07-08T11:01:39Z</time>
      </trkpt>
      <trkpt lat="46.00101943127811" lon="10.466388529166579">
        <ele>2309.6999999999998</ele>
        <time>2018-07-08T11:01:52Z</time>
      </trkpt>
      <trkpt lat="46.001080116257071" lon="10.466426583006978">
        <ele>2308.7399999999998</ele>
        <time>2018-07-08T11:02:02Z</time>
      </trkpt>
      <trkpt lat="46.001114984974265" lon="10.466444101184607">
        <ele>2308.2600000000002</ele>
        <time>2018-07-08T11:02:09Z</time>
      </trkpt>
      <trkpt lat="46.001171311363578" lon="10.466452231630683">
        <ele>2306.8200000000002</ele>
        <time>2018-07-08T11:02:20Z</time>
      </trkpt>
      <trkpt lat="46.001207521185279" lon="10.466452818363905">
        <ele>2306.3400000000001</ele>
        <time>2018-07-08T11:02:28Z</time>
      </trkpt>
      <trkpt lat="46.001259405165911" lon="10.466424403712153">
        <ele>2305.8600000000001</ele>
        <time>2018-07-08T11:02:38Z</time>
      </trkpt>
      <trkpt lat="46.001331489533186" lon="10.466438485309482">
        <ele>2303.9400000000001</ele>
        <time>2018-07-08T11:02:50Z</time>
      </trkpt>
      <trkpt lat="46.001380188390613" lon="10.466451393440366">
        <ele>2302.4899999999998</ele>
        <time>2018-07-08T11:03:01Z</time>
      </trkpt>
      <trkpt lat="46.001440789550543" lon="10.466442760080099">
        <ele>2301.5300000000002</ele>
        <time>2018-07-08T11:03:11Z</time>
      </trkpt>
      <trkpt lat="46.001476747915149" lon="10.466422056779265">
        <ele>2301.0500000000002</ele>
        <time>2018-07-08T11:03:16Z</time>
      </trkpt>
      <trkpt lat="46.001525865867734" lon="10.466420883312821">
        <ele>2300.0900000000001</ele>
        <time>2018-07-08T11:03:28Z</time>
      </trkpt>
      <trkpt lat="46.001569367945194" lon="10.466417614370584">
        <ele>2300.0900000000001</ele>
        <time>2018-07-08T11:03:37Z</time>
      </trkpt>
      <trkpt lat="46.001653270795941" lon="10.466407472267747">
        <ele>2299.1300000000001</ele>
        <time>2018-07-08T11:03:47Z</time>
      </trkpt>
      <trkpt lat="46.001659389585257" lon="10.466406298801303">
        <ele>2299.1300000000001</ele>
        <time>2018-07-08T11:03:48Z</time>
      </trkpt>
      <trkpt lat="46.001749914139509" lon="10.4664306063205">
        <ele>2298.1700000000001</ele>
        <time>2018-07-08T11:03:59Z</time>
      </trkpt>
      <trkpt lat="46.001831889152527" lon="10.46645499765873">
        <ele>2297.6900000000001</ele>
        <time>2018-07-08T11:04:10Z</time>
      </trkpt>
      <trkpt lat="46.00186382420361" lon="10.466467570513487">
        <ele>2296.73</ele>
        <time>2018-07-08T11:04:14Z</time>
      </trkpt>
      <trkpt lat="46.001914450898767" lon="10.466514760628343">
        <ele>2295.77</ele>
        <time>2018-07-08T11:04:23Z</time>
      </trkpt>
      <trkpt lat="46.001991983503103" lon="10.466556837782264">
        <ele>2295.2800000000002</ele>
        <time>2018-07-08T11:04:34Z</time>
      </trkpt>
      <trkpt lat="46.002066330984235" lon="10.466573853045702">
        <ele>2294.3200000000002</ele>
        <time>2018-07-08T11:04:44Z</time>
      </trkpt>
      <trkpt lat="46.002155179157853" lon="10.466554071754217">
        <ele>2295.2800000000002</ele>
        <time>2018-07-08T11:04:56Z</time>
      </trkpt>
      <trkpt lat="46.002259617671371" lon="10.466559771448374">
        <ele>2295.2800000000002</ele>
        <time>2018-07-08T11:05:08Z</time>
      </trkpt>
      <trkpt lat="46.002377131953835" lon="10.466544013470411">
        <ele>2294.8000000000002</ele>
        <time>2018-07-08T11:05:20Z</time>
      </trkpt>
      <trkpt lat="46.00245650857687" lon="10.466479305177927">
        <ele>2295.77</ele>
        <time>2018-07-08T11:05:33Z</time>
      </trkpt>
      <trkpt lat="46.002514343708754" lon="10.466414513066411">
        <ele>2297.21</ele>
        <time>2018-07-08T11:05:44Z</time>
      </trkpt>
      <trkpt lat="46.002582991495728" lon="10.466370340436697">
        <ele>2298.6500000000001</ele>
        <time>2018-07-08T11:05:56Z</time>
      </trkpt>
      <trkpt lat="46.002615345641971" lon="10.466321725398302">
        <ele>2300.0900000000001</ele>
        <time>2018-07-08T11:06:06Z</time>
      </trkpt>
      <trkpt lat="46.002666056156158" lon="10.466308481991291">
        <ele>2302.0100000000002</ele>
        <time>2018-07-08T11:06:17Z</time>
      </trkpt>
      <trkpt lat="46.002718526870012" lon="10.466321893036366">
        <ele>2302.4899999999998</ele>
        <time>2018-07-08T11:06:26Z</time>
      </trkpt>
      <trkpt lat="46.002771835774183" lon="10.466321557760239">
        <ele>2303.46</ele>
        <time>2018-07-08T11:06:36Z</time>
      </trkpt>
      <trkpt lat="46.002846602350473" lon="10.466287024319172">
        <ele>2304.4200000000001</ele>
        <time>2018-07-08T11:06:49Z</time>
      </trkpt>
      <trkpt lat="46.002883818000555" lon="10.466274535283446">
        <ele>2303.9400000000001</ele>
        <time>2018-07-08T11:06:53Z</time>
      </trkpt>
      <trkpt lat="46.002905527129769" lon="10.466279396787286">
        <ele>2303.9400000000001</ele>
        <time>2018-07-08T11:06:55Z</time>
      </trkpt>
      <trkpt lat="46.003034524619579" lon="10.466292724013329">
        <ele>2302.98</ele>
        <time>2018-07-08T11:07:08Z</time>
      </trkpt>
      <trkpt lat="46.003105100244284" lon="10.466305045410991">
        <ele>2302.4899999999998</ele>
        <time>2018-07-08T11:07:15Z</time>
      </trkpt>
      <trkpt lat="46.003197301179171" lon="10.466278977692127">
        <ele>2303.46</ele>
        <time>2018-07-08T11:07:26Z</time>
      </trkpt>
      <trkpt lat="46.003299141302705" lon="10.466296328231692">
        <ele>2303.9400000000001</ele>
        <time>2018-07-08T11:07:38Z</time>
      </trkpt>
      <trkpt lat="46.003407686948776" lon="10.466373190283775">
        <ele>2302.98</ele>
        <time>2018-07-08T11:07:50Z</time>
      </trkpt>
      <trkpt lat="46.00348798558116" lon="10.466366149485111">
        <ele>2302.4899999999998</ele>
        <time>2018-07-08T11:08:01Z</time>
      </trkpt>
      <trkpt lat="46.003531822934747" lon="10.466398084536195">
        <ele>2303.46</ele>
        <time>2018-07-08T11:08:09Z</time>
      </trkpt>
      <trkpt lat="46.003608265891671" lon="10.466382913291454">
        <ele>2302.0100000000002</ele>
        <time>2018-07-08T11:08:18Z</time>
      </trkpt>
      <trkpt lat="46.003625951707363" lon="10.466371346265078">
        <ele>2301.5300000000002</ele>
        <time>2018-07-08T11:08:20Z</time>
      </trkpt>
      <trkpt lat="46.003642296418548" lon="10.466385176405311">
        <ele>2301.5300000000002</ele>
        <time>2018-07-08T11:08:22Z</time>
      </trkpt>
      <trkpt lat="46.003711530938745" lon="10.466408813372254">
        <ele>2302.0100000000002</ele>
        <time>2018-07-08T11:08:34Z</time>
      </trkpt>
      <trkpt lat="46.003719745203853" lon="10.466407891362906">
        <ele>2302.0100000000002</ele>
        <time>2018-07-08T11:08:44Z</time>
      </trkpt>
      <trkpt lat="46.003792332485318" lon="10.466443262994289">
        <ele>2301.5300000000002</ele>
        <time>2018-07-08T11:08:53Z</time>
      </trkpt>
      <trkpt lat="46.003833319991827" lon="10.466417111456394">
        <ele>2302.4899999999998</ele>
        <time>2018-07-08T11:08:59Z</time>
      </trkpt>
      <trkpt lat="46.003928035497665" lon="10.466438652947545">
        <ele>2303.9400000000001</ele>
        <time>2018-07-08T11:09:11Z</time>
      </trkpt>
      <trkpt lat="46.003960222005844" lon="10.46644426882267">
        <ele>2304.4200000000001</ele>
        <time>2018-07-08T11:09:15Z</time>
      </trkpt>
      <trkpt lat="46.003982769325376" lon="10.466455668210983">
        <ele>2304.4200000000001</ele>
        <time>2018-07-08T11:09:18Z</time>
      </trkpt>
      <trkpt lat="46.004107911139727" lon="10.466462038457394">
        <ele>2304.9000000000001</ele>
        <time>2018-07-08T11:09:31Z</time>
      </trkpt>
      <trkpt lat="46.004207991063595" lon="10.466476874426007">
        <ele>2305.8600000000001</ele>
        <time>2018-07-08T11:09:43Z</time>
      </trkpt>
      <trkpt lat="46.004251576960087" lon="10.466502271592617">
        <ele>2305.8600000000001</ele>
        <time>2018-07-08T11:09:49Z</time>
      </trkpt>
      <trkpt lat="46.004321901127696" lon="10.466487603262067">
        <ele>2306.8200000000002</ele>
        <time>2018-07-08T11:10:00Z</time>
      </trkpt>
      <trkpt lat="46.004384011030197" lon="10.466471007093787">
        <ele>2309.2199999999998</ele>
        <time>2018-07-08T11:10:11Z</time>
      </trkpt>
      <trkpt lat="46.004468332976103" lon="10.466461032629013">
        <ele>2310.1900000000001</ele>
        <time>2018-07-08T11:10:23Z</time>
      </trkpt>
      <trkpt lat="46.004556259140372" lon="10.466474108397961">
        <ele>2311.1500000000001</ele>
        <time>2018-07-08T11:10:35Z</time>
      </trkpt>
      <trkpt lat="46.004646280780435" lon="10.466490369290113">
        <ele>2311.6300000000001</ele>
        <time>2018-07-08T11:10:46Z</time>
      </trkpt>
      <trkpt lat="46.004725405946374" lon="10.466514006257057">
        <ele>2312.5900000000001</ele>
        <time>2018-07-08T11:10:57Z</time>
      </trkpt>
      <trkpt lat="46.004779133945704" lon="10.466538900509477">
        <ele>2313.0700000000002</ele>
        <time>2018-07-08T11:11:04Z</time>
      </trkpt>
      <trkpt lat="46.004828419536352" lon="10.46656446531415">
        <ele>2313.0700000000002</ele>
        <time>2018-07-08T11:11:11Z</time>
      </trkpt>
      <trkpt lat="46.004878710955381" lon="10.46659279614687">
        <ele>2313.5500000000002</ele>
        <time>2018-07-08T11:11:19Z</time>
      </trkpt>
      <trkpt lat="46.004971414804459" lon="10.46662213280797">
        <ele>2313.0700000000002</ele>
        <time>2018-07-08T11:11:30Z</time>
      </trkpt>
      <trkpt lat="46.005000751465559" lon="10.46661970205605">
        <ele>2313.5500000000002</ele>
        <time>2018-07-08T11:11:34Z</time>
      </trkpt>
      <trkpt lat="46.005064873024821" lon="10.466654067859054">
        <ele>2314.0300000000002</ele>
        <time>2018-07-08T11:11:42Z</time>
      </trkpt>
      <trkpt lat="46.00510778836906" lon="10.466664964333177">
        <ele>2314.0300000000002</ele>
        <time>2018-07-08T11:11:47Z</time>
      </trkpt>
      <trkpt lat="46.005201498046517" lon="10.46667343005538">
        <ele>2314.5100000000002</ele>
        <time>2018-07-08T11:11:58Z</time>
      </trkpt>
      <trkpt lat="46.005301242694259" lon="10.466689858585596">
        <ele>2315.4699999999998</ele>
        <time>2018-07-08T11:12:10Z</time>
      </trkpt>
      <trkpt lat="46.005375506356359" lon="10.466723721474409">
        <ele>2316.4299999999998</ele>
        <time>2018-07-08T11:12:21Z</time>
      </trkpt>
      <trkpt lat="46.005426216870546" lon="10.466706957668066">
        <ele>2317.8800000000001</ele>
        <time>2018-07-08T11:12:31Z</time>
      </trkpt>
      <trkpt lat="46.005492685362697" lon="10.466755405068398">
        <ele>2318.8400000000001</ele>
        <time>2018-07-08T11:12:40Z</time>
      </trkpt>
      <trkpt lat="46.005552615970373" lon="10.466770743951201">
        <ele>2318.8400000000001</ele>
        <time>2018-07-08T11:12:48Z</time>
      </trkpt>
      <trkpt lat="46.00558077916503" lon="10.466766385361552">
        <ele>2319.3200000000002</ele>
        <time>2018-07-08T11:12:52Z</time>
      </trkpt>
      <trkpt lat="46.005636854097247" lon="10.466767810285091">
        <ele>2320.2800000000002</ele>
        <time>2018-07-08T11:13:00Z</time>
      </trkpt>
      <trkpt lat="46.005677590146661" lon="10.466779377311468">
        <ele>2320.7600000000002</ele>
        <time>2018-07-08T11:13:05Z</time>
      </trkpt>
      <trkpt lat="46.005792254582047" lon="10.466831009835005">
        <ele>2320.2800000000002</ele>
        <time>2018-07-08T11:13:18Z</time>
      </trkpt>
      <trkpt lat="46.005875570699573" lon="10.466864369809628">
        <ele>2320.2800000000002</ele>
        <time>2018-07-08T11:13:28Z</time>
      </trkpt>
      <trkpt lat="46.00595117546618" lon="10.466874511912465">
        <ele>2320.7600000000002</ele>
        <time>2018-07-08T11:13:37Z</time>
      </trkpt>
      <trkpt lat="46.006010770797729" lon="10.466900914907455">
        <ele>2320.2800000000002</ele>
        <time>2018-07-08T11:13:44Z</time>
      </trkpt>
      <trkpt lat="46.006057960912585" lon="10.466892030090094">
        <ele>2321.2399999999998</ele>
        <time>2018-07-08T11:13:49Z</time>
      </trkpt>
      <trkpt lat="46.006144713610411" lon="10.466892616823316">
        <ele>2321.7199999999998</ele>
        <time>2018-07-08T11:14:01Z</time>
      </trkpt>
      <trkpt lat="46.006220066919923" lon="10.466898400336504">
        <ele>2322.6799999999998</ele>
        <time>2018-07-08T11:14:10Z</time>
      </trkpt>
      <trkpt lat="46.006246721372008" lon="10.466906614601612">
        <ele>2323.1599999999999</ele>
        <time>2018-07-08T11:14:13Z</time>
      </trkpt>
      <trkpt lat="46.006313106045127" lon="10.466856071725488">
        <ele>2323.6399999999999</ele>
        <time>2018-07-08T11:14:24Z</time>
      </trkpt>
      <trkpt lat="46.006383262574673" lon="10.46681365929544">
        <ele>2324.1199999999999</ele>
        <time>2018-07-08T11:14:35Z</time>
      </trkpt>
      <trkpt lat="46.006494155153632" lon="10.466857412829995">
        <ele>2325.5700000000002</ele>
        <time>2018-07-08T11:14:48Z</time>
      </trkpt>
      <trkpt lat="46.006518378853798" lon="10.466877780854702">
        <ele>2325.5700000000002</ele>
        <time>2018-07-08T11:14:51Z</time>
      </trkpt>
      <trkpt lat="46.006601275876164" lon="10.466901669278741">
        <ele>2326.5300000000002</ele>
        <time>2018-07-08T11:15:03Z</time>
      </trkpt>
      <trkpt lat="46.006658440455794" lon="10.466932095587254">
        <ele>2327.4899999999998</ele>
        <time>2018-07-08T11:15:12Z</time>
      </trkpt>
      <trkpt lat="46.006677635014057" lon="10.466929581016302">
        <ele>2328.4499999999998</ele>
        <time>2018-07-08T11:15:22Z</time>
      </trkpt>
      <trkpt lat="46.006704876199365" lon="10.466965874657035">
        <ele>2328.4499999999998</ele>
        <time>2018-07-08T11:15:35Z</time>
      </trkpt>
      <trkpt lat="46.006787940859795" lon="10.467009879648685">
        <ele>2329.4099999999999</ele>
        <time>2018-07-08T11:15:46Z</time>
      </trkpt>
      <trkpt lat="46.006806883960962" lon="10.467018848285079">
        <ele>2329.8899999999999</ele>
        <time>2018-07-08T11:16:00Z</time>
      </trkpt>
      <trkpt lat="46.006903443485498" lon="10.46706042252481">
        <ele>2330.3699999999999</ele>
        <time>2018-07-08T11:16:10Z</time>
      </trkpt>
      <trkpt lat="46.006995560601354" lon="10.467108115553856">
        <ele>2331.3299999999999</ele>
        <time>2018-07-08T11:16:22Z</time>
      </trkpt>
      <trkpt lat="46.007040068507195" lon="10.46712638810277">
        <ele>2328.9299999999998</ele>
        <time>2018-07-08T11:16:28Z</time>
      </trkpt>
      <trkpt lat="46.007047779858112" lon="10.467129405587912">
        <ele>2328.4499999999998</ele>
        <time>2018-07-08T11:16:36Z</time>
      </trkpt>
      <trkpt lat="46.007107375189662" lon="10.467177769169211">
        <ele>2328.9299999999998</ele>
        <time>2018-07-08T11:16:45Z</time>
      </trkpt>
      <trkpt lat="46.007181722670794" lon="10.467164609581232">
        <ele>2330.8499999999999</ele>
        <time>2018-07-08T11:16:57Z</time>
      </trkpt>
      <trkpt lat="46.007223716005683" lon="10.467158323153853">
        <ele>2331.3299999999999</ele>
        <time>2018-07-08T11:17:02Z</time>
      </trkpt>
      <trkpt lat="46.007318431511521" lon="10.467199645936489">
        <ele>2332.3000000000002</ele>
        <time>2018-07-08T11:17:15Z</time>
      </trkpt>
      <trkpt lat="46.007395712658763" lon="10.46724658459425">
        <ele>2330.8499999999999</ele>
        <time>2018-07-08T11:17:26Z</time>
      </trkpt>
      <trkpt lat="46.007417589426041" lon="10.467240633442998">
        <ele>2330.8499999999999</ele>
        <time>2018-07-08T11:17:29Z</time>
      </trkpt>
      <trkpt lat="46.007508030161262" lon="10.467273825779557">
        <ele>2331.8099999999999</ele>
        <time>2018-07-08T11:17:41Z</time>
      </trkpt>
      <trkpt lat="46.007599392905831" lon="10.46729302033782">
        <ele>2332.7800000000002</ele>
        <time>2018-07-08T11:17:53Z</time>
      </trkpt>
      <trkpt lat="46.00761397741735" lon="10.467298720031977">
        <ele>2333.7399999999998</ele>
        <time>2018-07-08T11:17:56Z</time>
      </trkpt>
      <trkpt lat="46.007688995450735" lon="10.46732671558857">
        <ele>2335.1799999999998</ele>
        <time>2018-07-08T11:18:08Z</time>
      </trkpt>
      <trkpt lat="46.007745740935206" lon="10.467311795800924">
        <ele>2337.0999999999999</ele>
        <time>2018-07-08T11:18:20Z</time>
      </trkpt>
      <trkpt lat="46.007807850837708" lon="10.467310873791575">
        <ele>2336.6199999999999</ele>
        <time>2018-07-08T11:18:30Z</time>
      </trkpt>
      <trkpt lat="46.007858142256737" lon="10.467267287895083">
        <ele>2339.5100000000002</ele>
        <time>2018-07-08T11:18:42Z</time>
      </trkpt>
      <trkpt lat="46.007870631292462" lon="10.467246668413281">
        <ele>2339.5100000000002</ele>
        <time>2018-07-08T11:18:52Z</time>
      </trkpt>
      <trkpt lat="46.007922096177936" lon="10.467278687283397">
        <ele>2339.9899999999998</ele>
        <time>2018-07-08T11:19:03Z</time>
      </trkpt>
      <trkpt lat="46.007935591042042" lon="10.46730374917388">
        <ele>2339.02</ele>
        <time>2018-07-08T11:19:15Z</time>
      </trkpt>
      <trkpt lat="46.007945314049721" lon="10.467305174097419">
        <ele>2339.02</ele>
        <time>2018-07-08T11:19:26Z</time>
      </trkpt>
      <trkpt lat="46.007931148633361" lon="10.467342222109437">
        <ele>2338.0599999999999</ele>
        <time>2018-07-08T11:19:36Z</time>
      </trkpt>
      <trkpt lat="46.007914049550891" lon="10.467348089441657">
        <ele>2338.0599999999999</ele>
        <time>2018-07-08T11:19:46Z</time>
      </trkpt>
      <trkpt lat="46.007908182218671" lon="10.467327805235982">
        <ele>2338.0599999999999</ele>
        <time>2018-07-08T11:20:09Z</time>
      </trkpt>
      <trkpt lat="46.007962999865413" lon="10.46730718575418">
        <ele>2339.5100000000002</ele>
        <time>2018-07-08T11:20:21Z</time>
      </trkpt>
      <trkpt lat="46.007974650710821" lon="10.467308694496751">
        <ele>2339.9899999999998</ele>
        <time>2018-07-08T11:20:33Z</time>
      </trkpt>
      <trkpt lat="46.008055033162236" lon="10.467297798022628">
        <ele>2340.4699999999998</ele>
        <time>2018-07-08T11:20:43Z</time>
      </trkpt>
      <trkpt lat="46.008136672899127" lon="10.467309029772878">
        <ele>2340.4699999999998</ele>
        <time>2018-07-08T11:20:52Z</time>
      </trkpt>
      <trkpt lat="46.008174223825336" lon="10.46727885492146">
        <ele>2342.3899999999999</ele>
        <time>2018-07-08T11:21:01Z</time>
      </trkpt>
      <trkpt lat="46.008248487487435" lon="10.467262007296085">
        <ele>2343.8299999999999</ele>
        <time>2018-07-08T11:21:12Z</time>
      </trkpt>
      <trkpt lat="46.008309843018651" lon="10.467281872406602">
        <ele>2344.3099999999999</ele>
        <time>2018-07-08T11:21:21Z</time>
      </trkpt>
      <trkpt lat="46.00838796235621" lon="10.467305341735482">
        <ele>2344.79</ele>
        <time>2018-07-08T11:21:32Z</time>
      </trkpt>
      <trkpt lat="46.008449150249362" lon="10.467351358383894">
        <ele>2345.27</ele>
        <time>2018-07-08T11:21:42Z</time>
      </trkpt>
      <trkpt lat="46.008530622348189" lon="10.467385808005929">
        <ele>2346.23</ele>
        <time>2018-07-08T11:21:54Z</time>
      </trkpt>
      <trkpt lat="46.008540345355868" lon="10.467381700873375">
        <ele>2346.23</ele>
        <time>2018-07-08T11:21:56Z</time>
      </trkpt>
      <trkpt lat="46.008611088618636" lon="10.467392764985561">
        <ele>2346.23</ele>
        <time>2018-07-08T11:22:05Z</time>
      </trkpt>
      <trkpt lat="46.008702535182238" lon="10.467393016442657">
        <ele>2345.75</ele>
        <time>2018-07-08T11:22:16Z</time>
      </trkpt>
      <trkpt lat="46.008771266788244" lon="10.467385975643992">
        <ele>2348.1599999999999</ele>
        <time>2018-07-08T11:22:28Z</time>
      </trkpt>
      <trkpt lat="46.008846201002598" lon="10.467434758320451">
        <ele>2349.1199999999999</ele>
        <time>2018-07-08T11:22:39Z</time>
      </trkpt>
      <trkpt lat="46.00891032256186" lon="10.467516900971532">
        <ele>2349.5999999999999</ele>
        <time>2018-07-08T11:22:52Z</time>
      </trkpt>
      <trkpt lat="46.008963463827968" lon="10.467574736103415">
        <ele>2351.52</ele>
        <time>2018-07-08T11:23:04Z</time>
      </trkpt>
      <trkpt lat="46.008970672264695" lon="10.467579262331128">
        <ele>2351.52</ele>
        <time>2018-07-08T11:23:05Z</time>
      </trkpt>
      <trkpt lat="46.009058933705091" lon="10.467617819085717">
        <ele>2352.96</ele>
        <time>2018-07-08T11:23:19Z</time>
      </trkpt>
      <trkpt lat="46.009123222902417" lon="10.467642294242978">
        <ele>2353.4400000000001</ele>
        <time>2018-07-08T11:23:30Z</time>
      </trkpt>
      <trkpt lat="46.009128419682384" lon="10.467640366405249">
        <ele>2353.4400000000001</ele>
        <time>2018-07-08T11:23:31Z</time>
      </trkpt>
      <trkpt lat="46.00921081379056" lon="10.46767070889473">
        <ele>2355.3699999999999</ele>
        <time>2018-07-08T11:23:44Z</time>
      </trkpt>
      <trkpt lat="46.009296895936131" lon="10.46768831089139">
        <ele>2355.8499999999999</ele>
        <time>2018-07-08T11:23:55Z</time>
      </trkpt>
      <trkpt lat="46.009379122406244" lon="10.467740362510085">
        <ele>2357.29</ele>
        <time>2018-07-08T11:24:07Z</time>
      </trkpt>
      <trkpt lat="46.009468724951148" lon="10.467787468805909">
        <ele>2358.73</ele>
        <time>2018-07-08T11:24:18Z</time>
      </trkpt>
      <trkpt lat="46.009536115452647" lon="10.467813787981868">
        <ele>2358.25</ele>
        <time>2018-07-08T11:24:28Z</time>
      </trkpt>
      <trkpt lat="46.009603254497051" lon="10.467831725254655">
        <ele>2359.6900000000001</ele>
        <time>2018-07-08T11:24:38Z</time>
      </trkpt>
      <trkpt lat="46.009678607806563" lon="10.467831725254655">
        <ele>2360.6500000000001</ele>
        <time>2018-07-08T11:24:48Z</time>
      </trkpt>
      <trkpt lat="46.009697215631604" lon="10.467844549566507">
        <ele>2360.6500000000001</ele>
        <time>2018-07-08T11:24:51Z</time>
      </trkpt>
      <trkpt lat="46.00976686924696" lon="10.467888722196221">
        <ele>2361.6199999999999</ele>
        <time>2018-07-08T11:25:01Z</time>
      </trkpt>
      <trkpt lat="46.009835600852966" lon="10.467920741066337">
        <ele>2363.0599999999999</ele>
        <time>2018-07-08T11:25:11Z</time>
      </trkpt>
      <trkpt lat="46.009912211447954" lon="10.467948988080025">
        <ele>2363.54</ele>
        <time>2018-07-08T11:25:21Z</time>
      </trkpt>
      <trkpt lat="46.009988989681005" lon="10.467993831261992">
        <ele>2364.5</ele>
        <time>2018-07-08T11:25:31Z</time>
      </trkpt>
      <trkpt lat="46.010064426809549" lon="10.468029454350471">
        <ele>2365.46</ele>
        <time>2018-07-08T11:25:42Z</time>
      </trkpt>
      <trkpt lat="46.010135421529412" lon="10.468058120459318">
        <ele>2366.4200000000001</ele>
        <time>2018-07-08T11:25:53Z</time>
      </trkpt>
      <trkpt lat="46.01021496579051" lon="10.468038925901055">
        <ele>2367.8600000000001</ele>
        <time>2018-07-08T11:26:04Z</time>
      </trkpt>
      <trkpt lat="46.010280260816216" lon="10.468017300590873">
        <ele>2369.79</ele>
        <time>2018-07-08T11:26:16Z</time>
      </trkpt>
      <trkpt lat="46.010350920259953" lon="10.46801621094346">
        <ele>2371.71</ele>
        <time>2018-07-08T11:26:27Z</time>
      </trkpt>
      <trkpt lat="46.010440606623888" lon="10.468020401895046">
        <ele>2373.1500000000001</ele>
        <time>2018-07-08T11:26:40Z</time>
      </trkpt>
      <trkpt lat="46.010504057630897" lon="10.468021994456649">
        <ele>2374.1100000000001</ele>
        <time>2018-07-08T11:26:49Z</time>
      </trkpt>
      <trkpt lat="46.010580752044916" lon="10.468028029426932">
        <ele>2375.5500000000002</ele>
        <time>2018-07-08T11:27:01Z</time>
      </trkpt>
      <trkpt lat="46.010595168918371" lon="10.4680435359478">
        <ele>2376.04</ele>
        <time>2018-07-08T11:27:03Z</time>
      </trkpt>
      <trkpt lat="46.010678401216865" lon="10.468036662787199">
        <ele>2376.52</ele>
        <time>2018-07-08T11:27:16Z</time>
      </trkpt>
      <trkpt lat="46.010773871093988" lon="10.468009421601892">
        <ele>2377.96</ele>
        <time>2018-07-08T11:27:29Z</time>
      </trkpt>
      <trkpt lat="46.010856600478292" lon="10.467987293377519">
        <ele>2379.4000000000001</ele>
        <time>2018-07-08T11:27:41Z</time>
      </trkpt>
      <trkpt lat="46.010951399803162" lon="10.468020737171173">
        <ele>2379.8800000000001</ele>
        <time>2018-07-08T11:27:52Z</time>
      </trkpt>
      <trkpt lat="46.011024573817849" lon="10.468031214550138">
        <ele>2380.8400000000001</ele>
        <time>2018-07-08T11:28:04Z</time>
      </trkpt>
      <trkpt lat="46.011081654578447" lon="10.468056527897716">
        <ele>2382.2800000000002</ele>
        <time>2018-07-08T11:28:15Z</time>
      </trkpt>
      <trkpt lat="46.011155834421515" lon="10.468095671385527">
        <ele>2382.7600000000002</ele>
        <time>2018-07-08T11:28:26Z</time>
      </trkpt>
      <trkpt lat="46.011224230751395" lon="10.468112016096711">
        <ele>2383.73</ele>
        <time>2018-07-08T11:28:37Z</time>
      </trkpt>
      <trkpt lat="46.011293632909656" lon="10.468114027753472">
        <ele>2384.6900000000001</ele>
        <time>2018-07-08T11:28:48Z</time>
      </trkpt>
      <trkpt lat="46.011369824409485" lon="10.468111680820584">
        <ele>2385.6500000000001</ele>
        <time>2018-07-08T11:28:59Z</time>
      </trkpt>
      <trkpt lat="46.011437550187111" lon="10.468097096309066">
        <ele>2386.6100000000001</ele>
        <time>2018-07-08T11:29:10Z</time>
      </trkpt>
      <trkpt lat="46.011507119983435" lon="10.468105981126428">
        <ele>2387.5700000000002</ele>
        <time>2018-07-08T11:29:21Z</time>
      </trkpt>
      <trkpt lat="46.011542407795787" lon="10.468069184571505">
        <ele>2389.0100000000002</ele>
        <time>2018-07-08T11:29:31Z</time>
      </trkpt>
      <trkpt lat="46.011574091389775" lon="10.468031717464328">
        <ele>2390.46</ele>
        <time>2018-07-08T11:29:40Z</time>
      </trkpt>
      <trkpt lat="46.011611809954047" lon="10.468007074669003">
        <ele>2391.9000000000001</ele>
        <time>2018-07-08T11:29:49Z</time>
      </trkpt>
      <trkpt lat="46.011667884886265" lon="10.467976648360491">
        <ele>2393.3400000000001</ele>
        <time>2018-07-08T11:30:01Z</time>
      </trkpt>
      <trkpt lat="46.011735023930669" lon="10.467950999736786">
        <ele>2395.2600000000002</ele>
        <time>2018-07-08T11:30:15Z</time>
      </trkpt>
      <trkpt lat="46.011806689202785" lon="10.467970864847302">
        <ele>2396.6999999999998</ele>
        <time>2018-07-08T11:30:26Z</time>
      </trkpt>
      <trkpt lat="46.011862428858876" lon="10.468021323904395">
        <ele>2397.1799999999998</ele>
        <time>2018-07-08T11:30:36Z</time>
      </trkpt>
      <trkpt lat="46.011924454942346" lon="10.468071363866329">
        <ele>2399.1100000000001</ele>
        <time>2018-07-08T11:30:47Z</time>
      </trkpt>
      <trkpt lat="46.011981451883912" lon="10.468067340552807">
        <ele>2400.5500000000002</ele>
        <time>2018-07-08T11:30:58Z</time>
      </trkpt>
      <trkpt lat="46.012018667533994" lon="10.468042362481356">
        <ele>2401.9899999999998</ele>
        <time>2018-07-08T11:31:07Z</time>
      </trkpt>
      <trkpt lat="46.012056972831488" lon="10.468032471835613">
        <ele>2403.4299999999998</ele>
        <time>2018-07-08T11:31:18Z</time>
      </trkpt>
      <trkpt lat="46.012113969773054" lon="10.468023922294378">
        <ele>2405.3600000000001</ele>
        <time>2018-07-08T11:31:28Z</time>
      </trkpt>
      <trkpt lat="46.01216216571629" lon="10.468056108802557">
        <ele>2406.3200000000002</ele>
        <time>2018-07-08T11:31:37Z</time>
      </trkpt>
      <trkpt lat="46.012218156829476" lon="10.468093072995543">
        <ele>2406.8000000000002</ele>
        <time>2018-07-08T11:31:46Z</time>
      </trkpt>
      <trkpt lat="46.01226375438273" lon="10.468080500140786">
        <ele>2408.2399999999998</ele>
        <time>2018-07-08T11:31:56Z</time>
      </trkpt>
      <trkpt lat="46.012293426319957" lon="10.468109166249633">
        <ele>2409.1999999999998</ele>
        <time>2018-07-08T11:32:07Z</time>
      </trkpt>
      <trkpt lat="46.012296862900257" lon="10.468126181513071">
        <ele>2409.6799999999998</ele>
        <time>2018-07-08T11:32:23Z</time>
      </trkpt>
      <trkpt lat="46.012286804616451" lon="10.468128528445959">
        <ele>2409.1999999999998</ele>
        <time>2018-07-08T11:32:40Z</time>
      </trkpt>
      <trkpt lat="46.012322930619121" lon="10.468152081593871">
        <ele>2410.6399999999999</ele>
        <time>2018-07-08T11:32:52Z</time>
      </trkpt>
      <trkpt lat="46.012382358312607" lon="10.46813540160656">
        <ele>2412.0900000000001</ele>
        <time>2018-07-08T11:33:02Z</time>
      </trkpt>
      <trkpt lat="46.012449581176043" lon="10.468159625306726">
        <ele>2414.0100000000002</ele>
        <time>2018-07-08T11:33:13Z</time>
      </trkpt>
      <trkpt lat="46.012518899515271" lon="10.468123247846961">
        <ele>2415.9299999999998</ele>
        <time>2018-07-08T11:33:27Z</time>
      </trkpt>
      <trkpt lat="46.012604478746653" lon="10.468130372464657">
        <ele>2418.3299999999999</ele>
        <time>2018-07-08T11:33:40Z</time>
      </trkpt>
      <trkpt lat="46.012680418789387" lon="10.468079829588532">
        <ele>2420.2600000000002</ele>
        <time>2018-07-08T11:33:54Z</time>
      </trkpt>
      <trkpt lat="46.012762142345309" lon="10.468083349987864">
        <ele>2419.7800000000002</ele>
        <time>2018-07-08T11:34:06Z</time>
      </trkpt>
      <trkpt lat="46.012822072952986" lon="10.468087960034609">
        <ele>2418.8099999999999</ele>
        <time>2018-07-08T11:34:15Z</time>
      </trkpt>
      <trkpt lat="46.012828191742301" lon="10.468085780739784">
        <ele>2418.8099999999999</ele>
        <time>2018-07-08T11:34:16Z</time>
      </trkpt>
      <trkpt lat="46.012902036309242" lon="10.468174964189529">
        <ele>2418.8099999999999</ele>
        <time>2018-07-08T11:34:28Z</time>
      </trkpt>
      <trkpt lat="46.012942939996719" lon="10.468203630298376">
        <ele>2421.2199999999998</ele>
        <time>2018-07-08T11:34:40Z</time>
      </trkpt>
      <trkpt lat="46.01299038156867" lon="10.4682023730129">
        <ele>2423.6199999999999</ele>
        <time>2018-07-08T11:34:51Z</time>
      </trkpt>
      <trkpt lat="46.013027094304562" lon="10.468195835128427">
        <ele>2425.0599999999999</ele>
        <time>2018-07-08T11:35:00Z</time>
      </trkpt>
      <trkpt lat="46.013071602210402" lon="10.46814177185297">
        <ele>2426.9899999999998</ele>
        <time>2018-07-08T11:35:14Z</time>
      </trkpt>
      <trkpt lat="46.013115607202053" lon="10.468116207048297">
        <ele>2428.4299999999998</ele>
        <time>2018-07-08T11:35:25Z</time>
      </trkpt>
      <trkpt lat="46.013176627457142" lon="10.468101873993874">
        <ele>2429.8699999999999</ele>
        <time>2018-07-08T11:35:37Z</time>
      </trkpt>
      <trkpt lat="46.013230942189693" lon="10.46805334277451">
        <ele>2431.79</ele>
        <time>2018-07-08T11:35:50Z</time>
      </trkpt>
      <trkpt lat="46.013280814513564" lon="10.467994837090373">
        <ele>2433.23</ele>
        <time>2018-07-08T11:36:03Z</time>
      </trkpt>
      <trkpt lat="46.013337392359972" lon="10.467940606176853">
        <ele>2435.1599999999999</ele>
        <time>2018-07-08T11:36:15Z</time>
      </trkpt>
      <trkpt lat="46.013407800346613" lon="10.467915628105402">
        <ele>2436.5999999999999</ele>
        <time>2018-07-08T11:36:26Z</time>
      </trkpt>
      <trkpt lat="46.013455325737596" lon="10.467839185148478">
        <ele>2439</ele>
        <time>2018-07-08T11:36:41Z</time>
      </trkpt>
      <trkpt lat="46.013501510024071" lon="10.467786211520433">
        <ele>2440.4400000000001</ele>
        <time>2018-07-08T11:36:54Z</time>
      </trkpt>
      <trkpt lat="46.013563619926572" lon="10.467757964506745">
        <ele>2442.3699999999999</ele>
        <time>2018-07-08T11:37:06Z</time>
      </trkpt>
      <trkpt lat="46.013637883588672" lon="10.467737345024943">
        <ele>2443.8099999999999</ele>
        <time>2018-07-08T11:37:18Z</time>
      </trkpt>
      <trkpt lat="46.013699071481824" lon="10.467698955908418">
        <ele>2444.77</ele>
        <time>2018-07-08T11:37:30Z</time>
      </trkpt>
      <trkpt lat="46.013706112280488" lon="10.467725526541471">
        <ele>2444.77</ele>
        <time>2018-07-08T11:37:38Z</time>
      </trkpt>
      <trkpt lat="46.013744249939919" lon="10.467716977000237">
        <ele>2444.77</ele>
        <time>2018-07-08T11:37:48Z</time>
      </trkpt>
      <trkpt lat="46.013812143355608" lon="10.467741703614593">
        <ele>2445.73</ele>
        <time>2018-07-08T11:37:59Z</time>
      </trkpt>
      <trkpt lat="46.013866709545255" lon="10.467759054154158">
        <ele>2446.6900000000001</ele>
        <time>2018-07-08T11:38:09Z</time>
      </trkpt>
      <trkpt lat="46.013943236321211" lon="10.467782942578197">
        <ele>2447.6500000000001</ele>
        <time>2018-07-08T11:38:21Z</time>
      </trkpt>
      <trkpt lat="46.014018589630723" lon="10.467803813517094">
        <ele>2448.6199999999999</ele>
        <time>2018-07-08T11:38:32Z</time>
      </trkpt>
      <trkpt lat="46.014085058122873" lon="10.467808675020933">
        <ele>2450.0599999999999</ele>
        <time>2018-07-08T11:38:44Z</time>
      </trkpt>
      <trkpt lat="46.014105593785644" lon="10.467825355008245">
        <ele>2450.54</ele>
        <time>2018-07-08T11:38:47Z</time>
      </trkpt>
      <trkpt lat="46.014169212430716" lon="10.467863827943802">
        <ele>2451.98</ele>
        <time>2018-07-08T11:38:57Z</time>
      </trkpt>
      <trkpt lat="46.014224952086806" lon="10.467853937298059">
        <ele>2452.9400000000001</ele>
        <time>2018-07-08T11:39:07Z</time>
      </trkpt>
      <trkpt lat="46.014304831624031" lon="10.467836419120431">
        <ele>2454.8600000000001</ele>
        <time>2018-07-08T11:39:21Z</time>
      </trkpt>
      <trkpt lat="46.014371048659086" lon="10.467810854315758">
        <ele>2455.8200000000002</ele>
        <time>2018-07-08T11:39:32Z</time>
      </trkpt>
      <trkpt lat="46.014451934024692" lon="10.467806160449982">
        <ele>2457.27</ele>
        <time>2018-07-08T11:39:44Z</time>
      </trkpt>
      <trkpt lat="46.014535166323185" lon="10.467794677242637">
        <ele>2458.23</ele>
        <time>2018-07-08T11:39:56Z</time>
      </trkpt>
      <trkpt lat="46.014621164649725" lon="10.467819487676024">
        <ele>2459.1900000000001</ele>
        <time>2018-07-08T11:40:08Z</time>
      </trkpt>
      <trkpt lat="46.014673048630357" lon="10.467819906771183">
        <ele>2460.6300000000001</ele>
        <time>2018-07-08T11:40:18Z</time>
      </trkpt>
      <trkpt lat="46.014723340049386" lon="10.467842537909746">
        <ele>2462.0700000000002</ele>
        <time>2018-07-08T11:40:27Z</time>
      </trkpt>
      <trkpt lat="46.014765249565244" lon="10.46785544604063">
        <ele>2463.04</ele>
        <time>2018-07-08T11:40:36Z</time>
      </trkpt>
      <trkpt lat="46.014795256778598" lon="10.467835497111082">
        <ele>2464.96</ele>
        <time>2018-07-08T11:40:48Z</time>
      </trkpt>
      <trkpt lat="46.014843704178929" lon="10.467818481847644">
        <ele>2466.4000000000001</ele>
        <time>2018-07-08T11:40:58Z</time>
      </trkpt>
      <trkpt lat="46.014882093295455" lon="10.46779383905232">
        <ele>2467.8400000000001</ele>
        <time>2018-07-08T11:41:07Z</time>
      </trkpt>
      <trkpt lat="46.014928696677089" lon="10.467858128249645">
        <ele>2470.2399999999998</ele>
        <time>2018-07-08T11:41:20Z</time>
      </trkpt>
      <trkpt lat="46.01499130949378" lon="10.467904815450311">
        <ele>2470.73</ele>
        <time>2018-07-08T11:41:30Z</time>
      </trkpt>
      <trkpt lat="46.015023998916149" lon="10.467916801571846">
        <ele>2471.6900000000001</ele>
        <time>2018-07-08T11:41:40Z</time>
      </trkpt>
      <trkpt lat="46.015064651146531" lon="10.467946054413915">
        <ele>2472.1700000000001</ele>
        <time>2018-07-08T11:41:49Z</time>
      </trkpt>
      <trkpt lat="46.015101363882422" lon="10.467933649197221">
        <ele>2473.6100000000001</ele>
        <time>2018-07-08T11:41:59Z</time>
      </trkpt>
      <trkpt lat="46.015099436044693" lon="10.467907832935452">
        <ele>2474.0900000000001</ele>
        <time>2018-07-08T11:42:10Z</time>
      </trkpt>
      <trkpt lat="46.015105387195945" lon="10.467933984473348">
        <ele>2473.1300000000001</ele>
        <time>2018-07-08T11:42:17Z</time>
      </trkpt>
      <trkpt lat="46.015112595632672" lon="10.467942114919424">
        <ele>2474.0900000000001</ele>
        <time>2018-07-08T11:42:33Z</time>
      </trkpt>
      <trkpt lat="46.015128353610635" lon="10.467947982251644">
        <ele>2474.5700000000002</ele>
        <time>2018-07-08T11:42:46Z</time>
      </trkpt>
      <trkpt lat="46.015172274783254" lon="10.467946389690042">
        <ele>2475.5300000000002</ele>
        <time>2018-07-08T11:42:55Z</time>
      </trkpt>
      <trkpt lat="46.015211837366223" lon="10.467974552884698">
        <ele>2476.0100000000002</ele>
        <time>2018-07-08T11:43:03Z</time>
      </trkpt>
      <trkpt lat="46.015258608385921" lon="10.467965332791209">
        <ele>2477.4499999999998</ele>
        <time>2018-07-08T11:43:13Z</time>
      </trkpt>
      <trkpt lat="46.015267744660378" lon="10.467956615611911">
        <ele>2477.4499999999998</ele>
        <time>2018-07-08T11:43:15Z</time>
      </trkpt>
      <trkpt lat="46.015307726338506" lon="10.467933900654316">
        <ele>2478.9000000000001</ele>
        <time>2018-07-08T11:43:24Z</time>
      </trkpt>
      <trkpt lat="46.015327339991927" lon="10.467911437153816">
        <ele>2479.8600000000001</ele>
        <time>2018-07-08T11:43:32Z</time>
      </trkpt>
      <trkpt lat="46.015369249507785" lon="10.467909090220928">
        <ele>2480.8200000000002</ele>
        <time>2018-07-08T11:43:42Z</time>
      </trkpt>
      <trkpt lat="46.015426414087415" lon="10.4678915720433">
        <ele>2482.2600000000002</ele>
        <time>2018-07-08T11:43:56Z</time>
      </trkpt>
      <trkpt lat="46.015446111559868" lon="10.467890985310078">
        <ele>2483.2199999999998</ele>
        <time>2018-07-08T11:44:08Z</time>
      </trkpt>
      <trkpt lat="46.015499169006944" lon="10.467859888449311">
        <ele>2484.1799999999998</ele>
        <time>2018-07-08T11:44:21Z</time>
      </trkpt>
      <trkpt lat="46.015542168170214" lon="10.467797024175525">
        <ele>2486.1100000000001</ele>
        <time>2018-07-08T11:44:32Z</time>
      </trkpt>
      <trkpt lat="46.015579970553517" lon="10.467763999477029">
        <ele>2488.0300000000002</ele>
        <time>2018-07-08T11:44:43Z</time>
      </trkpt>
      <trkpt lat="46.015617102384567" lon="10.46774011105299">
        <ele>2488.9899999999998</ele>
        <time>2018-07-08T11:44:53Z</time>
      </trkpt>
      <trkpt lat="46.015652222558856" lon="10.46770348213613">
        <ele>2491.3899999999999</ele>
        <time>2018-07-08T11:45:04Z</time>
      </trkpt>
      <trkpt lat="46.015678960829973" lon="10.467627458274364">
        <ele>2491.8699999999999</ele>
        <time>2018-07-08T11:45:13Z</time>
      </trkpt>
      <trkpt lat="46.015715086832643" lon="10.467620585113764">
        <ele>2493.3200000000002</ele>
        <time>2018-07-08T11:45:21Z</time>
      </trkpt>
      <trkpt lat="46.01577116176486" lon="10.467594349756837">
        <ele>2494.7600000000002</ele>
        <time>2018-07-08T11:45:32Z</time>
      </trkpt>
      <trkpt lat="46.015794044360518" lon="10.467569623142481">
        <ele>2496.1999999999998</ele>
        <time>2018-07-08T11:45:41Z</time>
      </trkpt>
      <trkpt lat="46.015838133171201" lon="10.467556966468692">
        <ele>2496.6799999999998</ele>
        <time>2018-07-08T11:45:51Z</time>
      </trkpt>
      <trkpt lat="46.015828661620617" lon="10.467546489089727">
        <ele>2497.6399999999999</ele>
        <time>2018-07-08T11:45:59Z</time>
      </trkpt>
      <trkpt lat="46.015851544216275" lon="10.467532323673368">
        <ele>2498.5999999999999</ele>
        <time>2018-07-08T11:46:07Z</time>
      </trkpt>
      <trkpt lat="46.015845257788897" lon="10.46756274998188">
        <ele>2498.5999999999999</ele>
        <time>2018-07-08T11:46:18Z</time>
      </trkpt>
      <trkpt lat="46.015852298587561" lon="10.467552440240979">
        <ele>2498.5999999999999</ele>
        <time>2018-07-08T11:46:27Z</time>
      </trkpt>
      <trkpt lat="46.01585422642529" lon="10.467548249289393">
        <ele>2498.5999999999999</ele>
        <time>2018-07-08T11:46:53Z</time>
      </trkpt>
      <trkpt lat="46.015863697975874" lon="10.467544225975871">
        <ele>2498.5999999999999</ele>
        <time>2018-07-08T11:47:02Z</time>
      </trkpt>
      <trkpt lat="46.015880042687058" lon="10.467567192390561">
        <ele>2498.5999999999999</ele>
        <time>2018-07-08T11:47:17Z</time>
      </trkpt>
      <trkpt lat="46.015893537551165" lon="10.467561241239309">
        <ele>2498.5999999999999</ele>
        <time>2018-07-08T11:47:41Z</time>
      </trkpt>
      <trkpt lat="46.015893621370196" lon="10.467561157420278">
        <ele>2498.5999999999999</ele>
        <time>2018-07-08T11:48:01Z</time>
      </trkpt>
      <trkpt lat="46.015895046293736" lon="10.467545567080379">
        <ele>2499.0799999999999</ele>
        <time>2018-07-08T11:48:32Z</time>
      </trkpt>
      <trkpt lat="46.015888592228293" lon="10.467555122449994">
        <ele>2499.0799999999999</ele>
        <time>2018-07-08T11:49:04Z</time>
      </trkpt>
      <trkpt lat="46.015878869220614" lon="10.467544896528125">
        <ele>2499.5700000000002</ele>
        <time>2018-07-08T11:49:30Z</time>
      </trkpt>
      <trkpt lat="46.015882389619946" lon="10.467555122449994">
        <ele>2499.5700000000002</ele>
        <time>2018-07-08T11:49:54Z</time>
      </trkpt>
      <trkpt lat="46.015877109020948" lon="10.467549171298742">
        <ele>2499.5700000000002</ele>
        <time>2018-07-08T11:50:21Z</time>
      </trkpt>
      <trkpt lat="46.015882641077042" lon="10.467535676434636">
        <ele>2500.0500000000002</ele>
        <time>2018-07-08T11:50:47Z</time>
      </trkpt>
      <trkpt lat="46.01589621976018" lon="10.467559732496738">
        <ele>2499.5700000000002</ele>
        <time>2018-07-08T11:51:14Z</time>
      </trkpt>
      <trkpt lat="46.01587132550776" lon="10.467535676434636">
        <ele>2500.0500000000002</ele>
        <time>2018-07-08T11:51:45Z</time>
      </trkpt>
      <trkpt lat="46.015890184789896" lon="10.467550344765186">
        <ele>2500.0500000000002</ele>
        <time>2018-07-08T11:52:05Z</time>
      </trkpt>
      <trkpt lat="46.015901332721114" lon="10.467564426362514">
        <ele>2500.5300000000002</ele>
        <time>2018-07-08T11:52:34Z</time>
      </trkpt>
      <trkpt lat="46.01587132550776" lon="10.467525534331799">
        <ele>2500.5300000000002</ele>
        <time>2018-07-08T11:52:58Z</time>
      </trkpt>
      <trkpt lat="46.015867553651333" lon="10.467556463554502">
        <ele>2500.5300000000002</ele>
        <time>2018-07-08T11:53:23Z</time>
      </trkpt>
      <trkpt lat="46.015876270830631" lon="10.467553362250328">
        <ele>2501.0100000000002</ele>
        <time>2018-07-08T11:53:59Z</time>
      </trkpt>
      <trkpt lat="46.015867805108428" lon="10.467565516009927">
        <ele>2500.5300000000002</ele>
        <time>2018-07-08T11:54:24Z</time>
      </trkpt>
      <trkpt lat="46.015891190618277" lon="10.467563923448324">
        <ele>2501.0100000000002</ele>
        <time>2018-07-08T11:54:54Z</time>
      </trkpt>
      <trkpt lat="46.015889681875706" lon="10.467539113014936">
        <ele>2501.0100000000002</ele>
        <time>2018-07-08T11:55:19Z</time>
      </trkpt>
      <trkpt lat="46.015870906412601" lon="10.467552104964852">
        <ele>2501.0100000000002</ele>
        <time>2018-07-08T11:55:49Z</time>
      </trkpt>
      <trkpt lat="46.015903344377875" lon="10.46754565089941">
        <ele>2501.0100000000002</ele>
        <time>2018-07-08T11:56:06Z</time>
      </trkpt>
      <trkpt lat="46.015904434025288" lon="10.467518661171198">
        <ele>2501.0100000000002</ele>
        <time>2018-07-08T11:56:28Z</time>
      </trkpt>
      <trkpt lat="46.015870403498411" lon="10.467549338936806">
        <ele>2500.0500000000002</ele>
        <time>2018-07-08T11:56:47Z</time>
      </trkpt>
      <trkpt lat="46.015855316072702" lon="10.467578005045652">
        <ele>2501.4899999999998</ele>
        <time>2018-07-08T11:56:55Z</time>
      </trkpt>
      <trkpt lat="46.015857243910432" lon="10.467561911791563">
        <ele>2501.4899999999998</ele>
        <time>2018-07-08T11:57:08Z</time>
      </trkpt>
      <trkpt lat="46.015866464003921" lon="10.467570628970861">
        <ele>2501.4899999999998</ele>
        <time>2018-07-08T11:57:21Z</time>
      </trkpt>
      <trkpt lat="46.015857076272368" lon="10.467561660334468">
        <ele>2501.4899999999998</ele>
        <time>2018-07-08T11:57:30Z</time>
      </trkpt>
      <trkpt lat="46.015863697975874" lon="10.467589488252997">
        <ele>2501.9699999999998</ele>
        <time>2018-07-08T11:57:53Z</time>
      </trkpt>
      <trkpt lat="46.015867972746491" lon="10.467578424140811">
        <ele>2501.4899999999998</ele>
        <time>2018-07-08T11:58:08Z</time>
      </trkpt>
      <trkpt lat="46.01586202159524" lon="10.467564091086388">
        <ele>2501.0100000000002</ele>
        <time>2018-07-08T11:58:20Z</time>
      </trkpt>
      <trkpt lat="46.015849197283387" lon="10.46754565089941">
        <ele>2501.0100000000002</ele>
        <time>2018-07-08T11:58:40Z</time>
      </trkpt>
      <trkpt lat="46.015898985788226" lon="10.467560738325119">
        <ele>2501.9699999999998</ele>
        <time>2018-07-08T11:58:56Z</time>
      </trkpt>
      <trkpt lat="46.015926646068692" lon="10.467499801889062">
        <ele>2503.4099999999999</ele>
        <time>2018-07-08T11:59:09Z</time>
      </trkpt>
      <trkpt lat="46.015960173681378" lon="10.467514470219612">
        <ele>2504.3699999999999</ele>
        <time>2018-07-08T11:59:19Z</time>
      </trkpt>
      <trkpt lat="46.015955479815602" lon="10.467532072216272">
        <ele>2504.3699999999999</ele>
        <time>2018-07-08T11:59:35Z</time>
      </trkpt>
      <trkpt lat="46.015961682423949" lon="10.467535927891731">
        <ele>2504.3699999999999</ele>
        <time>2018-07-08T11:59:59Z</time>
      </trkpt>
      <trkpt lat="46.015953803434968" lon="10.467547997832298">
        <ele>2504.3699999999999</ele>
        <time>2018-07-08T12:00:16Z</time>
      </trkpt>
      <trkpt lat="46.015960425138474" lon="10.467503909021616">
        <ele>2504.8499999999999</ele>
        <time>2018-07-08T12:00:36Z</time>
      </trkpt>
      <trkpt lat="46.015965705737472" lon="10.467452108860016">
        <ele>2505.8099999999999</ele>
        <time>2018-07-08T12:00:46Z</time>
      </trkpt>
      <trkpt lat="46.016015829518437" lon="10.46743324957788">
        <ele>2507.2600000000002</ele>
        <time>2018-07-08T12:00:55Z</time>
      </trkpt>
      <trkpt lat="46.016057571396232" lon="10.467450013384223">
        <ele>2508.2199999999998</ele>
        <time>2018-07-08T12:01:04Z</time>
      </trkpt>
      <trkpt lat="46.016092272475362" lon="10.467422772198915">
        <ele>2509.6599999999999</ele>
        <time>2018-07-08T12:01:14Z</time>
      </trkpt>
      <trkpt lat="46.016142312437296" lon="10.467443559318781">
        <ele>2511.0999999999999</ele>
        <time>2018-07-08T12:01:24Z</time>
      </trkpt>
      <trkpt lat="46.01616988889873" lon="10.467429058626294">
        <ele>2513.5</ele>
        <time>2018-07-08T12:01:34Z</time>
      </trkpt>
      <trkpt lat="46.016189586371183" lon="10.467369547113776">
        <ele>2514.4699999999998</ele>
        <time>2018-07-08T12:01:45Z</time>
      </trkpt>
      <trkpt lat="46.0162319149822" lon="10.467346999794245">
        <ele>2515.9099999999999</ele>
        <time>2018-07-08T12:01:53Z</time>
      </trkpt>
      <trkpt lat="46.016258066520095" lon="10.467333337292075">
        <ele>2517.3499999999999</ele>
        <time>2018-07-08T12:02:02Z</time>
      </trkpt>
      <trkpt lat="46.016280697658658" lon="10.46731892041862">
        <ele>2518.79</ele>
        <time>2018-07-08T12:02:12Z</time>
      </trkpt>
      <trkpt lat="46.016303161159158" lon="10.467289080843329">
        <ele>2520.23</ele>
        <time>2018-07-08T12:02:22Z</time>
      </trkpt>
      <trkpt lat="46.016324451193213" lon="10.467274328693748">
        <ele>2521.6799999999998</ele>
        <time>2018-07-08T12:02:32Z</time>
      </trkpt>
      <trkpt lat="46.01634381338954" lon="10.467240046709776">
        <ele>2523.1199999999999</ele>
        <time>2018-07-08T12:02:42Z</time>
      </trkpt>
      <trkpt lat="46.016366947442293" lon="10.467202160507441">
        <ele>2524.0799999999999</ele>
        <time>2018-07-08T12:02:52Z</time>
      </trkpt>
      <trkpt lat="46.016400055959821" lon="10.467220852151513">
        <ele>2525.52</ele>
        <time>2018-07-08T12:03:02Z</time>
      </trkpt>
      <trkpt lat="46.016423525288701" lon="10.467214984819293">
        <ele>2526.48</ele>
        <time>2018-07-08T12:03:13Z</time>
      </trkpt>
      <trkpt lat="46.016453029587865" lon="10.467202998697758">
        <ele>2528.4000000000001</ele>
        <time>2018-07-08T12:03:25Z</time>
      </trkpt>
      <trkpt lat="46.016494603827596" lon="10.467190928757191">
        <ele>2529.8499999999999</ele>
        <time>2018-07-08T12:03:34Z</time>
      </trkpt>
      <trkpt lat="46.016502901911736" lon="10.467186737805605">
        <ele>2529.8499999999999</ele>
        <time>2018-07-08T12:03:36Z</time>
      </trkpt>
      <trkpt lat="46.016548667103052" lon="10.467264354228973">
        <ele>2530.3299999999999</ele>
        <time>2018-07-08T12:03:43Z</time>
      </trkpt>
      <trkpt lat="46.016565347090364" lon="10.467246165499091">
        <ele>2530.8099999999999</ele>
        <time>2018-07-08T12:03:53Z</time>
      </trkpt>
      <trkpt lat="46.016583284363151" lon="10.467212805524468">
        <ele>2532.73</ele>
        <time>2018-07-08T12:04:03Z</time>
      </trkpt>
      <trkpt lat="46.016581691801548" lon="10.467179445549846">
        <ele>2533.6900000000001</ele>
        <time>2018-07-08T12:04:13Z</time>
      </trkpt>
      <trkpt lat="46.016616225242615" lon="10.467185145244002">
        <ele>2535.1300000000001</ele>
        <time>2018-07-08T12:04:22Z</time>
      </trkpt>
      <trkpt lat="46.016648663207889" lon="10.467139463871717">
        <ele>2537.0599999999999</ele>
        <time>2018-07-08T12:04:33Z</time>
      </trkpt>
      <trkpt lat="46.016675317659974" lon="10.46714985743165">
        <ele>2538.5</ele>
        <time>2018-07-08T12:04:43Z</time>
      </trkpt>
      <trkpt lat="46.016702391207218" lon="10.467132087796926">
        <ele>2539.9400000000001</ele>
        <time>2018-07-08T12:04:53Z</time>
      </trkpt>
      <trkpt lat="46.01671420969069" lon="10.467080119997263">
        <ele>2542.3400000000001</ele>
        <time>2018-07-08T12:05:05Z</time>
      </trkpt>
      <trkpt lat="46.016728458926082" lon="10.467045670375228">
        <ele>2543.79</ele>
        <time>2018-07-08T12:05:16Z</time>
      </trkpt>
      <trkpt lat="46.016731560230255" lon="10.466998899355531">
        <ele>2545.23</ele>
        <time>2018-07-08T12:05:26Z</time>
      </trkpt>
      <trkpt lat="46.016773302108049" lon="10.466971825808287">
        <ele>2547.1500000000001</ele>
        <time>2018-07-08T12:05:38Z</time>
      </trkpt>
      <trkpt lat="46.016822420060635" lon="10.46700032427907">
        <ele>2548.5900000000001</ele>
        <time>2018-07-08T12:05:46Z</time>
      </trkpt>
      <trkpt lat="46.016836417838931" lon="10.466984147205949">
        <ele>2550.0300000000002</ele>
        <time>2018-07-08T12:05:55Z</time>
      </trkpt>
      <trkpt lat="46.016831137239933" lon="10.466931760311127">
        <ele>2551.96</ele>
        <time>2018-07-08T12:06:07Z</time>
      </trkpt>
      <trkpt lat="46.016847481951118" lon="10.466916002333164">
        <ele>2553.4000000000001</ele>
        <time>2018-07-08T12:06:16Z</time>
      </trkpt>
      <trkpt lat="46.016895342618227" lon="10.466925892978907">
        <ele>2554.8400000000001</ele>
        <time>2018-07-08T12:06:24Z</time>
      </trkpt>
      <trkpt lat="46.01688964292407" lon="10.466887839138508">
        <ele>2555.8000000000002</ele>
        <time>2018-07-08T12:06:32Z</time>
      </trkpt>
      <trkpt lat="46.016906322911382" lon="10.466881385073066">
        <ele>2557.2399999999998</ele>
        <time>2018-07-08T12:06:43Z</time>
      </trkpt>
      <trkpt lat="46.016919398680329" lon="10.466881971806288">
        <ele>2558.6900000000001</ele>
        <time>2018-07-08T12:06:52Z</time>
      </trkpt>
      <trkpt lat="46.016943790018559" lon="10.466892113909125">
        <ele>2560.1300000000001</ele>
        <time>2018-07-08T12:07:02Z</time>
      </trkpt>
      <trkpt lat="46.016971115022898" lon="10.46688012778759">
        <ele>2561.5700000000002</ele>
        <time>2018-07-08T12:07:12Z</time>
      </trkpt>
      <trkpt lat="46.016985448077321" lon="10.466838302090764">
        <ele>2563.0100000000002</ele>
        <time>2018-07-08T12:07:21Z</time>
      </trkpt>
      <trkpt lat="46.01702350191772" lon="10.46684936620295">
        <ele>2564.9299999999998</ele>
        <time>2018-07-08T12:07:30Z</time>
      </trkpt>
      <trkpt lat="46.017049066722393" lon="10.466855904087424">
        <ele>2566.3800000000001</ele>
        <time>2018-07-08T12:07:39Z</time>
      </trkpt>
      <trkpt lat="46.01708116941154" lon="10.466841235756874">
        <ele>2568.3000000000002</ele>
        <time>2018-07-08T12:07:51Z</time>
      </trkpt>
      <trkpt lat="46.017103213816881" lon="10.466835703700781">
        <ele>2569.7399999999998</ele>
        <time>2018-07-08T12:08:00Z</time>
      </trkpt>
      <trkpt lat="46.017117714509368" lon="10.466800751164556">
        <ele>2571.6599999999999</ele>
        <time>2018-07-08T12:08:11Z</time>
      </trkpt>
      <trkpt lat="46.017155013978481" lon="10.466808127239347">
        <ele>2573.5900000000001</ele>
        <time>2018-07-08T12:08:21Z</time>
      </trkpt>
      <trkpt lat="46.017194660380483" lon="10.466834362596273">
        <ele>2575.0300000000002</ele>
        <time>2018-07-08T12:08:31Z</time>
      </trkpt>
      <trkpt lat="46.017191978171468" lon="10.466793291270733">
        <ele>2576.4699999999998</ele>
        <time>2018-07-08T12:08:43Z</time>
      </trkpt>
      <trkpt lat="46.017214274033904" lon="10.466749873012304">
        <ele>2577.9099999999999</ele>
        <time>2018-07-08T12:08:51Z</time>
      </trkpt>
      <trkpt lat="46.017249142751098" lon="10.466736797243357">
        <ele>2579.3499999999999</ele>
        <time>2018-07-08T12:09:01Z</time>
      </trkpt>
      <trkpt lat="46.017250148579478" lon="10.466700335964561">
        <ele>2580.8000000000002</ele>
        <time>2018-07-08T12:09:10Z</time>
      </trkpt>
      <trkpt lat="46.017278144136071" lon="10.466732271015644">
        <ele>2581.7600000000002</ele>
        <time>2018-07-08T12:09:19Z</time>
      </trkpt>
      <trkpt lat="46.017290968447924" lon="10.466754818335176">
        <ele>2583.1999999999998</ele>
        <time>2018-07-08T12:09:29Z</time>
      </trkpt>
      <trkpt lat="46.017324747517705" lon="10.466804355382919">
        <ele>2584.6399999999999</ele>
        <time>2018-07-08T12:09:38Z</time>
      </trkpt>
      <trkpt lat="46.017369674518704" lon="10.46681122854352">
        <ele>2586.0799999999999</ele>
        <time>2018-07-08T12:09:49Z</time>
      </trkpt>
      <trkpt lat="46.017405549064279" lon="10.466841235756874">
        <ele>2587.5300000000002</ele>
        <time>2018-07-08T12:09:59Z</time>
      </trkpt>
      <trkpt lat="46.017399346455932" lon="10.466792285442352">
        <ele>2589.4499999999998</ele>
        <time>2018-07-08T12:10:13Z</time>
      </trkpt>
      <trkpt lat="46.017412506043911" lon="10.466751297935843">
        <ele>2591.3699999999999</ele>
        <time>2018-07-08T12:10:26Z</time>
      </trkpt>
      <trkpt lat="46.017433376982808" lon="10.466698659583926">
        <ele>2593.29</ele>
        <time>2018-07-08T12:10:37Z</time>
      </trkpt>
      <trkpt lat="46.017465479671955" lon="10.466756159439683">
        <ele>2594.7399999999998</ele>
        <time>2018-07-08T12:10:45Z</time>
      </trkpt>
      <trkpt lat="46.017494229599833" lon="10.466782310977578">
        <ele>2595.2199999999998</ele>
        <time>2018-07-08T12:10:54Z</time>
      </trkpt>
      <trkpt lat="46.017516441643238" lon="10.466740988194942">
        <ele>2595.6999999999998</ele>
        <time>2018-07-08T12:11:07Z</time>
      </trkpt>
      <trkpt lat="46.017572432756424" lon="10.466800415888429">
        <ele>2597.6199999999999</ele>
        <time>2018-07-08T12:11:18Z</time>
      </trkpt>
      <trkpt lat="46.017581233754754" lon="10.466799158602953">
        <ele>2599.0599999999999</ele>
        <time>2018-07-08T12:11:27Z</time>
      </trkpt>
      <trkpt lat="46.017624400556087" lon="10.466848192736506">
        <ele>2600.5</ele>
        <time>2018-07-08T12:11:37Z</time>
      </trkpt>
      <trkpt lat="46.017652060836554" lon="10.466840313747525">
        <ele>2602.4299999999998</ele>
        <time>2018-07-08T12:11:46Z</time>
      </trkpt>
      <trkpt lat="46.017673518508673" lon="10.466865543276072">
        <ele>2603.3899999999999</ele>
        <time>2018-07-08T12:11:56Z</time>
      </trkpt>
      <trkpt lat="46.017704112455249" lon="10.466870153322816">
        <ele>2604.8299999999999</ele>
        <time>2018-07-08T12:12:07Z</time>
      </trkpt>
      <trkpt lat="46.017717607319355" lon="10.466916589066386">
        <ele>2605.79</ele>
        <time>2018-07-08T12:12:19Z</time>
      </trkpt>
      <trkpt lat="46.017709225416183" lon="10.466932849958539">
        <ele>2606.27</ele>
        <time>2018-07-08T12:12:32Z</time>
      </trkpt>
      <trkpt lat="46.017718613147736" lon="10.466963024809957">
        <ele>2606.75</ele>
        <time>2018-07-08T12:12:45Z</time>
      </trkpt>
      <trkpt lat="46.017750967293978" lon="10.466977441683412">
        <ele>2608.1900000000001</ele>
        <time>2018-07-08T12:12:55Z</time>
      </trkpt>
      <trkpt lat="46.017765467986465" lon="10.466954475268722">
        <ele>2609.6399999999999</ele>
        <time>2018-07-08T12:13:06Z</time>
      </trkpt>
      <trkpt lat="46.017769742757082" lon="10.466939304023981">
        <ele>2611.0799999999999</ele>
        <time>2018-07-08T12:13:14Z</time>
      </trkpt>
      <trkpt lat="46.017781728878617" lon="10.466927904635668">
        <ele>2612.52</ele>
        <time>2018-07-08T12:13:24Z</time>
      </trkpt>
      <trkpt lat="46.017787009477615" lon="10.466922959312797">
        <ele>2613.48</ele>
        <time>2018-07-08T12:13:33Z</time>
      </trkpt>
      <trkpt lat="46.017790362238884" lon="10.466922791674733">
        <ele>2614.9200000000001</ele>
        <time>2018-07-08T12:13:42Z</time>
      </trkpt>
      <trkpt lat="46.017790865153074" lon="10.466918097808957">
        <ele>2614.9200000000001</ele>
        <time>2018-07-08T12:13:51Z</time>
      </trkpt>
      <trkpt lat="46.01777988485992" lon="10.466902675107121">
        <ele>2615.4000000000001</ele>
        <time>2018-07-08T12:14:05Z</time>
      </trkpt>
      <trkpt lat="46.017797738313675" lon="10.466947853565216">
        <ele>2616.3699999999999</ele>
        <time>2018-07-08T12:14:23Z</time>
      </trkpt>
      <trkpt lat="46.017811316996813" lon="10.466976687312126">
        <ele>2616.8499999999999</ele>
        <time>2018-07-08T12:14:34Z</time>
      </trkpt>
      <trkpt lat="46.017800755798817" lon="10.466962186619639">
        <ele>2617.3299999999999</ele>
        <time>2018-07-08T12:14:42Z</time>
      </trkpt>
      <trkpt lat="46.01782682351768" lon="10.466993032023311">
        <ele>2615.8800000000001</ele>
        <time>2018-07-08T12:15:04Z</time>
      </trkpt>
      <trkpt lat="46.017865464091301" lon="10.466952044516802">
        <ele>2615.4000000000001</ele>
        <time>2018-07-08T12:15:28Z</time>
      </trkpt>
      <trkpt lat="46.017890525981784" lon="10.466969143599272">
        <ele>2615.4000000000001</ele>
        <time>2018-07-08T12:15:59Z</time>
      </trkpt>
      <trkpt lat="46.017882646992803" lon="10.466961599886417">
        <ele>2614.9200000000001</ele>
        <time>2018-07-08T12:16:26Z</time>
      </trkpt>
      <trkpt lat="46.017865464091301" lon="10.466958414763212">
        <ele>2614.9200000000001</ele>
        <time>2018-07-08T12:16:49Z</time>
      </trkpt>
      <trkpt lat="46.017810394987464" lon="10.466950787231326">
        <ele>2614.9200000000001</ele>
        <time>2018-07-08T12:17:20Z</time>
      </trkpt>
      <trkpt lat="46.017814669758081" lon="10.466974088922143">
        <ele>2614.4400000000001</ele>
        <time>2018-07-08T12:17:45Z</time>
      </trkpt>
      <trkpt lat="46.017842497676611" lon="10.466914074495435">
        <ele>2614.4400000000001</ele>
        <time>2018-07-08T12:18:06Z</time>
      </trkpt>
      <trkpt lat="46.017836797982454" lon="10.466907368972898">
        <ele>2614.4400000000001</ele>
        <time>2018-07-08T12:18:30Z</time>
      </trkpt>
      <trkpt lat="46.017824225127697" lon="10.466903848573565">
        <ele>2614.4400000000001</ele>
        <time>2018-07-08T12:18:58Z</time>
      </trkpt>
      <trkpt lat="46.017850879579782" lon="10.466923713684082">
        <ele>2614.9200000000001</ele>
        <time>2018-07-08T12:19:22Z</time>
      </trkpt>
      <trkpt lat="46.017812574282289" lon="10.4669797886163">
        <ele>2613.48</ele>
        <time>2018-07-08T12:19:32Z</time>
      </trkpt>
      <trkpt lat="46.01780922152102" lon="10.466992948204279">
        <ele>2613.96</ele>
        <time>2018-07-08T12:19:51Z</time>
      </trkpt>
      <trkpt lat="46.017815759405494" lon="10.466974005103111">
        <ele>2613.96</ele>
        <time>2018-07-08T12:20:06Z</time>
      </trkpt>
      <trkpt lat="46.017772760242224" lon="10.466927317902446">
        <ele>2614.4400000000001</ele>
        <time>2018-07-08T12:20:32Z</time>
      </trkpt>
      <trkpt lat="46.017771083861589" lon="10.46694022603333">
        <ele>2614.4400000000001</ele>
        <time>2018-07-08T12:20:58Z</time>
      </trkpt>
      <trkpt lat="46.017782483249903" lon="10.466956319287419">
        <ele>2614.4400000000001</ele>
        <time>2018-07-08T12:21:18Z</time>
      </trkpt>
      <trkpt lat="46.017784075811505" lon="10.466970819979906">
        <ele>2614.9200000000001</ele>
        <time>2018-07-08T12:21:50Z</time>
      </trkpt>
      <trkpt lat="46.017785919830203" lon="10.466954307630658">
        <ele>2614.9200000000001</ele>
        <time>2018-07-08T12:22:12Z</time>
      </trkpt>
      <trkpt lat="46.017788350582123" lon="10.466977776959538">
        <ele>2614.9200000000001</ele>
        <time>2018-07-08T12:22:37Z</time>
      </trkpt>
      <trkpt lat="46.017799833789468" lon="10.466974508017302">
        <ele>2614.9200000000001</ele>
        <time>2018-07-08T12:22:56Z</time>
      </trkpt>
      <trkpt lat="46.017786171287298" lon="10.46690795570612">
        <ele>2614.9200000000001</ele>
        <time>2018-07-08T12:23:21Z</time>
      </trkpt>
      <trkpt lat="46.017754320055246" lon="10.466938801109791">
        <ele>2615.4000000000001</ele>
        <time>2018-07-08T12:23:53Z</time>
      </trkpt>
      <trkpt lat="46.017756247892976" lon="10.466928239911795">
        <ele>2615.4000000000001</ele>
        <time>2018-07-08T12:24:11Z</time>
      </trkpt>
      <trkpt lat="46.017806371673942" lon="10.466984733939171">
        <ele>2615.4000000000001</ele>
        <time>2018-07-08T12:24:36Z</time>
      </trkpt>
      <trkpt lat="46.017804611474276" lon="10.466965287923813">
        <ele>2615.4000000000001</ele>
        <time>2018-07-08T12:25:05Z</time>
      </trkpt>
      <trkpt lat="46.017763372510672" lon="10.466946847736835">
        <ele>2615.4000000000001</ele>
        <time>2018-07-08T12:25:33Z</time>
      </trkpt>
      <trkpt lat="46.017773598432541" lon="10.466927150264382">
        <ele>2615.8800000000001</ele>
        <time>2018-07-08T12:25:58Z</time>
      </trkpt>
      <trkpt lat="46.017793631181121" lon="10.466932766139507">
        <ele>2616.8499999999999</ele>
        <time>2018-07-08T12:26:17Z</time>
      </trkpt>
      <trkpt lat="46.017811149358749" lon="10.46692312695086">
        <ele>2616.8499999999999</ele>
        <time>2018-07-08T12:26:28Z</time>
      </trkpt>
      <trkpt lat="46.017811819911003" lon="10.466902088373899">
        <ele>2616.8499999999999</ele>
        <time>2018-07-08T12:26:37Z</time>
      </trkpt>
      <trkpt lat="46.017820788547397" lon="10.466936537995934">
        <ele>2617.8099999999999</ele>
        <time>2018-07-08T12:26:51Z</time>
      </trkpt>
      <trkpt lat="46.017806539312005" lon="10.466902842745185">
        <ele>2616.3699999999999</ele>
        <time>2018-07-08T12:27:11Z</time>
      </trkpt>
      <trkpt lat="46.017789272591472" lon="10.466863615438342">
        <ele>2617.3299999999999</ele>
        <time>2018-07-08T12:27:25Z</time>
      </trkpt>
      <trkpt lat="46.01777988485992" lon="10.466843163594604">
        <ele>2617.3299999999999</ele>
        <time>2018-07-08T12:27:36Z</time>
      </trkpt>
      <trkpt lat="46.017776196822524" lon="10.466832853853703">
        <ele>2617.3299999999999</ele>
        <time>2018-07-08T12:27:51Z</time>
      </trkpt>
      <trkpt lat="46.017782734706998" lon="10.466816425323486">
        <ele>2618.29</ele>
        <time>2018-07-08T12:28:04Z</time>
      </trkpt>
      <trkpt lat="46.017790362238884" lon="10.466800834983587">
        <ele>2618.29</ele>
        <time>2018-07-08T12:28:23Z</time>
      </trkpt>
      <trkpt lat="46.017808634787798" lon="10.466856742277741">
        <ele>2617.8099999999999</ele>
        <time>2018-07-08T12:28:39Z</time>
      </trkpt>
      <trkpt lat="46.017833948135376" lon="10.466965790838003">
        <ele>2616.8499999999999</ele>
        <time>2018-07-08T12:28:51Z</time>
      </trkpt>
      <trkpt lat="46.017838977277279" lon="10.466971322894096">
        <ele>2616.8499999999999</ele>
        <time>2018-07-08T12:29:04Z</time>
      </trkpt>
      <trkpt lat="46.017806706950068" lon="10.466952798888087">
        <ele>2616.8499999999999</ele>
        <time>2018-07-08T12:29:18Z</time>
      </trkpt>
      <trkpt lat="46.017797738313675" lon="10.466950619593263">
        <ele>2616.8499999999999</ele>
        <time>2018-07-08T12:29:35Z</time>
      </trkpt>
      <trkpt lat="46.017808383330703" lon="10.466934526339173">
        <ele>2616.8499999999999</ele>
        <time>2018-07-08T12:29:54Z</time>
      </trkpt>
      <trkpt lat="46.017814921215177" lon="10.466958414763212">
        <ele>2616.8499999999999</ele>
        <time>2018-07-08T12:30:07Z</time>
      </trkpt>
      <trkpt lat="46.017808383330703" lon="10.466981884092093">
        <ele>2614.4400000000001</ele>
        <time>2018-07-08T12:30:20Z</time>
      </trkpt>
      <trkpt lat="46.017800336703658" lon="10.467000575736165">
        <ele>2612.52</ele>
        <time>2018-07-08T12:30:30Z</time>
      </trkpt>
      <trkpt lat="46.017767228186131" lon="10.466998061165214">
        <ele>2610.5999999999999</ele>
        <time>2018-07-08T12:30:39Z</time>
      </trkpt>
      <trkpt lat="46.01776571944356" lon="10.467005940154195">
        <ele>2609.1599999999999</ele>
        <time>2018-07-08T12:30:48Z</time>
      </trkpt>
      <trkpt lat="46.017701346427202" lon="10.466950200498104">
        <ele>2609.1599999999999</ele>
        <time>2018-07-08T12:30:59Z</time>
      </trkpt>
      <trkpt lat="46.017665052786469" lon="10.466953553259373">
        <ele>2607.71</ele>
        <time>2018-07-08T12:31:08Z</time>
      </trkpt>
      <trkpt lat="46.017668657004833" lon="10.46693729236722">
        <ele>2606.75</ele>
        <time>2018-07-08T12:31:18Z</time>
      </trkpt>
      <trkpt lat="46.017732527107" lon="10.466988757252693">
        <ele>2608.6700000000001</ele>
        <time>2018-07-08T12:31:26Z</time>
      </trkpt>
      <trkpt lat="46.017778879031539" lon="10.466969730332494">
        <ele>2611.0799999999999</ele>
        <time>2018-07-08T12:31:36Z</time>
      </trkpt>
      <trkpt lat="46.017829002812505" lon="10.466969646513462">
        <ele>2613.48</ele>
        <time>2018-07-08T12:31:44Z</time>
      </trkpt>
      <trkpt lat="46.017820201814175" lon="10.466932095587254">
        <ele>2615.4000000000001</ele>
        <time>2018-07-08T12:31:54Z</time>
      </trkpt>
      <trkpt lat="46.017823806032538" lon="10.466931760311127">
        <ele>2616.8499999999999</ele>
        <time>2018-07-08T12:32:03Z</time>
      </trkpt>
      <trkpt lat="46.017843587324023" lon="10.466944836080074">
        <ele>2616.8499999999999</ele>
        <time>2018-07-08T12:32:13Z</time>
      </trkpt>
      <trkpt lat="46.01784635335207" lon="10.466937627643347">
        <ele>2616.8499999999999</ele>
        <time>2018-07-08T12:32:31Z</time>
      </trkpt>
      <trkpt lat="46.017839899286628" lon="10.466958163306117">
        <ele>2617.3299999999999</ele>
        <time>2018-07-08T12:32:51Z</time>
      </trkpt>
      <trkpt lat="46.017839312553406" lon="10.466953134164214">
        <ele>2617.3299999999999</ele>
        <time>2018-07-08T12:33:09Z</time>
      </trkpt>
      <trkpt lat="46.017873343080282" lon="10.466968640685081">
        <ele>2616.8499999999999</ele>
        <time>2018-07-08T12:33:23Z</time>
      </trkpt>
      <trkpt lat="46.017859848216176" lon="10.466944584622979">
        <ele>2617.3299999999999</ele>
        <time>2018-07-08T12:33:37Z</time>
      </trkpt>
      <trkpt lat="46.017859764397144" lon="10.466897310689092">
        <ele>2617.8099999999999</ele>
        <time>2018-07-08T12:33:51Z</time>
      </trkpt>
      <trkpt lat="46.017839228734374" lon="10.466849450021982">
        <ele>2618.77</ele>
        <time>2018-07-08T12:34:00Z</time>
      </trkpt>
      <trkpt lat="46.017814502120018" lon="10.466787926852703">
        <ele>2620.21</ele>
        <time>2018-07-08T12:34:13Z</time>
      </trkpt>
      <trkpt lat="46.017818273976445" lon="10.466756327077746">
        <ele>2621.6500000000001</ele>
        <time>2018-07-08T12:34:25Z</time>
      </trkpt>
      <trkpt lat="46.017837384715676" lon="10.466775773093104">
        <ele>2623.0900000000001</ele>
        <time>2018-07-08T12:34:35Z</time>
      </trkpt>
      <trkpt lat="46.017838809639215" lon="10.466755656525493">
        <ele>2624.0599999999999</ele>
        <time>2018-07-08T12:34:46Z</time>
      </trkpt>
      <trkpt lat="46.017866050824523" lon="10.466816006228328">
        <ele>2625.02</ele>
        <time>2018-07-08T12:34:55Z</time>
      </trkpt>
      <trkpt lat="46.017876695841551" lon="10.466832350939512">
        <ele>2625.5</ele>
        <time>2018-07-08T12:35:08Z</time>
      </trkpt>
      <trkpt lat="46.017904188483953" lon="10.466892113909125">
        <ele>2627.4200000000001</ele>
        <time>2018-07-08T12:35:17Z</time>
      </trkpt>
      <trkpt lat="46.01791818626225" lon="10.466953720897436">
        <ele>2629.3400000000001</ele>
        <time>2018-07-08T12:35:29Z</time>
      </trkpt>
      <trkpt lat="46.017930842936039" lon="10.467002587392926">
        <ele>2630.79</ele>
        <time>2018-07-08T12:35:38Z</time>
      </trkpt>
      <trkpt lat="46.017939811572433" lon="10.467044916003942">
        <ele>2632.71</ele>
        <time>2018-07-08T12:35:48Z</time>
      </trkpt>
      <trkpt lat="46.017957581207156" lon="10.46708095818758">
        <ele>2634.1500000000001</ele>
        <time>2018-07-08T12:35:58Z</time>
      </trkpt>
      <trkpt lat="46.017960431054235" lon="10.467128986492753">
        <ele>2635.5900000000001</ele>
        <time>2018-07-08T12:36:07Z</time>
      </trkpt>
      <trkpt lat="46.01796998642385" lon="10.467135021463037">
        <ele>2637.0300000000002</ele>
        <time>2018-07-08T12:36:17Z</time>
      </trkpt>
      <trkpt lat="46.017976021394134" lon="10.467170225456357">
        <ele>2638.96</ele>
        <time>2018-07-08T12:36:29Z</time>
      </trkpt>
      <trkpt lat="46.017981050536036" lon="10.467230994254351">
        <ele>2640.4000000000001</ele>
        <time>2018-07-08T12:36:40Z</time>
      </trkpt>
      <trkpt lat="46.017995215952396" lon="10.467283464968204">
        <ele>2642.3200000000002</ele>
        <time>2018-07-08T12:36:53Z</time>
      </trkpt>
      <trkpt lat="46.017997898161411" lon="10.46729251742363">
        <ele>2643.7600000000002</ele>
        <time>2018-07-08T12:37:04Z</time>
      </trkpt>
      <trkpt lat="46.018008459359407" lon="10.467329397797585">
        <ele>2645.21</ele>
        <time>2018-07-08T12:37:14Z</time>
      </trkpt>
      <trkpt lat="46.018027234822512" lon="10.46737365424633">
        <ele>2646.6500000000001</ele>
        <time>2018-07-08T12:37:27Z</time>
      </trkpt>
      <trkpt lat="46.018023965880275" lon="10.467411037534475">
        <ele>2648.0900000000001</ele>
        <time>2018-07-08T12:37:38Z</time>
      </trkpt>
      <trkpt lat="46.018016841262579" lon="10.467418748885393">
        <ele>2648.5700000000002</ele>
        <time>2018-07-08T12:37:47Z</time>
      </trkpt>
      <trkpt lat="46.018015248700976" lon="10.467468621209264">
        <ele>2650.4899999999998</ele>
        <time>2018-07-08T12:38:02Z</time>
      </trkpt>
      <trkpt lat="46.018006196245551" lon="10.46750508248806">
        <ele>2650.9699999999998</ele>
        <time>2018-07-08T12:38:12Z</time>
      </trkpt>
      <trkpt lat="46.018017008900642" lon="10.467544393613935">
        <ele>2652.4200000000001</ele>
        <time>2018-07-08T12:38:23Z</time>
      </trkpt>
      <trkpt lat="46.018016757443547" lon="10.467583788558841">
        <ele>2654.3400000000001</ele>
        <time>2018-07-08T12:38:33Z</time>
      </trkpt>
      <trkpt lat="46.018032431602478" lon="10.467606419697404">
        <ele>2656.2600000000002</ele>
        <time>2018-07-08T12:38:45Z</time>
      </trkpt>
      <trkpt lat="46.018050201237202" lon="10.467607425525784">
        <ele>2657.6999999999998</ele>
        <time>2018-07-08T12:38:56Z</time>
      </trkpt>
      <trkpt lat="46.018064115196466" lon="10.467652771621943">
        <ele>2659.1399999999999</ele>
        <time>2018-07-08T12:39:07Z</time>
      </trkpt>
      <trkpt lat="46.018062606453896" lon="10.467702224850655">
        <ele>2661.0700000000002</ele>
        <time>2018-07-08T12:39:18Z</time>
      </trkpt>
      <trkpt lat="46.018059924244881" lon="10.467731896787882">
        <ele>2662.5100000000002</ele>
        <time>2018-07-08T12:39:30Z</time>
      </trkpt>
      <trkpt lat="46.018049111589789" lon="10.467747319489717">
        <ele>2662.9899999999998</ele>
        <time>2018-07-08T12:39:46Z</time>
      </trkpt>
      <trkpt lat="46.018063863739371" lon="10.467786295339465">
        <ele>2664.9099999999999</ele>
        <time>2018-07-08T12:40:00Z</time>
      </trkpt>
      <trkpt lat="46.01806771941483" lon="10.467859888449311">
        <ele>2666.3499999999999</ele>
        <time>2018-07-08T12:40:12Z</time>
      </trkpt>
      <trkpt lat="46.01806771941483" lon="10.467786798253655">
        <ele>2666.3499999999999</ele>
        <time>2018-07-08T12:40:29Z</time>
      </trkpt>
      <trkpt lat="46.018079705536366" lon="10.467822588980198">
        <ele>2666.3499999999999</ele>
        <time>2018-07-08T12:40:41Z</time>
      </trkpt>
      <trkpt lat="46.018096888437867" lon="10.467800041660666">
        <ele>2668.2800000000002</ele>
        <time>2018-07-08T12:40:57Z</time>
      </trkpt>
      <trkpt lat="46.018115496262908" lon="10.46780951321125">
        <ele>2669.7199999999998</ele>
        <time>2018-07-08T12:41:06Z</time>
      </trkpt>
      <trkpt lat="46.018128572031856" lon="10.467757377773523">
        <ele>2671.6399999999999</ele>
        <time>2018-07-08T12:41:18Z</time>
      </trkpt>
      <trkpt lat="46.018148185685277" lon="10.467728292569518">
        <ele>2673.0799999999999</ele>
        <time>2018-07-08T12:41:29Z</time>
      </trkpt>
      <trkpt lat="46.018167212605476" lon="10.467780511826277">
        <ele>2675.0100000000002</ele>
        <time>2018-07-08T12:41:40Z</time>
      </trkpt>
      <trkpt lat="46.018182802945375" lon="10.467769531533122">
        <ele>2675.9699999999998</ele>
        <time>2018-07-08T12:41:48Z</time>
      </trkpt>
      <trkpt lat="46.018195543438196" lon="10.467733321711421">
        <ele>2676.9299999999998</ele>
        <time>2018-07-08T12:42:03Z</time>
      </trkpt>
      <trkpt lat="46.01819864474237" lon="10.467688729986548">
        <ele>2678.3699999999999</ele>
        <time>2018-07-08T12:42:14Z</time>
      </trkpt>
      <trkpt lat="46.018200824037194" lon="10.467645730823278">
        <ele>2679.8099999999999</ele>
        <time>2018-07-08T12:42:24Z</time>
      </trkpt>
      <trkpt lat="46.018192442134023" lon="10.467617819085717">
        <ele>2681.73</ele>
        <time>2018-07-08T12:42:36Z</time>
      </trkpt>
      <trkpt lat="46.018205769360065" lon="10.4676204174757">
        <ele>2682.6999999999998</ele>
        <time>2018-07-08T12:42:48Z</time>
      </trkpt>
      <trkpt lat="46.018221024423838" lon="10.467623518779874">
        <ele>2683.6599999999999</ele>
        <time>2018-07-08T12:42:59Z</time>
      </trkpt>
      <trkpt lat="46.0182367824018" lon="10.467621507123113">
        <ele>2685.0999999999999</ele>
        <time>2018-07-08T12:43:09Z</time>
      </trkpt>
      <trkpt lat="46.018230747431517" lon="10.467638606205583">
        <ele>2685.5799999999999</ele>
        <time>2018-07-08T12:43:19Z</time>
      </trkpt>
      <trkpt lat="46.018242901191115" lon="10.467659896239638">
        <ele>2687.02</ele>
        <time>2018-07-08T12:43:30Z</time>
      </trkpt>
      <trkpt lat="46.018247930333018" lon="10.467703398317099">
        <ele>2688.46</ele>
        <time>2018-07-08T12:43:40Z</time>
      </trkpt>
      <trkpt lat="46.018266370519996" lon="10.467675905674696">
        <ele>2689.9099999999999</ele>
        <time>2018-07-08T12:43:51Z</time>
      </trkpt>
      <trkpt lat="46.018280703574419" lon="10.467639025300741">
        <ele>2690.8699999999999</ele>
        <time>2018-07-08T12:44:04Z</time>
      </trkpt>
      <trkpt lat="46.01829444989562" lon="10.467630475759506">
        <ele>2692.3099999999999</ele>
        <time>2018-07-08T12:44:14Z</time>
      </trkpt>
      <trkpt lat="46.018288750201464" lon="10.467616645619273">
        <ele>2693.27</ele>
        <time>2018-07-08T12:44:24Z</time>
      </trkpt>
      <trkpt lat="46.018308866769075" lon="10.467593427747488">
        <ele>2695.1900000000001</ele>
        <time>2018-07-08T12:44:36Z</time>
      </trkpt>
      <trkpt lat="46.018304340541363" lon="10.467601977288723">
        <ele>2694.71</ele>
        <time>2018-07-08T12:44:49Z</time>
      </trkpt>
      <trkpt lat="46.018298054113984" lon="10.467587560415268">
        <ele>2695.1900000000001</ele>
        <time>2018-07-08T12:44:55Z</time>
      </trkpt>
      <trkpt lat="46.018282547593117" lon="10.467528970912099">
        <ele>2693.75</ele>
        <time>2018-07-08T12:45:05Z</time>
      </trkpt>
      <trkpt lat="46.018267711624503" lon="10.467460993677378">
        <ele>2695.6700000000001</ele>
        <time>2018-07-08T12:45:17Z</time>
      </trkpt>
      <trkpt lat="46.018245918676257" lon="10.4674391169101">
        <ele>2698.0799999999999</ele>
        <time>2018-07-08T12:45:29Z</time>
      </trkpt>
      <trkpt lat="46.018245751038194" lon="10.46739368699491">
        <ele>2698.5599999999999</ele>
        <time>2018-07-08T12:45:38Z</time>
      </trkpt>
      <trkpt lat="46.018226053565741" lon="10.467415396124125">
        <ele>2698.0799999999999</ele>
        <time>2018-07-08T12:45:52Z</time>
      </trkpt>
      <trkpt lat="46.018252205103636" lon="10.467406092211604">
        <ele>2698.0799999999999</ele>
        <time>2018-07-08T12:46:04Z</time>
      </trkpt>
      <trkpt lat="46.018287492915988" lon="10.467368625104427">
        <ele>2699.04</ele>
        <time>2018-07-08T12:46:14Z</time>
      </trkpt>
      <trkpt lat="46.018301155418158" lon="10.467344988137484">
        <ele>2700.96</ele>
        <time>2018-07-08T12:46:23Z</time>
      </trkpt>
      <trkpt lat="46.018318925052881" lon="10.467339958995581">
        <ele>2702.8800000000001</ele>
        <time>2018-07-08T12:46:33Z</time>
      </trkpt>
      <trkpt lat="46.018341640010476" lon="10.467372313141823">
        <ele>2704.3299999999999</ele>
        <time>2018-07-08T12:46:42Z</time>
      </trkpt>
      <trkpt lat="46.018361337482929" lon="10.467416234314442">
        <ele>2705.29</ele>
        <time>2018-07-08T12:46:52Z</time>
      </trkpt>
      <trkpt lat="46.018383633345366" lon="10.467415815219283">
        <ele>2706.73</ele>
        <time>2018-07-08T12:47:00Z</time>
      </trkpt>
      <trkpt lat="46.018387489020824" lon="10.467379270121455">
        <ele>2707.6900000000001</ele>
        <time>2018-07-08T12:47:09Z</time>
      </trkpt>
      <trkpt lat="46.018378855660558" lon="10.467355046421289">
        <ele>2708.6500000000001</ele>
        <time>2018-07-08T12:47:17Z</time>
      </trkpt>
      <trkpt lat="46.018393523991108" lon="10.467319674789906">
        <ele>2710.5700000000002</ele>
        <time>2018-07-08T12:47:27Z</time>
      </trkpt>
      <trkpt lat="46.018396457657218" lon="10.467282542958856">
        <ele>2711.54</ele>
        <time>2018-07-08T12:47:36Z</time>
      </trkpt>
      <trkpt lat="46.018393021076918" lon="10.467246836051345">
        <ele>2712.98</ele>
        <time>2018-07-08T12:47:46Z</time>
      </trkpt>
      <trkpt lat="46.018407102674246" lon="10.46721481718123">
        <ele>2713.9400000000001</ele>
        <time>2018-07-08T12:47:55Z</time>
      </trkpt>
      <trkpt lat="46.018440462648869" lon="10.467294445261359">
        <ele>2715.3800000000001</ele>
        <time>2018-07-08T12:48:04Z</time>
      </trkpt>
      <trkpt lat="46.018449515104294" lon="10.467256307601929">
        <ele>2716.3400000000001</ele>
        <time>2018-07-08T12:48:13Z</time>
      </trkpt>
      <trkpt lat="46.018438786268234" lon="10.467220097780228">
        <ele>2716.3400000000001</ele>
        <time>2018-07-08T12:48:23Z</time>
      </trkpt>
      <trkpt lat="46.018436187878251" lon="10.467199310660362">
        <ele>2715.8600000000001</ele>
        <time>2018-07-08T12:48:36Z</time>
      </trkpt>
      <trkpt lat="46.018430823460221" lon="10.467190090566874">
        <ele>2715.8600000000001</ele>
        <time>2018-07-08T12:48:50Z</time>
      </trkpt>
      <trkpt lat="46.018434343859553" lon="10.467189587652683">
        <ele>2716.3400000000001</ele>
        <time>2018-07-08T12:49:02Z</time>
      </trkpt>
      <trkpt lat="46.018429566174746" lon="10.467187408357859">
        <ele>2716.3400000000001</ele>
        <time>2018-07-08T12:49:16Z</time>
      </trkpt>
      <trkpt lat="46.018425626680255" lon="10.467209033668041">
        <ele>2715.3800000000001</ele>
        <time>2018-07-08T12:49:27Z</time>
      </trkpt>
      <trkpt lat="46.018421687185764" lon="10.467226384207606">
        <ele>2715.3800000000001</ele>
        <time>2018-07-08T12:49:37Z</time>
      </trkpt>
      <trkpt lat="46.01841950789094" lon="10.467231832444668">
        <ele>2715.8600000000001</ele>
        <time>2018-07-08T12:49:57Z</time>
      </trkpt>
      <trkpt lat="46.018413808196783" lon="10.467234095558524">
        <ele>2715.8600000000001</ele>
        <time>2018-07-08T12:50:23Z</time>
      </trkpt>
      <trkpt lat="46.018417328596115" lon="10.467257732525468">
        <ele>2716.3400000000001</ele>
        <time>2018-07-08T12:50:44Z</time>
      </trkpt>
      <trkpt lat="46.018428225070238" lon="10.467260079458356">
        <ele>2716.3400000000001</ele>
        <time>2018-07-08T12:51:09Z</time>
      </trkpt>
      <trkpt lat="46.01842244155705" lon="10.467257900163531">
        <ele>2716.3400000000001</ele>
        <time>2018-07-08T12:51:33Z</time>
      </trkpt>
      <trkpt lat="46.018442893400788" lon="10.46724172309041">
        <ele>2716.8200000000002</ele>
        <time>2018-07-08T12:51:50Z</time>
      </trkpt>
      <trkpt lat="46.018435265868902" lon="10.467227892950177">
        <ele>2716.8200000000002</ele>
        <time>2018-07-08T12:52:06Z</time>
      </trkpt>
      <trkpt lat="46.018432332202792" lon="10.467214984819293">
        <ele>2716.8200000000002</ele>
        <time>2018-07-08T12:52:32Z</time>
      </trkpt>
      <trkpt lat="46.018435517325997" lon="10.467215571552515">
        <ele>2716.8200000000002</ele>
        <time>2018-07-08T12:52:47Z</time>
      </trkpt>
      <trkpt lat="46.018429482355714" lon="10.46720702201128">
        <ele>2716.8200000000002</ele>
        <time>2018-07-08T12:53:02Z</time>
      </trkpt>
      <trkpt lat="46.018437780439854" lon="10.467240633442998">
        <ele>2716.8200000000002</ele>
        <time>2018-07-08T12:53:33Z</time>
      </trkpt>
      <trkpt lat="46.018437696620822" lon="10.46722655184567">
        <ele>2716.8200000000002</ele>
        <time>2018-07-08T12:54:01Z</time>
      </trkpt>
      <trkpt lat="46.018437696620822" lon="10.467221019789577">
        <ele>2710.5700000000002</ele>
        <time>2018-07-08T12:54:24Z</time>
      </trkpt>
      <trkpt lat="46.018437193706632" lon="10.467221857979894">
        <ele>2720.1900000000001</ele>
        <time>2018-07-08T12:54:25Z</time>
      </trkpt>
      <trkpt lat="46.018433002755046" lon="10.467216158285737">
        <ele>2716.8200000000002</ele>
        <time>2018-07-08T12:54:27Z</time>
      </trkpt>
      <trkpt lat="46.018433338031173" lon="10.467216409742832">
        <ele>2717.3000000000002</ele>
        <time>2018-07-08T12:54:28Z</time>
      </trkpt>
      <trkpt lat="46.018433170393109" lon="10.467214649543166">
        <ele>2717.3000000000002</ele>
        <time>2018-07-08T12:54:51Z</time>
      </trkpt>
      <trkpt lat="46.01844884455204" lon="10.467236191034317">
        <ele>2717.3000000000002</ele>
        <time>2018-07-08T12:55:17Z</time>
      </trkpt>
      <trkpt lat="46.018440295010805" lon="10.46725194901228">
        <ele>2717.3000000000002</ele>
        <time>2018-07-08T12:55:33Z</time>
      </trkpt>
      <trkpt lat="46.018455885350704" lon="10.467228898778558">
        <ele>2717.7800000000002</ele>
        <time>2018-07-08T12:55:41Z</time>
      </trkpt>
      <trkpt lat="46.01844783872366" lon="10.467274412512779">
        <ele>2717.3000000000002</ele>
        <time>2018-07-08T12:55:50Z</time>
      </trkpt>
      <trkpt lat="46.01845127530396" lon="10.467284806072712">
        <ele>2717.3000000000002</ele>
        <time>2018-07-08T12:56:05Z</time>
      </trkpt>
      <trkpt lat="46.018448173999786" lon="10.46724365092814">
        <ele>2718.27</ele>
        <time>2018-07-08T12:56:17Z</time>
      </trkpt>
      <trkpt lat="46.0184371098876" lon="10.467234011739492">
        <ele>2718.27</ele>
        <time>2018-07-08T12:56:39Z</time>
      </trkpt>
      <trkpt lat="46.018436858430505" lon="10.467222612351179">
        <ele>2717.7800000000002</ele>
        <time>2018-07-08T12:56:57Z</time>
      </trkpt>
      <trkpt lat="46.018443647772074" lon="10.467213643714786">
        <ele>2718.27</ele>
        <time>2018-07-08T12:57:09Z</time>
      </trkpt>
      <trkpt lat="46.01842881180346" lon="10.467199226841331">
        <ele>2718.27</ele>
        <time>2018-07-08T12:57:21Z</time>
      </trkpt>
      <trkpt lat="46.01844834163785" lon="10.467229653149843">
        <ele>2717.3000000000002</ele>
        <time>2018-07-08T12:57:30Z</time>
      </trkpt>
      <trkpt lat="46.018449934199452" lon="10.467224288731813">
        <ele>2717.7800000000002</ele>
        <time>2018-07-08T12:57:51Z</time>
      </trkpt>
      <trkpt lat="46.018457058817148" lon="10.467215906828642">
        <ele>2717.7800000000002</ele>
        <time>2018-07-08T12:58:08Z</time>
      </trkpt>
      <trkpt lat="46.018448593094945" lon="10.467214230448008">
        <ele>2718.27</ele>
        <time>2018-07-08T12:58:22Z</time>
      </trkpt>
      <trkpt lat="46.018452029675245" lon="10.467219008132815">
        <ele>2718.27</ele>
        <time>2018-07-08T12:58:34Z</time>
      </trkpt>
      <trkpt lat="46.018439456820488" lon="10.46720358543098">
        <ele>2718.27</ele>
        <time>2018-07-08T12:58:46Z</time>
      </trkpt>
      <trkpt lat="46.018461920320988" lon="10.46720165759325">
        <ele>2717.7800000000002</ele>
        <time>2018-07-08T12:59:04Z</time>
      </trkpt>
      <trkpt lat="46.018464686349034" lon="10.467182211577892">
        <ele>2716.8200000000002</ele>
        <time>2018-07-08T12:59:15Z</time>
      </trkpt>
      <trkpt lat="46.018458735197783" lon="10.467159748077393">
        <ele>2716.8200000000002</ele>
        <time>2018-07-08T12:59:29Z</time>
      </trkpt>
      <trkpt lat="46.018447922542691" lon="10.467133261263371">
        <ele>2716.3400000000001</ele>
        <time>2018-07-08T12:59:43Z</time>
      </trkpt>
      <trkpt lat="46.018456472083926" lon="10.467123202979565">
        <ele>2716.8200000000002</ele>
        <time>2018-07-08T12:59:56Z</time>
      </trkpt>
      <trkpt lat="46.018462004140019" lon="10.467118173837662">
        <ele>2716.3400000000001</ele>
        <time>2018-07-08T13:00:08Z</time>
      </trkpt>
      <trkpt lat="46.018466278910637" lon="10.467084143310785">
        <ele>2714.9000000000001</ele>
        <time>2018-07-08T13:00:21Z</time>
      </trkpt>
      <trkpt lat="46.0184854734689" lon="10.467073330655694">
        <ele>2714.4200000000001</ele>
        <time>2018-07-08T13:00:30Z</time>
      </trkpt>
      <trkpt lat="46.018489161506295" lon="10.467061176896095">
        <ele>2713.9400000000001</ele>
        <time>2018-07-08T13:00:40Z</time>
      </trkpt>
      <trkpt lat="46.018524700775743" lon="10.467071067541838">
        <ele>2712.98</ele>
        <time>2018-07-08T13:00:57Z</time>
      </trkpt>
      <trkpt lat="46.018542302772403" lon="10.46707509085536">
        <ele>2712.5</ele>
        <time>2018-07-08T13:01:06Z</time>
      </trkpt>
      <trkpt lat="46.018559401854873" lon="10.467084310948849">
        <ele>2712.5</ele>
        <time>2018-07-08T13:01:16Z</time>
      </trkpt>
      <trkpt lat="46.018569879233837" lon="10.467100236564875">
        <ele>2712.5</ele>
        <time>2018-07-08T13:01:29Z</time>
      </trkpt>
      <trkpt lat="46.018587062135339" lon="10.467100236564875">
        <ele>2711.54</ele>
        <time>2018-07-08T13:01:41Z</time>
      </trkpt>
      <trkpt lat="46.018581110984087" lon="10.467104511335492">
        <ele>2711.54</ele>
        <time>2018-07-08T13:01:54Z</time>
      </trkpt>
      <trkpt lat="46.018592845648527" lon="10.46711029484868">
        <ele>2711.54</ele>
        <time>2018-07-08T13:02:10Z</time>
      </trkpt>
      <trkpt lat="46.018607681617141" lon="10.467108367010951">
        <ele>2710.5700000000002</ele>
        <time>2018-07-08T13:02:21Z</time>
      </trkpt>
      <trkpt lat="46.01862084120512" lon="10.467118425294757">
        <ele>2710.0900000000001</ele>
        <time>2018-07-08T13:02:32Z</time>
      </trkpt>
      <trkpt lat="46.018631989136338" lon="10.46711565926671">
        <ele>2710.0900000000001</ele>
        <time>2018-07-08T13:02:42Z</time>
      </trkpt>
      <trkpt lat="46.018642382696271" lon="10.467117670923471">
        <ele>2709.6100000000001</ele>
        <time>2018-07-08T13:02:56Z</time>
      </trkpt>
      <trkpt lat="46.018653614446521" lon="10.467124124988914">
        <ele>2709.1300000000001</ele>
        <time>2018-07-08T13:03:09Z</time>
      </trkpt>
      <trkpt lat="46.018664510920644" lon="10.46713032759726">
        <ele>2708.6500000000001</ele>
        <time>2018-07-08T13:03:26Z</time>
      </trkpt>
      <trkpt lat="46.018653195351362" lon="10.467130579054356">
        <ele>2708.1700000000001</ele>
        <time>2018-07-08T13:03:43Z</time>
      </trkpt>
      <trkpt lat="46.018678843975067" lon="10.467116748914123">
        <ele>2706.73</ele>
        <time>2018-07-08T13:03:53Z</time>
      </trkpt>
      <trkpt lat="46.018689572811127" lon="10.46712102368474">
        <ele>2706.25</ele>
        <time>2018-07-08T13:04:08Z</time>
      </trkpt>
      <trkpt lat="46.018698122352362" lon="10.467118676751852">
        <ele>2706.25</ele>
        <time>2018-07-08T13:04:19Z</time>
      </trkpt>
      <trkpt lat="46.018689908087254" lon="10.467116413637996">
        <ele>2705.29</ele>
        <time>2018-07-08T13:04:32Z</time>
      </trkpt>
      <trkpt lat="46.018715891987085" lon="10.467122532427311">
        <ele>2705.29</ele>
        <time>2018-07-08T13:04:44Z</time>
      </trkpt>
      <trkpt lat="46.018723100423813" lon="10.467100068926811">
        <ele>2703.8499999999999</ele>
        <time>2018-07-08T13:05:00Z</time>
      </trkpt>
      <trkpt lat="46.018725195899606" lon="10.467099817469716">
        <ele>2703.3600000000001</ele>
        <time>2018-07-08T13:05:10Z</time>
      </trkpt>
      <trkpt lat="46.018733410164714" lon="10.467117251828313">
        <ele>2702.8800000000001</ele>
        <time>2018-07-08T13:05:26Z</time>
      </trkpt>
      <trkpt lat="46.018720837309957" lon="10.46712395735085">
        <ele>2702.4000000000001</ele>
        <time>2018-07-08T13:05:40Z</time>
      </trkpt>
      <trkpt lat="46.01873030886054" lon="10.467124208807945">
        <ele>2702.4000000000001</ele>
        <time>2018-07-08T13:05:50Z</time>
      </trkpt>
      <trkpt lat="46.018732571974397" lon="10.467097219079733">
        <ele>2701.4400000000001</ele>
        <time>2018-07-08T13:06:01Z</time>
      </trkpt>
      <trkpt lat="46.018752437084913" lon="10.467108869925141">
        <ele>2700.96</ele>
        <time>2018-07-08T13:06:10Z</time>
      </trkpt>
      <trkpt lat="46.018762160092592" lon="10.467095375061035">
        <ele>2699.52</ele>
        <time>2018-07-08T13:06:21Z</time>
      </trkpt>
      <trkpt lat="46.018774900585413" lon="10.467091435566545">
        <ele>2699.04</ele>
        <time>2018-07-08T13:06:35Z</time>
      </trkpt>
      <trkpt lat="46.018777582794428" lon="10.467083305120468">
        <ele>2698.5599999999999</ele>
        <time>2018-07-08T13:06:50Z</time>
      </trkpt>
      <trkpt lat="46.018787221983075" lon="10.467097805812955">
        <ele>2698.0799999999999</ele>
        <time>2018-07-08T13:07:04Z</time>
      </trkpt>
      <trkpt lat="46.018803818151355" lon="10.467101577669382">
        <ele>2697.1199999999999</ele>
        <time>2018-07-08T13:07:16Z</time>
      </trkpt>
      <trkpt lat="46.018857294693589" lon="10.467121275141835">
        <ele>2695.6700000000001</ele>
        <time>2018-07-08T13:07:27Z</time>
      </trkpt>
      <trkpt lat="46.018888307735324" lon="10.467108199372888">
        <ele>2694.23</ele>
        <time>2018-07-08T13:07:37Z</time>
      </trkpt>
      <trkpt lat="46.018914207816124" lon="10.467085065320134">
        <ele>2692.79</ele>
        <time>2018-07-08T13:07:47Z</time>
      </trkpt>
      <trkpt lat="46.018917309120297" lon="10.467087915167212">
        <ele>2692.3099999999999</ele>
        <time>2018-07-08T13:08:00Z</time>
      </trkpt>
      <trkpt lat="46.018944131210446" lon="10.467068972066045">
        <ele>2690.8699999999999</ele>
        <time>2018-07-08T13:08:10Z</time>
      </trkpt>
      <trkpt lat="46.018986124545336" lon="10.467042317613959">
        <ele>2688.46</ele>
        <time>2018-07-08T13:08:22Z</time>
      </trkpt>
      <trkpt lat="46.019008588045835" lon="10.467031840234995">
        <ele>2687.02</ele>
        <time>2018-07-08T13:08:32Z</time>
      </trkpt>
      <trkpt lat="46.019037589430809" lon="10.467002335935831">
        <ele>2685.5799999999999</ele>
        <time>2018-07-08T13:08:44Z</time>
      </trkpt>
      <trkpt lat="46.01905376650393" lon="10.46698615886271">
        <ele>2684.6199999999999</ele>
        <time>2018-07-08T13:08:56Z</time>
      </trkpt>
      <trkpt lat="46.019064830616117" lon="10.466977776959538">
        <ele>2684.1399999999999</ele>
        <time>2018-07-08T13:09:15Z</time>
      </trkpt>
      <trkpt lat="46.019066004082561" lon="10.466978196054697">
        <ele>2683.6599999999999</ele>
        <time>2018-07-08T13:09:33Z</time>
      </trkpt>
      <trkpt lat="46.019065249711275" lon="10.466966042295098">
        <ele>2683.6599999999999</ele>
        <time>2018-07-08T13:09:56Z</time>
      </trkpt>
      <trkpt lat="46.01907966658473" lon="10.466966461390257">
        <ele>2682.6999999999998</ele>
        <time>2018-07-08T13:10:12Z</time>
      </trkpt>
      <trkpt lat="46.019082264974713" lon="10.466974675655365">
        <ele>2682.6999999999998</ele>
        <time>2018-07-08T13:10:40Z</time>
      </trkpt>
      <trkpt lat="46.019097352400422" lon="10.466947266831994">
        <ele>2681.73</ele>
        <time>2018-07-08T13:10:54Z</time>
      </trkpt>
      <trkpt lat="46.019104057922959" lon="10.466941064223647">
        <ele>2681.73</ele>
        <time>2018-07-08T13:11:10Z</time>
      </trkpt>
      <trkpt lat="46.019107326865196" lon="10.466938633471727">
        <ele>2680.77</ele>
        <time>2018-07-08T13:11:22Z</time>
      </trkpt>
      <trkpt lat="46.019119899719954" lon="10.466909632086754">
        <ele>2680.29</ele>
        <time>2018-07-08T13:11:35Z</time>
      </trkpt>
      <trkpt lat="46.019131802022457" lon="10.466904016211629">
        <ele>2679.8099999999999</ele>
        <time>2018-07-08T13:11:49Z</time>
      </trkpt>
      <trkpt lat="46.0191416926682" lon="10.466900495812297">
        <ele>2679.3299999999999</ele>
        <time>2018-07-08T13:12:04Z</time>
      </trkpt>
      <trkpt lat="46.01915636099875" lon="10.466914577409625">
        <ele>2678.8499999999999</ele>
        <time>2018-07-08T13:12:19Z</time>
      </trkpt>
      <trkpt lat="46.019148649647832" lon="10.466924887150526">
        <ele>2678.8499999999999</ele>
        <time>2018-07-08T13:12:31Z</time>
      </trkpt>
      <trkpt lat="46.019190978258848" lon="10.46690602786839">
        <ele>2678.3699999999999</ele>
        <time>2018-07-08T13:12:44Z</time>
      </trkpt>
      <trkpt lat="46.019200282171369" lon="10.466898987069726">
        <ele>2677.8899999999999</ele>
        <time>2018-07-08T13:12:54Z</time>
      </trkpt>
      <trkpt lat="46.019194582477212" lon="10.4669348616153">
        <ele>2677.8899999999999</ele>
        <time>2018-07-08T13:13:07Z</time>
      </trkpt>
      <trkpt lat="46.019212519749999" lon="10.466924048960209">
        <ele>2677.8899999999999</ele>
        <time>2018-07-08T13:13:21Z</time>
      </trkpt>
      <trkpt lat="46.019228277727962" lon="10.466927317902446">
        <ele>2677.4099999999999</ele>
        <time>2018-07-08T13:13:32Z</time>
      </trkpt>
      <trkpt lat="46.019263146445155" lon="10.466921618208289">
        <ele>2676.4499999999998</ele>
        <time>2018-07-08T13:13:43Z</time>
      </trkpt>
      <trkpt lat="46.01927513256669" lon="10.466915834695101">
        <ele>2675.4899999999998</ele>
        <time>2018-07-08T13:13:52Z</time>
      </trkpt>
      <trkpt lat="46.019286867231131" lon="10.466878535225987">
        <ele>2674.04</ele>
        <time>2018-07-08T13:14:00Z</time>
      </trkpt>
      <trkpt lat="46.019320730119944" lon="10.46688943170011">
        <ele>2672.5999999999999</ele>
        <time>2018-07-08T13:14:09Z</time>
      </trkpt>
      <trkpt lat="46.019348558038473" lon="10.466876355931163">
        <ele>2671.1599999999999</ele>
        <time>2018-07-08T13:14:19Z</time>
      </trkpt>
      <trkpt lat="46.019374961033463" lon="10.466871410608292">
        <ele>2669.7199999999998</ele>
        <time>2018-07-08T13:14:29Z</time>
      </trkpt>
      <trkpt lat="46.0194006934762" lon="10.466878954321146">
        <ele>2668.7600000000002</ele>
        <time>2018-07-08T13:14:39Z</time>
      </trkpt>
      <trkpt lat="46.019417457282543" lon="10.466860262677073">
        <ele>2667.3099999999999</ele>
        <time>2018-07-08T13:14:52Z</time>
      </trkpt>
      <trkpt lat="46.019447296857834" lon="10.4668605979532">
        <ele>2666.8299999999999</ele>
        <time>2018-07-08T13:15:04Z</time>
      </trkpt>
      <trkpt lat="46.01943539455533" lon="10.466864621266723">
        <ele>2666.8299999999999</ele>
        <time>2018-07-08T13:15:17Z</time>
      </trkpt>
      <trkpt lat="46.019435897469521" lon="10.466833021491766">
        <ele>2665.3899999999999</ele>
        <time>2018-07-08T13:15:29Z</time>
      </trkpt>
      <trkpt lat="46.019463557749987" lon="10.466824220493436">
        <ele>2664.9099999999999</ele>
        <time>2018-07-08T13:15:39Z</time>
      </trkpt>
      <trkpt lat="46.019490463659167" lon="10.466802846640348">
        <ele>2662.0300000000002</ele>
        <time>2018-07-08T13:15:51Z</time>
      </trkpt>
      <trkpt lat="46.01953161880374" lon="10.466785496100783">
        <ele>2661.0700000000002</ele>
        <time>2018-07-08T13:16:03Z</time>
      </trkpt>
      <trkpt lat="46.019586017355323" lon="10.466793961822987">
        <ele>2659.1399999999999</ele>
        <time>2018-07-08T13:16:15Z</time>
      </trkpt>
      <trkpt lat="46.01961812004447" lon="10.466826567426324">
        <ele>2658.6599999999999</ele>
        <time>2018-07-08T13:16:24Z</time>
      </trkpt>
      <trkpt lat="46.019652402028441" lon="10.466840146109462">
        <ele>2658.6599999999999</ele>
        <time>2018-07-08T13:16:32Z</time>
      </trkpt>
      <trkpt lat="46.01966941729188" lon="10.466883312910795">
        <ele>2659.1399999999999</ele>
        <time>2018-07-08T13:16:45Z</time>
      </trkpt>
      <trkpt lat="46.019681319594383" lon="10.466890353709459">
        <ele>2658.1799999999998</ele>
        <time>2018-07-08T13:16:58Z</time>
      </trkpt>
      <trkpt lat="46.019660197198391" lon="10.466876775026321">
        <ele>2658.6599999999999</ele>
        <time>2018-07-08T13:17:07Z</time>
      </trkpt>
      <trkpt lat="46.019646199420094" lon="10.466809384524822">
        <ele>2655.7800000000002</ele>
        <time>2018-07-08T13:17:16Z</time>
      </trkpt>
      <trkpt lat="46.019650809466839" lon="10.466731684282422">
        <ele>2653.8600000000001</ele>
        <time>2018-07-08T13:17:26Z</time>
      </trkpt>
      <trkpt lat="46.019649636000395" lon="10.466696731746197">
        <ele>2653.3800000000001</ele>
        <time>2018-07-08T13:17:36Z</time>
      </trkpt>
      <trkpt lat="46.019657263532281" lon="10.466665970161557">
        <ele>2651.4499999999998</ele>
        <time>2018-07-08T13:17:47Z</time>
      </trkpt>
      <trkpt lat="46.019708141684532" lon="10.466651134192944">
        <ele>2649.0500000000002</ele>
        <time>2018-07-08T13:17:57Z</time>
      </trkpt>
      <trkpt lat="46.019755499437451" lon="10.466676112264395">
        <ele>2648.5700000000002</ele>
        <time>2018-07-08T13:18:07Z</time>
      </trkpt>
      <trkpt lat="46.019774191081524" lon="10.466704610735178">
        <ele>2648.5700000000002</ele>
        <time>2018-07-08T13:18:20Z</time>
      </trkpt>
      <trkpt lat="46.019779890775681" lon="10.466692205518484">
        <ele>2647.6100000000001</ele>
        <time>2018-07-08T13:18:30Z</time>
      </trkpt>
      <trkpt lat="46.019789362326264" lon="10.466683069244027">
        <ele>2646.1700000000001</ele>
        <time>2018-07-08T13:18:42Z</time>
      </trkpt>
      <trkpt lat="46.019802521914244" lon="10.466716596856713">
        <ele>2646.6500000000001</ele>
        <time>2018-07-08T13:18:52Z</time>
      </trkpt>
      <trkpt lat="46.019776118919253" lon="10.466712741181254">
        <ele>2646.6500000000001</ele>
        <time>2018-07-08T13:19:06Z</time>
      </trkpt>
      <trkpt lat="46.019772598519921" lon="10.466701844707131">
        <ele>2646.6500000000001</ele>
        <time>2018-07-08T13:19:21Z</time>
      </trkpt>
      <trkpt lat="46.019787937402725" lon="10.466708466410637">
        <ele>2646.6500000000001</ele>
        <time>2018-07-08T13:19:29Z</time>
      </trkpt>
      <trkpt lat="46.019773771986365" lon="10.466718692332506">
        <ele>2646.6500000000001</ele>
        <time>2018-07-08T13:19:42Z</time>
      </trkpt>
      <trkpt lat="46.019829930737615" lon="10.466713579371572">
        <ele>2646.1700000000001</ele>
        <time>2018-07-08T13:19:52Z</time>
      </trkpt>
      <trkpt lat="46.019883155822754" lon="10.466729672625661">
        <ele>2644.7199999999998</ele>
        <time>2018-07-08T13:20:04Z</time>
      </trkpt>
      <trkpt lat="46.019932357594371" lon="10.466786082834005">
        <ele>2644.2399999999998</ele>
        <time>2018-07-08T13:20:16Z</time>
      </trkpt>
      <trkpt lat="46.019981140270829" lon="10.466837380081415">
        <ele>2645.21</ele>
        <time>2018-07-08T13:20:27Z</time>
      </trkpt>
      <trkpt lat="46.020022043958306" lon="10.466869650408626">
        <ele>2646.6500000000001</ele>
        <time>2018-07-08T13:20:38Z</time>
      </trkpt>
      <trkpt lat="46.020047189667821" lon="10.466926982626319">
        <ele>2647.6100000000001</ele>
        <time>2018-07-08T13:20:50Z</time>
      </trkpt>
      <trkpt lat="46.020091529935598" lon="10.466966712847352">
        <ele>2648.0900000000001</ele>
        <time>2018-07-08T13:21:02Z</time>
      </trkpt>
      <trkpt lat="46.020121369510889" lon="10.467005437240005">
        <ele>2648.0900000000001</ele>
        <time>2018-07-08T13:21:11Z</time>
      </trkpt>
      <trkpt lat="46.020127153024077" lon="10.467005521059036">
        <ele>2648.0900000000001</ele>
        <time>2018-07-08T13:21:25Z</time>
      </trkpt>
      <trkpt lat="46.020170068368316" lon="10.467025637626648">
        <ele>2647.6100000000001</ele>
        <time>2018-07-08T13:21:35Z</time>
      </trkpt>
      <trkpt lat="46.020218767225742" lon="10.46703452244401">
        <ele>2648.0900000000001</ele>
        <time>2018-07-08T13:21:45Z</time>
      </trkpt>
      <trkpt lat="46.020222958177328" lon="10.467038964852691">
        <ele>2647.6100000000001</ele>
        <time>2018-07-08T13:21:56Z</time>
      </trkpt>
      <trkpt lat="46.02025187574327" lon="10.467022620141506">
        <ele>2646.6500000000001</ele>
        <time>2018-07-08T13:22:11Z</time>
      </trkpt>
      <trkpt lat="46.020279200747609" lon="10.467037037014961">
        <ele>2645.21</ele>
        <time>2018-07-08T13:22:23Z</time>
      </trkpt>
      <trkpt lat="46.020295629277825" lon="10.467020021751523">
        <ele>2643.7600000000002</ele>
        <time>2018-07-08T13:22:33Z</time>
      </trkpt>
      <trkpt lat="46.020302167162299" lon="10.467019099742174">
        <ele>2643.7600000000002</ele>
        <time>2018-07-08T13:22:34Z</time>
      </trkpt>
      <trkpt lat="46.020340137183666" lon="10.467013735324144">
        <ele>2643.2800000000002</ele>
        <time>2018-07-08T13:22:41Z</time>
      </trkpt>
      <trkpt lat="46.020414903759956" lon="10.467048520222306">
        <ele>2642.8000000000002</ele>
        <time>2018-07-08T13:22:51Z</time>
      </trkpt>
      <trkpt lat="46.020461842417717" lon="10.467059500515461">
        <ele>2642.3200000000002</ele>
        <time>2018-07-08T13:23:01Z</time>
      </trkpt>
      <trkpt lat="46.020521437749267" lon="10.46708045527339">
        <ele>2641.3600000000001</ele>
        <time>2018-07-08T13:23:11Z</time>
      </trkpt>
      <trkpt lat="46.020581284537911" lon="10.467086154967546">
        <ele>2641.3600000000001</ele>
        <time>2018-07-08T13:23:21Z</time>
      </trkpt>
      <trkpt lat="46.02064129896462" lon="10.467091351747513">
        <ele>2641.8400000000001</ele>
        <time>2018-07-08T13:23:31Z</time>
      </trkpt>
      <trkpt lat="46.020686896517873" lon="10.467091351747513">
        <ele>2641.3600000000001</ele>
        <time>2018-07-08T13:23:40Z</time>
      </trkpt>
      <trkpt lat="46.020704749971628" lon="10.467083640396595">
        <ele>2639.9200000000001</ele>
        <time>2018-07-08T13:23:44Z</time>
      </trkpt>
      <trkpt lat="46.020782366394997" lon="10.467099566012621">
        <ele>2640.4000000000001</ele>
        <time>2018-07-08T13:23:55Z</time>
      </trkpt>
      <trkpt lat="46.02082553319633" lon="10.467087915167212">
        <ele>2638.96</ele>
        <time>2018-07-08T13:24:06Z</time>
      </trkpt>
      <trkpt lat="46.020854115486145" lon="10.467072324827313">
        <ele>2637.5100000000002</ele>
        <time>2018-07-08T13:24:16Z</time>
      </trkpt>
      <trkpt lat="46.020897533744574" lon="10.467040808871388">
        <ele>2636.0700000000002</ele>
        <time>2018-07-08T13:24:28Z</time>
      </trkpt>
      <trkpt lat="46.02093986235559" lon="10.466996217146516">
        <ele>2634.1500000000001</ele>
        <time>2018-07-08T13:24:39Z</time>
      </trkpt>
      <trkpt lat="46.020981771871448" lon="10.466967215761542">
        <ele>2632.71</ele>
        <time>2018-07-08T13:24:50Z</time>
      </trkpt>
      <trkpt lat="46.021026279777288" lon="10.466980040073395">
        <ele>2631.75</ele>
        <time>2018-07-08T13:25:01Z</time>
      </trkpt>
      <trkpt lat="46.021062070503831" lon="10.466968975961208">
        <ele>2630.79</ele>
        <time>2018-07-08T13:25:12Z</time>
      </trkpt>
      <trkpt lat="46.021080007776618" lon="10.466932011768222">
        <ele>2628.8600000000001</ele>
        <time>2018-07-08T13:25:23Z</time>
      </trkpt>
      <trkpt lat="46.021108254790306" lon="10.466908123344183">
        <ele>2626.9400000000001</ele>
        <time>2018-07-08T13:25:33Z</time>
      </trkpt>
      <trkpt lat="46.021118564531207" lon="10.466865124180913">
        <ele>2625.5</ele>
        <time>2018-07-08T13:25:44Z</time>
      </trkpt>
      <trkpt lat="46.021157624199986" lon="10.466845845803618">
        <ele>2624.54</ele>
        <time>2018-07-08T13:25:53Z</time>
      </trkpt>
      <trkpt lat="46.02119006216526" lon="10.466842325404286">
        <ele>2624.0599999999999</ele>
        <time>2018-07-08T13:26:02Z</time>
      </trkpt>
      <trkpt lat="46.021201713010669" lon="10.46680293045938">
        <ele>2622.6100000000001</ele>
        <time>2018-07-08T13:26:12Z</time>
      </trkpt>
      <trkpt lat="46.021206239238381" lon="10.466776611283422">
        <ele>2621.1700000000001</ele>
        <time>2018-07-08T13:26:23Z</time>
      </trkpt>
      <trkpt lat="46.021232390776277" lon="10.466737216338515">
        <ele>2620.21</ele>
        <time>2018-07-08T13:26:32Z</time>
      </trkpt>
      <trkpt lat="46.021312354132533" lon="10.466693211346865">
        <ele>2618.29</ele>
        <time>2018-07-08T13:26:43Z</time>
      </trkpt>
      <trkpt lat="46.02137228474021" lon="10.466704024001956">
        <ele>2618.29</ele>
        <time>2018-07-08T13:26:53Z</time>
      </trkpt>
      <trkpt lat="46.021429700776935" lon="10.466711735352874">
        <ele>2619.25</ele>
        <time>2018-07-08T13:27:03Z</time>
      </trkpt>
      <trkpt lat="46.021485440433025" lon="10.466695223003626">
        <ele>2618.77</ele>
        <time>2018-07-08T13:27:13Z</time>
      </trkpt>
      <trkpt lat="46.021537743508816" lon="10.466715004295111">
        <ele>2619.25</ele>
        <time>2018-07-08T13:27:24Z</time>
      </trkpt>
      <trkpt lat="46.021575126796961" lon="10.466718357056379">
        <ele>2619.73</ele>
        <time>2018-07-08T13:27:34Z</time>
      </trkpt>
      <trkpt lat="46.021613096818328" lon="10.466720201075077">
        <ele>2619.25</ele>
        <time>2018-07-08T13:27:44Z</time>
      </trkpt>
      <trkpt lat="46.021657017990947" lon="10.466727744787931">
        <ele>2619.73</ele>
        <time>2018-07-08T13:27:55Z</time>
      </trkpt>
      <trkpt lat="46.021693060174584" lon="10.466720452532172">
        <ele>2618.77</ele>
        <time>2018-07-08T13:28:04Z</time>
      </trkpt>
      <trkpt lat="46.021703705191612" lon="10.466695809736848">
        <ele>2618.29</ele>
        <time>2018-07-08T13:28:08Z</time>
      </trkpt>
      <trkpt lat="46.021733796223998" lon="10.466661443933845">
        <ele>2617.8099999999999</ele>
        <time>2018-07-08T13:28:16Z</time>
      </trkpt>
      <trkpt lat="46.021803449839354" lon="10.466641075909138">
        <ele>2617.3299999999999</ele>
        <time>2018-07-08T13:28:27Z</time>
      </trkpt>
      <trkpt lat="46.021855417639017" lon="10.46666462905705">
        <ele>2618.29</ele>
        <time>2018-07-08T13:28:36Z</time>
      </trkpt>
      <trkpt lat="46.021906128153205" lon="10.466644177213311">
        <ele>2618.77</ele>
        <time>2018-07-08T13:28:46Z</time>
      </trkpt>
      <trkpt lat="46.021948037669063" lon="10.466602267697453">
        <ele>2616.8499999999999</ele>
        <time>2018-07-08T13:28:55Z</time>
      </trkpt>
      <trkpt lat="46.022034958004951" lon="10.466591287404299">
        <ele>2616.3699999999999</ele>
        <time>2018-07-08T13:29:06Z</time>
      </trkpt>
      <trkpt lat="46.02201534435153" lon="10.466549461707473">
        <ele>2616.3699999999999</ele>
        <time>2018-07-08T13:29:22Z</time>
      </trkpt>
      <trkpt lat="46.022038478404284" lon="10.466510318219662">
        <ele>2614.4400000000001</ele>
        <time>2018-07-08T13:29:31Z</time>
      </trkpt>
      <trkpt lat="46.022083489224315" lon="10.46652247197926">
        <ele>2613</ele>
        <time>2018-07-08T13:29:38Z</time>
      </trkpt>
      <trkpt lat="46.022153310477734" lon="10.466533536091447">
        <ele>2613.48</ele>
        <time>2018-07-08T13:29:50Z</time>
      </trkpt>
      <trkpt lat="46.0221878439188" lon="10.46652683056891">
        <ele>2613.48</ele>
        <time>2018-07-08T13:30:00Z</time>
      </trkpt>
      <trkpt lat="46.022245679050684" lon="10.46654686331749">
        <ele>2613.48</ele>
        <time>2018-07-08T13:30:08Z</time>
      </trkpt>
      <trkpt lat="46.022286582738161" lon="10.466558262705803">
        <ele>2613.96</ele>
        <time>2018-07-08T13:30:19Z</time>
      </trkpt>
      <trkpt lat="46.022346680983901" lon="10.466528674587607">
        <ele>2613.96</ele>
        <time>2018-07-08T13:30:31Z</time>
      </trkpt>
      <trkpt lat="46.022361433133483" lon="10.466503193601966">
        <ele>2613</ele>
        <time>2018-07-08T13:30:41Z</time>
      </trkpt>
      <trkpt lat="46.022389093413949" lon="10.466488189995289">
        <ele>2612.04</ele>
        <time>2018-07-08T13:30:54Z</time>
      </trkpt>
      <trkpt lat="46.022436451166868" lon="10.466485759243369">
        <ele>2611.5599999999999</ele>
        <time>2018-07-08T13:31:03Z</time>
      </trkpt>
      <trkpt lat="46.022475929930806" lon="10.466473856940866">
        <ele>2611.0799999999999</ele>
        <time>2018-07-08T13:31:12Z</time>
      </trkpt>
      <trkpt lat="46.022520186379552" lon="10.466479388996959">
        <ele>2611.5599999999999</ele>
        <time>2018-07-08T13:31:21Z</time>
      </trkpt>
      <trkpt lat="46.022552624344826" lon="10.466456254944205">
        <ele>2611.5599999999999</ele>
        <time>2018-07-08T13:31:29Z</time>
      </trkpt>
      <trkpt lat="46.022600317373872" lon="10.466438652947545">
        <ele>2611.5599999999999</ele>
        <time>2018-07-08T13:31:39Z</time>
      </trkpt>
      <trkpt lat="46.022645747289062" lon="10.466419290751219">
        <ele>2610.5999999999999</ele>
        <time>2018-07-08T13:31:50Z</time>
      </trkpt>
      <trkpt lat="46.022679358720779" lon="10.466390457004309">
        <ele>2609.1599999999999</ele>
        <time>2018-07-08T13:32:00Z</time>
      </trkpt>
      <trkpt lat="46.022722190245986" lon="10.466354247182608">
        <ele>2609.1599999999999</ele>
        <time>2018-07-08T13:32:10Z</time>
      </trkpt>
      <trkpt lat="46.022779857739806" lon="10.466316025704145">
        <ele>2608.1900000000001</ele>
        <time>2018-07-08T13:32:20Z</time>
      </trkpt>
      <trkpt lat="46.022813552990556" lon="10.466280989348888">
        <ele>2607.23</ele>
        <time>2018-07-08T13:32:29Z</time>
      </trkpt>
      <trkpt lat="46.022861329838634" lon="10.466244108974934">
        <ele>2605.79</ele>
        <time>2018-07-08T13:32:39Z</time>
      </trkpt>
      <trkpt lat="46.022912291809916" lon="10.466212844476104">
        <ele>2604.3499999999999</ele>
        <time>2018-07-08T13:32:48Z</time>
      </trkpt>
      <trkpt lat="46.022963337600231" lon="10.466164313256741">
        <ele>2603.3899999999999</ele>
        <time>2018-07-08T13:32:58Z</time>
      </trkpt>
      <trkpt lat="46.023011701181531" lon="10.466146040707827">
        <ele>2603.8699999999999</ele>
        <time>2018-07-08T13:33:06Z</time>
      </trkpt>
      <trkpt lat="46.02301605977118" lon="10.466142352670431">
        <ele>2603.3899999999999</ele>
        <time>2018-07-08T13:33:07Z</time>
      </trkpt>
      <trkpt lat="46.023044306784868" lon="10.466083846986294">
        <ele>2602.4299999999998</ele>
        <time>2018-07-08T13:33:18Z</time>
      </trkpt>
      <trkpt lat="46.023092921823263" lon="10.466027101501822">
        <ele>2600.98</ele>
        <time>2018-07-08T13:33:31Z</time>
      </trkpt>
      <trkpt lat="46.023107003420591" lon="10.465971194207668">
        <ele>2598.5799999999999</ele>
        <time>2018-07-08T13:33:42Z</time>
      </trkpt>
      <trkpt lat="46.023123096674681" lon="10.465919142588973">
        <ele>2596.6599999999999</ele>
        <time>2018-07-08T13:33:53Z</time>
      </trkpt>
      <trkpt lat="46.023106165230274" lon="10.465873377397656">
        <ele>2594.7399999999998</ele>
        <time>2018-07-08T13:34:04Z</time>
      </trkpt>
      <trkpt lat="46.023116474971175" lon="10.46582467854023">
        <ele>2593.29</ele>
        <time>2018-07-08T13:34:13Z</time>
      </trkpt>
      <trkpt lat="46.023109769448638" lon="10.465768435969949">
        <ele>2591.3699999999999</ele>
        <time>2018-07-08T13:34:23Z</time>
      </trkpt>
      <trkpt lat="46.023150086402893" lon="10.465735075995326">
        <ele>2589.4499999999998</ele>
        <time>2018-07-08T13:34:32Z</time>
      </trkpt>
      <trkpt lat="46.023186799138784" lon="10.465681264176965">
        <ele>2587.5300000000002</ele>
        <time>2018-07-08T13:34:43Z</time>
      </trkpt>
      <trkpt lat="46.023244466632605" lon="10.465630972757936">
        <ele>2585.5999999999999</ele>
        <time>2018-07-08T13:34:56Z</time>
      </trkpt>
      <trkpt lat="46.0232706181705" lon="10.46558721922338">
        <ele>2585.1199999999999</ele>
        <time>2018-07-08T13:35:04Z</time>
      </trkpt>
      <trkpt lat="46.023305235430598" lon="10.465545896440744">
        <ele>2583.6799999999998</ele>
        <time>2018-07-08T13:35:16Z</time>
      </trkpt>
      <trkpt lat="46.023330548778176" lon="10.465510357171297">
        <ele>2583.1999999999998</ele>
        <time>2018-07-08T13:35:28Z</time>
      </trkpt>
      <trkpt lat="46.023371536284685" lon="10.465484205633402">
        <ele>2581.7600000000002</ele>
        <time>2018-07-08T13:35:35Z</time>
      </trkpt>
      <trkpt lat="46.023428197950125" lon="10.465464256703854">
        <ele>2581.7600000000002</ele>
        <time>2018-07-08T13:35:44Z</time>
      </trkpt>
      <trkpt lat="46.023488966748118" lon="10.465447911992669">
        <ele>2581.2800000000002</ele>
        <time>2018-07-08T13:35:55Z</time>
      </trkpt>
      <trkpt lat="46.023520901799202" lon="10.465412959456444">
        <ele>2581.2800000000002</ele>
        <time>2018-07-08T13:36:03Z</time>
      </trkpt>
      <trkpt lat="46.023544454947114" lon="10.465443637222052">
        <ele>2582.2399999999998</ele>
        <time>2018-07-08T13:36:13Z</time>
      </trkpt>
      <trkpt lat="46.023571863770485" lon="10.465456712990999">
        <ele>2583.6799999999998</ele>
        <time>2018-07-08T13:36:21Z</time>
      </trkpt>
      <trkpt lat="46.023606732487679" lon="10.465473225340247">
        <ele>2583.6799999999998</ele>
        <time>2018-07-08T13:36:31Z</time>
      </trkpt>
      <trkpt lat="46.023630369454622" lon="10.465483535081148">
        <ele>2585.1199999999999</ele>
        <time>2018-07-08T13:36:41Z</time>
      </trkpt>
      <trkpt lat="46.023650150746107" lon="10.465471716597676">
        <ele>2586.0799999999999</ele>
        <time>2018-07-08T13:36:51Z</time>
      </trkpt>
      <trkpt lat="46.023675631731749" lon="10.465481774881482">
        <ele>2587.04</ele>
        <time>2018-07-08T13:37:02Z</time>
      </trkpt>
      <trkpt lat="46.023672446608543" lon="10.465462328866124">
        <ele>2586.5599999999999</ele>
        <time>2018-07-08T13:37:14Z</time>
      </trkpt>
      <trkpt lat="46.023716619238257" lon="10.465407092124224">
        <ele>2585.5999999999999</ele>
        <time>2018-07-08T13:37:25Z</time>
      </trkpt>
      <trkpt lat="46.023785853758454" lon="10.465447660535574">
        <ele>2586.5599999999999</ele>
        <time>2018-07-08T13:37:36Z</time>
      </trkpt>
      <trkpt lat="46.023812759667635" lon="10.465466938912868">
        <ele>2587.5300000000002</ele>
        <time>2018-07-08T13:37:46Z</time>
      </trkpt>
      <trkpt lat="46.023836396634579" lon="10.465446822345257">
        <ele>2587.04</ele>
        <time>2018-07-08T13:37:53Z</time>
      </trkpt>
      <trkpt lat="46.023873025551438" lon="10.465415054932237">
        <ele>2587.04</ele>
        <time>2018-07-08T13:38:03Z</time>
      </trkpt>
      <trkpt lat="46.023900015279651" lon="10.465348334982991">
        <ele>2585.5999999999999</ele>
        <time>2018-07-08T13:38:11Z</time>
      </trkpt>
      <trkpt lat="46.023925999179482" lon="10.465317154303193">
        <ele>2585.5999999999999</ele>
        <time>2018-07-08T13:38:16Z</time>
      </trkpt>
      <trkpt lat="46.023965310305357" lon="10.465288823470473">
        <ele>2585.1199999999999</ele>
        <time>2018-07-08T13:38:26Z</time>
      </trkpt>
      <trkpt lat="46.023981319740415" lon="10.465235263109207">
        <ele>2584.6399999999999</ele>
        <time>2018-07-08T13:38:38Z</time>
      </trkpt>
      <trkpt lat="46.023987606167793" lon="10.465183043852448">
        <ele>2584.1599999999999</ele>
        <time>2018-07-08T13:38:47Z</time>
      </trkpt>
      <trkpt lat="46.024050638079643" lon="10.465135518461466">
        <ele>2582.2399999999998</ele>
        <time>2018-07-08T13:38:57Z</time>
      </trkpt>
      <trkpt lat="46.024170247837901" lon="10.465121855959296">
        <ele>2582.2399999999998</ele>
        <time>2018-07-08T13:39:09Z</time>
      </trkpt>
      <trkpt lat="46.024218359962106" lon="10.465122945606709">
        <ele>2582.7199999999998</ele>
        <time>2018-07-08T13:39:14Z</time>
      </trkpt>
      <trkpt lat="46.024342998862267" lon="10.465092770755291">
        <ele>2582.7199999999998</ele>
        <time>2018-07-08T13:39:27Z</time>
      </trkpt>
      <trkpt lat="46.024393793195486" lon="10.465097296983004">
        <ele>2582.7199999999998</ele>
        <time>2018-07-08T13:39:38Z</time>
      </trkpt>
      <trkpt lat="46.024383567273617" lon="10.465096961706877">
        <ele>2582.2399999999998</ele>
        <time>2018-07-08T13:39:49Z</time>
      </trkpt>
      <trkpt lat="46.024373844265938" lon="10.465107019990683">
        <ele>2583.1999999999998</ele>
        <time>2018-07-08T13:40:01Z</time>
      </trkpt>
      <trkpt lat="46.024404019117355" lon="10.465124370530248">
        <ele>2583.1999999999998</ele>
        <time>2018-07-08T13:40:12Z</time>
      </trkpt>
      <trkpt lat="46.024392703548074" lon="10.46511322259903">
        <ele>2584.1599999999999</ele>
        <time>2018-07-08T13:40:27Z</time>
      </trkpt>
      <trkpt lat="46.024354230612516" lon="10.465108109638095">
        <ele>2582.7199999999998</ele>
        <time>2018-07-08T13:40:40Z</time>
      </trkpt>
      <trkpt lat="46.024279966950417" lon="10.465153204277158">
        <ele>2582.7199999999998</ele>
        <time>2018-07-08T13:40:49Z</time>
      </trkpt>
      <trkpt lat="46.02416287176311" lon="10.465168040245771">
        <ele>2582.7199999999998</ele>
        <time>2018-07-08T13:41:01Z</time>
      </trkpt>
      <trkpt lat="46.02406756952405" lon="10.465148175135255">
        <ele>2582.2399999999998</ele>
        <time>2018-07-08T13:41:12Z</time>
      </trkpt>
      <trkpt lat="46.024022055789828" lon="10.465138033032417">
        <ele>2581.7600000000002</ele>
        <time>2018-07-08T13:41:21Z</time>
      </trkpt>
      <trkpt lat="46.02400696836412" lon="10.465102409943938">
        <ele>2580.3200000000002</ele>
        <time>2018-07-08T13:41:31Z</time>
      </trkpt>
      <trkpt lat="46.024016104638577" lon="10.465100398287177">
        <ele>2579.3499999999999</ele>
        <time>2018-07-08T13:41:45Z</time>
      </trkpt>
      <trkpt lat="46.024019960314035" lon="10.465129064396024">
        <ele>2579.8400000000001</ele>
        <time>2018-07-08T13:41:54Z</time>
      </trkpt>
      <trkpt lat="46.024034461006522" lon="10.465107858181">
        <ele>2579.3499999999999</ele>
        <time>2018-07-08T13:42:18Z</time>
      </trkpt>
      <trkpt lat="46.02402800694108" lon="10.465095788240433">
        <ele>2579.3499999999999</ele>
        <time>2018-07-08T13:42:38Z</time>
      </trkpt>
      <trkpt lat="46.024034628644586" lon="10.465098470449448">
        <ele>2579.3499999999999</ele>
        <time>2018-07-08T13:42:52Z</time>
      </trkpt>
      <trkpt lat="46.024033622816205" lon="10.465108109638095">
        <ele>2579.3499999999999</ele>
        <time>2018-07-08T13:43:15Z</time>
      </trkpt>
      <trkpt lat="46.024042256176472" lon="10.465101152658463">
        <ele>2579.8400000000001</ele>
        <time>2018-07-08T13:43:40Z</time>
      </trkpt>
      <trkpt lat="46.024045525118709" lon="10.465105092152953">
        <ele>2579.3499999999999</ele>
        <time>2018-07-08T13:44:01Z</time>
      </trkpt>
      <trkpt lat="46.024029767140746" lon="10.465100230649114">
        <ele>2579.3499999999999</ele>
        <time>2018-07-08T13:44:21Z</time>
      </trkpt>
      <trkpt lat="46.024041082710028" lon="10.46509662643075">
        <ele>2579.3499999999999</ele>
        <time>2018-07-08T13:44:47Z</time>
      </trkpt>
      <trkpt lat="46.024042591452599" lon="10.465097548440099">
        <ele>2579.8400000000001</ele>
        <time>2018-07-08T13:45:00Z</time>
      </trkpt>
    </trkseg>
  </trk>

  <trk>
    <name>3adamello2018-07-09</name>
    <extensions>
      <gpxx:TrackExtension>
        <gpxx:DisplayColor>Yellow</gpxx:DisplayColor>
      </gpxx:TrackExtension>
      <gpxtrkx:TrackStatsExtension xmlns:gpxtrkx="http://www.garmin.com/xmlschemas/TrackStatsExtension/v1">
        <gpxtrkx:Distance>15006</gpxtrkx:Distance>
        <gpxtrkx:TotalElapsedTime>32840</gpxtrkx:TotalElapsedTime>
        <gpxtrkx:MovingTime>20308</gpxtrkx:MovingTime>
        <gpxtrkx:StoppedTime>12201</gpxtrkx:StoppedTime>
        <gpxtrkx:MovingSpeed>1</gpxtrkx:MovingSpeed>
        <gpxtrkx:MaxSpeed>4</gpxtrkx:MaxSpeed>
        <gpxtrkx:MaxElevation>2597</gpxtrkx:MaxElevation>
        <gpxtrkx:MinElevation>1994</gpxtrkx:MinElevation>
        <gpxtrkx:Ascent>614</gpxtrkx:Ascent>
        <gpxtrkx:Descent>1172</gpxtrkx:Descent>
        <gpxtrkx:AvgAscentRate>0</gpxtrkx:AvgAscentRate>
        <gpxtrkx:MaxAscentRate>0</gpxtrkx:MaxAscentRate>
        <gpxtrkx:AvgDescentRate>0</gpxtrkx:AvgDescentRate>
        <gpxtrkx:MaxDescentRate>-0</gpxtrkx:MaxDescentRate>
      </gpxtrkx:TrackStatsExtension>
    </extensions>
    <trkseg>
      <trkpt lat="46.024100091308355" lon="10.465097380802035">
        <ele>2584.1599999999999</ele>
        <time>2018-07-09T06:08:24Z</time>
      </trkpt>
      <trkpt lat="46.024103611707687" lon="10.465095955878496">
        <ele>2584.1599999999999</ele>
        <time>2018-07-09T06:08:25Z</time>
      </trkpt>
      <trkpt lat="46.02407980710268" lon="10.465071648359299">
        <ele>2583.6799999999998</ele>
        <time>2018-07-09T06:08:46Z</time>
      </trkpt>
      <trkpt lat="46.024048877879977" lon="10.465070810168982">
        <ele>2584.1599999999999</ele>
        <time>2018-07-09T06:09:04Z</time>
      </trkpt>
      <trkpt lat="46.024055751040578" lon="10.465079359710217">
        <ele>2583.6799999999998</ele>
        <time>2018-07-09T06:09:21Z</time>
      </trkpt>
      <trkpt lat="46.024078130722046" lon="10.465066870674491">
        <ele>2584.1599999999999</ele>
        <time>2018-07-09T06:09:40Z</time>
      </trkpt>
      <trkpt lat="46.024064216762781" lon="10.465052537620068">
        <ele>2583.6799999999998</ele>
        <time>2018-07-09T06:09:53Z</time>
      </trkpt>
      <trkpt lat="46.02410277351737" lon="10.465040132403374">
        <ele>2583.6799999999998</ele>
        <time>2018-07-09T06:10:16Z</time>
      </trkpt>
      <trkpt lat="46.024084417149425" lon="10.465037534013391">
        <ele>2584.1599999999999</ele>
        <time>2018-07-09T06:10:32Z</time>
      </trkpt>
      <trkpt lat="46.024118196219206" lon="10.465059913694859">
        <ele>2585.1199999999999</ele>
        <time>2018-07-09T06:10:45Z</time>
      </trkpt>
      <trkpt lat="46.024190196767449" lon="10.465104673057795">
        <ele>2585.1199999999999</ele>
        <time>2018-07-09T06:10:56Z</time>
      </trkpt>
      <trkpt lat="46.024299412965775" lon="10.465078018605709">
        <ele>2585.5999999999999</ele>
        <time>2018-07-09T06:11:09Z</time>
      </trkpt>
      <trkpt lat="46.024396978318691" lon="10.465016160160303">
        <ele>2586.0799999999999</ele>
        <time>2018-07-09T06:11:23Z</time>
      </trkpt>
      <trkpt lat="46.024419190362096" lon="10.465045999735594">
        <ele>2586.0799999999999</ele>
        <time>2018-07-09T06:11:35Z</time>
      </trkpt>
      <trkpt lat="46.024444587528706" lon="10.465016579255462">
        <ele>2586.0799999999999</ele>
        <time>2018-07-09T06:11:44Z</time>
      </trkpt>
      <trkpt lat="46.024414245039225" lon="10.465012388303876">
        <ele>2586.0799999999999</ele>
        <time>2018-07-09T06:11:59Z</time>
      </trkpt>
      <trkpt lat="46.024411814287305" lon="10.465025044977665">
        <ele>2586.0799999999999</ele>
        <time>2018-07-09T06:12:14Z</time>
      </trkpt>
      <trkpt lat="46.024431511759758" lon="10.465035606175661">
        <ele>2587.5300000000002</ele>
        <time>2018-07-09T06:12:43Z</time>
      </trkpt>
      <trkpt lat="46.024426314979792" lon="10.465043066069484">
        <ele>2586.0799999999999</ele>
        <time>2018-07-09T06:13:07Z</time>
      </trkpt>
      <trkpt lat="46.024427153170109" lon="10.465049687772989">
        <ele>2585.5999999999999</ele>
        <time>2018-07-09T06:13:37Z</time>
      </trkpt>
      <trkpt lat="46.024431008845568" lon="10.465038204565644">
        <ele>2586.0799999999999</ele>
        <time>2018-07-09T06:13:55Z</time>
      </trkpt>
      <trkpt lat="46.024411059916019" lon="10.465030325576663">
        <ele>2586.0799999999999</ele>
        <time>2018-07-09T06:14:22Z</time>
      </trkpt>
      <trkpt lat="46.024422710761428" lon="10.465017082169652">
        <ele>2586.0799999999999</ele>
        <time>2018-07-09T06:14:45Z</time>
      </trkpt>
      <trkpt lat="46.024434193968773" lon="10.465035941451788">
        <ele>2586.0799999999999</ele>
        <time>2018-07-09T06:15:16Z</time>
      </trkpt>
      <trkpt lat="46.02442673407495" lon="10.465010795742273">
        <ele>2585.5999999999999</ele>
        <time>2018-07-09T06:15:47Z</time>
      </trkpt>
      <trkpt lat="46.024444838985801" lon="10.465031415224075">
        <ele>2586.0799999999999</ele>
        <time>2018-07-09T06:16:16Z</time>
      </trkpt>
      <trkpt lat="46.024422291666269" lon="10.465048430487514">
        <ele>2586.0799999999999</ele>
        <time>2018-07-09T06:16:48Z</time>
      </trkpt>
      <trkpt lat="46.024433188140392" lon="10.46503309160471">
        <ele>2585.1199999999999</ele>
        <time>2018-07-09T06:17:16Z</time>
      </trkpt>
      <trkpt lat="46.024427823722363" lon="10.465037701651454">
        <ele>2585.1199999999999</ele>
        <time>2018-07-09T06:17:39Z</time>
      </trkpt>
      <trkpt lat="46.024439642205834" lon="10.465047508478165">
        <ele>2585.1199999999999</ele>
        <time>2018-07-09T06:17:59Z</time>
      </trkpt>
      <trkpt lat="46.024431930854917" lon="10.465038204565644">
        <ele>2585.5999999999999</ele>
        <time>2018-07-09T06:18:28Z</time>
      </trkpt>
      <trkpt lat="46.024430505931377" lon="10.465011801570654">
        <ele>2585.5999999999999</ele>
        <time>2018-07-09T06:18:49Z</time>
      </trkpt>
      <trkpt lat="46.024433271959424" lon="10.465024374425411">
        <ele>2585.5999999999999</ele>
        <time>2018-07-09T06:19:17Z</time>
      </trkpt>
      <trkpt lat="46.024438804015517" lon="10.465004174038768">
        <ele>2585.5999999999999</ele>
        <time>2018-07-09T06:19:38Z</time>
      </trkpt>
      <trkpt lat="46.024438887834549" lon="10.465012807399035">
        <ele>2585.5999999999999</ele>
        <time>2018-07-09T06:19:54Z</time>
      </trkpt>
      <trkpt lat="46.024431511759758" lon="10.465009454637766">
        <ele>2585.5999999999999</ele>
        <time>2018-07-09T06:20:12Z</time>
      </trkpt>
      <trkpt lat="46.024423548951745" lon="10.465016914531589">
        <ele>2581.7600000000002</ele>
        <time>2018-07-09T06:20:21Z</time>
      </trkpt>
      <trkpt lat="46.024424973875284" lon="10.465016914531589">
        <ele>2584.6399999999999</ele>
        <time>2018-07-09T06:20:22Z</time>
      </trkpt>
      <trkpt lat="46.024437295272946" lon="10.46501305885613">
        <ele>2586.0799999999999</ele>
        <time>2018-07-09T06:20:32Z</time>
      </trkpt>
      <trkpt lat="46.024442743510008" lon="10.465001994743943">
        <ele>2586.0799999999999</ele>
        <time>2018-07-09T06:20:40Z</time>
      </trkpt>
      <trkpt lat="46.024444252252579" lon="10.464984392747283">
        <ele>2586.5599999999999</ele>
        <time>2018-07-09T06:20:53Z</time>
      </trkpt>
      <trkpt lat="46.024447605013847" lon="10.464972322806716">
        <ele>2586.5599999999999</ele>
        <time>2018-07-09T06:21:07Z</time>
      </trkpt>
      <trkpt lat="46.024443665519357" lon="10.464968970045447">
        <ele>2586.5599999999999</ele>
        <time>2018-07-09T06:21:21Z</time>
      </trkpt>
      <trkpt lat="46.024446431547403" lon="10.464981459081173">
        <ele>2586.0799999999999</ele>
        <time>2018-07-09T06:21:33Z</time>
      </trkpt>
      <trkpt lat="46.024460094049573" lon="10.464966036379337">
        <ele>2586.5599999999999</ele>
        <time>2018-07-09T06:21:46Z</time>
      </trkpt>
      <trkpt lat="46.024474343284965" lon="10.464904764667153">
        <ele>2588.0100000000002</ele>
        <time>2018-07-09T06:21:55Z</time>
      </trkpt>
      <trkpt lat="46.024487083777785" lon="10.464867632836103">
        <ele>2588.9699999999998</ele>
        <time>2018-07-09T06:22:07Z</time>
      </trkpt>
      <trkpt lat="46.024491861462593" lon="10.464855814352632">
        <ele>2588.9699999999998</ele>
        <time>2018-07-09T06:22:24Z</time>
      </trkpt>
      <trkpt lat="46.024526646360755" lon="10.464814826846123">
        <ele>2590.8899999999999</ele>
        <time>2018-07-09T06:22:34Z</time>
      </trkpt>
      <trkpt lat="46.024514241144061" lon="10.464697396382689">
        <ele>2591.3699999999999</ele>
        <time>2018-07-09T06:22:47Z</time>
      </trkpt>
      <trkpt lat="46.024547098204494" lon="10.464762020856142">
        <ele>2591.8499999999999</ele>
        <time>2018-07-09T06:23:02Z</time>
      </trkpt>
      <trkpt lat="46.024575345218182" lon="10.464800409972668">
        <ele>2591.8499999999999</ele>
        <time>2018-07-09T06:23:11Z</time>
      </trkpt>
      <trkpt lat="46.024652207270265" lon="10.464837541803718">
        <ele>2593.77</ele>
        <time>2018-07-09T06:23:22Z</time>
      </trkpt>
      <trkpt lat="46.024724962189794" lon="10.464857826009393">
        <ele>2594.25</ele>
        <time>2018-07-09T06:23:33Z</time>
      </trkpt>
      <trkpt lat="46.024766536429524" lon="10.464863609522581">
        <ele>2593.77</ele>
        <time>2018-07-09T06:23:40Z</time>
      </trkpt>
      <trkpt lat="46.024869801476598" lon="10.46484692953527">
        <ele>2592.8099999999999</ele>
        <time>2018-07-09T06:23:52Z</time>
      </trkpt>
      <trkpt lat="46.024940796196461" lon="10.464846594259143">
        <ele>2593.77</ele>
        <time>2018-07-09T06:24:02Z</time>
      </trkpt>
      <trkpt lat="46.025017825886607" lon="10.464854808524251">
        <ele>2592.8099999999999</ele>
        <time>2018-07-09T06:24:13Z</time>
      </trkpt>
      <trkpt lat="46.025089826434851" lon="10.464864950627089">
        <ele>2593.29</ele>
        <time>2018-07-09T06:24:23Z</time>
      </trkpt>
      <trkpt lat="46.025132909417152" lon="10.464869560673833">
        <ele>2593.77</ele>
        <time>2018-07-09T06:24:28Z</time>
      </trkpt>
      <trkpt lat="46.025215722620487" lon="10.464834608137608">
        <ele>2593.77</ele>
        <time>2018-07-09T06:24:39Z</time>
      </trkpt>
      <trkpt lat="46.025281939655542" lon="10.464799320325255">
        <ele>2594.25</ele>
        <time>2018-07-09T06:24:51Z</time>
      </trkpt>
      <trkpt lat="46.025329045951366" lon="10.464755482971668">
        <ele>2595.6999999999998</ele>
        <time>2018-07-09T06:25:03Z</time>
      </trkpt>
      <trkpt lat="46.02538101375103" lon="10.464744418859482">
        <ele>2596.1799999999998</ele>
        <time>2018-07-09T06:25:10Z</time>
      </trkpt>
      <trkpt lat="46.025454523041844" lon="10.464731762185693">
        <ele>2596.6599999999999</ele>
        <time>2018-07-09T06:25:21Z</time>
      </trkpt>
      <trkpt lat="46.02550070732832" lon="10.464744502678514">
        <ele>2596.1799999999998</ele>
        <time>2018-07-09T06:25:31Z</time>
      </trkpt>
      <trkpt lat="46.025539012625813" lon="10.464741569012403">
        <ele>2595.6999999999998</ele>
        <time>2018-07-09T06:25:41Z</time>
      </trkpt>
      <trkpt lat="46.025560218840837" lon="10.464790351688862">
        <ele>2595.2199999999998</ele>
        <time>2018-07-09T06:25:53Z</time>
      </trkpt>
      <trkpt lat="46.025542113929987" lon="10.464817173779011">
        <ele>2594.7399999999998</ele>
        <time>2018-07-09T06:26:03Z</time>
      </trkpt>
      <trkpt lat="46.025525601580739" lon="10.464878613129258">
        <ele>2593.29</ele>
        <time>2018-07-09T06:26:13Z</time>
      </trkpt>
      <trkpt lat="46.025553932413459" lon="10.464898310601711">
        <ele>2591.3699999999999</ele>
        <time>2018-07-09T06:26:22Z</time>
      </trkpt>
      <trkpt lat="46.025592489168048" lon="10.464879116043448">
        <ele>2590.4099999999999</ele>
        <time>2018-07-09T06:26:34Z</time>
      </trkpt>
      <trkpt lat="46.025650156661868" lon="10.464920606464148">
        <ele>2588.9699999999998</ele>
        <time>2018-07-09T06:26:44Z</time>
      </trkpt>
      <trkpt lat="46.025683768093586" lon="10.464975256472826">
        <ele>2587.04</ele>
        <time>2018-07-09T06:26:55Z</time>
      </trkpt>
      <trkpt lat="46.025681672617793" lon="10.465012807399035">
        <ele>2586.0799999999999</ele>
        <time>2018-07-09T06:27:04Z</time>
      </trkpt>
      <trkpt lat="46.025683600455523" lon="10.46501699835062">
        <ele>2586.0799999999999</ele>
        <time>2018-07-09T06:27:05Z</time>
      </trkpt>
      <trkpt lat="46.025711428374052" lon="10.465096542611718">
        <ele>2584.6399999999999</ele>
        <time>2018-07-09T06:27:15Z</time>
      </trkpt>
      <trkpt lat="46.025756690651178" lon="10.465135937556624">
        <ele>2582.2399999999998</ele>
        <time>2018-07-09T06:27:26Z</time>
      </trkpt>
      <trkpt lat="46.025823326781392" lon="10.465169632807374">
        <ele>2579.8400000000001</ele>
        <time>2018-07-09T06:27:36Z</time>
      </trkpt>
      <trkpt lat="46.025892477482557" lon="10.465208692476153">
        <ele>2578.8699999999999</ele>
        <time>2018-07-09T06:27:46Z</time>
      </trkpt>
      <trkpt lat="46.025951569899917" lon="10.46524372883141">
        <ele>2577.9099999999999</ele>
        <time>2018-07-09T06:27:56Z</time>
      </trkpt>
      <trkpt lat="46.025956431403756" lon="10.465267030522227">
        <ele>2577.9099999999999</ele>
        <time>2018-07-09T06:28:07Z</time>
      </trkpt>
      <trkpt lat="46.026002028957009" lon="10.465307179838419">
        <ele>2576.9499999999998</ele>
        <time>2018-07-09T06:28:15Z</time>
      </trkpt>
      <trkpt lat="46.026025246828794" lon="10.465332409366965">
        <ele>2575.5100000000002</ele>
        <time>2018-07-09T06:28:18Z</time>
      </trkpt>
      <trkpt lat="46.026068245992064" lon="10.465366523712873">
        <ele>2575.0300000000002</ele>
        <time>2018-07-09T06:28:23Z</time>
      </trkpt>
      <trkpt lat="46.026109233498573" lon="10.465379348024726">
        <ele>2575.0300000000002</ele>
        <time>2018-07-09T06:28:27Z</time>
      </trkpt>
      <trkpt lat="46.026167487725616" lon="10.465399883687496">
        <ele>2574.5500000000002</ele>
        <time>2018-07-09T06:28:38Z</time>
      </trkpt>
      <trkpt lat="46.026198416948318" lon="10.465462915599346">
        <ele>2573.5900000000001</ele>
        <time>2018-07-09T06:28:48Z</time>
      </trkpt>
      <trkpt lat="46.026183078065515" lon="10.465454282239079">
        <ele>2573.1100000000001</ele>
        <time>2018-07-09T06:29:02Z</time>
      </trkpt>
      <trkpt lat="46.026199338957667" lon="10.46546995639801">
        <ele>2572.6300000000001</ele>
        <time>2018-07-09T06:29:04Z</time>
      </trkpt>
      <trkpt lat="46.026248624548316" lon="10.465494431555271">
        <ele>2571.1799999999998</ele>
        <time>2018-07-09T06:29:08Z</time>
      </trkpt>
      <trkpt lat="46.026341496035457" lon="10.465550255030394">
        <ele>2569.7399999999998</ele>
        <time>2018-07-09T06:29:19Z</time>
      </trkpt>
      <trkpt lat="46.02637100033462" lon="10.465567857027054">
        <ele>2569.2600000000002</ele>
        <time>2018-07-09T06:29:27Z</time>
      </trkpt>
      <trkpt lat="46.026426656171679" lon="10.465605743229389">
        <ele>2568.7800000000002</ele>
        <time>2018-07-09T06:29:38Z</time>
      </trkpt>
      <trkpt lat="46.026506200432777" lon="10.465681096538901">
        <ele>2566.8600000000001</ele>
        <time>2018-07-09T06:29:48Z</time>
      </trkpt>
      <trkpt lat="46.026554480195045" lon="10.465716049075127">
        <ele>2565.9000000000001</ele>
        <time>2018-07-09T06:29:54Z</time>
      </trkpt>
      <trkpt lat="46.026623463258147" lon="10.465726191177964">
        <ele>2564.4499999999998</ele>
        <time>2018-07-09T06:30:03Z</time>
      </trkpt>
      <trkpt lat="46.026680711656809" lon="10.465789726004004">
        <ele>2563.0100000000002</ele>
        <time>2018-07-09T06:30:12Z</time>
      </trkpt>
      <trkpt lat="46.02671205997467" lon="10.465775560587645">
        <ele>2562.5300000000002</ele>
        <time>2018-07-09T06:30:17Z</time>
      </trkpt>
      <trkpt lat="46.026802165433764" lon="10.465770279988647">
        <ele>2562.5300000000002</ele>
        <time>2018-07-09T06:30:28Z</time>
      </trkpt>
      <trkpt lat="46.026892522349954" lon="10.465867761522532">
        <ele>2561.5700000000002</ele>
        <time>2018-07-09T06:30:39Z</time>
      </trkpt>
      <trkpt lat="46.026885733008385" lon="10.465855356305838">
        <ele>2562.0500000000002</ele>
        <time>2018-07-09T06:30:56Z</time>
      </trkpt>
      <trkpt lat="46.026896713301539" lon="10.465850662440062">
        <ele>2561.5700000000002</ele>
        <time>2018-07-09T06:31:13Z</time>
      </trkpt>
      <trkpt lat="46.026926469057798" lon="10.465861139819026">
        <ele>2560.1300000000001</ele>
        <time>2018-07-09T06:31:17Z</time>
      </trkpt>
      <trkpt lat="46.026968043297529" lon="10.465954598039389">
        <ele>2556.7600000000002</ele>
        <time>2018-07-09T06:31:27Z</time>
      </trkpt>
      <trkpt lat="46.02699302136898" lon="10.466028274968266">
        <ele>2555.8000000000002</ele>
        <time>2018-07-09T06:31:37Z</time>
      </trkpt>
      <trkpt lat="46.02701598778367" lon="10.466070771217346">
        <ele>2554.8400000000001</ele>
        <time>2018-07-09T06:31:46Z</time>
      </trkpt>
      <trkpt lat="46.027017747983336" lon="10.466074543073773">
        <ele>2554.8400000000001</ele>
        <time>2018-07-09T06:31:47Z</time>
      </trkpt>
      <trkpt lat="46.027062339708209" lon="10.466131707653403">
        <ele>2552.4400000000001</ele>
        <time>2018-07-09T06:31:57Z</time>
      </trkpt>
      <trkpt lat="46.02708488702774" lon="10.466172862797976">
        <ele>2550.5100000000002</ele>
        <time>2018-07-09T06:32:06Z</time>
      </trkpt>
      <trkpt lat="46.02710148319602" lon="10.466270344331861">
        <ele>2549.0700000000002</ele>
        <time>2018-07-09T06:32:17Z</time>
      </trkpt>
      <trkpt lat="46.027121935039759" lon="10.466316947713494">
        <ele>2548.1100000000001</ele>
        <time>2018-07-09T06:32:26Z</time>
      </trkpt>
      <trkpt lat="46.027147583663464" lon="10.46635483391583">
        <ele>2546.6700000000001</ele>
        <time>2018-07-09T06:32:36Z</time>
      </trkpt>
      <trkpt lat="46.02716501802206" lon="10.466374615207314">
        <ele>2545.23</ele>
        <time>2018-07-09T06:32:41Z</time>
      </trkpt>
      <trkpt lat="46.027209609746933" lon="10.466429013758898">
        <ele>2543.3099999999999</ele>
        <time>2018-07-09T06:32:54Z</time>
      </trkpt>
      <trkpt lat="46.027214387431741" lon="10.466444352641702">
        <ele>2543.3099999999999</ele>
        <time>2018-07-09T06:32:56Z</time>
      </trkpt>
      <trkpt lat="46.027217237278819" lon="10.466475449502468">
        <ele>2541.8600000000001</ele>
        <time>2018-07-09T06:32:59Z</time>
      </trkpt>
      <trkpt lat="46.0271923430264" lon="10.466580474749207">
        <ele>2540.4200000000001</ele>
        <time>2018-07-09T06:33:09Z</time>
      </trkpt>
      <trkpt lat="46.027191001921892" lon="10.466637052595615">
        <ele>2539.46</ele>
        <time>2018-07-09T06:33:14Z</time>
      </trkpt>
      <trkpt lat="46.027149260044098" lon="10.466772001236677">
        <ele>2537.54</ele>
        <time>2018-07-09T06:33:26Z</time>
      </trkpt>
      <trkpt lat="46.027155797928572" lon="10.466875350102782">
        <ele>2536.5799999999999</ele>
        <time>2018-07-09T06:33:37Z</time>
      </trkpt>
      <trkpt lat="46.027165185660124" lon="10.466945338994265">
        <ele>2534.6500000000001</ele>
        <time>2018-07-09T06:33:48Z</time>
      </trkpt>
      <trkpt lat="46.027198294177651" lon="10.466999737545848">
        <ele>2532.73</ele>
        <time>2018-07-09T06:33:59Z</time>
      </trkpt>
      <trkpt lat="46.027228636667132" lon="10.467015746980906">
        <ele>2531.77</ele>
        <time>2018-07-09T06:34:04Z</time>
      </trkpt>
      <trkpt lat="46.027260320261121" lon="10.46710342168808">
        <ele>2531.29</ele>
        <time>2018-07-09T06:34:13Z</time>
      </trkpt>
      <trkpt lat="46.027259146794677" lon="10.467111887410283">
        <ele>2531.29</ele>
        <time>2018-07-09T06:34:14Z</time>
      </trkpt>
      <trkpt lat="46.027306588366628" lon="10.467211380600929">
        <ele>2531.77</ele>
        <time>2018-07-09T06:34:25Z</time>
      </trkpt>
      <trkpt lat="46.027324693277478" lon="10.467277513816953">
        <ele>2531.77</ele>
        <time>2018-07-09T06:34:36Z</time>
      </trkpt>
      <trkpt lat="46.027346402406693" lon="10.467335684224963">
        <ele>2530.8099999999999</ele>
        <time>2018-07-09T06:34:45Z</time>
      </trkpt>
      <trkpt lat="46.027372134849429" lon="10.467388741672039">
        <ele>2529.3699999999999</ele>
        <time>2018-07-09T06:34:55Z</time>
      </trkpt>
      <trkpt lat="46.027386635541916" lon="10.467411205172539">
        <ele>2528.4000000000001</ele>
        <time>2018-07-09T06:34:59Z</time>
      </trkpt>
      <trkpt lat="46.027398454025388" lon="10.467480607330799">
        <ele>2526.96</ele>
        <time>2018-07-09T06:35:08Z</time>
      </trkpt>
      <trkpt lat="46.027446398511529" lon="10.467559648677707">
        <ele>2524.5599999999999</ele>
        <time>2018-07-09T06:35:20Z</time>
      </trkpt>
      <trkpt lat="46.027490571141243" lon="10.467652352526784">
        <ele>2522.6399999999999</ele>
        <time>2018-07-09T06:35:32Z</time>
      </trkpt>
      <trkpt lat="46.027525858953595" lon="10.467781685292721">
        <ele>2522.6399999999999</ele>
        <time>2018-07-09T06:35:43Z</time>
      </trkpt>
      <trkpt lat="46.027505993843079" lon="10.467860978096724">
        <ele>2524.0799999999999</ele>
        <time>2018-07-09T06:35:52Z</time>
      </trkpt>
      <trkpt lat="46.027523595839739" lon="10.467942031100392">
        <ele>2522.6399999999999</ele>
        <time>2018-07-09T06:36:01Z</time>
      </trkpt>
      <trkpt lat="46.027541365474463" lon="10.467955190688372">
        <ele>2522.6399999999999</ele>
        <time>2018-07-09T06:36:11Z</time>
      </trkpt>
      <trkpt lat="46.027572881430387" lon="10.467994753271341">
        <ele>2521.6799999999998</ele>
        <time>2018-07-09T06:36:21Z</time>
      </trkpt>
      <trkpt lat="46.027586460113525" lon="10.467966925352812">
        <ele>2521.1900000000001</ele>
        <time>2018-07-09T06:36:30Z</time>
      </trkpt>
      <trkpt lat="46.027625938877463" lon="10.467983186244965">
        <ele>2518.3099999999999</ele>
        <time>2018-07-09T06:36:42Z</time>
      </trkpt>
      <trkpt lat="46.027660807594657" lon="10.467980839312077">
        <ele>2517.3499999999999</ele>
        <time>2018-07-09T06:36:53Z</time>
      </trkpt>
      <trkpt lat="46.027695424854755" lon="10.468056360259652">
        <ele>2514.9499999999998</ele>
        <time>2018-07-09T06:37:04Z</time>
      </trkpt>
      <trkpt lat="46.02769760414958" lon="10.468069100752473">
        <ele>2514.9499999999998</ele>
        <time>2018-07-09T06:37:06Z</time>
      </trkpt>
      <trkpt lat="46.027720654383302" lon="10.46811587177217">
        <ele>2513.5</ele>
        <time>2018-07-09T06:37:10Z</time>
      </trkpt>
      <trkpt lat="46.027723252773285" lon="10.468175383284688">
        <ele>2513.02</ele>
        <time>2018-07-09T06:37:16Z</time>
      </trkpt>
      <trkpt lat="46.027736496180296" lon="10.468301614746451">
        <ele>2513.5</ele>
        <time>2018-07-09T06:37:26Z</time>
      </trkpt>
      <trkpt lat="46.027735909447074" lon="10.468312678858638">
        <ele>2513.02</ele>
        <time>2018-07-09T06:37:27Z</time>
      </trkpt>
      <trkpt lat="46.027743201702833" lon="10.468436144292355">
        <ele>2512.54</ele>
        <time>2018-07-09T06:37:38Z</time>
      </trkpt>
      <trkpt lat="46.027800869196653" lon="10.468479562550783">
        <ele>2512.54</ele>
        <time>2018-07-09T06:37:48Z</time>
      </trkpt>
      <trkpt lat="46.027827523648739" lon="10.468509150668979">
        <ele>2511.0999999999999</ele>
        <time>2018-07-09T06:37:57Z</time>
      </trkpt>
      <trkpt lat="46.027821823954582" lon="10.468528429046273">
        <ele>2513.02</ele>
        <time>2018-07-09T06:38:16Z</time>
      </trkpt>
      <trkpt lat="46.027850238606334" lon="10.468569751828909">
        <ele>2512.0599999999999</ele>
        <time>2018-07-09T06:38:25Z</time>
      </trkpt>
      <trkpt lat="46.027871696278453" lon="10.468618283048272">
        <ele>2510.6199999999999</ele>
        <time>2018-07-09T06:38:29Z</time>
      </trkpt>
      <trkpt lat="46.027899775654078" lon="10.468677626922727">
        <ele>2510.1399999999999</ele>
        <time>2018-07-09T06:38:38Z</time>
      </trkpt>
      <trkpt lat="46.027949815616012" lon="10.468821544200182">
        <ele>2508.2199999999998</ele>
        <time>2018-07-09T06:38:50Z</time>
      </trkpt>
      <trkpt lat="46.027939422056079" lon="10.468872589990497">
        <ele>2508.6999999999998</ele>
        <time>2018-07-09T06:38:55Z</time>
      </trkpt>
      <trkpt lat="46.027920981869102" lon="10.468916175886989">
        <ele>2509.1799999999998</ele>
        <time>2018-07-09T06:38:59Z</time>
      </trkpt>
      <trkpt lat="46.027946462854743" lon="10.469018602743745">
        <ele>2508.6999999999998</ele>
        <time>2018-07-09T06:39:11Z</time>
      </trkpt>
      <trkpt lat="46.027984013780951" lon="10.469045341014862">
        <ele>2507.7399999999998</ele>
        <time>2018-07-09T06:39:20Z</time>
      </trkpt>
      <trkpt lat="46.02799323387444" lon="10.469113234430552">
        <ele>2506.29</ele>
        <time>2018-07-09T06:39:31Z</time>
      </trkpt>
      <trkpt lat="46.028031539171934" lon="10.469104265794158">
        <ele>2505.8099999999999</ele>
        <time>2018-07-09T06:39:40Z</time>
      </trkpt>
      <trkpt lat="46.028041262179613" lon="10.469103092327714">
        <ele>2505.3299999999999</ele>
        <time>2018-07-09T06:39:42Z</time>
      </trkpt>
      <trkpt lat="46.028086021542549" lon="10.469073252752423">
        <ele>2503.4099999999999</ele>
        <time>2018-07-09T06:39:50Z</time>
      </trkpt>
      <trkpt lat="46.028114603832364" lon="10.4691331833601">
        <ele>2501.9699999999998</ele>
        <time>2018-07-09T06:39:57Z</time>
      </trkpt>
      <trkpt lat="46.028117453679442" lon="10.469188503921032">
        <ele>2501.0100000000002</ele>
        <time>2018-07-09T06:40:02Z</time>
      </trkpt>
      <trkpt lat="46.028192304074764" lon="10.469278609380126">
        <ele>2498.5999999999999</ele>
        <time>2018-07-09T06:40:14Z</time>
      </trkpt>
      <trkpt lat="46.02820236235857" lon="10.469368379563093">
        <ele>2497.1599999999999</ele>
        <time>2018-07-09T06:40:23Z</time>
      </trkpt>
      <trkpt lat="46.028202781453729" lon="10.469379359856248">
        <ele>2497.1599999999999</ele>
        <time>2018-07-09T06:40:24Z</time>
      </trkpt>
      <trkpt lat="46.028249887749553" lon="10.469431830570102">
        <ele>2496.1999999999998</ele>
        <time>2018-07-09T06:40:33Z</time>
      </trkpt>
      <trkpt lat="46.0282819904387" lon="10.469517493620515">
        <ele>2494.7600000000002</ele>
        <time>2018-07-09T06:40:44Z</time>
      </trkpt>
      <trkpt lat="46.028285007923841" lon="10.469557056203485">
        <ele>2494.2800000000002</ele>
        <time>2018-07-09T06:40:54Z</time>
      </trkpt>
      <trkpt lat="46.028289282694459" lon="10.46960131265223">
        <ele>2492.8400000000001</ele>
        <time>2018-07-09T06:41:03Z</time>
      </trkpt>
      <trkpt lat="46.028300262987614" lon="10.469690831378102">
        <ele>2490.9099999999999</ele>
        <time>2018-07-09T06:41:13Z</time>
      </trkpt>
      <trkpt lat="46.028292048722506" lon="10.469754952937365">
        <ele>2489.4699999999998</ele>
        <time>2018-07-09T06:41:19Z</time>
      </trkpt>
      <trkpt lat="46.028318619355559" lon="10.4698153026402">
        <ele>2488.0300000000002</ele>
        <time>2018-07-09T06:41:30Z</time>
      </trkpt>
      <trkpt lat="46.028333706781268" lon="10.469873892143369">
        <ele>2487.0700000000002</ele>
        <time>2018-07-09T06:41:39Z</time>
      </trkpt>
      <trkpt lat="46.028296491131186" lon="10.46988177113235">
        <ele>2486.1100000000001</ele>
        <time>2018-07-09T06:41:46Z</time>
      </trkpt>
      <trkpt lat="46.028260868042707" lon="10.469846399500966">
        <ele>2485.1500000000001</ele>
        <time>2018-07-09T06:41:51Z</time>
      </trkpt>
      <trkpt lat="46.028209235519171" lon="10.46978504396975">
        <ele>2484.1799999999998</ele>
        <time>2018-07-09T06:41:57Z</time>
      </trkpt>
      <trkpt lat="46.028168248012662" lon="10.469765430316329">
        <ele>2483.6999999999998</ele>
        <time>2018-07-09T06:42:02Z</time>
      </trkpt>
      <trkpt lat="46.028094487264752" lon="10.469729471951723">
        <ele>2481.7800000000002</ele>
        <time>2018-07-09T06:42:14Z</time>
      </trkpt>
      <trkpt lat="46.028040675446391" lon="10.469741709530354">
        <ele>2480.8200000000002</ele>
        <time>2018-07-09T06:42:24Z</time>
      </trkpt>
      <trkpt lat="46.028028270229697" lon="10.469795018434525">
        <ele>2479.8600000000001</ele>
        <time>2018-07-09T06:42:31Z</time>
      </trkpt>
      <trkpt lat="46.027994491159916" lon="10.469862828031182">
        <ele>2479.8600000000001</ele>
        <time>2018-07-09T06:42:40Z</time>
      </trkpt>
      <trkpt lat="46.028008405119181" lon="10.470001213252544">
        <ele>2479.8600000000001</ele>
        <time>2018-07-09T06:42:51Z</time>
      </trkpt>
      <trkpt lat="46.028035813942552" lon="10.470108920708299">
        <ele>2479.8600000000001</ele>
        <time>2018-07-09T06:43:02Z</time>
      </trkpt>
      <trkpt lat="46.028046626597643" lon="10.470178658142686">
        <ele>2480.8200000000002</ele>
        <time>2018-07-09T06:43:11Z</time>
      </trkpt>
      <trkpt lat="46.028058109804988" lon="10.470198439434171">
        <ele>2480.8200000000002</ele>
        <time>2018-07-09T06:43:13Z</time>
      </trkpt>
      <trkpt lat="46.028118459507823" lon="10.470318552106619">
        <ele>2480.8200000000002</ele>
        <time>2018-07-09T06:43:25Z</time>
      </trkpt>
      <trkpt lat="46.028125835582614" lon="10.470393653959036">
        <ele>2480.8200000000002</ele>
        <time>2018-07-09T06:43:35Z</time>
      </trkpt>
      <trkpt lat="46.028169170022011" lon="10.470493733882904">
        <ele>2481.3000000000002</ele>
        <time>2018-07-09T06:43:46Z</time>
      </trkpt>
      <trkpt lat="46.028196243569255" lon="10.470537068322301">
        <ele>2481.3000000000002</ele>
        <time>2018-07-09T06:43:51Z</time>
      </trkpt>
      <trkpt lat="46.028232704848051" lon="10.470600770786405">
        <ele>2481.7800000000002</ele>
        <time>2018-07-09T06:43:58Z</time>
      </trkpt>
      <trkpt lat="46.028294144198298" lon="10.470660114660859">
        <ele>2482.2600000000002</ele>
        <time>2018-07-09T06:44:08Z</time>
      </trkpt>
      <trkpt lat="46.028362708166242" lon="10.470703532919288">
        <ele>2482.7399999999998</ele>
        <time>2018-07-09T06:44:18Z</time>
      </trkpt>
      <trkpt lat="46.028359774500132" lon="10.470798248425126">
        <ele>2483.6999999999998</ele>
        <time>2018-07-09T06:44:29Z</time>
      </trkpt>
      <trkpt lat="46.028333203867078" lon="10.47082532197237">
        <ele>2484.1799999999998</ele>
        <time>2018-07-09T06:44:38Z</time>
      </trkpt>
      <trkpt lat="46.028304118663073" lon="10.470863543450832">
        <ele>2485.6300000000001</ele>
        <time>2018-07-09T06:44:47Z</time>
      </trkpt>
      <trkpt lat="46.02828735485673" lon="10.470885084941983">
        <ele>2486.5900000000001</ele>
        <time>2018-07-09T06:44:57Z</time>
      </trkpt>
      <trkpt lat="46.028333371505141" lon="10.470946356654167">
        <ele>2487.5500000000002</ele>
        <time>2018-07-09T06:45:07Z</time>
      </trkpt>
      <trkpt lat="46.028420208021998" lon="10.470971167087555">
        <ele>2488.9899999999998</ele>
        <time>2018-07-09T06:45:17Z</time>
      </trkpt>
      <trkpt lat="46.028472930192947" lon="10.471003605052829">
        <ele>2489.4699999999998</ele>
        <time>2018-07-09T06:45:24Z</time>
      </trkpt>
      <trkpt lat="46.028519617393613" lon="10.471053728833795">
        <ele>2489.4699999999998</ele>
        <time>2018-07-09T06:45:31Z</time>
      </trkpt>
      <trkpt lat="46.028598239645362" lon="10.471113994717598">
        <ele>2488.9899999999998</ele>
        <time>2018-07-09T06:45:44Z</time>
      </trkpt>
      <trkpt lat="46.028638808056712" lon="10.471137212589383">
        <ele>2488.5100000000002</ele>
        <time>2018-07-09T06:45:55Z</time>
      </trkpt>
      <trkpt lat="46.028653057292104" lon="10.471140900626779">
        <ele>2487.0700000000002</ele>
        <time>2018-07-09T06:46:03Z</time>
      </trkpt>
      <trkpt lat="46.028693793341517" lon="10.471178703010082">
        <ele>2486.1100000000001</ele>
        <time>2018-07-09T06:46:14Z</time>
      </trkpt>
      <trkpt lat="46.028737965971231" lon="10.471191611140966">
        <ele>2484.6599999999999</ele>
        <time>2018-07-09T06:46:24Z</time>
      </trkpt>
      <trkpt lat="46.028759507462382" lon="10.47121524810791">
        <ele>2483.2199999999998</ele>
        <time>2018-07-09T06:46:32Z</time>
      </trkpt>
      <trkpt lat="46.02879211306572" lon="10.471307197585702">
        <ele>2481.3000000000002</ele>
        <time>2018-07-09T06:46:43Z</time>
      </trkpt>
      <trkpt lat="46.028808625414968" lon="10.471373582258821">
        <ele>2479.3800000000001</ele>
        <time>2018-07-09T06:46:51Z</time>
      </trkpt>
      <trkpt lat="46.028796974569559" lon="10.471505178138614">
        <ele>2477.9400000000001</ele>
        <time>2018-07-09T06:47:02Z</time>
      </trkpt>
      <trkpt lat="46.028793873265386" lon="10.471578603610396">
        <ele>2476.4899999999998</ele>
        <time>2018-07-09T06:47:14Z</time>
      </trkpt>
      <trkpt lat="46.028812732547522" lon="10.471652280539274">
        <ele>2474.0900000000001</ele>
        <time>2018-07-09T06:47:25Z</time>
      </trkpt>
      <trkpt lat="46.028803763911128" lon="10.471737692132592">
        <ele>2472.1700000000001</ele>
        <time>2018-07-09T06:47:35Z</time>
      </trkpt>
      <trkpt lat="46.028796136379242" lon="10.471741212531924">
        <ele>2472.1700000000001</ele>
        <time>2018-07-09T06:47:40Z</time>
      </trkpt>
      <trkpt lat="46.028795465826988" lon="10.471716485917568">
        <ele>2471.6900000000001</ele>
        <time>2018-07-09T06:47:47Z</time>
      </trkpt>
      <trkpt lat="46.028798064216971" lon="10.471726292744279">
        <ele>2471.6900000000001</ele>
        <time>2018-07-09T06:48:06Z</time>
      </trkpt>
      <trkpt lat="46.0288190189749" lon="10.471730651333928">
        <ele>2471.6900000000001</ele>
        <time>2018-07-09T06:48:18Z</time>
      </trkpt>
      <trkpt lat="46.028820360079408" lon="10.471732160076499">
        <ele>2471.6900000000001</ele>
        <time>2018-07-09T06:48:41Z</time>
      </trkpt>
      <trkpt lat="46.028810972347856" lon="10.471729058772326">
        <ele>2472.6500000000001</ele>
        <time>2018-07-09T06:49:04Z</time>
      </trkpt>
      <trkpt lat="46.028820360079408" lon="10.471732579171658">
        <ele>2471.6900000000001</ele>
        <time>2018-07-09T06:49:12Z</time>
      </trkpt>
      <trkpt lat="46.028819186612964" lon="10.471745235845447">
        <ele>2472.1700000000001</ele>
        <time>2018-07-09T06:49:21Z</time>
      </trkpt>
      <trkpt lat="46.028802087530494" lon="10.471727382391691">
        <ele>2472.1700000000001</ele>
        <time>2018-07-09T06:49:37Z</time>
      </trkpt>
      <trkpt lat="46.028839470818639" lon="10.471750181168318">
        <ele>2471.21</ele>
        <time>2018-07-09T06:49:48Z</time>
      </trkpt>
      <trkpt lat="46.028852462768555" lon="10.471775997430086">
        <ele>2470.73</ele>
        <time>2018-07-09T06:49:52Z</time>
      </trkpt>
      <trkpt lat="46.028870400041342" lon="10.471822768449783">
        <ele>2469.7600000000002</ele>
        <time>2018-07-09T06:49:56Z</time>
      </trkpt>
      <trkpt lat="46.028874171897769" lon="10.471856547519565">
        <ele>2469.2800000000002</ele>
        <time>2018-07-09T06:49:59Z</time>
      </trkpt>
      <trkpt lat="46.028901748359203" lon="10.471966098994017">
        <ele>2467.8400000000001</ele>
        <time>2018-07-09T06:50:10Z</time>
      </trkpt>
      <trkpt lat="46.028955224901438" lon="10.472038937732577">
        <ele>2466.8800000000001</ele>
        <time>2018-07-09T06:50:21Z</time>
      </trkpt>
      <trkpt lat="46.028997050598264" lon="10.472082775086164">
        <ele>2465.4400000000001</ele>
        <time>2018-07-09T06:50:28Z</time>
      </trkpt>
      <trkpt lat="46.029077265411615" lon="10.472161481156945">
        <ele>2464.96</ele>
        <time>2018-07-09T06:50:39Z</time>
      </trkpt>
      <trkpt lat="46.029126215726137" lon="10.472259465605021">
        <ele>2464.96</ele>
        <time>2018-07-09T06:50:50Z</time>
      </trkpt>
      <trkpt lat="46.029192684218287" lon="10.472303051501513">
        <ele>2463.04</ele>
        <time>2018-07-09T06:51:00Z</time>
      </trkpt>
      <trkpt lat="46.029196875169873" lon="10.472324509173632">
        <ele>2462.5500000000002</ele>
        <time>2018-07-09T06:51:02Z</time>
      </trkpt>
      <trkpt lat="46.029242472723126" lon="10.472435737028718">
        <ele>2462.5500000000002</ele>
        <time>2018-07-09T06:51:13Z</time>
      </trkpt>
      <trkpt lat="46.02931497618556" lon="10.472583845257759">
        <ele>2461.1100000000001</ele>
        <time>2018-07-09T06:51:25Z</time>
      </trkpt>
      <trkpt lat="46.029326124116778" lon="10.472630532458425">
        <ele>2461.1100000000001</ele>
        <time>2018-07-09T06:51:29Z</time>
      </trkpt>
      <trkpt lat="46.029397286474705" lon="10.472765062004328">
        <ele>2460.6300000000001</ele>
        <time>2018-07-09T06:51:41Z</time>
      </trkpt>
      <trkpt lat="46.029479932039976" lon="10.472913673147559">
        <ele>2459.1900000000001</ele>
        <time>2018-07-09T06:51:55Z</time>
      </trkpt>
      <trkpt lat="46.029554447159171" lon="10.473065972328186">
        <ele>2458.71</ele>
        <time>2018-07-09T06:52:07Z</time>
      </trkpt>
      <trkpt lat="46.029623094946146" lon="10.473190946504474">
        <ele>2458.71</ele>
        <time>2018-07-09T06:52:18Z</time>
      </trkpt>
      <trkpt lat="46.029680259525776" lon="10.473307371139526">
        <ele>2458.71</ele>
        <time>2018-07-09T06:52:28Z</time>
      </trkpt>
      <trkpt lat="46.029692078009248" lon="10.473328158259392">
        <ele>2458.23</ele>
        <time>2018-07-09T06:52:31Z</time>
      </trkpt>
      <trkpt lat="46.029763827100396" lon="10.473397141322494">
        <ele>2455.8200000000002</ele>
        <time>2018-07-09T06:52:41Z</time>
      </trkpt>
      <trkpt lat="46.029837252572179" lon="10.47341457568109">
        <ele>2454.8600000000001</ele>
        <time>2018-07-09T06:52:52Z</time>
      </trkpt>
      <trkpt lat="46.029861308634281" lon="10.473419018089771">
        <ele>2453.4200000000001</ele>
        <time>2018-07-09T06:52:56Z</time>
      </trkpt>
      <trkpt lat="46.029930710792542" lon="10.473445253446698">
        <ele>2451.98</ele>
        <time>2018-07-09T06:53:07Z</time>
      </trkpt>
      <trkpt lat="46.029934901744127" lon="10.473452964797616">
        <ele>2451.02</ele>
        <time>2018-07-09T06:53:08Z</time>
      </trkpt>
      <trkpt lat="46.029952922835946" lon="10.473472159355879">
        <ele>2450.54</ele>
        <time>2018-07-09T06:53:10Z</time>
      </trkpt>
      <trkpt lat="46.030009500682354" lon="10.473598390817642">
        <ele>2450.0599999999999</ele>
        <time>2018-07-09T06:53:22Z</time>
      </trkpt>
      <trkpt lat="46.030076304450631" lon="10.473728058859706">
        <ele>2448.1300000000001</ele>
        <time>2018-07-09T06:53:34Z</time>
      </trkpt>
      <trkpt lat="46.030158698558807" lon="10.473857894539833">
        <ele>2447.6500000000001</ele>
        <time>2018-07-09T06:53:46Z</time>
      </trkpt>
      <trkpt lat="46.030176971107721" lon="10.473909610882401">
        <ele>2448.1300000000001</ele>
        <time>2018-07-09T06:53:50Z</time>
      </trkpt>
      <trkpt lat="46.030236314982176" lon="10.474031567573547">
        <ele>2446.21</ele>
        <time>2018-07-09T06:54:02Z</time>
      </trkpt>
      <trkpt lat="46.030302196741104" lon="10.474117062985897">
        <ele>2444.77</ele>
        <time>2018-07-09T06:54:13Z</time>
      </trkpt>
      <trkpt lat="46.03034938685596" lon="10.4741738922894">
        <ele>2442.8499999999999</ele>
        <time>2018-07-09T06:54:23Z</time>
      </trkpt>
      <trkpt lat="46.030368581414223" lon="10.474281767383218">
        <ele>2441.4099999999999</ele>
        <time>2018-07-09T06:54:34Z</time>
      </trkpt>
      <trkpt lat="46.030362881720066" lon="10.474299201741815">
        <ele>2441.4099999999999</ele>
        <time>2018-07-09T06:54:43Z</time>
      </trkpt>
      <trkpt lat="46.030375957489014" lon="10.474303308874369">
        <ele>2441.4099999999999</ele>
        <time>2018-07-09T06:55:02Z</time>
      </trkpt>
      <trkpt lat="46.030365480110049" lon="10.474290484562516">
        <ele>2441.4099999999999</ele>
        <time>2018-07-09T06:55:22Z</time>
      </trkpt>
      <trkpt lat="46.03036162443459" lon="10.474277827888727">
        <ele>2441.4099999999999</ele>
        <time>2018-07-09T06:55:39Z</time>
      </trkpt>
      <trkpt lat="46.030386853963137" lon="10.47427992336452">
        <ele>2440.9200000000001</ele>
        <time>2018-07-09T06:55:58Z</time>
      </trkpt>
      <trkpt lat="46.030392218381166" lon="10.474327700212598">
        <ele>2439.96</ele>
        <time>2018-07-09T06:56:07Z</time>
      </trkpt>
      <trkpt lat="46.030415687710047" lon="10.474355611950159">
        <ele>2438.04</ele>
        <time>2018-07-09T06:56:17Z</time>
      </trkpt>
      <trkpt lat="46.030441587790847" lon="10.474368939176202">
        <ele>2436.5999999999999</ele>
        <time>2018-07-09T06:56:28Z</time>
      </trkpt>
      <trkpt lat="46.030453741550446" lon="10.474385702982545">
        <ele>2435.6399999999999</ele>
        <time>2018-07-09T06:56:35Z</time>
      </trkpt>
      <trkpt lat="46.030480982735753" lon="10.474379332736135">
        <ele>2434.6799999999998</ele>
        <time>2018-07-09T06:56:44Z</time>
      </trkpt>
      <trkpt lat="46.030459273606539" lon="10.474424092099071">
        <ele>2434.1999999999998</ele>
        <time>2018-07-09T06:56:55Z</time>
      </trkpt>
      <trkpt lat="46.030465979129076" lon="10.474472539499402">
        <ele>2433.71</ele>
        <time>2018-07-09T06:57:06Z</time>
      </trkpt>
      <trkpt lat="46.030457178130746" lon="10.474562393501401">
        <ele>2431.79</ele>
        <time>2018-07-09T06:57:18Z</time>
      </trkpt>
      <trkpt lat="46.030489448457956" lon="10.474626431241632">
        <ele>2429.8699999999999</ele>
        <time>2018-07-09T06:57:28Z</time>
      </trkpt>
      <trkpt lat="46.030519539490342" lon="10.474688541144133">
        <ele>2427.9499999999998</ele>
        <time>2018-07-09T06:57:37Z</time>
      </trkpt>
      <trkpt lat="46.030528005212545" lon="10.474737994372845">
        <ele>2427.4699999999998</ele>
        <time>2018-07-09T06:57:42Z</time>
      </trkpt>
      <trkpt lat="46.030555330216885" lon="10.474847545847297">
        <ele>2426.5</ele>
        <time>2018-07-09T06:57:54Z</time>
      </trkpt>
      <trkpt lat="46.030569830909371" lon="10.474918372929096">
        <ele>2424.5799999999999</ele>
        <time>2018-07-09T06:58:03Z</time>
      </trkpt>
      <trkpt lat="46.030585756525397" lon="10.474948044866323">
        <ele>2423.6199999999999</ele>
        <time>2018-07-09T06:58:07Z</time>
      </trkpt>
      <trkpt lat="46.030609058216214" lon="10.474982243031263">
        <ele>2422.6599999999999</ele>
        <time>2018-07-09T06:58:12Z</time>
      </trkpt>
      <trkpt lat="46.030608303844929" lon="10.475051812827587">
        <ele>2421.2199999999998</ele>
        <time>2018-07-09T06:58:17Z</time>
      </trkpt>
      <trkpt lat="46.030616434291005" lon="10.475174942985177">
        <ele>2419.7800000000002</ele>
        <time>2018-07-09T06:58:29Z</time>
      </trkpt>
      <trkpt lat="46.030670832842588" lon="10.475264126434922">
        <ele>2416.8899999999999</ele>
        <time>2018-07-09T06:58:42Z</time>
      </trkpt>
      <trkpt lat="46.030675945803523" lon="10.475286757573485">
        <ele>2416.8899999999999</ele>
        <time>2018-07-09T06:58:44Z</time>
      </trkpt>
      <trkpt lat="46.030694972723722" lon="10.475339563563466">
        <ele>2416.4099999999999</ele>
        <time>2018-07-09T06:58:49Z</time>
      </trkpt>
      <trkpt lat="46.030711065977812" lon="10.475357417017221">
        <ele>2415.9299999999998</ele>
        <time>2018-07-09T06:58:51Z</time>
      </trkpt>
      <trkpt lat="46.030723219737411" lon="10.475400919094682">
        <ele>2415.9299999999998</ele>
        <time>2018-07-09T06:58:55Z</time>
      </trkpt>
      <trkpt lat="46.030725063756108" lon="10.475426819175482">
        <ele>2416.4099999999999</ele>
        <time>2018-07-09T06:58:57Z</time>
      </trkpt>
      <trkpt lat="46.030741157010198" lon="10.475511057302356">
        <ele>2417.3699999999999</ele>
        <time>2018-07-09T06:59:09Z</time>
      </trkpt>
      <trkpt lat="46.030737133696675" lon="10.475493287667632">
        <ele>2415.9299999999998</ele>
        <time>2018-07-09T06:59:18Z</time>
      </trkpt>
      <trkpt lat="46.030732020735741" lon="10.475483313202858">
        <ele>2415.9299999999998</ele>
        <time>2018-07-09T06:59:37Z</time>
      </trkpt>
      <trkpt lat="46.030727159231901" lon="10.47548096626997">
        <ele>2415.9299999999998</ele>
        <time>2018-07-09T06:59:57Z</time>
      </trkpt>
      <trkpt lat="46.030728667974472" lon="10.475484151393175">
        <ele>2415.9299999999998</ele>
        <time>2018-07-09T07:00:15Z</time>
      </trkpt>
      <trkpt lat="46.030717268586159" lon="10.475497981533408">
        <ele>2415.9299999999998</ele>
        <time>2018-07-09T07:00:31Z</time>
      </trkpt>
      <trkpt lat="46.030722297728062" lon="10.475485995411873">
        <ele>2415.9299999999998</ele>
        <time>2018-07-09T07:00:45Z</time>
      </trkpt>
      <trkpt lat="46.030737552791834" lon="10.475510219112039">
        <ele>2416.4099999999999</ele>
        <time>2018-07-09T07:00:52Z</time>
      </trkpt>
      <trkpt lat="46.030740486457944" lon="10.475538885220885">
        <ele>2416.4099999999999</ele>
        <time>2018-07-09T07:01:03Z</time>
      </trkpt>
      <trkpt lat="46.030751634389162" lon="10.475529748946428">
        <ele>2416.8899999999999</ele>
        <time>2018-07-09T07:01:18Z</time>
      </trkpt>
      <trkpt lat="46.030747108161449" lon="10.475536035373807">
        <ele>2416.4099999999999</ele>
        <time>2018-07-09T07:01:29Z</time>
      </trkpt>
      <trkpt lat="46.030741827562451" lon="10.475535951554775">
        <ele>2416.8899999999999</ele>
        <time>2018-07-09T07:01:47Z</time>
      </trkpt>
      <trkpt lat="46.030747527256608" lon="10.475543662905693">
        <ele>2417.3699999999999</ele>
        <time>2018-07-09T07:02:00Z</time>
      </trkpt>
      <trkpt lat="46.030747862532735" lon="10.475529497489333">
        <ele>2416.8899999999999</ele>
        <time>2018-07-09T07:02:12Z</time>
      </trkpt>
      <trkpt lat="46.030735541135073" lon="10.475568054243922">
        <ele>2418.8099999999999</ele>
        <time>2018-07-09T07:02:22Z</time>
      </trkpt>
      <trkpt lat="46.03073101490736" lon="10.475588506087661">
        <ele>2416.8899999999999</ele>
        <time>2018-07-09T07:02:32Z</time>
      </trkpt>
      <trkpt lat="46.03071634657681" lon="10.475582974031568">
        <ele>2417.3699999999999</ele>
        <time>2018-07-09T07:02:43Z</time>
      </trkpt>
      <trkpt lat="46.030721040442586" lon="10.475546680390835">
        <ele>2417.8499999999999</ele>
        <time>2018-07-09T07:02:56Z</time>
      </trkpt>
      <trkpt lat="46.030724057927728" lon="10.475568473339081">
        <ele>2419.3000000000002</ele>
        <time>2018-07-09T07:03:12Z</time>
      </trkpt>
      <trkpt lat="46.030699331313372" lon="10.475574927404523">
        <ele>2415.4499999999998</ele>
        <time>2018-07-09T07:03:28Z</time>
      </trkpt>
      <trkpt lat="46.030702432617545" lon="10.475577022880316">
        <ele>2419.3000000000002</ele>
        <time>2018-07-09T07:03:29Z</time>
      </trkpt>
      <trkpt lat="46.030712071806192" lon="10.475576771423221">
        <ele>2417.8499999999999</ele>
        <time>2018-07-09T07:03:50Z</time>
      </trkpt>
      <trkpt lat="46.030707126483321" lon="10.475571909919381">
        <ele>2417.8499999999999</ele>
        <time>2018-07-09T07:04:11Z</time>
      </trkpt>
      <trkpt lat="46.030711568892002" lon="10.475580208003521">
        <ele>2417.3699999999999</ele>
        <time>2018-07-09T07:04:18Z</time>
      </trkpt>
      <trkpt lat="46.030721627175808" lon="10.47555036842823">
        <ele>2416.4099999999999</ele>
        <time>2018-07-09T07:04:26Z</time>
      </trkpt>
      <trkpt lat="46.030729003250599" lon="10.475545926019549">
        <ele>2416.8899999999999</ele>
        <time>2018-07-09T07:04:47Z</time>
      </trkpt>
      <trkpt lat="46.030722549185157" lon="10.475570568814874">
        <ele>2416.8899999999999</ele>
        <time>2018-07-09T07:05:11Z</time>
      </trkpt>
      <trkpt lat="46.030708719044924" lon="10.475552463904023">
        <ele>2416.8899999999999</ele>
        <time>2018-07-09T07:05:40Z</time>
      </trkpt>
      <trkpt lat="46.030710060149431" lon="10.475536705926061">
        <ele>2416.8899999999999</ele>
        <time>2018-07-09T07:06:10Z</time>
      </trkpt>
      <trkpt lat="46.030706288293004" lon="10.475566042587161">
        <ele>2417.3699999999999</ele>
        <time>2018-07-09T07:06:30Z</time>
      </trkpt>
      <trkpt lat="46.030706372112036" lon="10.475539807230234">
        <ele>2417.3699999999999</ele>
        <time>2018-07-09T07:06:41Z</time>
      </trkpt>
      <trkpt lat="46.030696900561452" lon="10.475544584915042">
        <ele>2417.8499999999999</ele>
        <time>2018-07-09T07:06:59Z</time>
      </trkpt>
      <trkpt lat="46.030698241665959" lon="10.475557576864958">
        <ele>2417.8499999999999</ele>
        <time>2018-07-09T07:07:17Z</time>
      </trkpt>
      <trkpt lat="46.030660690739751" lon="10.475581968203187">
        <ele>2418.3299999999999</ele>
        <time>2018-07-09T07:07:30Z</time>
      </trkpt>
      <trkpt lat="46.030602687969804" lon="10.475567970424891">
        <ele>2419.7800000000002</ele>
        <time>2018-07-09T07:07:42Z</time>
      </trkpt>
      <trkpt lat="46.030587684363127" lon="10.475547350943089">
        <ele>2420.7399999999998</ele>
        <time>2018-07-09T07:07:53Z</time>
      </trkpt>
      <trkpt lat="46.03059564717114" lon="10.475559337064624">
        <ele>2420.2600000000002</ele>
        <time>2018-07-09T07:08:08Z</time>
      </trkpt>
      <trkpt lat="46.030604029074311" lon="10.475582806393504">
        <ele>2420.7399999999998</ele>
        <time>2018-07-09T07:08:26Z</time>
      </trkpt>
      <trkpt lat="46.03058835491538" lon="10.475651202723384">
        <ele>2420.2600000000002</ele>
        <time>2018-07-09T07:08:37Z</time>
      </trkpt>
      <trkpt lat="46.030595898628235" lon="10.475684311240911">
        <ele>2420.2600000000002</ele>
        <time>2018-07-09T07:08:40Z</time>
      </trkpt>
      <trkpt lat="46.030591875314713" lon="10.475738374516368">
        <ele>2420.7399999999998</ele>
        <time>2018-07-09T07:08:45Z</time>
      </trkpt>
      <trkpt lat="46.030619787052274" lon="10.47588606365025">
        <ele>2421.2199999999998</ele>
        <time>2018-07-09T07:08:58Z</time>
      </trkpt>
      <trkpt lat="46.03062691166997" lon="10.475949347019196">
        <ele>2421.6999999999998</ele>
        <time>2018-07-09T07:09:04Z</time>
      </trkpt>
      <trkpt lat="46.030627582222223" lon="10.4760976228863">
        <ele>2423.6199999999999</ele>
        <time>2018-07-09T07:09:16Z</time>
      </trkpt>
      <trkpt lat="46.03066454641521" lon="10.476195607334375">
        <ele>2422.1799999999998</ele>
        <time>2018-07-09T07:09:26Z</time>
      </trkpt>
      <trkpt lat="46.030686926096678" lon="10.476252436637878">
        <ele>2422.6599999999999</ele>
        <time>2018-07-09T07:09:31Z</time>
      </trkpt>
      <trkpt lat="46.030728751793504" lon="10.476306164637208">
        <ele>2422.1799999999998</ele>
        <time>2018-07-09T07:09:41Z</time>
      </trkpt>
      <trkpt lat="46.030742498114705" lon="10.476388977840543">
        <ele>2421.6999999999998</ele>
        <time>2018-07-09T07:09:54Z</time>
      </trkpt>
      <trkpt lat="46.030748784542084" lon="10.47644404694438">
        <ele>2421.6999999999998</ele>
        <time>2018-07-09T07:09:57Z</time>
      </trkpt>
      <trkpt lat="46.030824724584818" lon="10.476553179323673">
        <ele>2421.2199999999998</ele>
        <time>2018-07-09T07:10:08Z</time>
      </trkpt>
      <trkpt lat="46.030841823667288" lon="10.476569188758731">
        <ele>2420.7399999999998</ele>
        <time>2018-07-09T07:10:11Z</time>
      </trkpt>
      <trkpt lat="46.030950536951423" lon="10.476584108546376">
        <ele>2419.7800000000002</ele>
        <time>2018-07-09T07:10:24Z</time>
      </trkpt>
      <trkpt lat="46.030959337949753" lon="10.47658234834671">
        <ele>2418.3299999999999</ele>
        <time>2018-07-09T07:10:32Z</time>
      </trkpt>
      <trkpt lat="46.030950117856264" lon="10.476580252870917">
        <ele>2418.3299999999999</ele>
        <time>2018-07-09T07:10:46Z</time>
      </trkpt>
      <trkpt lat="46.030964534729719" lon="10.476584443822503">
        <ele>2418.8099999999999</ele>
        <time>2018-07-09T07:10:58Z</time>
      </trkpt>
      <trkpt lat="46.030972581356764" lon="10.476643033325672">
        <ele>2419.3000000000002</ele>
        <time>2018-07-09T07:11:03Z</time>
      </trkpt>
      <trkpt lat="46.030993452295661" lon="10.476777814328671">
        <ele>2420.7399999999998</ele>
        <time>2018-07-09T07:11:15Z</time>
      </trkpt>
      <trkpt lat="46.031009210273623" lon="10.476830787956715">
        <ele>2421.2199999999998</ele>
        <time>2018-07-09T07:11:20Z</time>
      </trkpt>
      <trkpt lat="46.031060172244906" lon="10.47694243490696">
        <ele>2421.2199999999998</ele>
        <time>2018-07-09T07:11:31Z</time>
      </trkpt>
      <trkpt lat="46.03112144395709" lon="10.477005047723651">
        <ele>2422.1799999999998</ele>
        <time>2018-07-09T07:11:41Z</time>
      </trkpt>
      <trkpt lat="46.031144494190812" lon="10.4770284332335">
        <ele>2422.6599999999999</ele>
        <time>2018-07-09T07:11:45Z</time>
      </trkpt>
      <trkpt lat="46.031246753409505" lon="10.477078054100275">
        <ele>2421.6999999999998</ele>
        <time>2018-07-09T07:11:57Z</time>
      </trkpt>
      <trkpt lat="46.031273575499654" lon="10.477086436003447">
        <ele>2421.2199999999998</ele>
        <time>2018-07-09T07:12:00Z</time>
      </trkpt>
      <trkpt lat="46.031307522207499" lon="10.477127674967051">
        <ele>2421.2199999999998</ele>
        <time>2018-07-09T07:12:11Z</time>
      </trkpt>
      <trkpt lat="46.03134767152369" lon="10.477260025218129">
        <ele>2421.2199999999998</ele>
        <time>2018-07-09T07:12:20Z</time>
      </trkpt>
      <trkpt lat="46.031354879960418" lon="10.477398158982396">
        <ele>2422.1799999999998</ele>
        <time>2018-07-09T07:12:31Z</time>
      </trkpt>
      <trkpt lat="46.031348761171103" lon="10.477467644959688">
        <ele>2423.1399999999999</ele>
        <time>2018-07-09T07:12:41Z</time>
      </trkpt>
      <trkpt lat="46.031340966001153" lon="10.477507123723626">
        <ele>2423.6199999999999</ele>
        <time>2018-07-09T07:12:51Z</time>
      </trkpt>
      <trkpt lat="46.031275084242225" lon="10.477511063218117">
        <ele>2424.0999999999999</ele>
        <time>2018-07-09T07:13:04Z</time>
      </trkpt>
      <trkpt lat="46.031249100342393" lon="10.477555822581053">
        <ele>2425.0599999999999</ele>
        <time>2018-07-09T07:13:10Z</time>
      </trkpt>
      <trkpt lat="46.031199479475617" lon="10.477641150355339">
        <ele>2426.9899999999998</ele>
        <time>2018-07-09T07:13:23Z</time>
      </trkpt>
      <trkpt lat="46.031165029853582" lon="10.477710217237473">
        <ele>2428.4299999999998</ele>
        <time>2018-07-09T07:13:32Z</time>
      </trkpt>
      <trkpt lat="46.031108032912016" lon="10.477783307433128">
        <ele>2430.3499999999999</ele>
        <time>2018-07-09T07:13:44Z</time>
      </trkpt>
      <trkpt lat="46.031078528612852" lon="10.477849608287215">
        <ele>2430.8299999999999</ele>
        <time>2018-07-09T07:13:53Z</time>
      </trkpt>
      <trkpt lat="46.031071236357093" lon="10.477875424548984">
        <ele>2430.8299999999999</ele>
        <time>2018-07-09T07:13:56Z</time>
      </trkpt>
      <trkpt lat="46.031065285205841" lon="10.477971481159329">
        <ele>2428.4299999999998</ele>
        <time>2018-07-09T07:14:07Z</time>
      </trkpt>
      <trkpt lat="46.031066961586475" lon="10.478057311847806">
        <ele>2426.9899999999998</ele>
        <time>2018-07-09T07:14:14Z</time>
      </trkpt>
      <trkpt lat="46.03107207454741" lon="10.478162756189704">
        <ele>2426.02</ele>
        <time>2018-07-09T07:14:24Z</time>
      </trkpt>
      <trkpt lat="46.031071403995156" lon="10.478256717324257">
        <ele>2424.5799999999999</ele>
        <time>2018-07-09T07:14:32Z</time>
      </trkpt>
      <trkpt lat="46.031062938272953" lon="10.478408765047789">
        <ele>2423.1399999999999</ele>
        <time>2018-07-09T07:14:44Z</time>
      </trkpt>
      <trkpt lat="46.031057741492987" lon="10.478535667061806">
        <ele>2422.6599999999999</ele>
        <time>2018-07-09T07:14:54Z</time>
      </trkpt>
      <trkpt lat="46.031016334891319" lon="10.478658713400364">
        <ele>2422.6599999999999</ele>
        <time>2018-07-09T07:15:06Z</time>
      </trkpt>
      <trkpt lat="46.031028069555759" lon="10.478681260719895">
        <ele>2422.1799999999998</ele>
        <time>2018-07-09T07:15:16Z</time>
      </trkpt>
      <trkpt lat="46.031035026535392" lon="10.478738006204367">
        <ele>2422.1799999999998</ele>
        <time>2018-07-09T07:15:26Z</time>
      </trkpt>
      <trkpt lat="46.031030584126711" lon="10.478777820244431">
        <ele>2422.1799999999998</ele>
        <time>2018-07-09T07:15:29Z</time>
      </trkpt>
      <trkpt lat="46.031011724844575" lon="10.478813359513879">
        <ele>2422.1799999999998</ele>
        <time>2018-07-09T07:15:33Z</time>
      </trkpt>
      <trkpt lat="46.03104030713439" lon="10.478865662589669">
        <ele>2420.7399999999998</ele>
        <time>2018-07-09T07:15:39Z</time>
      </trkpt>
      <trkpt lat="46.03104131296277" lon="10.47895803116262">
        <ele>2418.3299999999999</ele>
        <time>2018-07-09T07:15:48Z</time>
      </trkpt>
      <trkpt lat="46.031038295477629" lon="10.478980159386992">
        <ele>2418.3299999999999</ele>
        <time>2018-07-09T07:15:50Z</time>
      </trkpt>
      <trkpt lat="46.031049862504005" lon="10.479068337008357">
        <ele>2416.4099999999999</ele>
        <time>2018-07-09T07:15:59Z</time>
      </trkpt>
      <trkpt lat="46.031062686815858" lon="10.479179564863443">
        <ele>2413.5300000000002</ele>
        <time>2018-07-09T07:16:11Z</time>
      </trkpt>
      <trkpt lat="46.031071403995156" lon="10.479270257055759">
        <ele>2411.5999999999999</ele>
        <time>2018-07-09T07:16:21Z</time>
      </trkpt>
      <trkpt lat="46.031069224700332" lon="10.479280734434724">
        <ele>2411.1199999999999</ele>
        <time>2018-07-09T07:16:23Z</time>
      </trkpt>
      <trkpt lat="46.031065452843904" lon="10.479353405535221">
        <ele>2410.6399999999999</ele>
        <time>2018-07-09T07:16:34Z</time>
      </trkpt>
      <trkpt lat="46.031103003770113" lon="10.47939145937562">
        <ele>2409.1999999999998</ele>
        <time>2018-07-09T07:16:42Z</time>
      </trkpt>
      <trkpt lat="46.031105937436223" lon="10.47950629144907">
        <ele>2407.2800000000002</ele>
        <time>2018-07-09T07:16:53Z</time>
      </trkpt>
      <trkpt lat="46.03111557662487" lon="10.479619363322854">
        <ele>2405.3600000000001</ele>
        <time>2018-07-09T07:17:04Z</time>
      </trkpt>
      <trkpt lat="46.031123120337725" lon="10.479715671390295">
        <ele>2403.4299999999998</ele>
        <time>2018-07-09T07:17:14Z</time>
      </trkpt>
      <trkpt lat="46.031132424250245" lon="10.479763532057405">
        <ele>2402.4699999999998</ele>
        <time>2018-07-09T07:17:26Z</time>
      </trkpt>
      <trkpt lat="46.031182212755084" lon="10.479704439640045">
        <ele>2401.0300000000002</ele>
        <time>2018-07-09T07:17:36Z</time>
      </trkpt>
      <trkpt lat="46.031214399263263" lon="10.479667140170932">
        <ele>2399.1100000000001</ele>
        <time>2018-07-09T07:17:46Z</time>
      </trkpt>
      <trkpt lat="46.031252536922693" lon="10.479667978361249">
        <ele>2397.6700000000001</ele>
        <time>2018-07-09T07:17:54Z</time>
      </trkpt>
      <trkpt lat="46.031256895512342" lon="10.47967342659831">
        <ele>2397.1799999999998</ele>
        <time>2018-07-09T07:17:56Z</time>
      </trkpt>
      <trkpt lat="46.031278939917684" lon="10.479742828756571">
        <ele>2394.7800000000002</ele>
        <time>2018-07-09T07:18:06Z</time>
      </trkpt>
      <trkpt lat="46.031316909939051" lon="10.479778619483113">
        <ele>2393.8200000000002</ele>
        <time>2018-07-09T07:18:17Z</time>
      </trkpt>
      <trkpt lat="46.031303582713008" lon="10.479873670265079">
        <ele>2392.3800000000001</ele>
        <time>2018-07-09T07:18:27Z</time>
      </trkpt>
      <trkpt lat="46.031305259093642" lon="10.479939552024007">
        <ele>2390.9400000000001</ele>
        <time>2018-07-09T07:18:37Z</time>
      </trkpt>
      <trkpt lat="46.031317748129368" lon="10.480006691068411">
        <ele>2389.0100000000002</ele>
        <time>2018-07-09T07:18:47Z</time>
      </trkpt>
      <trkpt lat="46.031332165002823" lon="10.480067543685436">
        <ele>2387.0900000000001</ele>
        <time>2018-07-09T07:18:57Z</time>
      </trkpt>
      <trkpt lat="46.031356891617179" lon="10.480136359110475">
        <ele>2385.6500000000001</ele>
        <time>2018-07-09T07:19:07Z</time>
      </trkpt>
      <trkpt lat="46.0313730686903" lon="10.480206180363894">
        <ele>2384.21</ele>
        <time>2018-07-09T07:19:19Z</time>
      </trkpt>
      <trkpt lat="46.031375415623188" lon="10.480216490104795">
        <ele>2384.21</ele>
        <time>2018-07-09T07:19:20Z</time>
      </trkpt>
      <trkpt lat="46.031378349289298" lon="10.480333166196942">
        <ele>2382.2800000000002</ele>
        <time>2018-07-09T07:19:32Z</time>
      </trkpt>
      <trkpt lat="46.031378265470266" lon="10.480342553928494">
        <ele>2382.2800000000002</ele>
        <time>2018-07-09T07:19:33Z</time>
      </trkpt>
      <trkpt lat="46.031373320147395" lon="10.480409692972898">
        <ele>2381.8000000000002</ele>
        <time>2018-07-09T07:19:38Z</time>
      </trkpt>
      <trkpt lat="46.031341133639216" lon="10.480535505339503">
        <ele>2382.7600000000002</ele>
        <time>2018-07-09T07:19:50Z</time>
      </trkpt>
      <trkpt lat="46.031351694837213" lon="10.480607422068715">
        <ele>2381.8000000000002</ele>
        <time>2018-07-09T07:19:59Z</time>
      </trkpt>
      <trkpt lat="46.031365357339382" lon="10.480676153674722">
        <ele>2380.8400000000001</ele>
        <time>2018-07-09T07:20:05Z</time>
      </trkpt>
      <trkpt lat="46.031335350126028" lon="10.480771204456687">
        <ele>2382.2800000000002</ele>
        <time>2018-07-09T07:20:14Z</time>
      </trkpt>
      <trkpt lat="46.031332919374108" lon="10.480824932456017">
        <ele>2382.2800000000002</ele>
        <time>2018-07-09T07:20:20Z</time>
      </trkpt>
      <trkpt lat="46.031334763392806" lon="10.480923587456346">
        <ele>2381.8000000000002</ele>
        <time>2018-07-09T07:20:27Z</time>
      </trkpt>
      <trkpt lat="46.031330740079284" lon="10.481043700128794">
        <ele>2382.2800000000002</ele>
        <time>2018-07-09T07:20:37Z</time>
      </trkpt>
      <trkpt lat="46.03133350610733" lon="10.481134308502078">
        <ele>2382.7600000000002</ele>
        <time>2018-07-09T07:20:46Z</time>
      </trkpt>
      <trkpt lat="46.031310707330704" lon="10.481200944632292">
        <ele>2383.73</ele>
        <time>2018-07-09T07:20:55Z</time>
      </trkpt>
      <trkpt lat="46.031297463923693" lon="10.48122969456017">
        <ele>2384.21</ele>
        <time>2018-07-09T07:20:58Z</time>
      </trkpt>
      <trkpt lat="46.031292350962758" lon="10.481311166658998">
        <ele>2384.6900000000001</ele>
        <time>2018-07-09T07:21:06Z</time>
      </trkpt>
      <trkpt lat="46.031282376497984" lon="10.481395907700062">
        <ele>2384.6900000000001</ele>
        <time>2018-07-09T07:21:17Z</time>
      </trkpt>
      <trkpt lat="46.031320430338383" lon="10.481401858851314">
        <ele>2383.25</ele>
        <time>2018-07-09T07:21:26Z</time>
      </trkpt>
      <trkpt lat="46.031348342075944" lon="10.481477044522762">
        <ele>2382.2800000000002</ele>
        <time>2018-07-09T07:21:37Z</time>
      </trkpt>
      <trkpt lat="46.031379522755742" lon="10.481481235474348">
        <ele>2380.8400000000001</ele>
        <time>2018-07-09T07:21:46Z</time>
      </trkpt>
      <trkpt lat="46.031387066468596" lon="10.481558348983526">
        <ele>2379.4000000000001</ele>
        <time>2018-07-09T07:21:57Z</time>
      </trkpt>
      <trkpt lat="46.0313955321908" lon="10.481651220470667">
        <ele>2378.9200000000001</ele>
        <time>2018-07-09T07:22:06Z</time>
      </trkpt>
      <trkpt lat="46.03140676394105" lon="10.481679467484355">
        <ele>2377.48</ele>
        <time>2018-07-09T07:22:14Z</time>
      </trkpt>
      <trkpt lat="46.031431993469596" lon="10.481653399765491">
        <ele>2375.5500000000002</ele>
        <time>2018-07-09T07:22:25Z</time>
      </trkpt>
      <trkpt lat="46.031438782811165" lon="10.481613418087363">
        <ele>2375.0700000000002</ele>
        <time>2018-07-09T07:22:34Z</time>
      </trkpt>
      <trkpt lat="46.031461833044887" lon="10.481640240177512">
        <ele>2373.1500000000001</ele>
        <time>2018-07-09T07:22:43Z</time>
      </trkpt>
      <trkpt lat="46.031466694548726" lon="10.481656836345792">
        <ele>2373.1500000000001</ele>
        <time>2018-07-09T07:22:55Z</time>
      </trkpt>
      <trkpt lat="46.031492594629526" lon="10.481649041175842">
        <ele>2372.1900000000001</ele>
        <time>2018-07-09T07:23:03Z</time>
      </trkpt>
      <trkpt lat="46.031509023159742" lon="10.481557510793209">
        <ele>2369.79</ele>
        <time>2018-07-09T07:23:13Z</time>
      </trkpt>
      <trkpt lat="46.031544813886285" lon="10.481604365631938">
        <ele>2368.3499999999999</ele>
        <time>2018-07-09T07:23:22Z</time>
      </trkpt>
      <trkpt lat="46.03153576143086" lon="10.481703607365489">
        <ele>2367.3800000000001</ele>
        <time>2018-07-09T07:23:33Z</time>
      </trkpt>
      <trkpt lat="46.031542550772429" lon="10.481743589043617">
        <ele>2366.4200000000001</ele>
        <time>2018-07-09T07:23:37Z</time>
      </trkpt>
      <trkpt lat="46.03155143558979" lon="10.481860935688019">
        <ele>2365.9400000000001</ele>
        <time>2018-07-09T07:23:49Z</time>
      </trkpt>
      <trkpt lat="46.031599463894963" lon="10.481936288997531">
        <ele>2365.46</ele>
        <time>2018-07-09T07:24:00Z</time>
      </trkpt>
      <trkpt lat="46.031650761142373" lon="10.481929918751121">
        <ele>2363.54</ele>
        <time>2018-07-09T07:24:11Z</time>
      </trkpt>
      <trkpt lat="46.031663585454226" lon="10.481946934014559">
        <ele>2363.0599999999999</ele>
        <time>2018-07-09T07:24:16Z</time>
      </trkpt>
      <trkpt lat="46.031670710071921" lon="10.482071992009878">
        <ele>2362.5799999999999</ele>
        <time>2018-07-09T07:24:26Z</time>
      </trkpt>
      <trkpt lat="46.031663501635194" lon="10.482145920395851">
        <ele>2363.54</ele>
        <time>2018-07-09T07:24:35Z</time>
      </trkpt>
      <trkpt lat="46.031658304855227" lon="10.482198474928737">
        <ele>2364.02</ele>
        <time>2018-07-09T07:24:44Z</time>
      </trkpt>
      <trkpt lat="46.031674314290285" lon="10.482208030298352">
        <ele>2363.0599999999999</ele>
        <time>2018-07-09T07:24:57Z</time>
      </trkpt>
      <trkpt lat="46.031634248793125" lon="10.482318000867963">
        <ele>2364.02</ele>
        <time>2018-07-09T07:25:10Z</time>
      </trkpt>
      <trkpt lat="46.031639613211155" lon="10.482419757172465">
        <ele>2365.46</ele>
        <time>2018-07-09T07:25:21Z</time>
      </trkpt>
      <trkpt lat="46.031702477484941" lon="10.482500307261944">
        <ele>2365.46</ele>
        <time>2018-07-09T07:25:34Z</time>
      </trkpt>
      <trkpt lat="46.031729718670249" lon="10.482493098825216">
        <ele>2365.46</ele>
        <time>2018-07-09T07:25:40Z</time>
      </trkpt>
      <trkpt lat="46.031766263768077" lon="10.482537522912025">
        <ele>2364.5</ele>
        <time>2018-07-09T07:25:50Z</time>
      </trkpt>
      <trkpt lat="46.031802305951715" lon="10.48256509937346">
        <ele>2363.0599999999999</ele>
        <time>2018-07-09T07:25:59Z</time>
      </trkpt>
      <trkpt lat="46.03184849023819" lon="10.482646655291319">
        <ele>2361.1399999999999</ele>
        <time>2018-07-09T07:26:09Z</time>
      </trkpt>
      <trkpt lat="46.031877072528005" lon="10.482706837356091">
        <ele>2360.6500000000001</ele>
        <time>2018-07-09T07:26:15Z</time>
      </trkpt>
      <trkpt lat="46.031891740858555" lon="10.48276693560183">
        <ele>2360.6500000000001</ele>
        <time>2018-07-09T07:26:20Z</time>
      </trkpt>
      <trkpt lat="46.03190716356039" lon="10.482828374952078">
        <ele>2360.1700000000001</ele>
        <time>2018-07-09T07:26:30Z</time>
      </trkpt>
      <trkpt lat="46.031945468857884" lon="10.482873469591141">
        <ele>2358.73</ele>
        <time>2018-07-09T07:26:38Z</time>
      </trkpt>
      <trkpt lat="46.031945636495948" lon="10.48289836384356">
        <ele>2358.73</ele>
        <time>2018-07-09T07:26:40Z</time>
      </trkpt>
      <trkpt lat="46.031969608739018" lon="10.482948236167431">
        <ele>2358.73</ele>
        <time>2018-07-09T07:26:45Z</time>
      </trkpt>
      <trkpt lat="46.03202098980546" lon="10.483046052977443">
        <ele>2357.77</ele>
        <time>2018-07-09T07:26:56Z</time>
      </trkpt>
      <trkpt lat="46.03202392347157" lon="10.483057284727693">
        <ele>2357.77</ele>
        <time>2018-07-09T07:26:57Z</time>
      </trkpt>
      <trkpt lat="46.032033981755376" lon="10.483148479834199">
        <ele>2358.73</ele>
        <time>2018-07-09T07:27:04Z</time>
      </trkpt>
      <trkpt lat="46.032049404457211" lon="10.483206734061241">
        <ele>2358.73</ele>
        <time>2018-07-09T07:27:09Z</time>
      </trkpt>
      <trkpt lat="46.032098606228828" lon="10.483294827863574">
        <ele>2358.73</ele>
        <time>2018-07-09T07:27:19Z</time>
      </trkpt>
      <trkpt lat="46.032122494652867" lon="10.483364230021834">
        <ele>2359.6900000000001</ele>
        <time>2018-07-09T07:27:28Z</time>
      </trkpt>
      <trkpt lat="46.032131295651197" lon="10.483380071818829">
        <ele>2359.6900000000001</ele>
        <time>2018-07-09T07:27:30Z</time>
      </trkpt>
      <trkpt lat="46.032182341441512" lon="10.483497586101294">
        <ele>2360.1700000000001</ele>
        <time>2018-07-09T07:27:42Z</time>
      </trkpt>
      <trkpt lat="46.032193992286921" lon="10.483524492010474">
        <ele>2360.6500000000001</ele>
        <time>2018-07-09T07:27:45Z</time>
      </trkpt>
      <trkpt lat="46.032238667830825" lon="10.483612501993775">
        <ele>2360.1700000000001</ele>
        <time>2018-07-09T07:27:56Z</time>
      </trkpt>
      <trkpt lat="46.032243529334664" lon="10.483622057363391">
        <ele>2360.6500000000001</ele>
        <time>2018-07-09T07:27:57Z</time>
      </trkpt>
      <trkpt lat="46.032262640073895" lon="10.483655836433172">
        <ele>2360.6500000000001</ele>
        <time>2018-07-09T07:28:00Z</time>
      </trkpt>
      <trkpt lat="46.032305806875229" lon="10.483727501705289">
        <ele>2361.1399999999999</ele>
        <time>2018-07-09T07:28:11Z</time>
      </trkpt>
      <trkpt lat="46.032370515167713" lon="10.483810398727655">
        <ele>2361.1399999999999</ele>
        <time>2018-07-09T07:28:25Z</time>
      </trkpt>
      <trkpt lat="46.032405216246843" lon="10.483901593834162">
        <ele>2361.1399999999999</ele>
        <time>2018-07-09T07:28:32Z</time>
      </trkpt>
      <trkpt lat="46.032427679747343" lon="10.48393084667623">
        <ele>2361.1399999999999</ele>
        <time>2018-07-09T07:28:37Z</time>
      </trkpt>
      <trkpt lat="46.03247637860477" lon="10.483996896073222">
        <ele>2362.0999999999999</ele>
        <time>2018-07-09T07:28:47Z</time>
      </trkpt>
      <trkpt lat="46.03245684877038" lon="10.484052635729313">
        <ele>2362.5799999999999</ele>
        <time>2018-07-09T07:29:00Z</time>
      </trkpt>
      <trkpt lat="46.032475205138326" lon="10.484114913269877">
        <ele>2363.0599999999999</ele>
        <time>2018-07-09T07:29:12Z</time>
      </trkpt>
      <trkpt lat="46.032483335584402" lon="10.484204096719623">
        <ele>2364.98</ele>
        <time>2018-07-09T07:29:24Z</time>
      </trkpt>
      <trkpt lat="46.032490963116288" lon="10.484272493049502">
        <ele>2366.9000000000001</ele>
        <time>2018-07-09T07:29:36Z</time>
      </trkpt>
      <trkpt lat="46.032473780214787" lon="10.484300069510937">
        <ele>2366.9000000000001</ele>
        <time>2018-07-09T07:29:49Z</time>
      </trkpt>
      <trkpt lat="46.032538237050176" lon="10.484283054247499">
        <ele>2365.9400000000001</ele>
        <time>2018-07-09T07:29:59Z</time>
      </trkpt>
      <trkpt lat="46.03261660784483" lon="10.484329238533974">
        <ele>2364.98</ele>
        <time>2018-07-09T07:30:09Z</time>
      </trkpt>
      <trkpt lat="46.032659690827131" lon="10.484374081715941">
        <ele>2365.46</ele>
        <time>2018-07-09T07:30:18Z</time>
      </trkpt>
      <trkpt lat="46.032702773809433" lon="10.484347175806761">
        <ele>2363.54</ele>
        <time>2018-07-09T07:30:28Z</time>
      </trkpt>
      <trkpt lat="46.032757507637143" lon="10.484300069510937">
        <ele>2361.6199999999999</ele>
        <time>2018-07-09T07:30:39Z</time>
      </trkpt>
      <trkpt lat="46.032784832641482" lon="10.484287077561021">
        <ele>2361.1399999999999</ele>
        <time>2018-07-09T07:30:42Z</time>
      </trkpt>
      <trkpt lat="46.032827412709594" lon="10.484311720356345">
        <ele>2360.1700000000001</ele>
        <time>2018-07-09T07:30:51Z</time>
      </trkpt>
      <trkpt lat="46.032833615317941" lon="10.484317922964692">
        <ele>2360.1700000000001</ele>
        <time>2018-07-09T07:31:01Z</time>
      </trkpt>
      <trkpt lat="46.032906537875533" lon="10.484318844974041">
        <ele>2358.73</ele>
        <time>2018-07-09T07:31:13Z</time>
      </trkpt>
      <trkpt lat="46.032939478754997" lon="10.4843192640692">
        <ele>2357.29</ele>
        <time>2018-07-09T07:31:19Z</time>
      </trkpt>
      <trkpt lat="46.033014999702573" lon="10.484353462234139">
        <ele>2355.8499999999999</ele>
        <time>2018-07-09T07:31:30Z</time>
      </trkpt>
      <trkpt lat="46.033032517880201" lon="10.484349187463522">
        <ele>2355.3699999999999</ele>
        <time>2018-07-09T07:31:38Z</time>
      </trkpt>
      <trkpt lat="46.033142656087875" lon="10.484433174133301">
        <ele>2355.3699999999999</ele>
        <time>2018-07-09T07:31:50Z</time>
      </trkpt>
      <trkpt lat="46.033186744898558" lon="10.48446980305016">
        <ele>2355.8499999999999</ele>
        <time>2018-07-09T07:31:56Z</time>
      </trkpt>
      <trkpt lat="46.033343737944961" lon="10.484508527442813">
        <ele>2354.4099999999999</ele>
        <time>2018-07-09T07:32:10Z</time>
      </trkpt>
      <trkpt lat="46.03335052728653" lon="10.484518837183714">
        <ele>2353.9299999999998</ele>
        <time>2018-07-09T07:32:21Z</time>
      </trkpt>
      <trkpt lat="46.033355137333274" lon="10.48452353104949">
        <ele>2353.9299999999998</ele>
        <time>2018-07-09T07:32:26Z</time>
      </trkpt>
      <trkpt lat="46.033475585281849" lon="10.484578013420105">
        <ele>2352</ele>
        <time>2018-07-09T07:32:38Z</time>
      </trkpt>
      <trkpt lat="46.033483296632767" lon="10.484578683972359">
        <ele>2351.52</ele>
        <time>2018-07-09T07:32:39Z</time>
      </trkpt>
      <trkpt lat="46.03353182785213" lon="10.484583042562008">
        <ele>2350.0799999999999</ele>
        <time>2018-07-09T07:32:44Z</time>
      </trkpt>
      <trkpt lat="46.033647330477834" lon="10.484621515497565">
        <ele>2349.5999999999999</ele>
        <time>2018-07-09T07:32:56Z</time>
      </trkpt>
      <trkpt lat="46.033668033778667" lon="10.484622102230787">
        <ele>2349.1199999999999</ele>
        <time>2018-07-09T07:32:58Z</time>
      </trkpt>
      <trkpt lat="46.033779010176659" lon="10.484651606529951">
        <ele>2348.6399999999999</ele>
        <time>2018-07-09T07:33:09Z</time>
      </trkpt>
      <trkpt lat="46.03387339040637" lon="10.484656132757664">
        <ele>2347.1999999999998</ele>
        <time>2018-07-09T07:33:20Z</time>
      </trkpt>
      <trkpt lat="46.033922340720892" lon="10.484725451096892">
        <ele>2349.1199999999999</ele>
        <time>2018-07-09T07:33:28Z</time>
      </trkpt>
      <trkpt lat="46.033975733444095" lon="10.48484112136066">
        <ele>2348.6399999999999</ele>
        <time>2018-07-09T07:33:38Z</time>
      </trkpt>
      <trkpt lat="46.034023510292172" lon="10.484902895987034">
        <ele>2350.0799999999999</ele>
        <time>2018-07-09T07:33:48Z</time>
      </trkpt>
      <trkpt lat="46.034050332382321" lon="10.484913373365998">
        <ele>2350.5599999999999</ele>
        <time>2018-07-09T07:33:58Z</time>
      </trkpt>
      <trkpt lat="46.034075226634741" lon="10.484937597066164">
        <ele>2351.04</ele>
        <time>2018-07-09T07:34:08Z</time>
      </trkpt>
      <trkpt lat="46.034093080088496" lon="10.484940027818084">
        <ele>2351.04</ele>
        <time>2018-07-09T07:34:25Z</time>
      </trkpt>
      <trkpt lat="46.034127278253436" lon="10.48494765534997">
        <ele>2350.5599999999999</ele>
        <time>2018-07-09T07:34:28Z</time>
      </trkpt>
      <trkpt lat="46.034161476418376" lon="10.484972801059484">
        <ele>2350.5599999999999</ele>
        <time>2018-07-09T07:34:32Z</time>
      </trkpt>
      <trkpt lat="46.03427505120635" lon="10.485027367249131">
        <ele>2349.1199999999999</ele>
        <time>2018-07-09T07:34:45Z</time>
      </trkpt>
      <trkpt lat="46.034282678738236" lon="10.48502535559237">
        <ele>2349.1199999999999</ele>
        <time>2018-07-09T07:34:46Z</time>
      </trkpt>
      <trkpt lat="46.034377980977297" lon="10.485040945932269">
        <ele>2348.1599999999999</ele>
        <time>2018-07-09T07:34:58Z</time>
      </trkpt>
      <trkpt lat="46.034418046474457" lon="10.485033905133605">
        <ele>2347.6799999999998</ele>
        <time>2018-07-09T07:35:07Z</time>
      </trkpt>
      <trkpt lat="46.034456770867109" lon="10.485017225146294">
        <ele>2346.23</ele>
        <time>2018-07-09T07:35:17Z</time>
      </trkpt>
      <trkpt lat="46.034470349550247" lon="10.485002137720585">
        <ele>2345.27</ele>
        <time>2018-07-09T07:35:21Z</time>
      </trkpt>
      <trkpt lat="46.034557269886136" lon="10.48496425151825">
        <ele>2343.3499999999999</ele>
        <time>2018-07-09T07:35:32Z</time>
      </trkpt>
      <trkpt lat="46.034611165523529" lon="10.484956707805395">
        <ele>2342.3899999999999</ele>
        <time>2018-07-09T07:35:41Z</time>
      </trkpt>
      <trkpt lat="46.0346644744277" lon="10.484948242083192">
        <ele>2340.4699999999998</ele>
        <time>2018-07-09T07:35:49Z</time>
      </trkpt>
      <trkpt lat="46.034724656492472" lon="10.484955031424761">
        <ele>2338.54</ele>
        <time>2018-07-09T07:35:59Z</time>
      </trkpt>
      <trkpt lat="46.034736139699817" lon="10.484949331730604">
        <ele>2338.0599999999999</ele>
        <time>2018-07-09T07:36:01Z</time>
      </trkpt>
      <trkpt lat="46.034808224067092" lon="10.48492125235498">
        <ele>2336.6199999999999</ele>
        <time>2018-07-09T07:36:12Z</time>
      </trkpt>
      <trkpt lat="46.034834794700146" lon="10.484902979806066">
        <ele>2336.1399999999999</ele>
        <time>2018-07-09T07:36:22Z</time>
      </trkpt>
      <trkpt lat="46.034872597083449" lon="10.484904069453478">
        <ele>2334.2199999999998</ele>
        <time>2018-07-09T07:36:31Z</time>
      </trkpt>
      <trkpt lat="46.034928504377604" lon="10.48488118685782">
        <ele>2331.8099999999999</ele>
        <time>2018-07-09T07:36:41Z</time>
      </trkpt>
      <trkpt lat="46.03497376665473" lon="10.484850844368339">
        <ele>2330.3699999999999</ele>
        <time>2018-07-09T07:36:49Z</time>
      </trkpt>
      <trkpt lat="46.035040654242039" lon="10.484875906258821">
        <ele>2328.4499999999998</ele>
        <time>2018-07-09T07:37:00Z</time>
      </trkpt>
      <trkpt lat="46.03507736697793" lon="10.484876660630107">
        <ele>2327.4899999999998</ele>
        <time>2018-07-09T07:37:04Z</time>
      </trkpt>
      <trkpt lat="46.035184320062399" lon="10.484852017834783">
        <ele>2325.0900000000001</ele>
        <time>2018-07-09T07:37:17Z</time>
      </trkpt>
      <trkpt lat="46.035189181566238" lon="10.484849838539958">
        <ele>2325.0900000000001</ele>
        <time>2018-07-09T07:37:18Z</time>
      </trkpt>
      <trkpt lat="46.035202173516154" lon="10.484834751114249">
        <ele>2324.1199999999999</ele>
        <time>2018-07-09T07:37:20Z</time>
      </trkpt>
      <trkpt lat="46.035282304510474" lon="10.484838103875518">
        <ele>2323.6399999999999</ele>
        <time>2018-07-09T07:37:30Z</time>
      </trkpt>
      <trkpt lat="46.035301079973578" lon="10.484816897660494">
        <ele>2321.7199999999998</ele>
        <time>2018-07-09T07:37:39Z</time>
      </trkpt>
      <trkpt lat="46.035301918163896" lon="10.484813628718257">
        <ele>2321.7199999999998</ele>
        <time>2018-07-09T07:37:42Z</time>
      </trkpt>
      <trkpt lat="46.035316837951541" lon="10.48480985686183">
        <ele>2321.2399999999998</ele>
        <time>2018-07-09T07:37:44Z</time>
      </trkpt>
      <trkpt lat="46.035341061651707" lon="10.484794434159994">
        <ele>2321.2399999999998</ele>
        <time>2018-07-09T07:37:46Z</time>
      </trkpt>
      <trkpt lat="46.03539889678359" lon="10.484767276793718">
        <ele>2320.2800000000002</ele>
        <time>2018-07-09T07:37:51Z</time>
      </trkpt>
      <trkpt lat="46.03549562394619" lon="10.484718410298228">
        <ele>2320.2800000000002</ele>
        <time>2018-07-09T07:38:00Z</time>
      </trkpt>
      <trkpt lat="46.035601738840342" lon="10.484657306224108">
        <ele>2320.2800000000002</ele>
        <time>2018-07-09T07:38:11Z</time>
      </trkpt>
      <trkpt lat="46.035629399120808" lon="10.48463199287653">
        <ele>2319.3200000000002</ele>
        <time>2018-07-09T07:38:15Z</time>
      </trkpt>
      <trkpt lat="46.035645240917802" lon="10.484611708670855">
        <ele>2318.3600000000001</ele>
        <time>2018-07-09T07:38:17Z</time>
      </trkpt>
      <trkpt lat="46.035693185403943" lon="10.484587904065847">
        <ele>2318.3600000000001</ele>
        <time>2018-07-09T07:38:24Z</time>
      </trkpt>
      <trkpt lat="46.035743728280067" lon="10.48455823212862">
        <ele>2317.4000000000001</ele>
        <time>2018-07-09T07:38:33Z</time>
      </trkpt>
      <trkpt lat="46.035781195387244" lon="10.484544150531292">
        <ele>2315.9499999999998</ele>
        <time>2018-07-09T07:38:42Z</time>
      </trkpt>
      <trkpt lat="46.035799719393253" lon="10.484535098075867">
        <ele>2314.9899999999998</ele>
        <time>2018-07-09T07:38:45Z</time>
      </trkpt>
      <trkpt lat="46.035832157358527" lon="10.484509952366352">
        <ele>2314.5100000000002</ele>
        <time>2018-07-09T07:38:53Z</time>
      </trkpt>
      <trkpt lat="46.035841293632984" lon="10.484501989558339">
        <ele>2314.0300000000002</ele>
        <time>2018-07-09T07:38:58Z</time>
      </trkpt>
      <trkpt lat="46.035874066874385" lon="10.484515400603414">
        <ele>2313.5500000000002</ele>
        <time>2018-07-09T07:39:07Z</time>
      </trkpt>
      <trkpt lat="46.035871217027307" lon="10.484509784728289">
        <ele>2313.5500000000002</ele>
        <time>2018-07-09T07:39:19Z</time>
      </trkpt>
      <trkpt lat="46.035897620022297" lon="10.484492015093565">
        <ele>2313.0700000000002</ele>
        <time>2018-07-09T07:39:33Z</time>
      </trkpt>
      <trkpt lat="46.035931147634983" lon="10.484464690089226">
        <ele>2311.6300000000001</ele>
        <time>2018-07-09T07:39:47Z</time>
      </trkpt>
      <trkpt lat="46.035986635833979" lon="10.484432000666857">
        <ele>2311.1500000000001</ele>
        <time>2018-07-09T07:39:57Z</time>
      </trkpt>
      <trkpt lat="46.036012284457684" lon="10.484453374519944">
        <ele>2313.0700000000002</ele>
        <time>2018-07-09T07:40:08Z</time>
      </trkpt>
      <trkpt lat="46.036058971658349" lon="10.484456308186054">
        <ele>2314.9899999999998</ele>
        <time>2018-07-09T07:40:19Z</time>
      </trkpt>
      <trkpt lat="46.036069951951504" lon="10.484456308186054">
        <ele>2315.4699999999998</ele>
        <time>2018-07-09T07:40:30Z</time>
      </trkpt>
      <trkpt lat="46.036101216450334" lon="10.484441388398409">
        <ele>2315.4699999999998</ele>
        <time>2018-07-09T07:40:39Z</time>
      </trkpt>
      <trkpt lat="46.036162739619613" lon="10.484405849128962">
        <ele>2314.5100000000002</ele>
        <time>2018-07-09T07:40:48Z</time>
      </trkpt>
      <trkpt lat="46.036275224760175" lon="10.484367795288563">
        <ele>2314.0300000000002</ele>
        <time>2018-07-09T07:41:00Z</time>
      </trkpt>
      <trkpt lat="46.036278745159507" lon="10.484365783631802">
        <ele>2314.0300000000002</ele>
        <time>2018-07-09T07:41:01Z</time>
      </trkpt>
      <trkpt lat="46.036336496472359" lon="10.484356647357345">
        <ele>2314.5100000000002</ele>
        <time>2018-07-09T07:41:09Z</time>
      </trkpt>
      <trkpt lat="46.036404222249985" lon="10.484303841367364">
        <ele>2314.0300000000002</ele>
        <time>2018-07-09T07:41:18Z</time>
      </trkpt>
      <trkpt lat="46.036434229463339" lon="10.484292274340987">
        <ele>2313.5500000000002</ele>
        <time>2018-07-09T07:41:21Z</time>
      </trkpt>
      <trkpt lat="46.03654520586133" lon="10.484225386753678">
        <ele>2313.0700000000002</ele>
        <time>2018-07-09T07:41:32Z</time>
      </trkpt>
      <trkpt lat="46.036623576655984" lon="10.484237875789404">
        <ele>2313.0700000000002</ele>
        <time>2018-07-09T07:41:42Z</time>
      </trkpt>
      <trkpt lat="46.036648135632277" lon="10.484224883839488">
        <ele>2313.5500000000002</ele>
        <time>2018-07-09T07:41:46Z</time>
      </trkpt>
      <trkpt lat="46.036683339625597" lon="10.48421080224216">
        <ele>2313.5500000000002</ele>
        <time>2018-07-09T07:41:50Z</time>
      </trkpt>
      <trkpt lat="46.036783838644624" lon="10.484188087284565">
        <ele>2313.5500000000002</ele>
        <time>2018-07-09T07:42:03Z</time>
      </trkpt>
      <trkpt lat="46.03684963658452" lon="10.484209293499589">
        <ele>2315.4699999999998</ele>
        <time>2018-07-09T07:42:15Z</time>
      </trkpt>
      <trkpt lat="46.036922056227922" lon="10.484213316813111">
        <ele>2316.9099999999999</ele>
        <time>2018-07-09T07:42:25Z</time>
      </trkpt>
      <trkpt lat="46.036954410374165" lon="10.484268050640821">
        <ele>2318.3600000000001</ele>
        <time>2018-07-09T07:42:35Z</time>
      </trkpt>
      <trkpt lat="46.036868412047625" lon="10.48432077281177">
        <ele>2319.8000000000002</ele>
        <time>2018-07-09T07:42:47Z</time>
      </trkpt>
      <trkpt lat="46.036815186962485" lon="10.484371818602085">
        <ele>2320.7600000000002</ele>
        <time>2018-07-09T07:42:57Z</time>
      </trkpt>
      <trkpt lat="46.036793142557144" lon="10.484407022595406">
        <ele>2322.6799999999998</ele>
        <time>2018-07-09T07:43:07Z</time>
      </trkpt>
      <trkpt lat="46.036765649914742" lon="10.484419595450163">
        <ele>2323.1599999999999</ele>
        <time>2018-07-09T07:43:17Z</time>
      </trkpt>
      <trkpt lat="46.03679733350873" lon="10.484374081715941">
        <ele>2324.6100000000001</ele>
        <time>2018-07-09T07:43:26Z</time>
      </trkpt>
      <trkpt lat="46.036838321015239" lon="10.484366370365024">
        <ele>2325.0900000000001</ele>
        <time>2018-07-09T07:43:36Z</time>
      </trkpt>
      <trkpt lat="46.036928007379174" lon="10.484382212162018">
        <ele>2326.5300000000002</ele>
        <time>2018-07-09T07:43:49Z</time>
      </trkpt>
      <trkpt lat="46.03697226382792" lon="10.484422696754336">
        <ele>2328.4499999999998</ele>
        <time>2018-07-09T07:44:00Z</time>
      </trkpt>
      <trkpt lat="46.036923984065652" lon="10.484505426138639">
        <ele>2329.8899999999999</ele>
        <time>2018-07-09T07:44:11Z</time>
      </trkpt>
      <trkpt lat="46.036905124783516" lon="10.48452596180141">
        <ele>2331.8099999999999</ele>
        <time>2018-07-09T07:44:22Z</time>
      </trkpt>
      <trkpt lat="46.036944938823581" lon="10.484502324834466">
        <ele>2333.2600000000002</ele>
        <time>2018-07-09T07:44:33Z</time>
      </trkpt>
      <trkpt lat="46.037021214142442" lon="10.48450693488121">
        <ele>2334.2199999999998</ele>
        <time>2018-07-09T07:44:46Z</time>
      </trkpt>
      <trkpt lat="46.037092711776495" lon="10.484554376453161">
        <ele>2335.6599999999999</ele>
        <time>2018-07-09T07:44:58Z</time>
      </trkpt>
      <trkpt lat="46.037144931033254" lon="10.484606176614761">
        <ele>2336.6199999999999</ele>
        <time>2018-07-09T07:45:09Z</time>
      </trkpt>
      <trkpt lat="46.037177117541432" lon="10.484639955684543">
        <ele>2337.0999999999999</ele>
        <time>2018-07-09T07:45:15Z</time>
      </trkpt>
      <trkpt lat="46.037243418395519" lon="10.48471606336534">
        <ele>2338.0599999999999</ele>
        <time>2018-07-09T07:45:25Z</time>
      </trkpt>
      <trkpt lat="46.037311982363462" lon="10.484788063913584">
        <ele>2338.54</ele>
        <time>2018-07-09T07:45:35Z</time>
      </trkpt>
      <trkpt lat="46.037380630150437" lon="10.484851682558656">
        <ele>2338.54</ele>
        <time>2018-07-09T07:45:46Z</time>
      </trkpt>
      <trkpt lat="46.037441482767463" lon="10.484888143837452">
        <ele>2337.5799999999999</ele>
        <time>2018-07-09T07:45:54Z</time>
      </trkpt>
      <trkpt lat="46.037487499415874" lon="10.484910607337952">
        <ele>2337.5799999999999</ele>
        <time>2018-07-09T07:46:00Z</time>
      </trkpt>
      <trkpt lat="46.037540221586823" lon="10.484939273446798">
        <ele>2337.5799999999999</ele>
        <time>2018-07-09T07:46:10Z</time>
      </trkpt>
      <trkpt lat="46.037611719220877" lon="10.484953187406063">
        <ele>2336.6199999999999</ele>
        <time>2018-07-09T07:46:23Z</time>
      </trkpt>
      <trkpt lat="46.037620520219207" lon="10.484960731118917">
        <ele>2336.6199999999999</ele>
        <time>2018-07-09T07:46:24Z</time>
      </trkpt>
      <trkpt lat="46.037657735869288" lon="10.484976321458817">
        <ele>2335.6599999999999</ele>
        <time>2018-07-09T07:46:29Z</time>
      </trkpt>
      <trkpt lat="46.037675756961107" lon="10.484970537945628">
        <ele>2335.1799999999998</ele>
        <time>2018-07-09T07:46:31Z</time>
      </trkpt>
      <trkpt lat="46.037769382819533" lon="10.485004317015409">
        <ele>2333.2600000000002</ele>
        <time>2018-07-09T07:46:42Z</time>
      </trkpt>
      <trkpt lat="46.037875581532717" lon="10.485031474381685">
        <ele>2331.8099999999999</ele>
        <time>2018-07-09T07:46:53Z</time>
      </trkpt>
      <trkpt lat="46.037984043359756" lon="10.485069779679179">
        <ele>2331.8099999999999</ele>
        <time>2018-07-09T07:47:04Z</time>
      </trkpt>
      <trkpt lat="46.03809267282486" lon="10.485079418867826">
        <ele>2330.3699999999999</ele>
        <time>2018-07-09T07:47:14Z</time>
      </trkpt>
      <trkpt lat="46.038113040849566" lon="10.485074473544955">
        <ele>2330.3699999999999</ele>
        <time>2018-07-09T07:47:16Z</time>
      </trkpt>
      <trkpt lat="46.038213707506657" lon="10.485053015872836">
        <ele>2331.3299999999999</ele>
        <time>2018-07-09T07:47:28Z</time>
      </trkpt>
      <trkpt lat="46.038307417184114" lon="10.484964335337281">
        <ele>2330.3699999999999</ele>
        <time>2018-07-09T07:47:40Z</time>
      </trkpt>
      <trkpt lat="46.038303393870592" lon="10.484975147992373">
        <ele>2330.8499999999999</ele>
        <time>2018-07-09T07:47:51Z</time>
      </trkpt>
      <trkpt lat="46.038312613964081" lon="10.484969364479184">
        <ele>2330.3699999999999</ele>
        <time>2018-07-09T07:48:10Z</time>
      </trkpt>
      <trkpt lat="46.038323678076267" lon="10.484952600672841">
        <ele>2329.8899999999999</ele>
        <time>2018-07-09T07:48:23Z</time>
      </trkpt>
      <trkpt lat="46.038345890119672" lon="10.484934831038117">
        <ele>2329.8899999999999</ele>
        <time>2018-07-09T07:48:26Z</time>
      </trkpt>
      <trkpt lat="46.038431888446212" lon="10.484857717528939">
        <ele>2328.9299999999998</ele>
        <time>2018-07-09T07:48:37Z</time>
      </trkpt>
      <trkpt lat="46.038456950336695" lon="10.484823184087873">
        <ele>2328.9299999999998</ele>
        <time>2018-07-09T07:48:48Z</time>
      </trkpt>
      <trkpt lat="46.038468098267913" lon="10.484822848811746">
        <ele>2328.9299999999998</ele>
        <time>2018-07-09T07:49:05Z</time>
      </trkpt>
      <trkpt lat="46.038466840982437" lon="10.484820082783699">
        <ele>2328.9299999999998</ele>
        <time>2018-07-09T07:49:28Z</time>
      </trkpt>
      <trkpt lat="46.038495590910316" lon="10.484825950115919">
        <ele>2330.3699999999999</ele>
        <time>2018-07-09T07:49:36Z</time>
      </trkpt>
      <trkpt lat="46.038488550111651" lon="10.484826788306236">
        <ele>2329.4099999999999</ele>
        <time>2018-07-09T07:49:45Z</time>
      </trkpt>
      <trkpt lat="46.038465164601803" lon="10.484856041148305">
        <ele>2329.4099999999999</ele>
        <time>2018-07-09T07:50:01Z</time>
      </trkpt>
      <trkpt lat="46.038510762155056" lon="10.484817400574684">
        <ele>2329.4099999999999</ele>
        <time>2018-07-09T07:50:13Z</time>
      </trkpt>
      <trkpt lat="46.038488717749715" lon="10.484819915145636">
        <ele>2329.8899999999999</ele>
        <time>2018-07-09T07:50:26Z</time>
      </trkpt>
      <trkpt lat="46.038495423272252" lon="10.484795020893216">
        <ele>2329.4099999999999</ele>
        <time>2018-07-09T07:50:38Z</time>
      </trkpt>
      <trkpt lat="46.038486454635859" lon="10.484799295663834">
        <ele>2329.4099999999999</ele>
        <time>2018-07-09T07:50:51Z</time>
      </trkpt>
      <trkpt lat="46.038516964763403" lon="10.484785716980696">
        <ele>2328.9299999999998</ele>
        <time>2018-07-09T07:51:07Z</time>
      </trkpt>
      <trkpt lat="46.03850950486958" lon="10.484780939295888">
        <ele>2328.9299999999998</ele>
        <time>2018-07-09T07:51:15Z</time>
      </trkpt>
      <trkpt lat="46.03850263170898" lon="10.484790662303567">
        <ele>2329.4099999999999</ele>
        <time>2018-07-09T07:51:29Z</time>
      </trkpt>
      <trkpt lat="46.038492657244205" lon="10.484785716980696">
        <ele>2329.4099999999999</ele>
        <time>2018-07-09T07:51:45Z</time>
      </trkpt>
      <trkpt lat="46.038505146279931" lon="10.484769875183702">
        <ele>2328.4499999999998</ele>
        <time>2018-07-09T07:51:54Z</time>
      </trkpt>
      <trkpt lat="46.038512270897627" lon="10.484788231551647">
        <ele>2328.4499999999998</ele>
        <time>2018-07-09T07:52:06Z</time>
      </trkpt>
      <trkpt lat="46.038531130179763" lon="10.484722433611751">
        <ele>2328.9299999999998</ele>
        <time>2018-07-09T07:52:18Z</time>
      </trkpt>
      <trkpt lat="46.03852367028594" lon="10.484724277630448">
        <ele>2328.9299999999998</ele>
        <time>2018-07-09T07:52:34Z</time>
      </trkpt>
      <trkpt lat="46.038532387465239" lon="10.484725451096892">
        <ele>2328.9299999999998</ele>
        <time>2018-07-09T07:52:49Z</time>
      </trkpt>
      <trkpt lat="46.038585780188441" lon="10.484648840501904">
        <ele>2327.9699999999998</ele>
        <time>2018-07-09T07:52:59Z</time>
      </trkpt>
      <trkpt lat="46.03866876102984" lon="10.484487656503916">
        <ele>2326.5300000000002</ele>
        <time>2018-07-09T07:53:12Z</time>
      </trkpt>
      <trkpt lat="46.038755597546697" lon="10.484305936843157">
        <ele>2325.5700000000002</ele>
        <time>2018-07-09T07:53:26Z</time>
      </trkpt>
      <trkpt lat="46.038853665813804" lon="10.484259417280555">
        <ele>2324.6100000000001</ele>
        <time>2018-07-09T07:53:36Z</time>
      </trkpt>
      <trkpt lat="46.038960870355368" lon="10.484318258240819">
        <ele>2324.1199999999999</ele>
        <time>2018-07-09T07:53:47Z</time>
      </trkpt>
      <trkpt lat="46.038973778486252" lon="10.484311887994409">
        <ele>2323.6399999999999</ele>
        <time>2018-07-09T07:53:58Z</time>
      </trkpt>
      <trkpt lat="46.03902013041079" lon="10.484277354553342">
        <ele>2321.2399999999998</ele>
        <time>2018-07-09T07:54:09Z</time>
      </trkpt>
      <trkpt lat="46.03906606324017" lon="10.484257405623794">
        <ele>2319.3200000000002</ele>
        <time>2018-07-09T07:54:18Z</time>
      </trkpt>
      <trkpt lat="46.039145272225142" lon="10.484262434765697">
        <ele>2317.8800000000001</ele>
        <time>2018-07-09T07:54:26Z</time>
      </trkpt>
      <trkpt lat="46.039223307743669" lon="10.484227230772376">
        <ele>2316.9099999999999</ele>
        <time>2018-07-09T07:54:35Z</time>
      </trkpt>
      <trkpt lat="46.039349790662527" lon="10.484175682067871">
        <ele>2314.5100000000002</ele>
        <time>2018-07-09T07:54:47Z</time>
      </trkpt>
      <trkpt lat="46.039395974949002" lon="10.484171574935317">
        <ele>2314.0300000000002</ele>
        <time>2018-07-09T07:54:52Z</time>
      </trkpt>
      <trkpt lat="46.039442494511604" lon="10.484167635440826">
        <ele>2314.0300000000002</ele>
        <time>2018-07-09T07:54:56Z</time>
      </trkpt>
      <trkpt lat="46.03958347812295" lon="10.484142489731312">
        <ele>2313.0700000000002</ele>
        <time>2018-07-09T07:55:09Z</time>
      </trkpt>
      <trkpt lat="46.039665536954999" lon="10.484045762568712">
        <ele>2311.6300000000001</ele>
        <time>2018-07-09T07:55:19Z</time>
      </trkpt>
      <trkpt lat="46.039725299924612" lon="10.48393227159977">
        <ele>2311.6300000000001</ele>
        <time>2018-07-09T07:55:31Z</time>
      </trkpt>
      <trkpt lat="46.039732927456498" lon="10.483968732878566">
        <ele>2311.6300000000001</ele>
        <time>2018-07-09T07:55:40Z</time>
      </trkpt>
      <trkpt lat="46.039761593565345" lon="10.483943251892924">
        <ele>2311.1500000000001</ele>
        <time>2018-07-09T07:55:52Z</time>
      </trkpt>
      <trkpt lat="46.039758156985044" lon="10.483964793384075">
        <ele>2310.6700000000001</ele>
        <time>2018-07-09T07:56:04Z</time>
      </trkpt>
      <trkpt lat="46.039779614657164" lon="10.484004523605108">
        <ele>2310.1900000000001</ele>
        <time>2018-07-09T07:56:14Z</time>
      </trkpt>
      <trkpt lat="46.039786990731955" lon="10.484036793932319">
        <ele>2310.1900000000001</ele>
        <time>2018-07-09T07:56:25Z</time>
      </trkpt>
      <trkpt lat="46.039791265502572" lon="10.484032854437828">
        <ele>2309.6999999999998</ele>
        <time>2018-07-09T07:56:34Z</time>
      </trkpt>
      <trkpt lat="46.039769640192389" lon="10.484048612415791">
        <ele>2310.1900000000001</ele>
        <time>2018-07-09T07:56:43Z</time>
      </trkpt>
      <trkpt lat="46.039740806445479" lon="10.484089516103268">
        <ele>2309.2199999999998</ele>
        <time>2018-07-09T07:56:53Z</time>
      </trkpt>
      <trkpt lat="46.039749272167683" lon="10.484082391485572">
        <ele>2309.2199999999998</ele>
        <time>2018-07-09T07:57:04Z</time>
      </trkpt>
      <trkpt lat="46.03975941427052" lon="10.484066968783736">
        <ele>2308.7399999999998</ele>
        <time>2018-07-09T07:57:13Z</time>
      </trkpt>
      <trkpt lat="46.0397725738585" lon="10.484076356515288">
        <ele>2309.2199999999998</ele>
        <time>2018-07-09T07:57:26Z</time>
      </trkpt>
      <trkpt lat="46.03977114893496" lon="10.48407987691462">
        <ele>2308.7399999999998</ele>
        <time>2018-07-09T07:57:51Z</time>
      </trkpt>
      <trkpt lat="46.039770478382707" lon="10.484075685963035">
        <ele>2308.2600000000002</ele>
        <time>2018-07-09T07:58:11Z</time>
      </trkpt>
      <trkpt lat="46.03976184502244" lon="10.484088258817792">
        <ele>2308.2600000000002</ele>
        <time>2018-07-09T07:58:31Z</time>
      </trkpt>
      <trkpt lat="46.039751535281539" lon="10.484067890793085">
        <ele>2308.2600000000002</ele>
        <time>2018-07-09T07:58:58Z</time>
      </trkpt>
      <trkpt lat="46.039755726233125" lon="10.484078284353018">
        <ele>2307.7800000000002</ele>
        <time>2018-07-09T07:59:21Z</time>
      </trkpt>
      <trkpt lat="46.039764946326613" lon="10.484082978218794">
        <ele>2307.7800000000002</ele>
        <time>2018-07-09T07:59:49Z</time>
      </trkpt>
      <trkpt lat="46.039761928841472" lon="10.484069734811783">
        <ele>2308.2600000000002</ele>
        <time>2018-07-09T08:00:15Z</time>
      </trkpt>
      <trkpt lat="46.039749858900905" lon="10.484065292403102">
        <ele>2308.2600000000002</ele>
        <time>2018-07-09T08:00:39Z</time>
      </trkpt>
      <trkpt lat="46.039745584130287" lon="10.484065460041165">
        <ele>2307.7800000000002</ele>
        <time>2018-07-09T08:00:57Z</time>
      </trkpt>
      <trkpt lat="46.039758995175362" lon="10.484073171392083">
        <ele>2308.2600000000002</ele>
        <time>2018-07-09T08:01:19Z</time>
      </trkpt>
      <trkpt lat="46.039755139499903" lon="10.484084319323301">
        <ele>2307.7800000000002</ele>
        <time>2018-07-09T08:01:49Z</time>
      </trkpt>
      <trkpt lat="46.039742063730955" lon="10.48405984416604">
        <ele>2307.7800000000002</ele>
        <time>2018-07-09T08:02:23Z</time>
      </trkpt>
      <trkpt lat="46.039747428148985" lon="10.484078703448176">
        <ele>2308.2600000000002</ele>
        <time>2018-07-09T08:02:46Z</time>
      </trkpt>
      <trkpt lat="46.039735358208418" lon="10.484081637114286">
        <ele>2307.7800000000002</ele>
        <time>2018-07-09T08:03:16Z</time>
      </trkpt>
      <trkpt lat="46.039743991568685" lon="10.484085576608777">
        <ele>2307.7800000000002</ele>
        <time>2018-07-09T08:03:40Z</time>
      </trkpt>
      <trkpt lat="46.039752624928951" lon="10.484076188877225">
        <ele>2308.2600000000002</ele>
        <time>2018-07-09T08:04:02Z</time>
      </trkpt>
      <trkpt lat="46.039762683212757" lon="10.48408473841846">
        <ele>2307.7800000000002</ele>
        <time>2018-07-09T08:04:28Z</time>
      </trkpt>
      <trkpt lat="46.039754385128617" lon="10.484071578830481">
        <ele>2307.7800000000002</ele>
        <time>2018-07-09T08:04:57Z</time>
      </trkpt>
      <trkpt lat="46.039747763425112" lon="10.484057161957026">
        <ele>2307.3000000000002</ele>
        <time>2018-07-09T08:05:21Z</time>
      </trkpt>
      <trkpt lat="46.039759078994393" lon="10.484079206362367">
        <ele>2307.7800000000002</ele>
        <time>2018-07-09T08:05:49Z</time>
      </trkpt>
      <trkpt lat="46.039754888042808" lon="10.484065543860197">
        <ele>2307.3000000000002</ele>
        <time>2018-07-09T08:06:14Z</time>
      </trkpt>
      <trkpt lat="46.039729909971356" lon="10.484077362343669">
        <ele>2307.7800000000002</ele>
        <time>2018-07-09T08:06:37Z</time>
      </trkpt>
      <trkpt lat="46.039760587736964" lon="10.484072249382734">
        <ele>2307.7800000000002</ele>
        <time>2018-07-09T08:07:03Z</time>
      </trkpt>
      <trkpt lat="46.039744494482875" lon="10.48408423550427">
        <ele>2307.3000000000002</ele>
        <time>2018-07-09T08:07:24Z</time>
      </trkpt>
      <trkpt lat="46.03974231518805" lon="10.484085073694587">
        <ele>2307.3000000000002</ele>
        <time>2018-07-09T08:07:48Z</time>
      </trkpt>
      <trkpt lat="46.039765030145645" lon="10.484055988490582">
        <ele>2306.8200000000002</ele>
        <time>2018-07-09T08:08:14Z</time>
      </trkpt>
      <trkpt lat="46.039757234975696" lon="10.484064118936658">
        <ele>2307.3000000000002</ele>
        <time>2018-07-09T08:08:35Z</time>
      </trkpt>
      <trkpt lat="46.039761258289218" lon="10.484070405364037">
        <ele>2306.8200000000002</ele>
        <time>2018-07-09T08:09:02Z</time>
      </trkpt>
      <trkpt lat="46.039763856679201" lon="10.484055569395423">
        <ele>2306.8200000000002</ele>
        <time>2018-07-09T08:09:20Z</time>
      </trkpt>
      <trkpt lat="46.039752373471856" lon="10.484063196927309">
        <ele>2306.8200000000002</ele>
        <time>2018-07-09T08:09:42Z</time>
      </trkpt>
      <trkpt lat="46.039736866950989" lon="10.4840671364218">
        <ele>2306.8200000000002</ele>
        <time>2018-07-09T08:10:00Z</time>
      </trkpt>
      <trkpt lat="46.039734268561006" lon="10.484080631285906">
        <ele>2306.8200000000002</ele>
        <time>2018-07-09T08:10:19Z</time>
      </trkpt>
      <trkpt lat="46.039745919406414" lon="10.484073171392083">
        <ele>2307.3000000000002</ele>
        <time>2018-07-09T08:10:35Z</time>
      </trkpt>
      <trkpt lat="46.03974818252027" lon="10.484051629900932">
        <ele>2306.8200000000002</ele>
        <time>2018-07-09T08:10:57Z</time>
      </trkpt>
      <trkpt lat="46.03973401710391" lon="10.484068477526307">
        <ele>2306.8200000000002</ele>
        <time>2018-07-09T08:11:28Z</time>
      </trkpt>
      <trkpt lat="46.039739213883877" lon="10.484072752296925">
        <ele>2306.8200000000002</ele>
        <time>2018-07-09T08:11:54Z</time>
      </trkpt>
      <trkpt lat="46.039777435362339" lon="10.484079206362367">
        <ele>2306.8200000000002</ele>
        <time>2018-07-09T08:12:17Z</time>
      </trkpt>
      <trkpt lat="46.039767460897565" lon="10.484066884964705">
        <ele>2307.3000000000002</ele>
        <time>2018-07-09T08:12:37Z</time>
      </trkpt>
      <trkpt lat="46.039756564423442" lon="10.484046181663871">
        <ele>2307.3000000000002</ele>
        <time>2018-07-09T08:12:58Z</time>
      </trkpt>
      <trkpt lat="46.039755726233125" lon="10.484055317938328">
        <ele>2307.3000000000002</ele>
        <time>2018-07-09T08:13:15Z</time>
      </trkpt>
      <trkpt lat="46.039740638807416" lon="10.484068477526307">
        <ele>2307.3000000000002</ele>
        <time>2018-07-09T08:13:29Z</time>
      </trkpt>
      <trkpt lat="46.039706859737635" lon="10.484075183048844">
        <ele>2306.8200000000002</ele>
        <time>2018-07-09T08:13:52Z</time>
      </trkpt>
      <trkpt lat="46.03971297852695" lon="10.484061939641833">
        <ele>2306.8200000000002</ele>
        <time>2018-07-09T08:14:13Z</time>
      </trkpt>
      <trkpt lat="46.039713313803077" lon="10.48406420275569">
        <ele>2306.8200000000002</ele>
        <time>2018-07-09T08:14:42Z</time>
      </trkpt>
      <trkpt lat="46.039739297702909" lon="10.484084151685238">
        <ele>2306.8200000000002</ele>
        <time>2018-07-09T08:15:08Z</time>
      </trkpt>
      <trkpt lat="46.039728652685881" lon="10.484070321545005">
        <ele>2306.8200000000002</ele>
        <time>2018-07-09T08:15:35Z</time>
      </trkpt>
      <trkpt lat="46.039735358208418" lon="10.48405883833766">
        <ele>2307.3000000000002</ele>
        <time>2018-07-09T08:15:56Z</time>
      </trkpt>
      <trkpt lat="46.039754971861839" lon="10.484073925763369">
        <ele>2307.7800000000002</ele>
        <time>2018-07-09T08:16:06Z</time>
      </trkpt>
      <trkpt lat="46.039766119793057" lon="10.484067304059863">
        <ele>2307.3000000000002</ele>
        <time>2018-07-09T08:16:15Z</time>
      </trkpt>
      <trkpt lat="46.039754971861839" lon="10.484036793932319">
        <ele>2308.2600000000002</ele>
        <time>2018-07-09T08:16:30Z</time>
      </trkpt>
      <trkpt lat="46.039770562201738" lon="10.484035033732653">
        <ele>2307.7800000000002</ele>
        <time>2018-07-09T08:16:44Z</time>
      </trkpt>
      <trkpt lat="46.039769640192389" lon="10.483988346531987">
        <ele>2308.7399999999998</ele>
        <time>2018-07-09T08:16:53Z</time>
      </trkpt>
      <trkpt lat="46.039749272167683" lon="10.48392397351563">
        <ele>2309.2199999999998</ele>
        <time>2018-07-09T08:17:06Z</time>
      </trkpt>
      <trkpt lat="46.039734771475196" lon="10.483945850282907">
        <ele>2309.2199999999998</ele>
        <time>2018-07-09T08:17:14Z</time>
      </trkpt>
      <trkpt lat="46.039764359593391" lon="10.483916597440839">
        <ele>2309.2199999999998</ele>
        <time>2018-07-09T08:17:29Z</time>
      </trkpt>
      <trkpt lat="46.039802581071854" lon="10.483929924666882">
        <ele>2309.6999999999998</ele>
        <time>2018-07-09T08:17:41Z</time>
      </trkpt>
      <trkpt lat="46.03980828076601" lon="10.483942497521639">
        <ele>2309.6999999999998</ele>
        <time>2018-07-09T08:17:54Z</time>
      </trkpt>
      <trkpt lat="46.039826385676861" lon="10.483950041234493">
        <ele>2309.6999999999998</ele>
        <time>2018-07-09T08:18:13Z</time>
      </trkpt>
      <trkpt lat="46.039839461445808" lon="10.48393520526588">
        <ele>2309.6999999999998</ele>
        <time>2018-07-09T08:18:15Z</time>
      </trkpt>
      <trkpt lat="46.039883214980364" lon="10.483917854726315">
        <ele>2309.6999999999998</ele>
        <time>2018-07-09T08:18:21Z</time>
      </trkpt>
      <trkpt lat="46.039963848888874" lon="10.483933612704277">
        <ele>2309.2199999999998</ele>
        <time>2018-07-09T08:18:30Z</time>
      </trkpt>
      <trkpt lat="46.040070131421089" lon="10.484004942700267">
        <ele>2306.8200000000002</ele>
        <time>2018-07-09T08:18:42Z</time>
      </trkpt>
      <trkpt lat="46.04008236899972" lon="10.484012067317963">
        <ele>2306.3400000000001</ele>
        <time>2018-07-09T08:18:44Z</time>
      </trkpt>
      <trkpt lat="46.040102317929268" lon="10.484012234956026">
        <ele>2305.8600000000001</ele>
        <time>2018-07-09T08:18:46Z</time>
      </trkpt>
      <trkpt lat="46.040219413116574" lon="10.483971666544676">
        <ele>2303.46</ele>
        <time>2018-07-09T08:18:59Z</time>
      </trkpt>
      <trkpt lat="46.04030717164278" lon="10.483920034021139">
        <ele>2302.98</ele>
        <time>2018-07-09T08:19:09Z</time>
      </trkpt>
      <trkpt lat="46.040428373962641" lon="10.483898408710957">
        <ele>2302.98</ele>
        <time>2018-07-09T08:19:21Z</time>
      </trkpt>
      <trkpt lat="46.040545217692852" lon="10.483891870826483">
        <ele>2303.9400000000001</ele>
        <time>2018-07-09T08:19:34Z</time>
      </trkpt>
      <trkpt lat="46.040659043937922" lon="10.483904276043177">
        <ele>2304.9000000000001</ele>
        <time>2018-07-09T08:19:48Z</time>
      </trkpt>
      <trkpt lat="46.040755100548267" lon="10.483891032636166">
        <ele>2304.9000000000001</ele>
        <time>2018-07-09T08:20:00Z</time>
      </trkpt>
      <trkpt lat="46.040778569877148" lon="10.483878627419472">
        <ele>2304.9000000000001</ele>
        <time>2018-07-09T08:20:03Z</time>
      </trkpt>
      <trkpt lat="46.040798686444759" lon="10.483879800885916">
        <ele>2304.9000000000001</ele>
        <time>2018-07-09T08:20:05Z</time>
      </trkpt>
      <trkpt lat="46.040840344503522" lon="10.48389907926321">
        <ele>2305.3800000000001</ele>
        <time>2018-07-09T08:20:10Z</time>
      </trkpt>
      <trkpt lat="46.040921313688159" lon="10.483892289921641">
        <ele>2305.3800000000001</ele>
        <time>2018-07-09T08:20:20Z</time>
      </trkpt>
      <trkpt lat="46.040961798280478" lon="10.483872760087252">
        <ele>2305.3800000000001</ele>
        <time>2018-07-09T08:20:26Z</time>
      </trkpt>
      <trkpt lat="46.041029272601008" lon="10.483845518901944">
        <ele>2305.8600000000001</ele>
        <time>2018-07-09T08:20:37Z</time>
      </trkpt>
      <trkpt lat="46.041134046390653" lon="10.48384384252131">
        <ele>2304.4200000000001</ele>
        <time>2018-07-09T08:20:48Z</time>
      </trkpt>
      <trkpt lat="46.041203364729881" lon="10.483811572194099">
        <ele>2304.9000000000001</ele>
        <time>2018-07-09T08:20:58Z</time>
      </trkpt>
      <trkpt lat="46.041226666420698" lon="10.483791707083583">
        <ele>2305.3800000000001</ele>
        <time>2018-07-09T08:21:02Z</time>
      </trkpt>
      <trkpt lat="46.041268575936556" lon="10.483805034309626">
        <ele>2305.3800000000001</ele>
        <time>2018-07-09T08:21:06Z</time>
      </trkpt>
      <trkpt lat="46.041370667517185" lon="10.483789276331663">
        <ele>2304.9000000000001</ele>
        <time>2018-07-09T08:21:18Z</time>
      </trkpt>
      <trkpt lat="46.041449122130871" lon="10.483757676556706">
        <ele>2304.9000000000001</ele>
        <time>2018-07-09T08:21:30Z</time>
      </trkpt>
      <trkpt lat="46.041521457955241" lon="10.483726831153035">
        <ele>2305.3800000000001</ele>
        <time>2018-07-09T08:21:40Z</time>
      </trkpt>
      <trkpt lat="46.041525648906827" lon="10.483722388744354">
        <ele>2305.3800000000001</ele>
        <time>2018-07-09T08:21:41Z</time>
      </trkpt>
      <trkpt lat="46.04159714654088" lon="10.483714677393436">
        <ele>2305.3800000000001</ele>
        <time>2018-07-09T08:21:54Z</time>
      </trkpt>
      <trkpt lat="46.041645845398307" lon="10.483723813667893">
        <ele>2305.3800000000001</ele>
        <time>2018-07-09T08:22:05Z</time>
      </trkpt>
      <trkpt lat="46.041706865653396" lon="10.483713755384088">
        <ele>2305.3800000000001</ele>
        <time>2018-07-09T08:22:15Z</time>
      </trkpt>
      <trkpt lat="46.041779285296798" lon="10.483732614666224">
        <ele>2304.9000000000001</ele>
        <time>2018-07-09T08:22:24Z</time>
      </trkpt>
      <trkpt lat="46.041806526482105" lon="10.483736051246524">
        <ele>2304.9000000000001</ele>
        <time>2018-07-09T08:22:27Z</time>
      </trkpt>
      <trkpt lat="46.041825050488114" lon="10.483732782304287">
        <ele>2304.9000000000001</ele>
        <time>2018-07-09T08:22:29Z</time>
      </trkpt>
      <trkpt lat="46.04189763776958" lon="10.483710570260882">
        <ele>2304.4200000000001</ele>
        <time>2018-07-09T08:22:38Z</time>
      </trkpt>
      <trkpt lat="46.041926220059395" lon="10.483696488663554">
        <ele>2304.4200000000001</ele>
        <time>2018-07-09T08:22:41Z</time>
      </trkpt>
      <trkpt lat="46.041972152888775" lon="10.483697662129998">
        <ele>2303.9400000000001</ele>
        <time>2018-07-09T08:22:46Z</time>
      </trkpt>
      <trkpt lat="46.042066868394613" lon="10.483752815052867">
        <ele>2304.9000000000001</ele>
        <time>2018-07-09T08:22:57Z</time>
      </trkpt>
      <trkpt lat="46.042133923619986" lon="10.483817858621478">
        <ele>2304.4200000000001</ele>
        <time>2018-07-09T08:23:06Z</time>
      </trkpt>
      <trkpt lat="46.042229561135173" lon="10.483834706246853">
        <ele>2303.46</ele>
        <time>2018-07-09T08:23:18Z</time>
      </trkpt>
      <trkpt lat="46.04223383590579" lon="10.483832694590092">
        <ele>2303.46</ele>
        <time>2018-07-09T08:23:19Z</time>
      </trkpt>
      <trkpt lat="46.04231690056622" lon="10.483818026259542">
        <ele>2303.46</ele>
        <time>2018-07-09T08:23:29Z</time>
      </trkpt>
      <trkpt lat="46.042374735698104" lon="10.483920788392425">
        <ele>2303.9400000000001</ele>
        <time>2018-07-09T08:23:40Z</time>
      </trkpt>
      <trkpt lat="46.042378423735499" lon="10.483930008485913">
        <ele>2303.9400000000001</ele>
        <time>2018-07-09T08:23:41Z</time>
      </trkpt>
      <trkpt lat="46.042415387928486" lon="10.484001254662871">
        <ele>2303.9400000000001</ele>
        <time>2018-07-09T08:23:47Z</time>
      </trkpt>
      <trkpt lat="46.042500548064709" lon="10.484034949913621">
        <ele>2303.9400000000001</ele>
        <time>2018-07-09T08:23:59Z</time>
      </trkpt>
      <trkpt lat="46.042573302984238" lon="10.484069567173719">
        <ele>2303.9400000000001</ele>
        <time>2018-07-09T08:24:11Z</time>
      </trkpt>
      <trkpt lat="46.042628288269043" lon="10.484116170555353">
        <ele>2303.46</ele>
        <time>2018-07-09T08:24:19Z</time>
      </trkpt>
      <trkpt lat="46.042649326846004" lon="10.484159756451845">
        <ele>2302.98</ele>
        <time>2018-07-09T08:24:24Z</time>
      </trkpt>
      <trkpt lat="46.042726021260023" lon="10.484209461137652">
        <ele>2303.46</ele>
        <time>2018-07-09T08:24:35Z</time>
      </trkpt>
      <trkpt lat="46.042802128940821" lon="10.484263859689236">
        <ele>2303.46</ele>
        <time>2018-07-09T08:24:45Z</time>
      </trkpt>
      <trkpt lat="46.042857700958848" lon="10.48433979973197">
        <ele>2303.46</ele>
        <time>2018-07-09T08:24:57Z</time>
      </trkpt>
      <trkpt lat="46.042870106175542" lon="10.484374249354005">
        <ele>2302.98</ele>
        <time>2018-07-09T08:24:59Z</time>
      </trkpt>
      <trkpt lat="46.042875219136477" lon="10.48439453355968">
        <ele>2302.98</ele>
        <time>2018-07-09T08:25:01Z</time>
      </trkpt>
      <trkpt lat="46.042883181944489" lon="10.48439989797771">
        <ele>2302.98</ele>
        <time>2018-07-09T08:25:02Z</time>
      </trkpt>
      <trkpt lat="46.042926432564855" lon="10.484504755586386">
        <ele>2301.5300000000002</ele>
        <time>2018-07-09T08:25:12Z</time>
      </trkpt>
      <trkpt lat="46.04295065626502" lon="10.484610451385379">
        <ele>2302.0100000000002</ele>
        <time>2018-07-09T08:25:22Z</time>
      </trkpt>
      <trkpt lat="46.042982758954167" lon="10.484691672027111">
        <ele>2302.4899999999998</ele>
        <time>2018-07-09T08:25:31Z</time>
      </trkpt>
      <trkpt lat="46.04300388135016" lon="10.484721008688211">
        <ele>2302.98</ele>
        <time>2018-07-09T08:25:36Z</time>
      </trkpt>
      <trkpt lat="46.043041599914432" lon="10.484843971207738">
        <ele>2301.5300000000002</ele>
        <time>2018-07-09T08:25:47Z</time>
      </trkpt>
      <trkpt lat="46.043070098385215" lon="10.484876744449139">
        <ele>2301.5300000000002</ele>
        <time>2018-07-09T08:25:53Z</time>
      </trkpt>
      <trkpt lat="46.043080240488052" lon="10.484895519912243">
        <ele>2301.5300000000002</ele>
        <time>2018-07-09T08:26:04Z</time>
      </trkpt>
      <trkpt lat="46.04307915084064" lon="10.484922342002392">
        <ele>2301.0500000000002</ele>
        <time>2018-07-09T08:26:11Z</time>
      </trkpt>
      <trkpt lat="46.043111085891724" lon="10.484937261790037">
        <ele>2301.5300000000002</ele>
        <time>2018-07-09T08:26:16Z</time>
      </trkpt>
      <trkpt lat="46.043158862739801" lon="10.485040275380015">
        <ele>2301.0500000000002</ele>
        <time>2018-07-09T08:26:27Z</time>
      </trkpt>
      <trkpt lat="46.043163053691387" lon="10.485049746930599">
        <ele>2301.0500000000002</ele>
        <time>2018-07-09T08:26:28Z</time>
      </trkpt>
      <trkpt lat="46.043183421716094" lon="10.485129877924919">
        <ele>2300.5700000000002</ele>
        <time>2018-07-09T08:26:35Z</time>
      </trkpt>
      <trkpt lat="46.043209321796894" lon="10.485173128545284">
        <ele>2301.0500000000002</ele>
        <time>2018-07-09T08:26:40Z</time>
      </trkpt>
      <trkpt lat="46.043225834146142" lon="10.485256360843778">
        <ele>2300.5700000000002</ele>
        <time>2018-07-09T08:26:51Z</time>
      </trkpt>
      <trkpt lat="46.043232874944806" lon="10.485309921205044">
        <ele>2301.0500000000002</ele>
        <time>2018-07-09T08:26:56Z</time>
      </trkpt>
      <trkpt lat="46.043254667893052" lon="10.485339090228081">
        <ele>2300.5700000000002</ele>
        <time>2018-07-09T08:26:59Z</time>
      </trkpt>
      <trkpt lat="46.043275622650981" lon="10.485476553440094">
        <ele>2300.0900000000001</ele>
        <time>2018-07-09T08:27:10Z</time>
      </trkpt>
      <trkpt lat="46.043283836916089" lon="10.485497592017055">
        <ele>2300.5700000000002</ele>
        <time>2018-07-09T08:27:12Z</time>
      </trkpt>
      <trkpt lat="46.043318118900061" lon="10.48557797446847">
        <ele>2300.0900000000001</ele>
        <time>2018-07-09T08:27:20Z</time>
      </trkpt>
      <trkpt lat="46.043330524116755" lon="10.48560781404376">
        <ele>2300.0900000000001</ele>
        <time>2018-07-09T08:27:22Z</time>
      </trkpt>
      <trkpt lat="46.043347287923098" lon="10.485657099634409">
        <ele>2299.6100000000001</ele>
        <time>2018-07-09T08:27:27Z</time>
      </trkpt>
      <trkpt lat="46.043352400884032" lon="10.485683837905526">
        <ele>2298.6500000000001</ele>
        <time>2018-07-09T08:27:29Z</time>
      </trkpt>
      <trkpt lat="46.043371427804232" lon="10.485780648887157">
        <ele>2298.6500000000001</ele>
        <time>2018-07-09T08:27:39Z</time>
      </trkpt>
      <trkpt lat="46.043379306793213" lon="10.485870586708188">
        <ele>2296.73</ele>
        <time>2018-07-09T08:27:47Z</time>
      </trkpt>
      <trkpt lat="46.043418534100056" lon="10.485963206738234">
        <ele>2297.21</ele>
        <time>2018-07-09T08:27:57Z</time>
      </trkpt>
      <trkpt lat="46.043444098904729" lon="10.486093461513519">
        <ele>2295.77</ele>
        <time>2018-07-09T08:28:07Z</time>
      </trkpt>
      <trkpt lat="46.043455163016915" lon="10.486126821488142">
        <ele>2294.8000000000002</ele>
        <time>2018-07-09T08:28:19Z</time>
      </trkpt>
      <trkpt lat="46.043494390323758" lon="10.486206533387303">
        <ele>2292.8800000000001</ele>
        <time>2018-07-09T08:28:28Z</time>
      </trkpt>
      <trkpt lat="46.043507549911737" lon="10.486286664381623">
        <ele>2290.96</ele>
        <time>2018-07-09T08:28:37Z</time>
      </trkpt>
      <trkpt lat="46.043505873531103" lon="10.486291106790304">
        <ele>2290.96</ele>
        <time>2018-07-09T08:28:50Z</time>
      </trkpt>
      <trkpt lat="46.043514842167497" lon="10.486321868374944">
        <ele>2290.48</ele>
        <time>2018-07-09T08:29:01Z</time>
      </trkpt>
      <trkpt lat="46.043500173836946" lon="10.486355563625693">
        <ele>2290</ele>
        <time>2018-07-09T08:29:14Z</time>
      </trkpt>
      <trkpt lat="46.04349447414279" lon="10.486366711556911">
        <ele>2290.48</ele>
        <time>2018-07-09T08:29:22Z</time>
      </trkpt>
      <trkpt lat="46.043533785268664" lon="10.486382720991969">
        <ele>2290</ele>
        <time>2018-07-09T08:29:33Z</time>
      </trkpt>
      <trkpt lat="46.043543256819248" lon="10.486457655206323">
        <ele>2288.5599999999999</ele>
        <time>2018-07-09T08:29:41Z</time>
      </trkpt>
      <trkpt lat="46.043561613187194" lon="10.486498055979609">
        <ele>2289.52</ele>
        <time>2018-07-09T08:29:51Z</time>
      </trkpt>
      <trkpt lat="46.043594554066658" lon="10.486557399854064">
        <ele>2289.04</ele>
        <time>2018-07-09T08:29:58Z</time>
      </trkpt>
      <trkpt lat="46.043619699776173" lon="10.486634597182274">
        <ele>2289.52</ele>
        <time>2018-07-09T08:30:08Z</time>
      </trkpt>
      <trkpt lat="46.043656496331096" lon="10.4866729862988">
        <ele>2290.48</ele>
        <time>2018-07-09T08:30:14Z</time>
      </trkpt>
      <trkpt lat="46.043729670345783" lon="10.486781783401966">
        <ele>2290</ele>
        <time>2018-07-09T08:30:25Z</time>
      </trkpt>
      <trkpt lat="46.043749703094363" lon="10.486786058172584">
        <ele>2290</ele>
        <time>2018-07-09T08:30:28Z</time>
      </trkpt>
      <trkpt lat="46.043812064453959" lon="10.486802067607641">
        <ele>2290.96</ele>
        <time>2018-07-09T08:30:37Z</time>
      </trkpt>
      <trkpt lat="46.043862691149116" lon="10.486838109791279">
        <ele>2290.96</ele>
        <time>2018-07-09T08:30:47Z</time>
      </trkpt>
      <trkpt lat="46.043850788846612" lon="10.486861579120159">
        <ele>2290.96</ele>
        <time>2018-07-09T08:30:59Z</time>
      </trkpt>
      <trkpt lat="46.043836791068316" lon="10.486856549978256">
        <ele>2290.96</ele>
        <time>2018-07-09T08:31:10Z</time>
      </trkpt>
      <trkpt lat="46.043966207653284" lon="10.486713638529181">
        <ele>2291.4400000000001</ele>
        <time>2018-07-09T08:31:22Z</time>
      </trkpt>
      <trkpt lat="46.044022785499692" lon="10.486680027097464">
        <ele>2291.9200000000001</ele>
        <time>2018-07-09T08:31:39Z</time>
      </trkpt>
      <trkpt lat="46.044057654216886" lon="10.486695868894458">
        <ele>2291.9200000000001</ele>
        <time>2018-07-09T08:31:48Z</time>
      </trkpt>
      <trkpt lat="46.044078608974814" lon="10.486696874722838">
        <ele>2291.9200000000001</ele>
        <time>2018-07-09T08:31:57Z</time>
      </trkpt>
      <trkpt lat="46.044086990877986" lon="10.486731743440032">
        <ele>2290.48</ele>
        <time>2018-07-09T08:32:07Z</time>
      </trkpt>
      <trkpt lat="46.044120015576482" lon="10.486711543053389">
        <ele>2291.4400000000001</ele>
        <time>2018-07-09T08:32:16Z</time>
      </trkpt>
      <trkpt lat="46.04412286542356" lon="10.486707016825676">
        <ele>2291.9200000000001</ele>
        <time>2018-07-09T08:32:17Z</time>
      </trkpt>
      <trkpt lat="46.044172318652272" lon="10.48668036237359">
        <ele>2292.4000000000001</ele>
        <time>2018-07-09T08:32:29Z</time>
      </trkpt>
      <trkpt lat="46.044189250096679" lon="10.486669633537531">
        <ele>2293.3600000000001</ele>
        <time>2018-07-09T08:32:40Z</time>
      </trkpt>
      <trkpt lat="46.044248258695006" lon="10.48665295355022">
        <ele>2294.3200000000002</ele>
        <time>2018-07-09T08:32:52Z</time>
      </trkpt>
      <trkpt lat="46.044296454638243" lon="10.486654210835695">
        <ele>2296.25</ele>
        <time>2018-07-09T08:33:02Z</time>
      </trkpt>
      <trkpt lat="46.044301902875304" lon="10.486653791740537">
        <ele>2295.77</ele>
        <time>2018-07-09T08:33:03Z</time>
      </trkpt>
      <trkpt lat="46.044381447136402" lon="10.486719841137528">
        <ele>2295.77</ele>
        <time>2018-07-09T08:33:14Z</time>
      </trkpt>
      <trkpt lat="46.044449592009187" lon="10.486756134778261">
        <ele>2296.25</ele>
        <time>2018-07-09T08:33:23Z</time>
      </trkpt>
      <trkpt lat="46.04451865889132" lon="10.486768120899796">
        <ele>2295.77</ele>
        <time>2018-07-09T08:33:33Z</time>
      </trkpt>
      <trkpt lat="46.044571632519364" lon="10.486800139769912">
        <ele>2295.77</ele>
        <time>2018-07-09T08:33:45Z</time>
      </trkpt>
      <trkpt lat="46.044600130990148" lon="10.486830314621329">
        <ele>2296.25</ele>
        <time>2018-07-09T08:33:56Z</time>
      </trkpt>
      <trkpt lat="46.044635334983468" lon="10.486868368461728">
        <ele>2296.25</ele>
        <time>2018-07-09T08:34:03Z</time>
      </trkpt>
      <trkpt lat="46.04473658837378" lon="10.486934753134847">
        <ele>2295.77</ele>
        <time>2018-07-09T08:34:15Z</time>
      </trkpt>
      <trkpt lat="46.044831890612841" lon="10.486994097009301">
        <ele>2295.77</ele>
        <time>2018-07-09T08:34:27Z</time>
      </trkpt>
      <trkpt lat="46.044844044372439" lon="10.487003736197948">
        <ele>2295.2800000000002</ele>
        <time>2018-07-09T08:34:29Z</time>
      </trkpt>
      <trkpt lat="46.044881511479616" lon="10.48704388551414">
        <ele>2295.2800000000002</ele>
        <time>2018-07-09T08:34:35Z</time>
      </trkpt>
      <trkpt lat="46.044980669394135" lon="10.487117059528828">
        <ele>2294.8000000000002</ele>
        <time>2018-07-09T08:34:47Z</time>
      </trkpt>
      <trkpt lat="46.045044371858239" lon="10.48713332042098">
        <ele>2294.8000000000002</ele>
        <time>2018-07-09T08:34:57Z</time>
      </trkpt>
      <trkpt lat="46.045115869492292" lon="10.487188221886754">
        <ele>2293.8400000000001</ele>
        <time>2018-07-09T08:35:08Z</time>
      </trkpt>
      <trkpt lat="46.045150235295296" lon="10.487232813611627">
        <ele>2293.3600000000001</ele>
        <time>2018-07-09T08:35:16Z</time>
      </trkpt>
      <trkpt lat="46.045197173953056" lon="10.487244799733162">
        <ele>2293.3600000000001</ele>
        <time>2018-07-09T08:35:25Z</time>
      </trkpt>
      <trkpt lat="46.045301863923669" lon="10.487301545217633">
        <ele>2292.4000000000001</ele>
        <time>2018-07-09T08:35:37Z</time>
      </trkpt>
      <trkpt lat="46.045374786481261" lon="10.487325685098767">
        <ele>2291.9200000000001</ele>
        <time>2018-07-09T08:35:48Z</time>
      </trkpt>
      <trkpt lat="46.045400938019156" lon="10.487359128892422">
        <ele>2290.96</ele>
        <time>2018-07-09T08:35:58Z</time>
      </trkpt>
      <trkpt lat="46.045452738180757" lon="10.487346136942506">
        <ele>2290.48</ele>
        <time>2018-07-09T08:36:09Z</time>
      </trkpt>
      <trkpt lat="46.045483751222491" lon="10.487360553815961">
        <ele>2290.96</ele>
        <time>2018-07-09T08:36:20Z</time>
      </trkpt>
      <trkpt lat="46.045525074005127" lon="10.487425681203604">
        <ele>2290.96</ele>
        <time>2018-07-09T08:36:31Z</time>
      </trkpt>
      <trkpt lat="46.04557259939611" lon="10.487456694245338">
        <ele>2290</ele>
        <time>2018-07-09T08:36:43Z</time>
      </trkpt>
      <trkpt lat="46.045593218877912" lon="10.487480079755187">
        <ele>2289.04</ele>
        <time>2018-07-09T08:36:50Z</time>
      </trkpt>
      <trkpt lat="46.045680893585086" lon="10.487529532983899">
        <ele>2288.5599999999999</ele>
        <time>2018-07-09T08:37:01Z</time>
      </trkpt>
      <trkpt lat="46.045724730938673" lon="10.487568005919456">
        <ele>2287.5900000000001</ele>
        <time>2018-07-09T08:37:11Z</time>
      </trkpt>
      <trkpt lat="46.045791450887918" lon="10.487624164670706">
        <ele>2286.1500000000001</ele>
        <time>2018-07-09T08:37:23Z</time>
      </trkpt>
      <trkpt lat="46.04584869928658" lon="10.487658781930804">
        <ele>2286.6300000000001</ele>
        <time>2018-07-09T08:37:31Z</time>
      </trkpt>
      <trkpt lat="46.045898236334324" lon="10.487705301493406">
        <ele>2286.6300000000001</ele>
        <time>2018-07-09T08:37:39Z</time>
      </trkpt>
      <trkpt lat="46.045959172770381" lon="10.48775970004499">
        <ele>2286.1500000000001</ele>
        <time>2018-07-09T08:37:49Z</time>
      </trkpt>
      <trkpt lat="46.046021366491914" lon="10.48782667145133">
        <ele>2285.6700000000001</ele>
        <time>2018-07-09T08:37:59Z</time>
      </trkpt>
      <trkpt lat="46.046050200238824" lon="10.487887440249324">
        <ele>2283.75</ele>
        <time>2018-07-09T08:38:07Z</time>
      </trkpt>
      <trkpt lat="46.046161008998752" lon="10.487910322844982">
        <ele>2282.3099999999999</ele>
        <time>2018-07-09T08:38:18Z</time>
      </trkpt>
      <trkpt lat="46.046223118901253" lon="10.487941252067685">
        <ele>2281.8299999999999</ele>
        <time>2018-07-09T08:38:28Z</time>
      </trkpt>
      <trkpt lat="46.046244408935308" lon="10.487992549315095">
        <ele>2280.3800000000001</ele>
        <time>2018-07-09T08:38:38Z</time>
      </trkpt>
      <trkpt lat="46.04628212749958" lon="10.488045187667012">
        <ele>2277.98</ele>
        <time>2018-07-09T08:38:48Z</time>
      </trkpt>
      <trkpt lat="46.046322276815772" lon="10.488029848784208">
        <ele>2277.02</ele>
        <time>2018-07-09T08:38:59Z</time>
      </trkpt>
      <trkpt lat="46.046388410031796" lon="10.488071506842971">
        <ele>2275.5799999999999</ele>
        <time>2018-07-09T08:39:10Z</time>
      </trkpt>
      <trkpt lat="46.04645311832428" lon="10.48810226842761">
        <ele>2274.1399999999999</ele>
        <time>2018-07-09T08:39:22Z</time>
      </trkpt>
      <trkpt lat="46.046483041718602" lon="10.488143339753151">
        <ele>2272.6900000000001</ele>
        <time>2018-07-09T08:39:32Z</time>
      </trkpt>
      <trkpt lat="46.046522939577699" lon="10.488159097731113">
        <ele>2270.77</ele>
        <time>2018-07-09T08:39:42Z</time>
      </trkpt>
      <trkpt lat="46.046559736132622" lon="10.488165216520429">
        <ele>2270.29</ele>
        <time>2018-07-09T08:39:54Z</time>
      </trkpt>
      <trkpt lat="46.04658798314631" lon="10.488215843215585">
        <ele>2268.3699999999999</ele>
        <time>2018-07-09T08:40:04Z</time>
      </trkpt>
      <trkpt lat="46.046596448868513" lon="10.488252891227603">
        <ele>2267.4099999999999</ele>
        <time>2018-07-09T08:40:13Z</time>
      </trkpt>
      <trkpt lat="46.046610698103905" lon="10.488267727196217">
        <ele>2266.9299999999998</ele>
        <time>2018-07-09T08:40:15Z</time>
      </trkpt>
      <trkpt lat="46.046654703095555" lon="10.488337045535445">
        <ele>2265.96</ele>
        <time>2018-07-09T08:40:23Z</time>
      </trkpt>
      <trkpt lat="46.046725530177355" lon="10.488351294770837">
        <ele>2265</ele>
        <time>2018-07-09T08:40:32Z</time>
      </trkpt>
      <trkpt lat="46.046764841303229" lon="10.488406447693706">
        <ele>2262.5999999999999</ele>
        <time>2018-07-09T08:40:43Z</time>
      </trkpt>
      <trkpt lat="46.046836925670505" lon="10.488420194014907">
        <ele>2262.1199999999999</ele>
        <time>2018-07-09T08:40:52Z</time>
      </trkpt>
      <trkpt lat="46.046879170462489" lon="10.488418936729431">
        <ele>2262.5999999999999</ele>
        <time>2018-07-09T08:41:02Z</time>
      </trkpt>
      <trkpt lat="46.046888642013073" lon="10.488441986963153">
        <ele>2263.0799999999999</ele>
        <time>2018-07-09T08:41:12Z</time>
      </trkpt>
      <trkpt lat="46.046923762187362" lon="10.488448608666658">
        <ele>2263.0799999999999</ele>
        <time>2018-07-09T08:41:24Z</time>
      </trkpt>
      <trkpt lat="46.046986123546958" lon="10.488449865952134">
        <ele>2262.1199999999999</ele>
        <time>2018-07-09T08:41:34Z</time>
      </trkpt>
      <trkpt lat="46.047056782990694" lon="10.488462690263987">
        <ele>2261.6399999999999</ele>
        <time>2018-07-09T08:41:44Z</time>
      </trkpt>
      <trkpt lat="46.047143619507551" lon="10.488506779074669">
        <ele>2260.6799999999998</ele>
        <time>2018-07-09T08:41:55Z</time>
      </trkpt>
      <trkpt lat="46.047171195968986" lon="10.488524800166488">
        <ele>2260.1999999999998</ele>
        <time>2018-07-09T08:42:06Z</time>
      </trkpt>
      <trkpt lat="46.047183014452457" lon="10.48854642547667">
        <ele>2259.2399999999998</ele>
        <time>2018-07-09T08:42:09Z</time>
      </trkpt>
      <trkpt lat="46.047241855412722" lon="10.488654049113393">
        <ele>2258.75</ele>
        <time>2018-07-09T08:42:20Z</time>
      </trkpt>
      <trkpt lat="46.047235149890184" lon="10.48868422396481">
        <ele>2258.27</ele>
        <time>2018-07-09T08:42:24Z</time>
      </trkpt>
      <trkpt lat="46.047261049970984" lon="10.488825291395187">
        <ele>2257.3099999999999</ele>
        <time>2018-07-09T08:42:36Z</time>
      </trkpt>
      <trkpt lat="46.047320980578661" lon="10.488870553672314">
        <ele>2257.3099999999999</ele>
        <time>2018-07-09T08:42:47Z</time>
      </trkpt>
      <trkpt lat="46.04736196808517" lon="10.488846665248275">
        <ele>2255.8699999999999</ele>
        <time>2018-07-09T08:42:56Z</time>
      </trkpt>
      <trkpt lat="46.047418965026736" lon="10.48878924921155">
        <ele>2253.9499999999998</ele>
        <time>2018-07-09T08:43:06Z</time>
      </trkpt>
      <trkpt lat="46.047432376071811" lon="10.488786650821567">
        <ele>2253.9499999999998</ele>
        <time>2018-07-09T08:43:08Z</time>
      </trkpt>
      <trkpt lat="46.047479398548603" lon="10.488761337473989">
        <ele>2252.9899999999998</ele>
        <time>2018-07-09T08:43:12Z</time>
      </trkpt>
      <trkpt lat="46.047525247558951" lon="10.488723702728748">
        <ele>2252.9899999999998</ele>
        <time>2018-07-09T08:43:17Z</time>
      </trkpt>
      <trkpt lat="46.047681486234069" lon="10.488697215914726">
        <ele>2253.4699999999998</ele>
        <time>2018-07-09T08:43:30Z</time>
      </trkpt>
      <trkpt lat="46.047788355499506" lon="10.488630328327417">
        <ele>2251.54</ele>
        <time>2018-07-09T08:43:41Z</time>
      </trkpt>
      <trkpt lat="46.047827415168285" lon="10.488613564521074">
        <ele>2251.0599999999999</ele>
        <time>2018-07-09T08:43:52Z</time>
      </trkpt>
      <trkpt lat="46.047874689102173" lon="10.488571068271995">
        <ele>2249.1399999999999</ele>
        <time>2018-07-09T08:44:04Z</time>
      </trkpt>
      <trkpt lat="46.047920873388648" lon="10.488591771572828">
        <ele>2247.6999999999998</ele>
        <time>2018-07-09T08:44:12Z</time>
      </trkpt>
      <trkpt lat="46.04794149287045" lon="10.488529074937105">
        <ele>2246.2600000000002</ele>
        <time>2018-07-09T08:44:24Z</time>
      </trkpt>
      <trkpt lat="46.047957669943571" lon="10.488502504304051">
        <ele>2245.7800000000002</ele>
        <time>2018-07-09T08:44:43Z</time>
      </trkpt>
      <trkpt lat="46.048008212819695" lon="10.488446010276675">
        <ele>2245.3000000000002</ele>
        <time>2018-07-09T08:44:56Z</time>
      </trkpt>
      <trkpt lat="46.048018103465438" lon="10.488411812111735">
        <ele>2245.3000000000002</ele>
        <time>2018-07-09T08:45:10Z</time>
      </trkpt>
      <trkpt lat="46.048051631078124" lon="10.488398903980851">
        <ele>2244.3299999999999</ele>
        <time>2018-07-09T08:45:20Z</time>
      </trkpt>
      <trkpt lat="46.048068394884467" lon="10.488403681665659">
        <ele>2243.3699999999999</ele>
        <time>2018-07-09T08:45:23Z</time>
      </trkpt>
      <trkpt lat="46.048100078478456" lon="10.488407118245959">
        <ele>2242.8899999999999</ele>
        <time>2018-07-09T08:45:34Z</time>
      </trkpt>
      <trkpt lat="46.048115333542228" lon="10.48839102499187">
        <ele>2242.8899999999999</ele>
        <time>2018-07-09T08:45:47Z</time>
      </trkpt>
      <trkpt lat="46.048088343814015" lon="10.488463193178177">
        <ele>2242.8899999999999</ele>
        <time>2018-07-09T08:46:00Z</time>
      </trkpt>
      <trkpt lat="46.048073088750243" lon="10.488466797396541">
        <ele>2242.8899999999999</ele>
        <time>2018-07-09T08:46:07Z</time>
      </trkpt>
      <trkpt lat="46.048085242509842" lon="10.488423630595207">
        <ele>2242.8899999999999</ele>
        <time>2018-07-09T08:46:19Z</time>
      </trkpt>
      <trkpt lat="46.0480563249439" lon="10.488423798233271">
        <ele>2242.8899999999999</ele>
        <time>2018-07-09T08:46:35Z</time>
      </trkpt>
      <trkpt lat="46.048065628856421" lon="10.488421702757478">
        <ele>2242.8899999999999</ele>
        <time>2018-07-09T08:46:50Z</time>
      </trkpt>
      <trkpt lat="46.048091864213347" lon="10.488429749384522">
        <ele>2243.8499999999999</ele>
        <time>2018-07-09T08:47:00Z</time>
      </trkpt>
      <trkpt lat="46.048114411532879" lon="10.488440478220582">
        <ele>2243.8499999999999</ele>
        <time>2018-07-09T08:47:12Z</time>
      </trkpt>
      <trkpt lat="46.048118099570274" lon="10.488422708585858">
        <ele>2244.3299999999999</ele>
        <time>2018-07-09T08:47:24Z</time>
      </trkpt>
      <trkpt lat="46.048115752637386" lon="10.488411812111735">
        <ele>2244.3299999999999</ele>
        <time>2018-07-09T08:47:34Z</time>
      </trkpt>
      <trkpt lat="46.048138383775949" lon="10.488370740786195">
        <ele>2246.2600000000002</ele>
        <time>2018-07-09T08:47:46Z</time>
      </trkpt>
      <trkpt lat="46.048116590827703" lon="10.488358419388533">
        <ele>2248.1799999999998</ele>
        <time>2018-07-09T08:47:54Z</time>
      </trkpt>
      <trkpt lat="46.048158081248403" lon="10.488354060798883">
        <ele>2250.0999999999999</ele>
        <time>2018-07-09T08:48:03Z</time>
      </trkpt>
      <trkpt lat="46.048158835619688" lon="10.488319778814912">
        <ele>2250.0999999999999</ele>
        <time>2018-07-09T08:48:16Z</time>
      </trkpt>
      <trkpt lat="46.048144837841392" lon="10.488311648368835">
        <ele>2251.54</ele>
        <time>2018-07-09T08:48:25Z</time>
      </trkpt>
      <trkpt lat="46.048182053491473" lon="10.488299326971173">
        <ele>2252.5100000000002</ele>
        <time>2018-07-09T08:48:40Z</time>
      </trkpt>
      <trkpt lat="46.048181382939219" lon="10.488264709711075">
        <ele>2252.9899999999998</ele>
        <time>2018-07-09T08:48:50Z</time>
      </trkpt>
      <trkpt lat="46.048197643831372" lon="10.48826739192009">
        <ele>2252.9899999999998</ele>
        <time>2018-07-09T08:49:05Z</time>
      </trkpt>
      <trkpt lat="46.048224633559585" lon="10.488218441605568">
        <ele>2255.8699999999999</ele>
        <time>2018-07-09T08:49:18Z</time>
      </trkpt>
      <trkpt lat="46.048272745683789" lon="10.488161193206906">
        <ele>2256.3499999999999</ele>
        <time>2018-07-09T08:49:29Z</time>
      </trkpt>
      <trkpt lat="46.048331335186958" lon="10.488107465207577">
        <ele>2258.27</ele>
        <time>2018-07-09T08:49:41Z</time>
      </trkpt>
      <trkpt lat="46.048382548615336" lon="10.488099083304405">
        <ele>2259.7199999999998</ele>
        <time>2018-07-09T08:49:51Z</time>
      </trkpt>
      <trkpt lat="46.048399480059743" lon="10.48804652877152">
        <ele>2260.6799999999998</ele>
        <time>2018-07-09T08:50:00Z</time>
      </trkpt>
      <trkpt lat="46.048409454524517" lon="10.488008810207248">
        <ele>2262.1199999999999</ele>
        <time>2018-07-09T08:50:12Z</time>
      </trkpt>
      <trkpt lat="46.048430660739541" lon="10.487989028915763">
        <ele>2263.5599999999999</ele>
        <time>2018-07-09T08:50:22Z</time>
      </trkpt>
      <trkpt lat="46.048435270786285" lon="10.48797570168972">
        <ele>2265</ele>
        <time>2018-07-09T08:50:30Z</time>
      </trkpt>
      <trkpt lat="46.048423619940877" lon="10.487993471324444">
        <ele>2265.48</ele>
        <time>2018-07-09T08:50:43Z</time>
      </trkpt>
      <trkpt lat="46.048391684889793" lon="10.487962709739804">
        <ele>2266.9299999999998</ele>
        <time>2018-07-09T08:50:54Z</time>
      </trkpt>
      <trkpt lat="46.048354553058743" lon="10.487966313958168">
        <ele>2268.8499999999999</ele>
        <time>2018-07-09T08:51:05Z</time>
      </trkpt>
      <trkpt lat="46.04833141900599" lon="10.487955249845982">
        <ele>2270.29</ele>
        <time>2018-07-09T08:51:17Z</time>
      </trkpt>
      <trkpt lat="46.048354553058743" lon="10.487921303138137">
        <ele>2270.77</ele>
        <time>2018-07-09T08:51:32Z</time>
      </trkpt>
      <trkpt lat="46.048347009345889" lon="10.487888781353831">
        <ele>2271.25</ele>
        <time>2018-07-09T08:51:45Z</time>
      </trkpt>
      <trkpt lat="46.048355642706156" lon="10.487856930121779">
        <ele>2272.6900000000001</ele>
        <time>2018-07-09T08:51:56Z</time>
      </trkpt>
      <trkpt lat="46.048369891941547" lon="10.487816361710429">
        <ele>2275.0999999999999</ele>
        <time>2018-07-09T08:52:05Z</time>
      </trkpt>
      <trkpt lat="46.048394618555903" lon="10.487779565155506">
        <ele>2274.6199999999999</ele>
        <time>2018-07-09T08:52:19Z</time>
      </trkpt>
      <trkpt lat="46.048437785357237" lon="10.487780487164855">
        <ele>2273.6599999999999</ele>
        <time>2018-07-09T08:52:28Z</time>
      </trkpt>
      <trkpt lat="46.048484640195966" lon="10.487786186859012">
        <ele>2274.6199999999999</ele>
        <time>2018-07-09T08:52:41Z</time>
      </trkpt>
      <trkpt lat="46.048521101474762" lon="10.487751653417945">
        <ele>2277.02</ele>
        <time>2018-07-09T08:52:53Z</time>
      </trkpt>
      <trkpt lat="46.048509953543544" lon="10.487761292606592">
        <ele>2277.5</ele>
        <time>2018-07-09T08:53:01Z</time>
      </trkpt>
      <trkpt lat="46.048509534448385" lon="10.487725920975208">
        <ele>2278.9400000000001</ele>
        <time>2018-07-09T08:53:15Z</time>
      </trkpt>
      <trkpt lat="46.048524621874094" lon="10.487668002024293">
        <ele>2280.8699999999999</ele>
        <time>2018-07-09T08:53:27Z</time>
      </trkpt>
      <trkpt lat="46.048507858067751" lon="10.487666241824627">
        <ele>2281.3499999999999</ele>
        <time>2018-07-09T08:53:30Z</time>
      </trkpt>
      <trkpt lat="46.048486987128854" lon="10.487659452483058">
        <ele>2282.79</ele>
        <time>2018-07-09T08:53:39Z</time>
      </trkpt>
      <trkpt lat="46.048496207222342" lon="10.487617459148169">
        <ele>2284.71</ele>
        <time>2018-07-09T08:53:50Z</time>
      </trkpt>
      <trkpt lat="46.048501487821341" lon="10.487559540197253">
        <ele>2286.1500000000001</ele>
        <time>2018-07-09T08:54:01Z</time>
      </trkpt>
      <trkpt lat="46.048510791733861" lon="10.487519139423966">
        <ele>2287.5900000000001</ele>
        <time>2018-07-09T08:54:11Z</time>
      </trkpt>
      <trkpt lat="46.048508109524846" lon="10.487521821632981">
        <ele>2288.0799999999999</ele>
        <time>2018-07-09T08:54:25Z</time>
      </trkpt>
      <trkpt lat="46.048501404002309" lon="10.487539004534483">
        <ele>2287.5900000000001</ele>
        <time>2018-07-09T08:54:42Z</time>
      </trkpt>
      <trkpt lat="46.04849511757493" lon="10.487563228234649">
        <ele>2288.0799999999999</ele>
        <time>2018-07-09T08:54:59Z</time>
      </trkpt>
      <trkpt lat="46.048476593568921" lon="10.487596755847335">
        <ele>2288.5599999999999</ele>
        <time>2018-07-09T08:55:13Z</time>
      </trkpt>
      <trkpt lat="46.048473995178938" lon="10.487580327317119">
        <ele>2288.0799999999999</ele>
        <time>2018-07-09T08:55:26Z</time>
      </trkpt>
      <trkpt lat="46.048488663509488" lon="10.487568341195583">
        <ele>2288.5599999999999</ele>
        <time>2018-07-09T08:55:44Z</time>
      </trkpt>
      <trkpt lat="46.048465864732862" lon="10.48757110722363">
        <ele>2288.5599999999999</ele>
        <time>2018-07-09T08:55:55Z</time>
      </trkpt>
      <trkpt lat="46.048463182523847" lon="10.487580327317119">
        <ele>2289.52</ele>
        <time>2018-07-09T08:56:09Z</time>
      </trkpt>
      <trkpt lat="46.04846821166575" lon="10.487551912665367">
        <ele>2290</ele>
        <time>2018-07-09T08:56:21Z</time>
      </trkpt>
      <trkpt lat="46.048471732065082" lon="10.48750807531178">
        <ele>2290</ele>
        <time>2018-07-09T08:56:38Z</time>
      </trkpt>
      <trkpt lat="46.048487238585949" lon="10.487490221858025">
        <ele>2290</ele>
        <time>2018-07-09T08:56:53Z</time>
      </trkpt>
      <trkpt lat="46.048481957986951" lon="10.487503884360194">
        <ele>2290</ele>
        <time>2018-07-09T08:57:06Z</time>
      </trkpt>
      <trkpt lat="46.048489920794964" lon="10.487490724772215">
        <ele>2291.4400000000001</ele>
        <time>2018-07-09T08:57:18Z</time>
      </trkpt>
      <trkpt lat="46.048508528620005" lon="10.487459544092417">
        <ele>2292.8800000000001</ele>
        <time>2018-07-09T08:57:30Z</time>
      </trkpt>
      <trkpt lat="46.048519760370255" lon="10.487444121390581">
        <ele>2293.3600000000001</ele>
        <time>2018-07-09T08:57:42Z</time>
      </trkpt>
      <trkpt lat="46.048526549711823" lon="10.487425178289413">
        <ele>2294.3200000000002</ele>
        <time>2018-07-09T08:57:51Z</time>
      </trkpt>
      <trkpt lat="46.048499308526516" lon="10.487433224916458">
        <ele>2294.8000000000002</ele>
        <time>2018-07-09T08:58:05Z</time>
      </trkpt>
      <trkpt lat="46.048490004613996" lon="10.487489718943834">
        <ele>2294.3200000000002</ele>
        <time>2018-07-09T08:58:24Z</time>
      </trkpt>
      <trkpt lat="46.048495871946216" lon="10.487467842176557">
        <ele>2295.77</ele>
        <time>2018-07-09T08:58:37Z</time>
      </trkpt>
      <trkpt lat="46.048487909138203" lon="10.487465327605605">
        <ele>2296.25</ele>
        <time>2018-07-09T08:58:50Z</time>
      </trkpt>
      <trkpt lat="46.048546666279435" lon="10.487417550757527">
        <ele>2298.6500000000001</ele>
        <time>2018-07-09T08:59:02Z</time>
      </trkpt>
      <trkpt lat="46.048586731776595" lon="10.487383268773556">
        <ele>2299.1300000000001</ele>
        <time>2018-07-09T08:59:12Z</time>
      </trkpt>
      <trkpt lat="46.048576841130853" lon="10.487363822758198">
        <ele>2300.0900000000001</ele>
        <time>2018-07-09T08:59:26Z</time>
      </trkpt>
      <trkpt lat="46.048563094809651" lon="10.487336833029985">
        <ele>2302.0100000000002</ele>
        <time>2018-07-09T08:59:36Z</time>
      </trkpt>
      <trkpt lat="46.048578433692455" lon="10.487320823594928">
        <ele>2302.4899999999998</ele>
        <time>2018-07-09T08:59:45Z</time>
      </trkpt>
      <trkpt lat="46.048585139214993" lon="10.487296935170889">
        <ele>2303.9400000000001</ele>
        <time>2018-07-09T08:59:56Z</time>
      </trkpt>
      <trkpt lat="46.048598466441035" lon="10.487284362316132">
        <ele>2305.3800000000001</ele>
        <time>2018-07-09T09:00:09Z</time>
      </trkpt>
      <trkpt lat="46.048620091751218" lon="10.487282183021307">
        <ele>2306.3400000000001</ele>
        <time>2018-07-09T09:00:20Z</time>
      </trkpt>
      <trkpt lat="46.048625456169248" lon="10.48736491240561">
        <ele>2307.3000000000002</ele>
        <time>2018-07-09T09:00:30Z</time>
      </trkpt>
      <trkpt lat="46.048635598272085" lon="10.487357955425978">
        <ele>2307.3000000000002</ele>
        <time>2018-07-09T09:00:44Z</time>
      </trkpt>
      <trkpt lat="46.048663510009646" lon="10.487379496917129">
        <ele>2309.2199999999998</ele>
        <time>2018-07-09T09:00:54Z</time>
      </trkpt>
      <trkpt lat="46.048703910782933" lon="10.487345047295094">
        <ele>2310.6700000000001</ele>
        <time>2018-07-09T09:01:03Z</time>
      </trkpt>
      <trkpt lat="46.0486900806427" lon="10.487356530502439">
        <ele>2310.1900000000001</ele>
        <time>2018-07-09T09:01:22Z</time>
      </trkpt>
      <trkpt lat="46.048710867762566" lon="10.487356362864375">
        <ele>2310.6700000000001</ele>
        <time>2018-07-09T09:01:36Z</time>
      </trkpt>
      <trkpt lat="46.048715729266405" lon="10.487383771687746">
        <ele>2311.6300000000001</ele>
        <time>2018-07-09T09:01:46Z</time>
      </trkpt>
      <trkpt lat="46.048726374283433" lon="10.487397937104106">
        <ele>2311.6300000000001</ele>
        <time>2018-07-09T09:01:59Z</time>
      </trkpt>
      <trkpt lat="46.04873358272016" lon="10.487423250451684">
        <ele>2311.6300000000001</ele>
        <time>2018-07-09T09:02:12Z</time>
      </trkpt>
      <trkpt lat="46.048742635175586" lon="10.487375054508448">
        <ele>2311.6300000000001</ele>
        <time>2018-07-09T09:02:33Z</time>
      </trkpt>
      <trkpt lat="46.04874724522233" lon="10.487384358420968">
        <ele>2311.6300000000001</ele>
        <time>2018-07-09T09:02:53Z</time>
      </trkpt>
      <trkpt lat="46.048738108947873" lon="10.487435488030314">
        <ele>2312.1100000000001</ele>
        <time>2018-07-09T09:03:23Z</time>
      </trkpt>
      <trkpt lat="46.048805667087436" lon="10.487424340099096">
        <ele>2311.6300000000001</ele>
        <time>2018-07-09T09:03:46Z</time>
      </trkpt>
      <trkpt lat="46.048828298225999" lon="10.487355189397931">
        <ele>2313.0700000000002</ele>
        <time>2018-07-09T09:03:56Z</time>
      </trkpt>
      <trkpt lat="46.048834500834346" lon="10.487297940999269">
        <ele>2314.0300000000002</ele>
        <time>2018-07-09T09:04:05Z</time>
      </trkpt>
      <trkpt lat="46.048845145851374" lon="10.487275393679738">
        <ele>2315.4699999999998</ele>
        <time>2018-07-09T09:04:15Z</time>
      </trkpt>
      <trkpt lat="46.048864843323827" lon="10.487269107252359">
        <ele>2317.8800000000001</ele>
        <time>2018-07-09T09:04:26Z</time>
      </trkpt>
      <trkpt lat="46.048904154449701" lon="10.487261060625315">
        <ele>2319.3200000000002</ele>
        <time>2018-07-09T09:04:37Z</time>
      </trkpt>
      <trkpt lat="46.048907088115811" lon="10.487238261848688">
        <ele>2319.8000000000002</ele>
        <time>2018-07-09T09:04:46Z</time>
      </trkpt>
      <trkpt lat="46.048919074237347" lon="10.487227784469724">
        <ele>2321.2399999999998</ele>
        <time>2018-07-09T09:04:54Z</time>
      </trkpt>
      <trkpt lat="46.048921588808298" lon="10.487224264070392">
        <ele>2321.7199999999998</ele>
        <time>2018-07-09T09:05:02Z</time>
      </trkpt>
      <trkpt lat="46.048941118642688" lon="10.487193837761879">
        <ele>2323.1599999999999</ele>
        <time>2018-07-09T09:05:14Z</time>
      </trkpt>
      <trkpt lat="46.048960732296109" lon="10.487188473343849">
        <ele>2324.6100000000001</ele>
        <time>2018-07-09T09:05:26Z</time>
      </trkpt>
      <trkpt lat="46.048989398404956" lon="10.487163243815303">
        <ele>2325.0900000000001</ele>
        <time>2018-07-09T09:05:41Z</time>
      </trkpt>
      <trkpt lat="46.04900716803968" lon="10.487144300714135">
        <ele>2326.5300000000002</ele>
        <time>2018-07-09T09:05:51Z</time>
      </trkpt>
      <trkpt lat="46.049024937674403" lon="10.487128961831331">
        <ele>2327.0100000000002</ele>
        <time>2018-07-09T09:05:55Z</time>
      </trkpt>
      <trkpt lat="46.049084113910794" lon="10.4871582146734">
        <ele>2327.9699999999998</ele>
        <time>2018-07-09T09:06:05Z</time>
      </trkpt>
      <trkpt lat="46.04912200011313" lon="10.487151006236672">
        <ele>2328.9299999999998</ele>
        <time>2018-07-09T09:06:15Z</time>
      </trkpt>
      <trkpt lat="46.049106493592262" lon="10.487140445038676">
        <ele>2330.3699999999999</ele>
        <time>2018-07-09T09:06:23Z</time>
      </trkpt>
      <trkpt lat="46.049085957929492" lon="10.487123765051365">
        <ele>2331.3299999999999</ele>
        <time>2018-07-09T09:06:33Z</time>
      </trkpt>
      <trkpt lat="46.049074809998274" lon="10.487072467803955">
        <ele>2332.3000000000002</ele>
        <time>2018-07-09T09:06:46Z</time>
      </trkpt>
      <trkpt lat="46.049112360924482" lon="10.487041622400284">
        <ele>2333.7399999999998</ele>
        <time>2018-07-09T09:06:57Z</time>
      </trkpt>
      <trkpt lat="46.049133650958538" lon="10.487008178606629">
        <ele>2334.6999999999998</ele>
        <time>2018-07-09T09:07:06Z</time>
      </trkpt>
      <trkpt lat="46.049166172742844" lon="10.486988732591271">
        <ele>2335.6599999999999</ele>
        <time>2018-07-09T09:07:15Z</time>
      </trkpt>
      <trkpt lat="46.049178745597601" lon="10.486980266869068">
        <ele>2337.0999999999999</ele>
        <time>2018-07-09T09:07:27Z</time>
      </trkpt>
      <trkpt lat="46.049187211319804" lon="10.486917570233345">
        <ele>2338.54</ele>
        <time>2018-07-09T09:07:36Z</time>
      </trkpt>
      <trkpt lat="46.049184361472726" lon="10.486895442008972">
        <ele>2339.9899999999998</ele>
        <time>2018-07-09T09:07:44Z</time>
      </trkpt>
      <trkpt lat="46.049210596829653" lon="10.486844899132848">
        <ele>2340.9499999999998</ele>
        <time>2018-07-09T09:07:55Z</time>
      </trkpt>
      <trkpt lat="46.049202885478735" lon="10.486813969910145">
        <ele>2341.9099999999999</ele>
        <time>2018-07-09T09:08:04Z</time>
      </trkpt>
      <trkpt lat="46.049179751425982" lon="10.486757978796959">
        <ele>2342.8699999999999</ele>
        <time>2018-07-09T09:08:14Z</time>
      </trkpt>
      <trkpt lat="46.049183523282409" lon="10.486742053180933">
        <ele>2343.8299999999999</ele>
        <time>2018-07-09T09:08:22Z</time>
      </trkpt>
      <trkpt lat="46.049210010096431" lon="10.486720344051719">
        <ele>2345.27</ele>
        <time>2018-07-09T09:08:32Z</time>
      </trkpt>
      <trkpt lat="46.04920213110745" lon="10.486680697649717">
        <ele>2346.23</ele>
        <time>2018-07-09T09:08:42Z</time>
      </trkpt>
      <trkpt lat="46.049253344535828" lon="10.486680697649717">
        <ele>2347.6799999999998</ele>
        <time>2018-07-09T09:08:52Z</time>
      </trkpt>
      <trkpt lat="46.049270695075393" lon="10.486649097874761">
        <ele>2349.5999999999999</ele>
        <time>2018-07-09T09:09:03Z</time>
      </trkpt>
      <trkpt lat="46.049245297908783" lon="10.486614564433694">
        <ele>2350.5599999999999</ele>
        <time>2018-07-09T09:09:13Z</time>
      </trkpt>
      <trkpt lat="46.049231719225645" lon="10.486575588583946">
        <ele>2352</ele>
        <time>2018-07-09T09:09:25Z</time>
      </trkpt>
      <trkpt lat="46.049233227968216" lon="10.486561674624681">
        <ele>2352.48</ele>
        <time>2018-07-09T09:09:35Z</time>
      </trkpt>
      <trkpt lat="46.049232641234994" lon="10.486533176153898">
        <ele>2353.4400000000001</ele>
        <time>2018-07-09T09:09:43Z</time>
      </trkpt>
      <trkpt lat="46.049218978732824" lon="10.486496463418007">
        <ele>2354.8899999999999</ele>
        <time>2018-07-09T09:09:53Z</time>
      </trkpt>
      <trkpt lat="46.049206238240004" lon="10.486453548073769">
        <ele>2356.8099999999999</ele>
        <time>2018-07-09T09:10:02Z</time>
      </trkpt>
      <trkpt lat="46.049212859943509" lon="10.486418763175607">
        <ele>2358.25</ele>
        <time>2018-07-09T09:10:11Z</time>
      </trkpt>
      <trkpt lat="46.049193916842341" lon="10.486377943307161">
        <ele>2359.6900000000001</ele>
        <time>2018-07-09T09:10:21Z</time>
      </trkpt>
      <trkpt lat="46.04919383302331" lon="10.486337458714843">
        <ele>2361.1399999999999</ele>
        <time>2018-07-09T09:10:30Z</time>
      </trkpt>
      <trkpt lat="46.049189893528819" lon="10.486285239458084">
        <ele>2362.5799999999999</ele>
        <time>2018-07-09T09:10:40Z</time>
      </trkpt>
      <trkpt lat="46.04918360710144" lon="10.486253388226032">
        <ele>2364.02</ele>
        <time>2018-07-09T09:10:49Z</time>
      </trkpt>
      <trkpt lat="46.049215793609619" lon="10.486264117062092">
        <ele>2364.98</ele>
        <time>2018-07-09T09:10:58Z</time>
      </trkpt>
      <trkpt lat="46.049231383949518" lon="10.486248191446066">
        <ele>2365.9400000000001</ele>
        <time>2018-07-09T09:11:07Z</time>
      </trkpt>
      <trkpt lat="46.049280418083072" lon="10.486222207546234">
        <ele>2367.8600000000001</ele>
        <time>2018-07-09T09:11:18Z</time>
      </trkpt>
      <trkpt lat="46.0493203997612" lon="10.486226482316852">
        <ele>2368.8299999999999</ele>
        <time>2018-07-09T09:11:28Z</time>
      </trkpt>
      <trkpt lat="46.049333894625306" lon="10.486250538378954">
        <ele>2370.27</ele>
        <time>2018-07-09T09:11:36Z</time>
      </trkpt>
      <trkpt lat="46.049378821626306" lon="10.48627476207912">
        <ele>2371.71</ele>
        <time>2018-07-09T09:11:46Z</time>
      </trkpt>
      <trkpt lat="46.049405727535486" lon="10.486292447894812">
        <ele>2373.1500000000001</ele>
        <time>2018-07-09T09:11:55Z</time>
      </trkpt>
      <trkpt lat="46.049408661201596" lon="10.4862947948277">
        <ele>2374.5900000000001</ele>
        <time>2018-07-09T09:12:03Z</time>
      </trkpt>
      <trkpt lat="46.049478901550174" lon="10.486258333548903">
        <ele>2374.1100000000001</ele>
        <time>2018-07-09T09:12:13Z</time>
      </trkpt>
      <trkpt lat="46.049525840207934" lon="10.486286748200655">
        <ele>2374.1100000000001</ele>
        <time>2018-07-09T09:12:22Z</time>
      </trkpt>
      <trkpt lat="46.049554003402591" lon="10.486325640231371">
        <ele>2375.5500000000002</ele>
        <time>2018-07-09T09:12:31Z</time>
      </trkpt>
      <trkpt lat="46.049611838534474" lon="10.486363274976611">
        <ele>2376.52</ele>
        <time>2018-07-09T09:12:40Z</time>
      </trkpt>
      <trkpt lat="46.049665901809931" lon="10.486391857266426">
        <ele>2377.48</ele>
        <time>2018-07-09T09:12:51Z</time>
      </trkpt>
      <trkpt lat="46.049709655344486" lon="10.486399065703154">
        <ele>2377.48</ele>
        <time>2018-07-09T09:13:02Z</time>
      </trkpt>
      <trkpt lat="46.049705632030964" lon="10.486380122601986">
        <ele>2378.4400000000001</ele>
        <time>2018-07-09T09:13:09Z</time>
      </trkpt>
      <trkpt lat="46.049733376130462" lon="10.486387498676777">
        <ele>2376.52</ele>
        <time>2018-07-09T09:13:20Z</time>
      </trkpt>
      <trkpt lat="46.04973572306335" lon="10.486446339637041">
        <ele>2378.9200000000001</ele>
        <time>2018-07-09T09:13:32Z</time>
      </trkpt>
      <trkpt lat="46.049739746376872" lon="10.486447680741549">
        <ele>2374.5900000000001</ele>
        <time>2018-07-09T09:13:34Z</time>
      </trkpt>
      <trkpt lat="46.049740165472031" lon="10.486446842551231">
        <ele>2373.1500000000001</ele>
        <time>2018-07-09T09:13:35Z</time>
      </trkpt>
      <trkpt lat="46.049740836024284" lon="10.486445249989629">
        <ele>2373.1500000000001</ele>
        <time>2018-07-09T09:13:36Z</time>
      </trkpt>
      <trkpt lat="46.049742009490728" lon="10.486443405970931">
        <ele>2376.04</ele>
        <time>2018-07-09T09:13:37Z</time>
      </trkpt>
      <trkpt lat="46.04974402114749" lon="10.486442735418677">
        <ele>2374.1100000000001</ele>
        <time>2018-07-09T09:13:39Z</time>
      </trkpt>
      <trkpt lat="46.04974452406168" lon="10.486443573608994">
        <ele>2377</ele>
        <time>2018-07-09T09:13:40Z</time>
      </trkpt>
      <trkpt lat="46.049746451899409" lon="10.486440388485789">
        <ele>2376.04</ele>
        <time>2018-07-09T09:13:42Z</time>
      </trkpt>
      <trkpt lat="46.049747709184885" lon="10.486437790095806">
        <ele>2381.8000000000002</ele>
        <time>2018-07-09T09:13:43Z</time>
      </trkpt>
      <trkpt lat="46.049746451899409" lon="10.486435443162918">
        <ele>2375.5500000000002</ele>
        <time>2018-07-09T09:13:44Z</time>
      </trkpt>
      <trkpt lat="46.049745781347156" lon="10.486433431506157">
        <ele>2376.04</ele>
        <time>2018-07-09T09:13:45Z</time>
      </trkpt>
      <trkpt lat="46.04974745772779" lon="10.486428402364254">
        <ele>2382.2800000000002</ele>
        <time>2018-07-09T09:13:47Z</time>
      </trkpt>
      <trkpt lat="46.049740919843316" lon="10.486415578052402">
        <ele>2377</ele>
        <time>2018-07-09T09:13:48Z</time>
      </trkpt>
      <trkpt lat="46.049776542931795" lon="10.486390516161919">
        <ele>2376.52</ele>
        <time>2018-07-09T09:13:57Z</time>
      </trkpt>
      <trkpt lat="46.049786265939474" lon="10.486448351293802">
        <ele>2376.04</ele>
        <time>2018-07-09T09:14:17Z</time>
      </trkpt>
      <trkpt lat="46.049772603437304" lon="10.486414656043053">
        <ele>2376.52</ele>
        <time>2018-07-09T09:14:35Z</time>
      </trkpt>
      <trkpt lat="46.049731783568859" lon="10.486424462869763">
        <ele>2376.52</ele>
        <time>2018-07-09T09:14:56Z</time>
      </trkpt>
      <trkpt lat="46.049777632579207" lon="10.486403172835708">
        <ele>2376.52</ele>
        <time>2018-07-09T09:15:13Z</time>
      </trkpt>
      <trkpt lat="46.04974402114749" lon="10.486455978825688">
        <ele>2376.52</ele>
        <time>2018-07-09T09:15:23Z</time>
      </trkpt>
      <trkpt lat="46.04970688931644" lon="10.486499145627022">
        <ele>2376.52</ele>
        <time>2018-07-09T09:15:41Z</time>
      </trkpt>
      <trkpt lat="46.049720719456673" lon="10.486457068473101">
        <ele>2377</ele>
        <time>2018-07-09T09:15:56Z</time>
      </trkpt>
      <trkpt lat="46.049740416929126" lon="10.486443322151899">
        <ele>2377</ele>
        <time>2018-07-09T09:16:11Z</time>
      </trkpt>
      <trkpt lat="46.049886262044311" lon="10.486397137865424">
        <ele>2377</ele>
        <time>2018-07-09T09:16:39Z</time>
      </trkpt>
      <trkpt lat="46.04985005222261" lon="10.486323293298483">
        <ele>2376.52</ele>
        <time>2018-07-09T09:17:05Z</time>
      </trkpt>
      <trkpt lat="46.049800431355834" lon="10.48637350089848">
        <ele>2377</ele>
        <time>2018-07-09T09:17:30Z</time>
      </trkpt>
      <trkpt lat="46.049823565408587" lon="10.486299907788634">
        <ele>2377</ele>
        <time>2018-07-09T09:17:53Z</time>
      </trkpt>
      <trkpt lat="46.049956753849983" lon="10.486440723761916">
        <ele>2377</ele>
        <time>2018-07-09T09:18:18Z</time>
      </trkpt>
      <trkpt lat="46.04990285821259" lon="10.486393282189965">
        <ele>2377</ele>
        <time>2018-07-09T09:18:51Z</time>
      </trkpt>
      <trkpt lat="46.049800431355834" lon="10.486313486471772">
        <ele>2377.48</ele>
        <time>2018-07-09T09:19:20Z</time>
      </trkpt>
      <trkpt lat="46.049828510731459" lon="10.48632999882102">
        <ele>2377.48</ele>
        <time>2018-07-09T09:19:44Z</time>
      </trkpt>
      <trkpt lat="46.050001010298729" lon="10.486416583880782">
        <ele>2377.96</ele>
        <time>2018-07-09T09:20:07Z</time>
      </trkpt>
      <trkpt lat="46.050089271739125" lon="10.486426474526525">
        <ele>2378.4400000000001</ele>
        <time>2018-07-09T09:20:36Z</time>
      </trkpt>
      <trkpt lat="46.050036884844303" lon="10.486416835337877">
        <ele>2378.9200000000001</ele>
        <time>2018-07-09T09:21:01Z</time>
      </trkpt>
      <trkpt lat="46.049982737749815" lon="10.48636662773788">
        <ele>2378.9200000000001</ele>
        <time>2018-07-09T09:21:29Z</time>
      </trkpt>
      <trkpt lat="46.05000059120357" lon="10.486388672143221">
        <ele>2378.9200000000001</ele>
        <time>2018-07-09T09:21:48Z</time>
      </trkpt>
      <trkpt lat="46.049870923161507" lon="10.48641499131918">
        <ele>2378.9200000000001</ele>
        <time>2018-07-09T09:22:07Z</time>
      </trkpt>
      <trkpt lat="46.049842843785882" lon="10.486415242776275">
        <ele>2378.9200000000001</ele>
        <time>2018-07-09T09:22:24Z</time>
      </trkpt>
      <trkpt lat="46.049726000055671" lon="10.486362185329199">
        <ele>2378.9200000000001</ele>
        <time>2018-07-09T09:22:48Z</time>
      </trkpt>
      <trkpt lat="46.049777129665017" lon="10.486409878358245">
        <ele>2378.9200000000001</ele>
        <time>2018-07-09T09:23:05Z</time>
      </trkpt>
      <trkpt lat="46.049812836572528" lon="10.486426306888461">
        <ele>2378.4400000000001</ele>
        <time>2018-07-09T09:23:20Z</time>
      </trkpt>
      <trkpt lat="46.049834629520774" lon="10.48643896356225">
        <ele>2378.4400000000001</ele>
        <time>2018-07-09T09:23:32Z</time>
      </trkpt>
      <trkpt lat="46.049834126606584" lon="10.486438293009996">
        <ele>2378.4400000000001</ele>
        <time>2018-07-09T09:23:33Z</time>
      </trkpt>
      <trkpt lat="46.049860110506415" lon="10.486396970227361">
        <ele>2378.9200000000001</ele>
        <time>2018-07-09T09:23:58Z</time>
      </trkpt>
      <trkpt lat="46.049895063042641" lon="10.486411973834038">
        <ele>2378.9200000000001</ele>
        <time>2018-07-09T09:24:23Z</time>
      </trkpt>
      <trkpt lat="46.049903193488717" lon="10.4864467587322">
        <ele>2379.4000000000001</ele>
        <time>2018-07-09T09:24:48Z</time>
      </trkpt>
      <trkpt lat="46.049920544028282" lon="10.486436868086457">
        <ele>2379.4000000000001</ele>
        <time>2018-07-09T09:25:12Z</time>
      </trkpt>
      <trkpt lat="46.049945270642638" lon="10.486444914713502">
        <ele>2379.4000000000001</ele>
        <time>2018-07-09T09:25:24Z</time>
      </trkpt>
      <trkpt lat="46.049958178773522" lon="10.486433347687125">
        <ele>2378.9200000000001</ele>
        <time>2018-07-09T09:25:45Z</time>
      </trkpt>
      <trkpt lat="46.049977373331785" lon="10.48643795773387">
        <ele>2379.4000000000001</ele>
        <time>2018-07-09T09:26:03Z</time>
      </trkpt>
      <trkpt lat="46.050001597031951" lon="10.486439382657409">
        <ele>2379.8800000000001</ele>
        <time>2018-07-09T09:26:13Z</time>
      </trkpt>
      <trkpt lat="46.049988605082035" lon="10.486425301060081">
        <ele>2379.8800000000001</ele>
        <time>2018-07-09T09:26:40Z</time>
      </trkpt>
      <trkpt lat="46.049954826012254" lon="10.48640132881701">
        <ele>2379.4000000000001</ele>
        <time>2018-07-09T09:26:55Z</time>
      </trkpt>
      <trkpt lat="46.049910737201571" lon="10.486433766782284">
        <ele>2379.8800000000001</ele>
        <time>2018-07-09T09:27:12Z</time>
      </trkpt>
      <trkpt lat="46.049853237345815" lon="10.486423876136541">
        <ele>2379.8800000000001</ele>
        <time>2018-07-09T09:27:33Z</time>
      </trkpt>
      <trkpt lat="46.049867989495397" lon="10.486401999369264">
        <ele>2379.8800000000001</ele>
        <time>2018-07-09T09:27:50Z</time>
      </trkpt>
      <trkpt lat="46.04987159371376" lon="10.486408453434706">
        <ele>2379.8800000000001</ele>
        <time>2018-07-09T09:28:02Z</time>
      </trkpt>
      <trkpt lat="46.049887854605913" lon="10.486427564173937">
        <ele>2380.3600000000001</ele>
        <time>2018-07-09T09:28:12Z</time>
      </trkpt>
      <trkpt lat="46.049872683361173" lon="10.486438879743218">
        <ele>2379.8800000000001</ele>
        <time>2018-07-09T09:28:25Z</time>
      </trkpt>
      <trkpt lat="46.049854913726449" lon="10.486426306888461">
        <ele>2380.3600000000001</ele>
        <time>2018-07-09T09:28:41Z</time>
      </trkpt>
      <trkpt lat="46.049796156585217" lon="10.486404933035374">
        <ele>2380.3600000000001</ele>
        <time>2018-07-09T09:29:00Z</time>
      </trkpt>
      <trkpt lat="46.049824235960841" lon="10.486395712941885">
        <ele>2380.3600000000001</ele>
        <time>2018-07-09T09:29:20Z</time>
      </trkpt>
      <trkpt lat="46.049822140485048" lon="10.486408034339547">
        <ele>2380.3600000000001</ele>
        <time>2018-07-09T09:29:40Z</time>
      </trkpt>
      <trkpt lat="46.049800850450993" lon="10.486401747912169">
        <ele>2379.8800000000001</ele>
        <time>2018-07-09T09:29:58Z</time>
      </trkpt>
      <trkpt lat="46.0497503913939" lon="10.486435191705823">
        <ele>2379.8800000000001</ele>
        <time>2018-07-09T09:30:20Z</time>
      </trkpt>
      <trkpt lat="46.049771094694734" lon="10.48643896356225">
        <ele>2379.8800000000001</ele>
        <time>2018-07-09T09:30:42Z</time>
      </trkpt>
      <trkpt lat="46.049738069996238" lon="10.486442567780614">
        <ele>2380.3600000000001</ele>
        <time>2018-07-09T09:31:01Z</time>
      </trkpt>
      <trkpt lat="46.049731532111764" lon="10.486448770388961">
        <ele>2380.3600000000001</ele>
        <time>2018-07-09T09:31:14Z</time>
      </trkpt>
      <trkpt lat="46.049723317846656" lon="10.486449943855405">
        <ele>2380.3600000000001</ele>
        <time>2018-07-09T09:31:36Z</time>
      </trkpt>
      <trkpt lat="46.049696411937475" lon="10.48642479814589">
        <ele>2379.8800000000001</ele>
        <time>2018-07-09T09:32:00Z</time>
      </trkpt>
      <trkpt lat="46.049701189622283" lon="10.486414404585958">
        <ele>2380.8400000000001</ele>
        <time>2018-07-09T09:32:15Z</time>
      </trkpt>
      <trkpt lat="46.049680653959513" lon="10.486470311880112">
        <ele>2380.8400000000001</ele>
        <time>2018-07-09T09:32:25Z</time>
      </trkpt>
      <trkpt lat="46.049677217379212" lon="10.486492440104485">
        <ele>2380.8400000000001</ele>
        <time>2018-07-09T09:32:35Z</time>
      </trkpt>
      <trkpt lat="46.049684844911098" lon="10.486484225839376">
        <ele>2380.8400000000001</ele>
        <time>2018-07-09T09:32:52Z</time>
      </trkpt>
      <trkpt lat="46.049684006720781" lon="10.486464612185955">
        <ele>2380.8400000000001</ele>
        <time>2018-07-09T09:33:04Z</time>
      </trkpt>
      <trkpt lat="46.049682665616274" lon="10.486489338800311">
        <ele>2381.8000000000002</ele>
        <time>2018-07-09T09:33:13Z</time>
      </trkpt>
      <trkpt lat="46.049705045297742" lon="10.486517250537872">
        <ele>2382.2800000000002</ele>
        <time>2018-07-09T09:33:24Z</time>
      </trkpt>
      <trkpt lat="46.049765311181545" lon="10.486530074849725">
        <ele>2382.7600000000002</ele>
        <time>2018-07-09T09:33:33Z</time>
      </trkpt>
      <trkpt lat="46.049853740260005" lon="10.486569637432694">
        <ele>2382.7600000000002</ele>
        <time>2018-07-09T09:33:47Z</time>
      </trkpt>
      <trkpt lat="46.049887603148818" lon="10.486583048477769">
        <ele>2382.7600000000002</ele>
        <time>2018-07-09T09:33:57Z</time>
      </trkpt>
      <trkpt lat="46.049866061657667" lon="10.486613977700472">
        <ele>2382.2800000000002</ele>
        <time>2018-07-09T09:34:16Z</time>
      </trkpt>
      <trkpt lat="46.049847789108753" lon="10.486560668796301">
        <ele>2383.25</ele>
        <time>2018-07-09T09:34:30Z</time>
      </trkpt>
      <trkpt lat="46.049873605370522" lon="10.486500486731529">
        <ele>2383.25</ele>
        <time>2018-07-09T09:34:36Z</time>
      </trkpt>
      <trkpt lat="46.049990616738796" lon="10.486431587487459">
        <ele>2382.7600000000002</ele>
        <time>2018-07-09T09:34:47Z</time>
      </trkpt>
      <trkpt lat="46.050034454092383" lon="10.486432928591967">
        <ele>2384.6900000000001</ele>
        <time>2018-07-09T09:34:59Z</time>
      </trkpt>
      <trkpt lat="46.050062030553818" lon="10.486422032117844">
        <ele>2385.1700000000001</ele>
        <time>2018-07-09T09:35:13Z</time>
      </trkpt>
      <trkpt lat="46.050074603408575" lon="10.486445166170597">
        <ele>2386.6100000000001</ele>
        <time>2018-07-09T09:35:25Z</time>
      </trkpt>
      <trkpt lat="46.05012615211308" lon="10.486463354900479">
        <ele>2388.0500000000002</ele>
        <time>2018-07-09T09:35:36Z</time>
      </trkpt>
      <trkpt lat="46.050164541229606" lon="10.48644382506609">
        <ele>2389.4899999999998</ele>
        <time>2018-07-09T09:35:46Z</time>
      </trkpt>
      <trkpt lat="46.050179628655314" lon="10.486382301896811">
        <ele>2390.9400000000001</ele>
        <time>2018-07-09T09:35:57Z</time>
      </trkpt>
      <trkpt lat="46.050203517079353" lon="10.486306697130203">
        <ele>2391.9000000000001</ele>
        <time>2018-07-09T09:36:07Z</time>
      </trkpt>
      <trkpt lat="46.050248946994543" lon="10.486236708238721">
        <ele>2392.8600000000001</ele>
        <time>2018-07-09T09:36:17Z</time>
      </trkpt>
      <trkpt lat="46.050288341939449" lon="10.486259171739221">
        <ele>2394.3000000000002</ele>
        <time>2018-07-09T09:36:28Z</time>
      </trkpt>
      <trkpt lat="46.050334274768829" lon="10.486316084861755">
        <ele>2396.6999999999998</ele>
        <time>2018-07-09T09:36:40Z</time>
      </trkpt>
      <trkpt lat="46.050372580066323" lon="10.486293202266097">
        <ele>2397.6700000000001</ele>
        <time>2018-07-09T09:36:50Z</time>
      </trkpt>
      <trkpt lat="46.05041055008769" lon="10.486214412376285">
        <ele>2400.5500000000002</ele>
        <time>2018-07-09T09:37:04Z</time>
      </trkpt>
      <trkpt lat="46.050455560907722" lon="10.486145680770278">
        <ele>2401.9899999999998</ele>
        <time>2018-07-09T09:37:16Z</time>
      </trkpt>
      <trkpt lat="46.050465786829591" lon="10.486126821488142">
        <ele>2401.9899999999998</ele>
        <time>2018-07-09T09:37:19Z</time>
      </trkpt>
      <trkpt lat="46.050550108775496" lon="10.486080972477794">
        <ele>2401.9899999999998</ele>
        <time>2018-07-09T09:37:30Z</time>
      </trkpt>
      <trkpt lat="46.050616828724742" lon="10.485981395468116">
        <ele>2401.9899999999998</ele>
        <time>2018-07-09T09:37:42Z</time>
      </trkpt>
      <trkpt lat="46.050617750734091" lon="10.485921716317534">
        <ele>2403.9099999999999</ele>
        <time>2018-07-09T09:37:53Z</time>
      </trkpt>
      <trkpt lat="46.05059377849102" lon="10.485865892842412">
        <ele>2404.8800000000001</ele>
        <time>2018-07-09T09:38:02Z</time>
      </trkpt>
      <trkpt lat="46.050633676350117" lon="10.485795317217708">
        <ele>2407.2800000000002</ele>
        <time>2018-07-09T09:38:15Z</time>
      </trkpt>
      <trkpt lat="46.050669215619564" lon="10.485862791538239">
        <ele>2408.7199999999998</ele>
        <time>2018-07-09T09:38:27Z</time>
      </trkpt>
      <trkpt lat="46.050704503431916" lon="10.485838148742914">
        <ele>2410.6399999999999</ele>
        <time>2018-07-09T09:38:36Z</time>
      </trkpt>
      <trkpt lat="46.050728056579828" lon="10.485862623900175">
        <ele>2412.0900000000001</ele>
        <time>2018-07-09T09:38:46Z</time>
      </trkpt>
      <trkpt lat="46.050760913640261" lon="10.485902018845081">
        <ele>2413.0500000000002</ele>
        <time>2018-07-09T09:38:56Z</time>
      </trkpt>
      <trkpt lat="46.050795195624232" lon="10.485850386321545">
        <ele>2415.4499999999998</ele>
        <time>2018-07-09T09:39:06Z</time>
      </trkpt>
      <trkpt lat="46.05083760805428" lon="10.485906042158604">
        <ele>2415.9299999999998</ele>
        <time>2018-07-09T09:39:16Z</time>
      </trkpt>
      <trkpt lat="46.050900975242257" lon="10.485942922532558">
        <ele>2416.4099999999999</ele>
        <time>2018-07-09T09:39:26Z</time>
      </trkpt>
      <trkpt lat="46.050970712676644" lon="10.485956752672791">
        <ele>2417.8499999999999</ele>
        <time>2018-07-09T09:39:38Z</time>
      </trkpt>
      <trkpt lat="46.051030391827226" lon="10.485981060191989">
        <ele>2419.3000000000002</ele>
        <time>2018-07-09T09:39:49Z</time>
      </trkpt>
      <trkpt lat="46.051074732095003" lon="10.485975695773959">
        <ele>2420.7399999999998</ele>
        <time>2018-07-09T09:40:00Z</time>
      </trkpt>
      <trkpt lat="46.051103062927723" lon="10.48598600551486">
        <ele>2423.1399999999999</ele>
        <time>2018-07-09T09:40:11Z</time>
      </trkpt>
      <trkpt lat="46.051145140081644" lon="10.485960021615028">
        <ele>2424.5799999999999</ele>
        <time>2018-07-09T09:40:21Z</time>
      </trkpt>
      <trkpt lat="46.051175482571125" lon="10.485997991636395">
        <ele>2426.02</ele>
        <time>2018-07-09T09:40:32Z</time>
      </trkpt>
      <trkpt lat="46.051223007962108" lon="10.485973181203008">
        <ele>2427.4699999999998</ele>
        <time>2018-07-09T09:40:42Z</time>
      </trkpt>
      <trkpt lat="46.051248991861939" lon="10.485995560884476">
        <ele>2428.9099999999999</ele>
        <time>2018-07-09T09:40:52Z</time>
      </trkpt>
      <trkpt lat="46.051294589415193" lon="10.486020119860768">
        <ele>2429.8699999999999</ele>
        <time>2018-07-09T09:41:02Z</time>
      </trkpt>
      <trkpt lat="46.051345383748412" lon="10.486039649695158">
        <ele>2430.8299999999999</ele>
        <time>2018-07-09T09:41:14Z</time>
      </trkpt>
      <trkpt lat="46.051391819491982" lon="10.486044092103839">
        <ele>2432.27</ele>
        <time>2018-07-09T09:41:24Z</time>
      </trkpt>
      <trkpt lat="46.051431465893984" lon="10.486070662736893">
        <ele>2432.27</ele>
        <time>2018-07-09T09:41:38Z</time>
      </trkpt>
      <trkpt lat="46.051504723727703" lon="10.486124726012349">
        <ele>2433.71</ele>
        <time>2018-07-09T09:41:50Z</time>
      </trkpt>
      <trkpt lat="46.051574544981122" lon="10.486147273331881">
        <ele>2434.6799999999998</ele>
        <time>2018-07-09T09:42:01Z</time>
      </trkpt>
      <trkpt lat="46.051635146141052" lon="10.486167306080461">
        <ele>2435.1599999999999</ele>
        <time>2018-07-09T09:42:10Z</time>
      </trkpt>
      <trkpt lat="46.051672697067261" lon="10.486185243353248">
        <ele>2434.6799999999998</ele>
        <time>2018-07-09T09:42:15Z</time>
      </trkpt>
      <trkpt lat="46.051756599918008" lon="10.486223129555583">
        <ele>2435.1599999999999</ele>
        <time>2018-07-09T09:42:25Z</time>
      </trkpt>
      <trkpt lat="46.051846370100975" lon="10.486244084313512">
        <ele>2435.1599999999999</ele>
        <time>2018-07-09T09:42:34Z</time>
      </trkpt>
      <trkpt lat="46.051869923248887" lon="10.48626403324306">
        <ele>2435.1599999999999</ele>
        <time>2018-07-09T09:42:37Z</time>
      </trkpt>
      <trkpt lat="46.051963632926345" lon="10.486343074589968">
        <ele>2435.1599999999999</ele>
        <time>2018-07-09T09:42:49Z</time>
      </trkpt>
      <trkpt lat="46.052024150267243" lon="10.486376602202654">
        <ele>2435.1599999999999</ele>
        <time>2018-07-09T09:42:59Z</time>
      </trkpt>
      <trkpt lat="46.052073938772082" lon="10.48640082590282">
        <ele>2433.71</ele>
        <time>2018-07-09T09:43:09Z</time>
      </trkpt>
      <trkpt lat="46.052138395607471" lon="10.486444747075438">
        <ele>2431.79</ele>
        <time>2018-07-09T09:43:20Z</time>
      </trkpt>
      <trkpt lat="46.052189441397786" lon="10.486453799530864">
        <ele>2431.79</ele>
        <time>2018-07-09T09:43:27Z</time>
      </trkpt>
      <trkpt lat="46.052204612642527" lon="10.486444495618343">
        <ele>2431.79</ele>
        <time>2018-07-09T09:43:29Z</time>
      </trkpt>
      <trkpt lat="46.052297903224826" lon="10.486394707113504">
        <ele>2433.23</ele>
        <time>2018-07-09T09:43:41Z</time>
      </trkpt>
      <trkpt lat="46.052355905994773" lon="10.486355144530535">
        <ele>2434.1999999999998</ele>
        <time>2018-07-09T09:43:51Z</time>
      </trkpt>
      <trkpt lat="46.05239974334836" lon="10.486339721828699">
        <ele>2435.1599999999999</ele>
        <time>2018-07-09T09:44:00Z</time>
      </trkpt>
      <trkpt lat="46.052444251254201" lon="10.486331339925528">
        <ele>2436.5999999999999</ele>
        <time>2018-07-09T09:44:11Z</time>
      </trkpt>
      <trkpt lat="46.052499990910292" lon="10.486335614696145">
        <ele>2436.5999999999999</ele>
        <time>2018-07-09T09:44:21Z</time>
      </trkpt>
      <trkpt lat="46.052534691989422" lon="10.486400993540883">
        <ele>2437.0799999999999</ele>
        <time>2018-07-09T09:44:32Z</time>
      </trkpt>
      <trkpt lat="46.052533099427819" lon="10.486445836722851">
        <ele>2438.04</ele>
        <time>2018-07-09T09:44:44Z</time>
      </trkpt>
      <trkpt lat="46.052539385855198" lon="10.486494703218341">
        <ele>2439</ele>
        <time>2018-07-09T09:44:53Z</time>
      </trkpt>
      <trkpt lat="46.052540559321642" lon="10.486547509208322">
        <ele>2440.4400000000001</ele>
        <time>2018-07-09T09:45:02Z</time>
      </trkpt>
      <trkpt lat="46.052550282329321" lon="10.486562261357903">
        <ele>2440.9200000000001</ele>
        <time>2018-07-09T09:45:11Z</time>
      </trkpt>
      <trkpt lat="46.052565118297935" lon="10.486579947173595">
        <ele>2442.3699999999999</ele>
        <time>2018-07-09T09:45:19Z</time>
      </trkpt>
      <trkpt lat="46.052519604563713" lon="10.486643062904477">
        <ele>2443.8099999999999</ele>
        <time>2018-07-09T09:45:30Z</time>
      </trkpt>
      <trkpt lat="46.052499236539006" lon="10.486692935228348">
        <ele>2444.77</ele>
        <time>2018-07-09T09:45:41Z</time>
      </trkpt>
      <trkpt lat="46.052491357550025" lon="10.486756889149547">
        <ele>2446.6900000000001</ele>
        <time>2018-07-09T09:45:52Z</time>
      </trkpt>
      <trkpt lat="46.052488256245852" lon="10.486791590228677">
        <ele>2447.6500000000001</ele>
        <time>2018-07-09T09:46:02Z</time>
      </trkpt>
      <trkpt lat="46.05247207917273" lon="10.486837020143867">
        <ele>2448.6199999999999</ele>
        <time>2018-07-09T09:46:14Z</time>
      </trkpt>
      <trkpt lat="46.052466798573732" lon="10.486861327663064">
        <ele>2450.0599999999999</ele>
        <time>2018-07-09T09:46:25Z</time>
      </trkpt>
      <trkpt lat="46.052468474954367" lon="10.486880941316485">
        <ele>2451.02</ele>
        <time>2018-07-09T09:46:33Z</time>
      </trkpt>
      <trkpt lat="46.052492782473564" lon="10.486870799213648">
        <ele>2452.46</ele>
        <time>2018-07-09T09:46:43Z</time>
      </trkpt>
      <trkpt lat="46.052480209618807" lon="10.486934166401625">
        <ele>2453.9000000000001</ele>
        <time>2018-07-09T09:46:55Z</time>
      </trkpt>
      <trkpt lat="46.05249990709126" lon="10.486949170008302">
        <ele>2454.3800000000001</ele>
        <time>2018-07-09T09:47:04Z</time>
      </trkpt>
      <trkpt lat="46.052530752494931" lon="10.48694271594286">
        <ele>2455.8200000000002</ele>
        <time>2018-07-09T09:47:16Z</time>
      </trkpt>
      <trkpt lat="46.052544750273228" lon="10.486953612416983">
        <ele>2457.27</ele>
        <time>2018-07-09T09:47:26Z</time>
      </trkpt>
      <trkpt lat="46.05254877358675" lon="10.487008262425661">
        <ele>2458.71</ele>
        <time>2018-07-09T09:47:37Z</time>
      </trkpt>
      <trkpt lat="46.052549863234162" lon="10.487065678462386">
        <ele>2460.6300000000001</ele>
        <time>2018-07-09T09:47:48Z</time>
      </trkpt>
      <trkpt lat="46.052575008943677" lon="10.487109096720815">
        <ele>2462.0700000000002</ele>
        <time>2018-07-09T09:47:58Z</time>
      </trkpt>
      <trkpt lat="46.052570063620806" lon="10.487163662910461">
        <ele>2464</ele>
        <time>2018-07-09T09:48:08Z</time>
      </trkpt>
      <trkpt lat="46.052557993680239" lon="10.487189143896103">
        <ele>2464.48</ele>
        <time>2018-07-09T09:48:16Z</time>
      </trkpt>
      <trkpt lat="46.052567800506949" lon="10.487222503870726">
        <ele>2464.96</ele>
        <time>2018-07-09T09:48:28Z</time>
      </trkpt>
      <trkpt lat="46.05258347466588" lon="10.487201297655702">
        <ele>2465.9200000000001</ele>
        <time>2018-07-09T09:48:39Z</time>
      </trkpt>
      <trkpt lat="46.052596801891923" lon="10.487240608781576">
        <ele>2468.3200000000002</ele>
        <time>2018-07-09T09:48:49Z</time>
      </trkpt>
      <trkpt lat="46.052607111632824" lon="10.48721638508141">
        <ele>2469.2800000000002</ele>
        <time>2018-07-09T09:48:59Z</time>
      </trkpt>
      <trkpt lat="46.052632089704275" lon="10.487130051478744">
        <ele>2470.2399999999998</ele>
        <time>2018-07-09T09:49:09Z</time>
      </trkpt>
      <trkpt lat="46.052669724449515" lon="10.487098870798945">
        <ele>2471.6900000000001</ele>
        <time>2018-07-09T09:49:21Z</time>
      </trkpt>
      <trkpt lat="46.052679279819131" lon="10.487194005399942">
        <ele>2473.1300000000001</ele>
        <time>2018-07-09T09:49:32Z</time>
      </trkpt>
      <trkpt lat="46.052681962028146" lon="10.487234154716134">
        <ele>2474.0900000000001</ele>
        <time>2018-07-09T09:49:40Z</time>
      </trkpt>
      <trkpt lat="46.052692774683237" lon="10.48733021132648">
        <ele>2475.5300000000002</ele>
        <time>2018-07-09T09:49:52Z</time>
      </trkpt>
      <trkpt lat="46.052728481590748" lon="10.487423082813621">
        <ele>2476.0100000000002</ele>
        <time>2018-07-09T09:50:03Z</time>
      </trkpt>
      <trkpt lat="46.052753208205104" lon="10.487486869096756">
        <ele>2476.9699999999998</ele>
        <time>2018-07-09T09:50:12Z</time>
      </trkpt>
      <trkpt lat="46.052776593714952" lon="10.487557696178555">
        <ele>2477.4499999999998</ele>
        <time>2018-07-09T09:50:22Z</time>
      </trkpt>
      <trkpt lat="46.052799308672547" lon="10.487572280690074">
        <ele>2478.9000000000001</ele>
        <time>2018-07-09T09:50:32Z</time>
      </trkpt>
      <trkpt lat="46.052821604534984" lon="10.487479325383902">
        <ele>2479.8600000000001</ele>
        <time>2018-07-09T09:50:43Z</time>
      </trkpt>
      <trkpt lat="46.052829567342997" lon="10.48750463873148">
        <ele>2481.3000000000002</ele>
        <time>2018-07-09T09:50:52Z</time>
      </trkpt>
      <trkpt lat="46.05284096673131" lon="10.487537160515785">
        <ele>2482.2600000000002</ele>
        <time>2018-07-09T09:50:56Z</time>
      </trkpt>
      <trkpt lat="46.052860915660858" lon="10.487588625401258">
        <ele>2483.2199999999998</ele>
        <time>2018-07-09T09:51:07Z</time>
      </trkpt>
      <trkpt lat="46.052894443273544" lon="10.487610837444663">
        <ele>2483.6999999999998</ele>
        <time>2018-07-09T09:51:17Z</time>
      </trkpt>
      <trkpt lat="46.052926629781723" lon="10.487630954012275">
        <ele>2485.1500000000001</ele>
        <time>2018-07-09T09:51:26Z</time>
      </trkpt>
      <trkpt lat="46.052924450486898" lon="10.487575717270374">
        <ele>2486.1100000000001</ele>
        <time>2018-07-09T09:51:38Z</time>
      </trkpt>
      <trkpt lat="46.052963677793741" lon="10.487560043111444">
        <ele>2487.5500000000002</ele>
        <time>2018-07-09T09:51:50Z</time>
      </trkpt>
      <trkpt lat="46.052995445206761" lon="10.487559959292412">
        <ele>2488.5100000000002</ele>
        <time>2018-07-09T09:52:00Z</time>
      </trkpt>
      <trkpt lat="46.052995948120952" lon="10.48760044388473">
        <ele>2489.4699999999998</ele>
        <time>2018-07-09T09:52:11Z</time>
      </trkpt>
      <trkpt lat="46.052996283397079" lon="10.487644951790571">
        <ele>2490.4299999999998</ele>
        <time>2018-07-09T09:52:20Z</time>
      </trkpt>
      <trkpt lat="46.053026877343655" lon="10.48764243721962">
        <ele>2491.8699999999999</ele>
        <time>2018-07-09T09:52:29Z</time>
      </trkpt>
      <trkpt lat="46.053043724969029" lon="10.487620392814279">
        <ele>2492.8400000000001</ele>
        <time>2018-07-09T09:52:39Z</time>
      </trkpt>
      <trkpt lat="46.053059147670865" lon="10.487588960677385">
        <ele>2494.2800000000002</ele>
        <time>2018-07-09T09:52:50Z</time>
      </trkpt>
      <trkpt lat="46.053070714697242" lon="10.487550823017955">
        <ele>2496.6799999999998</ele>
        <time>2018-07-09T09:53:04Z</time>
      </trkpt>
      <trkpt lat="46.053090831264853" lon="10.487626595422626">
        <ele>2497.1599999999999</ele>
        <time>2018-07-09T09:53:14Z</time>
      </trkpt>
      <trkpt lat="46.05310826562345" lon="10.487657189369202">
        <ele>2498.1199999999999</ele>
        <time>2018-07-09T09:53:24Z</time>
      </trkpt>
      <trkpt lat="46.053109439089894" lon="10.487615698948503">
        <ele>2499.0799999999999</ele>
        <time>2018-07-09T09:53:39Z</time>
      </trkpt>
      <trkpt lat="46.053128885105252" lon="10.487611843273044">
        <ele>2500.0500000000002</ele>
        <time>2018-07-09T09:53:49Z</time>
      </trkpt>
      <trkpt lat="46.053129220381379" lon="10.487710414454341">
        <ele>2501.4899999999998</ele>
        <time>2018-07-09T09:53:59Z</time>
      </trkpt>
      <trkpt lat="46.053155623376369" lon="10.487762382254004">
        <ele>2503.4099999999999</ele>
        <time>2018-07-09T09:54:09Z</time>
      </trkpt>
      <trkpt lat="46.05317079462111" lon="10.487759951502085">
        <ele>2503.8899999999999</ele>
        <time>2018-07-09T09:54:18Z</time>
      </trkpt>
      <trkpt lat="46.053186049684882" lon="10.487776212394238">
        <ele>2504.8499999999999</ele>
        <time>2018-07-09T09:54:29Z</time>
      </trkpt>
      <trkpt lat="46.053198371082544" lon="10.487748049199581">
        <ele>2506.29</ele>
        <time>2018-07-09T09:54:38Z</time>
      </trkpt>
      <trkpt lat="46.053179930895567" lon="10.487674036994576">
        <ele>2507.2600000000002</ele>
        <time>2018-07-09T09:54:47Z</time>
      </trkpt>
      <trkpt lat="46.053211027756333" lon="10.487570269033313">
        <ele>2507.2600000000002</ele>
        <time>2018-07-09T09:54:58Z</time>
      </trkpt>
      <trkpt lat="46.053267354145646" lon="10.487472116947174">
        <ele>2506.29</ele>
        <time>2018-07-09T09:55:08Z</time>
      </trkpt>
      <trkpt lat="46.053272467106581" lon="10.48745728097856">
        <ele>2506.29</ele>
        <time>2018-07-09T09:55:10Z</time>
      </trkpt>
      <trkpt lat="46.053323345258832" lon="10.487401457503438">
        <ele>2507.2600000000002</ele>
        <time>2018-07-09T09:55:20Z</time>
      </trkpt>
      <trkpt lat="46.053360309451818" lon="10.48736834898591">
        <ele>2506.77</ele>
        <time>2018-07-09T09:55:29Z</time>
      </trkpt>
      <trkpt lat="46.053405907005072" lon="10.487325182184577">
        <ele>2505.3299999999999</ele>
        <time>2018-07-09T09:55:40Z</time>
      </trkpt>
      <trkpt lat="46.053465334698558" lon="10.487287463620305">
        <ele>2506.29</ele>
        <time>2018-07-09T09:55:50Z</time>
      </trkpt>
      <trkpt lat="46.053486373275518" lon="10.487259719520807">
        <ele>2505.8099999999999</ele>
        <time>2018-07-09T09:55:55Z</time>
      </trkpt>
      <trkpt lat="46.053533479571342" lon="10.487190736457705">
        <ele>2506.77</ele>
        <time>2018-07-09T09:56:05Z</time>
      </trkpt>
      <trkpt lat="46.053553596138954" lon="10.487185455858707">
        <ele>2507.2600000000002</ele>
        <time>2018-07-09T09:56:16Z</time>
      </trkpt>
      <trkpt lat="46.053557116538286" lon="10.487204231321812">
        <ele>2507.7399999999998</ele>
        <time>2018-07-09T09:56:28Z</time>
      </trkpt>
      <trkpt lat="46.053566420450807" lon="10.487225353717804">
        <ele>2506.77</ele>
        <time>2018-07-09T09:56:41Z</time>
      </trkpt>
      <trkpt lat="46.053573796525598" lon="10.487245721742511">
        <ele>2507.2600000000002</ele>
        <time>2018-07-09T09:56:52Z</time>
      </trkpt>
      <trkpt lat="46.053570359945297" lon="10.487213032320142">
        <ele>2507.7399999999998</ele>
        <time>2018-07-09T09:57:04Z</time>
      </trkpt>
      <trkpt lat="46.053583268076181" lon="10.487179337069392">
        <ele>2506.77</ele>
        <time>2018-07-09T09:57:07Z</time>
      </trkpt>
      <trkpt lat="46.053666835650802" lon="10.487111527472734">
        <ele>2507.2600000000002</ele>
        <time>2018-07-09T09:57:18Z</time>
      </trkpt>
      <trkpt lat="46.053695920854807" lon="10.487093171104789">
        <ele>2506.77</ele>
        <time>2018-07-09T09:57:22Z</time>
      </trkpt>
      <trkpt lat="46.053775632753968" lon="10.487086465582252">
        <ele>2507.2600000000002</ele>
        <time>2018-07-09T09:57:33Z</time>
      </trkpt>
      <trkpt lat="46.053804298862815" lon="10.487086633220315">
        <ele>2507.2600000000002</ele>
        <time>2018-07-09T09:57:36Z</time>
      </trkpt>
      <trkpt lat="46.053891219198704" lon="10.487071461975574">
        <ele>2506.29</ele>
        <time>2018-07-09T09:57:48Z</time>
      </trkpt>
      <trkpt lat="46.053941678255796" lon="10.487106498330832">
        <ele>2505.8099999999999</ele>
        <time>2018-07-09T09:57:57Z</time>
      </trkpt>
      <trkpt lat="46.054013092070818" lon="10.487130470573902">
        <ele>2506.29</ele>
        <time>2018-07-09T09:58:08Z</time>
      </trkpt>
      <trkpt lat="46.054027928039432" lon="10.487125022336841">
        <ele>2505.3299999999999</ele>
        <time>2018-07-09T09:58:19Z</time>
      </trkpt>
      <trkpt lat="46.054076794534922" lon="10.487099457532167">
        <ele>2504.3699999999999</ele>
        <time>2018-07-09T09:58:29Z</time>
      </trkpt>
      <trkpt lat="46.054152483120561" lon="10.487055536359549">
        <ele>2503.8899999999999</ele>
        <time>2018-07-09T09:58:40Z</time>
      </trkpt>
      <trkpt lat="46.054193051531911" lon="10.487058302387595">
        <ele>2502.4499999999998</ele>
        <time>2018-07-09T09:58:46Z</time>
      </trkpt>
      <trkpt lat="46.054267901927233" lon="10.487034078687429">
        <ele>2503.4099999999999</ele>
        <time>2018-07-09T09:58:57Z</time>
      </trkpt>
      <trkpt lat="46.054332526400685" lon="10.486993677914143">
        <ele>2504.3699999999999</ele>
        <time>2018-07-09T09:59:07Z</time>
      </trkpt>
      <trkpt lat="46.054395223036408" lon="10.486966855823994">
        <ele>2505.8099999999999</ele>
        <time>2018-07-09T09:59:18Z</time>
      </trkpt>
      <trkpt lat="46.05446713976562" lon="10.48696375451982">
        <ele>2506.77</ele>
        <time>2018-07-09T09:59:29Z</time>
      </trkpt>
      <trkpt lat="46.054525729268789" lon="10.487030642107129">
        <ele>2508.2199999999998</ele>
        <time>2018-07-09T09:59:41Z</time>
      </trkpt>
      <trkpt lat="46.054578199982643" lon="10.487038353458047">
        <ele>2509.1799999999998</ele>
        <time>2018-07-09T09:59:51Z</time>
      </trkpt>
      <trkpt lat="46.054623546078801" lon="10.48702578060329">
        <ele>2509.1799999999998</ele>
        <time>2018-07-09T09:59:59Z</time>
      </trkpt>
      <trkpt lat="46.054704766720533" lon="10.487030809745193">
        <ele>2509.6599999999999</ele>
        <time>2018-07-09T10:00:10Z</time>
      </trkpt>
      <trkpt lat="46.054749190807343" lon="10.487091410905123">
        <ele>2511.0999999999999</ele>
        <time>2018-07-09T10:00:21Z</time>
      </trkpt>
      <trkpt lat="46.054780790582299" lon="10.487077077850699">
        <ele>2513.5</ele>
        <time>2018-07-09T10:00:31Z</time>
      </trkpt>
      <trkpt lat="46.05480233207345" lon="10.487107755616307">
        <ele>2513.5</ele>
        <time>2018-07-09T10:00:41Z</time>
      </trkpt>
      <trkpt lat="46.054808031767607" lon="10.487144635990262">
        <ele>2514.4699999999998</ele>
        <time>2018-07-09T10:00:50Z</time>
      </trkpt>
      <trkpt lat="46.054817587137222" lon="10.487199453637004">
        <ele>2515.9099999999999</ele>
        <time>2018-07-09T10:01:02Z</time>
      </trkpt>
      <trkpt lat="46.054852958768606" lon="10.487214708700776">
        <ele>2517.3499999999999</ele>
        <time>2018-07-09T10:01:13Z</time>
      </trkpt>
      <trkpt lat="46.054876428097486" lon="10.487251002341509">
        <ele>2518.79</ele>
        <time>2018-07-09T10:01:22Z</time>
      </trkpt>
      <trkpt lat="46.054925043135881" lon="10.487246476113796">
        <ele>2520.23</ele>
        <time>2018-07-09T10:01:34Z</time>
      </trkpt>
      <trkpt lat="46.054941890761256" lon="10.487280590459704">
        <ele>2521.1900000000001</ele>
        <time>2018-07-09T10:01:42Z</time>
      </trkpt>
      <trkpt lat="46.054990170523524" lon="10.487300036475062">
        <ele>2522.6399999999999</ele>
        <time>2018-07-09T10:01:51Z</time>
      </trkpt>
      <trkpt lat="46.055034594610333" lon="10.48733121715486">
        <ele>2523.5999999999999</ele>
        <time>2018-07-09T10:02:04Z</time>
      </trkpt>
      <trkpt lat="46.055059572681785" lon="10.487365080043674">
        <ele>2525.52</ele>
        <time>2018-07-09T10:02:15Z</time>
      </trkpt>
      <trkpt lat="46.055085640400648" lon="10.487389890477061">
        <ele>2526.48</ele>
        <time>2018-07-09T10:02:26Z</time>
      </trkpt>
      <trkpt lat="46.055142804980278" lon="10.487403133884072">
        <ele>2527.9200000000001</ele>
        <time>2018-07-09T10:02:37Z</time>
      </trkpt>
      <trkpt lat="46.055184965953231" lon="10.487390644848347">
        <ele>2528.8899999999999</ele>
        <time>2018-07-09T10:02:45Z</time>
      </trkpt>
      <trkpt lat="46.055239783599973" lon="10.487402966246009">
        <ele>2529.8499999999999</ele>
        <time>2018-07-09T10:02:55Z</time>
      </trkpt>
      <trkpt lat="46.0552660189569" lon="10.487428111955523">
        <ele>2531.29</ele>
        <time>2018-07-09T10:03:05Z</time>
      </trkpt>
      <trkpt lat="46.055323351174593" lon="10.487440265715122">
        <ele>2531.77</ele>
        <time>2018-07-09T10:03:16Z</time>
      </trkpt>
      <trkpt lat="46.05536718852818" lon="10.487498436123133">
        <ele>2533.21</ele>
        <time>2018-07-09T10:03:25Z</time>
      </trkpt>
      <trkpt lat="46.055416390299797" lon="10.487520396709442">
        <ele>2534.1700000000001</ele>
        <time>2018-07-09T10:03:36Z</time>
      </trkpt>
      <trkpt lat="46.055434076115489" lon="10.487529113888741">
        <ele>2534.6500000000001</ele>
        <time>2018-07-09T10:03:51Z</time>
      </trkpt>
      <trkpt lat="46.055456036701798" lon="10.487530203536153">
        <ele>2535.1300000000001</ele>
        <time>2018-07-09T10:04:00Z</time>
      </trkpt>
      <trkpt lat="46.055476991459727" lon="10.487531125545502">
        <ele>2535.6100000000001</ele>
        <time>2018-07-09T10:04:07Z</time>
      </trkpt>
      <trkpt lat="46.055489061400294" lon="10.487514277920127">
        <ele>2536.5799999999999</ele>
        <time>2018-07-09T10:04:17Z</time>
      </trkpt>
      <trkpt lat="46.055504316464067" lon="10.487484689801931">
        <ele>2536.0999999999999</ele>
        <time>2018-07-09T10:04:25Z</time>
      </trkpt>
      <trkpt lat="46.05555041693151" lon="10.487510338425636">
        <ele>2538.02</ele>
        <time>2018-07-09T10:04:34Z</time>
      </trkpt>
      <trkpt lat="46.055605737492442" lon="10.487538082525134">
        <ele>2537.54</ele>
        <time>2018-07-09T10:04:43Z</time>
      </trkpt>
      <trkpt lat="46.055635828524828" lon="10.487557025626302">
        <ele>2538.5</ele>
        <time>2018-07-09T10:04:53Z</time>
      </trkpt>
      <trkpt lat="46.05566474609077" lon="10.487561468034983">
        <ele>2539.9400000000001</ele>
        <time>2018-07-09T10:05:05Z</time>
      </trkpt>
      <trkpt lat="46.055704308673739" lon="10.487545877695084">
        <ele>2540.9000000000001</ele>
        <time>2018-07-09T10:05:17Z</time>
      </trkpt>
      <trkpt lat="46.055735824629664" lon="10.487518217414618">
        <ele>2542.3400000000001</ele>
        <time>2018-07-09T10:05:28Z</time>
      </trkpt>
      <trkpt lat="46.055757869035006" lon="10.487541519105434">
        <ele>2544.27</ele>
        <time>2018-07-09T10:05:39Z</time>
      </trkpt>
      <trkpt lat="46.055758371949196" lon="10.487583177164197">
        <ele>2545.23</ele>
        <time>2018-07-09T10:05:50Z</time>
      </trkpt>
      <trkpt lat="46.055770525708795" lon="10.487599270418286">
        <ele>2546.6700000000001</ele>
        <time>2018-07-09T10:06:00Z</time>
      </trkpt>
      <trkpt lat="46.055795084685087" lon="10.487604970112443">
        <ele>2547.6300000000001</ele>
        <time>2018-07-09T10:06:10Z</time>
      </trkpt>
      <trkpt lat="46.055804891511798" lon="10.48765123821795">
        <ele>2549.0700000000002</ele>
        <time>2018-07-09T10:06:20Z</time>
      </trkpt>
      <trkpt lat="46.055820314213634" lon="10.487623242661357">
        <ele>2550.0300000000002</ele>
        <time>2018-07-09T10:06:30Z</time>
      </trkpt>
      <trkpt lat="46.055833976715803" lon="10.487648556008935">
        <ele>2551.48</ele>
        <time>2018-07-09T10:06:41Z</time>
      </trkpt>
      <trkpt lat="46.055838419124484" lon="10.487681329250336">
        <ele>2552.4400000000001</ele>
        <time>2018-07-09T10:06:53Z</time>
      </trkpt>
      <trkpt lat="46.055855015292764" lon="10.487676132470369">
        <ele>2553.8800000000001</ele>
        <time>2018-07-09T10:07:03Z</time>
      </trkpt>
      <trkpt lat="46.055876556783915" lon="10.48764880746603">
        <ele>2554.8400000000001</ele>
        <time>2018-07-09T10:07:13Z</time>
      </trkpt>
      <trkpt lat="46.055898852646351" lon="10.487675629556179">
        <ele>2556.2800000000002</ele>
        <time>2018-07-09T10:07:24Z</time>
      </trkpt>
      <trkpt lat="46.055917628109455" lon="10.487742768600583">
        <ele>2557.2399999999998</ele>
        <time>2018-07-09T10:07:33Z</time>
      </trkpt>
      <trkpt lat="46.055915364995599" lon="10.487810829654336">
        <ele>2557.73</ele>
        <time>2018-07-09T10:07:43Z</time>
      </trkpt>
      <trkpt lat="46.055919723585248" lon="10.487807560712099">
        <ele>2557.2399999999998</ele>
        <time>2018-07-09T10:07:55Z</time>
      </trkpt>
      <trkpt lat="46.055903127416968" lon="10.487784929573536">
        <ele>2557.73</ele>
        <time>2018-07-09T10:08:09Z</time>
      </trkpt>
      <trkpt lat="46.055888207629323" lon="10.48775534145534">
        <ele>2557.73</ele>
        <time>2018-07-09T10:08:18Z</time>
      </trkpt>
      <trkpt lat="46.055889632552862" lon="10.487762130796909">
        <ele>2557.2399999999998</ele>
        <time>2018-07-09T10:08:29Z</time>
      </trkpt>
      <trkpt lat="46.055889716371894" lon="10.487761879339814">
        <ele>2557.2399999999998</ele>
        <time>2018-07-09T10:08:45Z</time>
      </trkpt>
      <trkpt lat="46.055877059698105" lon="10.487767243757844">
        <ele>2557.2399999999998</ele>
        <time>2018-07-09T10:09:01Z</time>
      </trkpt>
      <trkpt lat="46.055899020284414" lon="10.487762214615941">
        <ele>2557.2399999999998</ele>
        <time>2018-07-09T10:09:22Z</time>
      </trkpt>
      <trkpt lat="46.055901702493429" lon="10.487763052806258">
        <ele>2557.2399999999998</ele>
        <time>2018-07-09T10:09:41Z</time>
      </trkpt>
      <trkpt lat="46.055886782705784" lon="10.487757520750165">
        <ele>2557.2399999999998</ele>
        <time>2018-07-09T10:09:57Z</time>
      </trkpt>
      <trkpt lat="46.055885190144181" lon="10.487765986472368">
        <ele>2557.73</ele>
        <time>2018-07-09T10:10:15Z</time>
      </trkpt>
      <trkpt lat="46.055888626724482" lon="10.487764477729797">
        <ele>2557.73</ele>
        <time>2018-07-09T10:10:48Z</time>
      </trkpt>
      <trkpt lat="46.05589197948575" lon="10.487771099433303">
        <ele>2557.73</ele>
        <time>2018-07-09T10:11:08Z</time>
      </trkpt>
      <trkpt lat="46.055887956172228" lon="10.487786689773202">
        <ele>2558.21</ele>
        <time>2018-07-09T10:11:36Z</time>
      </trkpt>
      <trkpt lat="46.055892650038004" lon="10.487790042534471">
        <ele>2558.21</ele>
        <time>2018-07-09T10:11:51Z</time>
      </trkpt>
      <trkpt lat="46.055895583704114" lon="10.487790545448661">
        <ele>2557.73</ele>
        <time>2018-07-09T10:12:17Z</time>
      </trkpt>
      <trkpt lat="46.05588854290545" lon="10.487777972593904">
        <ele>2558.21</ele>
        <time>2018-07-09T10:12:36Z</time>
      </trkpt>
      <trkpt lat="46.055882340297103" lon="10.487761460244656">
        <ele>2558.6900000000001</ele>
        <time>2018-07-09T10:12:50Z</time>
      </trkpt>
      <trkpt lat="46.0558997746557" lon="10.487749306485057">
        <ele>2558.6900000000001</ele>
        <time>2018-07-09T10:13:08Z</time>
      </trkpt>
      <trkpt lat="46.055882591754198" lon="10.48773773945868">
        <ele>2559.1700000000001</ele>
        <time>2018-07-09T10:13:27Z</time>
      </trkpt>
      <trkpt lat="46.055885525420308" lon="10.487747630104423">
        <ele>2559.1700000000001</ele>
        <time>2018-07-09T10:13:43Z</time>
      </trkpt>
      <trkpt lat="46.055883932858706" lon="10.487750899046659">
        <ele>2559.1700000000001</ele>
        <time>2018-07-09T10:13:57Z</time>
      </trkpt>
      <trkpt lat="46.055875550955534" lon="10.48771720379591">
        <ele>2559.1700000000001</ele>
        <time>2018-07-09T10:14:20Z</time>
      </trkpt>
      <trkpt lat="46.05590027756989" lon="10.487741846591234">
        <ele>2559.1700000000001</ele>
        <time>2018-07-09T10:14:34Z</time>
      </trkpt>
      <trkpt lat="46.055888710543513" lon="10.487723322585225">
        <ele>2559.6500000000001</ele>
        <time>2018-07-09T10:14:46Z</time>
      </trkpt>
      <trkpt lat="46.055889632552862" lon="10.487724663689733">
        <ele>2559.6500000000001</ele>
        <time>2018-07-09T10:14:59Z</time>
      </trkpt>
      <trkpt lat="46.055876640602946" lon="10.48770840279758">
        <ele>2559.6500000000001</ele>
        <time>2018-07-09T10:15:16Z</time>
      </trkpt>
      <trkpt lat="46.055906312540174" lon="10.48776657320559">
        <ele>2559.6500000000001</ele>
        <time>2018-07-09T10:15:32Z</time>
      </trkpt>
      <trkpt lat="46.055882843211293" lon="10.487749138846993">
        <ele>2559.6500000000001</ele>
        <time>2018-07-09T10:15:44Z</time>
      </trkpt>
      <trkpt lat="46.055886279791594" lon="10.487760957330465">
        <ele>2559.6500000000001</ele>
        <time>2018-07-09T10:15:59Z</time>
      </trkpt>
      <trkpt lat="46.055874545127153" lon="10.487727345898747">
        <ele>2559.6500000000001</ele>
        <time>2018-07-09T10:16:21Z</time>
      </trkpt>
      <trkpt lat="46.055887369439006" lon="10.487752743065357">
        <ele>2560.1300000000001</ele>
        <time>2018-07-09T10:16:37Z</time>
      </trkpt>
      <trkpt lat="46.055883094668388" lon="10.487791216000915">
        <ele>2560.6100000000001</ele>
        <time>2018-07-09T10:16:55Z</time>
      </trkpt>
      <trkpt lat="46.055890051648021" lon="10.487788701429963">
        <ele>2560.6100000000001</ele>
        <time>2018-07-09T10:17:09Z</time>
      </trkpt>
      <trkpt lat="46.055896673351526" lon="10.487781744450331">
        <ele>2559.6500000000001</ele>
        <time>2018-07-09T10:17:27Z</time>
      </trkpt>
      <trkpt lat="46.055907737463713" lon="10.487775709480047">
        <ele>2560.1300000000001</ele>
        <time>2018-07-09T10:17:46Z</time>
      </trkpt>
      <trkpt lat="46.055890638381243" lon="10.487741595134139">
        <ele>2560.1300000000001</ele>
        <time>2018-07-09T10:18:06Z</time>
      </trkpt>
      <trkpt lat="46.055886363610625" lon="10.487736649811268">
        <ele>2560.1300000000001</ele>
        <time>2018-07-09T10:18:24Z</time>
      </trkpt>
      <trkpt lat="46.055900109931827" lon="10.487764310091734">
        <ele>2560.1300000000001</ele>
        <time>2018-07-09T10:18:45Z</time>
      </trkpt>
      <trkpt lat="46.055920729413629" lon="10.487715443596244">
        <ele>2560.6100000000001</ele>
        <time>2018-07-09T10:18:56Z</time>
      </trkpt>
      <trkpt lat="46.055959537625313" lon="10.487665235996246">
        <ele>2562.5300000000002</ele>
        <time>2018-07-09T10:19:07Z</time>
      </trkpt>
      <trkpt lat="46.055993316695094" lon="10.487593822181225">
        <ele>2563.9699999999998</ele>
        <time>2018-07-09T10:19:20Z</time>
      </trkpt>
      <trkpt lat="46.056028436869383" lon="10.487580327317119">
        <ele>2564.9299999999998</ele>
        <time>2018-07-09T10:19:29Z</time>
      </trkpt>
      <trkpt lat="46.05604637414217" lon="10.487568508833647">
        <ele>2566.3800000000001</ele>
        <time>2018-07-09T10:19:40Z</time>
      </trkpt>
      <trkpt lat="46.056032627820969" lon="10.487527102231979">
        <ele>2568.3000000000002</ele>
        <time>2018-07-09T10:19:52Z</time>
      </trkpt>
      <trkpt lat="46.056037237867713" lon="10.48747873865068">
        <ele>2569.2600000000002</ele>
        <time>2018-07-09T10:20:05Z</time>
      </trkpt>
      <trkpt lat="46.056029107421637" lon="10.48743330873549">
        <ele>2570.2199999999998</ele>
        <time>2018-07-09T10:20:14Z</time>
      </trkpt>
      <trkpt lat="46.056067915633321" lon="10.487413024529815">
        <ele>2571.6599999999999</ele>
        <time>2018-07-09T10:20:24Z</time>
      </trkpt>
      <trkpt lat="46.056126253679395" lon="10.487446635961533">
        <ele>2572.6300000000001</ele>
        <time>2018-07-09T10:20:35Z</time>
      </trkpt>
      <trkpt lat="46.056182663887739" lon="10.48748561181128">
        <ele>2573.5900000000001</ele>
        <time>2018-07-09T10:20:45Z</time>
      </trkpt>
      <trkpt lat="46.056238655000925" lon="10.487491982057691">
        <ele>2573.1100000000001</ele>
        <time>2018-07-09T10:20:55Z</time>
      </trkpt>
      <trkpt lat="46.056240750476718" lon="10.487507069483399">
        <ele>2572.6300000000001</ele>
        <time>2018-07-09T10:21:08Z</time>
      </trkpt>
      <trkpt lat="46.056307470425963" lon="10.487488713115454">
        <ele>2573.1100000000001</ele>
        <time>2018-07-09T10:21:19Z</time>
      </trkpt>
      <trkpt lat="46.056353151798248" lon="10.487460130825639">
        <ele>2574.5500000000002</ele>
        <time>2018-07-09T10:21:29Z</time>
      </trkpt>
      <trkpt lat="46.056420123204589" lon="10.487427189946175">
        <ele>2574.0700000000002</ele>
        <time>2018-07-09T10:21:40Z</time>
      </trkpt>
      <trkpt lat="46.056443005800247" lon="10.48738494515419">
        <ele>2573.5900000000001</ele>
        <time>2018-07-09T10:21:44Z</time>
      </trkpt>
      <trkpt lat="46.05647929944098" lon="10.487341610714793">
        <ele>2573.1100000000001</ele>
        <time>2018-07-09T10:21:49Z</time>
      </trkpt>
      <trkpt lat="46.056585079059005" lon="10.487320991232991">
        <ele>2571.6599999999999</ele>
        <time>2018-07-09T10:22:02Z</time>
      </trkpt>
      <trkpt lat="46.056674011051655" lon="10.487356195226312">
        <ele>2572.1399999999999</ele>
        <time>2018-07-09T10:22:13Z</time>
      </trkpt>
      <trkpt lat="46.05674559250474" lon="10.487346220761538">
        <ele>2573.1100000000001</ele>
        <time>2018-07-09T10:22:23Z</time>
      </trkpt>
      <trkpt lat="46.056807702407241" lon="10.487341359257698">
        <ele>2575.0300000000002</ele>
        <time>2018-07-09T10:22:36Z</time>
      </trkpt>
      <trkpt lat="46.056834775954485" lon="10.487349908798933">
        <ele>2575.5100000000002</ele>
        <time>2018-07-09T10:22:41Z</time>
      </trkpt>
      <trkpt lat="46.05692882090807" lon="10.487308502197266">
        <ele>2575.9899999999998</ele>
        <time>2018-07-09T10:22:54Z</time>
      </trkpt>
      <trkpt lat="46.056997133418918" lon="10.487249912694097">
        <ele>2575.9899999999998</ele>
        <time>2018-07-09T10:23:05Z</time>
      </trkpt>
      <trkpt lat="46.057083802297711" lon="10.48722661100328">
        <ele>2575.5100000000002</ele>
        <time>2018-07-09T10:23:16Z</time>
      </trkpt>
      <trkpt lat="46.05719025246799" lon="10.487251840531826">
        <ele>2574.0700000000002</ele>
        <time>2018-07-09T10:23:28Z</time>
      </trkpt>
      <trkpt lat="46.057277088984847" lon="10.487203225493431">
        <ele>2571.1799999999998</ele>
        <time>2018-07-09T10:23:41Z</time>
      </trkpt>
      <trkpt lat="46.057357890531421" lon="10.487191407009959">
        <ele>2569.2600000000002</ele>
        <time>2018-07-09T10:23:54Z</time>
      </trkpt>
      <trkpt lat="46.057434501126409" lon="10.487179001793265">
        <ele>2568.3000000000002</ele>
        <time>2018-07-09T10:24:06Z</time>
      </trkpt>
      <trkpt lat="46.057507339864969" lon="10.487180175259709">
        <ele>2566.8600000000001</ele>
        <time>2018-07-09T10:24:16Z</time>
      </trkpt>
      <trkpt lat="46.057594763115048" lon="10.487152682617307">
        <ele>2564.9299999999998</ele>
        <time>2018-07-09T10:24:26Z</time>
      </trkpt>
      <trkpt lat="46.057642037048936" lon="10.487143211066723">
        <ele>2565.4200000000001</ele>
        <time>2018-07-09T10:24:38Z</time>
      </trkpt>
      <trkpt lat="46.057688137516379" lon="10.487200124189258">
        <ele>2563.4899999999998</ele>
        <time>2018-07-09T10:24:49Z</time>
      </trkpt>
      <trkpt lat="46.057709008455276" lon="10.48719635233283">
        <ele>2562.0500000000002</ele>
        <time>2018-07-09T10:24:59Z</time>
      </trkpt>
      <trkpt lat="46.057743458077312" lon="10.487225772812963">
        <ele>2560.6100000000001</ele>
        <time>2018-07-09T10:25:08Z</time>
      </trkpt>
      <trkpt lat="46.057756617665291" lon="10.487226191908121">
        <ele>2559.6500000000001</ele>
        <time>2018-07-09T10:25:12Z</time>
      </trkpt>
      <trkpt lat="46.057848148047924" lon="10.487182019278407">
        <ele>2560.1300000000001</ele>
        <time>2018-07-09T10:25:22Z</time>
      </trkpt>
      <trkpt lat="46.057918220758438" lon="10.487157795578241">
        <ele>2558.21</ele>
        <time>2018-07-09T10:25:33Z</time>
      </trkpt>
      <trkpt lat="46.05796474032104" lon="10.487234238535166">
        <ele>2556.7600000000002</ele>
        <time>2018-07-09T10:25:42Z</time>
      </trkpt>
      <trkpt lat="46.058011595159769" lon="10.487291403114796">
        <ele>2555.8000000000002</ele>
        <time>2018-07-09T10:25:52Z</time>
      </trkpt>
      <trkpt lat="46.058063311502337" lon="10.487358039245009">
        <ele>2555.8000000000002</ele>
        <time>2018-07-09T10:26:03Z</time>
      </trkpt>
      <trkpt lat="46.05812550522387" lon="10.487373294308782">
        <ele>2555.8000000000002</ele>
        <time>2018-07-09T10:26:13Z</time>
      </trkpt>
      <trkpt lat="46.058136485517025" lon="10.487383101135492">
        <ele>2555.8000000000002</ele>
        <time>2018-07-09T10:26:15Z</time>
      </trkpt>
      <trkpt lat="46.058189794421196" lon="10.487431297078729">
        <ele>2556.7600000000002</ele>
        <time>2018-07-09T10:26:25Z</time>
      </trkpt>
      <trkpt lat="46.058228854089975" lon="10.48743674531579">
        <ele>2556.7600000000002</ele>
        <time>2018-07-09T10:26:35Z</time>
      </trkpt>
      <trkpt lat="46.058258693665266" lon="10.487455353140831">
        <ele>2556.2800000000002</ele>
        <time>2018-07-09T10:26:46Z</time>
      </trkpt>
      <trkpt lat="46.058271685615182" lon="10.487453173846006">
        <ele>2556.2800000000002</ele>
        <time>2018-07-09T10:26:50Z</time>
      </trkpt>
      <trkpt lat="46.058348631486297" lon="10.487514194101095">
        <ele>2556.7600000000002</ele>
        <time>2018-07-09T10:27:02Z</time>
      </trkpt>
      <trkpt lat="46.058385595679283" lon="10.487584853544831">
        <ele>2556.7600000000002</ele>
        <time>2018-07-09T10:27:11Z</time>
      </trkpt>
      <trkpt lat="46.058399425819516" lon="10.487625673413277">
        <ele>2556.7600000000002</ele>
        <time>2018-07-09T10:27:15Z</time>
      </trkpt>
      <trkpt lat="46.058459607884288" lon="10.487679904326797">
        <ele>2555.8000000000002</ele>
        <time>2018-07-09T10:27:26Z</time>
      </trkpt>
      <trkpt lat="46.058465726673603" lon="10.487705217674375">
        <ele>2555.3200000000002</ele>
        <time>2018-07-09T10:27:29Z</time>
      </trkpt>
      <trkpt lat="46.058492213487625" lon="10.487779146060348">
        <ele>2555.3200000000002</ele>
        <time>2018-07-09T10:27:40Z</time>
      </trkpt>
      <trkpt lat="46.058514593169093" lon="10.48783253878355">
        <ele>2555.3200000000002</ele>
        <time>2018-07-09T10:27:53Z</time>
      </trkpt>
      <trkpt lat="46.058536972850561" lon="10.487868497148156">
        <ele>2554.3600000000001</ele>
        <time>2018-07-09T10:28:04Z</time>
      </trkpt>
      <trkpt lat="46.058539906516671" lon="10.487906048074365">
        <ele>2553.4000000000001</ele>
        <time>2018-07-09T10:28:12Z</time>
      </trkpt>
      <trkpt lat="46.058528758585453" lon="10.487947035580873">
        <ele>2552.4400000000001</ele>
        <time>2018-07-09T10:28:23Z</time>
      </trkpt>
      <trkpt lat="46.0585056245327" lon="10.487957512959838">
        <ele>2550.5100000000002</ele>
        <time>2018-07-09T10:28:33Z</time>
      </trkpt>
      <trkpt lat="46.058536805212498" lon="10.488017862662673">
        <ele>2548.5900000000001</ele>
        <time>2018-07-09T10:28:44Z</time>
      </trkpt>
      <trkpt lat="46.058557005599141" lon="10.488081816583872">
        <ele>2547.1500000000001</ele>
        <time>2018-07-09T10:28:56Z</time>
      </trkpt>
      <trkpt lat="46.058586174622178" lon="10.488091791048646">
        <ele>2545.71</ele>
        <time>2018-07-09T10:29:05Z</time>
      </trkpt>
      <trkpt lat="46.058612829074264" lon="10.488122720271349">
        <ele>2544.75</ele>
        <time>2018-07-09T10:29:14Z</time>
      </trkpt>
      <trkpt lat="46.058650799095631" lon="10.488121546804905">
        <ele>2542.8200000000002</ele>
        <time>2018-07-09T10:29:27Z</time>
      </trkpt>
      <trkpt lat="46.058675022795796" lon="10.488132694736123">
        <ele>2541.8600000000001</ele>
        <time>2018-07-09T10:29:37Z</time>
      </trkpt>
      <trkpt lat="46.058697234839201" lon="10.488155577331781">
        <ele>2539.9400000000001</ele>
        <time>2018-07-09T10:29:48Z</time>
      </trkpt>
      <trkpt lat="46.05871525593102" lon="10.488179130479693">
        <ele>2538.5</ele>
        <time>2018-07-09T10:29:56Z</time>
      </trkpt>
      <trkpt lat="46.058737970888615" lon="10.488211819902062">
        <ele>2537.0599999999999</ele>
        <time>2018-07-09T10:30:04Z</time>
      </trkpt>
      <trkpt lat="46.058767978101969" lon="10.488201258704066">
        <ele>2536.0999999999999</ele>
        <time>2018-07-09T10:30:14Z</time>
      </trkpt>
      <trkpt lat="46.05879002250731" lon="10.488233026117086">
        <ele>2534.6500000000001</ele>
        <time>2018-07-09T10:30:24Z</time>
      </trkpt>
      <trkpt lat="46.058799577876925" lon="10.488306116312742">
        <ele>2533.6900000000001</ele>
        <time>2018-07-09T10:30:34Z</time>
      </trkpt>
      <trkpt lat="46.058803349733353" lon="10.48831382766366">
        <ele>2532.73</ele>
        <time>2018-07-09T10:30:36Z</time>
      </trkpt>
      <trkpt lat="46.05888482183218" lon="10.488340649753809">
        <ele>2532.73</ele>
        <time>2018-07-09T10:30:51Z</time>
      </trkpt>
      <trkpt lat="46.05889362283051" lon="10.48833335749805">
        <ele>2532.73</ele>
        <time>2018-07-09T10:31:01Z</time>
      </trkpt>
      <trkpt lat="46.058937460184097" lon="10.48828449100256">
        <ele>2530.8099999999999</ele>
        <time>2018-07-09T10:31:09Z</time>
      </trkpt>
      <trkpt lat="46.0590460896492" lon="10.488261356949806">
        <ele>2529.8499999999999</ele>
        <time>2018-07-09T10:31:19Z</time>
      </trkpt>
      <trkpt lat="46.059120101854205" lon="10.488249538466334">
        <ele>2529.3699999999999</ele>
        <time>2018-07-09T10:31:29Z</time>
      </trkpt>
      <trkpt lat="46.059222277253866" lon="10.488280048593879">
        <ele>2527.9200000000001</ele>
        <time>2018-07-09T10:31:41Z</time>
      </trkpt>
      <trkpt lat="46.059315148741007" lon="10.488338638097048">
        <ele>2527.4400000000001</ele>
        <time>2018-07-09T10:31:51Z</time>
      </trkpt>
      <trkpt lat="46.059373989701271" lon="10.488310223445296">
        <ele>2527.4400000000001</ele>
        <time>2018-07-09T10:32:01Z</time>
      </trkpt>
      <trkpt lat="46.059432746842504" lon="10.488316509872675">
        <ele>2526.48</ele>
        <time>2018-07-09T10:32:10Z</time>
      </trkpt>
      <trkpt lat="46.05945898219943" lon="10.488322461023927">
        <ele>2526</ele>
        <time>2018-07-09T10:32:13Z</time>
      </trkpt>
      <trkpt lat="46.059543136507273" lon="10.488369734957814">
        <ele>2526.96</ele>
        <time>2018-07-09T10:32:25Z</time>
      </trkpt>
      <trkpt lat="46.059599798172712" lon="10.488426061347127">
        <ele>2526.48</ele>
        <time>2018-07-09T10:32:35Z</time>
      </trkpt>
      <trkpt lat="46.059641875326633" lon="10.488489344716072">
        <ele>2526.96</ele>
        <time>2018-07-09T10:32:47Z</time>
      </trkpt>
      <trkpt lat="46.0596539452672" lon="10.48856059089303">
        <ele>2526</ele>
        <time>2018-07-09T10:32:57Z</time>
      </trkpt>
      <trkpt lat="46.059676073491573" lon="10.488574588671327">
        <ele>2525.52</ele>
        <time>2018-07-09T10:33:07Z</time>
      </trkpt>
      <trkpt lat="46.059714378789067" lon="10.488555226475">
        <ele>2524.0799999999999</ele>
        <time>2018-07-09T10:33:16Z</time>
      </trkpt>
      <trkpt lat="46.059741284698248" lon="10.488583389669657">
        <ele>2522.6399999999999</ele>
        <time>2018-07-09T10:33:25Z</time>
      </trkpt>
      <trkpt lat="46.05977556668222" lon="10.488585066050291">
        <ele>2520.71</ele>
        <time>2018-07-09T10:33:34Z</time>
      </trkpt>
      <trkpt lat="46.059834994375706" lon="10.488624209538102">
        <ele>2518.3099999999999</ele>
        <time>2018-07-09T10:33:43Z</time>
      </trkpt>
      <trkpt lat="46.059922501444817" lon="10.488694868981838">
        <ele>2516.3899999999999</ele>
        <time>2018-07-09T10:33:54Z</time>
      </trkpt>
      <trkpt lat="46.059929961338639" lon="10.488704172894359">
        <ele>2516.3899999999999</ele>
        <time>2018-07-09T10:33:55Z</time>
      </trkpt>
      <trkpt lat="46.060006907209754" lon="10.488759996369481">
        <ele>2516.3899999999999</ele>
        <time>2018-07-09T10:34:04Z</time>
      </trkpt>
      <trkpt lat="46.060059545561671" lon="10.488802073523402">
        <ele>2516.8699999999999</ele>
        <time>2018-07-09T10:34:16Z</time>
      </trkpt>
      <trkpt lat="46.06011419557035" lon="10.488847503438592">
        <ele>2517.8299999999999</ele>
        <time>2018-07-09T10:34:28Z</time>
      </trkpt>
      <trkpt lat="46.060156859457493" lon="10.488840797916055">
        <ele>2519.75</ele>
        <time>2018-07-09T10:34:38Z</time>
      </trkpt>
      <trkpt lat="46.060176556929946" lon="10.488794026896358">
        <ele>2521.1900000000001</ele>
        <time>2018-07-09T10:34:48Z</time>
      </trkpt>
      <trkpt lat="46.060203881934285" lon="10.488774077966809">
        <ele>2522.6399999999999</ele>
        <time>2018-07-09T10:34:57Z</time>
      </trkpt>
      <trkpt lat="46.060215700417757" lon="10.488776676356792">
        <ele>2523.5999999999999</ele>
        <time>2018-07-09T10:35:08Z</time>
      </trkpt>
      <trkpt lat="46.06024713255465" lon="10.488785058259964">
        <ele>2525.52</ele>
        <time>2018-07-09T10:35:17Z</time>
      </trkpt>
      <trkpt lat="46.060273703187704" lon="10.488808695226908">
        <ele>2526.48</ele>
        <time>2018-07-09T10:35:27Z</time>
      </trkpt>
      <trkpt lat="46.060307314619422" lon="10.488816406577826">
        <ele>2527.9200000000001</ele>
        <time>2018-07-09T10:35:38Z</time>
      </trkpt>
      <trkpt lat="46.060350397601724" lon="10.488811628893018">
        <ele>2530.3299999999999</ele>
        <time>2018-07-09T10:35:52Z</time>
      </trkpt>
      <trkpt lat="46.060393732041121" lon="10.488850269466639">
        <ele>2531.29</ele>
        <time>2018-07-09T10:36:03Z</time>
      </trkpt>
      <trkpt lat="46.060439329594374" lon="10.48888111487031">
        <ele>2532.73</ele>
        <time>2018-07-09T10:36:14Z</time>
      </trkpt>
      <trkpt lat="46.060484256595373" lon="10.488913469016552">
        <ele>2534.1700000000001</ele>
        <time>2018-07-09T10:36:24Z</time>
      </trkpt>
      <trkpt lat="46.060530440881848" lon="10.488952612504363">
        <ele>2535.1300000000001</ele>
        <time>2018-07-09T10:36:35Z</time>
      </trkpt>
      <trkpt lat="46.060578050091863" lon="10.488977842032909">
        <ele>2536.0999999999999</ele>
        <time>2018-07-09T10:36:45Z</time>
      </trkpt>
      <trkpt lat="46.060593891888857" lon="10.48897591419518">
        <ele>2536.0999999999999</ele>
        <time>2018-07-09T10:36:47Z</time>
      </trkpt>
      <trkpt lat="46.060696486383677" lon="10.489029390737414">
        <ele>2535.6100000000001</ele>
        <time>2018-07-09T10:36:59Z</time>
      </trkpt>
      <trkpt lat="46.060720877721906" lon="10.48905068077147">
        <ele>2535.1300000000001</ele>
        <time>2018-07-09T10:37:02Z</time>
      </trkpt>
      <trkpt lat="46.060829255729914" lon="10.489060655236244">
        <ele>2535.6100000000001</ele>
        <time>2018-07-09T10:37:16Z</time>
      </trkpt>
      <trkpt lat="46.060898909345269" lon="10.489070462062955">
        <ele>2537.0599999999999</ele>
        <time>2018-07-09T10:37:27Z</time>
      </trkpt>
      <trkpt lat="46.060905950143933" lon="10.489075239747763">
        <ele>2537.54</ele>
        <time>2018-07-09T10:37:29Z</time>
      </trkpt>
      <trkpt lat="46.060963198542595" lon="10.489108683541417">
        <ele>2538.02</ele>
        <time>2018-07-09T10:37:40Z</time>
      </trkpt>
      <trkpt lat="46.060993038117886" lon="10.489102061837912">
        <ele>2538.98</ele>
        <time>2018-07-09T10:37:51Z</time>
      </trkpt>
      <trkpt lat="46.06100351549685" lon="10.489115389063954">
        <ele>2538.98</ele>
        <time>2018-07-09T10:38:06Z</time>
      </trkpt>
      <trkpt lat="46.06102597899735" lon="10.48910005018115">
        <ele>2538.5</ele>
        <time>2018-07-09T10:38:19Z</time>
      </trkpt>
      <trkpt lat="46.061033271253109" lon="10.489086471498013">
        <ele>2538.02</ele>
        <time>2018-07-09T10:38:21Z</time>
      </trkpt>
      <trkpt lat="46.061109965667129" lon="10.489086555317044">
        <ele>2537.54</ele>
        <time>2018-07-09T10:38:32Z</time>
      </trkpt>
      <trkpt lat="46.061129663139582" lon="10.489119160920382">
        <ele>2537.0599999999999</ele>
        <time>2018-07-09T10:38:40Z</time>
      </trkpt>
      <trkpt lat="46.061134105548263" lon="10.489126788452268">
        <ele>2536.5799999999999</ele>
        <time>2018-07-09T10:38:56Z</time>
      </trkpt>
      <trkpt lat="46.061116587370634" lon="10.489141372963786">
        <ele>2536.5799999999999</ele>
        <time>2018-07-09T10:39:18Z</time>
      </trkpt>
      <trkpt lat="46.061150785535574" lon="10.489120753481984">
        <ele>2537.0599999999999</ele>
        <time>2018-07-09T10:39:33Z</time>
      </trkpt>
      <trkpt lat="46.06122144497931" lon="10.489168362691998">
        <ele>2535.1300000000001</ele>
        <time>2018-07-09T10:39:46Z</time>
      </trkpt>
      <trkpt lat="46.061246087774634" lon="10.489199794828892">
        <ele>2533.6900000000001</ele>
        <time>2018-07-09T10:39:55Z</time>
      </trkpt>
      <trkpt lat="46.061242818832397" lon="10.489232484251261">
        <ele>2533.6900000000001</ele>
        <time>2018-07-09T10:40:02Z</time>
      </trkpt>
      <trkpt lat="46.061229072511196" lon="10.489191915839911">
        <ele>2534.1700000000001</ele>
        <time>2018-07-09T10:40:09Z</time>
      </trkpt>
      <trkpt lat="46.061281794682145" lon="10.489171212539077">
        <ele>2533.6900000000001</ele>
        <time>2018-07-09T10:40:20Z</time>
      </trkpt>
      <trkpt lat="46.061310544610023" lon="10.489173559471965">
        <ele>2533.21</ele>
        <time>2018-07-09T10:40:33Z</time>
      </trkpt>
      <trkpt lat="46.061320854350924" lon="10.489186132326722">
        <ele>2533.21</ele>
        <time>2018-07-09T10:40:47Z</time>
      </trkpt>
      <trkpt lat="46.061347089707851" lon="10.489176409319043">
        <ele>2533.21</ele>
        <time>2018-07-09T10:41:01Z</time>
      </trkpt>
      <trkpt lat="46.061438117176294" lon="10.489174984395504">
        <ele>2534.1700000000001</ele>
        <time>2018-07-09T10:41:12Z</time>
      </trkpt>
      <trkpt lat="46.061538616195321" lon="10.489179342985153">
        <ele>2533.6900000000001</ele>
        <time>2018-07-09T10:41:24Z</time>
      </trkpt>
      <trkpt lat="46.061614723876119" lon="10.489232735708356">
        <ele>2534.1700000000001</ele>
        <time>2018-07-09T10:41:34Z</time>
      </trkpt>
      <trkpt lat="46.061690831556916" lon="10.489230640232563">
        <ele>2534.1700000000001</ele>
        <time>2018-07-09T10:41:46Z</time>
      </trkpt>
      <trkpt lat="46.061770375818014" lon="10.489226616919041">
        <ele>2533.21</ele>
        <time>2018-07-09T10:41:56Z</time>
      </trkpt>
      <trkpt lat="46.061856960877776" lon="10.489204237237573">
        <ele>2532.73</ele>
        <time>2018-07-09T10:42:05Z</time>
      </trkpt>
      <trkpt lat="46.061915382742882" lon="10.489160232245922">
        <ele>2533.21</ele>
        <time>2018-07-09T10:42:16Z</time>
      </trkpt>
      <trkpt lat="46.061939941719174" lon="10.489145312458277">
        <ele>2533.21</ele>
        <time>2018-07-09T10:42:27Z</time>
      </trkpt>
      <trkpt lat="46.06194019317627" lon="10.489163249731064">
        <ele>2533.21</ele>
        <time>2018-07-09T10:42:44Z</time>
      </trkpt>
      <trkpt lat="46.061979336664081" lon="10.489149168133736">
        <ele>2534.1700000000001</ele>
        <time>2018-07-09T10:42:58Z</time>
      </trkpt>
      <trkpt lat="46.062041446566582" lon="10.489194933325052">
        <ele>2533.6900000000001</ele>
        <time>2018-07-09T10:43:08Z</time>
      </trkpt>
      <trkpt lat="46.062044380232692" lon="10.489213541150093">
        <ele>2533.6900000000001</ele>
        <time>2018-07-09T10:43:17Z</time>
      </trkpt>
      <trkpt lat="46.062071537598968" lon="10.489161070436239">
        <ele>2533.6900000000001</ele>
        <time>2018-07-09T10:43:29Z</time>
      </trkpt>
      <trkpt lat="46.062109926715493" lon="10.489140618592501">
        <ele>2534.6500000000001</ele>
        <time>2018-07-09T10:43:38Z</time>
      </trkpt>
      <trkpt lat="46.062123421579599" lon="10.489144725725055">
        <ele>2533.6900000000001</ele>
        <time>2018-07-09T10:43:49Z</time>
      </trkpt>
      <trkpt lat="46.062114620581269" lon="10.489147827029228">
        <ele>2533.6900000000001</ele>
        <time>2018-07-09T10:44:13Z</time>
      </trkpt>
      <trkpt lat="46.062118392437696" lon="10.489153861999512">
        <ele>2533.6900000000001</ele>
        <time>2018-07-09T10:44:25Z</time>
      </trkpt>
      <trkpt lat="46.062132222577929" lon="10.489147324115038">
        <ele>2533.6900000000001</ele>
        <time>2018-07-09T10:44:56Z</time>
      </trkpt>
      <trkpt lat="46.062112357467413" lon="10.489151598885655">
        <ele>2533.21</ele>
        <time>2018-07-09T10:45:34Z</time>
      </trkpt>
      <trkpt lat="46.062109507620335" lon="10.489156544208527">
        <ele>2533.21</ele>
        <time>2018-07-09T10:45:58Z</time>
      </trkpt>
      <trkpt lat="46.062121242284775" lon="10.489154197275639">
        <ele>2533.21</ele>
        <time>2018-07-09T10:46:29Z</time>
      </trkpt>
      <trkpt lat="46.062125265598297" lon="10.489149000495672">
        <ele>2533.21</ele>
        <time>2018-07-09T10:46:53Z</time>
      </trkpt>
      <trkpt lat="46.062127780169249" lon="10.489151850342751">
        <ele>2533.21</ele>
        <time>2018-07-09T10:47:20Z</time>
      </trkpt>
      <trkpt lat="46.062111770734191" lon="10.489155035465956">
        <ele>2533.21</ele>
        <time>2018-07-09T10:47:49Z</time>
      </trkpt>
      <trkpt lat="46.062102802097797" lon="10.489152353256941">
        <ele>2533.6900000000001</ele>
        <time>2018-07-09T10:48:22Z</time>
      </trkpt>
      <trkpt lat="46.06209659948945" lon="10.489145312458277">
        <ele>2533.6900000000001</ele>
        <time>2018-07-09T10:48:49Z</time>
      </trkpt>
      <trkpt lat="46.062094168737531" lon="10.489149000495672">
        <ele>2533.6900000000001</ele>
        <time>2018-07-09T10:49:19Z</time>
      </trkpt>
      <trkpt lat="46.062090396881104" lon="10.489161657169461">
        <ele>2533.6900000000001</ele>
        <time>2018-07-09T10:49:49Z</time>
      </trkpt>
      <trkpt lat="46.062089642509818" lon="10.489160735160112">
        <ele>2534.1700000000001</ele>
        <time>2018-07-09T10:50:18Z</time>
      </trkpt>
      <trkpt lat="46.062099784612656" lon="10.489155957475305">
        <ele>2534.6500000000001</ele>
        <time>2018-07-09T10:50:53Z</time>
      </trkpt>
      <trkpt lat="46.062097605317831" lon="10.489143636077642">
        <ele>2534.6500000000001</ele>
        <time>2018-07-09T10:51:20Z</time>
      </trkpt>
      <trkpt lat="46.062106573954225" lon="10.489147491753101">
        <ele>2534.6500000000001</ele>
        <time>2018-07-09T10:51:48Z</time>
      </trkpt>
      <trkpt lat="46.062102885916829" lon="10.489139026030898">
        <ele>2534.6500000000001</ele>
        <time>2018-07-09T10:52:21Z</time>
      </trkpt>
      <trkpt lat="46.062114704400301" lon="10.489143636077642">
        <ele>2534.6500000000001</ele>
        <time>2018-07-09T10:52:43Z</time>
      </trkpt>
      <trkpt lat="46.06211218982935" lon="10.489144138991833">
        <ele>2534.6500000000001</ele>
        <time>2018-07-09T10:53:12Z</time>
      </trkpt>
      <trkpt lat="46.062113866209984" lon="10.48914598301053">
        <ele>2534.6500000000001</ele>
        <time>2018-07-09T10:53:40Z</time>
      </trkpt>
      <trkpt lat="46.062105819582939" lon="10.489145228639245">
        <ele>2530.8099999999999</ele>
        <time>2018-07-09T10:53:58Z</time>
      </trkpt>
      <trkpt lat="46.062104813754559" lon="10.489153526723385">
        <ele>2536.5799999999999</ele>
        <time>2018-07-09T10:53:59Z</time>
      </trkpt>
      <trkpt lat="46.062105651944876" lon="10.489161657169461">
        <ele>2533.21</ele>
        <time>2018-07-09T10:54:01Z</time>
      </trkpt>
      <trkpt lat="46.06211856007576" lon="10.489145563915372">
        <ele>2534.6500000000001</ele>
        <time>2018-07-09T10:54:21Z</time>
      </trkpt>
      <trkpt lat="46.062106238678098" lon="10.489145396277308">
        <ele>2534.6500000000001</ele>
        <time>2018-07-09T10:54:33Z</time>
      </trkpt>
      <trkpt lat="46.062102131545544" lon="10.489140702411532">
        <ele>2534.6500000000001</ele>
        <time>2018-07-09T10:54:56Z</time>
      </trkpt>
      <trkpt lat="46.062113111838698" lon="10.489139696583152">
        <ele>2534.1700000000001</ele>
        <time>2018-07-09T10:55:14Z</time>
      </trkpt>
      <trkpt lat="46.062116464599967" lon="10.489139445126057">
        <ele>2534.6500000000001</ele>
        <time>2018-07-09T10:55:32Z</time>
      </trkpt>
      <trkpt lat="46.062106154859066" lon="10.489152604714036">
        <ele>2535.1300000000001</ele>
        <time>2018-07-09T10:55:58Z</time>
      </trkpt>
      <trkpt lat="46.06210682541132" lon="10.489149587228894">
        <ele>2535.1300000000001</ele>
        <time>2018-07-09T10:56:27Z</time>
      </trkpt>
      <trkpt lat="46.062117302790284" lon="10.489144138991833">
        <ele>2535.1300000000001</ele>
        <time>2018-07-09T10:56:52Z</time>
      </trkpt>
      <trkpt lat="46.062119482085109" lon="10.489137684926391">
        <ele>2535.1300000000001</ele>
        <time>2018-07-09T10:57:25Z</time>
      </trkpt>
      <trkpt lat="46.062119482085109" lon="10.489136343821883">
        <ele>2535.1300000000001</ele>
        <time>2018-07-09T10:57:50Z</time>
      </trkpt>
      <trkpt lat="46.062114704400301" lon="10.489140702411532">
        <ele>2535.6100000000001</ele>
        <time>2018-07-09T10:58:20Z</time>
      </trkpt>
      <trkpt lat="46.06211076490581" lon="10.489147072657943">
        <ele>2535.6100000000001</ele>
        <time>2018-07-09T10:58:49Z</time>
      </trkpt>
      <trkpt lat="46.062105735763907" lon="10.489158974960446">
        <ele>2535.6100000000001</ele>
        <time>2018-07-09T10:59:18Z</time>
      </trkpt>
      <trkpt lat="46.062125349417329" lon="10.489141372963786">
        <ele>2535.1300000000001</ele>
        <time>2018-07-09T10:59:44Z</time>
      </trkpt>
      <trkpt lat="46.062143873423338" lon="10.489124860614538">
        <ele>2535.6100000000001</ele>
        <time>2018-07-09T11:00:15Z</time>
      </trkpt>
      <trkpt lat="46.06212392449379" lon="10.489121004939079">
        <ele>2536.0999999999999</ele>
        <time>2018-07-09T11:00:39Z</time>
      </trkpt>
      <trkpt lat="46.062107160687447" lon="10.489143803715706">
        <ele>2536.0999999999999</ele>
        <time>2018-07-09T11:01:15Z</time>
      </trkpt>
      <trkpt lat="46.06210389174521" lon="10.489149922505021">
        <ele>2536.0999999999999</ele>
        <time>2018-07-09T11:01:38Z</time>
      </trkpt>
      <trkpt lat="46.062096012756228" lon="10.489165093749762">
        <ele>2536.0999999999999</ele>
        <time>2018-07-09T11:02:09Z</time>
      </trkpt>
      <trkpt lat="46.062111854553223" lon="10.489150593057275">
        <ele>2536.0999999999999</ele>
        <time>2018-07-09T11:02:41Z</time>
      </trkpt>
      <trkpt lat="46.06211512349546" lon="10.489152269437909">
        <ele>2536.0999999999999</ele>
        <time>2018-07-09T11:03:05Z</time>
      </trkpt>
      <trkpt lat="46.062112022191286" lon="10.489139528945088">
        <ele>2536.0999999999999</ele>
        <time>2018-07-09T11:03:40Z</time>
      </trkpt>
      <trkpt lat="46.062112860381603" lon="10.489154867827892">
        <ele>2536.0999999999999</ele>
        <time>2018-07-09T11:04:11Z</time>
      </trkpt>
      <trkpt lat="46.062116883695126" lon="10.489147743210196">
        <ele>2536.0999999999999</ele>
        <time>2018-07-09T11:04:26Z</time>
      </trkpt>
      <trkpt lat="46.062104478478432" lon="10.489134667441249">
        <ele>2535.6100000000001</ele>
        <time>2018-07-09T11:04:46Z</time>
      </trkpt>
      <trkpt lat="46.062092240899801" lon="10.489142965525389">
        <ele>2535.6100000000001</ele>
        <time>2018-07-09T11:05:14Z</time>
      </trkpt>
      <trkpt lat="46.062103975564241" lon="10.489157047122717">
        <ele>2535.6100000000001</ele>
        <time>2018-07-09T11:05:44Z</time>
      </trkpt>
      <trkpt lat="46.062116464599967" lon="10.489148497581482">
        <ele>2536.0999999999999</ele>
        <time>2018-07-09T11:06:14Z</time>
      </trkpt>
      <trkpt lat="46.062105987221003" lon="10.489141289144754">
        <ele>2536.0999999999999</ele>
        <time>2018-07-09T11:06:47Z</time>
      </trkpt>
      <trkpt lat="46.062107495963573" lon="10.489142127335072">
        <ele>2536.0999999999999</ele>
        <time>2018-07-09T11:07:17Z</time>
      </trkpt>
      <trkpt lat="46.062097772955894" lon="10.489132488146424">
        <ele>2536.0999999999999</ele>
        <time>2018-07-09T11:07:28Z</time>
      </trkpt>
      <trkpt lat="46.062103472650051" lon="10.489128967747092">
        <ele>2536.0999999999999</ele>
        <time>2018-07-09T11:07:53Z</time>
      </trkpt>
      <trkpt lat="46.06211856007576" lon="10.48913081176579">
        <ele>2536.0999999999999</ele>
        <time>2018-07-09T11:08:20Z</time>
      </trkpt>
      <trkpt lat="46.062122751027346" lon="10.489147072657943">
        <ele>2536.0999999999999</ele>
        <time>2018-07-09T11:08:45Z</time>
      </trkpt>
      <trkpt lat="46.062111938372254" lon="10.489146318286657">
        <ele>2536.5799999999999</ele>
        <time>2018-07-09T11:09:11Z</time>
      </trkpt>
      <trkpt lat="46.062106657773256" lon="10.489166518673301">
        <ele>2537.54</ele>
        <time>2018-07-09T11:09:20Z</time>
      </trkpt>
      <trkpt lat="46.062097689136863" lon="10.489157885313034">
        <ele>2536.5799999999999</ele>
        <time>2018-07-09T11:09:33Z</time>
      </trkpt>
      <trkpt lat="46.062085032463074" lon="10.489172302186489">
        <ele>2537.0599999999999</ele>
        <time>2018-07-09T11:09:47Z</time>
      </trkpt>
      <trkpt lat="46.062092324718833" lon="10.489165177568793">
        <ele>2536.5799999999999</ele>
        <time>2018-07-09T11:09:58Z</time>
      </trkpt>
      <trkpt lat="46.06210389174521" lon="10.48916450701654">
        <ele>2536.5799999999999</ele>
        <time>2018-07-09T11:10:16Z</time>
      </trkpt>
      <trkpt lat="46.062095845118165" lon="10.489121675491333">
        <ele>2538.02</ele>
        <time>2018-07-09T11:10:29Z</time>
      </trkpt>
      <trkpt lat="46.06212493032217" lon="10.489059900864959">
        <ele>2539.46</ele>
        <time>2018-07-09T11:10:39Z</time>
      </trkpt>
      <trkpt lat="46.062133060768247" lon="10.489022936671972">
        <ele>2542.3400000000001</ele>
        <time>2018-07-09T11:10:51Z</time>
      </trkpt>
      <trkpt lat="46.062136581167579" lon="10.488965352997184">
        <ele>2543.3099999999999</ele>
        <time>2018-07-09T11:11:02Z</time>
      </trkpt>
      <trkpt lat="46.062176311388612" lon="10.488978428766131">
        <ele>2544.27</ele>
        <time>2018-07-09T11:11:10Z</time>
      </trkpt>
      <trkpt lat="46.062206486240029" lon="10.488951103761792">
        <ele>2545.71</ele>
        <time>2018-07-09T11:11:20Z</time>
      </trkpt>
      <trkpt lat="46.062215873971581" lon="10.488912547007203">
        <ele>2546.6700000000001</ele>
        <time>2018-07-09T11:11:29Z</time>
      </trkpt>
      <trkpt lat="46.062242528423667" lon="10.488919001072645">
        <ele>2546.1900000000001</ele>
        <time>2018-07-09T11:11:38Z</time>
      </trkpt>
      <trkpt lat="46.062275720760226" lon="10.488885724917054">
        <ele>2547.6300000000001</ele>
        <time>2018-07-09T11:11:49Z</time>
      </trkpt>
      <trkpt lat="46.062273373827338" lon="10.488864434882998">
        <ele>2548.1100000000001</ele>
        <time>2018-07-09T11:11:59Z</time>
      </trkpt>
      <trkpt lat="46.062315115705132" lon="10.488862507045269">
        <ele>2550.0300000000002</ele>
        <time>2018-07-09T11:12:11Z</time>
      </trkpt>
      <trkpt lat="46.062334645539522" lon="10.488850185647607">
        <ele>2550.0300000000002</ele>
        <time>2018-07-09T11:12:22Z</time>
      </trkpt>
      <trkpt lat="46.062356438487768" lon="10.488855885341763">
        <ele>2551</ele>
        <time>2018-07-09T11:12:33Z</time>
      </trkpt>
      <trkpt lat="46.062372615560889" lon="10.488856472074986">
        <ele>2550.5100000000002</ele>
        <time>2018-07-09T11:12:50Z</time>
      </trkpt>
      <trkpt lat="46.062424248084426" lon="10.488855466246605">
        <ele>2551</ele>
        <time>2018-07-09T11:12:59Z</time>
      </trkpt>
      <trkpt lat="46.062467498704791" lon="10.48888404853642">
        <ele>2552.9200000000001</ele>
        <time>2018-07-09T11:13:10Z</time>
      </trkpt>
      <trkpt lat="46.062510414049029" lon="10.48890357837081">
        <ele>2554.8400000000001</ele>
        <time>2018-07-09T11:13:21Z</time>
      </trkpt>
      <trkpt lat="46.062488872557878" lon="10.48892947845161">
        <ele>2554.3600000000001</ele>
        <time>2018-07-09T11:13:36Z</time>
      </trkpt>
      <trkpt lat="46.062485855072737" lon="10.488924868404865">
        <ele>2554.3600000000001</ele>
        <time>2018-07-09T11:14:08Z</time>
      </trkpt>
      <trkpt lat="46.062490213662386" lon="10.488938111811876">
        <ele>2554.3600000000001</ele>
        <time>2018-07-09T11:14:31Z</time>
      </trkpt>
      <trkpt lat="46.062488118186593" lon="10.488930819556117">
        <ele>2554.3600000000001</ele>
        <time>2018-07-09T11:14:53Z</time>
      </trkpt>
      <trkpt lat="46.062485687434673" lon="10.488920677453279">
        <ele>2554.3600000000001</ele>
        <time>2018-07-09T11:15:17Z</time>
      </trkpt>
      <trkpt lat="46.062538661062717" lon="10.488899052143097">
        <ele>2554.3600000000001</ele>
        <time>2018-07-09T11:15:30Z</time>
      </trkpt>
      <trkpt lat="46.062605967745185" lon="10.488891424611211">
        <ele>2553.4000000000001</ele>
        <time>2018-07-09T11:15:42Z</time>
      </trkpt>
      <trkpt lat="46.062659192830324" lon="10.488946242257953">
        <ele>2553.4000000000001</ele>
        <time>2018-07-09T11:15:51Z</time>
      </trkpt>
      <trkpt lat="46.06267411261797" lon="10.488955462351441">
        <ele>2552.9200000000001</ele>
        <time>2018-07-09T11:15:53Z</time>
      </trkpt>
      <trkpt lat="46.06274452060461" lon="10.489033916965127">
        <ele>2554.3600000000001</ele>
        <time>2018-07-09T11:16:03Z</time>
      </trkpt>
      <trkpt lat="46.062789279967546" lon="10.489060739055276">
        <ele>2555.3200000000002</ele>
        <time>2018-07-09T11:16:13Z</time>
      </trkpt>
      <trkpt lat="46.062846863642335" lon="10.489026457071304">
        <ele>2556.2800000000002</ele>
        <time>2018-07-09T11:16:23Z</time>
      </trkpt>
      <trkpt lat="46.06288768351078" lon="10.489011621102691">
        <ele>2557.73</ele>
        <time>2018-07-09T11:16:33Z</time>
      </trkpt>
      <trkpt lat="46.062878128141165" lon="10.489020003005862">
        <ele>2558.21</ele>
        <time>2018-07-09T11:16:44Z</time>
      </trkpt>
      <trkpt lat="46.062877541407943" lon="10.489013213664293">
        <ele>2558.21</ele>
        <time>2018-07-09T11:16:54Z</time>
      </trkpt>
      <trkpt lat="46.06288181617856" lon="10.489022098481655">
        <ele>2557.2399999999998</ele>
        <time>2018-07-09T11:17:12Z</time>
      </trkpt>
      <trkpt lat="46.062907800078392" lon="10.48900960944593">
        <ele>2558.21</ele>
        <time>2018-07-09T11:17:22Z</time>
      </trkpt>
      <trkpt lat="46.062951972708106" lon="10.489026037976146">
        <ele>2558.21</ele>
        <time>2018-07-09T11:17:31Z</time>
      </trkpt>
      <trkpt lat="46.063019530847669" lon="10.48908487893641">
        <ele>2559.6500000000001</ele>
        <time>2018-07-09T11:17:43Z</time>
      </trkpt>
      <trkpt lat="46.063069822266698" lon="10.489129303023219">
        <ele>2559.1700000000001</ele>
        <time>2018-07-09T11:17:57Z</time>
      </trkpt>
      <trkpt lat="46.063119694590569" lon="10.489154029637575">
        <ele>2558.21</ele>
        <time>2018-07-09T11:18:05Z</time>
      </trkpt>
      <trkpt lat="46.063197394832969" lon="10.489170961081982">
        <ele>2556.2800000000002</ele>
        <time>2018-07-09T11:18:16Z</time>
      </trkpt>
      <trkpt lat="46.063267299905419" lon="10.489239944145083">
        <ele>2556.7600000000002</ele>
        <time>2018-07-09T11:18:27Z</time>
      </trkpt>
      <trkpt lat="46.063302922993898" lon="10.489204237237573">
        <ele>2558.21</ele>
        <time>2018-07-09T11:18:39Z</time>
      </trkpt>
      <trkpt lat="46.063317507505417" lon="10.489169452339411">
        <ele>2559.1700000000001</ele>
        <time>2018-07-09T11:18:54Z</time>
      </trkpt>
      <trkpt lat="46.063336450606585" lon="10.489161824807525">
        <ele>2561.0900000000001</ele>
        <time>2018-07-09T11:19:02Z</time>
      </trkpt>
      <trkpt lat="46.063375091180205" lon="10.489141708239913">
        <ele>2562.0500000000002</ele>
        <time>2018-07-09T11:19:17Z</time>
      </trkpt>
      <trkpt lat="46.063423790037632" lon="10.489173391833901">
        <ele>2563.4899999999998</ele>
        <time>2018-07-09T11:19:24Z</time>
      </trkpt>
      <trkpt lat="46.063509956002235" lon="10.489206835627556">
        <ele>2563.0100000000002</ele>
        <time>2018-07-09T11:19:36Z</time>
      </trkpt>
      <trkpt lat="46.063562594354153" lon="10.489234495908022">
        <ele>2564.4499999999998</ele>
        <time>2018-07-09T11:19:46Z</time>
      </trkpt>
      <trkpt lat="46.063601151108742" lon="10.489258635789156">
        <ele>2564.4499999999998</ele>
        <time>2018-07-09T11:19:53Z</time>
      </trkpt>
      <trkpt lat="46.063651107251644" lon="10.489262994378805">
        <ele>2565.9000000000001</ele>
        <time>2018-07-09T11:20:03Z</time>
      </trkpt>
      <trkpt lat="46.063688490539789" lon="10.489215720444918">
        <ele>2567.3400000000001</ele>
        <time>2018-07-09T11:20:13Z</time>
      </trkpt>
      <trkpt lat="46.06371489353478" lon="10.489213205873966">
        <ele>2567.8200000000002</ele>
        <time>2018-07-09T11:20:22Z</time>
      </trkpt>
      <trkpt lat="46.063703075051308" lon="10.489234076812863">
        <ele>2566.8600000000001</ele>
        <time>2018-07-09T11:20:34Z</time>
      </trkpt>
      <trkpt lat="46.063694106414914" lon="10.489228377118707">
        <ele>2566.8600000000001</ele>
        <time>2018-07-09T11:20:50Z</time>
      </trkpt>
      <trkpt lat="46.063701650127769" lon="10.489232651889324">
        <ele>2566.8600000000001</ele>
        <time>2018-07-09T11:21:15Z</time>
      </trkpt>
      <trkpt lat="46.063698465004563" lon="10.489247990772128">
        <ele>2566.8600000000001</ele>
        <time>2018-07-09T11:21:36Z</time>
      </trkpt>
      <trkpt lat="46.063689161092043" lon="10.48924321308732">
        <ele>2567.8200000000002</ele>
        <time>2018-07-09T11:21:52Z</time>
      </trkpt>
      <trkpt lat="46.063680527731776" lon="10.489261653274298">
        <ele>2567.8200000000002</ele>
        <time>2018-07-09T11:22:01Z</time>
      </trkpt>
      <trkpt lat="46.063684802502394" lon="10.489238770678639">
        <ele>2567.8200000000002</ele>
        <time>2018-07-09T11:22:15Z</time>
      </trkpt>
      <trkpt lat="46.063697878271341" lon="10.489217145368457">
        <ele>2568.3000000000002</ele>
        <time>2018-07-09T11:22:25Z</time>
      </trkpt>
      <trkpt lat="46.063695196062326" lon="10.489250840619206">
        <ele>2567.8200000000002</ele>
        <time>2018-07-09T11:22:43Z</time>
      </trkpt>
      <trkpt lat="46.063679689541459" lon="10.489249667152762">
        <ele>2567.8200000000002</ele>
        <time>2018-07-09T11:22:55Z</time>
      </trkpt>
      <trkpt lat="46.063676755875349" lon="10.489231562241912">
        <ele>2566.8600000000001</ele>
        <time>2018-07-09T11:23:03Z</time>
      </trkpt>
      <trkpt lat="46.063696453347802" lon="10.48918018117547">
        <ele>2566.8600000000001</ele>
        <time>2018-07-09T11:23:15Z</time>
      </trkpt>
      <trkpt lat="46.063713217154145" lon="10.489166099578142">
        <ele>2566.3800000000001</ele>
        <time>2018-07-09T11:23:25Z</time>
      </trkpt>
      <trkpt lat="46.063727298751473" lon="10.489159226417542">
        <ele>2564.4499999999998</ele>
        <time>2018-07-09T11:23:36Z</time>
      </trkpt>
      <trkpt lat="46.06373836286366" lon="10.489169787615538">
        <ele>2564.4499999999998</ele>
        <time>2018-07-09T11:23:51Z</time>
      </trkpt>
      <trkpt lat="46.06376426294446" lon="10.489191077649593">
        <ele>2563.4899999999998</ele>
        <time>2018-07-09T11:24:05Z</time>
      </trkpt>
      <trkpt lat="46.063771219924092" lon="10.489174984395504">
        <ele>2561.5700000000002</ele>
        <time>2018-07-09T11:24:13Z</time>
      </trkpt>
      <trkpt lat="46.06378722935915" lon="10.489160902798176">
        <ele>2560.1300000000001</ele>
        <time>2018-07-09T11:24:22Z</time>
      </trkpt>
      <trkpt lat="46.063809106126428" lon="10.489163501188159">
        <ele>2557.73</ele>
        <time>2018-07-09T11:24:34Z</time>
      </trkpt>
      <trkpt lat="46.063826624304056" lon="10.489169033244252">
        <ele>2556.7600000000002</ele>
        <time>2018-07-09T11:24:40Z</time>
      </trkpt>
      <trkpt lat="46.063923016190529" lon="10.489249164238572">
        <ele>2557.73</ele>
        <time>2018-07-09T11:24:53Z</time>
      </trkpt>
      <trkpt lat="46.063964171335101" lon="10.489254025742412">
        <ele>2558.21</ele>
        <time>2018-07-09T11:24:58Z</time>
      </trkpt>
      <trkpt lat="46.063980348408222" lon="10.489232232794166">
        <ele>2558.21</ele>
        <time>2018-07-09T11:25:01Z</time>
      </trkpt>
      <trkpt lat="46.064018402248621" lon="10.48919384367764">
        <ele>2559.1700000000001</ele>
        <time>2018-07-09T11:25:11Z</time>
      </trkpt>
      <trkpt lat="46.064029969274998" lon="10.489148581400514">
        <ele>2558.21</ele>
        <time>2018-07-09T11:25:20Z</time>
      </trkpt>
      <trkpt lat="46.064042458310723" lon="10.489146150648594">
        <ele>2556.7600000000002</ele>
        <time>2018-07-09T11:25:29Z</time>
      </trkpt>
      <trkpt lat="46.064085457473993" lon="10.489146485924721">
        <ele>2556.2800000000002</ele>
        <time>2018-07-09T11:25:38Z</time>
      </trkpt>
      <trkpt lat="46.064115213230252" lon="10.48916157335043">
        <ele>2555.8000000000002</ele>
        <time>2018-07-09T11:25:51Z</time>
      </trkpt>
      <trkpt lat="46.064165839925408" lon="10.489172050729394">
        <ele>2553.8800000000001</ele>
        <time>2018-07-09T11:26:06Z</time>
      </trkpt>
      <trkpt lat="46.06421772390604" lon="10.48918504267931">
        <ele>2552.4400000000001</ele>
        <time>2018-07-09T11:26:20Z</time>
      </trkpt>
      <trkpt lat="46.064239181578159" lon="10.489193256944418">
        <ele>2551</ele>
        <time>2018-07-09T11:26:27Z</time>
      </trkpt>
      <trkpt lat="46.064241612330079" lon="10.489192502573133">
        <ele>2550.0300000000002</ele>
        <time>2018-07-09T11:26:35Z</time>
      </trkpt>
      <trkpt lat="46.064245803281665" lon="10.489144306629896">
        <ele>2548.5900000000001</ele>
        <time>2018-07-09T11:26:51Z</time>
      </trkpt>
      <trkpt lat="46.064259633421898" lon="10.489130141213536">
        <ele>2547.6300000000001</ele>
        <time>2018-07-09T11:26:53Z</time>
      </trkpt>
      <trkpt lat="46.064368179067969" lon="10.489158136770129">
        <ele>2546.1900000000001</ele>
        <time>2018-07-09T11:27:05Z</time>
      </trkpt>
      <trkpt lat="46.064405897632241" lon="10.48917624168098">
        <ele>2545.23</ele>
        <time>2018-07-09T11:27:16Z</time>
      </trkpt>
      <trkpt lat="46.064442778006196" lon="10.489187305793166">
        <ele>2543.3099999999999</ele>
        <time>2018-07-09T11:27:25Z</time>
      </trkpt>
      <trkpt lat="46.06446934863925" lon="10.48916844651103">
        <ele>2540.4200000000001</ele>
        <time>2018-07-09T11:27:35Z</time>
      </trkpt>
      <trkpt lat="46.064490554854274" lon="10.489159058779478">
        <ele>2539.46</ele>
        <time>2018-07-09T11:27:43Z</time>
      </trkpt>
      <trkpt lat="46.06448988430202" lon="10.489169452339411">
        <ele>2539.46</ele>
        <time>2018-07-09T11:27:56Z</time>
      </trkpt>
      <trkpt lat="46.064490722492337" lon="10.489190155640244">
        <ele>2539.9400000000001</ele>
        <time>2018-07-09T11:28:16Z</time>
      </trkpt>
      <trkpt lat="46.064543863758445" lon="10.48915327526629">
        <ele>2538.98</ele>
        <time>2018-07-09T11:28:30Z</time>
      </trkpt>
      <trkpt lat="46.064590634778142" lon="10.489169787615538">
        <ele>2537.0599999999999</ele>
        <time>2018-07-09T11:28:40Z</time>
      </trkpt>
      <trkpt lat="46.06460957787931" lon="10.489186719059944">
        <ele>2536.5799999999999</ele>
        <time>2018-07-09T11:28:52Z</time>
      </trkpt>
      <trkpt lat="46.064633131027222" lon="10.489179845899343">
        <ele>2534.1700000000001</ele>
        <time>2018-07-09T11:29:02Z</time>
      </trkpt>
      <trkpt lat="46.064662216231227" lon="10.489173391833901">
        <ele>2532.73</ele>
        <time>2018-07-09T11:29:09Z</time>
      </trkpt>
      <trkpt lat="46.064681326970458" lon="10.489183953031898">
        <ele>2531.29</ele>
        <time>2018-07-09T11:29:16Z</time>
      </trkpt>
      <trkpt lat="46.064732540398836" lon="10.489225862547755">
        <ele>2528.8899999999999</ele>
        <time>2018-07-09T11:29:26Z</time>
      </trkpt>
      <trkpt lat="46.064756764099002" lon="10.489244135096669">
        <ele>2528.4000000000001</ele>
        <time>2018-07-09T11:29:37Z</time>
      </trkpt>
      <trkpt lat="46.064874529838562" lon="10.489260815083981">
        <ele>2525.04</ele>
        <time>2018-07-09T11:29:49Z</time>
      </trkpt>
      <trkpt lat="46.064939154312015" lon="10.489270873367786">
        <ele>2524.0799999999999</ele>
        <time>2018-07-09T11:29:55Z</time>
      </trkpt>
      <trkpt lat="46.065041916444898" lon="10.489248912781477">
        <ele>2523.5999999999999</ele>
        <time>2018-07-09T11:30:05Z</time>
      </trkpt>
      <trkpt lat="46.065108301118016" lon="10.489176828414202">
        <ele>2523.1199999999999</ele>
        <time>2018-07-09T11:30:14Z</time>
      </trkpt>
      <trkpt lat="46.065189186483622" lon="10.489172218367457">
        <ele>2523.5999999999999</ele>
        <time>2018-07-09T11:30:24Z</time>
      </trkpt>
      <trkpt lat="46.065238052979112" lon="10.489184204488993">
        <ele>2526.48</ele>
        <time>2018-07-09T11:30:35Z</time>
      </trkpt>
      <trkpt lat="46.065268646925688" lon="10.489233070984483">
        <ele>2526.96</ele>
        <time>2018-07-09T11:30:47Z</time>
      </trkpt>
      <trkpt lat="46.065293541178107" lon="10.48929451033473">
        <ele>2526</ele>
        <time>2018-07-09T11:30:55Z</time>
      </trkpt>
      <trkpt lat="46.065330840647221" lon="10.489403223618865">
        <ele>2525.52</ele>
        <time>2018-07-09T11:31:06Z</time>
      </trkpt>
      <trkpt lat="46.065403427928686" lon="10.489449156448245">
        <ele>2526</ele>
        <time>2018-07-09T11:31:17Z</time>
      </trkpt>
      <trkpt lat="46.065404014661908" lon="10.489477068185806">
        <ele>2527.4400000000001</ele>
        <time>2018-07-09T11:31:28Z</time>
      </trkpt>
      <trkpt lat="46.06542756780982" lon="10.489484025165439">
        <ele>2527.9200000000001</ele>
        <time>2018-07-09T11:31:40Z</time>
      </trkpt>
      <trkpt lat="46.065472578629851" lon="10.489498609676957">
        <ele>2529.8499999999999</ele>
        <time>2018-07-09T11:31:49Z</time>
      </trkpt>
      <trkpt lat="46.065503759309649" lon="10.489518055692315">
        <ele>2530.8099999999999</ele>
        <time>2018-07-09T11:31:59Z</time>
      </trkpt>
      <trkpt lat="46.065527061000466" lon="10.489534065127373">
        <ele>2532.25</ele>
        <time>2018-07-09T11:32:09Z</time>
      </trkpt>
      <trkpt lat="46.065568802878261" lon="10.489560468122363">
        <ele>2533.6900000000001</ele>
        <time>2018-07-09T11:32:19Z</time>
      </trkpt>
      <trkpt lat="46.065566539764404" lon="10.489605227485299">
        <ele>2534.6500000000001</ele>
        <time>2018-07-09T11:32:28Z</time>
      </trkpt>
      <trkpt lat="46.065566120669246" lon="10.489596677944064">
        <ele>2534.6500000000001</ele>
        <time>2018-07-09T11:32:41Z</time>
      </trkpt>
      <trkpt lat="46.065562851727009" lon="10.489593492820859">
        <ele>2534.6500000000001</ele>
        <time>2018-07-09T11:32:56Z</time>
      </trkpt>
      <trkpt lat="46.065561342984438" lon="10.489595923572779">
        <ele>2534.6500000000001</ele>
        <time>2018-07-09T11:33:19Z</time>
      </trkpt>
      <trkpt lat="46.065574418753386" lon="10.489611346274614">
        <ele>2534.6500000000001</ele>
        <time>2018-07-09T11:33:43Z</time>
      </trkpt>
      <trkpt lat="46.06556192971766" lon="10.489593409001827">
        <ele>2534.6500000000001</ele>
        <time>2018-07-09T11:33:58Z</time>
      </trkpt>
      <trkpt lat="46.065524462610483" lon="10.489551667124033">
        <ele>2533.6900000000001</ele>
        <time>2018-07-09T11:34:09Z</time>
      </trkpt>
      <trkpt lat="46.065516583621502" lon="10.489549487829208">
        <ele>2533.6900000000001</ele>
        <time>2018-07-09T11:34:33Z</time>
      </trkpt>
      <trkpt lat="46.065523121505976" lon="10.489558791741729">
        <ele>2534.1700000000001</ele>
        <time>2018-07-09T11:34:56Z</time>
      </trkpt>
      <trkpt lat="46.065557822585106" lon="10.489596761763096">
        <ele>2535.1300000000001</ele>
        <time>2018-07-09T11:35:05Z</time>
      </trkpt>
      <trkpt lat="46.065571149811149" lon="10.489653004333377">
        <ele>2535.1300000000001</ele>
        <time>2018-07-09T11:35:17Z</time>
      </trkpt>
      <trkpt lat="46.065597804263234" lon="10.489703211933374">
        <ele>2534.1700000000001</ele>
        <time>2018-07-09T11:35:27Z</time>
      </trkpt>
      <trkpt lat="46.065614903345704" lon="10.489758448675275">
        <ele>2534.1700000000001</ele>
        <time>2018-07-09T11:35:38Z</time>
      </trkpt>
      <trkpt lat="46.06562010012567" lon="10.489761047065258">
        <ele>2534.1700000000001</ele>
        <time>2018-07-09T11:35:49Z</time>
      </trkpt>
      <trkpt lat="46.065625296905637" lon="10.489778313785791">
        <ele>2534.1700000000001</ele>
        <time>2018-07-09T11:36:01Z</time>
      </trkpt>
      <trkpt lat="46.065630074590445" lon="10.489790216088295">
        <ele>2533.6900000000001</ele>
        <time>2018-07-09T11:36:21Z</time>
      </trkpt>
      <trkpt lat="46.06564206071198" lon="10.489774290472269">
        <ele>2534.1700000000001</ele>
        <time>2018-07-09T11:36:37Z</time>
      </trkpt>
      <trkpt lat="46.065642982721329" lon="10.489769596606493">
        <ele>2532.73</ele>
        <time>2018-07-09T11:36:49Z</time>
      </trkpt>
      <trkpt lat="46.065662680193782" lon="10.4898193012923">
        <ele>2532.25</ele>
        <time>2018-07-09T11:36:58Z</time>
      </trkpt>
      <trkpt lat="46.06566452421248" lon="10.489828186109662">
        <ele>2532.25</ele>
        <time>2018-07-09T11:37:00Z</time>
      </trkpt>
      <trkpt lat="46.065652370452881" lon="10.489832712337375">
        <ele>2531.77</ele>
        <time>2018-07-09T11:37:09Z</time>
      </trkpt>
      <trkpt lat="46.065690508112311" lon="10.48987403512001">
        <ele>2531.77</ele>
        <time>2018-07-09T11:37:20Z</time>
      </trkpt>
      <trkpt lat="46.065699644386768" lon="10.489921057596803">
        <ele>2531.77</ele>
        <time>2018-07-09T11:37:29Z</time>
      </trkpt>
      <trkpt lat="46.065704002976418" lon="10.4899384919554">
        <ele>2531.29</ele>
        <time>2018-07-09T11:37:40Z</time>
      </trkpt>
      <trkpt lat="46.065700985491276" lon="10.489955255761743">
        <ele>2530.8099999999999</ele>
        <time>2018-07-09T11:37:54Z</time>
      </trkpt>
      <trkpt lat="46.065697716549039" lon="10.489982832223177">
        <ele>2530.8099999999999</ele>
        <time>2018-07-09T11:38:08Z</time>
      </trkpt>
      <trkpt lat="46.065711211413145" lon="10.489969169721007">
        <ele>2530.8099999999999</ele>
        <time>2018-07-09T11:38:24Z</time>
      </trkpt>
      <trkpt lat="46.06571339070797" lon="10.489977300167084">
        <ele>2530.3299999999999</ele>
        <time>2018-07-09T11:38:34Z</time>
      </trkpt>
      <trkpt lat="46.065720934420824" lon="10.489984592422843">
        <ele>2530.8099999999999</ele>
        <time>2018-07-09T11:38:46Z</time>
      </trkpt>
      <trkpt lat="46.065726550295949" lon="10.489994734525681">
        <ele>2530.8099999999999</ele>
        <time>2018-07-09T11:38:59Z</time>
      </trkpt>
      <trkpt lat="46.065726969391108" lon="10.489992387592793">
        <ele>2530.8099999999999</ele>
        <time>2018-07-09T11:39:13Z</time>
      </trkpt>
      <trkpt lat="46.065717162564397" lon="10.490004708990455">
        <ele>2530.3299999999999</ele>
        <time>2018-07-09T11:39:28Z</time>
      </trkpt>
      <trkpt lat="46.065774327144027" lon="10.490055503323674">
        <ele>2528.4000000000001</ele>
        <time>2018-07-09T11:39:40Z</time>
      </trkpt>
      <trkpt lat="46.065778685733676" lon="10.490054246038198">
        <ele>2528.4000000000001</ele>
        <time>2018-07-09T11:39:41Z</time>
      </trkpt>
      <trkpt lat="46.065824953839183" lon="10.490098753944039">
        <ele>2529.3699999999999</ele>
        <time>2018-07-09T11:39:52Z</time>
      </trkpt>
      <trkpt lat="46.065838616341352" lon="10.490130186080933">
        <ele>2530.3299999999999</ele>
        <time>2018-07-09T11:40:04Z</time>
      </trkpt>
      <trkpt lat="46.065867869183421" lon="10.490146279335022">
        <ele>2530.3299999999999</ele>
        <time>2018-07-09T11:40:18Z</time>
      </trkpt>
      <trkpt lat="46.065898044034839" lon="10.490166144445539">
        <ele>2529.8499999999999</ele>
        <time>2018-07-09T11:40:30Z</time>
      </trkpt>
      <trkpt lat="46.065932493656874" lon="10.490198582410812">
        <ele>2530.3299999999999</ele>
        <time>2018-07-09T11:40:40Z</time>
      </trkpt>
      <trkpt lat="46.065945904701948" lon="10.490218363702297">
        <ele>2530.3299999999999</ele>
        <time>2018-07-09T11:40:51Z</time>
      </trkpt>
      <trkpt lat="46.065965350717306" lon="10.490242000669241">
        <ele>2529.8499999999999</ele>
        <time>2018-07-09T11:41:03Z</time>
      </trkpt>
      <trkpt lat="46.065987646579742" lon="10.490272343158722">
        <ele>2528.8899999999999</ele>
        <time>2018-07-09T11:41:13Z</time>
      </trkpt>
      <trkpt lat="46.066003404557705" lon="10.49027712084353">
        <ele>2528.4000000000001</ele>
        <time>2018-07-09T11:41:22Z</time>
      </trkpt>
      <trkpt lat="46.06602855026722" lon="10.490264631807804">
        <ele>2529.3699999999999</ele>
        <time>2018-07-09T11:41:31Z</time>
      </trkpt>
      <trkpt lat="46.066062580794096" lon="10.490291537716985">
        <ele>2529.8499999999999</ele>
        <time>2018-07-09T11:41:39Z</time>
      </trkpt>
      <trkpt lat="46.066069789230824" lon="10.490282569080591">
        <ele>2529.8499999999999</ele>
        <time>2018-07-09T11:41:48Z</time>
      </trkpt>
      <trkpt lat="46.066061407327652" lon="10.490254489704967">
        <ele>2529.8499999999999</ele>
        <time>2018-07-09T11:42:01Z</time>
      </trkpt>
      <trkpt lat="46.066089319065213" lon="10.490233199670911">
        <ele>2528.4000000000001</ele>
        <time>2018-07-09T11:42:11Z</time>
      </trkpt>
      <trkpt lat="46.066124271601439" lon="10.490290028974414">
        <ele>2529.8499999999999</ele>
        <time>2018-07-09T11:42:20Z</time>
      </trkpt>
      <trkpt lat="46.066151009872556" lon="10.490292543545365">
        <ele>2530.3299999999999</ele>
        <time>2018-07-09T11:42:30Z</time>
      </trkpt>
      <trkpt lat="46.06616735458374" lon="10.490301847457886">
        <ele>2530.3299999999999</ele>
        <time>2018-07-09T11:42:39Z</time>
      </trkpt>
      <trkpt lat="46.066178251057863" lon="10.490341829136014">
        <ele>2531.77</ele>
        <time>2018-07-09T11:42:48Z</time>
      </trkpt>
      <trkpt lat="46.066195517778397" lon="10.490318778902292">
        <ele>2532.73</ele>
        <time>2018-07-09T11:42:57Z</time>
      </trkpt>
      <trkpt lat="46.06620155274868" lon="10.490307547152042">
        <ele>2533.6900000000001</ele>
        <time>2018-07-09T11:43:08Z</time>
      </trkpt>
      <trkpt lat="46.066200379282236" lon="10.490297572687268">
        <ele>2534.1700000000001</ele>
        <time>2018-07-09T11:43:17Z</time>
      </trkpt>
      <trkpt lat="46.066204067319632" lon="10.490299584344029">
        <ele>2534.1700000000001</ele>
        <time>2018-07-09T11:43:31Z</time>
      </trkpt>
      <trkpt lat="46.066209767013788" lon="10.490282233804464">
        <ele>2534.1700000000001</ele>
        <time>2018-07-09T11:43:44Z</time>
      </trkpt>
      <trkpt lat="46.066218735650182" lon="10.490286676213145">
        <ele>2533.6900000000001</ele>
        <time>2018-07-09T11:43:58Z</time>
      </trkpt>
      <trkpt lat="46.066225441172719" lon="10.490272762253881">
        <ele>2534.1700000000001</ele>
        <time>2018-07-09T11:44:14Z</time>
      </trkpt>
      <trkpt lat="46.066232398152351" lon="10.490279803052545">
        <ele>2534.6500000000001</ele>
        <time>2018-07-09T11:44:31Z</time>
      </trkpt>
      <trkpt lat="46.06621915474534" lon="10.490282149985433">
        <ele>2534.6500000000001</ele>
        <time>2018-07-09T11:44:44Z</time>
      </trkpt>
      <trkpt lat="46.066248156130314" lon="10.490290531888604">
        <ele>2535.1300000000001</ele>
        <time>2018-07-09T11:44:53Z</time>
      </trkpt>
      <trkpt lat="46.066257711499929" lon="10.490279467776418">
        <ele>2535.1300000000001</ele>
        <time>2018-07-09T11:45:03Z</time>
      </trkpt>
      <trkpt lat="46.066261231899261" lon="10.490267481654882">
        <ele>2534.6500000000001</ele>
        <time>2018-07-09T11:45:22Z</time>
      </trkpt>
      <trkpt lat="46.066270871087909" lon="10.490271840244532">
        <ele>2535.1300000000001</ele>
        <time>2018-07-09T11:45:34Z</time>
      </trkpt>
      <trkpt lat="46.066291071474552" lon="10.490276953205466">
        <ele>2534.6500000000001</ele>
        <time>2018-07-09T11:45:49Z</time>
      </trkpt>
      <trkpt lat="46.06628118082881" lon="10.490265050902963">
        <ele>2534.6500000000001</ele>
        <time>2018-07-09T11:46:01Z</time>
      </trkpt>
      <trkpt lat="46.06628755107522" lon="10.490284664556384">
        <ele>2533.6900000000001</ele>
        <time>2018-07-09T11:46:13Z</time>
      </trkpt>
      <trkpt lat="46.066290149465203" lon="10.490313414484262">
        <ele>2533.21</ele>
        <time>2018-07-09T11:46:24Z</time>
      </trkpt>
      <trkpt lat="46.066317725926638" lon="10.490321293473244">
        <ele>2532.25</ele>
        <time>2018-07-09T11:46:37Z</time>
      </trkpt>
      <trkpt lat="46.066344296559691" lon="10.490335458889604">
        <ele>2531.29</ele>
        <time>2018-07-09T11:46:48Z</time>
      </trkpt>
      <trkpt lat="46.066394252702594" lon="10.490358341485262">
        <ele>2530.8099999999999</ele>
        <time>2018-07-09T11:47:03Z</time>
      </trkpt>
      <trkpt lat="46.066408166661859" lon="10.490370914340019">
        <ele>2529.8499999999999</ele>
        <time>2018-07-09T11:47:13Z</time>
      </trkpt>
      <trkpt lat="46.066358964890242" lon="10.490332022309303">
        <ele>2530.3299999999999</ele>
        <time>2018-07-09T11:47:24Z</time>
      </trkpt>
      <trkpt lat="46.06638427823782" lon="10.490347612649202">
        <ele>2531.29</ele>
        <time>2018-07-09T11:47:32Z</time>
      </trkpt>
      <trkpt lat="46.066414201632142" lon="10.490340739488602">
        <ele>2531.77</ele>
        <time>2018-07-09T11:47:41Z</time>
      </trkpt>
      <trkpt lat="46.066451836377382" lon="10.490343673154712">
        <ele>2532.25</ele>
        <time>2018-07-09T11:47:50Z</time>
      </trkpt>
      <trkpt lat="46.06647664681077" lon="10.490338811650872">
        <ele>2531.77</ele>
        <time>2018-07-09T11:47:54Z</time>
      </trkpt>
      <trkpt lat="46.066552167758346" lon="10.490378122776747">
        <ele>2532.73</ele>
        <time>2018-07-09T11:48:04Z</time>
      </trkpt>
      <trkpt lat="46.066605392843485" lon="10.490413997322321">
        <ele>2534.1700000000001</ele>
        <time>2018-07-09T11:48:14Z</time>
      </trkpt>
      <trkpt lat="46.066615870222449" lon="10.490432940423489">
        <ele>2534.6500000000001</ele>
        <time>2018-07-09T11:48:23Z</time>
      </trkpt>
      <trkpt lat="46.066624755039811" lon="10.490442328155041">
        <ele>2534.6500000000001</ele>
        <time>2018-07-09T11:48:38Z</time>
      </trkpt>
      <trkpt lat="46.066641937941313" lon="10.490441573783755">
        <ele>2534.1700000000001</ele>
        <time>2018-07-09T11:48:54Z</time>
      </trkpt>
      <trkpt lat="46.066642608493567" lon="10.490410560742021">
        <ele>2533.21</ele>
        <time>2018-07-09T11:49:08Z</time>
      </trkpt>
      <trkpt lat="46.066678734496236" lon="10.490395305678248">
        <ele>2531.77</ele>
        <time>2018-07-09T11:49:21Z</time>
      </trkpt>
      <trkpt lat="46.066700527444482" lon="10.490408884361386">
        <ele>2533.6900000000001</ele>
        <time>2018-07-09T11:49:33Z</time>
      </trkpt>
      <trkpt lat="46.06672634370625" lon="10.490473257377744">
        <ele>2535.1300000000001</ele>
        <time>2018-07-09T11:49:41Z</time>
      </trkpt>
      <trkpt lat="46.066779652610421" lon="10.490520363673568">
        <ele>2535.1300000000001</ele>
        <time>2018-07-09T11:49:50Z</time>
      </trkpt>
      <trkpt lat="46.066788537427783" lon="10.490532098338008">
        <ele>2535.1300000000001</ele>
        <time>2018-07-09T11:49:58Z</time>
      </trkpt>
      <trkpt lat="46.066798344254494" lon="10.490552885457873">
        <ele>2535.1300000000001</ele>
        <time>2018-07-09T11:50:10Z</time>
      </trkpt>
      <trkpt lat="46.066827597096562" lon="10.490601249039173">
        <ele>2533.6900000000001</ele>
        <time>2018-07-09T11:50:19Z</time>
      </trkpt>
      <trkpt lat="46.066856682300568" lon="10.490644332021475">
        <ele>2530.8099999999999</ele>
        <time>2018-07-09T11:50:30Z</time>
      </trkpt>
      <trkpt lat="46.066866489127278" lon="10.490661012008786">
        <ele>2529.8499999999999</ele>
        <time>2018-07-09T11:50:40Z</time>
      </trkpt>
      <trkpt lat="46.066893897950649" lon="10.490688001736999">
        <ele>2527.9200000000001</ele>
        <time>2018-07-09T11:50:48Z</time>
      </trkpt>
      <trkpt lat="46.066911835223436" lon="10.490735610947013">
        <ele>2526.48</ele>
        <time>2018-07-09T11:51:00Z</time>
      </trkpt>
      <trkpt lat="46.066930443048477" lon="10.490795457735658">
        <ele>2525.04</ele>
        <time>2018-07-09T11:51:09Z</time>
      </trkpt>
      <trkpt lat="46.066941674798727" lon="10.490829739719629">
        <ele>2523.1199999999999</ele>
        <time>2018-07-09T11:51:18Z</time>
      </trkpt>
      <trkpt lat="46.066947374492884" lon="10.490806940943003">
        <ele>2523.1199999999999</ele>
        <time>2018-07-09T11:51:25Z</time>
      </trkpt>
      <trkpt lat="46.066979812458158" lon="10.490893190726638">
        <ele>2519.75</ele>
        <time>2018-07-09T11:51:36Z</time>
      </trkpt>
      <trkpt lat="46.067018117755651" lon="10.490927891805768">
        <ele>2517.8299999999999</ele>
        <time>2018-07-09T11:51:45Z</time>
      </trkpt>
      <trkpt lat="46.067057009786367" lon="10.490956055000424">
        <ele>2518.3099999999999</ele>
        <time>2018-07-09T11:51:56Z</time>
      </trkpt>
      <trkpt lat="46.067084167152643" lon="10.490955552086234">
        <ele>2517.8299999999999</ele>
        <time>2018-07-09T11:52:10Z</time>
      </trkpt>
      <trkpt lat="46.067109815776348" lon="10.490999724715948">
        <ele>2518.3099999999999</ele>
        <time>2018-07-09T11:52:18Z</time>
      </trkpt>
      <trkpt lat="46.067122807726264" lon="10.490993103012443">
        <ele>2518.3099999999999</ele>
        <time>2018-07-09T11:52:32Z</time>
      </trkpt>
      <trkpt lat="46.067116186022758" lon="10.491007100790739">
        <ele>2518.3099999999999</ele>
        <time>2018-07-09T11:52:43Z</time>
      </trkpt>
      <trkpt lat="46.067162118852139" lon="10.491030151024461">
        <ele>2517.3499999999999</ele>
        <time>2018-07-09T11:52:54Z</time>
      </trkpt>
      <trkpt lat="46.067185923457146" lon="10.491047669202089">
        <ele>2515.9099999999999</ele>
        <time>2018-07-09T11:53:00Z</time>
      </trkpt>
      <trkpt lat="46.067208973690867" lon="10.491099637001753">
        <ele>2515.9099999999999</ele>
        <time>2018-07-09T11:53:09Z</time>
      </trkpt>
      <trkpt lat="46.06721836142242" lon="10.491121429949999">
        <ele>2517.8299999999999</ele>
        <time>2018-07-09T11:53:14Z</time>
      </trkpt>
      <trkpt lat="46.067194892093539" lon="10.491169709712267">
        <ele>2520.23</ele>
        <time>2018-07-09T11:53:25Z</time>
      </trkpt>
      <trkpt lat="46.067182822152972" lon="10.491171889007092">
        <ele>2519.75</ele>
        <time>2018-07-09T11:53:37Z</time>
      </trkpt>
      <trkpt lat="46.067185504361987" lon="10.491163926199079">
        <ele>2519.75</ele>
        <time>2018-07-09T11:53:53Z</time>
      </trkpt>
      <trkpt lat="46.067223725840449" lon="10.491152023896575">
        <ele>2519.75</ele>
        <time>2018-07-09T11:54:20Z</time>
      </trkpt>
      <trkpt lat="46.06723696924746" lon="10.491159819066525">
        <ele>2519.75</ele>
        <time>2018-07-09T11:54:31Z</time>
      </trkpt>
      <trkpt lat="46.067240992560983" lon="10.491164261475205">
        <ele>2519.75</ele>
        <time>2018-07-09T11:54:33Z</time>
      </trkpt>
      <trkpt lat="46.067282985895872" lon="10.491174487397075">
        <ele>2521.1900000000001</ele>
        <time>2018-07-09T11:54:43Z</time>
      </trkpt>
      <trkpt lat="46.067335205152631" lon="10.491205416619778">
        <ele>2521.1900000000001</ele>
        <time>2018-07-09T11:54:52Z</time>
      </trkpt>
      <trkpt lat="46.067401589825749" lon="10.491234753280878">
        <ele>2519.27</ele>
        <time>2018-07-09T11:55:04Z</time>
      </trkpt>
      <trkpt lat="46.067435285076499" lon="10.491256210952997">
        <ele>2517.8299999999999</ele>
        <time>2018-07-09T11:55:10Z</time>
      </trkpt>
      <trkpt lat="46.067482391372323" lon="10.491363750770688">
        <ele>2516.3899999999999</ele>
        <time>2018-07-09T11:55:22Z</time>
      </trkpt>
      <trkpt lat="46.06752522289753" lon="10.491442121565342">
        <ele>2513.98</ele>
        <time>2018-07-09T11:55:33Z</time>
      </trkpt>
      <trkpt lat="46.067535700276494" lon="10.491517307236791">
        <ele>2514.4699999999998</ele>
        <time>2018-07-09T11:55:43Z</time>
      </trkpt>
      <trkpt lat="46.067544668912888" lon="10.49160866998136">
        <ele>2515.9099999999999</ele>
        <time>2018-07-09T11:55:53Z</time>
      </trkpt>
      <trkpt lat="46.06754332780838" lon="10.491618979722261">
        <ele>2515.4299999999998</ele>
        <time>2018-07-09T11:55:54Z</time>
      </trkpt>
      <trkpt lat="46.067566210404038" lon="10.491685699671507">
        <ele>2515.4299999999998</ele>
        <time>2018-07-09T11:56:03Z</time>
      </trkpt>
      <trkpt lat="46.067568473517895" lon="10.491733392700553">
        <ele>2516.3899999999999</ele>
        <time>2018-07-09T11:56:15Z</time>
      </trkpt>
      <trkpt lat="46.067598145455122" lon="10.491765327751637">
        <ele>2517.8299999999999</ele>
        <time>2018-07-09T11:56:25Z</time>
      </trkpt>
      <trkpt lat="46.067619267851114" lon="10.491781253367662">
        <ele>2519.27</ele>
        <time>2018-07-09T11:56:34Z</time>
      </trkpt>
      <trkpt lat="46.067642485722899" lon="10.491794077679515">
        <ele>2521.1900000000001</ele>
        <time>2018-07-09T11:56:45Z</time>
      </trkpt>
      <trkpt lat="46.067690597847104" lon="10.491913603618741">
        <ele>2522.1599999999999</ele>
        <time>2018-07-09T11:56:55Z</time>
      </trkpt>
      <trkpt lat="46.067745750769973" lon="10.491977725178003">
        <ele>2521.1900000000001</ele>
        <time>2018-07-09T11:57:06Z</time>
      </trkpt>
      <trkpt lat="46.067756144329906" lon="10.492024244740605">
        <ele>2522.6399999999999</ele>
        <time>2018-07-09T11:57:17Z</time>
      </trkpt>
      <trkpt lat="46.067779781296849" lon="10.492065818980336">
        <ele>2524.0799999999999</ele>
        <time>2018-07-09T11:57:26Z</time>
      </trkpt>
      <trkpt lat="46.067823618650436" lon="10.492167240008712">
        <ele>2525.04</ele>
        <time>2018-07-09T11:57:35Z</time>
      </trkpt>
      <trkpt lat="46.067849518731236" lon="10.492286346852779">
        <ele>2525.52</ele>
        <time>2018-07-09T11:57:47Z</time>
      </trkpt>
      <trkpt lat="46.067893104627728" lon="10.492364298552275">
        <ele>2526</ele>
        <time>2018-07-09T11:57:59Z</time>
      </trkpt>
      <trkpt lat="46.067933589220047" lon="10.492403944954276">
        <ele>2527.4400000000001</ele>
        <time>2018-07-09T11:58:09Z</time>
      </trkpt>
      <trkpt lat="46.067964602261782" lon="10.492475861683488">
        <ele>2527.9200000000001</ele>
        <time>2018-07-09T11:58:18Z</time>
      </trkpt>
      <trkpt lat="46.067979102954268" lon="10.492515675723553">
        <ele>2526.96</ele>
        <time>2018-07-09T11:58:23Z</time>
      </trkpt>
      <trkpt lat="46.068032411858439" lon="10.492574265226722">
        <ele>2526.96</ele>
        <time>2018-07-09T11:58:34Z</time>
      </trkpt>
      <trkpt lat="46.068114135414362" lon="10.492613492533565">
        <ele>2527.4400000000001</ele>
        <time>2018-07-09T11:58:46Z</time>
      </trkpt>
      <trkpt lat="46.068138862028718" lon="10.492654982954264">
        <ele>2527.9200000000001</ele>
        <time>2018-07-09T11:58:50Z</time>
      </trkpt>
      <trkpt lat="46.068206168711185" lon="10.492749363183975">
        <ele>2528.4000000000001</ele>
        <time>2018-07-09T11:59:02Z</time>
      </trkpt>
      <trkpt lat="46.068256124854088" lon="10.492811892181635">
        <ele>2529.8499999999999</ele>
        <time>2018-07-09T11:59:13Z</time>
      </trkpt>
      <trkpt lat="46.06826844625175" lon="10.49283167347312">
        <ele>2529.8499999999999</ele>
        <time>2018-07-09T11:59:16Z</time>
      </trkpt>
      <trkpt lat="46.068335417658091" lon="10.492873247712851">
        <ele>2529.3699999999999</ele>
        <time>2018-07-09T11:59:28Z</time>
      </trkpt>
      <trkpt lat="46.068372717127204" lon="10.49289814196527">
        <ele>2527.4400000000001</ele>
        <time>2018-07-09T11:59:36Z</time>
      </trkpt>
      <trkpt lat="46.068448321893811" lon="10.492904847487807">
        <ele>2527.4400000000001</ele>
        <time>2018-07-09T11:59:47Z</time>
      </trkpt>
      <trkpt lat="46.068494422361255" lon="10.492933848872781">
        <ele>2526</ele>
        <time>2018-07-09T11:59:58Z</time>
      </trkpt>
      <trkpt lat="46.068538846448064" lon="10.49296754412353">
        <ele>2525.52</ele>
        <time>2018-07-09T12:00:09Z</time>
      </trkpt>
      <trkpt lat="46.068560304120183" lon="10.492971651256084">
        <ele>2524.5599999999999</ele>
        <time>2018-07-09T12:00:16Z</time>
      </trkpt>
      <trkpt lat="46.068600034341216" lon="10.492929238826036">
        <ele>2523.1199999999999</ele>
        <time>2018-07-09T12:00:26Z</time>
      </trkpt>
      <trkpt lat="46.068637585267425" lon="10.492912055924535">
        <ele>2523.1199999999999</ele>
        <time>2018-07-09T12:00:32Z</time>
      </trkpt>
      <trkpt lat="46.068681506440043" lon="10.492884060367942">
        <ele>2523.5999999999999</ele>
        <time>2018-07-09T12:00:43Z</time>
      </trkpt>
      <trkpt lat="46.06869500130415" lon="10.492854220792651">
        <ele>2523.5999999999999</ele>
        <time>2018-07-09T12:01:02Z</time>
      </trkpt>
      <trkpt lat="46.068692905828357" lon="10.49284391105175">
        <ele>2524.0799999999999</ele>
        <time>2018-07-09T12:01:14Z</time>
      </trkpt>
      <trkpt lat="46.068689469248056" lon="10.492837792262435">
        <ele>2524.0799999999999</ele>
        <time>2018-07-09T12:01:29Z</time>
      </trkpt>
      <trkpt lat="46.068689804524183" lon="10.492836954072118">
        <ele>2524.5599999999999</ele>
        <time>2018-07-09T12:01:44Z</time>
      </trkpt>
      <trkpt lat="46.068709334358573" lon="10.492827566340566">
        <ele>2524.0799999999999</ele>
        <time>2018-07-09T12:01:54Z</time>
      </trkpt>
      <trkpt lat="46.068707825616002" lon="10.492816586047411">
        <ele>2522.6399999999999</ele>
        <time>2018-07-09T12:02:04Z</time>
      </trkpt>
      <trkpt lat="46.068715285509825" lon="10.492789344862103">
        <ele>2521.6799999999998</ele>
        <time>2018-07-09T12:02:08Z</time>
      </trkpt>
      <trkpt lat="46.068765576928854" lon="10.492829075083137">
        <ele>2519.75</ele>
        <time>2018-07-09T12:02:18Z</time>
      </trkpt>
      <trkpt lat="46.068797260522842" lon="10.492861680686474">
        <ele>2519.27</ele>
        <time>2018-07-09T12:02:27Z</time>
      </trkpt>
      <trkpt lat="46.068846294656396" lon="10.492875343188643">
        <ele>2517.8299999999999</ele>
        <time>2018-07-09T12:02:40Z</time>
      </trkpt>
      <trkpt lat="46.068889545276761" lon="10.492875594645739">
        <ele>2515.9099999999999</ele>
        <time>2018-07-09T12:02:52Z</time>
      </trkpt>
      <trkpt lat="46.068923994898796" lon="10.492901746183634">
        <ele>2514.9499999999998</ele>
        <time>2018-07-09T12:03:00Z</time>
      </trkpt>
      <trkpt lat="46.068963976576924" lon="10.492899147793651">
        <ele>2512.54</ele>
        <time>2018-07-09T12:03:12Z</time>
      </trkpt>
      <trkpt lat="46.068993816152215" lon="10.492901662364602">
        <ele>2510.6199999999999</ele>
        <time>2018-07-09T12:03:22Z</time>
      </trkpt>
      <trkpt lat="46.06903069652617" lon="10.492916330695152">
        <ele>2508.6999999999998</ele>
        <time>2018-07-09T12:03:34Z</time>
      </trkpt>
      <trkpt lat="46.069062631577253" lon="10.492902500554919">
        <ele>2506.29</ele>
        <time>2018-07-09T12:03:46Z</time>
      </trkpt>
      <trkpt lat="46.069118455052376" lon="10.492943404242396">
        <ele>2504.8499999999999</ele>
        <time>2018-07-09T12:03:56Z</time>
      </trkpt>
      <trkpt lat="46.069158939644694" lon="10.492947427555919">
        <ele>2503.4099999999999</ele>
        <time>2018-07-09T12:04:04Z</time>
      </trkpt>
      <trkpt lat="46.069205543026328" lon="10.492925634607673">
        <ele>2501.9699999999998</ele>
        <time>2018-07-09T12:04:15Z</time>
      </trkpt>
      <trkpt lat="46.069237058982253" lon="10.492905685678124">
        <ele>2500.5300000000002</ele>
        <time>2018-07-09T12:04:23Z</time>
      </trkpt>
      <trkpt lat="46.069307383149862" lon="10.492886072024703">
        <ele>2499.5700000000002</ele>
        <time>2018-07-09T12:04:34Z</time>
      </trkpt>
      <trkpt lat="46.069359518587589" lon="10.492864949628711">
        <ele>2498.1199999999999</ele>
        <time>2018-07-09T12:04:47Z</time>
      </trkpt>
      <trkpt lat="46.06937468983233" lon="10.492864865809679">
        <ele>2496.1999999999998</ele>
        <time>2018-07-09T12:04:58Z</time>
      </trkpt>
      <trkpt lat="46.069399081170559" lon="10.492857238277793">
        <ele>2495.2399999999998</ele>
        <time>2018-07-09T12:05:08Z</time>
      </trkpt>
      <trkpt lat="46.06942162849009" lon="10.492845419794321">
        <ele>2493.3200000000002</ele>
        <time>2018-07-09T12:05:18Z</time>
      </trkpt>
      <trkpt lat="46.069430932402611" lon="10.492836534976959">
        <ele>2492.3600000000001</ele>
        <time>2018-07-09T12:05:22Z</time>
      </trkpt>
      <trkpt lat="46.069514835253358" lon="10.49277987331152">
        <ele>2491.8699999999999</ele>
        <time>2018-07-09T12:05:33Z</time>
      </trkpt>
      <trkpt lat="46.069583734497428" lon="10.492750117555261">
        <ele>2493.8000000000002</ele>
        <time>2018-07-09T12:05:43Z</time>
      </trkpt>
      <trkpt lat="46.069589601829648" lon="10.492747267708182">
        <ele>2494.2800000000002</ele>
        <time>2018-07-09T12:05:44Z</time>
      </trkpt>
      <trkpt lat="46.069641318172216" lon="10.49268851056695">
        <ele>2495.7199999999998</ele>
        <time>2018-07-09T12:05:54Z</time>
      </trkpt>
      <trkpt lat="46.069700745865703" lon="10.492661604657769">
        <ele>2495.2399999999998</ele>
        <time>2018-07-09T12:06:04Z</time>
      </trkpt>
      <trkpt lat="46.069706194102764" lon="10.492658670991659">
        <ele>2495.2399999999998</ele>
        <time>2018-07-09T12:06:05Z</time>
      </trkpt>
      <trkpt lat="46.069733183830976" lon="10.492661017924547">
        <ele>2494.2800000000002</ele>
        <time>2018-07-09T12:06:08Z</time>
      </trkpt>
      <trkpt lat="46.069810716435313" lon="10.492662778124213">
        <ele>2494.2800000000002</ele>
        <time>2018-07-09T12:06:19Z</time>
      </trkpt>
      <trkpt lat="46.069895876571536" lon="10.492719607427716">
        <ele>2492.8400000000001</ele>
        <time>2018-07-09T12:06:31Z</time>
      </trkpt>
      <trkpt lat="46.069938205182552" lon="10.492736622691154">
        <ele>2493.3200000000002</ele>
        <time>2018-07-09T12:06:42Z</time>
      </trkpt>
      <trkpt lat="46.069952622056007" lon="10.492741903290153">
        <ele>2493.3200000000002</ele>
        <time>2018-07-09T12:06:54Z</time>
      </trkpt>
      <trkpt lat="46.069992519915104" lon="10.492744836956263">
        <ele>2492.3600000000001</ele>
        <time>2018-07-09T12:06:58Z</time>
      </trkpt>
      <trkpt lat="46.070062844082713" lon="10.492736035957932">
        <ele>2493.8000000000002</ele>
        <time>2018-07-09T12:07:08Z</time>
      </trkpt>
      <trkpt lat="46.070132497698069" lon="10.492740729823709">
        <ele>2494.7600000000002</ele>
        <time>2018-07-09T12:07:19Z</time>
      </trkpt>
      <trkpt lat="46.070191841572523" lon="10.49274324439466">
        <ele>2495.7199999999998</ele>
        <time>2018-07-09T12:07:28Z</time>
      </trkpt>
      <trkpt lat="46.070253280922771" lon="10.492792865261436">
        <ele>2495.7199999999998</ele>
        <time>2018-07-09T12:07:38Z</time>
      </trkpt>
      <trkpt lat="46.070320503786206" lon="10.492899902164936">
        <ele>2495.2399999999998</ele>
        <time>2018-07-09T12:07:50Z</time>
      </trkpt>
      <trkpt lat="46.070391917601228" lon="10.492967208847404">
        <ele>2495.7199999999998</ele>
        <time>2018-07-09T12:08:01Z</time>
      </trkpt>
      <trkpt lat="46.070439945906401" lon="10.492986068129539">
        <ele>2496.1999999999998</ele>
        <time>2018-07-09T12:08:09Z</time>
      </trkpt>
      <trkpt lat="46.070440532639623" lon="10.492998054251075">
        <ele>2496.1999999999998</ele>
        <time>2018-07-09T12:08:23Z</time>
      </trkpt>
      <trkpt lat="46.070476993918419" lon="10.493080448359251">
        <ele>2495.7199999999998</ele>
        <time>2018-07-09T12:08:32Z</time>
      </trkpt>
      <trkpt lat="46.070509264245629" lon="10.493122190237045">
        <ele>2496.1999999999998</ele>
        <time>2018-07-09T12:08:42Z</time>
      </trkpt>
      <trkpt lat="46.070538433268666" lon="10.493191005662084">
        <ele>2493.3200000000002</ele>
        <time>2018-07-09T12:08:53Z</time>
      </trkpt>
      <trkpt lat="46.070594927296042" lon="10.49321866594255">
        <ele>2494.2800000000002</ele>
        <time>2018-07-09T12:09:02Z</time>
      </trkpt>
      <trkpt lat="46.07061286456883" lon="10.493205841630697">
        <ele>2493.8000000000002</ele>
        <time>2018-07-09T12:09:10Z</time>
      </trkpt>
      <trkpt lat="46.070648320019245" lon="10.493169547989964">
        <ele>2491.8699999999999</ele>
        <time>2018-07-09T12:09:18Z</time>
      </trkpt>
      <trkpt lat="46.070670280605555" lon="10.493126213550568">
        <ele>2490.4299999999998</ele>
        <time>2018-07-09T12:09:28Z</time>
      </trkpt>
      <trkpt lat="46.070686457678676" lon="10.493131494149566">
        <ele>2489.9499999999998</ele>
        <time>2018-07-09T12:09:35Z</time>
      </trkpt>
      <trkpt lat="46.070689223706722" lon="10.493092099204659">
        <ele>2488.0300000000002</ele>
        <time>2018-07-09T12:09:43Z</time>
      </trkpt>
      <trkpt lat="46.070696851238608" lon="10.493068043142557">
        <ele>2486.1100000000001</ele>
        <time>2018-07-09T12:09:53Z</time>
      </trkpt>
      <trkpt lat="46.070710932835937" lon="10.493028899654746">
        <ele>2483.2199999999998</ele>
        <time>2018-07-09T12:10:04Z</time>
      </trkpt>
      <trkpt lat="46.070755776017904" lon="10.493010124191642">
        <ele>2481.3000000000002</ele>
        <time>2018-07-09T12:10:14Z</time>
      </trkpt>
      <trkpt lat="46.07075996696949" lon="10.492999646812677">
        <ele>2481.3000000000002</ele>
        <time>2018-07-09T12:10:26Z</time>
      </trkpt>
      <trkpt lat="46.070767343044281" lon="10.493000987917185">
        <ele>2480.8200000000002</ele>
        <time>2018-07-09T12:10:38Z</time>
      </trkpt>
      <trkpt lat="46.070782346650958" lon="10.492988750338554">
        <ele>2480.8200000000002</ele>
        <time>2018-07-09T12:10:51Z</time>
      </trkpt>
      <trkpt lat="46.070762062445283" lon="10.493006268516183">
        <ele>2480.3400000000001</ele>
        <time>2018-07-09T12:11:06Z</time>
      </trkpt>
      <trkpt lat="46.070756781846285" lon="10.493007777258754">
        <ele>2480.3400000000001</ele>
        <time>2018-07-09T12:11:08Z</time>
      </trkpt>
      <trkpt lat="46.070740185678005" lon="10.492976428940892">
        <ele>2478.4200000000001</ele>
        <time>2018-07-09T12:11:20Z</time>
      </trkpt>
      <trkpt lat="46.070787040516734" lon="10.492917923256755">
        <ele>2476.9699999999998</ele>
        <time>2018-07-09T12:11:31Z</time>
      </trkpt>
      <trkpt lat="46.070801122114062" lon="10.492884982377291">
        <ele>2476.4899999999998</ele>
        <time>2018-07-09T12:11:35Z</time>
      </trkpt>
      <trkpt lat="46.070794751867652" lon="10.492840390652418">
        <ele>2475.5300000000002</ele>
        <time>2018-07-09T12:11:40Z</time>
      </trkpt>
      <trkpt lat="46.070797517895699" lon="10.492811892181635">
        <ele>2474.0900000000001</ele>
        <time>2018-07-09T12:11:43Z</time>
      </trkpt>
      <trkpt lat="46.07086013071239" lon="10.492729498073459">
        <ele>2472.1700000000001</ele>
        <time>2018-07-09T12:11:52Z</time>
      </trkpt>
      <trkpt lat="46.070928694680333" lon="10.492683900520205">
        <ele>2472.1700000000001</ele>
        <time>2018-07-09T12:12:02Z</time>
      </trkpt>
      <trkpt lat="46.070931041613221" lon="10.49268800765276">
        <ele>2473.1300000000001</ele>
        <time>2018-07-09T12:12:16Z</time>
      </trkpt>
      <trkpt lat="46.070935064926744" lon="10.492684990167618">
        <ele>2473.1300000000001</ele>
        <time>2018-07-09T12:12:26Z</time>
      </trkpt>
      <trkpt lat="46.070940513163805" lon="10.492681385949254">
        <ele>2473.6100000000001</ele>
        <time>2018-07-09T12:12:39Z</time>
      </trkpt>
      <trkpt lat="46.070936070755124" lon="10.492679290473461">
        <ele>2473.6100000000001</ele>
        <time>2018-07-09T12:12:48Z</time>
      </trkpt>
      <trkpt lat="46.070967586711049" lon="10.492675099521875">
        <ele>2473.6100000000001</ele>
        <time>2018-07-09T12:12:59Z</time>
      </trkpt>
      <trkpt lat="46.070992900058627" lon="10.492666466161609">
        <ele>2472.6500000000001</ele>
        <time>2018-07-09T12:13:12Z</time>
      </trkpt>
      <trkpt lat="46.070992983877659" lon="10.492658084258437">
        <ele>2471.6900000000001</ele>
        <time>2018-07-09T12:13:24Z</time>
      </trkpt>
      <trkpt lat="46.071008155122399" lon="10.492659090086818">
        <ele>2471.21</ele>
        <time>2018-07-09T12:13:33Z</time>
      </trkpt>
      <trkpt lat="46.071042604744434" lon="10.492649869993329">
        <ele>2470.2399999999998</ele>
        <time>2018-07-09T12:13:43Z</time>
      </trkpt>
      <trkpt lat="46.071080323308706" lon="10.492663783952594">
        <ele>2467.8400000000001</ele>
        <time>2018-07-09T12:13:53Z</time>
      </trkpt>
      <trkpt lat="46.071126256138086" lon="10.492646601051092">
        <ele>2464.96</ele>
        <time>2018-07-09T12:14:04Z</time>
      </trkpt>
      <trkpt lat="46.071156514808536" lon="10.492639308795333">
        <ele>2463.04</ele>
        <time>2018-07-09T12:14:15Z</time>
      </trkpt>
      <trkpt lat="46.071174535900354" lon="10.492632184177637">
        <ele>2462.5500000000002</ele>
        <time>2018-07-09T12:14:18Z</time>
      </trkpt>
      <trkpt lat="46.071210578083992" lon="10.492639392614365">
        <ele>2462.5500000000002</ele>
        <time>2018-07-09T12:14:21Z</time>
      </trkpt>
      <trkpt lat="46.071249051019549" lon="10.492629250511527">
        <ele>2462.0700000000002</ele>
        <time>2018-07-09T12:14:25Z</time>
      </trkpt>
      <trkpt lat="46.071315770968795" lon="10.492578875273466">
        <ele>2462.5500000000002</ele>
        <time>2018-07-09T12:14:35Z</time>
      </trkpt>
      <trkpt lat="46.071370085701346" lon="10.492549035698175">
        <ele>2464</ele>
        <time>2018-07-09T12:14:44Z</time>
      </trkpt>
      <trkpt lat="46.071429345756769" lon="10.492517687380314">
        <ele>2465.4400000000001</ele>
        <time>2018-07-09T12:14:54Z</time>
      </trkpt>
      <trkpt lat="46.071472931653261" lon="10.492506539449096">
        <ele>2464.48</ele>
        <time>2018-07-09T12:15:06Z</time>
      </trkpt>
      <trkpt lat="46.071476619690657" lon="10.492479549720883">
        <ele>2464.48</ele>
        <time>2018-07-09T12:15:22Z</time>
      </trkpt>
      <trkpt lat="46.071543591096997" lon="10.49244174733758">
        <ele>2464.48</ele>
        <time>2018-07-09T12:15:31Z</time>
      </trkpt>
      <trkpt lat="46.071571921929717" lon="10.492404196411371">
        <ele>2464</ele>
        <time>2018-07-09T12:15:36Z</time>
      </trkpt>
      <trkpt lat="46.07162531465292" lon="10.49241928383708">
        <ele>2464.96</ele>
        <time>2018-07-09T12:15:42Z</time>
      </trkpt>
      <trkpt lat="46.071647275239229" lon="10.492397155612707">
        <ele>2464.48</ele>
        <time>2018-07-09T12:15:45Z</time>
      </trkpt>
      <trkpt lat="46.071694130077958" lon="10.492294477298856">
        <ele>2464</ele>
        <time>2018-07-09T12:15:54Z</time>
      </trkpt>
      <trkpt lat="46.071722796186805" lon="10.492153745144606">
        <ele>2464</ele>
        <time>2018-07-09T12:16:05Z</time>
      </trkpt>
      <trkpt lat="46.071760011836886" lon="10.49206305295229">
        <ele>2463.04</ele>
        <time>2018-07-09T12:16:15Z</time>
      </trkpt>
      <trkpt lat="46.071815919131041" lon="10.491997674107552">
        <ele>2461.1100000000001</ele>
        <time>2018-07-09T12:16:25Z</time>
      </trkpt>
      <trkpt lat="46.071839807555079" lon="10.491915447637439">
        <ele>2459.6700000000001</ele>
        <time>2018-07-09T12:16:35Z</time>
      </trkpt>
      <trkpt lat="46.071851877495646" lon="10.491864653304219">
        <ele>2457.75</ele>
        <time>2018-07-09T12:16:46Z</time>
      </trkpt>
      <trkpt lat="46.071871491149068" lon="10.491823079064488">
        <ele>2457.27</ele>
        <time>2018-07-09T12:17:00Z</time>
      </trkpt>
      <trkpt lat="46.071883225813508" lon="10.491804219782352">
        <ele>2456.79</ele>
        <time>2018-07-09T12:17:10Z</time>
      </trkpt>
      <trkpt lat="46.071887668222189" lon="10.491800867021084">
        <ele>2457.27</ele>
        <time>2018-07-09T12:17:24Z</time>
      </trkpt>
      <trkpt lat="46.071867551654577" lon="10.491791646927595">
        <ele>2456.79</ele>
        <time>2018-07-09T12:17:35Z</time>
      </trkpt>
      <trkpt lat="46.071877777576447" lon="10.4917654953897">
        <ele>2455.3400000000001</ele>
        <time>2018-07-09T12:17:46Z</time>
      </trkpt>
      <trkpt lat="46.071876185014844" lon="10.491733057424426">
        <ele>2453.4200000000001</ele>
        <time>2018-07-09T12:17:55Z</time>
      </trkpt>
      <trkpt lat="46.071891440078616" lon="10.491690058261156">
        <ele>2451.5</ele>
        <time>2018-07-09T12:18:04Z</time>
      </trkpt>
      <trkpt lat="46.071951622143388" lon="10.491755185648799">
        <ele>2450.0599999999999</ele>
        <time>2018-07-09T12:18:13Z</time>
      </trkpt>
      <trkpt lat="46.071991184726357" lon="10.491800447925925">
        <ele>2449.5799999999999</ele>
        <time>2018-07-09T12:18:25Z</time>
      </trkpt>
      <trkpt lat="46.072051282972097" lon="10.491832885891199">
        <ele>2447.6500000000001</ele>
        <time>2018-07-09T12:18:37Z</time>
      </trkpt>
      <trkpt lat="46.072105932980776" lon="10.491909915581346">
        <ele>2446.21</ele>
        <time>2018-07-09T12:18:49Z</time>
      </trkpt>
      <trkpt lat="46.072134599089622" lon="10.491922488436103">
        <ele>2443.8099999999999</ele>
        <time>2018-07-09T12:19:00Z</time>
      </trkpt>
      <trkpt lat="46.072170389816165" lon="10.49193405546248">
        <ele>2441.8899999999999</ele>
        <time>2018-07-09T12:19:09Z</time>
      </trkpt>
      <trkpt lat="46.072195786982775" lon="10.49192919395864">
        <ele>2440.4400000000001</ele>
        <time>2018-07-09T12:19:19Z</time>
      </trkpt>
      <trkpt lat="46.072212215512991" lon="10.491919303312898">
        <ele>2439.48</ele>
        <time>2018-07-09T12:19:30Z</time>
      </trkpt>
      <trkpt lat="46.072212718427181" lon="10.491916621103883">
        <ele>2438.52</ele>
        <time>2018-07-09T12:19:35Z</time>
      </trkpt>
      <trkpt lat="46.072228811681271" lon="10.491934223100543">
        <ele>2437.0799999999999</ele>
        <time>2018-07-09T12:19:44Z</time>
      </trkpt>
      <trkpt lat="46.072254963219166" lon="10.491938581690192">
        <ele>2435.6399999999999</ele>
        <time>2018-07-09T12:19:53Z</time>
      </trkpt>
      <trkpt lat="46.07226787135005" lon="10.491937408223748">
        <ele>2434.6799999999998</ele>
        <time>2018-07-09T12:19:56Z</time>
      </trkpt>
      <trkpt lat="46.072340123355389" lon="10.491962553933263">
        <ele>2433.71</ele>
        <time>2018-07-09T12:20:05Z</time>
      </trkpt>
      <trkpt lat="46.072364933788776" lon="10.491941012442112">
        <ele>2432.27</ele>
        <time>2018-07-09T12:20:15Z</time>
      </trkpt>
      <trkpt lat="46.072405837476254" lon="10.491944868117571">
        <ele>2431.3099999999999</ele>
        <time>2018-07-09T12:20:24Z</time>
      </trkpt>
      <trkpt lat="46.072413045912981" lon="10.491953501477838">
        <ele>2430.8299999999999</ele>
        <time>2018-07-09T12:20:35Z</time>
      </trkpt>
      <trkpt lat="46.072443472221494" lon="10.491947969421744">
        <ele>2428.9099999999999</ele>
        <time>2018-07-09T12:20:45Z</time>
      </trkpt>
      <trkpt lat="46.072459314018488" lon="10.491930283606052">
        <ele>2427.9499999999998</ele>
        <time>2018-07-09T12:20:55Z</time>
      </trkpt>
      <trkpt lat="46.072462666779757" lon="10.491970181465149">
        <ele>2426.9899999999998</ele>
        <time>2018-07-09T12:21:10Z</time>
      </trkpt>
      <trkpt lat="46.07245797291398" lon="10.491924919188023">
        <ele>2425.54</ele>
        <time>2018-07-09T12:21:18Z</time>
      </trkpt>
      <trkpt lat="46.072485381737351" lon="10.491827940568328">
        <ele>2423.6199999999999</ele>
        <time>2018-07-09T12:21:29Z</time>
      </trkpt>
      <trkpt lat="46.072504073381424" lon="10.491780582815409">
        <ele>2421.2199999999998</ele>
        <time>2018-07-09T12:21:38Z</time>
      </trkpt>
      <trkpt lat="46.07253173366189" lon="10.491741606965661">
        <ele>2419.7800000000002</ele>
        <time>2018-07-09T12:21:48Z</time>
      </trkpt>
      <trkpt lat="46.072534834966063" lon="10.491716545075178">
        <ele>2418.8099999999999</ele>
        <time>2018-07-09T12:21:52Z</time>
      </trkpt>
      <trkpt lat="46.07254003174603" lon="10.491713108494878">
        <ele>2417.3699999999999</ele>
        <time>2018-07-09T12:22:01Z</time>
      </trkpt>
      <trkpt lat="46.072498708963394" lon="10.491685615852475">
        <ele>2414.4899999999998</ele>
        <time>2018-07-09T12:22:14Z</time>
      </trkpt>
      <trkpt lat="46.072476245462894" lon="10.491645969450474">
        <ele>2413.0500000000002</ele>
        <time>2018-07-09T12:22:26Z</time>
      </trkpt>
      <trkpt lat="46.07251513749361" lon="10.49158813431859">
        <ele>2411.5999999999999</ele>
        <time>2018-07-09T12:22:34Z</time>
      </trkpt>
      <trkpt lat="46.072546569630504" lon="10.491547146812081">
        <ele>2410.6399999999999</ele>
        <time>2018-07-09T12:22:42Z</time>
      </trkpt>
      <trkpt lat="46.072550341486931" lon="10.491526192054152">
        <ele>2409.6799999999998</ele>
        <time>2018-07-09T12:22:51Z</time>
      </trkpt>
      <trkpt lat="46.072558807209134" lon="10.491490652784705">
        <ele>2407.7600000000002</ele>
        <time>2018-07-09T12:23:04Z</time>
      </trkpt>
      <trkpt lat="46.072588814422488" lon="10.491446563974023">
        <ele>2405.8400000000001</ele>
        <time>2018-07-09T12:23:17Z</time>
      </trkpt>
      <trkpt lat="46.072591748088598" lon="10.49142736941576">
        <ele>2404.3899999999999</ele>
        <time>2018-07-09T12:23:26Z</time>
      </trkpt>
      <trkpt lat="46.072592921555042" lon="10.491443211212754">
        <ele>2403.4299999999998</ele>
        <time>2018-07-09T12:23:37Z</time>
      </trkpt>
      <trkpt lat="46.072581941261888" lon="10.491466345265508">
        <ele>2403.4299999999998</ele>
        <time>2018-07-09T12:23:51Z</time>
      </trkpt>
      <trkpt lat="46.072582611814141" lon="10.491494843736291">
        <ele>2401.9899999999998</ele>
        <time>2018-07-09T12:24:06Z</time>
      </trkpt>
      <trkpt lat="46.072607170790434" lon="10.491384034976363">
        <ele>2399.1100000000001</ele>
        <time>2018-07-09T12:24:20Z</time>
      </trkpt>
      <trkpt lat="46.072607589885592" lon="10.491379257291555">
        <ele>2399.1100000000001</ele>
        <time>2018-07-09T12:24:29Z</time>
      </trkpt>
      <trkpt lat="46.0726123675704" lon="10.49136676825583">
        <ele>2397.1799999999998</ele>
        <time>2018-07-09T12:24:38Z</time>
      </trkpt>
      <trkpt lat="46.072615636512637" lon="10.491363247856498">
        <ele>2395.2600000000002</ele>
        <time>2018-07-09T12:24:48Z</time>
      </trkpt>
      <trkpt lat="46.07266022823751" lon="10.491375736892223">
        <ele>2392.8600000000001</ele>
        <time>2018-07-09T12:25:00Z</time>
      </trkpt>
      <trkpt lat="46.072718314826488" lon="10.491382107138634">
        <ele>2391.4200000000001</ele>
        <time>2018-07-09T12:25:10Z</time>
      </trkpt>
      <trkpt lat="46.072716973721981" lon="10.491351513192058">
        <ele>2390.9400000000001</ele>
        <time>2018-07-09T12:25:20Z</time>
      </trkpt>
      <trkpt lat="46.072720494121313" lon="10.491324355825782">
        <ele>2390.46</ele>
        <time>2018-07-09T12:25:31Z</time>
      </trkpt>
      <trkpt lat="46.072724349796772" lon="10.491326032206416">
        <ele>2389.0100000000002</ele>
        <time>2018-07-09T12:25:38Z</time>
      </trkpt>
      <trkpt lat="46.072761062532663" lon="10.491348663344979">
        <ele>2387.5700000000002</ele>
        <time>2018-07-09T12:25:49Z</time>
      </trkpt>
      <trkpt lat="46.072787214070559" lon="10.491334497928619">
        <ele>2386.1300000000001</ele>
        <time>2018-07-09T12:25:53Z</time>
      </trkpt>
      <trkpt lat="46.072841193526983" lon="10.491296360269189">
        <ele>2384.6900000000001</ele>
        <time>2018-07-09T12:26:02Z</time>
      </trkpt>
      <trkpt lat="46.072899363934994" lon="10.491283535957336">
        <ele>2384.21</ele>
        <time>2018-07-09T12:26:14Z</time>
      </trkpt>
      <trkpt lat="46.072922414168715" lon="10.491307759657502">
        <ele>2385.6500000000001</ele>
        <time>2018-07-09T12:26:23Z</time>
      </trkpt>
      <trkpt lat="46.072924509644508" lon="10.49130080267787">
        <ele>2385.1700000000001</ele>
        <time>2018-07-09T12:26:38Z</time>
      </trkpt>
      <trkpt lat="46.072917804121971" lon="10.491298707202077">
        <ele>2385.1700000000001</ele>
        <time>2018-07-09T12:26:56Z</time>
      </trkpt>
      <trkpt lat="46.072913194075227" lon="10.491304071620107">
        <ele>2384.6900000000001</ele>
        <time>2018-07-09T12:27:19Z</time>
      </trkpt>
      <trkpt lat="46.072922330349684" lon="10.491307005286217">
        <ele>2385.1700000000001</ele>
        <time>2018-07-09T12:27:33Z</time>
      </trkpt>
      <trkpt lat="46.072908584028482" lon="10.491288397461176">
        <ele>2385.1700000000001</ele>
        <time>2018-07-09T12:27:48Z</time>
      </trkpt>
      <trkpt lat="46.072909673675895" lon="10.491298539564013">
        <ele>2384.6900000000001</ele>
        <time>2018-07-09T12:28:02Z</time>
      </trkpt>
      <trkpt lat="46.07292752712965" lon="10.491297198459506">
        <ele>2384.6900000000001</ele>
        <time>2018-07-09T12:28:17Z</time>
      </trkpt>
      <trkpt lat="46.072942782193422" lon="10.491317398846149">
        <ele>2384.6900000000001</ele>
        <time>2018-07-09T12:28:29Z</time>
      </trkpt>
      <trkpt lat="46.072942614555359" lon="10.491308765485883">
        <ele>2384.21</ele>
        <time>2018-07-09T12:28:48Z</time>
      </trkpt>
      <trkpt lat="46.072931466624141" lon="10.491314632818103">
        <ele>2384.6900000000001</ele>
        <time>2018-07-09T12:29:05Z</time>
      </trkpt>
      <trkpt lat="46.07291922904551" lon="10.491326954215765">
        <ele>2384.21</ele>
        <time>2018-07-09T12:29:21Z</time>
      </trkpt>
      <trkpt lat="46.072914367541671" lon="10.491315806284547">
        <ele>2384.6900000000001</ele>
        <time>2018-07-09T12:29:33Z</time>
      </trkpt>
      <trkpt lat="46.072936747223139" lon="10.491320583969355">
        <ele>2384.6900000000001</ele>
        <time>2018-07-09T12:29:44Z</time>
      </trkpt>
      <trkpt lat="46.072921492159367" lon="10.491308933123946">
        <ele>2384.6900000000001</ele>
        <time>2018-07-09T12:30:03Z</time>
      </trkpt>
      <trkpt lat="46.072927275672555" lon="10.491320583969355">
        <ele>2385.1700000000001</ele>
        <time>2018-07-09T12:30:21Z</time>
      </trkpt>
      <trkpt lat="46.072923671454191" lon="10.491315135732293">
        <ele>2385.1700000000001</ele>
        <time>2018-07-09T12:30:38Z</time>
      </trkpt>
      <trkpt lat="46.07290212996304" lon="10.491296779364347">
        <ele>2384.6900000000001</ele>
        <time>2018-07-09T12:30:51Z</time>
      </trkpt>
      <trkpt lat="46.072917468845844" lon="10.491283284500241">
        <ele>2383.73</ele>
        <time>2018-07-09T12:31:00Z</time>
      </trkpt>
      <trkpt lat="46.07293339446187" lon="10.491313878446817">
        <ele>2382.7600000000002</ele>
        <time>2018-07-09T12:31:13Z</time>
      </trkpt>
      <trkpt lat="46.072929035872221" lon="10.491322344169021">
        <ele>2382.2800000000002</ele>
        <time>2018-07-09T12:31:25Z</time>
      </trkpt>
      <trkpt lat="46.072923587635159" lon="10.491334497928619">
        <ele>2380.3600000000001</ele>
        <time>2018-07-09T12:31:37Z</time>
      </trkpt>
      <trkpt lat="46.072931215167046" lon="10.491320919245481">
        <ele>2379.4000000000001</ele>
        <time>2018-07-09T12:31:51Z</time>
      </trkpt>
      <trkpt lat="46.072968849912286" lon="10.491327373310924">
        <ele>2377.96</ele>
        <time>2018-07-09T12:32:05Z</time>
      </trkpt>
      <trkpt lat="46.072963904589415" lon="10.491304658353329">
        <ele>2377</ele>
        <time>2018-07-09T12:32:18Z</time>
      </trkpt>
      <trkpt lat="46.072962144389749" lon="10.49129543825984">
        <ele>2376.04</ele>
        <time>2018-07-09T12:32:30Z</time>
      </trkpt>
      <trkpt lat="46.072975220158696" lon="10.491307508200407">
        <ele>2375.0700000000002</ele>
        <time>2018-07-09T12:32:40Z</time>
      </trkpt>
      <trkpt lat="46.072966586798429" lon="10.491282613947988">
        <ele>2374.5900000000001</ele>
        <time>2018-07-09T12:32:56Z</time>
      </trkpt>
      <trkpt lat="46.072999527677894" lon="10.491298623383045">
        <ele>2374.5900000000001</ele>
        <time>2018-07-09T12:33:11Z</time>
      </trkpt>
      <trkpt lat="46.073011513799429" lon="10.4913130402565">
        <ele>2373.6300000000001</ele>
        <time>2018-07-09T12:33:26Z</time>
      </trkpt>
      <trkpt lat="46.073071025311947" lon="10.491337096318603">
        <ele>2372.1900000000001</ele>
        <time>2018-07-09T12:33:38Z</time>
      </trkpt>
      <trkpt lat="46.07307605445385" lon="10.491350842639804">
        <ele>2370.75</ele>
        <time>2018-07-09T12:33:48Z</time>
      </trkpt>
      <trkpt lat="46.073093991726637" lon="10.491342460736632">
        <ele>2369.3099999999999</ele>
        <time>2018-07-09T12:33:58Z</time>
      </trkpt>
      <trkpt lat="46.073080915957689" lon="10.491345310583711">
        <ele>2368.3499999999999</ele>
        <time>2018-07-09T12:34:09Z</time>
      </trkpt>
      <trkpt lat="46.073084939271212" lon="10.491334749385715">
        <ele>2367.3800000000001</ele>
        <time>2018-07-09T12:34:16Z</time>
      </trkpt>
      <trkpt lat="46.07310782186687" lon="10.491329804062843">
        <ele>2364.5</ele>
        <time>2018-07-09T12:34:27Z</time>
      </trkpt>
      <trkpt lat="46.073132716119289" lon="10.491316560655832">
        <ele>2363.0599999999999</ele>
        <time>2018-07-09T12:34:39Z</time>
      </trkpt>
      <trkpt lat="46.07315082103014" lon="10.491308430209756">
        <ele>2360.1700000000001</ele>
        <time>2018-07-09T12:34:48Z</time>
      </trkpt>
      <trkpt lat="46.073167333379388" lon="10.491295019164681">
        <ele>2358.25</ele>
        <time>2018-07-09T12:34:58Z</time>
      </trkpt>
      <trkpt lat="46.073221312835813" lon="10.491300132125616">
        <ele>2355.3699999999999</ele>
        <time>2018-07-09T12:35:08Z</time>
      </trkpt>
      <trkpt lat="46.073269760236144" lon="10.491298958659172">
        <ele>2354.8899999999999</ele>
        <time>2018-07-09T12:35:21Z</time>
      </trkpt>
      <trkpt lat="46.073288787156343" lon="10.491291414946318">
        <ele>2353.9299999999998</ele>
        <time>2018-07-09T12:35:33Z</time>
      </trkpt>
      <trkpt lat="46.073291301727295" lon="10.491290241479874">
        <ele>2352.96</ele>
        <time>2018-07-09T12:35:36Z</time>
      </trkpt>
      <trkpt lat="46.073319213464856" lon="10.491298455744982">
        <ele>2351.52</ele>
        <time>2018-07-09T12:35:46Z</time>
      </trkpt>
      <trkpt lat="46.073328349739313" lon="10.491269957274199">
        <ele>2349.5999999999999</ele>
        <time>2018-07-09T12:35:55Z</time>
      </trkpt>
      <trkpt lat="46.07335458509624" lon="10.491294264793396">
        <ele>2349.1199999999999</ele>
        <time>2018-07-09T12:36:05Z</time>
      </trkpt>
      <trkpt lat="46.073343101888895" lon="10.491341119632125">
        <ele>2348.6399999999999</ele>
        <time>2018-07-09T12:36:14Z</time>
      </trkpt>
      <trkpt lat="46.073339832946658" lon="10.491370959207416">
        <ele>2347.6799999999998</ele>
        <time>2018-07-09T12:36:27Z</time>
      </trkpt>
      <trkpt lat="46.073367157950997" lon="10.491326367482543">
        <ele>2345.75</ele>
        <time>2018-07-09T12:36:35Z</time>
      </trkpt>
      <trkpt lat="46.073396578431129" lon="10.491269454360008">
        <ele>2345.27</ele>
        <time>2018-07-09T12:36:43Z</time>
      </trkpt>
      <trkpt lat="46.07342641800642" lon="10.491252858191729">
        <ele>2344.79</ele>
        <time>2018-07-09T12:36:54Z</time>
      </trkpt>
      <trkpt lat="46.073437314480543" lon="10.49124606885016">
        <ele>2344.3099999999999</ele>
        <time>2018-07-09T12:37:05Z</time>
      </trkpt>
      <trkpt lat="46.073427759110928" lon="10.491271633654833">
        <ele>2344.79</ele>
        <time>2018-07-09T12:37:18Z</time>
      </trkpt>
      <trkpt lat="46.073424490168691" lon="10.491235926747322">
        <ele>2344.3099999999999</ele>
        <time>2018-07-09T12:37:26Z</time>
      </trkpt>
      <trkpt lat="46.073429435491562" lon="10.491180773824453">
        <ele>2344.3099999999999</ele>
        <time>2018-07-09T12:37:38Z</time>
      </trkpt>
      <trkpt lat="46.073449468240142" lon="10.491190077736974">
        <ele>2343.3499999999999</ele>
        <time>2018-07-09T12:37:48Z</time>
      </trkpt>
      <trkpt lat="46.07345231808722" lon="10.491149593144655">
        <ele>2342.8699999999999</ele>
        <time>2018-07-09T12:38:05Z</time>
      </trkpt>
      <trkpt lat="46.073446283116937" lon="10.491146743297577">
        <ele>2343.3499999999999</ele>
        <time>2018-07-09T12:38:21Z</time>
      </trkpt>
      <trkpt lat="46.0734498873353" lon="10.491126962006092">
        <ele>2343.3499999999999</ele>
        <time>2018-07-09T12:38:31Z</time>
      </trkpt>
      <trkpt lat="46.073446366935968" lon="10.491120759397745">
        <ele>2342.8699999999999</ele>
        <time>2018-07-09T12:38:44Z</time>
      </trkpt>
      <trkpt lat="46.073455335572362" lon="10.491138026118279">
        <ele>2342.8699999999999</ele>
        <time>2018-07-09T12:38:57Z</time>
      </trkpt>
      <trkpt lat="46.073439493775368" lon="10.491165434941649">
        <ele>2342.8699999999999</ele>
        <time>2018-07-09T12:39:16Z</time>
      </trkpt>
      <trkpt lat="46.073458604514599" lon="10.491145066916943">
        <ele>2341.4299999999998</ele>
        <time>2018-07-09T12:39:28Z</time>
      </trkpt>
      <trkpt lat="46.073461789637804" lon="10.491119921207428">
        <ele>2340.4699999999998</ele>
        <time>2018-07-09T12:39:37Z</time>
      </trkpt>
      <trkpt lat="46.073447288945317" lon="10.491086980327964">
        <ele>2339.02</ele>
        <time>2018-07-09T12:39:47Z</time>
      </trkpt>
      <trkpt lat="46.073481906205416" lon="10.491065606474876">
        <ele>2337.5799999999999</ele>
        <time>2018-07-09T12:39:57Z</time>
      </trkpt>
      <trkpt lat="46.073545776307583" lon="10.491073234006763">
        <ele>2334.6999999999998</ele>
        <time>2018-07-09T12:40:07Z</time>
      </trkpt>
      <trkpt lat="46.073579471558332" lon="10.491068791598082">
        <ele>2334.2199999999998</ele>
        <time>2018-07-09T12:40:18Z</time>
      </trkpt>
      <trkpt lat="46.073604701086879" lon="10.49108924344182">
        <ele>2332.3000000000002</ele>
        <time>2018-07-09T12:40:30Z</time>
      </trkpt>
      <trkpt lat="46.073621548712254" lon="10.4911058396101">
        <ele>2330.8499999999999</ele>
        <time>2018-07-09T12:40:37Z</time>
      </trkpt>
      <trkpt lat="46.073640659451485" lon="10.49107214435935">
        <ele>2328.9299999999998</ele>
        <time>2018-07-09T12:40:46Z</time>
      </trkpt>
      <trkpt lat="46.073653902858496" lon="10.491055548191071">
        <ele>2327.9699999999998</ele>
        <time>2018-07-09T12:41:00Z</time>
      </trkpt>
      <trkpt lat="46.073670499026775" lon="10.491037778556347">
        <ele>2326.0500000000002</ele>
        <time>2018-07-09T12:41:11Z</time>
      </trkpt>
      <trkpt lat="46.073689525946975" lon="10.491012213751674">
        <ele>2324.1199999999999</ele>
        <time>2018-07-09T12:41:19Z</time>
      </trkpt>
      <trkpt lat="46.073700925335288" lon="10.490978602319956">
        <ele>2322.1999999999998</ele>
        <time>2018-07-09T12:41:30Z</time>
      </trkpt>
      <trkpt lat="46.073705954477191" lon="10.49094214104116">
        <ele>2321.2399999999998</ele>
        <time>2018-07-09T12:41:39Z</time>
      </trkpt>
      <trkpt lat="46.073740487918258" lon="10.490972064435482">
        <ele>2320.2800000000002</ele>
        <time>2018-07-09T12:41:49Z</time>
      </trkpt>
      <trkpt lat="46.073743924498558" lon="10.490969214588404">
        <ele>2319.3200000000002</ele>
        <time>2018-07-09T12:41:57Z</time>
      </trkpt>
      <trkpt lat="46.073779128491879" lon="10.491015231236815">
        <ele>2317.4000000000001</ele>
        <time>2018-07-09T12:42:07Z</time>
      </trkpt>
      <trkpt lat="46.073796227574348" lon="10.490981033071876">
        <ele>2314.9899999999998</ele>
        <time>2018-07-09T12:42:19Z</time>
      </trkpt>
      <trkpt lat="46.073814835399389" lon="10.490954713895917">
        <ele>2313.5500000000002</ele>
        <time>2018-07-09T12:42:31Z</time>
      </trkpt>
      <trkpt lat="46.073814751580358" lon="10.490908194333315">
        <ele>2311.1500000000001</ele>
        <time>2018-07-09T12:42:42Z</time>
      </trkpt>
      <trkpt lat="46.073842579498887" lon="10.490842564031482">
        <ele>2308.2600000000002</ele>
        <time>2018-07-09T12:42:53Z</time>
      </trkpt>
      <trkpt lat="46.073874598369002" lon="10.490851113572717">
        <ele>2307.3000000000002</ele>
        <time>2018-07-09T12:42:56Z</time>
      </trkpt>
      <trkpt lat="46.073962105438113" lon="10.49084004946053">
        <ele>2306.3400000000001</ele>
        <time>2018-07-09T12:43:08Z</time>
      </trkpt>
      <trkpt lat="46.073999404907227" lon="10.490807527676225">
        <ele>2303.9400000000001</ele>
        <time>2018-07-09T12:43:20Z</time>
      </trkpt>
      <trkpt lat="46.074035782366991" lon="10.490810461342335">
        <ele>2302.98</ele>
        <time>2018-07-09T12:43:31Z</time>
      </trkpt>
      <trkpt lat="46.074063358828425" lon="10.490790344774723">
        <ele>2299.6100000000001</ele>
        <time>2018-07-09T12:43:40Z</time>
      </trkpt>
      <trkpt lat="46.074093785136938" lon="10.490753212943673">
        <ele>2297.6900000000001</ele>
        <time>2018-07-09T12:43:51Z</time>
      </trkpt>
      <trkpt lat="46.074102586135268" lon="10.490715829655528">
        <ele>2296.25</ele>
        <time>2018-07-09T12:44:01Z</time>
      </trkpt>
      <trkpt lat="46.074104933068156" lon="10.490668807178736">
        <ele>2294.3200000000002</ele>
        <time>2018-07-09T12:44:11Z</time>
      </trkpt>
      <trkpt lat="46.074150111526251" lon="10.490643577650189">
        <ele>2291.9200000000001</ele>
        <time>2018-07-09T12:44:22Z</time>
      </trkpt>
      <trkpt lat="46.074191182851791" lon="10.490649864077568">
        <ele>2290.48</ele>
        <time>2018-07-09T12:44:31Z</time>
      </trkpt>
      <trkpt lat="46.074211802333593" lon="10.490601500496268">
        <ele>2288.5599999999999</ele>
        <time>2018-07-09T12:44:41Z</time>
      </trkpt>
      <trkpt lat="46.074247928336263" lon="10.490582473576069">
        <ele>2287.5900000000001</ele>
        <time>2018-07-09T12:44:48Z</time>
      </trkpt>
      <trkpt lat="46.074283719062805" lon="10.490563530474901">
        <ele>2285.6700000000001</ele>
        <time>2018-07-09T12:44:58Z</time>
      </trkpt>
      <trkpt lat="46.074243485927582" lon="10.490499241277575">
        <ele>2284.71</ele>
        <time>2018-07-09T12:45:09Z</time>
      </trkpt>
      <trkpt lat="46.074264273047447" lon="10.490415086969733">
        <ele>2282.3099999999999</ele>
        <time>2018-07-09T12:45:20Z</time>
      </trkpt>
      <trkpt lat="46.07427516952157" lon="10.490398155525327">
        <ele>2281.8299999999999</ele>
        <time>2018-07-09T12:45:22Z</time>
      </trkpt>
      <trkpt lat="46.074308110401034" lon="10.490357084199786">
        <ele>2281.3499999999999</ele>
        <time>2018-07-09T12:45:30Z</time>
      </trkpt>
      <trkpt lat="46.074343817308545" lon="10.490271337330341">
        <ele>2281.8299999999999</ele>
        <time>2018-07-09T12:45:40Z</time>
      </trkpt>
      <trkpt lat="46.074368376284838" lon="10.490225069224834">
        <ele>2280.8699999999999</ele>
        <time>2018-07-09T12:45:49Z</time>
      </trkpt>
      <trkpt lat="46.074405843392015" lon="10.490190535783768">
        <ele>2279.9000000000001</ele>
        <time>2018-07-09T12:46:00Z</time>
      </trkpt>
      <trkpt lat="46.074441550299525" lon="10.490187350660563">
        <ele>2279.4200000000001</ele>
        <time>2018-07-09T12:46:11Z</time>
      </trkpt>
      <trkpt lat="46.074478263035417" lon="10.490217274054885">
        <ele>2277.5</ele>
        <time>2018-07-09T12:46:23Z</time>
      </trkpt>
      <trkpt lat="46.074517657980323" lon="10.49024879001081">
        <ele>2276.0599999999999</ele>
        <time>2018-07-09T12:46:32Z</time>
      </trkpt>
      <trkpt lat="46.074503576382995" lon="10.490243341773748">
        <ele>2275.5799999999999</ele>
        <time>2018-07-09T12:46:40Z</time>
      </trkpt>
      <trkpt lat="46.074504666030407" lon="10.490233283489943">
        <ele>2275.0999999999999</ele>
        <time>2018-07-09T12:46:50Z</time>
      </trkpt>
      <trkpt lat="46.074522184208035" lon="10.490185087546706">
        <ele>2274.1399999999999</ele>
        <time>2018-07-09T12:47:00Z</time>
      </trkpt>
      <trkpt lat="46.074540289118886" lon="10.490193972364068">
        <ele>2273.6599999999999</ele>
        <time>2018-07-09T12:47:14Z</time>
      </trkpt>
      <trkpt lat="46.074533918872476" lon="10.490187434479594">
        <ele>2273.1700000000001</ele>
        <time>2018-07-09T12:47:31Z</time>
      </trkpt>
      <trkpt lat="46.074527213349938" lon="10.490190954878926">
        <ele>2273.1700000000001</ele>
        <time>2018-07-09T12:47:43Z</time>
      </trkpt>
      <trkpt lat="46.07453023083508" lon="10.490192966535687">
        <ele>2272.6900000000001</ele>
        <time>2018-07-09T12:48:11Z</time>
      </trkpt>
      <trkpt lat="46.074529308825731" lon="10.490202186629176">
        <ele>2272.6900000000001</ele>
        <time>2018-07-09T12:48:37Z</time>
      </trkpt>
      <trkpt lat="46.074534170329571" lon="10.490190619602799">
        <ele>2272.21</ele>
        <time>2018-07-09T12:49:09Z</time>
      </trkpt>
      <trkpt lat="46.074543306604028" lon="10.490192379802465">
        <ele>2272.21</ele>
        <time>2018-07-09T12:49:39Z</time>
      </trkpt>
      <trkpt lat="46.074537942185998" lon="10.490208975970745">
        <ele>2272.21</ele>
        <time>2018-07-09T12:50:09Z</time>
      </trkpt>
      <trkpt lat="46.074536349624395" lon="10.490184500813484">
        <ele>2273.6599999999999</ele>
        <time>2018-07-09T12:50:19Z</time>
      </trkpt>
      <trkpt lat="46.074530398473144" lon="10.490198330953717">
        <ele>2272.21</ele>
        <time>2018-07-09T12:50:42Z</time>
      </trkpt>
      <trkpt lat="46.074522100389004" lon="10.490196738392115">
        <ele>2272.21</ele>
        <time>2018-07-09T12:51:05Z</time>
      </trkpt>
      <trkpt lat="46.074528722092509" lon="10.490216268226504">
        <ele>2272.6900000000001</ele>
        <time>2018-07-09T12:51:17Z</time>
      </trkpt>
      <trkpt lat="46.074515646323562" lon="10.490220710635185">
        <ele>2272.6900000000001</ele>
        <time>2018-07-09T12:51:30Z</time>
      </trkpt>
      <trkpt lat="46.074536181986332" lon="10.490190284326673">
        <ele>2272.6900000000001</ele>
        <time>2018-07-09T12:51:50Z</time>
      </trkpt>
      <trkpt lat="46.074528973549604" lon="10.490196067839861">
        <ele>2272.21</ele>
        <time>2018-07-09T12:52:06Z</time>
      </trkpt>
      <trkpt lat="46.074551101773977" lon="10.490171927958727">
        <ele>2271.73</ele>
        <time>2018-07-09T12:52:23Z</time>
      </trkpt>
      <trkpt lat="46.074571805074811" lon="10.490146279335022">
        <ele>2270.77</ele>
        <time>2018-07-09T12:52:34Z</time>
      </trkpt>
      <trkpt lat="46.074609356001019" lon="10.490148039534688">
        <ele>2268.8499999999999</ele>
        <time>2018-07-09T12:52:44Z</time>
      </trkpt>
      <trkpt lat="46.07462695799768" lon="10.490158600732684">
        <ele>2267.4099999999999</ele>
        <time>2018-07-09T12:52:54Z</time>
      </trkpt>
      <trkpt lat="46.074647828936577" lon="10.490156002342701">
        <ele>2266.4499999999998</ele>
        <time>2018-07-09T12:52:59Z</time>
      </trkpt>
      <trkpt lat="46.074675489217043" lon="10.490250717848539">
        <ele>2263.0799999999999</ele>
        <time>2018-07-09T12:53:10Z</time>
      </trkpt>
      <trkpt lat="46.074678925797343" lon="10.490257423371077">
        <ele>2263.0799999999999</ele>
        <time>2018-07-09T12:53:11Z</time>
      </trkpt>
      <trkpt lat="46.074689067900181" lon="10.490270750597119">
        <ele>2263.0799999999999</ele>
        <time>2018-07-09T12:53:13Z</time>
      </trkpt>
      <trkpt lat="46.074723685160279" lon="10.49033579416573">
        <ele>2263.0799999999999</ele>
        <time>2018-07-09T12:53:24Z</time>
      </trkpt>
      <trkpt lat="46.074746903032064" lon="10.490345684811473">
        <ele>2261.6399999999999</ele>
        <time>2018-07-09T12:53:34Z</time>
      </trkpt>
      <trkpt lat="46.074763918295503" lon="10.49036311917007">
        <ele>2260.1999999999998</ele>
        <time>2018-07-09T12:53:46Z</time>
      </trkpt>
      <trkpt lat="46.074779340997338" lon="10.49036119133234">
        <ele>2259.2399999999998</ele>
        <time>2018-07-09T12:53:54Z</time>
      </trkpt>
      <trkpt lat="46.074786884710193" lon="10.49042665399611">
        <ele>2256.8299999999999</ele>
        <time>2018-07-09T12:54:05Z</time>
      </trkpt>
      <trkpt lat="46.074799373745918" lon="10.490358425304294">
        <ele>2255.3899999999999</ele>
        <time>2018-07-09T12:54:17Z</time>
      </trkpt>
      <trkpt lat="46.074804067611694" lon="10.490283071994781">
        <ele>2253.9499999999998</ele>
        <time>2018-07-09T12:54:30Z</time>
      </trkpt>
      <trkpt lat="46.074834242463112" lon="10.490288939327002">
        <ele>2252.0300000000002</ele>
        <time>2018-07-09T12:54:39Z</time>
      </trkpt>
      <trkpt lat="46.074859639629722" lon="10.490340320393443">
        <ele>2250.0999999999999</ele>
        <time>2018-07-09T12:54:49Z</time>
      </trkpt>
      <trkpt lat="46.074870619922876" lon="10.490245521068573">
        <ele>2248.1799999999998</ele>
        <time>2018-07-09T12:55:00Z</time>
      </trkpt>
      <trkpt lat="46.074889814481139" lon="10.490315509960055">
        <ele>2246.2600000000002</ele>
        <time>2018-07-09T12:55:09Z</time>
      </trkpt>
      <trkpt lat="46.074911523610353" lon="10.490398909896612">
        <ele>2243.8499999999999</ele>
        <time>2018-07-09T12:55:20Z</time>
      </trkpt>
      <trkpt lat="46.074934238567948" lon="10.490481555461884">
        <ele>2242.4099999999999</ele>
        <time>2018-07-09T12:55:30Z</time>
      </trkpt>
      <trkpt lat="46.074914708733559" lon="10.490588508546352">
        <ele>2240.0100000000002</ele>
        <time>2018-07-09T12:55:43Z</time>
      </trkpt>
      <trkpt lat="46.074886880815029" lon="10.490646846592426">
        <ele>2239.0500000000002</ele>
        <time>2018-07-09T12:55:52Z</time>
      </trkpt>
      <trkpt lat="46.07487078756094" lon="10.490691522136331">
        <ele>2237.1300000000001</ele>
        <time>2018-07-09T12:56:02Z</time>
      </trkpt>
      <trkpt lat="46.074853269383311" lon="10.490731839090586">
        <ele>2235.6799999999998</ele>
        <time>2018-07-09T12:56:11Z</time>
      </trkpt>
      <trkpt lat="46.074838349595666" lon="10.490783555433154">
        <ele>2233.7600000000002</ele>
        <time>2018-07-09T12:56:22Z</time>
      </trkpt>
      <trkpt lat="46.074825609102845" lon="10.490832673385739">
        <ele>2231.8400000000001</ele>
        <time>2018-07-09T12:56:30Z</time>
      </trkpt>
      <trkpt lat="46.074813706800342" lon="10.490944655612111">
        <ele>2230.4000000000001</ele>
        <time>2018-07-09T12:56:42Z</time>
      </trkpt>
      <trkpt lat="46.074788896366954" lon="10.490976255387068">
        <ele>2229.9200000000001</ele>
        <time>2018-07-09T12:56:52Z</time>
      </trkpt>
      <trkpt lat="46.074757128953934" lon="10.490997964516282">
        <ele>2228.4699999999998</ele>
        <time>2018-07-09T12:57:00Z</time>
      </trkpt>
      <trkpt lat="46.07475159689784" lon="10.491023864597082">
        <ele>2227.5100000000002</ele>
        <time>2018-07-09T12:57:06Z</time>
      </trkpt>
      <trkpt lat="46.074757380411029" lon="10.491053704172373">
        <ele>2226.0700000000002</ele>
        <time>2018-07-09T12:57:15Z</time>
      </trkpt>
      <trkpt lat="46.074753860011697" lon="10.491135846823454">
        <ele>2224.1500000000001</ele>
        <time>2018-07-09T12:57:26Z</time>
      </trkpt>
      <trkpt lat="46.074767438694835" lon="10.491190496832132">
        <ele>2222.2199999999998</ele>
        <time>2018-07-09T12:57:35Z</time>
      </trkpt>
      <trkpt lat="46.074769953265786" lon="10.491209104657173">
        <ele>2221.2600000000002</ele>
        <time>2018-07-09T12:57:43Z</time>
      </trkpt>
      <trkpt lat="46.074781771749258" lon="10.491303149610758">
        <ele>2218.8600000000001</ele>
        <time>2018-07-09T12:57:53Z</time>
      </trkpt>
      <trkpt lat="46.074787303805351" lon="10.491388142108917">
        <ele>2217.4200000000001</ele>
        <time>2018-07-09T12:58:02Z</time>
      </trkpt>
      <trkpt lat="46.074822256341577" lon="10.491465758532286">
        <ele>2215.98</ele>
        <time>2018-07-09T12:58:13Z</time>
      </trkpt>
      <trkpt lat="46.074842875823379" lon="10.491509931162">
        <ele>2215.0100000000002</ele>
        <time>2018-07-09T12:58:23Z</time>
      </trkpt>
      <trkpt lat="46.074859891086817" lon="10.491533568128943">
        <ele>2213.5700000000002</ele>
        <time>2018-07-09T12:58:33Z</time>
      </trkpt>
      <trkpt lat="46.074867015704513" lon="10.491500543430448">
        <ele>2212.1300000000001</ele>
        <time>2018-07-09T12:58:42Z</time>
      </trkpt>
      <trkpt lat="46.074880342930555" lon="10.491599701344967">
        <ele>2210.21</ele>
        <time>2018-07-09T12:58:53Z</time>
      </trkpt>
      <trkpt lat="46.074894675984979" lon="10.491563659161329">
        <ele>2208.77</ele>
        <time>2018-07-09T12:59:03Z</time>
      </trkpt>
      <trkpt lat="46.074918564409018" lon="10.491548404097557">
        <ele>2207.3200000000002</ele>
        <time>2018-07-09T12:59:13Z</time>
      </trkpt>
      <trkpt lat="46.074929628521204" lon="10.491565335541964">
        <ele>2205.8800000000001</ele>
        <time>2018-07-09T12:59:16Z</time>
      </trkpt>
      <trkpt lat="46.074941363185644" lon="10.491589307785034">
        <ele>2204.4400000000001</ele>
        <time>2018-07-09T12:59:19Z</time>
      </trkpt>
      <trkpt lat="46.074965167790651" lon="10.49163700081408">
        <ele>2202.52</ele>
        <time>2018-07-09T12:59:29Z</time>
      </trkpt>
      <trkpt lat="46.074988637119532" lon="10.491631887853146">
        <ele>2200.1100000000001</ele>
        <time>2018-07-09T12:59:38Z</time>
      </trkpt>
      <trkpt lat="46.075010010972619" lon="10.491595007479191">
        <ele>2198.6700000000001</ele>
        <time>2018-07-09T12:59:47Z</time>
      </trkpt>
      <trkpt lat="46.075039599090815" lon="10.491578662768006">
        <ele>2196.75</ele>
        <time>2018-07-09T12:59:56Z</time>
      </trkpt>
      <trkpt lat="46.075073881074786" lon="10.491640521213412">
        <ele>2194.3499999999999</ele>
        <time>2018-07-09T13:00:07Z</time>
      </trkpt>
      <trkpt lat="46.075108163058758" lon="10.491712018847466">
        <ele>2192.4200000000001</ele>
        <time>2018-07-09T13:00:18Z</time>
      </trkpt>
      <trkpt lat="46.075113862752914" lon="10.491696428507566">
        <ele>2191.46</ele>
        <time>2018-07-09T13:00:27Z</time>
      </trkpt>
      <trkpt lat="46.075147641822696" lon="10.491671785712242">
        <ele>2189.54</ele>
        <time>2018-07-09T13:00:38Z</time>
      </trkpt>
      <trkpt lat="46.075173122808337" lon="10.491688130423427">
        <ele>2187.6199999999999</ele>
        <time>2018-07-09T13:00:48Z</time>
      </trkpt>
      <trkpt lat="46.07521872036159" lon="10.49171905964613">
        <ele>2185.6900000000001</ele>
        <time>2018-07-09T13:00:59Z</time>
      </trkpt>
      <trkpt lat="46.075241100043058" lon="10.491782929748297">
        <ele>2184.25</ele>
        <time>2018-07-09T13:01:08Z</time>
      </trkpt>
      <trkpt lat="46.075264988467097" lon="10.491816289722919">
        <ele>2182.8099999999999</ele>
        <time>2018-07-09T13:01:16Z</time>
      </trkpt>
      <trkpt lat="46.075287032872438" lon="10.491812182590365">
        <ele>2180.8899999999999</ele>
        <time>2018-07-09T13:01:25Z</time>
      </trkpt>
      <trkpt lat="46.075292732566595" lon="10.491800028830767">
        <ele>2179.9299999999998</ele>
        <time>2018-07-09T13:01:34Z</time>
      </trkpt>
      <trkpt lat="46.075336150825024" lon="10.491770692169666">
        <ele>2177.04</ele>
        <time>2018-07-09T13:01:45Z</time>
      </trkpt>
      <trkpt lat="46.075365068390965" lon="10.491808410733938">
        <ele>2175.5999999999999</ele>
        <time>2018-07-09T13:01:54Z</time>
      </trkpt>
      <trkpt lat="46.075409995391965" lon="10.491781001910567">
        <ele>2173.1999999999998</ele>
        <time>2018-07-09T13:02:04Z</time>
      </trkpt>
      <trkpt lat="46.075447462499142" lon="10.491761304438114">
        <ele>2170.3099999999999</ele>
        <time>2018-07-09T13:02:14Z</time>
      </trkpt>
      <trkpt lat="46.075481744483113" lon="10.491848224774003">
        <ele>2168.8699999999999</ele>
        <time>2018-07-09T13:02:25Z</time>
      </trkpt>
      <trkpt lat="46.075458778068423" lon="10.491927433758974">
        <ele>2166.9499999999998</ele>
        <time>2018-07-09T13:02:35Z</time>
      </trkpt>
      <trkpt lat="46.075466405600309" lon="10.491961799561977">
        <ele>2165.5100000000002</ele>
        <time>2018-07-09T13:02:39Z</time>
      </trkpt>
      <trkpt lat="46.075460873544216" lon="10.492040673270822">
        <ele>2164.5500000000002</ele>
        <time>2018-07-09T13:02:49Z</time>
      </trkpt>
      <trkpt lat="46.075470764189959" lon="10.492038074880838">
        <ele>2164.0599999999999</ele>
        <time>2018-07-09T13:03:00Z</time>
      </trkpt>
      <trkpt lat="46.075472105294466" lon="10.492050731554627">
        <ele>2163.5799999999999</ele>
        <time>2018-07-09T13:03:14Z</time>
      </trkpt>
      <trkpt lat="46.075478810817003" lon="10.492086438462138">
        <ele>2162.1399999999999</ele>
        <time>2018-07-09T13:03:26Z</time>
      </trkpt>
      <trkpt lat="46.07545081526041" lon="10.492128683254123">
        <ele>2162.1399999999999</ele>
        <time>2018-07-09T13:03:38Z</time>
      </trkpt>
      <trkpt lat="46.075449222698808" lon="10.492157768458128">
        <ele>2161.1799999999998</ele>
        <time>2018-07-09T13:03:49Z</time>
      </trkpt>
      <trkpt lat="46.075469674542546" lon="10.492176292464137">
        <ele>2159.2600000000002</ele>
        <time>2018-07-09T13:04:00Z</time>
      </trkpt>
      <trkpt lat="46.075456263497472" lon="10.492216106504202">
        <ele>2158.7800000000002</ele>
        <time>2018-07-09T13:04:08Z</time>
      </trkpt>
      <trkpt lat="46.075463052839041" lon="10.492236474528909">
        <ele>2155.8899999999999</ele>
        <time>2018-07-09T13:04:18Z</time>
      </trkpt>
      <trkpt lat="46.075466237962246" lon="10.492313085123897">
        <ele>2153.0100000000002</ele>
        <time>2018-07-09T13:04:28Z</time>
      </trkpt>
      <trkpt lat="46.075495071709156" lon="10.492373518645763">
        <ele>2151.5700000000002</ele>
        <time>2018-07-09T13:04:39Z</time>
      </trkpt>
      <trkpt lat="46.075510745868087" lon="10.49244711175561">
        <ele>2149.1599999999999</ele>
        <time>2018-07-09T13:04:49Z</time>
      </trkpt>
      <trkpt lat="46.075509572401643" lon="10.492529422044754">
        <ele>2147.7199999999998</ele>
        <time>2018-07-09T13:05:02Z</time>
      </trkpt>
      <trkpt lat="46.075493143871427" lon="10.492585580796003">
        <ele>2145.8000000000002</ele>
        <time>2018-07-09T13:05:13Z</time>
      </trkpt>
      <trkpt lat="46.075495239347219" lon="10.492598488926888">
        <ele>2145.3200000000002</ele>
        <time>2018-07-09T13:05:15Z</time>
      </trkpt>
      <trkpt lat="46.075482750311494" lon="10.492674680426717">
        <ele>2144.3600000000001</ele>
        <time>2018-07-09T13:05:26Z</time>
      </trkpt>
      <trkpt lat="46.075498256832361" lon="10.492714243009686">
        <ele>2143.4000000000001</ele>
        <time>2018-07-09T13:05:35Z</time>
      </trkpt>
      <trkpt lat="46.075530108064413" lon="10.492754727602005">
        <ele>2141.4699999999998</ele>
        <time>2018-07-09T13:05:42Z</time>
      </trkpt>
      <trkpt lat="46.075568413361907" lon="10.492805605754256">
        <ele>2140.0300000000002</ele>
        <time>2018-07-09T13:05:52Z</time>
      </trkpt>
      <trkpt lat="46.075621219351888" lon="10.492900991812348">
        <ele>2138.1100000000001</ele>
        <time>2018-07-09T13:06:04Z</time>
      </trkpt>
      <trkpt lat="46.075643850490451" lon="10.492982966825366">
        <ele>2136.6700000000001</ele>
        <time>2018-07-09T13:06:14Z</time>
      </trkpt>
      <trkpt lat="46.075682491064072" lon="10.492978608235717">
        <ele>2135.23</ele>
        <time>2018-07-09T13:06:23Z</time>
      </trkpt>
      <trkpt lat="46.075741583481431" lon="10.492958575487137">
        <ele>2132.8200000000002</ele>
        <time>2018-07-09T13:06:33Z</time>
      </trkpt>
      <trkpt lat="46.075761364772916" lon="10.492991348728538">
        <ele>2131.3800000000001</ele>
        <time>2018-07-09T13:06:36Z</time>
      </trkpt>
      <trkpt lat="46.075800089165568" lon="10.493041221052408">
        <ele>2130.4200000000001</ele>
        <time>2018-07-09T13:06:47Z</time>
      </trkpt>
      <trkpt lat="46.075838143005967" lon="10.493045663461089">
        <ele>2128.02</ele>
        <time>2018-07-09T13:06:57Z</time>
      </trkpt>
      <trkpt lat="46.075872592628002" lon="10.493024624884129">
        <ele>2126.5700000000002</ele>
        <time>2018-07-09T13:07:06Z</time>
      </trkpt>
      <trkpt lat="46.07591399922967" lon="10.49300760962069">
        <ele>2124.1700000000001</ele>
        <time>2018-07-09T13:07:17Z</time>
      </trkpt>
      <trkpt lat="46.075939396396279" lon="10.493002245202661">
        <ele>2121.77</ele>
        <time>2018-07-09T13:07:23Z</time>
      </trkpt>
      <trkpt lat="46.075992034748197" lon="10.4930554702878">
        <ele>2119.3600000000001</ele>
        <time>2018-07-09T13:07:33Z</time>
      </trkpt>
      <trkpt lat="46.076045176014304" lon="10.493113556876779">
        <ele>2117.9200000000001</ele>
        <time>2018-07-09T13:07:44Z</time>
      </trkpt>
      <trkpt lat="46.07608113437891" lon="10.493189245462418">
        <ele>2115.52</ele>
        <time>2018-07-09T13:07:55Z</time>
      </trkpt>
      <trkpt lat="46.076129665598273" lon="10.493183126673102">
        <ele>2113.1199999999999</ele>
        <time>2018-07-09T13:08:06Z</time>
      </trkpt>
      <trkpt lat="46.076188087463379" lon="10.493261078372598">
        <ele>2110.71</ele>
        <time>2018-07-09T13:08:18Z</time>
      </trkpt>
      <trkpt lat="46.076236115768552" lon="10.493285050615668">
        <ele>2108.79</ele>
        <time>2018-07-09T13:08:29Z</time>
      </trkpt>
      <trkpt lat="46.076255477964878" lon="10.493297204375267">
        <ele>2107.8299999999999</ele>
        <time>2018-07-09T13:08:39Z</time>
      </trkpt>
      <trkpt lat="46.076280120760202" lon="10.493318997323513">
        <ele>2106.3899999999999</ele>
        <time>2018-07-09T13:08:50Z</time>
      </trkpt>
      <trkpt lat="46.076317084953189" lon="10.493317488580942">
        <ele>2104.46</ele>
        <time>2018-07-09T13:09:00Z</time>
      </trkpt>
      <trkpt lat="46.076362263411283" lon="10.493333749473095">
        <ele>2102.0599999999999</ele>
        <time>2018-07-09T13:09:10Z</time>
      </trkpt>
      <trkpt lat="46.076406519860029" lon="10.493342550471425">
        <ele>2100.6199999999999</ele>
        <time>2018-07-09T13:09:20Z</time>
      </trkpt>
      <trkpt lat="46.076431246474385" lon="10.493409354239702">
        <ele>2097.73</ele>
        <time>2018-07-09T13:09:31Z</time>
      </trkpt>
      <trkpt lat="46.076465947553515" lon="10.493423519656062">
        <ele>2096.29</ele>
        <time>2018-07-09T13:09:40Z</time>
      </trkpt>
      <trkpt lat="46.076504420489073" lon="10.493398457765579">
        <ele>2094.3699999999999</ele>
        <time>2018-07-09T13:09:50Z</time>
      </trkpt>
      <trkpt lat="46.076502576470375" lon="10.493406839668751">
        <ele>2093.4099999999999</ele>
        <time>2018-07-09T13:10:01Z</time>
      </trkpt>
      <trkpt lat="46.07649302110076" lon="10.493393260985613">
        <ele>2093.4099999999999</ele>
        <time>2018-07-09T13:10:17Z</time>
      </trkpt>
      <trkpt lat="46.076489416882396" lon="10.493395188823342">
        <ele>2093.4099999999999</ele>
        <time>2018-07-09T13:10:39Z</time>
      </trkpt>
      <trkpt lat="46.076491512358189" lon="10.493411030620337">
        <ele>2093.8899999999999</ele>
        <time>2018-07-09T13:10:49Z</time>
      </trkpt>
      <trkpt lat="46.076520346105099" lon="10.493476074188948">
        <ele>2092.4499999999998</ele>
        <time>2018-07-09T13:11:00Z</time>
      </trkpt>
      <trkpt lat="46.076547335833311" lon="10.493517061695457">
        <ele>2090.04</ele>
        <time>2018-07-09T13:11:12Z</time>
      </trkpt>
      <trkpt lat="46.076601482927799" lon="10.493540447205305">
        <ele>2087.1599999999999</ele>
        <time>2018-07-09T13:11:23Z</time>
      </trkpt>
      <trkpt lat="46.076582875102758" lon="10.493619656190276">
        <ele>2085.2399999999998</ele>
        <time>2018-07-09T13:11:33Z</time>
      </trkpt>
      <trkpt lat="46.076619504019618" lon="10.493659051135182">
        <ele>2082.3499999999999</ele>
        <time>2018-07-09T13:11:45Z</time>
      </trkpt>
      <trkpt lat="46.076611205935478" lon="10.493720825761557">
        <ele>2080.4299999999998</ele>
        <time>2018-07-09T13:11:56Z</time>
      </trkpt>
      <trkpt lat="46.07665722258389" lon="10.493743708357215">
        <ele>2077.5500000000002</ele>
        <time>2018-07-09T13:12:06Z</time>
      </trkpt>
      <trkpt lat="46.076698964461684" lon="10.493766255676746">
        <ele>2075.6199999999999</ele>
        <time>2018-07-09T13:12:18Z</time>
      </trkpt>
      <trkpt lat="46.076750261709094" lon="10.493779499083757">
        <ele>2072.7399999999998</ele>
        <time>2018-07-09T13:12:28Z</time>
      </trkpt>
      <trkpt lat="46.076768198981881" lon="10.493830544874072">
        <ele>2070.8200000000002</ele>
        <time>2018-07-09T13:12:39Z</time>
      </trkpt>
      <trkpt lat="46.076796110719442" lon="10.493840435519814">
        <ele>2068.8899999999999</ele>
        <time>2018-07-09T13:12:48Z</time>
      </trkpt>
      <trkpt lat="46.076821507886052" lon="10.493865665048361">
        <ele>2067.4499999999998</ele>
        <time>2018-07-09T13:12:59Z</time>
      </trkpt>
      <trkpt lat="46.076851515099406" lon="10.493911933153868">
        <ele>2065.0500000000002</ele>
        <time>2018-07-09T13:13:09Z</time>
      </trkpt>
      <trkpt lat="46.07688445597887" lon="10.493917632848024">
        <ele>2062.6500000000001</ele>
        <time>2018-07-09T13:13:20Z</time>
      </trkpt>
      <trkpt lat="46.076921420171857" lon="10.493921237066388">
        <ele>2060.7199999999998</ele>
        <time>2018-07-09T13:13:32Z</time>
      </trkpt>
      <trkpt lat="46.076946146786213" lon="10.493980832397938">
        <ele>2058.8000000000002</ele>
        <time>2018-07-09T13:13:44Z</time>
      </trkpt>
      <trkpt lat="46.076970202848315" lon="10.493970606476068">
        <ele>2056.8800000000001</ele>
        <time>2018-07-09T13:13:56Z</time>
      </trkpt>
      <trkpt lat="46.076998198404908" lon="10.493967924267054">
        <ele>2054.96</ele>
        <time>2018-07-09T13:14:07Z</time>
      </trkpt>
      <trkpt lat="46.077027199789882" lon="10.493984017521143">
        <ele>2053.5100000000002</ele>
        <time>2018-07-09T13:14:20Z</time>
      </trkpt>
      <trkpt lat="46.077048154547811" lon="10.493988627567887">
        <ele>2051.5900000000001</ele>
        <time>2018-07-09T13:14:31Z</time>
      </trkpt>
      <trkpt lat="46.077068103477359" lon="10.493989549577236">
        <ele>2050.6300000000001</ele>
        <time>2018-07-09T13:14:46Z</time>
      </trkpt>
      <trkpt lat="46.077089142054319" lon="10.494030117988586">
        <ele>2049.1900000000001</ele>
        <time>2018-07-09T13:14:56Z</time>
      </trkpt>
      <trkpt lat="46.077119149267673" lon="10.494002709165215">
        <ele>2047.75</ele>
        <time>2018-07-09T13:15:05Z</time>
      </trkpt>
      <trkpt lat="46.077118897810578" lon="10.493973791599274">
        <ele>2047.26</ele>
        <time>2018-07-09T13:15:16Z</time>
      </trkpt>
      <trkpt lat="46.07712434604764" lon="10.493987202644348">
        <ele>2046.78</ele>
        <time>2018-07-09T13:15:31Z</time>
      </trkpt>
      <trkpt lat="46.077125854790211" lon="10.49396138638258">
        <ele>2046.3</ele>
        <time>2018-07-09T13:15:43Z</time>
      </trkpt>
      <trkpt lat="46.077125016599894" lon="10.493955770507455">
        <ele>2046.3</ele>
        <time>2018-07-09T13:15:59Z</time>
      </trkpt>
      <trkpt lat="46.077137170359492" lon="10.493947556242347">
        <ele>2045.8199999999999</ele>
        <time>2018-07-09T13:16:11Z</time>
      </trkpt>
      <trkpt lat="46.077151084318757" lon="10.493957111611962">
        <ele>2045.3399999999999</ele>
        <time>2018-07-09T13:16:27Z</time>
      </trkpt>
      <trkpt lat="46.077152257785201" lon="10.493956943973899">
        <ele>2044.3800000000001</ele>
        <time>2018-07-09T13:16:43Z</time>
      </trkpt>
      <trkpt lat="46.077169189229608" lon="10.493947640061378">
        <ele>2043.4200000000001</ele>
        <time>2018-07-09T13:16:55Z</time>
      </trkpt>
      <trkpt lat="46.07717857696116" lon="10.493944622576237">
        <ele>2042.46</ele>
        <time>2018-07-09T13:17:10Z</time>
      </trkpt>
      <trkpt lat="46.077183522284031" lon="10.49395895563066">
        <ele>2041.02</ele>
        <time>2018-07-09T13:17:22Z</time>
      </trkpt>
      <trkpt lat="46.077211266383529" lon="10.493953842669725">
        <ele>2039.5699999999999</ele>
        <time>2018-07-09T13:17:34Z</time>
      </trkpt>
      <trkpt lat="46.077238842844963" lon="10.493940431624651">
        <ele>2037.6500000000001</ele>
        <time>2018-07-09T13:17:46Z</time>
      </trkpt>
      <trkpt lat="46.077257534489036" lon="10.49392961896956">
        <ele>2035.73</ele>
        <time>2018-07-09T13:17:58Z</time>
      </trkpt>
      <trkpt lat="46.077270274981856" lon="10.493926852941513">
        <ele>2035.73</ele>
        <time>2018-07-09T13:18:07Z</time>
      </trkpt>
      <trkpt lat="46.077290140092373" lon="10.493969852104783">
        <ele>2033.8099999999999</ele>
        <time>2018-07-09T13:18:15Z</time>
      </trkpt>
      <trkpt lat="46.077317129820585" lon="10.494030034169555">
        <ele>2031.4000000000001</ele>
        <time>2018-07-09T13:18:27Z</time>
      </trkpt>
      <trkpt lat="46.077294833958149" lon="10.494139418005943">
        <ele>2029.96</ele>
        <time>2018-07-09T13:18:38Z</time>
      </trkpt>
      <trkpt lat="46.077280668541789" lon="10.4941969178617">
        <ele>2028.52</ele>
        <time>2018-07-09T13:18:49Z</time>
      </trkpt>
      <trkpt lat="46.077272538095713" lon="10.49420814961195">
        <ele>2028.52</ele>
        <time>2018-07-09T13:18:50Z</time>
      </trkpt>
      <trkpt lat="46.077232975512743" lon="10.494230864569545">
        <ele>2028.52</ele>
        <time>2018-07-09T13:19:00Z</time>
      </trkpt>
      <trkpt lat="46.077236495912075" lon="10.494196498766541">
        <ele>2027.0799999999999</ele>
        <time>2018-07-09T13:19:11Z</time>
      </trkpt>
      <trkpt lat="46.07724504545331" lon="10.494202869012952">
        <ele>2027.5599999999999</ele>
        <time>2018-07-09T13:19:27Z</time>
      </trkpt>
      <trkpt lat="46.077236328274012" lon="10.494208736345172">
        <ele>2027.0799999999999</ele>
        <time>2018-07-09T13:19:49Z</time>
      </trkpt>
      <trkpt lat="46.077232640236616" lon="10.494208317250013">
        <ele>2027.5599999999999</ele>
        <time>2018-07-09T13:20:05Z</time>
      </trkpt>
      <trkpt lat="46.077221659943461" lon="10.494226673617959">
        <ele>2027.5599999999999</ele>
        <time>2018-07-09T13:20:14Z</time>
      </trkpt>
      <trkpt lat="46.077236915007234" lon="10.494252154603601">
        <ele>2027.5599999999999</ele>
        <time>2018-07-09T13:20:28Z</time>
      </trkpt>
      <trkpt lat="46.07723331078887" lon="10.494289454072714">
        <ele>2028.52</ele>
        <time>2018-07-09T13:20:38Z</time>
      </trkpt>
      <trkpt lat="46.077235825359821" lon="10.494299177080393">
        <ele>2028.04</ele>
        <time>2018-07-09T13:20:44Z</time>
      </trkpt>
      <trkpt lat="46.077233646064997" lon="10.494336057454348">
        <ele>2027.5599999999999</ele>
        <time>2018-07-09T13:20:54Z</time>
      </trkpt>
      <trkpt lat="46.077274885028601" lon="10.494351899251342">
        <ele>2024.6700000000001</ele>
        <time>2018-07-09T13:21:04Z</time>
      </trkpt>
      <trkpt lat="46.077331630513072" lon="10.49437721259892">
        <ele>2023.71</ele>
        <time>2018-07-09T13:21:15Z</time>
      </trkpt>
      <trkpt lat="46.077358284965158" lon="10.494403531774879">
        <ele>2021.3099999999999</ele>
        <time>2018-07-09T13:21:24Z</time>
      </trkpt>
      <trkpt lat="46.077409330755472" lon="10.494425240904093">
        <ele>2019.8699999999999</ele>
        <time>2018-07-09T13:21:32Z</time>
      </trkpt>
      <trkpt lat="46.077489797025919" lon="10.494498582556844">
        <ele>2019.3900000000001</ele>
        <time>2018-07-09T13:21:43Z</time>
      </trkpt>
      <trkpt lat="46.077544279396534" lon="10.49452724866569">
        <ele>2017.9400000000001</ele>
        <time>2018-07-09T13:21:53Z</time>
      </trkpt>
      <trkpt lat="46.077553331851959" lon="10.494523979723454">
        <ele>2017.46</ele>
        <time>2018-07-09T13:21:54Z</time>
      </trkpt>
      <trkpt lat="46.077629774808884" lon="10.494583826512098">
        <ele>2017.46</ele>
        <time>2018-07-09T13:22:06Z</time>
      </trkpt>
      <trkpt lat="46.077692890539765" lon="10.49459220841527">
        <ele>2016.98</ele>
        <time>2018-07-09T13:22:15Z</time>
      </trkpt>
      <trkpt lat="46.077730441465974" lon="10.494602266699076">
        <ele>2017.46</ele>
        <time>2018-07-09T13:22:20Z</time>
      </trkpt>
      <trkpt lat="46.077821301296353" lon="10.494700418785214">
        <ele>2016.98</ele>
        <time>2018-07-09T13:22:31Z</time>
      </trkpt>
      <trkpt lat="46.077903946861625" lon="10.494813742116094">
        <ele>2016.98</ele>
        <time>2018-07-09T13:22:42Z</time>
      </trkpt>
      <trkpt lat="46.077980976551771" lon="10.49491323530674">
        <ele>2017.46</ele>
        <time>2018-07-09T13:22:53Z</time>
      </trkpt>
      <trkpt lat="46.07808206230402" lon="10.495042484253645">
        <ele>2017.46</ele>
        <time>2018-07-09T13:23:05Z</time>
      </trkpt>
      <trkpt lat="46.078165881335735" lon="10.495184473693371">
        <ele>2017.46</ele>
        <time>2018-07-09T13:23:17Z</time>
      </trkpt>
      <trkpt lat="46.078216508030891" lon="10.495332246646285">
        <ele>2016.98</ele>
        <time>2018-07-09T13:23:28Z</time>
      </trkpt>
      <trkpt lat="46.07819102704525" lon="10.495485719293356">
        <ele>2017.46</ele>
        <time>2018-07-09T13:23:38Z</time>
      </trkpt>
      <trkpt lat="46.078189183026552" lon="10.495595606043935">
        <ele>2016.98</ele>
        <time>2018-07-09T13:23:46Z</time>
      </trkpt>
      <trkpt lat="46.078189602121711" lon="10.495620416477323">
        <ele>2017.46</ele>
        <time>2018-07-09T13:23:48Z</time>
      </trkpt>
      <trkpt lat="46.078164121136069" lon="10.495748994871974">
        <ele>2016.98</ele>
        <time>2018-07-09T13:23:59Z</time>
      </trkpt>
      <trkpt lat="46.078140400350094" lon="10.495830718427896">
        <ele>2017.9400000000001</ele>
        <time>2018-07-09T13:24:11Z</time>
      </trkpt>
      <trkpt lat="46.078149620443583" lon="10.495854523032904">
        <ele>2017.46</ele>
        <time>2018-07-09T13:24:22Z</time>
      </trkpt>
      <trkpt lat="46.078171748667955" lon="10.495856702327728">
        <ele>2016.98</ele>
        <time>2018-07-09T13:24:34Z</time>
      </trkpt>
      <trkpt lat="46.078161858022213" lon="10.495846141129732">
        <ele>2016.5</ele>
        <time>2018-07-09T13:24:44Z</time>
      </trkpt>
      <trkpt lat="46.078162528574467" lon="10.495824599638581">
        <ele>2016.5</ele>
        <time>2018-07-09T13:24:56Z</time>
      </trkpt>
      <trkpt lat="46.07819739729166" lon="10.495811020955443">
        <ele>2016.5</ele>
        <time>2018-07-09T13:25:04Z</time>
      </trkpt>
      <trkpt lat="46.078309966251254" lon="10.495920488610864">
        <ele>2016.98</ele>
        <time>2018-07-09T13:25:15Z</time>
      </trkpt>
      <trkpt lat="46.078366879373789" lon="10.496029453352094">
        <ele>2016.98</ele>
        <time>2018-07-09T13:25:24Z</time>
      </trkpt>
      <trkpt lat="46.078440388664603" lon="10.49614604562521">
        <ele>2016.98</ele>
        <time>2018-07-09T13:25:36Z</time>
      </trkpt>
      <trkpt lat="46.078533260151744" lon="10.496273702010512">
        <ele>2016.98</ele>
        <time>2018-07-09T13:25:48Z</time>
      </trkpt>
      <trkpt lat="46.078587491065264" lon="10.496416026726365">
        <ele>2016.5</ele>
        <time>2018-07-09T13:25:59Z</time>
      </trkpt>
      <trkpt lat="46.078607523813844" lon="10.496469335630536">
        <ele>2016.98</ele>
        <time>2018-07-09T13:26:04Z</time>
      </trkpt>
      <trkpt lat="46.078714728355408" lon="10.496614342555404">
        <ele>2016.98</ele>
        <time>2018-07-09T13:26:18Z</time>
      </trkpt>
      <trkpt lat="46.078768288716674" lon="10.496729174628854">
        <ele>2016.98</ele>
        <time>2018-07-09T13:26:28Z</time>
      </trkpt>
      <trkpt lat="46.078812209889293" lon="10.49689220264554">
        <ele>2016.98</ele>
        <time>2018-07-09T13:26:39Z</time>
      </trkpt>
      <trkpt lat="46.078838193789124" lon="10.497065791860223">
        <ele>2016.98</ele>
        <time>2018-07-09T13:26:51Z</time>
      </trkpt>
      <trkpt lat="46.078879684209824" lon="10.497181629762053">
        <ele>2016.98</ele>
        <time>2018-07-09T13:27:02Z</time>
      </trkpt>
      <trkpt lat="46.078888233751059" lon="10.497214319184422">
        <ele>2016.98</ele>
        <time>2018-07-09T13:27:10Z</time>
      </trkpt>
      <trkpt lat="46.078904243186116" lon="10.49724449403584">
        <ele>2016.5</ele>
        <time>2018-07-09T13:27:13Z</time>
      </trkpt>
      <trkpt lat="46.078943973407149" lon="10.497337616980076">
        <ele>2016.98</ele>
        <time>2018-07-09T13:27:21Z</time>
      </trkpt>
      <trkpt lat="46.078971298411489" lon="10.497450269758701">
        <ele>2016.98</ele>
        <time>2018-07-09T13:27:33Z</time>
      </trkpt>
      <trkpt lat="46.078975908458233" lon="10.497466865926981">
        <ele>2016.5</ele>
        <time>2018-07-09T13:27:35Z</time>
      </trkpt>
      <trkpt lat="46.07897917740047" lon="10.497499639168382">
        <ele>2015.54</ele>
        <time>2018-07-09T13:27:38Z</time>
      </trkpt>
      <trkpt lat="46.07897037640214" lon="10.497613381594419">
        <ele>2013.6199999999999</ele>
        <time>2018-07-09T13:27:49Z</time>
      </trkpt>
      <trkpt lat="46.078972974792123" lon="10.497666271403432">
        <ele>2012.6600000000001</ele>
        <time>2018-07-09T13:27:58Z</time>
      </trkpt>
      <trkpt lat="46.078964928165078" lon="10.497711533680558">
        <ele>2011.7</ele>
        <time>2018-07-09T13:28:11Z</time>
      </trkpt>
      <trkpt lat="46.07894791290164" lon="10.497738271951675">
        <ele>2011.22</ele>
        <time>2018-07-09T13:28:23Z</time>
      </trkpt>
      <trkpt lat="46.078944811597466" lon="10.497724106535316">
        <ele>2011.22</ele>
        <time>2018-07-09T13:28:35Z</time>
      </trkpt>
      <trkpt lat="46.078936764970422" lon="10.497720250859857">
        <ele>2011.22</ele>
        <time>2018-07-09T13:28:51Z</time>
      </trkpt>
      <trkpt lat="46.078904746100307" lon="10.497770290821791">
        <ele>2010.25</ele>
        <time>2018-07-09T13:29:08Z</time>
      </trkpt>
      <trkpt lat="46.078870464116335" lon="10.497883697971702">
        <ele>2008.8099999999999</ele>
        <time>2018-07-09T13:29:21Z</time>
      </trkpt>
      <trkpt lat="46.07885898090899" lon="10.497972462326288">
        <ele>2008.3299999999999</ele>
        <time>2018-07-09T13:29:32Z</time>
      </trkpt>
      <trkpt lat="46.078847330063581" lon="10.498003391548991">
        <ele>2008.8099999999999</ele>
        <time>2018-07-09T13:29:46Z</time>
      </trkpt>
      <trkpt lat="46.078838696703315" lon="10.498097352683544">
        <ele>2008.8099999999999</ele>
        <time>2018-07-09T13:29:59Z</time>
      </trkpt>
      <trkpt lat="46.078836433589458" lon="10.498097687959671">
        <ele>2008.8099999999999</ele>
        <time>2018-07-09T13:30:00Z</time>
      </trkpt>
      <trkpt lat="46.078809276223183" lon="10.498154684901237">
        <ele>2010.25</ele>
        <time>2018-07-09T13:30:10Z</time>
      </trkpt>
      <trkpt lat="46.078824447467923" lon="10.49817287363112">
        <ele>2011.22</ele>
        <time>2018-07-09T13:30:21Z</time>
      </trkpt>
      <trkpt lat="46.078808521851897" lon="10.498183351010084">
        <ele>2011.22</ele>
        <time>2018-07-09T13:30:34Z</time>
      </trkpt>
      <trkpt lat="46.078790919855237" lon="10.498148733749986">
        <ele>2011.22</ele>
        <time>2018-07-09T13:30:50Z</time>
      </trkpt>
      <trkpt lat="46.078795194625854" lon="10.49815870821476">
        <ele>2010.73</ele>
        <time>2018-07-09T13:31:00Z</time>
      </trkpt>
      <trkpt lat="46.078785806894302" lon="10.498151667416096">
        <ele>2010.73</ele>
        <time>2018-07-09T13:31:17Z</time>
      </trkpt>
      <trkpt lat="46.078809276223183" lon="10.498168598860502">
        <ele>2010.73</ele>
        <time>2018-07-09T13:31:33Z</time>
      </trkpt>
      <trkpt lat="46.078813467174768" lon="10.498162731528282">
        <ele>2010.73</ele>
        <time>2018-07-09T13:31:56Z</time>
      </trkpt>
      <trkpt lat="46.078823944553733" lon="10.498193744570017">
        <ele>2009.77</ele>
        <time>2018-07-09T13:32:09Z</time>
      </trkpt>
      <trkpt lat="46.078810784965754" lon="10.498171700164676">
        <ele>2009.77</ele>
        <time>2018-07-09T13:32:25Z</time>
      </trkpt>
      <trkpt lat="46.078811623156071" lon="10.498169269412756">
        <ele>2009.77</ele>
        <time>2018-07-09T13:32:40Z</time>
      </trkpt>
      <trkpt lat="46.07884774915874" lon="10.49822274595499">
        <ele>2009.77</ele>
        <time>2018-07-09T13:33:01Z</time>
      </trkpt>
      <trkpt lat="46.07881941832602" lon="10.498215118423104">
        <ele>2009.29</ele>
        <time>2018-07-09T13:33:14Z</time>
      </trkpt>
      <trkpt lat="46.078804163262248" lon="10.498160216957331">
        <ele>2009.29</ele>
        <time>2018-07-09T13:33:29Z</time>
      </trkpt>
      <trkpt lat="46.078807013109326" lon="10.498150493949652">
        <ele>2009.77</ele>
        <time>2018-07-09T13:33:46Z</time>
      </trkpt>
      <trkpt lat="46.078816903755069" lon="10.498178489506245">
        <ele>2009.77</ele>
        <time>2018-07-09T13:34:01Z</time>
      </trkpt>
      <trkpt lat="46.078811874613166" lon="10.49819391220808">
        <ele>2009.29</ele>
        <time>2018-07-09T13:34:19Z</time>
      </trkpt>
      <trkpt lat="46.078823106363416" lon="10.498168682679534">
        <ele>2009.77</ele>
        <time>2018-07-09T13:34:30Z</time>
      </trkpt>
      <trkpt lat="46.078815311193466" lon="10.498128617182374">
        <ele>2009.77</ele>
        <time>2018-07-09T13:34:44Z</time>
      </trkpt>
      <trkpt lat="46.07883308082819" lon="10.498131969943643">
        <ele>2009.77</ele>
        <time>2018-07-09T13:34:59Z</time>
      </trkpt>
      <trkpt lat="46.078815897926688" lon="10.498180752620101">
        <ele>2009.29</ele>
        <time>2018-07-09T13:35:12Z</time>
      </trkpt>
      <trkpt lat="46.07883358374238" lon="10.498212436214089">
        <ele>2007.8499999999999</ele>
        <time>2018-07-09T13:35:26Z</time>
      </trkpt>
      <trkpt lat="46.078838277608156" lon="10.498238923028111">
        <ele>2007.8499999999999</ele>
        <time>2018-07-09T13:35:43Z</time>
      </trkpt>
      <trkpt lat="46.07886241748929" lon="10.49819391220808">
        <ele>2006.8900000000001</ele>
        <time>2018-07-09T13:35:55Z</time>
      </trkpt>
      <trkpt lat="46.078886222094297" lon="10.498122917488217">
        <ele>2006.4100000000001</ele>
        <time>2018-07-09T13:36:03Z</time>
      </trkpt>
      <trkpt lat="46.078891335055232" lon="10.498147727921605">
        <ele>2007.3699999999999</ele>
        <time>2018-07-09T13:36:14Z</time>
      </trkpt>
      <trkpt lat="46.078919665887952" lon="10.498118726536632">
        <ele>2007.8499999999999</ele>
        <time>2018-07-09T13:36:24Z</time>
      </trkpt>
      <trkpt lat="46.07898605056107" lon="10.498030548915267">
        <ele>2006.8900000000001</ele>
        <time>2018-07-09T13:36:34Z</time>
      </trkpt>
      <trkpt lat="46.079011699184775" lon="10.49802727997303">
        <ele>2005.9300000000001</ele>
        <time>2018-07-09T13:36:43Z</time>
      </trkpt>
      <trkpt lat="46.079078502953053" lon="10.497992914170027">
        <ele>2004.97</ele>
        <time>2018-07-09T13:36:57Z</time>
      </trkpt>
      <trkpt lat="46.079125190153718" lon="10.49797254614532">
        <ele>2002.5599999999999</ele>
        <time>2018-07-09T13:37:06Z</time>
      </trkpt>
      <trkpt lat="46.079124687239528" lon="10.497985873371363">
        <ele>2002.5599999999999</ele>
        <time>2018-07-09T13:37:07Z</time>
      </trkpt>
      <trkpt lat="46.079152934253216" lon="10.498172035440803">
        <ele>2003.04</ele>
        <time>2018-07-09T13:37:19Z</time>
      </trkpt>
      <trkpt lat="46.079181097447872" lon="10.498259542509913">
        <ele>2001.1199999999999</ele>
        <time>2018-07-09T13:37:32Z</time>
      </trkpt>
      <trkpt lat="46.079194340854883" lon="10.498232720419765">
        <ele>2000.6400000000001</ele>
        <time>2018-07-09T13:37:43Z</time>
      </trkpt>
      <trkpt lat="46.07921957038343" lon="10.49816264770925">
        <ele>2001.5999999999999</ele>
        <time>2018-07-09T13:37:54Z</time>
      </trkpt>
      <trkpt lat="46.079240860417485" lon="10.49811277538538">
        <ele>2002.0799999999999</ele>
        <time>2018-07-09T13:38:01Z</time>
      </trkpt>
      <trkpt lat="46.079280758276582" lon="10.498035326600075">
        <ele>2001.5999999999999</ele>
        <time>2018-07-09T13:38:13Z</time>
      </trkpt>
      <trkpt lat="46.079307748004794" lon="10.497999871149659">
        <ele>2000.6400000000001</ele>
        <time>2018-07-09T13:38:21Z</time>
      </trkpt>
      <trkpt lat="46.079347478225827" lon="10.497948573902249">
        <ele>1998.24</ele>
        <time>2018-07-09T13:38:29Z</time>
      </trkpt>
      <trkpt lat="46.079378323629498" lon="10.497910100966692">
        <ele>1996.8</ele>
        <time>2018-07-09T13:38:38Z</time>
      </trkpt>
      <trkpt lat="46.079370360821486" lon="10.497914459556341">
        <ele>1996.8</ele>
        <time>2018-07-09T13:38:47Z</time>
      </trkpt>
      <trkpt lat="46.079367343336344" lon="10.497958213090897">
        <ele>1996.8</ele>
        <time>2018-07-09T13:39:03Z</time>
      </trkpt>
      <trkpt lat="46.0793661698699" lon="10.497983526438475">
        <ele>1997.28</ele>
        <time>2018-07-09T13:39:14Z</time>
      </trkpt>
      <trkpt lat="46.079353261739016" lon="10.497988974675536">
        <ele>1997.28</ele>
        <time>2018-07-09T13:39:27Z</time>
      </trkpt>
      <trkpt lat="46.079363068565726" lon="10.497936587780714">
        <ele>1996.8</ele>
        <time>2018-07-09T13:39:37Z</time>
      </trkpt>
      <trkpt lat="46.079447641968727" lon="10.497817397117615">
        <ele>1994.8699999999999</ele>
        <time>2018-07-09T13:39:49Z</time>
      </trkpt>
      <trkpt lat="46.079520313069224" lon="10.497801387682557">
        <ele>1995.3499999999999</ele>
        <time>2018-07-09T13:39:59Z</time>
      </trkpt>
      <trkpt lat="46.079562390223145" lon="10.497729806229472">
        <ele>1995.8299999999999</ele>
        <time>2018-07-09T13:40:09Z</time>
      </trkpt>
      <trkpt lat="46.079566916450858" lon="10.497724022716284">
        <ele>1995.8299999999999</ele>
        <time>2018-07-09T13:40:10Z</time>
      </trkpt>
      <trkpt lat="46.079646293073893" lon="10.497676413506269">
        <ele>1995.3499999999999</ele>
        <time>2018-07-09T13:40:19Z</time>
      </trkpt>
      <trkpt lat="46.07965593226254" lon="10.497665349394083">
        <ele>1994.8699999999999</ele>
        <time>2018-07-09T13:40:20Z</time>
      </trkpt>
      <trkpt lat="46.079703709110618" lon="10.497622350230813">
        <ele>1995.3499999999999</ele>
        <time>2018-07-09T13:40:31Z</time>
      </trkpt>
      <trkpt lat="46.079711923375726" lon="10.497619584202766">
        <ele>1996.8</ele>
        <time>2018-07-09T13:40:41Z</time>
      </trkpt>
      <trkpt lat="46.07973312959075" lon="10.497597120702267">
        <ele>1998.24</ele>
        <time>2018-07-09T13:40:51Z</time>
      </trkpt>
      <trkpt lat="46.079749558120966" lon="10.497558731585741">
        <ele>1999.6800000000001</ele>
        <time>2018-07-09T13:41:00Z</time>
      </trkpt>
      <trkpt lat="46.079771937802434" lon="10.497492766007781">
        <ele>2000.1600000000001</ele>
        <time>2018-07-09T13:41:11Z</time>
      </trkpt>
      <trkpt lat="46.079810578376055" lon="10.497429901733994">
        <ele>2001.5999999999999</ele>
        <time>2018-07-09T13:41:21Z</time>
      </trkpt>
      <trkpt lat="46.079902024939656" lon="10.497490670531988">
        <ele>2002.5599999999999</ele>
        <time>2018-07-09T13:41:33Z</time>
      </trkpt>
      <trkpt lat="46.079909820109606" lon="10.497510619461536">
        <ele>2004.01</ele>
        <time>2018-07-09T13:41:42Z</time>
      </trkpt>
      <trkpt lat="46.079939492046833" lon="10.497500980272889">
        <ele>2005.45</ele>
        <time>2018-07-09T13:41:52Z</time>
      </trkpt>
      <trkpt lat="46.079926583915949" lon="10.497563844546676">
        <ele>2006.4100000000001</ele>
        <time>2018-07-09T13:42:02Z</time>
      </trkpt>
      <trkpt lat="46.079941336065531" lon="10.497566359117627">
        <ele>2007.8499999999999</ele>
        <time>2018-07-09T13:42:11Z</time>
      </trkpt>
      <trkpt lat="46.079971678555012" lon="10.497586224228144">
        <ele>2009.29</ele>
        <time>2018-07-09T13:42:20Z</time>
      </trkpt>
      <trkpt lat="46.079953573644161" lon="10.497627379372716">
        <ele>2009.77</ele>
        <time>2018-07-09T13:42:28Z</time>
      </trkpt>
      <trkpt lat="46.079959524795413" lon="10.497647160664201">
        <ele>2010.73</ele>
        <time>2018-07-09T13:42:39Z</time>
      </trkpt>
      <trkpt lat="46.08000042848289" lon="10.497665517032146">
        <ele>2012.1800000000001</ele>
        <time>2018-07-09T13:42:49Z</time>
      </trkpt>
      <trkpt lat="46.080026160925627" lon="10.497687729075551">
        <ele>2012.1800000000001</ele>
        <time>2018-07-09T13:42:58Z</time>
      </trkpt>
      <trkpt lat="46.080045187845826" lon="10.497744474560022">
        <ele>2014.0999999999999</ele>
        <time>2018-07-09T13:43:08Z</time>
      </trkpt>
      <trkpt lat="46.080059604719281" lon="10.497766099870205">
        <ele>2015.0599999999999</ele>
        <time>2018-07-09T13:43:18Z</time>
      </trkpt>
      <trkpt lat="46.080073183402419" lon="10.497756628319621">
        <ele>2016.02</ele>
        <time>2018-07-09T13:43:27Z</time>
      </trkpt>
      <trkpt lat="46.08005415648222" lon="10.49779468216002">
        <ele>2016.02</ele>
        <time>2018-07-09T13:43:43Z</time>
      </trkpt>
      <trkpt lat="46.080096149817109" lon="10.497781103476882">
        <ele>2016.02</ele>
        <time>2018-07-09T13:43:55Z</time>
      </trkpt>
      <trkpt lat="46.080103190615773" lon="10.497756293043494">
        <ele>2015.54</ele>
        <time>2018-07-09T13:44:06Z</time>
      </trkpt>
      <trkpt lat="46.080102520063519" lon="10.49775755032897">
        <ele>2016.02</ele>
        <time>2018-07-09T13:44:08Z</time>
      </trkpt>
      <trkpt lat="46.080127581954002" lon="10.497784707695246">
        <ele>2014.5799999999999</ele>
        <time>2018-07-09T13:44:19Z</time>
      </trkpt>
      <trkpt lat="46.080130767077208" lon="10.497772470116615">
        <ele>2015.0599999999999</ele>
        <time>2018-07-09T13:44:40Z</time>
      </trkpt>
      <trkpt lat="46.08010989613831" lon="10.497755706310272">
        <ele>2015.54</ele>
        <time>2018-07-09T13:44:54Z</time>
      </trkpt>
      <trkpt lat="46.080107968300581" lon="10.497754700481892">
        <ele>2014.5799999999999</ele>
        <time>2018-07-09T13:45:04Z</time>
      </trkpt>
      <trkpt lat="46.080128084868193" lon="10.497768446803093">
        <ele>2014.0999999999999</ele>
        <time>2018-07-09T13:45:39Z</time>
      </trkpt>
      <trkpt lat="46.080105789005756" lon="10.497759478166699">
        <ele>2014.0999999999999</ele>
        <time>2018-07-09T13:46:01Z</time>
      </trkpt>
      <trkpt lat="46.080086845904589" lon="10.497723687440157">
        <ele>2014.0999999999999</ele>
        <time>2018-07-09T13:46:26Z</time>
      </trkpt>
      <trkpt lat="46.080099586397409" lon="10.497743720188737">
        <ele>2015.0599999999999</ele>
        <time>2018-07-09T13:46:33Z</time>
      </trkpt>
      <trkpt lat="46.080097993835807" lon="10.497751096263528">
        <ele>2015.0599999999999</ele>
        <time>2018-07-09T13:46:39Z</time>
      </trkpt>
      <trkpt lat="46.080088689923286" lon="10.497742043808103">
        <ele>2015.0599999999999</ele>
        <time>2018-07-09T13:46:51Z</time>
      </trkpt>
      <trkpt lat="46.08008885756135" lon="10.497733242809772">
        <ele>2015.0599999999999</ele>
        <time>2018-07-09T13:47:00Z</time>
      </trkpt>
      <trkpt lat="46.08010838739574" lon="10.497766016051173">
        <ele>2015.54</ele>
        <time>2018-07-09T13:47:15Z</time>
      </trkpt>
      <trkpt lat="46.080095395445824" lon="10.4977404512465">
        <ele>2015.0599999999999</ele>
        <time>2018-07-09T13:47:32Z</time>
      </trkpt>
      <trkpt lat="46.080107716843486" lon="10.497737182304263">
        <ele>2015.0599999999999</ele>
        <time>2018-07-09T13:47:48Z</time>
      </trkpt>
      <trkpt lat="46.080099334940314" lon="10.497728968039155">
        <ele>2014.5799999999999</ele>
        <time>2018-07-09T13:48:09Z</time>
      </trkpt>
      <trkpt lat="46.080109309405088" lon="10.497745145112276">
        <ele>2014.5799999999999</ele>
        <time>2018-07-09T13:48:32Z</time>
      </trkpt>
      <trkpt lat="46.080101849511266" lon="10.497732320800424">
        <ele>2015.0599999999999</ele>
        <time>2018-07-09T13:48:50Z</time>
      </trkpt>
      <trkpt lat="46.080092042684555" lon="10.497730979695916">
        <ele>2014.5799999999999</ele>
        <time>2018-07-09T13:49:14Z</time>
      </trkpt>
      <trkpt lat="46.080092964693904" lon="10.497736930847168">
        <ele>2014.5799999999999</ele>
        <time>2018-07-09T13:49:36Z</time>
      </trkpt>
      <trkpt lat="46.0801069624722" lon="10.497747994959354">
        <ele>2014.5799999999999</ele>
        <time>2018-07-09T13:50:02Z</time>
      </trkpt>
      <trkpt lat="46.080115931108594" lon="10.497763250023127">
        <ele>2015.0599999999999</ele>
        <time>2018-07-09T13:50:22Z</time>
      </trkpt>
      <trkpt lat="46.080113667994738" lon="10.497765177860856">
        <ele>2014.5799999999999</ele>
        <time>2018-07-09T13:50:48Z</time>
      </trkpt>
      <trkpt lat="46.080092210322618" lon="10.497728297486901">
        <ele>2015.0599999999999</ele>
        <time>2018-07-09T13:51:12Z</time>
      </trkpt>
      <trkpt lat="46.080096652731299" lon="10.497734835371375">
        <ele>2014.5799999999999</ele>
        <time>2018-07-09T13:51:36Z</time>
      </trkpt>
      <trkpt lat="46.080138394609094" lon="10.497741037979722">
        <ele>2014.5799999999999</ele>
        <time>2018-07-09T13:51:54Z</time>
      </trkpt>
      <trkpt lat="46.080145016312599" lon="10.497736344113946">
        <ele>2014.0999999999999</ele>
        <time>2018-07-09T13:52:01Z</time>
      </trkpt>
      <trkpt lat="46.08013772405684" lon="10.49773994833231">
        <ele>2014.5799999999999</ele>
        <time>2018-07-09T13:52:15Z</time>
      </trkpt>
      <trkpt lat="46.080132778733969" lon="10.497707258909941">
        <ele>2014.0999999999999</ele>
        <time>2018-07-09T13:52:39Z</time>
      </trkpt>
      <trkpt lat="46.080179465934634" lon="10.497735757380724">
        <ele>2014.0999999999999</ele>
        <time>2018-07-09T13:52:54Z</time>
      </trkpt>
      <trkpt lat="46.080211149528623" lon="10.497732236981392">
        <ele>2013.1400000000001</ele>
        <time>2018-07-09T13:52:57Z</time>
      </trkpt>
      <trkpt lat="46.080293375998735" lon="10.497706839814782">
        <ele>2013.6199999999999</ele>
        <time>2018-07-09T13:53:04Z</time>
      </trkpt>
      <trkpt lat="46.080442238599062" lon="10.497747994959354">
        <ele>2013.1400000000001</ele>
        <time>2018-07-09T13:53:17Z</time>
      </trkpt>
      <trkpt lat="46.08050124719739" lon="10.497785378247499">
        <ele>2013.6199999999999</ele>
        <time>2018-07-09T13:53:25Z</time>
      </trkpt>
      <trkpt lat="46.080625467002392" lon="10.497859977185726">
        <ele>2013.1400000000001</ele>
        <time>2018-07-09T13:53:36Z</time>
      </trkpt>
      <trkpt lat="46.080749267712235" lon="10.497912364080548">
        <ele>2013.6199999999999</ele>
        <time>2018-07-09T13:53:48Z</time>
      </trkpt>
      <trkpt lat="46.080865608528256" lon="10.497950334101915">
        <ele>2013.6199999999999</ele>
        <time>2018-07-09T13:53:59Z</time>
      </trkpt>
      <trkpt lat="46.08101237565279" lon="10.49795787781477">
        <ele>2013.6199999999999</ele>
        <time>2018-07-09T13:54:12Z</time>
      </trkpt>
      <trkpt lat="46.081117149442434" lon="10.497968606650829">
        <ele>2013.6199999999999</ele>
        <time>2018-07-09T13:54:22Z</time>
      </trkpt>
      <trkpt lat="46.081202561035752" lon="10.497982855886221">
        <ele>2013.6199999999999</ele>
        <time>2018-07-09T13:54:29Z</time>
      </trkpt>
      <trkpt lat="46.081355698406696" lon="10.497995931655169">
        <ele>2014.0999999999999</ele>
        <time>2018-07-09T13:54:42Z</time>
      </trkpt>
      <trkpt lat="46.081365505233407" lon="10.497996602207422">
        <ele>2014.0999999999999</ele>
        <time>2018-07-09T13:54:43Z</time>
      </trkpt>
      <trkpt lat="46.081464579328895" lon="10.497973551973701">
        <ele>2014.0999999999999</ele>
        <time>2018-07-09T13:54:52Z</time>
      </trkpt>
      <trkpt lat="46.081494251266122" lon="10.497952764853835">
        <ele>2014.0999999999999</ele>
        <time>2018-07-09T13:54:55Z</time>
      </trkpt>
      <trkpt lat="46.081593409180641" lon="10.497907754033804">
        <ele>2014.5799999999999</ele>
        <time>2018-07-09T13:55:04Z</time>
      </trkpt>
      <trkpt lat="46.081617549061775" lon="10.497908759862185">
        <ele>2014.5799999999999</ele>
        <time>2018-07-09T13:55:06Z</time>
      </trkpt>
      <trkpt lat="46.081692483276129" lon="10.4978665150702">
        <ele>2014.5799999999999</ele>
        <time>2018-07-09T13:55:13Z</time>
      </trkpt>
      <trkpt lat="46.081714192405343" lon="10.497848996892571">
        <ele>2014.5799999999999</ele>
        <time>2018-07-09T13:55:15Z</time>
      </trkpt>
      <trkpt lat="46.081770937889814" lon="10.497699379920959">
        <ele>2014.5799999999999</ele>
        <time>2018-07-09T13:55:25Z</time>
      </trkpt>
      <trkpt lat="46.08177563175559" lon="10.497682113200426">
        <ele>2014.5799999999999</ele>
        <time>2018-07-09T13:55:26Z</time>
      </trkpt>
      <trkpt lat="46.081840256229043" lon="10.497521851211786">
        <ele>2015.0599999999999</ele>
        <time>2018-07-09T13:55:37Z</time>
      </trkpt>
      <trkpt lat="46.081918543204665" lon="10.497363684698939">
        <ele>2015.0599999999999</ele>
        <time>2018-07-09T13:55:48Z</time>
      </trkpt>
      <trkpt lat="46.081945030018687" lon="10.497329821810126">
        <ele>2015.54</ele>
        <time>2018-07-09T13:55:51Z</time>
      </trkpt>
      <trkpt lat="46.082017868757248" lon="10.497308783233166">
        <ele>2015.0599999999999</ele>
        <time>2018-07-09T13:55:57Z</time>
      </trkpt>
      <trkpt lat="46.082187350839376" lon="10.497338622808456">
        <ele>2015.54</ele>
        <time>2018-07-09T13:56:10Z</time>
      </trkpt>
      <trkpt lat="46.08232825063169" lon="10.497327139601111">
        <ele>2015.54</ele>
        <time>2018-07-09T13:56:22Z</time>
      </trkpt>
      <trkpt lat="46.082377871498466" lon="10.497306184843183">
        <ele>2016.02</ele>
        <time>2018-07-09T13:56:27Z</time>
      </trkpt>
      <trkpt lat="46.082439813762903" lon="10.497280200943351">
        <ele>2016.02</ele>
        <time>2018-07-09T13:56:33Z</time>
      </trkpt>
      <trkpt lat="46.082547269761562" lon="10.497245835140347">
        <ele>2016.02</ele>
        <time>2018-07-09T13:56:44Z</time>
      </trkpt>
      <trkpt lat="46.082556406036019" lon="10.497235860675573">
        <ele>2016.5</ele>
        <time>2018-07-09T13:56:45Z</time>
      </trkpt>
      <trkpt lat="46.082681464031339" lon="10.497172493487597">
        <ele>2016.5</ele>
        <time>2018-07-09T13:56:57Z</time>
      </trkpt>
      <trkpt lat="46.082730498164892" lon="10.497151371091604">
        <ele>2017.9400000000001</ele>
        <time>2018-07-09T13:57:07Z</time>
      </trkpt>
      <trkpt lat="46.08276410959661" lon="10.497065791860223">
        <ele>2019.8699999999999</ele>
        <time>2018-07-09T13:57:17Z</time>
      </trkpt>
      <trkpt lat="46.082764947786927" lon="10.497055649757385">
        <ele>2019.8699999999999</ele>
        <time>2018-07-09T13:57:18Z</time>
      </trkpt>
      <trkpt lat="46.082785399630666" lon="10.496990019455552">
        <ele>2020.8299999999999</ele>
        <time>2018-07-09T13:57:25Z</time>
      </trkpt>
      <trkpt lat="46.082840552553535" lon="10.496970741078258">
        <ele>2021.79</ele>
        <time>2018-07-09T13:57:35Z</time>
      </trkpt>
      <trkpt lat="46.082888161763549" lon="10.496945092454553">
        <ele>2023.23</ele>
        <time>2018-07-09T13:57:44Z</time>
      </trkpt>
      <trkpt lat="46.082907943055034" lon="10.496936878189445">
        <ele>2023.71</ele>
        <time>2018-07-09T13:57:47Z</time>
      </trkpt>
      <trkpt lat="46.082972651347518" lon="10.496901758015156">
        <ele>2025.1500000000001</ele>
        <time>2018-07-09T13:57:58Z</time>
      </trkpt>
      <trkpt lat="46.083011962473392" lon="10.496821040287614">
        <ele>2025.1500000000001</ele>
        <time>2018-07-09T13:58:07Z</time>
      </trkpt>
      <trkpt lat="46.083060912787914" lon="10.496749458834529">
        <ele>2025.6400000000001</ele>
        <time>2018-07-09T13:58:15Z</time>
      </trkpt>
      <trkpt lat="46.083084130659699" lon="10.496720792725682">
        <ele>2025.1500000000001</ele>
        <time>2018-07-09T13:58:18Z</time>
      </trkpt>
      <trkpt lat="46.083099553361535" lon="10.496706375852227">
        <ele>2025.1500000000001</ele>
        <time>2018-07-09T13:58:20Z</time>
      </trkpt>
      <trkpt lat="46.083167782053351" lon="10.496677709743381">
        <ele>2026.1199999999999</ele>
        <time>2018-07-09T13:58:29Z</time>
      </trkpt>
      <trkpt lat="46.083210781216621" lon="10.496619958430529">
        <ele>2026.5999999999999</ele>
        <time>2018-07-09T13:58:39Z</time>
      </trkpt>
      <trkpt lat="46.083208853378892" lon="10.496630016714334">
        <ele>2026.5999999999999</ele>
        <time>2018-07-09T13:58:49Z</time>
      </trkpt>
      <trkpt lat="46.083221845328808" lon="10.496580479666591">
        <ele>2026.5999999999999</ele>
        <time>2018-07-09T13:59:08Z</time>
      </trkpt>
      <trkpt lat="46.083230394870043" lon="10.496603613719344">
        <ele>2026.1199999999999</ele>
        <time>2018-07-09T13:59:17Z</time>
      </trkpt>
      <trkpt lat="46.083226958289742" lon="10.496656838804483">
        <ele>2025.6400000000001</ele>
        <time>2018-07-09T13:59:38Z</time>
      </trkpt>
      <trkpt lat="46.083230646327138" lon="10.496637057512999">
        <ele>2025.6400000000001</ele>
        <time>2018-07-09T14:00:02Z</time>
      </trkpt>
      <trkpt lat="46.083225701004267" lon="10.49663420766592">
        <ele>2025.6400000000001</ele>
        <time>2018-07-09T14:00:18Z</time>
      </trkpt>
      <trkpt lat="46.083227125927806" lon="10.496622053906322">
        <ele>2025.6400000000001</ele>
        <time>2018-07-09T14:00:39Z</time>
      </trkpt>
      <trkpt lat="46.083219079300761" lon="10.496628424152732">
        <ele>2025.6400000000001</ele>
        <time>2018-07-09T14:01:06Z</time>
      </trkpt>
      <trkpt lat="46.08322536572814" lon="10.496625490486622">
        <ele>2025.1500000000001</ele>
        <time>2018-07-09T14:01:34Z</time>
      </trkpt>
      <trkpt lat="46.083237351849675" lon="10.496616270393133">
        <ele>2025.6400000000001</ele>
        <time>2018-07-09T14:01:59Z</time>
      </trkpt>
      <trkpt lat="46.083231819793582" lon="10.496643343940377">
        <ele>2025.1500000000001</ele>
        <time>2018-07-09T14:02:28Z</time>
      </trkpt>
      <trkpt lat="46.083238357678056" lon="10.496628424152732">
        <ele>2025.1500000000001</ele>
        <time>2018-07-09T14:02:57Z</time>
      </trkpt>
      <trkpt lat="46.083226287737489" lon="10.496634542942047">
        <ele>2025.1500000000001</ele>
        <time>2018-07-09T14:03:26Z</time>
      </trkpt>
      <trkpt lat="46.083225952461362" lon="10.496641080826521">
        <ele>2024.6700000000001</ele>
        <time>2018-07-09T14:03:53Z</time>
      </trkpt>
      <trkpt lat="46.083225952461362" lon="10.496635800227523">
        <ele>2024.6700000000001</ele>
        <time>2018-07-09T14:04:23Z</time>
      </trkpt>
      <trkpt lat="46.083228047937155" lon="10.496613839641213">
        <ele>2024.6700000000001</ele>
        <time>2018-07-09T14:04:53Z</time>
      </trkpt>
      <trkpt lat="46.083235172554851" lon="10.496599674224854">
        <ele>2024.6700000000001</ele>
        <time>2018-07-09T14:05:00Z</time>
      </trkpt>
      <trkpt lat="46.083245985209942" lon="10.496632950380445">
        <ele>2025.1500000000001</ele>
        <time>2018-07-09T14:05:08Z</time>
      </trkpt>
      <trkpt lat="46.083232741802931" lon="10.49666890874505">
        <ele>2025.1500000000001</ele>
        <time>2018-07-09T14:05:16Z</time>
      </trkpt>
      <trkpt lat="46.083235172554851" lon="10.496672848239541">
        <ele>2025.1500000000001</ele>
        <time>2018-07-09T14:05:27Z</time>
      </trkpt>
      <trkpt lat="46.08322880230844" lon="10.496734622865915">
        <ele>2025.6400000000001</ele>
        <time>2018-07-09T14:05:38Z</time>
      </trkpt>
      <trkpt lat="46.083168452605605" lon="10.496914917603135">
        <ele>2029.48</ele>
        <time>2018-07-09T14:06:00Z</time>
      </trkpt>
      <trkpt lat="46.083335671573877" lon="10.496480651199818">
        <ele>2027.0799999999999</ele>
        <time>2018-07-09T14:11:24Z</time>
      </trkpt>
      <trkpt lat="46.083274818956852" lon="10.496513592079282">
        <ele>2027.0799999999999</ele>
        <time>2018-07-09T14:12:05Z</time>
      </trkpt>
      <trkpt lat="46.083232155069709" lon="10.496438574045897">
        <ele>2027.0799999999999</ele>
        <time>2018-07-09T14:12:44Z</time>
      </trkpt>
      <trkpt lat="46.083254115656018" lon="10.496396580711007">
        <ele>2027.5599999999999</ele>
        <time>2018-07-09T14:12:59Z</time>
      </trkpt>
      <trkpt lat="46.08324590139091" lon="10.496467491611838">
        <ele>2027.5599999999999</ele>
        <time>2018-07-09T14:26:20Z</time>
      </trkpt>
      <trkpt lat="46.08327180147171" lon="10.496457600966096">
        <ele>2027.5599999999999</ele>
        <time>2018-07-09T14:26:44Z</time>
      </trkpt>
      <trkpt lat="46.083274567499757" lon="10.49647101201117">
        <ele>2028.04</ele>
        <time>2018-07-09T14:27:09Z</time>
      </trkpt>
      <trkpt lat="46.083280267193913" lon="10.496496995911002">
        <ele>2027.5599999999999</ele>
        <time>2018-07-09T14:27:32Z</time>
      </trkpt>
      <trkpt lat="46.083288146182895" lon="10.49654477275908">
        <ele>2027.5599999999999</ele>
        <time>2018-07-09T14:28:02Z</time>
      </trkpt>
      <trkpt lat="46.083345310762525" lon="10.496541755273938">
        <ele>2027.5599999999999</ele>
        <time>2018-07-09T14:28:23Z</time>
      </trkpt>
      <trkpt lat="46.083328546956182" lon="10.496558854356408">
        <ele>2028.04</ele>
        <time>2018-07-09T14:28:44Z</time>
      </trkpt>
      <trkpt lat="46.083360482007265" lon="10.496545191854239">
        <ele>2027.5599999999999</ele>
        <time>2018-07-09T14:29:08Z</time>
      </trkpt>
      <trkpt lat="46.083371294662356" lon="10.496635884046555">
        <ele>2027.5599999999999</ele>
        <time>2018-07-09T14:29:29Z</time>
      </trkpt>
      <trkpt lat="46.083365259692073" lon="10.496658934280276">
        <ele>2027.5599999999999</ele>
        <time>2018-07-09T14:29:31Z</time>
      </trkpt>
      <trkpt lat="46.083238525316119" lon="10.497042406350374">
        <ele>2027.5599999999999</ele>
        <time>2018-07-09T14:29:58Z</time>
      </trkpt>
      <trkpt lat="46.083234753459692" lon="10.497045172378421">
        <ele>2027.0799999999999</ele>
        <time>2018-07-09T14:30:19Z</time>
      </trkpt>
      <trkpt lat="46.083199717104435" lon="10.4970099683851">
        <ele>2027.0799999999999</ele>
        <time>2018-07-09T14:30:44Z</time>
      </trkpt>
      <trkpt lat="46.083133751526475" lon="10.497077275067568">
        <ele>2027.5599999999999</ele>
        <time>2018-07-09T14:31:07Z</time>
      </trkpt>
      <trkpt lat="46.083141379058361" lon="10.497176600620151">
        <ele>2027.0799999999999</ele>
        <time>2018-07-09T14:31:27Z</time>
      </trkpt>
      <trkpt lat="46.083196867257357" lon="10.497161094099283">
        <ele>2027.0799999999999</ele>
        <time>2018-07-09T14:31:42Z</time>
      </trkpt>
      <trkpt lat="46.083381855860353" lon="10.496849119663239">
        <ele>2028.04</ele>
        <time>2018-07-09T14:31:57Z</time>
      </trkpt>
      <trkpt lat="46.083421669900417" lon="10.496719116345048">
        <ele>2027.0799999999999</ele>
        <time>2018-07-09T14:32:07Z</time>
      </trkpt>
      <trkpt lat="46.083414210006595" lon="10.496673099696636">
        <ele>2027.0799999999999</ele>
        <time>2018-07-09T14:32:31Z</time>
      </trkpt>
      <trkpt lat="46.083409264683723" lon="10.496704699471593">
        <ele>2027.0799999999999</ele>
        <time>2018-07-09T14:32:48Z</time>
      </trkpt>
      <trkpt lat="46.08345746062696" lon="10.496627585962415">
        <ele>2027.0799999999999</ele>
        <time>2018-07-09T14:33:11Z</time>
      </trkpt>
      <trkpt lat="46.083477744832635" lon="10.49661660566926">
        <ele>2027.0799999999999</ele>
        <time>2018-07-09T14:33:29Z</time>
      </trkpt>
      <trkpt lat="46.083554942160845" lon="10.496433796361089">
        <ele>2027.0799999999999</ele>
        <time>2018-07-09T14:33:48Z</time>
      </trkpt>
      <trkpt lat="46.08376826159656" lon="10.496030962094665">
        <ele>2027.0799999999999</ele>
        <time>2018-07-09T14:34:11Z</time>
      </trkpt>
      <trkpt lat="46.083768513053656" lon="10.496019646525383">
        <ele>2027.0799999999999</ele>
        <time>2018-07-09T14:34:29Z</time>
      </trkpt>
      <trkpt lat="46.083742948248982" lon="10.496084270998836">
        <ele>2027.0799999999999</ele>
        <time>2018-07-09T14:34:33Z</time>
      </trkpt>
      <trkpt lat="46.083609089255333" lon="10.496357856318355">
        <ele>2027.0799999999999</ele>
        <time>2018-07-09T14:34:51Z</time>
      </trkpt>
      <trkpt lat="46.083520241081715" lon="10.496514597907662">
        <ele>2027.0799999999999</ele>
        <time>2018-07-09T14:35:08Z</time>
      </trkpt>
      <trkpt lat="46.083391914144158" lon="10.496657593175769">
        <ele>2027.0799999999999</ele>
        <time>2018-07-09T14:35:25Z</time>
      </trkpt>
      <trkpt lat="46.083380598574877" lon="10.496596656739712">
        <ele>2027.0799999999999</ele>
        <time>2018-07-09T14:35:47Z</time>
      </trkpt>
      <trkpt lat="46.083553014323115" lon="10.496857920661569">
        <ele>2026.5999999999999</ele>
        <time>2018-07-09T14:36:05Z</time>
      </trkpt>
      <trkpt lat="46.083625936880708" lon="10.496958084404469">
        <ele>2026.5999999999999</ele>
        <time>2018-07-09T14:36:21Z</time>
      </trkpt>
      <trkpt lat="46.083455868065357" lon="10.496686343103647">
        <ele>2027.0799999999999</ele>
        <time>2018-07-09T14:36:46Z</time>
      </trkpt>
      <trkpt lat="46.083392668515444" lon="10.496560279279947">
        <ele>2027.0799999999999</ele>
        <time>2018-07-09T14:37:14Z</time>
      </trkpt>
      <trkpt lat="46.083385962992907" lon="10.496566984802485">
        <ele>2026.5999999999999</ele>
        <time>2018-07-09T14:37:37Z</time>
      </trkpt>
      <trkpt lat="46.083361068740487" lon="10.496644349768758">
        <ele>2027.0799999999999</ele>
        <time>2018-07-09T14:37:59Z</time>
      </trkpt>
      <trkpt lat="46.083429884165525" lon="10.496690701693296">
        <ele>2026.5999999999999</ele>
        <time>2018-07-09T14:38:16Z</time>
      </trkpt>
      <trkpt lat="46.083391914144158" lon="10.496609564870596">
        <ele>2026.5999999999999</ele>
        <time>2018-07-09T14:38:33Z</time>
      </trkpt>
      <trkpt lat="46.08340029604733" lon="10.496640997007489">
        <ele>2027.0799999999999</ele>
        <time>2018-07-09T14:38:58Z</time>
      </trkpt>
      <trkpt lat="46.083310274407268" lon="10.496497834101319">
        <ele>2027.0799999999999</ele>
        <time>2018-07-09T14:39:29Z</time>
      </trkpt>
      <trkpt lat="46.083281189203262" lon="10.496450727805495">
        <ele>2027.0799999999999</ele>
        <time>2018-07-09T14:40:00Z</time>
      </trkpt>
      <trkpt lat="46.083289319649339" lon="10.496437316760421">
        <ele>2027.0799999999999</ele>
        <time>2018-07-09T14:40:32Z</time>
      </trkpt>
      <trkpt lat="46.083298120647669" lon="10.496458355337381">
        <ele>2027.0799999999999</ele>
        <time>2018-07-09T14:40:59Z</time>
      </trkpt>
      <trkpt lat="46.083266269415617" lon="10.496497079730034">
        <ele>2027.0799999999999</ele>
        <time>2018-07-09T14:41:19Z</time>
      </trkpt>
      <trkpt lat="46.083248164504766" lon="10.496457600966096">
        <ele>2027.5599999999999</ele>
        <time>2018-07-09T14:41:39Z</time>
      </trkpt>
      <trkpt lat="46.083236262202263" lon="10.496481824666262">
        <ele>2027.0799999999999</ele>
        <time>2018-07-09T14:41:59Z</time>
      </trkpt>
      <trkpt lat="46.083306334912777" lon="10.496549382805824">
        <ele>2027.0799999999999</ele>
        <time>2018-07-09T14:42:16Z</time>
      </trkpt>
      <trkpt lat="46.08345259912312" lon="10.496752308681607">
        <ele>2027.0799999999999</ele>
        <time>2018-07-09T14:42:32Z</time>
      </trkpt>
      <trkpt lat="46.083438768982887" lon="10.496719032526016">
        <ele>2027.5599999999999</ele>
        <time>2018-07-09T14:42:52Z</time>
      </trkpt>
      <trkpt lat="46.083382777869701" lon="10.496596992015839">
        <ele>2027.0799999999999</ele>
        <time>2018-07-09T14:43:18Z</time>
      </trkpt>
      <trkpt lat="46.083324104547501" lon="10.496500097215176">
        <ele>2027.0799999999999</ele>
        <time>2018-07-09T14:43:45Z</time>
      </trkpt>
      <trkpt lat="46.083295606076717" lon="10.496470676735044">
        <ele>2027.0799999999999</ele>
        <time>2018-07-09T14:44:15Z</time>
      </trkpt>
      <trkpt lat="46.083247661590576" lon="10.496492385864258">
        <ele>2027.0799999999999</ele>
        <time>2018-07-09T14:44:36Z</time>
      </trkpt>
      <trkpt lat="46.083207176998258" lon="10.496418038383126">
        <ele>2027.0799999999999</ele>
        <time>2018-07-09T14:44:57Z</time>
      </trkpt>
      <trkpt lat="46.083163423463702" lon="10.496373027563095">
        <ele>2027.0799999999999</ele>
        <time>2018-07-09T14:45:05Z</time>
      </trkpt>
      <trkpt lat="46.083166776224971" lon="10.496302368119359">
        <ele>2027.0799999999999</ele>
        <time>2018-07-09T14:45:24Z</time>
      </trkpt>
      <trkpt lat="46.083254953846335" lon="10.496368249878287">
        <ele>2027.0799999999999</ele>
        <time>2018-07-09T14:45:51Z</time>
      </trkpt>
      <trkpt lat="46.08331186696887" lon="10.496419463306665">
        <ele>2027.0799999999999</ele>
        <time>2018-07-09T14:46:25Z</time>
      </trkpt>
      <trkpt lat="46.083302060142159" lon="10.496432539075613">
        <ele>2027.0799999999999</ele>
        <time>2018-07-09T14:46:59Z</time>
      </trkpt>
      <trkpt lat="46.083330726251006" lon="10.496525662019849">
        <ele>2026.5999999999999</ele>
        <time>2018-07-09T14:47:24Z</time>
      </trkpt>
      <trkpt lat="46.083290325477719" lon="10.496578719466925">
        <ele>2027.0799999999999</ele>
        <time>2018-07-09T14:47:46Z</time>
      </trkpt>
      <trkpt lat="46.083262749016285" lon="10.496613504365087">
        <ele>2027.0799999999999</ele>
        <time>2018-07-09T14:47:51Z</time>
      </trkpt>
      <trkpt lat="46.083229053765535" lon="10.496692797169089">
        <ele>2027.0799999999999</ele>
        <time>2018-07-09T14:48:11Z</time>
      </trkpt>
      <trkpt lat="46.08331186696887" lon="10.496650468558073">
        <ele>2027.0799999999999</ele>
        <time>2018-07-09T14:48:36Z</time>
      </trkpt>
      <trkpt lat="46.083329888060689" lon="10.496599674224854">
        <ele>2027.0799999999999</ele>
        <time>2018-07-09T14:48:56Z</time>
      </trkpt>
      <trkpt lat="46.083313710987568" lon="10.496562793850899">
        <ele>2027.0799999999999</ele>
        <time>2018-07-09T14:49:07Z</time>
      </trkpt>
      <trkpt lat="46.083153029903769" lon="10.496248723939061">
        <ele>2027.0799999999999</ele>
        <time>2018-07-09T14:49:19Z</time>
      </trkpt>
      <trkpt lat="46.082965359091759" lon="10.495794843882322">
        <ele>2027.0799999999999</ele>
        <time>2018-07-09T14:49:38Z</time>
      </trkpt>
      <trkpt lat="46.083183288574219" lon="10.496235145255923">
        <ele>2027.0799999999999</ele>
        <time>2018-07-09T14:49:57Z</time>
      </trkpt>
      <trkpt lat="46.083309771493077" lon="10.496456008404493">
        <ele>2027.0799999999999</ele>
        <time>2018-07-09T14:50:16Z</time>
      </trkpt>
      <trkpt lat="46.083313627168536" lon="10.49648224376142">
        <ele>2027.0799999999999</ele>
        <time>2018-07-09T14:50:38Z</time>
      </trkpt>
      <trkpt lat="46.083299880847335" lon="10.496471934020519">
        <ele>2027.0799999999999</ele>
        <time>2018-07-09T14:50:54Z</time>
      </trkpt>
      <trkpt lat="46.083253528922796" lon="10.496447626501322">
        <ele>2027.0799999999999</ele>
        <time>2018-07-09T14:51:12Z</time>
      </trkpt>
      <trkpt lat="46.083127716556191" lon="10.496597159653902">
        <ele>2027.0799999999999</ele>
        <time>2018-07-09T14:51:34Z</time>
      </trkpt>
      <trkpt lat="46.083173900842667" lon="10.496554579585791">
        <ele>2027.0799999999999</ele>
        <time>2018-07-09T14:51:39Z</time>
      </trkpt>
      <trkpt lat="46.083315974101424" lon="10.49641384743154">
        <ele>2027.0799999999999</ele>
        <time>2018-07-09T14:51:55Z</time>
      </trkpt>
      <trkpt lat="46.083310022950172" lon="10.496350815519691">
        <ele>2027.0799999999999</ele>
        <time>2018-07-09T14:52:12Z</time>
      </trkpt>
      <trkpt lat="46.083343969658017" lon="10.4963693395257">
        <ele>2027.0799999999999</ele>
        <time>2018-07-09T14:52:35Z</time>
      </trkpt>
      <trkpt lat="46.08346282504499" lon="10.496349139139056">
        <ele>2027.0799999999999</ele>
        <time>2018-07-09T14:52:55Z</time>
      </trkpt>
      <trkpt lat="46.083450084552169" lon="10.496305301785469">
        <ele>2026.5999999999999</ele>
        <time>2018-07-09T14:53:20Z</time>
      </trkpt>
      <trkpt lat="46.083355117589235" lon="10.496341846883297">
        <ele>2026.5999999999999</ele>
        <time>2018-07-09T14:53:39Z</time>
      </trkpt>
      <trkpt lat="46.083350088447332" lon="10.496339583769441">
        <ele>2026.5999999999999</ele>
        <time>2018-07-09T14:53:56Z</time>
      </trkpt>
      <trkpt lat="46.083359643816948" lon="10.496372608467937">
        <ele>2026.5999999999999</ele>
        <time>2018-07-09T14:54:13Z</time>
      </trkpt>
      <trkpt lat="46.083338940516114" lon="10.496406806632876">
        <ele>2026.5999999999999</ele>
        <time>2018-07-09T14:54:17Z</time>
      </trkpt>
      <trkpt lat="46.083104331046343" lon="10.496669663116336">
        <ele>2026.5999999999999</ele>
        <time>2018-07-09T14:54:30Z</time>
      </trkpt>
      <trkpt lat="46.082775676622987" lon="10.496995383873582">
        <ele>2026.5999999999999</ele>
        <time>2018-07-09T14:54:48Z</time>
      </trkpt>
      <trkpt lat="46.083019841462374" lon="10.49664250575006">
        <ele>2026.5999999999999</ele>
        <time>2018-07-09T14:54:59Z</time>
      </trkpt>
      <trkpt lat="46.083215475082397" lon="10.496423905715346">
        <ele>2026.5999999999999</ele>
        <time>2018-07-09T14:55:18Z</time>
      </trkpt>
      <trkpt lat="46.083290576934814" lon="10.496536558493972">
        <ele>2026.5999999999999</ele>
        <time>2018-07-09T14:55:48Z</time>
      </trkpt>
      <trkpt lat="46.083340449258685" lon="10.496530188247561">
        <ele>2026.5999999999999</ele>
        <time>2018-07-09T14:56:21Z</time>
      </trkpt>
      <trkpt lat="46.083349753171206" lon="10.496536139398813">
        <ele>2026.5999999999999</ele>
        <time>2018-07-09T14:56:52Z</time>
      </trkpt>
      <trkpt lat="46.08338076621294" lon="10.496535301208496">
        <ele>2026.5999999999999</ele>
        <time>2018-07-09T14:57:12Z</time>
      </trkpt>
      <trkpt lat="46.08336609788239" lon="10.49658240750432">
        <ele>2026.5999999999999</ele>
        <time>2018-07-09T14:57:29Z</time>
      </trkpt>
      <trkpt lat="46.083391830325127" lon="10.496612330898643">
        <ele>2026.5999999999999</ele>
        <time>2018-07-09T14:57:45Z</time>
      </trkpt>
      <trkpt lat="46.083264090120792" lon="10.496417954564095">
        <ele>2026.5999999999999</ele>
        <time>2018-07-09T14:58:07Z</time>
      </trkpt>
      <trkpt lat="46.083216983824968" lon="10.496298260986805">
        <ele>2026.1199999999999</ele>
        <time>2018-07-09T14:58:37Z</time>
      </trkpt>
      <trkpt lat="46.08324246481061" lon="10.49630924127996">
        <ele>2026.1199999999999</ele>
        <time>2018-07-09T14:59:02Z</time>
      </trkpt>
      <trkpt lat="46.083264760673046" lon="10.496370010077953">
        <ele>2026.5999999999999</ele>
        <time>2018-07-09T14:59:10Z</time>
      </trkpt>
      <trkpt lat="46.0834173951298" lon="10.496597746387124">
        <ele>2026.5999999999999</ele>
        <time>2018-07-09T14:59:30Z</time>
      </trkpt>
      <trkpt lat="46.083439020439982" lon="10.496669663116336">
        <ele>2026.5999999999999</ele>
        <time>2018-07-09T14:59:50Z</time>
      </trkpt>
      <trkpt lat="46.08347455970943" lon="10.49665323458612">
        <ele>2026.5999999999999</ele>
        <time>2018-07-09T15:00:07Z</time>
      </trkpt>
      <trkpt lat="46.083508171141148" lon="10.496625155210495">
        <ele>2026.5999999999999</ele>
        <time>2018-07-09T15:00:11Z</time>
      </trkpt>
      <trkpt lat="46.083528622984886" lon="10.49661660566926">
        <ele>2026.5999999999999</ele>
        <time>2018-07-09T15:00:13Z</time>
      </trkpt>
      <trkpt lat="46.08365778811276" lon="10.496684918180108">
        <ele>2026.1199999999999</ele>
        <time>2018-07-09T15:00:32Z</time>
      </trkpt>
      <trkpt lat="46.083560809493065" lon="10.496820956468582">
        <ele>2026.5999999999999</ele>
        <time>2018-07-09T15:00:46Z</time>
      </trkpt>
      <trkpt lat="46.083515798673034" lon="10.497286906465888">
        <ele>2026.5999999999999</ele>
        <time>2018-07-09T15:01:24Z</time>
      </trkpt>
      <trkpt lat="46.083495179191232" lon="10.497043831273913">
        <ele>2026.5999999999999</ele>
        <time>2018-07-09T15:01:48Z</time>
      </trkpt>
      <trkpt lat="46.083458801731467" lon="10.496817184612155">
        <ele>2026.5999999999999</ele>
        <time>2018-07-09T15:02:22Z</time>
      </trkpt>
      <trkpt lat="46.083411779254675" lon="10.496672764420509">
        <ele>2026.5999999999999</ele>
        <time>2018-07-09T15:02:51Z</time>
      </trkpt>
      <trkpt lat="46.083375904709101" lon="10.496551981195807">
        <ele>2026.5999999999999</ele>
        <time>2018-07-09T15:03:19Z</time>
      </trkpt>
      <trkpt lat="46.083354111760855" lon="10.496494397521019">
        <ele>2026.5999999999999</ele>
        <time>2018-07-09T15:03:40Z</time>
      </trkpt>
      <trkpt lat="46.083357045426965" lon="10.496652396395802">
        <ele>2026.5999999999999</ele>
        <time>2018-07-09T15:04:01Z</time>
      </trkpt>
      <trkpt lat="46.083363918587565" lon="10.496684582903981">
        <ele>2026.5999999999999</ele>
        <time>2018-07-09T15:04:21Z</time>
      </trkpt>
      <trkpt lat="46.083387890830636" lon="10.496693383902311">
        <ele>2027.0799999999999</ele>
        <time>2018-07-09T15:04:50Z</time>
      </trkpt>
      <trkpt lat="46.083355452865362" lon="10.496635464951396">
        <ele>2026.5999999999999</ele>
        <time>2018-07-09T15:05:15Z</time>
      </trkpt>
      <trkpt lat="46.083346400409937" lon="10.496578132733703">
        <ele>2027.0799999999999</ele>
        <time>2018-07-09T15:05:34Z</time>
      </trkpt>
      <trkpt lat="46.083317566663027" lon="10.496500767767429">
        <ele>2026.5999999999999</ele>
        <time>2018-07-09T15:05:54Z</time>
      </trkpt>
      <trkpt lat="46.083286553621292" lon="10.496396664530039">
        <ele>2026.5999999999999</ele>
        <time>2018-07-09T15:06:12Z</time>
      </trkpt>
      <trkpt lat="46.083218324929476" lon="10.496387528255582">
        <ele>2026.5999999999999</ele>
        <time>2018-07-09T15:06:27Z</time>
      </trkpt>
      <trkpt lat="46.083260653540492" lon="10.496597243472934">
        <ele>2026.5999999999999</ele>
        <time>2018-07-09T15:06:51Z</time>
      </trkpt>
      <trkpt lat="46.083302060142159" lon="10.496721714735031">
        <ele>2026.5999999999999</ele>
        <time>2018-07-09T15:07:16Z</time>
      </trkpt>
      <trkpt lat="46.083342796191573" lon="10.496709141880274">
        <ele>2026.5999999999999</ele>
        <time>2018-07-09T15:07:42Z</time>
      </trkpt>
      <trkpt lat="46.083400631323457" lon="10.496695814654231">
        <ele>2026.5999999999999</ele>
        <time>2018-07-09T15:08:08Z</time>
      </trkpt>
      <trkpt lat="46.083419239148498" lon="10.496696317568421">
        <ele>2026.5999999999999</ele>
        <time>2018-07-09T15:08:33Z</time>
      </trkpt>
      <trkpt lat="46.083439355716109" lon="10.49676907248795">
        <ele>2027.0799999999999</ele>
        <time>2018-07-09T15:08:59Z</time>
      </trkpt>
      <trkpt lat="46.083417981863022" lon="10.496823722496629">
        <ele>2026.5999999999999</ele>
        <time>2018-07-09T15:09:23Z</time>
      </trkpt>
      <trkpt lat="46.083360398188233" lon="10.496769826859236">
        <ele>2026.5999999999999</ele>
        <time>2018-07-09T15:09:48Z</time>
      </trkpt>
      <trkpt lat="46.083370707929134" lon="10.496775358915329">
        <ele>2026.5999999999999</ele>
        <time>2018-07-09T15:10:18Z</time>
      </trkpt>
      <trkpt lat="46.083358554169536" lon="10.496792374178767">
        <ele>2026.5999999999999</ele>
        <time>2018-07-09T15:10:41Z</time>
      </trkpt>
      <trkpt lat="46.083368780091405" lon="10.496785249561071">
        <ele>2026.5999999999999</ele>
        <time>2018-07-09T15:11:04Z</time>
      </trkpt>
      <trkpt lat="46.083283452317119" lon="10.49641091376543">
        <ele>2026.5999999999999</ele>
        <time>2018-07-09T15:11:23Z</time>
      </trkpt>
      <trkpt lat="46.083286972716451" lon="10.496470090001822">
        <ele>2026.5999999999999</ele>
        <time>2018-07-09T15:11:42Z</time>
      </trkpt>
      <trkpt lat="46.083350256085396" lon="10.496514849364758">
        <ele>2026.5999999999999</ele>
        <time>2018-07-09T15:11:59Z</time>
      </trkpt>
      <trkpt lat="46.083384118974209" lon="10.496546281501651">
        <ele>2026.5999999999999</ele>
        <time>2018-07-09T15:12:18Z</time>
      </trkpt>
      <trkpt lat="46.083322176709771" lon="10.496443770825863">
        <ele>2026.5999999999999</ele>
        <time>2018-07-09T15:12:36Z</time>
      </trkpt>
      <trkpt lat="46.083356374874711" lon="10.496634040027857">
        <ele>2026.5999999999999</ele>
        <time>2018-07-09T15:12:56Z</time>
      </trkpt>
      <trkpt lat="46.083415383473039" lon="10.497117340564728">
        <ele>2026.5999999999999</ele>
        <time>2018-07-09T15:13:12Z</time>
      </trkpt>
      <trkpt lat="46.083439104259014" lon="10.497200656682253">
        <ele>2026.5999999999999</ele>
        <time>2018-07-09T15:13:26Z</time>
      </trkpt>
      <trkpt lat="46.083465423434973" lon="10.497420933097601">
        <ele>2026.5999999999999</ele>
        <time>2018-07-09T15:13:39Z</time>
      </trkpt>
      <trkpt lat="46.083573549985886" lon="10.498090395703912">
        <ele>2026.5999999999999</ele>
        <time>2018-07-09T15:13:54Z</time>
      </trkpt>
      <trkpt lat="46.08363633044064" lon="10.498456684872508">
        <ele>2027.0799999999999</ele>
        <time>2018-07-09T15:14:08Z</time>
      </trkpt>
      <trkpt lat="46.083646975457668" lon="10.498365992680192">
        <ele>2026.5999999999999</ele>
        <time>2018-07-09T15:14:21Z</time>
      </trkpt>
      <trkpt lat="46.083643790334463" lon="10.498321736231446">
        <ele>2026.5999999999999</ele>
        <time>2018-07-09T15:14:23Z</time>
      </trkpt>
      <trkpt lat="46.083550583571196" lon="10.497757382690907">
        <ele>2026.5999999999999</ele>
        <time>2018-07-09T15:14:47Z</time>
      </trkpt>
      <trkpt lat="46.083525940775871" lon="10.497719496488571">
        <ele>2026.5999999999999</ele>
        <time>2018-07-09T15:14:54Z</time>
      </trkpt>
      <trkpt lat="46.083508506417274" lon="10.497731566429138">
        <ele>2026.5999999999999</ele>
        <time>2018-07-09T15:15:19Z</time>
      </trkpt>
      <trkpt lat="46.083483444526792" lon="10.497562922537327">
        <ele>2027.5599999999999</ele>
        <time>2018-07-09T15:15:38Z</time>
      </trkpt>
    </trkseg>
  </trk>

  <trk>
    <name>4adamello2018-07-10</name>
    <extensions>
      <gpxx:TrackExtension>
        <gpxx:DisplayColor>Yellow</gpxx:DisplayColor>
      </gpxx:TrackExtension>
      <gpxtrkx:TrackStatsExtension xmlns:gpxtrkx="http://www.garmin.com/xmlschemas/TrackStatsExtension/v1">
        <gpxtrkx:Distance>10656</gpxtrkx:Distance>
        <gpxtrkx:TotalElapsedTime>19912</gpxtrkx:TotalElapsedTime>
        <gpxtrkx:MovingTime>13692</gpxtrkx:MovingTime>
        <gpxtrkx:StoppedTime>5891</gpxtrkx:StoppedTime>
        <gpxtrkx:MovingSpeed>1</gpxtrkx:MovingSpeed>
        <gpxtrkx:MaxSpeed>3</gpxtrkx:MaxSpeed>
        <gpxtrkx:MaxElevation>2782</gpxtrkx:MaxElevation>
        <gpxtrkx:MinElevation>2012</gpxtrkx:MinElevation>
        <gpxtrkx:Ascent>772</gpxtrkx:Ascent>
        <gpxtrkx:Descent>563</gpxtrkx:Descent>
        <gpxtrkx:AvgAscentRate>0</gpxtrkx:AvgAscentRate>
        <gpxtrkx:MaxAscentRate>0</gpxtrkx:MaxAscentRate>
        <gpxtrkx:AvgDescentRate>0</gpxtrkx:AvgDescentRate>
        <gpxtrkx:MaxDescentRate>-0</gpxtrkx:MaxDescentRate>
      </gpxtrkx:TrackStatsExtension>
    </extensions>
    <trkseg>
      <trkpt lat="46.083246739581227" lon="10.496609648689628">
        <ele>2019.8699999999999</ele>
        <time>2018-07-10T06:00:21Z</time>
      </trkpt>
      <trkpt lat="46.083247577771544" lon="10.496614007279277">
        <ele>2019.8699999999999</ele>
        <time>2018-07-10T06:00:22Z</time>
      </trkpt>
      <trkpt lat="46.083240201696754" lon="10.496607888489962">
        <ele>2019.8699999999999</ele>
        <time>2018-07-10T06:00:29Z</time>
      </trkpt>
      <trkpt lat="46.08326350338757" lon="10.49655701033771">
        <ele>2019.8699999999999</ele>
        <time>2018-07-10T06:00:35Z</time>
      </trkpt>
      <trkpt lat="46.083314549177885" lon="10.496480399742723">
        <ele>2019.3900000000001</ele>
        <time>2018-07-10T06:00:45Z</time>
      </trkpt>
      <trkpt lat="46.083355955779552" lon="10.496440082788467">
        <ele>2018.9100000000001</ele>
        <time>2018-07-10T06:00:54Z</time>
      </trkpt>
      <trkpt lat="46.083422256633639" lon="10.496421894058585">
        <ele>2017.9400000000001</ele>
        <time>2018-07-10T06:01:06Z</time>
      </trkpt>
      <trkpt lat="46.08347162604332" lon="10.496445028111339">
        <ele>2017.9400000000001</ele>
        <time>2018-07-10T06:01:17Z</time>
      </trkpt>
      <trkpt lat="46.083531389012933" lon="10.496491547673941">
        <ele>2016.02</ele>
        <time>2018-07-10T06:01:30Z</time>
      </trkpt>
      <trkpt lat="46.083584697917104" lon="10.496534965932369">
        <ele>2015.54</ele>
        <time>2018-07-10T06:01:38Z</time>
      </trkpt>
      <trkpt lat="46.083647813647985" lon="10.496597411110997">
        <ele>2014.0999999999999</ele>
        <time>2018-07-10T06:01:48Z</time>
      </trkpt>
      <trkpt lat="46.083719981834292" lon="10.496658599004149">
        <ele>2013.1400000000001</ele>
        <time>2018-07-10T06:01:59Z</time>
      </trkpt>
      <trkpt lat="46.083787707611918" lon="10.496750883758068">
        <ele>2012.6600000000001</ele>
        <time>2018-07-10T06:02:08Z</time>
      </trkpt>
      <trkpt lat="46.083824671804905" lon="10.496815089136362">
        <ele>2013.1400000000001</ele>
        <time>2018-07-10T06:02:14Z</time>
      </trkpt>
      <trkpt lat="46.083895415067673" lon="10.496885413303971">
        <ele>2013.6199999999999</ele>
        <time>2018-07-10T06:02:23Z</time>
      </trkpt>
      <trkpt lat="46.083985017612576" lon="10.496960431337357">
        <ele>2012.6600000000001</ele>
        <time>2018-07-10T06:02:33Z</time>
      </trkpt>
      <trkpt lat="46.084078643471003" lon="10.497013824060559">
        <ele>2013.1400000000001</ele>
        <time>2018-07-10T06:02:43Z</time>
      </trkpt>
      <trkpt lat="46.084104543551803" lon="10.497034024447203">
        <ele>2012.6600000000001</ele>
        <time>2018-07-10T06:02:46Z</time>
      </trkpt>
      <trkpt lat="46.084255753085017" lon="10.49715556204319">
        <ele>2012.6600000000001</ele>
        <time>2018-07-10T06:02:57Z</time>
      </trkpt>
      <trkpt lat="46.08430621214211" lon="10.497194202616811">
        <ele>2013.1400000000001</ele>
        <time>2018-07-10T06:03:04Z</time>
      </trkpt>
      <trkpt lat="46.084311073645949" lon="10.497189173474908">
        <ele>2013.1400000000001</ele>
        <time>2018-07-10T06:03:05Z</time>
      </trkpt>
      <trkpt lat="46.084333201870322" lon="10.497168302536011">
        <ele>2013.1400000000001</ele>
        <time>2018-07-10T06:03:08Z</time>
      </trkpt>
      <trkpt lat="46.084338147193193" lon="10.497154137119651">
        <ele>2013.1400000000001</ele>
        <time>2018-07-10T06:03:09Z</time>
      </trkpt>
      <trkpt lat="46.08435750938952" lon="10.497100073844194">
        <ele>2013.1400000000001</ele>
        <time>2018-07-10T06:03:13Z</time>
      </trkpt>
      <trkpt lat="46.084374776110053" lon="10.497060092166066">
        <ele>2013.1400000000001</ele>
        <time>2018-07-10T06:03:16Z</time>
      </trkpt>
      <trkpt lat="46.084378799423575" lon="10.497047603130341">
        <ele>2013.1400000000001</ele>
        <time>2018-07-10T06:03:17Z</time>
      </trkpt>
      <trkpt lat="46.084425654262304" lon="10.496918521821499">
        <ele>2013.1400000000001</ele>
        <time>2018-07-10T06:03:26Z</time>
      </trkpt>
      <trkpt lat="46.084435796365142" lon="10.496887508779764">
        <ele>2013.1400000000001</ele>
        <time>2018-07-10T06:03:32Z</time>
      </trkpt>
      <trkpt lat="46.084491452202201" lon="10.49685942940414">
        <ele>2012.6600000000001</ele>
        <time>2018-07-10T06:03:41Z</time>
      </trkpt>
      <trkpt lat="46.08451777137816" lon="10.496869152411819">
        <ele>2013.1400000000001</ele>
        <time>2018-07-10T06:03:52Z</time>
      </trkpt>
      <trkpt lat="46.084529338404536" lon="10.496879294514656">
        <ele>2013.1400000000001</ele>
        <time>2018-07-10T06:03:53Z</time>
      </trkpt>
      <trkpt lat="46.084540318697691" lon="10.496888682246208">
        <ele>2013.1400000000001</ele>
        <time>2018-07-10T06:03:54Z</time>
      </trkpt>
      <trkpt lat="46.084547862410545" lon="10.496897147968411">
        <ele>2013.1400000000001</ele>
        <time>2018-07-10T06:03:55Z</time>
      </trkpt>
      <trkpt lat="46.084558172151446" lon="10.496901841834188">
        <ele>2013.1400000000001</ele>
        <time>2018-07-10T06:03:56Z</time>
      </trkpt>
      <trkpt lat="46.084571080282331" lon="10.49690829589963">
        <ele>2013.1400000000001</ele>
        <time>2018-07-10T06:03:57Z</time>
      </trkpt>
      <trkpt lat="46.0845813062042" lon="10.496911481022835">
        <ele>2013.1400000000001</ele>
        <time>2018-07-10T06:03:58Z</time>
      </trkpt>
      <trkpt lat="46.084592957049608" lon="10.496915839612484">
        <ele>2013.1400000000001</ele>
        <time>2018-07-10T06:03:59Z</time>
      </trkpt>
      <trkpt lat="46.08460477553308" lon="10.496925730258226">
        <ele>2013.1400000000001</ele>
        <time>2018-07-10T06:04:00Z</time>
      </trkpt>
      <trkpt lat="46.084628915414214" lon="10.496962945908308">
        <ele>2013.1400000000001</ele>
        <time>2018-07-10T06:04:03Z</time>
      </trkpt>
      <trkpt lat="46.08473134227097" lon="10.497021703049541">
        <ele>2013.1400000000001</ele>
        <time>2018-07-10T06:04:13Z</time>
      </trkpt>
      <trkpt lat="46.084848018363118" lon="10.497019020840526">
        <ele>2012.6600000000001</ele>
        <time>2018-07-10T06:04:25Z</time>
      </trkpt>
      <trkpt lat="46.084963688626885" lon="10.496994545683265">
        <ele>2013.1400000000001</ele>
        <time>2018-07-10T06:04:37Z</time>
      </trkpt>
      <trkpt lat="46.085058068856597" lon="10.497009214013815">
        <ele>2013.6199999999999</ele>
        <time>2018-07-10T06:04:49Z</time>
      </trkpt>
      <trkpt lat="46.085147336125374" lon="10.497026396915317">
        <ele>2013.6199999999999</ele>
        <time>2018-07-10T06:04:58Z</time>
      </trkpt>
      <trkpt lat="46.085257390514016" lon="10.497015919536352">
        <ele>2014.0999999999999</ele>
        <time>2018-07-10T06:05:09Z</time>
      </trkpt>
      <trkpt lat="46.085324697196484" lon="10.496979542076588">
        <ele>2013.6199999999999</ele>
        <time>2018-07-10T06:05:16Z</time>
      </trkpt>
      <trkpt lat="46.085445480421185" lon="10.497003849595785">
        <ele>2013.6199999999999</ele>
        <time>2018-07-10T06:05:27Z</time>
      </trkpt>
      <trkpt lat="46.085518067702651" lon="10.497032096609473">
        <ele>2013.6199999999999</ele>
        <time>2018-07-10T06:05:34Z</time>
      </trkpt>
      <trkpt lat="46.085614962503314" lon="10.497094541788101">
        <ele>2013.6199999999999</ele>
        <time>2018-07-10T06:05:44Z</time>
      </trkpt>
      <trkpt lat="46.085708253085613" lon="10.497199399396777">
        <ele>2013.1400000000001</ele>
        <time>2018-07-10T06:05:56Z</time>
      </trkpt>
      <trkpt lat="46.085738260298967" lon="10.497219180688262">
        <ele>2013.1400000000001</ele>
        <time>2018-07-10T06:05:59Z</time>
      </trkpt>
      <trkpt lat="46.085783774033189" lon="10.49724105745554">
        <ele>2013.6199999999999</ele>
        <time>2018-07-10T06:06:03Z</time>
      </trkpt>
      <trkpt lat="46.085838759317994" lon="10.497259749099612">
        <ele>2013.6199999999999</ele>
        <time>2018-07-10T06:06:10Z</time>
      </trkpt>
      <trkpt lat="46.085945377126336" lon="10.49727232195437">
        <ele>2014.0999999999999</ele>
        <time>2018-07-10T06:06:21Z</time>
      </trkpt>
      <trkpt lat="46.086051994934678" lon="10.497309286147356">
        <ele>2014.0999999999999</ele>
        <time>2018-07-10T06:06:32Z</time>
      </trkpt>
      <trkpt lat="46.086101783439517" lon="10.497341807931662">
        <ele>2014.0999999999999</ele>
        <time>2018-07-10T06:06:37Z</time>
      </trkpt>
      <trkpt lat="46.086110584437847" lon="10.497355721890926">
        <ele>2014.0999999999999</ele>
        <time>2018-07-10T06:06:38Z</time>
      </trkpt>
      <trkpt lat="46.08613807708025" lon="10.497377263382077">
        <ele>2014.0999999999999</ele>
        <time>2018-07-10T06:06:41Z</time>
      </trkpt>
      <trkpt lat="46.086227428168058" lon="10.497401403263211">
        <ele>2014.5799999999999</ele>
        <time>2018-07-10T06:06:50Z</time>
      </trkpt>
      <trkpt lat="46.086320970207453" lon="10.497410371899605">
        <ele>2015.0599999999999</ele>
        <time>2018-07-10T06:07:00Z</time>
      </trkpt>
      <trkpt lat="46.08634234406054" lon="10.497412886470556">
        <ele>2015.0599999999999</ele>
        <time>2018-07-10T06:07:02Z</time>
      </trkpt>
      <trkpt lat="46.086489278823137" lon="10.497438199818134">
        <ele>2015.0599999999999</ele>
        <time>2018-07-10T06:07:15Z</time>
      </trkpt>
      <trkpt lat="46.08662330545485" lon="10.497437864542007">
        <ele>2015.0599999999999</ele>
        <time>2018-07-10T06:07:27Z</time>
      </trkpt>
      <trkpt lat="46.086753308773041" lon="10.497505171224475">
        <ele>2015.54</ele>
        <time>2018-07-10T06:07:39Z</time>
      </trkpt>
      <trkpt lat="46.086859507486224" lon="10.497545739635825">
        <ele>2015.54</ele>
        <time>2018-07-10T06:07:50Z</time>
      </trkpt>
      <trkpt lat="46.08698146417737" lon="10.49759091809392">
        <ele>2016.02</ele>
        <time>2018-07-10T06:08:03Z</time>
      </trkpt>
      <trkpt lat="46.087087243795395" lon="10.497712204232812">
        <ele>2015.54</ele>
        <time>2018-07-10T06:08:14Z</time>
      </trkpt>
      <trkpt lat="46.08717106282711" lon="10.497799376025796">
        <ele>2015.0599999999999</ele>
        <time>2018-07-10T06:08:23Z</time>
      </trkpt>
      <trkpt lat="46.087179193273187" lon="10.497811362147331">
        <ele>2015.0599999999999</ele>
        <time>2018-07-10T06:08:24Z</time>
      </trkpt>
      <trkpt lat="46.08718765899539" lon="10.49782058224082">
        <ele>2015.0599999999999</ele>
        <time>2018-07-10T06:08:25Z</time>
      </trkpt>
      <trkpt lat="46.087196124717593" lon="10.497831478714943">
        <ele>2015.0599999999999</ele>
        <time>2018-07-10T06:08:26Z</time>
      </trkpt>
      <trkpt lat="46.087293941527605" lon="10.497909346595407">
        <ele>2015.54</ele>
        <time>2018-07-10T06:08:37Z</time>
      </trkpt>
      <trkpt lat="46.08735772781074" lon="10.497965002432466">
        <ele>2015.54</ele>
        <time>2018-07-10T06:08:44Z</time>
      </trkpt>
      <trkpt lat="46.087392345070839" lon="10.497998278588057">
        <ele>2015.54</ele>
        <time>2018-07-10T06:08:48Z</time>
      </trkpt>
      <trkpt lat="46.08740315772593" lon="10.498007917776704">
        <ele>2016.02</ele>
        <time>2018-07-10T06:08:49Z</time>
      </trkpt>
      <trkpt lat="46.087486892938614" lon="10.498106656596065">
        <ele>2016.5</ele>
        <time>2018-07-10T06:08:59Z</time>
      </trkpt>
      <trkpt lat="46.087549589574337" lon="10.498178489506245">
        <ele>2016.02</ele>
        <time>2018-07-10T06:09:07Z</time>
      </trkpt>
      <trkpt lat="46.087559731677175" lon="10.498179914429784">
        <ele>2016.02</ele>
        <time>2018-07-10T06:09:08Z</time>
      </trkpt>
      <trkpt lat="46.087569873780012" lon="10.498185530304909">
        <ele>2016.5</ele>
        <time>2018-07-10T06:09:09Z</time>
      </trkpt>
      <trkpt lat="46.087665595114231" lon="10.498272115364671">
        <ele>2016.02</ele>
        <time>2018-07-10T06:09:20Z</time>
      </trkpt>
      <trkpt lat="46.087727369740605" lon="10.498327016830444">
        <ele>2016.5</ele>
        <time>2018-07-10T06:09:27Z</time>
      </trkpt>
      <trkpt lat="46.087828790768981" lon="10.498373536393046">
        <ele>2016.5</ele>
        <time>2018-07-10T06:09:37Z</time>
      </trkpt>
      <trkpt lat="46.087838094681501" lon="10.498383846133947">
        <ele>2016.5</ele>
        <time>2018-07-10T06:09:38Z</time>
      </trkpt>
      <trkpt lat="46.087845722213387" lon="10.498398933559656">
        <ele>2016.5</ele>
        <time>2018-07-10T06:09:39Z</time>
      </trkpt>
      <trkpt lat="46.087869359180331" lon="10.498473448678851">
        <ele>2016.02</ele>
        <time>2018-07-10T06:09:44Z</time>
      </trkpt>
      <trkpt lat="46.087906407192349" lon="10.498536312952638">
        <ele>2016.02</ele>
        <time>2018-07-10T06:09:49Z</time>
      </trkpt>
      <trkpt lat="46.087915292009711" lon="10.49854570068419">
        <ele>2016.02</ele>
        <time>2018-07-10T06:09:50Z</time>
      </trkpt>
      <trkpt lat="46.087925853207707" lon="10.498558608815074">
        <ele>2016.02</ele>
        <time>2018-07-10T06:09:51Z</time>
      </trkpt>
      <trkpt lat="46.088017215952277" lon="10.498685175552964">
        <ele>2016.02</ele>
        <time>2018-07-10T06:10:03Z</time>
      </trkpt>
      <trkpt lat="46.08802417293191" lon="10.498696407303214">
        <ele>2016.02</ele>
        <time>2018-07-10T06:10:04Z</time>
      </trkpt>
      <trkpt lat="46.088030291721225" lon="10.498707219958305">
        <ele>2016.02</ele>
        <time>2018-07-10T06:10:05Z</time>
      </trkpt>
      <trkpt lat="46.088038422167301" lon="10.498722810298204">
        <ele>2016.02</ele>
        <time>2018-07-10T06:10:06Z</time>
      </trkpt>
      <trkpt lat="46.088047223165631" lon="10.498737394809723">
        <ele>2015.54</ele>
        <time>2018-07-10T06:10:07Z</time>
      </trkpt>
      <trkpt lat="46.088135233148932" lon="10.498881815001369">
        <ele>2016.02</ele>
        <time>2018-07-10T06:10:19Z</time>
      </trkpt>
      <trkpt lat="46.088198181241751" lon="10.498974099755287">
        <ele>2016.5</ele>
        <time>2018-07-10T06:10:27Z</time>
      </trkpt>
      <trkpt lat="46.088207568973303" lon="10.498990612104535">
        <ele>2016.5</ele>
        <time>2018-07-10T06:10:28Z</time>
      </trkpt>
      <trkpt lat="46.088211676105857" lon="10.49900402314961">
        <ele>2016.5</ele>
        <time>2018-07-10T06:10:29Z</time>
      </trkpt>
      <trkpt lat="46.088220812380314" lon="10.499017098918557">
        <ele>2016.5</ele>
        <time>2018-07-10T06:10:30Z</time>
      </trkpt>
      <trkpt lat="46.088226428255439" lon="10.499028330668807">
        <ele>2016.5</ele>
        <time>2018-07-10T06:10:31Z</time>
      </trkpt>
      <trkpt lat="46.088234726339579" lon="10.499043418094516">
        <ele>2016.5</ele>
        <time>2018-07-10T06:10:32Z</time>
      </trkpt>
      <trkpt lat="46.08831100165844" lon="10.499149784445763">
        <ele>2016.98</ele>
        <time>2018-07-10T06:10:43Z</time>
      </trkpt>
      <trkpt lat="46.088387193158269" lon="10.499235447496176">
        <ele>2017.9400000000001</ele>
        <time>2018-07-10T06:10:53Z</time>
      </trkpt>
      <trkpt lat="46.088465228676796" lon="10.499325133860111">
        <ele>2018.4300000000001</ele>
        <time>2018-07-10T06:11:03Z</time>
      </trkpt>
      <trkpt lat="46.088567404076457" lon="10.499427728354931">
        <ele>2018.4300000000001</ele>
        <time>2018-07-10T06:11:14Z</time>
      </trkpt>
      <trkpt lat="46.088662706315517" lon="10.499538453295827">
        <ele>2019.3900000000001</ele>
        <time>2018-07-10T06:11:26Z</time>
      </trkpt>
      <trkpt lat="46.088738143444061" lon="10.499671809375286">
        <ele>2019.8699999999999</ele>
        <time>2018-07-10T06:11:38Z</time>
      </trkpt>
      <trkpt lat="46.088797319680452" lon="10.499771386384964">
        <ele>2021.3099999999999</ele>
        <time>2018-07-10T06:11:49Z</time>
      </trkpt>
      <trkpt lat="46.088838977739215" lon="10.499829892069101">
        <ele>2022.75</ele>
        <time>2018-07-10T06:11:58Z</time>
      </trkpt>
      <trkpt lat="46.088845934718847" lon="10.49984984099865">
        <ele>2023.71</ele>
        <time>2018-07-10T06:12:11Z</time>
      </trkpt>
      <trkpt lat="46.088858256116509" lon="10.499883033335209">
        <ele>2023.71</ele>
        <time>2018-07-10T06:12:24Z</time>
      </trkpt>
      <trkpt lat="46.088872337713838" lon="10.49995151348412">
        <ele>2023.71</ele>
        <time>2018-07-10T06:12:38Z</time>
      </trkpt>
      <trkpt lat="46.088969567790627" lon="10.50004530698061">
        <ele>2023.23</ele>
        <time>2018-07-10T06:12:49Z</time>
      </trkpt>
      <trkpt lat="46.088989851996303" lon="10.500050503760576">
        <ele>2023.71</ele>
        <time>2018-07-10T06:12:51Z</time>
      </trkpt>
      <trkpt lat="46.089041903614998" lon="10.500034410506487">
        <ele>2023.71</ele>
        <time>2018-07-10T06:13:01Z</time>
      </trkpt>
      <trkpt lat="46.089078951627016" lon="10.500089731067419">
        <ele>2024.1900000000001</ele>
        <time>2018-07-10T06:13:07Z</time>
      </trkpt>
      <trkpt lat="46.08913385309279" lon="10.500209089368582">
        <ele>2024.1900000000001</ele>
        <time>2018-07-10T06:13:17Z</time>
      </trkpt>
      <trkpt lat="46.089184060692787" lon="10.50025250762701">
        <ele>2025.1500000000001</ele>
        <time>2018-07-10T06:13:25Z</time>
      </trkpt>
      <trkpt lat="46.089195376262069" lon="10.50025493837893">
        <ele>2025.1500000000001</ele>
        <time>2018-07-10T06:13:26Z</time>
      </trkpt>
      <trkpt lat="46.089247427880764" lon="10.500264242291451">
        <ele>2026.1199999999999</ele>
        <time>2018-07-10T06:13:36Z</time>
      </trkpt>
      <trkpt lat="46.089277770370245" lon="10.500322580337524">
        <ele>2026.5999999999999</ele>
        <time>2018-07-10T06:13:50Z</time>
      </trkpt>
      <trkpt lat="46.089322697371244" lon="10.500382091850042">
        <ele>2027.0799999999999</ele>
        <time>2018-07-10T06:13:59Z</time>
      </trkpt>
      <trkpt lat="46.089343149214983" lon="10.500401286408305">
        <ele>2027.0799999999999</ele>
        <time>2018-07-10T06:14:09Z</time>
      </trkpt>
      <trkpt lat="46.089356895536184" lon="10.500435568392277">
        <ele>2026.5999999999999</ele>
        <time>2018-07-10T06:14:22Z</time>
      </trkpt>
      <trkpt lat="46.08936888165772" lon="10.500454092398286">
        <ele>2027.0799999999999</ele>
        <time>2018-07-10T06:14:23Z</time>
      </trkpt>
      <trkpt lat="46.089377095922828" lon="10.500466665253043">
        <ele>2026.5999999999999</ele>
        <time>2018-07-10T06:14:24Z</time>
      </trkpt>
      <trkpt lat="46.089394362643361" lon="10.500489044934511">
        <ele>2027.0799999999999</ele>
        <time>2018-07-10T06:14:26Z</time>
      </trkpt>
      <trkpt lat="46.089406851679087" lon="10.500496756285429">
        <ele>2027.0799999999999</ele>
        <time>2018-07-10T06:14:27Z</time>
      </trkpt>
      <trkpt lat="46.089418921619654" lon="10.500506060197949">
        <ele>2027.0799999999999</ele>
        <time>2018-07-10T06:14:28Z</time>
      </trkpt>
      <trkpt lat="46.089430404826999" lon="10.500514358282089">
        <ele>2026.5999999999999</ele>
        <time>2018-07-10T06:14:29Z</time>
      </trkpt>
      <trkpt lat="46.08944121748209" lon="10.500522656366229">
        <ele>2027.0799999999999</ele>
        <time>2018-07-10T06:14:30Z</time>
      </trkpt>
      <trkpt lat="46.089455718174577" lon="10.500522404909134">
        <ele>2027.0799999999999</ele>
        <time>2018-07-10T06:14:32Z</time>
      </trkpt>
      <trkpt lat="46.089565940201283" lon="10.500546796247363">
        <ele>2028.04</ele>
        <time>2018-07-10T06:14:44Z</time>
      </trkpt>
      <trkpt lat="46.089642718434334" lon="10.500577306374907">
        <ele>2029</ele>
        <time>2018-07-10T06:14:52Z</time>
      </trkpt>
      <trkpt lat="46.089666020125151" lon="10.50059256143868">
        <ele>2029</ele>
        <time>2018-07-10T06:14:55Z</time>
      </trkpt>
      <trkpt lat="46.08968454413116" lon="10.500606140121818">
        <ele>2029.48</ele>
        <time>2018-07-10T06:14:57Z</time>
      </trkpt>
      <trkpt lat="46.089748917147517" lon="10.500631369650364">
        <ele>2030.4400000000001</ele>
        <time>2018-07-10T06:15:07Z</time>
      </trkpt>
      <trkpt lat="46.089824354276061" lon="10.500665903091431">
        <ele>2031.8800000000001</ele>
        <time>2018-07-10T06:15:17Z</time>
      </trkpt>
      <trkpt lat="46.08988587744534" lon="10.500687947496772">
        <ele>2032.3599999999999</ele>
        <time>2018-07-10T06:15:24Z</time>
      </trkpt>
      <trkpt lat="46.08992837369442" lon="10.500692306086421">
        <ele>2032.8399999999999</ele>
        <time>2018-07-10T06:15:30Z</time>
      </trkpt>
      <trkpt lat="46.090003978461027" lon="10.500721726566553">
        <ele>2033.8099999999999</ele>
        <time>2018-07-10T06:15:40Z</time>
      </trkpt>
      <trkpt lat="46.090068016201258" lon="10.500731198117137">
        <ele>2033.8099999999999</ele>
        <time>2018-07-10T06:15:47Z</time>
      </trkpt>
      <trkpt lat="46.090150661766529" lon="10.500740166753531">
        <ele>2034.77</ele>
        <time>2018-07-10T06:15:58Z</time>
      </trkpt>
      <trkpt lat="46.090173041447997" lon="10.500746872276068">
        <ele>2034.77</ele>
        <time>2018-07-10T06:16:01Z</time>
      </trkpt>
      <trkpt lat="46.090258117765188" lon="10.500759780406952">
        <ele>2035.73</ele>
        <time>2018-07-10T06:16:11Z</time>
      </trkpt>
      <trkpt lat="46.090301871299744" lon="10.500770257785916">
        <ele>2035.73</ele>
        <time>2018-07-10T06:16:15Z</time>
      </trkpt>
      <trkpt lat="46.090311594307423" lon="10.50077436491847">
        <ele>2035.73</ele>
        <time>2018-07-10T06:16:16Z</time>
      </trkpt>
      <trkpt lat="46.09038770198822" lon="10.500799175351858">
        <ele>2035.73</ele>
        <time>2018-07-10T06:16:26Z</time>
      </trkpt>
      <trkpt lat="46.090430784970522" lon="10.500817112624645">
        <ele>2036.21</ele>
        <time>2018-07-10T06:16:33Z</time>
      </trkpt>
      <trkpt lat="46.090460624545813" lon="10.500835971906781">
        <ele>2036.21</ele>
        <time>2018-07-10T06:16:36Z</time>
      </trkpt>
      <trkpt lat="46.090475292876363" lon="10.500838318839669">
        <ele>2036.21</ele>
        <time>2018-07-10T06:16:37Z</time>
      </trkpt>
      <trkpt lat="46.090545449405909" lon="10.50085642375052">
        <ele>2036.6900000000001</ele>
        <time>2018-07-10T06:16:46Z</time>
      </trkpt>
      <trkpt lat="46.090559866279364" lon="10.500863129273057">
        <ele>2037.1700000000001</ele>
        <time>2018-07-10T06:16:54Z</time>
      </trkpt>
      <trkpt lat="46.090645361691713" lon="10.500892885029316">
        <ele>2037.6500000000001</ele>
        <time>2018-07-10T06:17:04Z</time>
      </trkpt>
      <trkpt lat="46.090655336156487" lon="10.500895399600267">
        <ele>2037.6500000000001</ele>
        <time>2018-07-10T06:17:05Z</time>
      </trkpt>
      <trkpt lat="46.090666903182864" lon="10.500900512561202">
        <ele>2037.6500000000001</ele>
        <time>2018-07-10T06:17:06Z</time>
      </trkpt>
      <trkpt lat="46.090678805485368" lon="10.500905206426978">
        <ele>2037.6500000000001</ele>
        <time>2018-07-10T06:17:07Z</time>
      </trkpt>
      <trkpt lat="46.090693725273013" lon="10.500916102901101">
        <ele>2037.6500000000001</ele>
        <time>2018-07-10T06:17:08Z</time>
      </trkpt>
      <trkpt lat="46.090717781335115" lon="10.500933872535825">
        <ele>2037.6500000000001</ele>
        <time>2018-07-10T06:17:10Z</time>
      </trkpt>
      <trkpt lat="46.090729432180524" lon="10.500939404591918">
        <ele>2037.6500000000001</ele>
        <time>2018-07-10T06:17:11Z</time>
      </trkpt>
      <trkpt lat="46.09073655679822" lon="10.500949881970882">
        <ele>2037.6500000000001</ele>
        <time>2018-07-10T06:17:12Z</time>
      </trkpt>
      <trkpt lat="46.090787518769503" lon="10.501050967723131">
        <ele>2038.1300000000001</ele>
        <time>2018-07-10T06:17:22Z</time>
      </trkpt>
      <trkpt lat="46.090809814631939" lon="10.501081477850676">
        <ele>2038.6099999999999</ele>
        <time>2018-07-10T06:17:26Z</time>
      </trkpt>
      <trkpt lat="46.090879384428263" lon="10.50112565048039">
        <ele>2038.6099999999999</ele>
        <time>2018-07-10T06:17:35Z</time>
      </trkpt>
      <trkpt lat="46.090923137962818" lon="10.501148449257016">
        <ele>2039.0899999999999</ele>
        <time>2018-07-10T06:17:40Z</time>
      </trkpt>
      <trkpt lat="46.090958928689361" lon="10.501183485612273">
        <ele>2039.0899999999999</ele>
        <time>2018-07-10T06:17:46Z</time>
      </trkpt>
      <trkpt lat="46.091002933681011" lon="10.501212486997247">
        <ele>2039.5699999999999</ele>
        <time>2018-07-10T06:17:51Z</time>
      </trkpt>
      <trkpt lat="46.091039814054966" lon="10.501226987689734">
        <ele>2039.5699999999999</ele>
        <time>2018-07-10T06:17:55Z</time>
      </trkpt>
      <trkpt lat="46.091082226485014" lon="10.501246433705091">
        <ele>2039.5699999999999</ele>
        <time>2018-07-10T06:18:00Z</time>
      </trkpt>
      <trkpt lat="46.091091446578503" lon="10.501254899427295">
        <ele>2039.5699999999999</ele>
        <time>2018-07-10T06:18:01Z</time>
      </trkpt>
      <trkpt lat="46.091099996119738" lon="10.5012580845505">
        <ele>2039.5699999999999</ele>
        <time>2018-07-10T06:18:02Z</time>
      </trkpt>
      <trkpt lat="46.091178953647614" lon="10.501299910247326">
        <ele>2040.54</ele>
        <time>2018-07-10T06:18:13Z</time>
      </trkpt>
      <trkpt lat="46.091274507343769" lon="10.501396805047989">
        <ele>2040.54</ele>
        <time>2018-07-10T06:18:24Z</time>
      </trkpt>
      <trkpt lat="46.091354805976152" lon="10.501486072316766">
        <ele>2041.02</ele>
        <time>2018-07-10T06:18:35Z</time>
      </trkpt>
      <trkpt lat="46.091362768784165" lon="10.501576513051987">
        <ele>2040.54</ele>
        <time>2018-07-10T06:18:44Z</time>
      </trkpt>
      <trkpt lat="46.091377688571811" lon="10.501682376489043">
        <ele>2041.02</ele>
        <time>2018-07-10T06:18:55Z</time>
      </trkpt>
      <trkpt lat="46.091389926150441" lon="10.501747084781528">
        <ele>2041.5</ele>
        <time>2018-07-10T06:19:04Z</time>
      </trkpt>
      <trkpt lat="46.091393949463964" lon="10.501757310703397">
        <ele>2041.98</ele>
        <time>2018-07-10T06:19:05Z</time>
      </trkpt>
      <trkpt lat="46.091462932527065" lon="10.501836268231273">
        <ele>2042.46</ele>
        <time>2018-07-10T06:19:16Z</time>
      </trkpt>
      <trkpt lat="46.09148564748466" lon="10.501895025372505">
        <ele>2042.9400000000001</ele>
        <time>2018-07-10T06:19:25Z</time>
      </trkpt>
      <trkpt lat="46.091530406847596" lon="10.501948166638613">
        <ele>2043.9000000000001</ele>
        <time>2018-07-10T06:19:34Z</time>
      </trkpt>
      <trkpt lat="46.091566868126392" lon="10.502036511898041">
        <ele>2045.3399999999999</ele>
        <time>2018-07-10T06:19:45Z</time>
      </trkpt>
      <trkpt lat="46.091602658852935" lon="10.502102309837937">
        <ele>2046.3</ele>
        <time>2018-07-10T06:19:54Z</time>
      </trkpt>
      <trkpt lat="46.091655464842916" lon="10.502201719209552">
        <ele>2047.26</ele>
        <time>2018-07-10T06:20:05Z</time>
      </trkpt>
      <trkpt lat="46.091704247519374" lon="10.502286376431584">
        <ele>2048.23</ele>
        <time>2018-07-10T06:20:15Z</time>
      </trkpt>
      <trkpt lat="46.091760490089655" lon="10.502363406121731">
        <ele>2048.71</ele>
        <time>2018-07-10T06:20:25Z</time>
      </trkpt>
      <trkpt lat="46.091817822307348" lon="10.502429623156786">
        <ele>2049.1900000000001</ele>
        <time>2018-07-10T06:20:35Z</time>
      </trkpt>
      <trkpt lat="46.091855792328715" lon="10.502463737502694">
        <ele>2049.6700000000001</ele>
        <time>2018-07-10T06:20:43Z</time>
      </trkpt>
      <trkpt lat="46.091898120939732" lon="10.502530038356781">
        <ele>2049.6700000000001</ele>
        <time>2018-07-10T06:20:51Z</time>
      </trkpt>
      <trkpt lat="46.091950004920363" lon="10.502597009763122">
        <ele>2050.1500000000001</ele>
        <time>2018-07-10T06:21:00Z</time>
      </trkpt>
      <trkpt lat="46.091994345188141" lon="10.502706980332732">
        <ele>2051.1100000000001</ele>
        <time>2018-07-10T06:21:11Z</time>
      </trkpt>
      <trkpt lat="46.091994512826204" lon="10.502730868756771">
        <ele>2052.0700000000002</ele>
        <time>2018-07-10T06:21:23Z</time>
      </trkpt>
      <trkpt lat="46.091948579996824" lon="10.50274696201086">
        <ele>2051.5900000000001</ele>
        <time>2018-07-10T06:21:32Z</time>
      </trkpt>
      <trkpt lat="46.091962158679962" lon="10.502731371670961">
        <ele>2051.5900000000001</ele>
        <time>2018-07-10T06:21:42Z</time>
      </trkpt>
      <trkpt lat="46.092001553624868" lon="10.502733718603849">
        <ele>2052.0700000000002</ele>
        <time>2018-07-10T06:21:47Z</time>
      </trkpt>
      <trkpt lat="46.092082019895315" lon="10.502772610634565">
        <ele>2052.0700000000002</ele>
        <time>2018-07-10T06:21:57Z</time>
      </trkpt>
      <trkpt lat="46.092125186696649" lon="10.502776801586151">
        <ele>2052.5500000000002</ele>
        <time>2018-07-10T06:22:03Z</time>
      </trkpt>
      <trkpt lat="46.092211939394474" lon="10.502788620069623">
        <ele>2053.0300000000002</ele>
        <time>2018-07-10T06:22:13Z</time>
      </trkpt>
      <trkpt lat="46.092307828366756" lon="10.502771018072963">
        <ele>2053.5100000000002</ele>
        <time>2018-07-10T06:22:24Z</time>
      </trkpt>
      <trkpt lat="46.092370944097638" lon="10.502756014466286">
        <ele>2053.5100000000002</ele>
        <time>2018-07-10T06:22:33Z</time>
      </trkpt>
      <trkpt lat="46.092387540265918" lon="10.502754589542747">
        <ele>2053.5100000000002</ele>
        <time>2018-07-10T06:22:35Z</time>
      </trkpt>
      <trkpt lat="46.09246239066124" lon="10.502748973667622">
        <ele>2053.5100000000002</ele>
        <time>2018-07-10T06:22:42Z</time>
      </trkpt>
      <trkpt lat="46.092473622411489" lon="10.502748973667622">
        <ele>2053.5100000000002</ele>
        <time>2018-07-10T06:22:43Z</time>
      </trkpt>
      <trkpt lat="46.092594237998128" lon="10.502698682248592">
        <ele>2053.0300000000002</ele>
        <time>2018-07-10T06:22:55Z</time>
      </trkpt>
      <trkpt lat="46.092708231881261" lon="10.502633051946759">
        <ele>2052.0700000000002</ele>
        <time>2018-07-10T06:23:06Z</time>
      </trkpt>
      <trkpt lat="46.092737400904298" lon="10.502615533769131">
        <ele>2051.5900000000001</ele>
        <time>2018-07-10T06:23:09Z</time>
      </trkpt>
      <trkpt lat="46.092750895768404" lon="10.502621820196509">
        <ele>2051.5900000000001</ele>
        <time>2018-07-10T06:23:10Z</time>
      </trkpt>
      <trkpt lat="46.092763803899288" lon="10.502634309232235">
        <ele>2051.5900000000001</ele>
        <time>2018-07-10T06:23:11Z</time>
      </trkpt>
      <trkpt lat="46.092772604897618" lon="10.502647552639246">
        <ele>2051.5900000000001</ele>
        <time>2018-07-10T06:23:12Z</time>
      </trkpt>
      <trkpt lat="46.092779478058219" lon="10.502661718055606">
        <ele>2051.5900000000001</ele>
        <time>2018-07-10T06:23:13Z</time>
      </trkpt>
      <trkpt lat="46.09280101954937" lon="10.502659035846591">
        <ele>2051.5900000000001</ele>
        <time>2018-07-10T06:23:16Z</time>
      </trkpt>
      <trkpt lat="46.092858770862222" lon="10.502622742205858">
        <ele>2052.0700000000002</ele>
        <time>2018-07-10T06:23:23Z</time>
      </trkpt>
      <trkpt lat="46.092990031465888" lon="10.502620646730065">
        <ele>2052.0700000000002</ele>
        <time>2018-07-10T06:23:36Z</time>
      </trkpt>
      <trkpt lat="46.093088435009122" lon="10.502638500183821">
        <ele>2052.0700000000002</ele>
        <time>2018-07-10T06:23:46Z</time>
      </trkpt>
      <trkpt lat="46.09311668202281" lon="10.502641517668962">
        <ele>2052.0700000000002</ele>
        <time>2018-07-10T06:23:49Z</time>
      </trkpt>
      <trkpt lat="46.093204608187079" lon="10.502691976726055">
        <ele>2052.0700000000002</ele>
        <time>2018-07-10T06:23:59Z</time>
      </trkpt>
      <trkpt lat="46.093244003131986" lon="10.502702537924051">
        <ele>2052.5500000000002</ele>
        <time>2018-07-10T06:24:04Z</time>
      </trkpt>
      <trkpt lat="46.093256659805775" lon="10.50270882435143">
        <ele>2052.0700000000002</ele>
        <time>2018-07-10T06:24:05Z</time>
      </trkpt>
      <trkpt lat="46.093317260965705" lon="10.502721900120378">
        <ele>2052.5500000000002</ele>
        <time>2018-07-10T06:24:13Z</time>
      </trkpt>
      <trkpt lat="46.093341484665871" lon="10.502709494903684">
        <ele>2052.0700000000002</ele>
        <time>2018-07-10T06:24:16Z</time>
      </trkpt>
      <trkpt lat="46.093397894874215" lon="10.502758361399174">
        <ele>2052.5500000000002</ele>
        <time>2018-07-10T06:24:23Z</time>
      </trkpt>
      <trkpt lat="46.093429829925299" lon="10.502757271751761">
        <ele>2053.0300000000002</ele>
        <time>2018-07-10T06:24:27Z</time>
      </trkpt>
      <trkpt lat="46.093514235690236" lon="10.502756098285317">
        <ele>2053.0300000000002</ele>
        <time>2018-07-10T06:24:35Z</time>
      </trkpt>
      <trkpt lat="46.093586990609765" lon="10.50278895534575">
        <ele>2053.0300000000002</ele>
        <time>2018-07-10T06:24:43Z</time>
      </trkpt>
      <trkpt lat="46.093590846285224" lon="10.502829942852259">
        <ele>2053.5100000000002</ele>
        <time>2018-07-10T06:24:51Z</time>
      </trkpt>
      <trkpt lat="46.09358967281878" lon="10.502817872911692">
        <ele>2052.0700000000002</ele>
        <time>2018-07-10T06:25:01Z</time>
      </trkpt>
      <trkpt lat="46.093605346977711" lon="10.502798426896334">
        <ele>2052.0700000000002</ele>
        <time>2018-07-10T06:25:26Z</time>
      </trkpt>
      <trkpt lat="46.09361607581377" lon="10.502830697223544">
        <ele>2052.5500000000002</ele>
        <time>2018-07-10T06:25:33Z</time>
      </trkpt>
      <trkpt lat="46.093588164076209" lon="10.502843353897333">
        <ele>2053.0300000000002</ele>
        <time>2018-07-10T06:25:40Z</time>
      </trkpt>
      <trkpt lat="46.093578608706594" lon="10.502818794921041">
        <ele>2053.0300000000002</ele>
        <time>2018-07-10T06:25:55Z</time>
      </trkpt>
      <trkpt lat="46.093572406098247" lon="10.50281292758882">
        <ele>2053.0300000000002</ele>
        <time>2018-07-10T06:26:11Z</time>
      </trkpt>
      <trkpt lat="46.093645412474871" lon="10.502805970609188">
        <ele>2053.0300000000002</ele>
        <time>2018-07-10T06:26:29Z</time>
      </trkpt>
      <trkpt lat="46.093682795763016" lon="10.502811754122376">
        <ele>2053.5100000000002</ele>
        <time>2018-07-10T06:26:33Z</time>
      </trkpt>
      <trkpt lat="46.093749180436134" lon="10.502822734415531">
        <ele>2053.0300000000002</ele>
        <time>2018-07-10T06:26:39Z</time>
      </trkpt>
      <trkpt lat="46.093805087730289" lon="10.502848383039236">
        <ele>2053.5100000000002</ele>
        <time>2018-07-10T06:26:48Z</time>
      </trkpt>
      <trkpt lat="46.093958895653486" lon="10.502896914258599">
        <ele>2053.5100000000002</ele>
        <time>2018-07-10T06:27:02Z</time>
      </trkpt>
      <trkpt lat="46.094053443521261" lon="10.502940751612186">
        <ele>2053.5100000000002</ele>
        <time>2018-07-10T06:27:11Z</time>
      </trkpt>
      <trkpt lat="46.094088479876518" lon="10.502963215112686">
        <ele>2053.5100000000002</ele>
        <time>2018-07-10T06:27:15Z</time>
      </trkpt>
      <trkpt lat="46.094120247289538" lon="10.502979308366776">
        <ele>2053.5100000000002</ele>
        <time>2018-07-10T06:27:18Z</time>
      </trkpt>
      <trkpt lat="46.094214878976345" lon="10.503055332228541">
        <ele>2053.5100000000002</ele>
        <time>2018-07-10T06:27:29Z</time>
      </trkpt>
      <trkpt lat="46.094309343025088" lon="10.503121633082628">
        <ele>2053.0300000000002</ele>
        <time>2018-07-10T06:27:40Z</time>
      </trkpt>
      <trkpt lat="46.094367345795035" lon="10.503162704408169">
        <ele>2053.0300000000002</ele>
        <time>2018-07-10T06:27:49Z</time>
      </trkpt>
      <trkpt lat="46.094433227553964" lon="10.503206374123693">
        <ele>2053.0300000000002</ele>
        <time>2018-07-10T06:27:58Z</time>
      </trkpt>
      <trkpt lat="46.094488548114896" lon="10.503229508176446">
        <ele>2053.0300000000002</ele>
        <time>2018-07-10T06:28:05Z</time>
      </trkpt>
      <trkpt lat="46.094575636088848" lon="10.503279631957412">
        <ele>2053.5100000000002</ele>
        <time>2018-07-10T06:28:15Z</time>
      </trkpt>
      <trkpt lat="46.094661047682166" lon="10.503331096842885">
        <ele>2053.9899999999998</ele>
        <time>2018-07-10T06:28:25Z</time>
      </trkpt>
      <trkpt lat="46.09470178373158" lon="10.503345262259245">
        <ele>2054.4699999999998</ele>
        <time>2018-07-10T06:28:30Z</time>
      </trkpt>
      <trkpt lat="46.094760624691844" lon="10.503368144854903">
        <ele>2054.96</ele>
        <time>2018-07-10T06:28:37Z</time>
      </trkpt>
      <trkpt lat="46.094840168952942" lon="10.503396224230528">
        <ele>2055.9200000000001</ele>
        <time>2018-07-10T06:28:47Z</time>
      </trkpt>
      <trkpt lat="46.09489481896162" lon="10.503480797633529">
        <ele>2056.8800000000001</ele>
        <time>2018-07-10T06:28:57Z</time>
      </trkpt>
      <trkpt lat="46.094907391816378" lon="10.503523126244545">
        <ele>2056.8800000000001</ele>
        <time>2018-07-10T06:29:06Z</time>
      </trkpt>
      <trkpt lat="46.094966316595674" lon="10.503609208390117">
        <ele>2057.8400000000001</ele>
        <time>2018-07-10T06:29:16Z</time>
      </trkpt>
      <trkpt lat="46.095019960775971" lon="10.503671821206808">
        <ele>2058.8000000000002</ele>
        <time>2018-07-10T06:29:25Z</time>
      </trkpt>
      <trkpt lat="46.095073940232396" lon="10.503745414316654">
        <ele>2059.2800000000002</ele>
        <time>2018-07-10T06:29:34Z</time>
      </trkpt>
      <trkpt lat="46.095147952437401" lon="10.503782629966736">
        <ele>2060.2399999999998</ele>
        <time>2018-07-10T06:29:45Z</time>
      </trkpt>
      <trkpt lat="46.095237890258431" lon="10.503819510340691">
        <ele>2060.2399999999998</ele>
        <time>2018-07-10T06:29:54Z</time>
      </trkpt>
      <trkpt lat="46.095330426469445" lon="10.50395823083818">
        <ele>2060.7199999999998</ele>
        <time>2018-07-10T06:30:07Z</time>
      </trkpt>
      <trkpt lat="46.095413155853748" lon="10.504042888060212">
        <ele>2061.6799999999998</ele>
        <time>2018-07-10T06:30:20Z</time>
      </trkpt>
      <trkpt lat="46.095474176108837" lon="10.504133412614465">
        <ele>2062.6500000000001</ele>
        <time>2018-07-10T06:30:32Z</time>
      </trkpt>
      <trkpt lat="46.095526646822691" lon="10.504177082329988">
        <ele>2064.0900000000001</ele>
        <time>2018-07-10T06:30:42Z</time>
      </trkpt>
      <trkpt lat="46.095524048432708" lon="10.504191666841507">
        <ele>2064.0900000000001</ele>
        <time>2018-07-10T06:30:43Z</time>
      </trkpt>
      <trkpt lat="46.095525221899152" lon="10.504251094534993">
        <ele>2064.0900000000001</ele>
        <time>2018-07-10T06:30:47Z</time>
      </trkpt>
      <trkpt lat="46.09557299874723" lon="10.504323933273554">
        <ele>2064.0900000000001</ele>
        <time>2018-07-10T06:30:55Z</time>
      </trkpt>
      <trkpt lat="46.095583643764257" lon="10.504329213872552">
        <ele>2064.0900000000001</ele>
        <time>2018-07-10T06:30:56Z</time>
      </trkpt>
      <trkpt lat="46.095592360943556" lon="10.504341116175056">
        <ele>2064.0900000000001</ele>
        <time>2018-07-10T06:30:57Z</time>
      </trkpt>
      <trkpt lat="46.095611471682787" lon="10.504405656829476">
        <ele>2064.5700000000002</ele>
        <time>2018-07-10T06:31:03Z</time>
      </trkpt>
      <trkpt lat="46.095629492774606" lon="10.504484530538321">
        <ele>2065.5300000000002</ele>
        <time>2018-07-10T06:31:12Z</time>
      </trkpt>
      <trkpt lat="46.095639048144221" lon="10.504502970725298">
        <ele>2065.5300000000002</ele>
        <time>2018-07-10T06:31:14Z</time>
      </trkpt>
      <trkpt lat="46.095685148611665" lon="10.504577737301588">
        <ele>2067.4499999999998</ele>
        <time>2018-07-10T06:31:25Z</time>
      </trkpt>
      <trkpt lat="46.095688082277775" lon="10.504587795585394">
        <ele>2067.4499999999998</ele>
        <time>2018-07-10T06:31:26Z</time>
      </trkpt>
      <trkpt lat="46.095707444474101" lon="10.504665160551667">
        <ele>2067.4499999999998</ele>
        <time>2018-07-10T06:31:34Z</time>
      </trkpt>
      <trkpt lat="46.095739379525185" lon="10.504734562709928">
        <ele>2067.9299999999998</ele>
        <time>2018-07-10T06:31:45Z</time>
      </trkpt>
      <trkpt lat="46.095780367031693" lon="10.504823410883546">
        <ele>2068.8899999999999</ele>
        <time>2018-07-10T06:31:55Z</time>
      </trkpt>
      <trkpt lat="46.095807189121842" lon="10.504924412816763">
        <ele>2070.3400000000001</ele>
        <time>2018-07-10T06:32:06Z</time>
      </trkpt>
      <trkpt lat="46.095839878544211" lon="10.505017368122935">
        <ele>2071.3000000000002</ele>
        <time>2018-07-10T06:32:16Z</time>
      </trkpt>
      <trkpt lat="46.095880614593625" lon="10.505110993981361">
        <ele>2072.2600000000002</ele>
        <time>2018-07-10T06:32:27Z</time>
      </trkpt>
      <trkpt lat="46.095927134156227" lon="10.505202943459153">
        <ele>2073.6999999999998</ele>
        <time>2018-07-10T06:32:38Z</time>
      </trkpt>
      <trkpt lat="46.095976419746876" lon="10.505299000069499">
        <ele>2075.1399999999999</ele>
        <time>2018-07-10T06:32:50Z</time>
      </trkpt>
      <trkpt lat="46.096013886854053" lon="10.505386842414737">
        <ele>2076.0999999999999</ele>
        <time>2018-07-10T06:33:01Z</time>
      </trkpt>
      <trkpt lat="46.096066609025002" lon="10.505479630082846">
        <ele>2077.5500000000002</ele>
        <time>2018-07-10T06:33:12Z</time>
      </trkpt>
      <trkpt lat="46.096077840775251" lon="10.505602760240436">
        <ele>2078.9899999999998</ele>
        <time>2018-07-10T06:33:25Z</time>
      </trkpt>
      <trkpt lat="46.096017826348543" lon="10.505707282572985">
        <ele>2079.4699999999998</ele>
        <time>2018-07-10T06:33:36Z</time>
      </trkpt>
      <trkpt lat="46.096012042835355" lon="10.505716921761632">
        <ele>2079.9499999999998</ele>
        <time>2018-07-10T06:33:37Z</time>
      </trkpt>
      <trkpt lat="46.095975833013654" lon="10.505784228444099">
        <ele>2080.9099999999999</ele>
        <time>2018-07-10T06:33:46Z</time>
      </trkpt>
      <trkpt lat="46.095955213531852" lon="10.505777606740594">
        <ele>2081.3899999999999</ele>
        <time>2018-07-10T06:33:56Z</time>
      </trkpt>
      <trkpt lat="46.095950687304139" lon="10.505748940631747">
        <ele>2081.3899999999999</ele>
        <time>2018-07-10T06:34:14Z</time>
      </trkpt>
      <trkpt lat="46.095955045893788" lon="10.505813229829073">
        <ele>2081.8699999999999</ele>
        <time>2018-07-10T06:34:25Z</time>
      </trkpt>
      <trkpt lat="46.09595462679863" lon="10.505808955058455">
        <ele>2081.8699999999999</ele>
        <time>2018-07-10T06:34:40Z</time>
      </trkpt>
      <trkpt lat="46.095937695354223" lon="10.505841476842761">
        <ele>2082.3499999999999</ele>
        <time>2018-07-10T06:34:50Z</time>
      </trkpt>
      <trkpt lat="46.095931744202971" lon="10.50590543076396">
        <ele>2082.3499999999999</ele>
        <time>2018-07-10T06:35:00Z</time>
      </trkpt>
      <trkpt lat="46.095942808315158" lon="10.505946753546596">
        <ele>2082.3499999999999</ele>
        <time>2018-07-10T06:35:09Z</time>
      </trkpt>
      <trkpt lat="46.095957309007645" lon="10.506018670275807">
        <ele>2082.3499999999999</ele>
        <time>2018-07-10T06:35:19Z</time>
      </trkpt>
      <trkpt lat="46.095948591828346" lon="10.50606275908649">
        <ele>2081.8699999999999</ele>
        <time>2018-07-10T06:35:26Z</time>
      </trkpt>
      <trkpt lat="46.095953285694122" lon="10.506077008321881">
        <ele>2081.8699999999999</ele>
        <time>2018-07-10T06:35:27Z</time>
      </trkpt>
      <trkpt lat="46.095971055328846" lon="10.506164515390992">
        <ele>2081.3899999999999</ele>
        <time>2018-07-10T06:35:34Z</time>
      </trkpt>
      <trkpt lat="46.095978682860732" lon="10.506181698292494">
        <ele>2081.3899999999999</ele>
        <time>2018-07-10T06:35:35Z</time>
      </trkpt>
      <trkpt lat="46.096000727266073" lon="10.506221009418368">
        <ele>2081.3899999999999</ele>
        <time>2018-07-10T06:35:39Z</time>
      </trkpt>
      <trkpt lat="46.096069626510143" lon="10.506315473467112">
        <ele>2081.3899999999999</ele>
        <time>2018-07-10T06:35:49Z</time>
      </trkpt>
      <trkpt lat="46.09616668894887" lon="10.506448829546571">
        <ele>2081.3899999999999</ele>
        <time>2018-07-10T06:36:03Z</time>
      </trkpt>
      <trkpt lat="46.096174232661724" lon="10.506477076560259">
        <ele>2081.3899999999999</ele>
        <time>2018-07-10T06:36:05Z</time>
      </trkpt>
      <trkpt lat="46.09620675444603" lon="10.50655871629715">
        <ele>2081.3899999999999</ele>
        <time>2018-07-10T06:36:11Z</time>
      </trkpt>
      <trkpt lat="46.096215890720487" lon="10.506565170362592">
        <ele>2081.3899999999999</ele>
        <time>2018-07-10T06:36:12Z</time>
      </trkpt>
      <trkpt lat="46.09622485935688" lon="10.506569528952241">
        <ele>2081.3899999999999</ele>
        <time>2018-07-10T06:36:13Z</time>
      </trkpt>
      <trkpt lat="46.096233911812305" lon="10.506575396284461">
        <ele>2081.3899999999999</ele>
        <time>2018-07-10T06:36:14Z</time>
      </trkpt>
      <trkpt lat="46.096303397789598" lon="10.506678577512503">
        <ele>2081.3899999999999</ele>
        <time>2018-07-10T06:36:25Z</time>
      </trkpt>
      <trkpt lat="46.096308510750532" lon="10.506685953587294">
        <ele>2081.3899999999999</ele>
        <time>2018-07-10T06:36:26Z</time>
      </trkpt>
      <trkpt lat="46.096371291205287" lon="10.506826182827353">
        <ele>2081.8699999999999</ele>
        <time>2018-07-10T06:36:38Z</time>
      </trkpt>
      <trkpt lat="46.096378583461046" lon="10.506855938583612">
        <ele>2081.3899999999999</ele>
        <time>2018-07-10T06:36:40Z</time>
      </trkpt>
      <trkpt lat="46.096382355317473" lon="10.5068738758564">
        <ele>2081.8699999999999</ele>
        <time>2018-07-10T06:36:41Z</time>
      </trkpt>
      <trkpt lat="46.096405321732163" lon="10.506942104548216">
        <ele>2081.8699999999999</ele>
        <time>2018-07-10T06:36:49Z</time>
      </trkpt>
      <trkpt lat="46.096420409157872" lon="10.506959203630686">
        <ele>2081.8699999999999</ele>
        <time>2018-07-10T06:36:51Z</time>
      </trkpt>
      <trkpt lat="46.096497606486082" lon="10.506999352946877">
        <ele>2082.8299999999999</ele>
        <time>2018-07-10T06:37:02Z</time>
      </trkpt>
      <trkpt lat="46.096559800207615" lon="10.50704687833786">
        <ele>2083.79</ele>
        <time>2018-07-10T06:37:11Z</time>
      </trkpt>
      <trkpt lat="46.096572121605277" lon="10.50707177259028">
        <ele>2083.3099999999999</ele>
        <time>2018-07-10T06:37:13Z</time>
      </trkpt>
      <trkpt lat="46.096631716936827" lon="10.507196327671409">
        <ele>2083.79</ele>
        <time>2018-07-10T06:37:23Z</time>
      </trkpt>
      <trkpt lat="46.09664655290544" lon="10.507224071770906">
        <ele>2084.7600000000002</ele>
        <time>2018-07-10T06:37:34Z</time>
      </trkpt>
      <trkpt lat="46.096714781597257" lon="10.507323313504457">
        <ele>2083.79</ele>
        <time>2018-07-10T06:37:44Z</time>
      </trkpt>
      <trkpt lat="46.096815196797252" lon="10.507429176941514">
        <ele>2084.2800000000002</ele>
        <time>2018-07-10T06:37:56Z</time>
      </trkpt>
      <trkpt lat="46.096832966431975" lon="10.507460776716471">
        <ele>2083.79</ele>
        <time>2018-07-10T06:38:00Z</time>
      </trkpt>
      <trkpt lat="46.096854005008936" lon="10.507475025951862">
        <ele>2083.79</ele>
        <time>2018-07-10T06:38:03Z</time>
      </trkpt>
      <trkpt lat="46.096962131559849" lon="10.507530933246017">
        <ele>2084.2800000000002</ele>
        <time>2018-07-10T06:38:16Z</time>
      </trkpt>
      <trkpt lat="46.096972273662686" lon="10.507539985701442">
        <ele>2084.7600000000002</ele>
        <time>2018-07-10T06:38:18Z</time>
      </trkpt>
      <trkpt lat="46.096981158480048" lon="10.50754920579493">
        <ele>2084.7600000000002</ele>
        <time>2018-07-10T06:38:19Z</time>
      </trkpt>
      <trkpt lat="46.097052823752165" lon="10.507608046755195">
        <ele>2084.2800000000002</ele>
        <time>2018-07-10T06:38:28Z</time>
      </trkpt>
      <trkpt lat="46.097128009423614" lon="10.50766596570611">
        <ele>2084.2800000000002</ele>
        <time>2018-07-10T06:38:38Z</time>
      </trkpt>
      <trkpt lat="46.097140079364181" lon="10.50766303204">
        <ele>2084.2800000000002</ele>
        <time>2018-07-10T06:38:40Z</time>
      </trkpt>
      <trkpt lat="46.09715131111443" lon="10.507668228819966">
        <ele>2083.79</ele>
        <time>2018-07-10T06:38:41Z</time>
      </trkpt>
      <trkpt lat="46.097213169559836" lon="10.507750958204269">
        <ele>2083.79</ele>
        <time>2018-07-10T06:38:51Z</time>
      </trkpt>
      <trkpt lat="46.09726564027369" lon="10.507832011207938">
        <ele>2083.3099999999999</ele>
        <time>2018-07-10T06:39:01Z</time>
      </trkpt>
      <trkpt lat="46.097274189814925" lon="10.507850367575884">
        <ele>2082.8299999999999</ele>
        <time>2018-07-10T06:39:10Z</time>
      </trkpt>
      <trkpt lat="46.097264466807246" lon="10.507837710902095">
        <ele>2083.3099999999999</ele>
        <time>2018-07-10T06:39:20Z</time>
      </trkpt>
      <trkpt lat="46.097327163442969" lon="10.507827568799257">
        <ele>2084.2800000000002</ele>
        <time>2018-07-10T06:39:30Z</time>
      </trkpt>
      <trkpt lat="46.097381645813584" lon="10.50789169035852">
        <ele>2085.2399999999998</ele>
        <time>2018-07-10T06:39:39Z</time>
      </trkpt>
      <trkpt lat="46.097403103485703" lon="10.507934773340821">
        <ele>2085.2399999999998</ele>
        <time>2018-07-10T06:39:43Z</time>
      </trkpt>
      <trkpt lat="46.097407378256321" lon="10.507950279861689">
        <ele>2085.2399999999998</ele>
        <time>2018-07-10T06:39:44Z</time>
      </trkpt>
      <trkpt lat="46.097453981637955" lon="10.508015155792236">
        <ele>2085.2399999999998</ele>
        <time>2018-07-10T06:39:50Z</time>
      </trkpt>
      <trkpt lat="46.097481641918421" lon="10.508058909326792">
        <ele>2085.2399999999998</ele>
        <time>2018-07-10T06:39:54Z</time>
      </trkpt>
      <trkpt lat="46.09753729775548" lon="10.508194360882044">
        <ele>2085.7199999999998</ele>
        <time>2018-07-10T06:40:05Z</time>
      </trkpt>
      <trkpt lat="46.097560515627265" lon="10.508244065567851">
        <ele>2085.7199999999998</ele>
        <time>2018-07-10T06:40:11Z</time>
      </trkpt>
      <trkpt lat="46.097573675215244" lon="10.508258566260338">
        <ele>2086.1999999999998</ele>
        <time>2018-07-10T06:40:12Z</time>
      </trkpt>
      <trkpt lat="46.097649112343788" lon="10.508327130228281">
        <ele>2085.2399999999998</ele>
        <time>2018-07-10T06:40:22Z</time>
      </trkpt>
      <trkpt lat="46.097747767344117" lon="10.508398627862334">
        <ele>2084.7600000000002</ele>
        <time>2018-07-10T06:40:34Z</time>
      </trkpt>
      <trkpt lat="46.097755813971162" lon="10.508433412760496">
        <ele>2084.2800000000002</ele>
        <time>2018-07-10T06:40:37Z</time>
      </trkpt>
      <trkpt lat="46.09776645898819" lon="10.508459564298391">
        <ele>2083.79</ele>
        <time>2018-07-10T06:40:39Z</time>
      </trkpt>
      <trkpt lat="46.097789173945785" lon="10.50849812105298">
        <ele>2083.79</ele>
        <time>2018-07-10T06:40:43Z</time>
      </trkpt>
      <trkpt lat="46.097877519205213" lon="10.508536510169506">
        <ele>2083.79</ele>
        <time>2018-07-10T06:40:54Z</time>
      </trkpt>
      <trkpt lat="46.097913645207882" lon="10.50856551155448">
        <ele>2083.3099999999999</ele>
        <time>2018-07-10T06:40:59Z</time>
      </trkpt>
      <trkpt lat="46.097944155335426" lon="10.508662238717079">
        <ele>2083.3099999999999</ele>
        <time>2018-07-10T06:41:08Z</time>
      </trkpt>
      <trkpt lat="46.097970977425575" lon="10.508749829605222">
        <ele>2082.8299999999999</ele>
        <time>2018-07-10T06:41:16Z</time>
      </trkpt>
      <trkpt lat="46.09799855388701" lon="10.508814621716738">
        <ele>2082.8299999999999</ele>
        <time>2018-07-10T06:41:23Z</time>
      </trkpt>
      <trkpt lat="46.098009282723069" lon="10.508889136835933">
        <ele>2083.3099999999999</ele>
        <time>2018-07-10T06:41:31Z</time>
      </trkpt>
      <trkpt lat="46.098030740395188" lon="10.50895250402391">
        <ele>2083.79</ele>
        <time>2018-07-10T06:41:40Z</time>
      </trkpt>
      <trkpt lat="46.098062423989177" lon="10.50902240909636">
        <ele>2084.2800000000002</ele>
        <time>2018-07-10T06:41:49Z</time>
      </trkpt>
      <trkpt lat="46.098055969923735" lon="10.509112514555454">
        <ele>2084.2800000000002</ele>
        <time>2018-07-10T06:41:58Z</time>
      </trkpt>
      <trkpt lat="46.098064687103033" lon="10.509200943633914">
        <ele>2084.7600000000002</ele>
        <time>2018-07-10T06:42:07Z</time>
      </trkpt>
      <trkpt lat="46.098082289099693" lon="10.509244864806533">
        <ele>2084.7600000000002</ele>
        <time>2018-07-10T06:42:18Z</time>
      </trkpt>
      <trkpt lat="46.098144231364131" lon="10.509289707988501">
        <ele>2085.7199999999998</ele>
        <time>2018-07-10T06:42:27Z</time>
      </trkpt>
      <trkpt lat="46.098166527226567" lon="10.509394984692335">
        <ele>2085.7199999999998</ele>
        <time>2018-07-10T06:42:37Z</time>
      </trkpt>
      <trkpt lat="46.098183039575815" lon="10.509475618600845">
        <ele>2085.7199999999998</ele>
        <time>2018-07-10T06:42:46Z</time>
      </trkpt>
      <trkpt lat="46.098193097859621" lon="10.509499674662948">
        <ele>2085.7199999999998</ele>
        <time>2018-07-10T06:42:48Z</time>
      </trkpt>
      <trkpt lat="46.098212208598852" lon="10.509522641077638">
        <ele>2085.2399999999998</ele>
        <time>2018-07-10T06:42:51Z</time>
      </trkpt>
      <trkpt lat="46.098235175013542" lon="10.509513337165117">
        <ele>2085.2399999999998</ele>
        <time>2018-07-10T06:42:54Z</time>
      </trkpt>
      <trkpt lat="46.098294015973806" lon="10.509540745988488">
        <ele>2084.7600000000002</ele>
        <time>2018-07-10T06:43:02Z</time>
      </trkpt>
      <trkpt lat="46.098320754244924" lon="10.509574860334396">
        <ele>2085.2399999999998</ele>
        <time>2018-07-10T06:43:06Z</time>
      </trkpt>
      <trkpt lat="46.098342379555106" lon="10.509589947760105">
        <ele>2085.2399999999998</ele>
        <time>2018-07-10T06:43:09Z</time>
      </trkpt>
      <trkpt lat="46.098393257707357" lon="10.509630432352424">
        <ele>2085.2399999999998</ele>
        <time>2018-07-10T06:43:15Z</time>
      </trkpt>
      <trkpt lat="46.098419660702348" lon="10.509625654667616">
        <ele>2085.2399999999998</ele>
        <time>2018-07-10T06:43:23Z</time>
      </trkpt>
      <trkpt lat="46.098436843603849" lon="10.509661193937063">
        <ele>2084.2800000000002</ele>
        <time>2018-07-10T06:43:36Z</time>
      </trkpt>
      <trkpt lat="46.098428880795836" lon="10.509645435959101">
        <ele>2085.7199999999998</ele>
        <time>2018-07-10T06:43:54Z</time>
      </trkpt>
      <trkpt lat="46.098419660702348" lon="10.50964979454875">
        <ele>2085.7199999999998</ele>
        <time>2018-07-10T06:43:59Z</time>
      </trkpt>
      <trkpt lat="46.098442208021879" lon="10.509751215577126">
        <ele>2085.2399999999998</ele>
        <time>2018-07-10T06:44:07Z</time>
      </trkpt>
      <trkpt lat="46.098469365388155" lon="10.509794214740396">
        <ele>2085.2399999999998</ele>
        <time>2018-07-10T06:44:11Z</time>
      </trkpt>
      <trkpt lat="46.098479256033897" lon="10.509802764281631">
        <ele>2085.2399999999998</ele>
        <time>2018-07-10T06:44:12Z</time>
      </trkpt>
      <trkpt lat="46.098488559946418" lon="10.509811481460929">
        <ele>2085.2399999999998</ele>
        <time>2018-07-10T06:44:13Z</time>
      </trkpt>
      <trkpt lat="46.098495600745082" lon="10.509825730696321">
        <ele>2085.2399999999998</ele>
        <time>2018-07-10T06:44:14Z</time>
      </trkpt>
      <trkpt lat="46.098541868850589" lon="10.509939221665263">
        <ele>2085.2399999999998</ele>
        <time>2018-07-10T06:44:22Z</time>
      </trkpt>
      <trkpt lat="46.098551088944077" lon="10.509950621053576">
        <ele>2085.2399999999998</ele>
        <time>2018-07-10T06:44:23Z</time>
      </trkpt>
      <trkpt lat="46.09856097958982" lon="10.509964702650905">
        <ele>2085.2399999999998</ele>
        <time>2018-07-10T06:44:24Z</time>
      </trkpt>
      <trkpt lat="46.09856978058815" lon="10.509976353496313">
        <ele>2085.2399999999998</ele>
        <time>2018-07-10T06:44:25Z</time>
      </trkpt>
      <trkpt lat="46.098575396463275" lon="10.509988171979785">
        <ele>2085.2399999999998</ele>
        <time>2018-07-10T06:44:26Z</time>
      </trkpt>
      <trkpt lat="46.098581431433558" lon="10.510001163929701">
        <ele>2085.2399999999998</ele>
        <time>2018-07-10T06:44:27Z</time>
      </trkpt>
      <trkpt lat="46.098584281280637" lon="10.510012479498982">
        <ele>2085.2399999999998</ele>
        <time>2018-07-10T06:44:28Z</time>
      </trkpt>
      <trkpt lat="46.098589394241571" lon="10.51002605818212">
        <ele>2084.7600000000002</ele>
        <time>2018-07-10T06:44:29Z</time>
      </trkpt>
      <trkpt lat="46.09859224408865" lon="10.510041899979115">
        <ele>2085.2399999999998</ele>
        <time>2018-07-10T06:44:30Z</time>
      </trkpt>
      <trkpt lat="46.098596015945077" lon="10.510057993233204">
        <ele>2085.2399999999998</ele>
        <time>2018-07-10T06:44:31Z</time>
      </trkpt>
      <trkpt lat="46.09863230958581" lon="10.510278102010489">
        <ele>2084.7600000000002</ele>
        <time>2018-07-10T06:44:45Z</time>
      </trkpt>
      <trkpt lat="46.098677320405841" lon="10.510322945192456">
        <ele>2085.7199999999998</ele>
        <time>2018-07-10T06:44:53Z</time>
      </trkpt>
      <trkpt lat="46.098735071718693" lon="10.51037885248661">
        <ele>2085.7199999999998</ele>
        <time>2018-07-10T06:44:59Z</time>
      </trkpt>
      <trkpt lat="46.09879408031702" lon="10.510515896603465">
        <ele>2085.7199999999998</ele>
        <time>2018-07-10T06:45:10Z</time>
      </trkpt>
      <trkpt lat="46.09882534481585" lon="10.510605582967401">
        <ele>2086.1999999999998</ele>
        <time>2018-07-10T06:45:18Z</time>
      </trkpt>
      <trkpt lat="46.098811514675617" lon="10.51062410697341">
        <ele>2086.6799999999998</ele>
        <time>2018-07-10T06:45:26Z</time>
      </trkpt>
      <trkpt lat="46.098827607929707" lon="10.510612372308969">
        <ele>2086.6799999999998</ele>
        <time>2018-07-10T06:45:40Z</time>
      </trkpt>
      <trkpt lat="46.098833894357085" lon="10.510612539947033">
        <ele>2086.6799999999998</ele>
        <time>2018-07-10T06:45:41Z</time>
      </trkpt>
      <trkpt lat="46.098842862993479" lon="10.510626034811139">
        <ele>2086.6799999999998</ele>
        <time>2018-07-10T06:45:42Z</time>
      </trkpt>
      <trkpt lat="46.098886867985129" lon="10.510683534666896">
        <ele>2086.1999999999998</ele>
        <time>2018-07-10T06:45:47Z</time>
      </trkpt>
      <trkpt lat="46.098920479416847" lon="10.510718822479248">
        <ele>2086.1999999999998</ele>
        <time>2018-07-10T06:45:51Z</time>
      </trkpt>
      <trkpt lat="46.098922239616513" lon="10.510736592113972">
        <ele>2086.1999999999998</ele>
        <time>2018-07-10T06:45:52Z</time>
      </trkpt>
      <trkpt lat="46.098948139697313" lon="10.510803898796439">
        <ele>2086.6799999999998</ele>
        <time>2018-07-10T06:45:58Z</time>
      </trkpt>
      <trkpt lat="46.098961634561419" lon="10.510811191052198">
        <ele>2086.6799999999998</ele>
        <time>2018-07-10T06:45:59Z</time>
      </trkpt>
      <trkpt lat="46.098968423902988" lon="10.510824434459209">
        <ele>2086.6799999999998</ele>
        <time>2018-07-10T06:46:00Z</time>
      </trkpt>
      <trkpt lat="46.098974710330367" lon="10.51084203645587">
        <ele>2086.6799999999998</ele>
        <time>2018-07-10T06:46:01Z</time>
      </trkpt>
      <trkpt lat="46.098981248214841" lon="10.510854860767722">
        <ele>2086.1999999999998</ele>
        <time>2018-07-10T06:46:02Z</time>
      </trkpt>
      <trkpt lat="46.098990133032203" lon="10.510861817747355">
        <ele>2086.6799999999998</ele>
        <time>2018-07-10T06:46:03Z</time>
      </trkpt>
      <trkpt lat="46.09899926930666" lon="10.510867014527321">
        <ele>2086.1999999999998</ele>
        <time>2018-07-10T06:46:04Z</time>
      </trkpt>
      <trkpt lat="46.09904327429831" lon="10.510904565453529">
        <ele>2086.6799999999998</ele>
        <time>2018-07-10T06:46:09Z</time>
      </trkpt>
      <trkpt lat="46.099088871851563" lon="10.510967094451189">
        <ele>2086.6799999999998</ele>
        <time>2018-07-10T06:46:16Z</time>
      </trkpt>
      <trkpt lat="46.099090883508325" lon="10.510985534638166">
        <ele>2086.6799999999998</ele>
        <time>2018-07-10T06:46:17Z</time>
      </trkpt>
      <trkpt lat="46.099098259583116" lon="10.511001208797097">
        <ele>2086.6799999999998</ele>
        <time>2018-07-10T06:46:18Z</time>
      </trkpt>
      <trkpt lat="46.099179983139038" lon="10.511129284277558">
        <ele>2086.6799999999998</ele>
        <time>2018-07-10T06:46:29Z</time>
      </trkpt>
      <trkpt lat="46.099220886826515" lon="10.511242356151342">
        <ele>2086.6799999999998</ele>
        <time>2018-07-10T06:46:38Z</time>
      </trkpt>
      <trkpt lat="46.099293557927012" lon="10.511374790221453">
        <ele>2086.6799999999998</ele>
        <time>2018-07-10T06:46:49Z</time>
      </trkpt>
      <trkpt lat="46.099304370582104" lon="10.511420136317611">
        <ele>2087.1599999999999</ele>
        <time>2018-07-10T06:46:52Z</time>
      </trkpt>
      <trkpt lat="46.099305544048548" lon="10.5114327929914">
        <ele>2086.6799999999998</ele>
        <time>2018-07-10T06:46:53Z</time>
      </trkpt>
      <trkpt lat="46.09930956736207" lon="10.511449975892901">
        <ele>2086.6799999999998</ele>
        <time>2018-07-10T06:46:54Z</time>
      </trkpt>
      <trkpt lat="46.09931250102818" lon="10.511465398594737">
        <ele>2086.6799999999998</ele>
        <time>2018-07-10T06:46:55Z</time>
      </trkpt>
      <trkpt lat="46.099312752485275" lon="10.511477971449494">
        <ele>2087.1599999999999</ele>
        <time>2018-07-10T06:46:56Z</time>
      </trkpt>
      <trkpt lat="46.099369917064905" lon="10.511580146849155">
        <ele>2087.1599999999999</ele>
        <time>2018-07-10T06:47:05Z</time>
      </trkpt>
      <trkpt lat="46.099414760246873" lon="10.511688608676195">
        <ele>2087.1599999999999</ele>
        <time>2018-07-10T06:47:14Z</time>
      </trkpt>
      <trkpt lat="46.099422136321664" lon="10.511701097711921">
        <ele>2087.1599999999999</ele>
        <time>2018-07-10T06:47:15Z</time>
      </trkpt>
      <trkpt lat="46.099487012252212" lon="10.511810733005404">
        <ele>2087.6399999999999</ele>
        <time>2018-07-10T06:47:25Z</time>
      </trkpt>
      <trkpt lat="46.099550798535347" lon="10.511918859556317">
        <ele>2088.5999999999999</ele>
        <time>2018-07-10T06:47:34Z</time>
      </trkpt>
      <trkpt lat="46.099654566496611" lon="10.512004187330604">
        <ele>2088.1199999999999</ele>
        <time>2018-07-10T06:47:46Z</time>
      </trkpt>
      <trkpt lat="46.099701253697276" lon="10.512064285576344">
        <ele>2088.1199999999999</ele>
        <time>2018-07-10T06:47:53Z</time>
      </trkpt>
      <trkpt lat="46.099714916199446" lon="10.512084905058146">
        <ele>2088.5999999999999</ele>
        <time>2018-07-10T06:47:55Z</time>
      </trkpt>
      <trkpt lat="46.099724723026156" lon="10.512095047160983">
        <ele>2088.1199999999999</ele>
        <time>2018-07-10T06:47:56Z</time>
      </trkpt>
      <trkpt lat="46.099739307537675" lon="10.512148691341281">
        <ele>2088.5999999999999</ele>
        <time>2018-07-10T06:48:00Z</time>
      </trkpt>
      <trkpt lat="46.099734865128994" lon="10.512183224782348">
        <ele>2088.5999999999999</ele>
        <time>2018-07-10T06:48:02Z</time>
      </trkpt>
      <trkpt lat="46.099739391356707" lon="10.512197641655803">
        <ele>2088.5999999999999</ele>
        <time>2018-07-10T06:48:03Z</time>
      </trkpt>
      <trkpt lat="46.099763698875904" lon="10.512269390746951">
        <ele>2088.5999999999999</ele>
        <time>2018-07-10T06:48:08Z</time>
      </trkpt>
      <trkpt lat="46.099809464067221" lon="10.512357568368316">
        <ele>2089.0799999999999</ele>
        <time>2018-07-10T06:48:16Z</time>
      </trkpt>
      <trkpt lat="46.099826311692595" lon="10.512499557808042">
        <ele>2089.0799999999999</ele>
        <time>2018-07-10T06:48:26Z</time>
      </trkpt>
      <trkpt lat="46.099864616990089" lon="10.512637691572309">
        <ele>2089.0799999999999</ele>
        <time>2018-07-10T06:48:36Z</time>
      </trkpt>
      <trkpt lat="46.099904514849186" lon="10.51277993246913">
        <ele>2089.5599999999999</ele>
        <time>2018-07-10T06:48:46Z</time>
      </trkpt>
      <trkpt lat="46.099967714399099" lon="10.51288990303874">
        <ele>2089.5599999999999</ele>
        <time>2018-07-10T06:48:56Z</time>
      </trkpt>
      <trkpt lat="46.100047593936324" lon="10.513001130893826">
        <ele>2090.04</ele>
        <time>2018-07-10T06:49:07Z</time>
      </trkpt>
      <trkpt lat="46.10017784871161" lon="10.513116801157594">
        <ele>2090.52</ele>
        <time>2018-07-10T06:49:20Z</time>
      </trkpt>
      <trkpt lat="46.100315479561687" lon="10.51322802901268">
        <ele>2090.52</ele>
        <time>2018-07-10T06:49:35Z</time>
      </trkpt>
      <trkpt lat="46.10033274628222" lon="10.513246385380626">
        <ele>2090.52</ele>
        <time>2018-07-10T06:49:37Z</time>
      </trkpt>
      <trkpt lat="46.100366776809096" lon="10.513336323201656">
        <ele>2090.52</ele>
        <time>2018-07-10T06:49:43Z</time>
      </trkpt>
      <trkpt lat="46.100387899205089" lon="10.513413017615676">
        <ele>2090.52</ele>
        <time>2018-07-10T06:49:52Z</time>
      </trkpt>
      <trkpt lat="46.100387396290898" lon="10.513594150543213">
        <ele>2090.52</ele>
        <time>2018-07-10T06:50:03Z</time>
      </trkpt>
      <trkpt lat="46.100380020216107" lon="10.513695990666747">
        <ele>2090.52</ele>
        <time>2018-07-10T06:50:09Z</time>
      </trkpt>
      <trkpt lat="46.100421426817775" lon="10.513871423900127">
        <ele>2091</ele>
        <time>2018-07-10T06:50:21Z</time>
      </trkpt>
      <trkpt lat="46.10049401409924" lon="10.514046521857381">
        <ele>2091</ele>
        <time>2018-07-10T06:50:33Z</time>
      </trkpt>
      <trkpt lat="46.100555369630456" lon="10.514205358922482">
        <ele>2091.4899999999998</ele>
        <time>2018-07-10T06:50:45Z</time>
      </trkpt>
      <trkpt lat="46.100623849779367" lon="10.514362687245011">
        <ele>2091.4899999999998</ele>
        <time>2018-07-10T06:50:57Z</time>
      </trkpt>
      <trkpt lat="46.100630052387714" lon="10.514370817691088">
        <ele>2091.4899999999998</ele>
        <time>2018-07-10T06:50:58Z</time>
      </trkpt>
      <trkpt lat="46.100639272481203" lon="10.514382468536496">
        <ele>2091.4899999999998</ele>
        <time>2018-07-10T06:50:59Z</time>
      </trkpt>
      <trkpt lat="46.100647570565343" lon="10.514391688629985">
        <ele>2091.9699999999998</ele>
        <time>2018-07-10T06:51:00Z</time>
      </trkpt>
      <trkpt lat="46.100659556686878" lon="10.514402752742171">
        <ele>2091.9699999999998</ele>
        <time>2018-07-10T06:51:01Z</time>
      </trkpt>
      <trkpt lat="46.10066844150424" lon="10.514414655044675">
        <ele>2092.4499999999998</ele>
        <time>2018-07-10T06:51:02Z</time>
      </trkpt>
      <trkpt lat="46.100674727931619" lon="10.514425802975893">
        <ele>2091.9699999999998</ele>
        <time>2018-07-10T06:51:03Z</time>
      </trkpt>
      <trkpt lat="46.100679924711585" lon="10.514438794925809">
        <ele>2091.9699999999998</ele>
        <time>2018-07-10T06:51:04Z</time>
      </trkpt>
      <trkpt lat="46.100683528929949" lon="10.514454804360867">
        <ele>2091.9699999999998</ele>
        <time>2018-07-10T06:51:05Z</time>
      </trkpt>
      <trkpt lat="46.100686211138964" lon="10.514471232891083">
        <ele>2091.9699999999998</ele>
        <time>2018-07-10T06:51:06Z</time>
      </trkpt>
      <trkpt lat="46.100686881691217" lon="10.51448380574584">
        <ele>2091.4899999999998</ele>
        <time>2018-07-10T06:51:07Z</time>
      </trkpt>
      <trkpt lat="46.100692665204406" lon="10.514497719705105">
        <ele>2091.9699999999998</ele>
        <time>2018-07-10T06:51:08Z</time>
      </trkpt>
      <trkpt lat="46.100717978551984" lon="10.514634680002928">
        <ele>2091.9699999999998</ele>
        <time>2018-07-10T06:51:18Z</time>
      </trkpt>
      <trkpt lat="46.100721498951316" lon="10.514646582305431">
        <ele>2091.9699999999998</ele>
        <time>2018-07-10T06:51:19Z</time>
      </trkpt>
      <trkpt lat="46.100725689902902" lon="10.514658987522125">
        <ele>2091.9699999999998</ele>
        <time>2018-07-10T06:51:20Z</time>
      </trkpt>
      <trkpt lat="46.100733652710915" lon="10.514690587297082">
        <ele>2091.9699999999998</ele>
        <time>2018-07-10T06:51:22Z</time>
      </trkpt>
      <trkpt lat="46.100821746513247" lon="10.514764599502087">
        <ele>2092.4499999999998</ele>
        <time>2018-07-10T06:51:33Z</time>
      </trkpt>
      <trkpt lat="46.100857369601727" lon="10.514832492917776">
        <ele>2092.4499999999998</ele>
        <time>2018-07-10T06:51:38Z</time>
      </trkpt>
      <trkpt lat="46.100917551666498" lon="10.514898458495736">
        <ele>2091.9699999999998</ele>
        <time>2018-07-10T06:51:46Z</time>
      </trkpt>
      <trkpt lat="46.100927693769336" lon="10.514898961409926">
        <ele>2092.4499999999998</ele>
        <time>2018-07-10T06:51:47Z</time>
      </trkpt>
      <trkpt lat="46.100938003510237" lon="10.514898542314768">
        <ele>2092.4499999999998</ele>
        <time>2018-07-10T06:51:48Z</time>
      </trkpt>
      <trkpt lat="46.100948983803391" lon="10.514903236180544">
        <ele>2092.4499999999998</ele>
        <time>2018-07-10T06:51:49Z</time>
      </trkpt>
      <trkpt lat="46.101004807278514" lon="10.514960065484047">
        <ele>2092.4499999999998</ele>
        <time>2018-07-10T06:51:58Z</time>
      </trkpt>
      <trkpt lat="46.101011512801051" lon="10.514980852603912">
        <ele>2092.4499999999998</ele>
        <time>2018-07-10T06:51:59Z</time>
      </trkpt>
      <trkpt lat="46.10101830214262" lon="10.514988647773862">
        <ele>2092.4499999999998</ele>
        <time>2018-07-10T06:52:00Z</time>
      </trkpt>
      <trkpt lat="46.101026516407728" lon="10.515001136809587">
        <ele>2092.4499999999998</ele>
        <time>2018-07-10T06:52:01Z</time>
      </trkpt>
      <trkpt lat="46.101035233587027" lon="10.515013374388218">
        <ele>2092.4499999999998</ele>
        <time>2018-07-10T06:52:02Z</time>
      </trkpt>
      <trkpt lat="46.101098265498877" lon="10.51513658836484">
        <ele>2092.9299999999998</ele>
        <time>2018-07-10T06:52:12Z</time>
      </trkpt>
      <trkpt lat="46.101206392049789" lon="10.515265418216586">
        <ele>2092.9299999999998</ele>
        <time>2018-07-10T06:52:25Z</time>
      </trkpt>
      <trkpt lat="46.101317619904876" lon="10.515353009104729">
        <ele>2092.9299999999998</ele>
        <time>2018-07-10T06:52:37Z</time>
      </trkpt>
      <trkpt lat="46.101438319310546" lon="10.515462560579181">
        <ele>2092.9299999999998</ele>
        <time>2018-07-10T06:52:49Z</time>
      </trkpt>
      <trkpt lat="46.101503865793347" lon="10.515630701556802">
        <ele>2092.9299999999998</ele>
        <time>2018-07-10T06:53:01Z</time>
      </trkpt>
      <trkpt lat="46.101552061736584" lon="10.515796160325408">
        <ele>2092.9299999999998</ele>
        <time>2018-07-10T06:53:14Z</time>
      </trkpt>
      <trkpt lat="46.101525323465466" lon="10.515933288261294">
        <ele>2092.9299999999998</ele>
        <time>2018-07-10T06:53:24Z</time>
      </trkpt>
      <trkpt lat="46.101506967097521" lon="10.516107967123389">
        <ele>2093.4099999999999</ele>
        <time>2018-07-10T06:53:36Z</time>
      </trkpt>
      <trkpt lat="46.101523898541927" lon="10.516267474740744">
        <ele>2093.4099999999999</ele>
        <time>2018-07-10T06:53:46Z</time>
      </trkpt>
      <trkpt lat="46.101526999846101" lon="10.516451960429549">
        <ele>2093.4099999999999</ele>
        <time>2018-07-10T06:53:58Z</time>
      </trkpt>
      <trkpt lat="46.101529598236084" lon="10.516480961814523">
        <ele>2093.8899999999999</ele>
        <time>2018-07-10T06:54:00Z</time>
      </trkpt>
      <trkpt lat="46.101555163040757" lon="10.516704004257917">
        <ele>2094.3699999999999</ele>
        <time>2018-07-10T06:54:14Z</time>
      </trkpt>
      <trkpt lat="46.10157972201705" lon="10.51687516272068">
        <ele>2094.3699999999999</ele>
        <time>2018-07-10T06:54:25Z</time>
      </trkpt>
      <trkpt lat="46.101575782522559" lon="10.516964178532362">
        <ele>2094.3699999999999</ele>
        <time>2018-07-10T06:54:31Z</time>
      </trkpt>
      <trkpt lat="46.101609980687499" lon="10.51708035171032">
        <ele>2095.3299999999999</ele>
        <time>2018-07-10T06:54:42Z</time>
      </trkpt>
      <trkpt lat="46.1016461905092" lon="10.517178168520331">
        <ele>2096.77</ele>
        <time>2018-07-10T06:54:53Z</time>
      </trkpt>
      <trkpt lat="46.101685501635075" lon="10.51725385710597">
        <ele>2097.25</ele>
        <time>2018-07-10T06:55:02Z</time>
      </trkpt>
      <trkpt lat="46.101701678708196" lon="10.517301885411143">
        <ele>2097.73</ele>
        <time>2018-07-10T06:55:11Z</time>
      </trkpt>
      <trkpt lat="46.101730763912201" lon="10.517321415245533">
        <ele>2097.73</ele>
        <time>2018-07-10T06:55:19Z</time>
      </trkpt>
      <trkpt lat="46.10176932066679" lon="10.517360391095281">
        <ele>2098.21</ele>
        <time>2018-07-10T06:55:26Z</time>
      </trkpt>
      <trkpt lat="46.101820031180978" lon="10.517434738576412">
        <ele>2098.21</ele>
        <time>2018-07-10T06:55:35Z</time>
      </trkpt>
      <trkpt lat="46.101830843836069" lon="10.517433984205127">
        <ele>2098.21</ele>
        <time>2018-07-10T06:55:36Z</time>
      </trkpt>
      <trkpt lat="46.101853055879474" lon="10.517429374158382">
        <ele>2098.21</ele>
        <time>2018-07-10T06:55:38Z</time>
      </trkpt>
      <trkpt lat="46.101870071142912" lon="10.517445802688599">
        <ele>2098.6999999999998</ele>
        <time>2018-07-10T06:55:40Z</time>
      </trkpt>
      <trkpt lat="46.101915081962943" lon="10.517543200403452">
        <ele>2099.1799999999998</ele>
        <time>2018-07-10T06:55:50Z</time>
      </trkpt>
      <trkpt lat="46.101920697838068" lon="10.517603801563382">
        <ele>2100.1399999999999</ele>
        <time>2018-07-10T06:55:55Z</time>
      </trkpt>
      <trkpt lat="46.101942993700504" lon="10.517643531784415">
        <ele>2100.1399999999999</ele>
        <time>2018-07-10T06:55:59Z</time>
      </trkpt>
      <trkpt lat="46.101986076682806" lon="10.517706563696265">
        <ele>2100.6199999999999</ele>
        <time>2018-07-10T06:56:06Z</time>
      </trkpt>
      <trkpt lat="46.102060759440064" lon="10.517784599214792">
        <ele>2101.5799999999999</ele>
        <time>2018-07-10T06:56:17Z</time>
      </trkpt>
      <trkpt lat="46.102074589580297" lon="10.517811086028814">
        <ele>2101.5799999999999</ele>
        <time>2018-07-10T06:56:19Z</time>
      </trkpt>
      <trkpt lat="46.102102333679795" lon="10.517896078526974">
        <ele>2102.0599999999999</ele>
        <time>2018-07-10T06:56:28Z</time>
      </trkpt>
      <trkpt lat="46.102121528238058" lon="10.517933461815119">
        <ele>2102.0599999999999</ele>
        <time>2018-07-10T06:56:39Z</time>
      </trkpt>
      <trkpt lat="46.102128149941564" lon="10.51797503605485">
        <ele>2102.54</ele>
        <time>2018-07-10T06:56:42Z</time>
      </trkpt>
      <trkpt lat="46.102131335064769" lon="10.517999762669206">
        <ele>2102.54</ele>
        <time>2018-07-10T06:56:44Z</time>
      </trkpt>
      <trkpt lat="46.102200653403997" lon="10.518075870350003">
        <ele>2103.98</ele>
        <time>2018-07-10T06:56:56Z</time>
      </trkpt>
      <trkpt lat="46.102266535162926" lon="10.518153235316277">
        <ele>2105.4200000000001</ele>
        <time>2018-07-10T06:57:07Z</time>
      </trkpt>
      <trkpt lat="46.102322023361921" lon="10.518262116238475">
        <ele>2106.3899999999999</ele>
        <time>2018-07-10T06:57:17Z</time>
      </trkpt>
      <trkpt lat="46.102374913170934" lon="10.518323220312595">
        <ele>2107.8299999999999</ele>
        <time>2018-07-10T06:57:27Z</time>
      </trkpt>
      <trkpt lat="46.102385055273771" lon="10.518339313566685">
        <ele>2108.3099999999999</ele>
        <time>2018-07-10T06:57:30Z</time>
      </trkpt>
      <trkpt lat="46.102415230125189" lon="10.518378289416432">
        <ele>2108.79</ele>
        <time>2018-07-10T06:57:39Z</time>
      </trkpt>
      <trkpt lat="46.102447332814336" lon="10.51840259693563">
        <ele>2109.27</ele>
        <time>2018-07-10T06:57:48Z</time>
      </trkpt>
      <trkpt lat="46.102468790486455" lon="10.518482225015759">
        <ele>2110.23</ele>
        <time>2018-07-10T06:57:58Z</time>
      </trkpt>
      <trkpt lat="46.102525116875768" lon="10.518538216128945">
        <ele>2111.1900000000001</ele>
        <time>2018-07-10T06:58:09Z</time>
      </trkpt>
      <trkpt lat="46.102560991421342" lon="10.518561350181699">
        <ele>2112.6300000000001</ele>
        <time>2018-07-10T06:58:20Z</time>
      </trkpt>
      <trkpt lat="46.102600051090121" lon="10.518588004633784">
        <ele>2114.0799999999999</ele>
        <time>2018-07-10T06:58:30Z</time>
      </trkpt>
      <trkpt lat="46.102584460750222" lon="10.51863762550056">
        <ele>2113.5999999999999</ele>
        <time>2018-07-10T06:58:39Z</time>
      </trkpt>
      <trkpt lat="46.102595021948218" lon="10.518710883334279">
        <ele>2113.1199999999999</ele>
        <time>2018-07-10T06:58:46Z</time>
      </trkpt>
      <trkpt lat="46.102629052475095" lon="10.518761090934277">
        <ele>2114.0799999999999</ele>
        <time>2018-07-10T06:58:54Z</time>
      </trkpt>
      <trkpt lat="46.102674398571253" lon="10.518833426758647">
        <ele>2115.04</ele>
        <time>2018-07-10T06:59:04Z</time>
      </trkpt>
      <trkpt lat="46.102712787687778" lon="10.518944151699543">
        <ele>2115.52</ele>
        <time>2018-07-10T06:59:14Z</time>
      </trkpt>
      <trkpt lat="46.102756960317492" lon="10.519040375947952">
        <ele>2116</ele>
        <time>2018-07-10T06:59:25Z</time>
      </trkpt>
      <trkpt lat="46.102759307250381" lon="10.519031574949622">
        <ele>2116</ele>
        <time>2018-07-10T06:59:37Z</time>
      </trkpt>
      <trkpt lat="46.102714464068413" lon="10.519085386767983">
        <ele>2116</ele>
        <time>2018-07-10T06:59:48Z</time>
      </trkpt>
      <trkpt lat="46.102689485996962" lon="10.51907742395997">
        <ele>2115.52</ele>
        <time>2018-07-10T06:59:58Z</time>
      </trkpt>
      <trkpt lat="46.102684373036027" lon="10.51907641813159">
        <ele>2115.52</ele>
        <time>2018-07-10T07:00:10Z</time>
      </trkpt>
      <trkpt lat="46.102657299488783" lon="10.519122518599033">
        <ele>2115.52</ele>
        <time>2018-07-10T07:00:34Z</time>
      </trkpt>
      <trkpt lat="46.1026874743402" lon="10.519130900502205">
        <ele>2115.52</ele>
        <time>2018-07-10T07:00:46Z</time>
      </trkpt>
      <trkpt lat="46.102676577866077" lon="10.519090918824077">
        <ele>2116.48</ele>
        <time>2018-07-10T07:01:13Z</time>
      </trkpt>
      <trkpt lat="46.102713122963905" lon="10.519100809469819">
        <ele>2115.52</ele>
        <time>2018-07-10T07:01:40Z</time>
      </trkpt>
      <trkpt lat="46.102720582857728" lon="10.519110867753625">
        <ele>2115.52</ele>
        <time>2018-07-10T07:02:04Z</time>
      </trkpt>
      <trkpt lat="46.102731730788946" lon="10.519045824185014">
        <ele>2115.52</ele>
        <time>2018-07-10T07:02:30Z</time>
      </trkpt>
      <trkpt lat="46.102650677785277" lon="10.519059570506215">
        <ele>2115.52</ele>
        <time>2018-07-10T07:02:59Z</time>
      </trkpt>
      <trkpt lat="46.102677583694458" lon="10.51907055079937">
        <ele>2116</ele>
        <time>2018-07-10T07:03:24Z</time>
      </trkpt>
      <trkpt lat="46.10269870609045" lon="10.519085889682174">
        <ele>2116</ele>
        <time>2018-07-10T07:03:46Z</time>
      </trkpt>
      <trkpt lat="46.102702897042036" lon="10.519123440608382">
        <ele>2115.52</ele>
        <time>2018-07-10T07:04:16Z</time>
      </trkpt>
      <trkpt lat="46.102699795737863" lon="10.519084464758635">
        <ele>2116</ele>
        <time>2018-07-10T07:04:44Z</time>
      </trkpt>
      <trkpt lat="46.102710859850049" lon="10.519101982936263">
        <ele>2115.52</ele>
        <time>2018-07-10T07:05:14Z</time>
      </trkpt>
      <trkpt lat="46.102685797959566" lon="10.519045908004045">
        <ele>2115.52</ele>
        <time>2018-07-10T07:05:45Z</time>
      </trkpt>
      <trkpt lat="46.102681774646044" lon="10.519089158624411">
        <ele>2116.48</ele>
        <time>2018-07-10T07:05:56Z</time>
      </trkpt>
      <trkpt lat="46.102682026103139" lon="10.519088488072157">
        <ele>2115.52</ele>
        <time>2018-07-10T07:05:58Z</time>
      </trkpt>
      <trkpt lat="46.102670039981604" lon="10.519031155854464">
        <ele>2115.52</ele>
        <time>2018-07-10T07:06:21Z</time>
      </trkpt>
      <trkpt lat="46.102679930627346" lon="10.519062671810389">
        <ele>2116</ele>
        <time>2018-07-10T07:06:46Z</time>
      </trkpt>
      <trkpt lat="46.102711781859398" lon="10.519012128934264">
        <ele>2115.04</ele>
        <time>2018-07-10T07:06:56Z</time>
      </trkpt>
      <trkpt lat="46.102629555389285" lon="10.518882712349296">
        <ele>2115.52</ele>
        <time>2018-07-10T07:07:07Z</time>
      </trkpt>
      <trkpt lat="46.102656126022339" lon="10.518951779231429">
        <ele>2115.52</ele>
        <time>2018-07-10T07:07:21Z</time>
      </trkpt>
      <trkpt lat="46.102659814059734" lon="10.518931411206722">
        <ele>2115.52</ele>
        <time>2018-07-10T07:07:34Z</time>
      </trkpt>
      <trkpt lat="46.102654449641705" lon="10.519013553857803">
        <ele>2115.52</ele>
        <time>2018-07-10T07:07:46Z</time>
      </trkpt>
      <trkpt lat="46.102638356387615" lon="10.519061330705881">
        <ele>2115.52</ele>
        <time>2018-07-10T07:08:01Z</time>
      </trkpt>
      <trkpt lat="46.102685881778598" lon="10.519076334312558">
        <ele>2116</ele>
        <time>2018-07-10T07:08:30Z</time>
      </trkpt>
      <trkpt lat="46.102653276175261" lon="10.519063342362642">
        <ele>2116</ele>
        <time>2018-07-10T07:09:01Z</time>
      </trkpt>
      <trkpt lat="46.102685714140534" lon="10.519095696508884">
        <ele>2116.48</ele>
        <time>2018-07-10T07:09:27Z</time>
      </trkpt>
      <trkpt lat="46.102659730240703" lon="10.519062671810389">
        <ele>2116.48</ele>
        <time>2018-07-10T07:09:56Z</time>
      </trkpt>
      <trkpt lat="46.102636931464076" lon="10.51907105371356">
        <ele>2116.96</ele>
        <time>2018-07-10T07:10:27Z</time>
      </trkpt>
      <trkpt lat="46.102658724412322" lon="10.519067114219069">
        <ele>2116.96</ele>
        <time>2018-07-10T07:10:50Z</time>
      </trkpt>
      <trkpt lat="46.102672722190619" lon="10.519041968509555">
        <ele>2116.96</ele>
        <time>2018-07-10T07:11:17Z</time>
      </trkpt>
      <trkpt lat="46.102664172649384" lon="10.519078513607383">
        <ele>2116.96</ele>
        <time>2018-07-10T07:11:44Z</time>
      </trkpt>
      <trkpt lat="46.102656796574593" lon="10.519066946581006">
        <ele>2117.4400000000001</ele>
        <time>2018-07-10T07:12:10Z</time>
      </trkpt>
      <trkpt lat="46.102649169042706" lon="10.519038280472159">
        <ele>2116.96</ele>
        <time>2018-07-10T07:12:34Z</time>
      </trkpt>
      <trkpt lat="46.102675404399633" lon="10.519060157239437">
        <ele>2116.96</ele>
        <time>2018-07-10T07:12:55Z</time>
      </trkpt>
      <trkpt lat="46.102700969204307" lon="10.519102485850453">
        <ele>2116.96</ele>
        <time>2018-07-10T07:13:29Z</time>
      </trkpt>
      <trkpt lat="46.102704321965575" lon="10.519091170281172">
        <ele>2117.9200000000001</ele>
        <time>2018-07-10T07:13:47Z</time>
      </trkpt>
      <trkpt lat="46.102710943669081" lon="10.519075496122241">
        <ele>2117.9200000000001</ele>
        <time>2018-07-10T07:13:56Z</time>
      </trkpt>
      <trkpt lat="46.102707423269749" lon="10.519063007086515">
        <ele>2118.4000000000001</ele>
        <time>2018-07-10T07:14:03Z</time>
      </trkpt>
      <trkpt lat="46.102715386077762" lon="10.519041214138269">
        <ele>2118.8800000000001</ele>
        <time>2018-07-10T07:14:10Z</time>
      </trkpt>
      <trkpt lat="46.102744722738862" lon="10.519001232460141">
        <ele>2118.4000000000001</ele>
        <time>2018-07-10T07:14:21Z</time>
      </trkpt>
      <trkpt lat="46.102771293371916" lon="10.519075328484178">
        <ele>2118.4000000000001</ele>
        <time>2018-07-10T07:14:37Z</time>
      </trkpt>
      <trkpt lat="46.102783782407641" lon="10.5190534517169">
        <ele>2118.4000000000001</ele>
        <time>2018-07-10T07:14:55Z</time>
      </trkpt>
      <trkpt lat="46.102793253958225" lon="10.519064515829086">
        <ele>2118.4000000000001</ele>
        <time>2018-07-10T07:15:14Z</time>
      </trkpt>
      <trkpt lat="46.102822087705135" lon="10.519089745357633">
        <ele>2118.4000000000001</ele>
        <time>2018-07-10T07:15:18Z</time>
      </trkpt>
      <trkpt lat="46.102839605882764" lon="10.519092259928584">
        <ele>2118.4000000000001</ele>
        <time>2018-07-10T07:15:20Z</time>
      </trkpt>
      <trkpt lat="46.102887131273746" lon="10.519120087847114">
        <ele>2118.8800000000001</ele>
        <time>2018-07-10T07:15:25Z</time>
      </trkpt>
      <trkpt lat="46.102895261719823" lon="10.519127799198031">
        <ele>2118.8800000000001</ele>
        <time>2018-07-10T07:15:26Z</time>
      </trkpt>
      <trkpt lat="46.102940272539854" lon="10.519185466691852">
        <ele>2119.3600000000001</ele>
        <time>2018-07-10T07:15:33Z</time>
      </trkpt>
      <trkpt lat="46.102979416027665" lon="10.519306249916553">
        <ele>2119.8400000000001</ele>
        <time>2018-07-10T07:15:43Z</time>
      </trkpt>
      <trkpt lat="46.103011099621654" lon="10.519327037036419">
        <ele>2119.8400000000001</ele>
        <time>2018-07-10T07:15:50Z</time>
      </trkpt>
      <trkpt lat="46.103033982217312" lon="10.51935687661171">
        <ele>2119.8400000000001</ele>
        <time>2018-07-10T07:15:53Z</time>
      </trkpt>
      <trkpt lat="46.103042615577579" lon="10.519369198009372">
        <ele>2119.8400000000001</ele>
        <time>2018-07-10T07:15:54Z</time>
      </trkpt>
      <trkpt lat="46.103134397417307" lon="10.519476402550936">
        <ele>2119.8400000000001</ele>
        <time>2018-07-10T07:16:05Z</time>
      </trkpt>
      <trkpt lat="46.10318242572248" lon="10.519542032852769">
        <ele>2119.3600000000001</ele>
        <time>2018-07-10T07:16:13Z</time>
      </trkpt>
      <trkpt lat="46.103259874507785" lon="10.519632892683148">
        <ele>2119.3600000000001</ele>
        <time>2018-07-10T07:16:24Z</time>
      </trkpt>
      <trkpt lat="46.103292144834995" lon="10.519691230729222">
        <ele>2118.8800000000001</ele>
        <time>2018-07-10T07:16:31Z</time>
      </trkpt>
      <trkpt lat="46.103307483717799" lon="10.519753592088819">
        <ele>2117.9200000000001</ele>
        <time>2018-07-10T07:16:39Z</time>
      </trkpt>
      <trkpt lat="46.103366576135159" lon="10.519811846315861">
        <ele>2117.9200000000001</ele>
        <time>2018-07-10T07:16:49Z</time>
      </trkpt>
      <trkpt lat="46.103398008272052" lon="10.519875632598996">
        <ele>2118.4000000000001</ele>
        <time>2018-07-10T07:16:55Z</time>
      </trkpt>
      <trkpt lat="46.103455172851682" lon="10.519951824098825">
        <ele>2118.8800000000001</ele>
        <time>2018-07-10T07:17:05Z</time>
      </trkpt>
      <trkpt lat="46.103489119559526" lon="10.520012341439724">
        <ele>2118.8800000000001</ele>
        <time>2018-07-10T07:17:11Z</time>
      </trkpt>
      <trkpt lat="46.103507727384567" lon="10.520039917901158">
        <ele>2119.3600000000001</ele>
        <time>2018-07-10T07:17:14Z</time>
      </trkpt>
      <trkpt lat="46.103582745417953" lon="10.520088700577617">
        <ele>2118.8800000000001</ele>
        <time>2018-07-10T07:17:24Z</time>
      </trkpt>
      <trkpt lat="46.10360168851912" lon="10.520151061937213">
        <ele>2118.8800000000001</ele>
        <time>2018-07-10T07:17:29Z</time>
      </trkpt>
      <trkpt lat="46.103657595813274" lon="10.520232282578945">
        <ele>2118.4000000000001</ele>
        <time>2018-07-10T07:17:37Z</time>
      </trkpt>
      <trkpt lat="46.103721046820283" lon="10.520287100225687">
        <ele>2118.4000000000001</ele>
        <time>2018-07-10T07:17:48Z</time>
      </trkpt>
      <trkpt lat="46.103753233328462" lon="10.52030730061233">
        <ele>2118.8800000000001</ele>
        <time>2018-07-10T07:17:53Z</time>
      </trkpt>
      <trkpt lat="46.103772763162851" lon="10.520345689728856">
        <ele>2118.8800000000001</ele>
        <time>2018-07-10T07:17:57Z</time>
      </trkpt>
      <trkpt lat="46.103777792304754" lon="10.520361280068755">
        <ele>2118.8800000000001</ele>
        <time>2018-07-10T07:17:58Z</time>
      </trkpt>
      <trkpt lat="46.103802770376205" lon="10.520410733297467">
        <ele>2118.4000000000001</ele>
        <time>2018-07-10T07:18:03Z</time>
      </trkpt>
      <trkpt lat="46.10381131991744" lon="10.520420288667083">
        <ele>2118.4000000000001</ele>
        <time>2018-07-10T07:18:04Z</time>
      </trkpt>
      <trkpt lat="46.103875190019608" lon="10.520490948110819">
        <ele>2118.4000000000001</ele>
        <time>2018-07-10T07:18:13Z</time>
      </trkpt>
      <trkpt lat="46.1039481125772" lon="10.520583735778928">
        <ele>2118.8800000000001</ele>
        <time>2018-07-10T07:18:24Z</time>
      </trkpt>
      <trkpt lat="46.103979293256998" lon="10.520648276433349">
        <ele>2118.8800000000001</ele>
        <time>2018-07-10T07:18:33Z</time>
      </trkpt>
      <trkpt lat="46.104009971022606" lon="10.520697813481092">
        <ele>2119.3600000000001</ele>
        <time>2018-07-10T07:18:42Z</time>
      </trkpt>
      <trkpt lat="46.104014832526445" lon="10.520712481811643">
        <ele>2119.8400000000001</ele>
        <time>2018-07-10T07:18:43Z</time>
      </trkpt>
      <trkpt lat="46.104061016812921" lon="10.520832259207964">
        <ele>2118.8800000000001</ele>
        <time>2018-07-10T07:18:53Z</time>
      </trkpt>
      <trkpt lat="46.10409228131175" lon="10.520863942801952">
        <ele>2118.8800000000001</ele>
        <time>2018-07-10T07:19:01Z</time>
      </trkpt>
      <trkpt lat="46.104115415364504" lon="10.520889926701784">
        <ele>2117.9200000000001</ele>
        <time>2018-07-10T07:19:05Z</time>
      </trkpt>
      <trkpt lat="46.10412840731442" lon="10.520905097946525">
        <ele>2117.4400000000001</ele>
        <time>2018-07-10T07:19:07Z</time>
      </trkpt>
      <trkpt lat="46.104202503338456" lon="10.52096251398325">
        <ele>2116.96</ele>
        <time>2018-07-10T07:19:17Z</time>
      </trkpt>
      <trkpt lat="46.104265032336116" lon="10.521029736846685">
        <ele>2117.9200000000001</ele>
        <time>2018-07-10T07:19:27Z</time>
      </trkpt>
      <trkpt lat="46.104303253814578" lon="10.521154794842005">
        <ele>2118.4000000000001</ele>
        <time>2018-07-10T07:19:38Z</time>
      </trkpt>
      <trkpt lat="46.10436393879354" lon="10.521267028525472">
        <ele>2118.4000000000001</ele>
        <time>2018-07-10T07:19:49Z</time>
      </trkpt>
      <trkpt lat="46.10441473312676" lon="10.521336598321795">
        <ele>2118.4000000000001</ele>
        <time>2018-07-10T07:19:58Z</time>
      </trkpt>
      <trkpt lat="46.104461001232266" lon="10.521396109834313">
        <ele>2118.4000000000001</ele>
        <time>2018-07-10T07:20:08Z</time>
      </trkpt>
      <trkpt lat="46.104463348165154" lon="10.52141354419291">
        <ele>2118.4000000000001</ele>
        <time>2018-07-10T07:20:09Z</time>
      </trkpt>
      <trkpt lat="46.104513974860311" lon="10.521512869745493">
        <ele>2118.8800000000001</ele>
        <time>2018-07-10T07:20:20Z</time>
      </trkpt>
      <trkpt lat="46.104553118348122" lon="10.521534578874707">
        <ele>2118.8800000000001</ele>
        <time>2018-07-10T07:20:25Z</time>
      </trkpt>
      <trkpt lat="46.104617323726416" lon="10.521564166992903">
        <ele>2118.4000000000001</ele>
        <time>2018-07-10T07:20:32Z</time>
      </trkpt>
      <trkpt lat="46.104625621810555" lon="10.521567100659013">
        <ele>2118.4000000000001</ele>
        <time>2018-07-10T07:20:33Z</time>
      </trkpt>
      <trkpt lat="46.104720672592521" lon="10.521628288552165">
        <ele>2117.9200000000001</ele>
        <time>2018-07-10T07:20:44Z</time>
      </trkpt>
      <trkpt lat="46.104751769453287" lon="10.521628707647324">
        <ele>2117.9200000000001</ele>
        <time>2018-07-10T07:20:51Z</time>
      </trkpt>
      <trkpt lat="46.104806251823902" lon="10.521600376814604">
        <ele>2118.4000000000001</ele>
        <time>2018-07-10T07:21:01Z</time>
      </trkpt>
      <trkpt lat="46.104861823841929" lon="10.52162854000926">
        <ele>2117.9200000000001</ele>
        <time>2018-07-10T07:21:12Z</time>
      </trkpt>
      <trkpt lat="46.104898285120726" lon="10.521698864176869">
        <ele>2117.9200000000001</ele>
        <time>2018-07-10T07:21:22Z</time>
      </trkpt>
      <trkpt lat="46.104883197695017" lon="10.521726105362177">
        <ele>2117.9200000000001</ele>
        <time>2018-07-10T07:21:30Z</time>
      </trkpt>
      <trkpt lat="46.104868110269308" lon="10.52170573733747">
        <ele>2117.9200000000001</ele>
        <time>2018-07-10T07:21:42Z</time>
      </trkpt>
      <trkpt lat="46.104877749457955" lon="10.521709425374866">
        <ele>2116.96</ele>
        <time>2018-07-10T07:21:52Z</time>
      </trkpt>
      <trkpt lat="46.104863835498691" lon="10.521698025986552">
        <ele>2116.96</ele>
        <time>2018-07-10T07:22:18Z</time>
      </trkpt>
      <trkpt lat="46.104868864640594" lon="10.52170867100358">
        <ele>2116.96</ele>
        <time>2018-07-10T07:22:44Z</time>
      </trkpt>
      <trkpt lat="46.104865344241261" lon="10.521730044856668">
        <ele>2116.96</ele>
        <time>2018-07-10T07:22:57Z</time>
      </trkpt>
      <trkpt lat="46.104877162724733" lon="10.521730128675699">
        <ele>2116.96</ele>
        <time>2018-07-10T07:23:18Z</time>
      </trkpt>
      <trkpt lat="46.104883281514049" lon="10.521699534729123">
        <ele>2117.9200000000001</ele>
        <time>2018-07-10T07:23:26Z</time>
      </trkpt>
      <trkpt lat="46.104887388646603" lon="10.521690398454666">
        <ele>2117.9200000000001</ele>
        <time>2018-07-10T07:23:34Z</time>
      </trkpt>
      <trkpt lat="46.104915719479322" lon="10.521728787571192">
        <ele>2117.9200000000001</ele>
        <time>2018-07-10T07:23:48Z</time>
      </trkpt>
      <trkpt lat="46.104922173544765" lon="10.521737337112427">
        <ele>2117.9200000000001</ele>
        <time>2018-07-10T07:23:49Z</time>
      </trkpt>
      <trkpt lat="46.105010351166129" lon="10.521778156980872">
        <ele>2117.9200000000001</ele>
        <time>2018-07-10T07:23:59Z</time>
      </trkpt>
      <trkpt lat="46.105036418884993" lon="10.521802883595228">
        <ele>2117.9200000000001</ele>
        <time>2018-07-10T07:24:02Z</time>
      </trkpt>
      <trkpt lat="46.105104479938745" lon="10.521910507231951">
        <ele>2118.4000000000001</ele>
        <time>2018-07-10T07:24:11Z</time>
      </trkpt>
      <trkpt lat="46.105190981179476" lon="10.522038331255317">
        <ele>2118.4000000000001</ele>
        <time>2018-07-10T07:24:23Z</time>
      </trkpt>
      <trkpt lat="46.105293491855264" lon="10.522109242156148">
        <ele>2117.9200000000001</ele>
        <time>2018-07-10T07:24:33Z</time>
      </trkpt>
      <trkpt lat="46.10539642162621" lon="10.52216112613678">
        <ele>2118.4000000000001</ele>
        <time>2018-07-10T07:24:43Z</time>
      </trkpt>
      <trkpt lat="46.105484096333385" lon="10.5222446937114">
        <ele>2117.9200000000001</ele>
        <time>2018-07-10T07:24:53Z</time>
      </trkpt>
      <trkpt lat="46.105548804625869" lon="10.522287525236607">
        <ele>2117.9200000000001</ele>
        <time>2018-07-10T07:25:00Z</time>
      </trkpt>
      <trkpt lat="46.105558779090643" lon="10.52227989770472">
        <ele>2117.9200000000001</ele>
        <time>2018-07-10T07:25:01Z</time>
      </trkpt>
      <trkpt lat="46.105572693049908" lon="10.522270761430264">
        <ele>2118.4000000000001</ele>
        <time>2018-07-10T07:25:02Z</time>
      </trkpt>
      <trkpt lat="46.105609238147736" lon="10.52225399762392">
        <ele>2118.4000000000001</ele>
        <time>2018-07-10T07:25:06Z</time>
      </trkpt>
      <trkpt lat="46.105621811002493" lon="10.52225835621357">
        <ele>2118.8800000000001</ele>
        <time>2018-07-10T07:25:07Z</time>
      </trkpt>
      <trkpt lat="46.105634551495314" lon="10.522266235202551">
        <ele>2118.4000000000001</ele>
        <time>2018-07-10T07:25:08Z</time>
      </trkpt>
      <trkpt lat="46.105682076886296" lon="10.522288363426924">
        <ele>2118.8800000000001</ele>
        <time>2018-07-10T07:25:13Z</time>
      </trkpt>
      <trkpt lat="46.105693224817514" lon="10.522289955988526">
        <ele>2118.8800000000001</ele>
        <time>2018-07-10T07:25:14Z</time>
      </trkpt>
      <trkpt lat="46.105712335556746" lon="10.522302864119411">
        <ele>2118.8800000000001</ele>
        <time>2018-07-10T07:25:16Z</time>
      </trkpt>
      <trkpt lat="46.1057198792696" lon="10.522316107526422">
        <ele>2118.8800000000001</ele>
        <time>2018-07-10T07:25:17Z</time>
      </trkpt>
      <trkpt lat="46.105815852060914" lon="10.52239422686398">
        <ele>2119.3600000000001</ele>
        <time>2018-07-10T07:25:28Z</time>
      </trkpt>
      <trkpt lat="46.105830101296306" lon="10.52241325378418">
        <ele>2119.3600000000001</ele>
        <time>2018-07-10T07:25:30Z</time>
      </trkpt>
      <trkpt lat="46.105839321389794" lon="10.522429095581174">
        <ele>2119.8400000000001</ele>
        <time>2018-07-10T07:25:31Z</time>
      </trkpt>
      <trkpt lat="46.105904867872596" lon="10.522552309557796">
        <ele>2119.3600000000001</ele>
        <time>2018-07-10T07:25:41Z</time>
      </trkpt>
      <trkpt lat="46.10596957616508" lon="10.522633194923401">
        <ele>2119.3600000000001</ele>
        <time>2018-07-10T07:25:51Z</time>
      </trkpt>
      <trkpt lat="46.105984831228852" lon="10.522717516869307">
        <ele>2120.3200000000002</ele>
        <time>2018-07-10T07:25:59Z</time>
      </trkpt>
      <trkpt lat="46.106021292507648" lon="10.522744338959455">
        <ele>2120.3200000000002</ele>
        <time>2018-07-10T07:26:05Z</time>
      </trkpt>
      <trkpt lat="46.106031434610486" lon="10.522753642871976">
        <ele>2120.3200000000002</ele>
        <time>2018-07-10T07:26:06Z</time>
      </trkpt>
      <trkpt lat="46.106129419058561" lon="10.522830337285995">
        <ele>2120.3200000000002</ele>
        <time>2018-07-10T07:26:18Z</time>
      </trkpt>
      <trkpt lat="46.106216171756387" lon="10.522870989516377">
        <ele>2120.8099999999999</ele>
        <time>2018-07-10T07:26:27Z</time>
      </trkpt>
      <trkpt lat="46.106225894764066" lon="10.522873252630234">
        <ele>2120.8099999999999</ele>
        <time>2018-07-10T07:26:28Z</time>
      </trkpt>
      <trkpt lat="46.106237294152379" lon="10.522878365591168">
        <ele>2120.8099999999999</ele>
        <time>2018-07-10T07:26:29Z</time>
      </trkpt>
      <trkpt lat="46.106246681883931" lon="10.522882556542754">
        <ele>2120.3200000000002</ele>
        <time>2018-07-10T07:26:30Z</time>
      </trkpt>
      <trkpt lat="46.106257997453213" lon="10.522886412218213">
        <ele>2120.3200000000002</ele>
        <time>2018-07-10T07:26:31Z</time>
      </trkpt>
      <trkpt lat="46.106315497308969" lon="10.522947013378143">
        <ele>2120.8099999999999</ele>
        <time>2018-07-10T07:26:39Z</time>
      </trkpt>
      <trkpt lat="46.106355814263225" lon="10.522974254563451">
        <ele>2121.77</ele>
        <time>2018-07-10T07:26:47Z</time>
      </trkpt>
      <trkpt lat="46.106390180066228" lon="10.523056983947754">
        <ele>2122.73</ele>
        <time>2018-07-10T07:26:56Z</time>
      </trkpt>
      <trkpt lat="46.10646603628993" lon="10.523105347529054">
        <ele>2122.73</ele>
        <time>2018-07-10T07:27:05Z</time>
      </trkpt>
      <trkpt lat="46.106484895572066" lon="10.52315354347229">
        <ele>2123.21</ele>
        <time>2018-07-10T07:27:09Z</time>
      </trkpt>
      <trkpt lat="46.106501072645187" lon="10.523173995316029">
        <ele>2123.21</ele>
        <time>2018-07-10T07:27:11Z</time>
      </trkpt>
      <trkpt lat="46.106557650491595" lon="10.523215737193823">
        <ele>2124.1700000000001</ele>
        <time>2018-07-10T07:27:18Z</time>
      </trkpt>
      <trkpt lat="46.106584388762712" lon="10.52323124371469">
        <ele>2124.1700000000001</ele>
        <time>2018-07-10T07:27:21Z</time>
      </trkpt>
      <trkpt lat="46.106639709323645" lon="10.523295784369111">
        <ele>2124.6500000000001</ele>
        <time>2018-07-10T07:27:30Z</time>
      </trkpt>
      <trkpt lat="46.106648510321975" lon="10.523303244262934">
        <ele>2124.6500000000001</ele>
        <time>2018-07-10T07:27:31Z</time>
      </trkpt>
      <trkpt lat="46.10667809844017" lon="10.523337945342064">
        <ele>2124.6500000000001</ele>
        <time>2018-07-10T07:27:35Z</time>
      </trkpt>
      <trkpt lat="46.10669419169426" lon="10.52336560562253">
        <ele>2124.6500000000001</ele>
        <time>2018-07-10T07:27:37Z</time>
      </trkpt>
      <trkpt lat="46.106776334345341" lon="10.523449089378119">
        <ele>2125.1300000000001</ele>
        <time>2018-07-10T07:27:48Z</time>
      </trkpt>
      <trkpt lat="46.106837941333652" lon="10.523495357483625">
        <ele>2125.6100000000001</ele>
        <time>2018-07-10T07:27:58Z</time>
      </trkpt>
      <trkpt lat="46.106864344328642" lon="10.523581188172102">
        <ele>2126.0900000000001</ele>
        <time>2018-07-10T07:28:05Z</time>
      </trkpt>
      <trkpt lat="46.106869289651513" lon="10.523622510954738">
        <ele>2126.5700000000002</ele>
        <time>2018-07-10T07:28:15Z</time>
      </trkpt>
      <trkpt lat="46.106893261894584" lon="10.523696606978774">
        <ele>2127.0500000000002</ele>
        <time>2018-07-10T07:28:26Z</time>
      </trkpt>
      <trkpt lat="46.106915641576052" lon="10.523737259209156">
        <ele>2127.5300000000002</ele>
        <time>2018-07-10T07:28:31Z</time>
      </trkpt>
      <trkpt lat="46.10692779533565" lon="10.523746814578772">
        <ele>2127.5300000000002</ele>
        <time>2018-07-10T07:28:32Z</time>
      </trkpt>
      <trkpt lat="46.106947995722294" lon="10.523760560899973">
        <ele>2127.0500000000002</ele>
        <time>2018-07-10T07:28:34Z</time>
      </trkpt>
      <trkpt lat="46.106955539435148" lon="10.523768775165081">
        <ele>2127.5300000000002</ele>
        <time>2018-07-10T07:28:35Z</time>
      </trkpt>
      <trkpt lat="46.106963669881225" lon="10.52378092892468">
        <ele>2127.5300000000002</ele>
        <time>2018-07-10T07:28:36Z</time>
      </trkpt>
      <trkpt lat="46.107025612145662" lon="10.523858461529016">
        <ele>2128.5</ele>
        <time>2018-07-10T07:28:47Z</time>
      </trkpt>
      <trkpt lat="46.107091493904591" lon="10.523934317752719">
        <ele>2128.5</ele>
        <time>2018-07-10T07:28:56Z</time>
      </trkpt>
      <trkpt lat="46.107099540531635" lon="10.523935072124004">
        <ele>2128.5</ele>
        <time>2018-07-10T07:28:57Z</time>
      </trkpt>
      <trkpt lat="46.107172211632133" lon="10.523981172591448">
        <ele>2128.5</ele>
        <time>2018-07-10T07:29:07Z</time>
      </trkpt>
      <trkpt lat="46.107211774215102" lon="10.524033224210143">
        <ele>2129.46</ele>
        <time>2018-07-10T07:29:15Z</time>
      </trkpt>
      <trkpt lat="46.107243876904249" lon="10.524043031036854">
        <ele>2129.9400000000001</ele>
        <time>2018-07-10T07:29:19Z</time>
      </trkpt>
      <trkpt lat="46.107303136959672" lon="10.524101788178086">
        <ele>2130.4200000000001</ele>
        <time>2018-07-10T07:29:27Z</time>
      </trkpt>
      <trkpt lat="46.107317889109254" lon="10.524112768471241">
        <ele>2130.4200000000001</ele>
        <time>2018-07-10T07:29:29Z</time>
      </trkpt>
      <trkpt lat="46.107393326237798" lon="10.524198682978749">
        <ele>2130.9000000000001</ele>
        <time>2018-07-10T07:29:40Z</time>
      </trkpt>
      <trkpt lat="46.107422327622771" lon="10.52423975430429">
        <ele>2130.4200000000001</ele>
        <time>2018-07-10T07:29:44Z</time>
      </trkpt>
      <trkpt lat="46.1074398458004" lon="10.524257775396109">
        <ele>2129.9400000000001</ele>
        <time>2018-07-10T07:29:46Z</time>
      </trkpt>
      <trkpt lat="46.107446383684874" lon="10.524270683526993">
        <ele>2129.9400000000001</ele>
        <time>2018-07-10T07:29:47Z</time>
      </trkpt>
      <trkpt lat="46.107518468052149" lon="10.52434922195971">
        <ele>2130.4200000000001</ele>
        <time>2018-07-10T07:29:57Z</time>
      </trkpt>
      <trkpt lat="46.107542440295219" lon="10.524380067363381">
        <ele>2130.9000000000001</ele>
        <time>2018-07-10T07:30:00Z</time>
      </trkpt>
      <trkpt lat="46.107546798884869" lon="10.524398507550359">
        <ele>2130.9000000000001</ele>
        <time>2018-07-10T07:30:01Z</time>
      </trkpt>
      <trkpt lat="46.107594491913915" lon="10.524478303268552">
        <ele>2130.9000000000001</ele>
        <time>2018-07-10T07:30:11Z</time>
      </trkpt>
      <trkpt lat="46.107658948749304" lon="10.524443099275231">
        <ele>2131.3800000000001</ele>
        <time>2018-07-10T07:30:21Z</time>
      </trkpt>
      <trkpt lat="46.107732960954309" lon="10.524484254419804">
        <ele>2132.3400000000001</ele>
        <time>2018-07-10T07:30:31Z</time>
      </trkpt>
      <trkpt lat="46.107830610126257" lon="10.524528678506613">
        <ele>2133.7800000000002</ele>
        <time>2018-07-10T07:30:44Z</time>
      </trkpt>
      <trkpt lat="46.107852822169662" lon="10.524568744003773">
        <ele>2133.7800000000002</ele>
        <time>2018-07-10T07:30:47Z</time>
      </trkpt>
      <trkpt lat="46.107904706150293" lon="10.524635128676891">
        <ele>2133.3000000000002</ele>
        <time>2018-07-10T07:30:56Z</time>
      </trkpt>
      <trkpt lat="46.107957260683179" lon="10.524689862504601">
        <ele>2134.2600000000002</ele>
        <time>2018-07-10T07:31:05Z</time>
      </trkpt>
      <trkpt lat="46.108002103865147" lon="10.524748619645834">
        <ele>2134.7399999999998</ele>
        <time>2018-07-10T07:31:14Z</time>
      </trkpt>
      <trkpt lat="46.108035715296865" lon="10.524763874709606">
        <ele>2135.23</ele>
        <time>2018-07-10T07:31:19Z</time>
      </trkpt>
      <trkpt lat="46.108092628419399" lon="10.524796983227134">
        <ele>2136.1900000000001</ele>
        <time>2018-07-10T07:31:28Z</time>
      </trkpt>
      <trkpt lat="46.108179884031415" lon="10.524866972118616">
        <ele>2136.6700000000001</ele>
        <time>2018-07-10T07:31:40Z</time>
      </trkpt>
      <trkpt lat="46.108244843780994" lon="10.524873593822122">
        <ele>2137.6300000000001</ele>
        <time>2018-07-10T07:31:49Z</time>
      </trkpt>
      <trkpt lat="46.108319945633411" lon="10.524909971281886">
        <ele>2138.1100000000001</ele>
        <time>2018-07-10T07:32:00Z</time>
      </trkpt>
      <trkpt lat="46.108388844877481" lon="10.524901170283556">
        <ele>2138.5900000000001</ele>
        <time>2018-07-10T07:32:10Z</time>
      </trkpt>
      <trkpt lat="46.108448524028063" lon="10.524943666532636">
        <ele>2139.0700000000002</ele>
        <time>2018-07-10T07:32:17Z</time>
      </trkpt>
      <trkpt lat="46.108497809618711" lon="10.524946432560682">
        <ele>2139.5500000000002</ele>
        <time>2018-07-10T07:32:23Z</time>
      </trkpt>
      <trkpt lat="46.10853242687881" lon="10.524932183325291">
        <ele>2140.0300000000002</ele>
        <time>2018-07-10T07:32:28Z</time>
      </trkpt>
      <trkpt lat="46.108588669449091" lon="10.524983145296574">
        <ele>2140.9899999999998</ele>
        <time>2018-07-10T07:32:36Z</time>
      </trkpt>
      <trkpt lat="46.108649354428053" lon="10.52500301040709">
        <ele>2140.9899999999998</ele>
        <time>2018-07-10T07:32:46Z</time>
      </trkpt>
      <trkpt lat="46.108642984181643" lon="10.524969147518277">
        <ele>2141.4699999999998</ele>
        <time>2018-07-10T07:32:58Z</time>
      </trkpt>
      <trkpt lat="46.108678607270122" lon="10.524906618520617">
        <ele>2141.9499999999998</ele>
        <time>2018-07-10T07:33:06Z</time>
      </trkpt>
      <trkpt lat="46.108729066327214" lon="10.524897146970034">
        <ele>2143.4000000000001</ele>
        <time>2018-07-10T07:33:16Z</time>
      </trkpt>
      <trkpt lat="46.108758738264441" lon="10.524927321821451">
        <ele>2144.3600000000001</ele>
        <time>2018-07-10T07:33:24Z</time>
      </trkpt>
      <trkpt lat="46.108761755749583" lon="10.524860769510269">
        <ele>2145.8000000000002</ele>
        <time>2018-07-10T07:33:32Z</time>
      </trkpt>
      <trkpt lat="46.108803078532219" lon="10.524895219132304">
        <ele>2147.2399999999998</ele>
        <time>2018-07-10T07:33:40Z</time>
      </trkpt>
      <trkpt lat="46.108849011361599" lon="10.5248764436692">
        <ele>2148.6799999999998</ele>
        <time>2018-07-10T07:33:50Z</time>
      </trkpt>
      <trkpt lat="46.10889008268714" lon="10.524818021804094">
        <ele>2150.1300000000001</ele>
        <time>2018-07-10T07:34:02Z</time>
      </trkpt>
      <trkpt lat="46.108893183991313" lon="10.524722216650844">
        <ele>2151.0900000000001</ele>
        <time>2018-07-10T07:34:13Z</time>
      </trkpt>
      <trkpt lat="46.108931070193648" lon="10.524640325456858">
        <ele>2152.5300000000002</ele>
        <time>2018-07-10T07:34:25Z</time>
      </trkpt>
      <trkpt lat="46.108980355784297" lon="10.524643007665873">
        <ele>2154.4499999999998</ele>
        <time>2018-07-10T07:34:38Z</time>
      </trkpt>
      <trkpt lat="46.108951438218355" lon="10.524618364870548">
        <ele>2154.4499999999998</ele>
        <time>2018-07-10T07:34:55Z</time>
      </trkpt>
      <trkpt lat="46.108984295278788" lon="10.524589950218797">
        <ele>2155.4099999999999</ele>
        <time>2018-07-10T07:35:12Z</time>
      </trkpt>
      <trkpt lat="46.10901178792119" lon="10.524505460634828">
        <ele>2156.8600000000001</ele>
        <time>2018-07-10T07:35:23Z</time>
      </trkpt>
      <trkpt lat="46.109054954722524" lon="10.524397166445851">
        <ele>2158.3000000000002</ele>
        <time>2018-07-10T07:35:36Z</time>
      </trkpt>
      <trkpt lat="46.109095020219684" lon="10.524322902783751">
        <ele>2160.2199999999998</ele>
        <time>2018-07-10T07:35:47Z</time>
      </trkpt>
      <trkpt lat="46.109168026596308" lon="10.524277808144689">
        <ele>2162.1399999999999</ele>
        <time>2018-07-10T07:36:00Z</time>
      </trkpt>
      <trkpt lat="46.109204571694136" lon="10.524261295795441">
        <ele>2163.5799999999999</ele>
        <time>2018-07-10T07:36:09Z</time>
      </trkpt>
      <trkpt lat="46.109241284430027" lon="10.524259954690933">
        <ele>2164.0599999999999</ele>
        <time>2018-07-10T07:36:17Z</time>
      </trkpt>
      <trkpt lat="46.109280176460743" lon="10.524198682978749">
        <ele>2166.9499999999998</ele>
        <time>2018-07-10T07:36:29Z</time>
      </trkpt>
      <trkpt lat="46.109312614426017" lon="10.524178147315979">
        <ele>2167.4299999999998</ele>
        <time>2018-07-10T07:36:39Z</time>
      </trkpt>
      <trkpt lat="46.109319068491459" lon="10.524196000769734">
        <ele>2167.4299999999998</ele>
        <time>2018-07-10T07:36:53Z</time>
      </trkpt>
      <trkpt lat="46.109310770407319" lon="10.52420555613935">
        <ele>2166.9499999999998</ele>
        <time>2018-07-10T07:37:08Z</time>
      </trkpt>
      <trkpt lat="46.10932401381433" lon="10.524200443178415">
        <ele>2167.4299999999998</ele>
        <time>2018-07-10T07:37:19Z</time>
      </trkpt>
      <trkpt lat="46.109285037964582" lon="10.524122910574079">
        <ele>2167.9099999999999</ele>
        <time>2018-07-10T07:37:32Z</time>
      </trkpt>
      <trkpt lat="46.109303897246718" lon="10.524086700752378">
        <ele>2169.3499999999999</ele>
        <time>2018-07-10T07:37:40Z</time>
      </trkpt>
      <trkpt lat="46.109339939430356" lon="10.524051748216152">
        <ele>2170.79</ele>
        <time>2018-07-10T07:37:51Z</time>
      </trkpt>
      <trkpt lat="46.109376400709152" lon="10.524001456797123">
        <ele>2172.2399999999998</ele>
        <time>2018-07-10T07:38:03Z</time>
      </trkpt>
      <trkpt lat="46.10940364189446" lon="10.52396566607058">
        <ele>2174.6399999999999</ele>
        <time>2018-07-10T07:38:15Z</time>
      </trkpt>
      <trkpt lat="46.1093963496387" lon="10.523922080174088">
        <ele>2175.1199999999999</ele>
        <time>2018-07-10T07:38:24Z</time>
      </trkpt>
      <trkpt lat="46.109362067654729" lon="10.523851672187448">
        <ele>2176.0799999999999</ele>
        <time>2018-07-10T07:38:34Z</time>
      </trkpt>
      <trkpt lat="46.109351087361574" lon="10.523822419345379">
        <ele>2176.5599999999999</ele>
        <time>2018-07-10T07:38:40Z</time>
      </trkpt>
      <trkpt lat="46.109316805377603" lon="10.523677747696638">
        <ele>2178.48</ele>
        <time>2018-07-10T07:38:55Z</time>
      </trkpt>
      <trkpt lat="46.109299790114164" lon="10.523642208427191">
        <ele>2179.9299999999998</ele>
        <time>2018-07-10T07:39:05Z</time>
      </trkpt>
      <trkpt lat="46.109270621091127" lon="10.523542463779449">
        <ele>2182.3299999999999</ele>
        <time>2018-07-10T07:39:18Z</time>
      </trkpt>
      <trkpt lat="46.109244637191296" lon="10.523476330563426">
        <ele>2183.29</ele>
        <time>2018-07-10T07:39:27Z</time>
      </trkpt>
      <trkpt lat="46.109188059344888" lon="10.523415310308337">
        <ele>2183.77</ele>
        <time>2018-07-10T07:39:38Z</time>
      </trkpt>
      <trkpt lat="46.109145311638713" lon="10.523367868736386">
        <ele>2184.73</ele>
        <time>2018-07-10T07:39:46Z</time>
      </trkpt>
      <trkpt lat="46.109079765155911" lon="10.523298131301999">
        <ele>2184.73</ele>
        <time>2018-07-10T07:39:56Z</time>
      </trkpt>
      <trkpt lat="46.109043303877115" lon="10.523206098005176">
        <ele>2185.6900000000001</ele>
        <time>2018-07-10T07:40:08Z</time>
      </trkpt>
      <trkpt lat="46.109023690223694" lon="10.523148011416197">
        <ele>2187.6199999999999</ele>
        <time>2018-07-10T07:40:19Z</time>
      </trkpt>
      <trkpt lat="46.108997454866767" lon="10.523041728883982">
        <ele>2189.54</ele>
        <time>2018-07-10T07:40:31Z</time>
      </trkpt>
      <trkpt lat="46.108973482623696" lon="10.522974589839578">
        <ele>2191.46</ele>
        <time>2018-07-10T07:40:44Z</time>
      </trkpt>
      <trkpt lat="46.108937440440059" lon="10.522952964529395">
        <ele>2192.9000000000001</ele>
        <time>2018-07-10T07:40:55Z</time>
      </trkpt>
      <trkpt lat="46.108957389369607" lon="10.522902170196176">
        <ele>2194.3499999999999</ele>
        <time>2018-07-10T07:41:04Z</time>
      </trkpt>
      <trkpt lat="46.108984630554914" lon="10.52286428399384">
        <ele>2196.27</ele>
        <time>2018-07-10T07:41:16Z</time>
      </trkpt>
      <trkpt lat="46.109024025499821" lon="10.522822039201856">
        <ele>2198.1900000000001</ele>
        <time>2018-07-10T07:41:28Z</time>
      </trkpt>
      <trkpt lat="46.10900835134089" lon="10.522780884057283">
        <ele>2199.1500000000001</ele>
        <time>2018-07-10T07:41:41Z</time>
      </trkpt>
      <trkpt lat="46.109023690223694" lon="10.522797731682658">
        <ele>2198.1900000000001</ele>
        <time>2018-07-10T07:41:51Z</time>
      </trkpt>
      <trkpt lat="46.109004495665431" lon="10.522814663127065">
        <ele>2198.1900000000001</ele>
        <time>2018-07-10T07:42:06Z</time>
      </trkpt>
      <trkpt lat="46.109006674960256" lon="10.522817932069302">
        <ele>2198.1900000000001</ele>
        <time>2018-07-10T07:42:10Z</time>
      </trkpt>
      <trkpt lat="46.108992844820023" lon="10.52281734533608">
        <ele>2197.71</ele>
        <time>2018-07-10T07:42:36Z</time>
      </trkpt>
      <trkpt lat="46.109010446816683" lon="10.522783482447267">
        <ele>2198.1900000000001</ele>
        <time>2018-07-10T07:43:02Z</time>
      </trkpt>
      <trkpt lat="46.109024276956916" lon="10.522788343951106">
        <ele>2202.52</ele>
        <time>2018-07-10T07:43:18Z</time>
      </trkpt>
      <trkpt lat="46.10902595333755" lon="10.52279538474977">
        <ele>2197.23</ele>
        <time>2018-07-10T07:43:19Z</time>
      </trkpt>
      <trkpt lat="46.109021259471774" lon="10.52280368283391">
        <ele>2199.1500000000001</ele>
        <time>2018-07-10T07:43:35Z</time>
      </trkpt>
      <trkpt lat="46.109033580869436" lon="10.522772502154112">
        <ele>2199.1500000000001</ele>
        <time>2018-07-10T07:43:43Z</time>
      </trkpt>
      <trkpt lat="46.109035005792975" lon="10.522746937349439">
        <ele>2199.6300000000001</ele>
        <time>2018-07-10T07:43:53Z</time>
      </trkpt>
      <trkpt lat="46.10902888700366" lon="10.522784320637584">
        <ele>2199.1500000000001</ele>
        <time>2018-07-10T07:44:09Z</time>
      </trkpt>
      <trkpt lat="46.109021930024028" lon="10.522787757217884">
        <ele>2199.1500000000001</ele>
        <time>2018-07-10T07:44:30Z</time>
      </trkpt>
      <trkpt lat="46.108958562836051" lon="10.522774681448936">
        <ele>2200.5900000000001</ele>
        <time>2018-07-10T07:44:40Z</time>
      </trkpt>
      <trkpt lat="46.108985804021358" lon="10.522736962884665">
        <ele>2202.04</ele>
        <time>2018-07-10T07:44:51Z</time>
      </trkpt>
      <trkpt lat="46.108993515372276" lon="10.522710978984833">
        <ele>2203.48</ele>
        <time>2018-07-10T07:44:59Z</time>
      </trkpt>
      <trkpt lat="46.108965016901493" lon="10.522641828283668">
        <ele>2205.8800000000001</ele>
        <time>2018-07-10T07:45:11Z</time>
      </trkpt>
      <trkpt lat="46.108988150954247" lon="10.522605115547776">
        <ele>2207.3200000000002</ele>
        <time>2018-07-10T07:45:21Z</time>
      </trkpt>
      <trkpt lat="46.108966022729874" lon="10.522548789158463">
        <ele>2208.77</ele>
        <time>2018-07-10T07:45:31Z</time>
      </trkpt>
      <trkpt lat="46.108964765444398" lon="10.522523308172822">
        <ele>2210.21</ele>
        <time>2018-07-10T07:45:41Z</time>
      </trkpt>
      <trkpt lat="46.108980439603329" lon="10.522492127493024">
        <ele>2211.6500000000001</ele>
        <time>2018-07-10T07:45:51Z</time>
      </trkpt>
      <trkpt lat="46.109001142904162" lon="10.522451978176832">
        <ele>2213.5700000000002</ele>
        <time>2018-07-10T07:46:01Z</time>
      </trkpt>
      <trkpt lat="46.109028970822692" lon="10.522395400330424">
        <ele>2215.5</ele>
        <time>2018-07-10T07:46:13Z</time>
      </trkpt>
      <trkpt lat="46.109029641374946" lon="10.522358939051628">
        <ele>2217.4200000000001</ele>
        <time>2018-07-10T07:46:26Z</time>
      </trkpt>
      <trkpt lat="46.109084459021688" lon="10.522373607382178">
        <ele>2218.8600000000001</ele>
        <time>2018-07-10T07:46:36Z</time>
      </trkpt>
      <trkpt lat="46.109133074060082" lon="10.522380648180842">
        <ele>2220.3000000000002</ele>
        <time>2018-07-10T07:46:46Z</time>
      </trkpt>
      <trkpt lat="46.10917448066175" lon="10.522400764748454">
        <ele>2222.2199999999998</ele>
        <time>2018-07-10T07:46:57Z</time>
      </trkpt>
      <trkpt lat="46.10920138657093" lon="10.522400680929422">
        <ele>2223.6700000000001</ele>
        <time>2018-07-10T07:47:07Z</time>
      </trkpt>
      <trkpt lat="46.109226448461413" lon="10.522388275712729">
        <ele>2224.6300000000001</ele>
        <time>2018-07-10T07:47:17Z</time>
      </trkpt>
      <trkpt lat="46.109207672998309" lon="10.522365979850292">
        <ele>2225.5900000000001</ele>
        <time>2018-07-10T07:47:27Z</time>
      </trkpt>
      <trkpt lat="46.10919208265841" lon="10.522324070334435">
        <ele>2227.5100000000002</ele>
        <time>2018-07-10T07:47:37Z</time>
      </trkpt>
      <trkpt lat="46.109194932505488" lon="10.522258188575506">
        <ele>2228.9499999999998</ele>
        <time>2018-07-10T07:47:47Z</time>
      </trkpt>
      <trkpt lat="46.10920968465507" lon="10.522233629599214">
        <ele>2230.4000000000001</ele>
        <time>2018-07-10T07:47:56Z</time>
      </trkpt>
      <trkpt lat="46.109167691320181" lon="10.522187361493707">
        <ele>2232.3200000000002</ele>
        <time>2018-07-10T07:48:08Z</time>
      </trkpt>
      <trkpt lat="46.109181270003319" lon="10.522120641544461">
        <ele>2234.2399999999998</ele>
        <time>2018-07-10T07:48:21Z</time>
      </trkpt>
      <trkpt lat="46.109172217547894" lon="10.522062303498387">
        <ele>2235.6799999999998</ele>
        <time>2018-07-10T07:48:33Z</time>
      </trkpt>
      <trkpt lat="46.109205577522516" lon="10.522032547742128">
        <ele>2237.1300000000001</ele>
        <time>2018-07-10T07:48:44Z</time>
      </trkpt>
      <trkpt lat="46.109246397390962" lon="10.522046880796552">
        <ele>2238.5700000000002</ele>
        <time>2018-07-10T07:48:54Z</time>
      </trkpt>
      <trkpt lat="46.109273051843047" lon="10.522030619904399">
        <ele>2240.0100000000002</ele>
        <time>2018-07-10T07:49:05Z</time>
      </trkpt>
      <trkpt lat="46.109311105683446" lon="10.522043779492378">
        <ele>2241.9299999999998</ele>
        <time>2018-07-10T07:49:15Z</time>
      </trkpt>
      <trkpt lat="46.10934698022902" lon="10.522050149738789">
        <ele>2243.3699999999999</ele>
        <time>2018-07-10T07:49:26Z</time>
      </trkpt>
      <trkpt lat="46.109312530606985" lon="10.522026009857655">
        <ele>2244.8200000000002</ele>
        <time>2018-07-10T07:49:36Z</time>
      </trkpt>
      <trkpt lat="46.109299873933196" lon="10.521966330707073">
        <ele>2246.7399999999998</ele>
        <time>2018-07-10T07:49:48Z</time>
      </trkpt>
      <trkpt lat="46.10930448397994" lon="10.52193833515048">
        <ele>2247.6999999999998</ele>
        <time>2018-07-10T07:49:56Z</time>
      </trkpt>
      <trkpt lat="46.109342873096466" lon="10.521926013752818">
        <ele>2249.1399999999999</ele>
        <time>2018-07-10T07:50:04Z</time>
      </trkpt>
      <trkpt lat="46.109359385445714" lon="10.521894916892052">
        <ele>2250.5799999999999</ele>
        <time>2018-07-10T07:50:14Z</time>
      </trkpt>
      <trkpt lat="46.109360307455063" lon="10.521848732605577">
        <ele>2252.0300000000002</ele>
        <time>2018-07-10T07:50:25Z</time>
      </trkpt>
      <trkpt lat="46.109396936371922" lon="10.521875135600567">
        <ele>2252.5100000000002</ele>
        <time>2018-07-10T07:50:37Z</time>
      </trkpt>
      <trkpt lat="46.109434152022004" lon="10.521878991276026">
        <ele>2254.9099999999999</ele>
        <time>2018-07-10T07:50:47Z</time>
      </trkpt>
      <trkpt lat="46.109481677412987" lon="10.521870106458664">
        <ele>2256.8299999999999</ele>
        <time>2018-07-10T07:50:58Z</time>
      </trkpt>
      <trkpt lat="46.109472960233688" lon="10.521845715120435">
        <ele>2258.75</ele>
        <time>2018-07-10T07:51:10Z</time>
      </trkpt>
      <trkpt lat="46.109466506168246" lon="10.521795591339469">
        <ele>2259.7199999999998</ele>
        <time>2018-07-10T07:51:19Z</time>
      </trkpt>
      <trkpt lat="46.109449658542871" lon="10.521758962422609">
        <ele>2261.1599999999999</ele>
        <time>2018-07-10T07:51:30Z</time>
      </trkpt>
      <trkpt lat="46.109497351571918" lon="10.521734822541475">
        <ele>2263.0799999999999</ele>
        <time>2018-07-10T07:51:41Z</time>
      </trkpt>
      <trkpt lat="46.109544541686773" lon="10.521764494478703">
        <ele>2264.04</ele>
        <time>2018-07-10T07:51:51Z</time>
      </trkpt>
      <trkpt lat="46.109563065692782" lon="10.521789640188217">
        <ele>2265</ele>
        <time>2018-07-10T07:52:03Z</time>
      </trkpt>
      <trkpt lat="46.109556024894118" lon="10.521745970472693">
        <ele>2266.4499999999998</ele>
        <time>2018-07-10T07:52:14Z</time>
      </trkpt>
      <trkpt lat="46.109542110934854" lon="10.521720489487052">
        <ele>2267.4099999999999</ele>
        <time>2018-07-10T07:52:24Z</time>
      </trkpt>
      <trkpt lat="46.10958150587976" lon="10.521699786186218">
        <ele>2268.8499999999999</ele>
        <time>2018-07-10T07:52:36Z</time>
      </trkpt>
      <trkpt lat="46.10959131270647" lon="10.521658128127456">
        <ele>2270.29</ele>
        <time>2018-07-10T07:52:47Z</time>
      </trkpt>
      <trkpt lat="46.109617296606302" lon="10.52161043509841">
        <ele>2272.21</ele>
        <time>2018-07-10T07:52:59Z</time>
      </trkpt>
      <trkpt lat="46.109617631882429" lon="10.521560395136476">
        <ele>2273.6599999999999</ele>
        <time>2018-07-10T07:53:09Z</time>
      </trkpt>
      <trkpt lat="46.109593575820327" lon="10.521560981869698">
        <ele>2274.6199999999999</ele>
        <time>2018-07-10T07:53:21Z</time>
      </trkpt>
      <trkpt lat="46.1096450407058" lon="10.521553019061685">
        <ele>2276.0599999999999</ele>
        <time>2018-07-10T07:53:32Z</time>
      </trkpt>
      <trkpt lat="46.109628863632679" lon="10.521512953564525">
        <ele>2277.98</ele>
        <time>2018-07-10T07:53:43Z</time>
      </trkpt>
      <trkpt lat="46.109648980200291" lon="10.521446233615279">
        <ele>2279.4200000000001</ele>
        <time>2018-07-10T07:53:55Z</time>
      </trkpt>
      <trkpt lat="46.109693488106132" lon="10.521421004086733">
        <ele>2281.3499999999999</ele>
        <time>2018-07-10T07:54:06Z</time>
      </trkpt>
      <trkpt lat="46.109734307974577" lon="10.521382950246334">
        <ele>2282.3099999999999</ele>
        <time>2018-07-10T07:54:16Z</time>
      </trkpt>
      <trkpt lat="46.109720980748534" lon="10.52137297578156">
        <ele>2283.27</ele>
        <time>2018-07-10T07:54:25Z</time>
      </trkpt>
      <trkpt lat="46.109734391793609" lon="10.521330563351512">
        <ele>2284.71</ele>
        <time>2018-07-10T07:54:35Z</time>
      </trkpt>
      <trkpt lat="46.109757861122489" lon="10.521316146478057">
        <ele>2286.6300000000001</ele>
        <time>2018-07-10T07:54:45Z</time>
      </trkpt>
      <trkpt lat="46.109774792566895" lon="10.52129628136754">
        <ele>2288.0799999999999</ele>
        <time>2018-07-10T07:54:54Z</time>
      </trkpt>
      <trkpt lat="46.109803458675742" lon="10.521297371014953">
        <ele>2289.52</ele>
        <time>2018-07-10T07:55:04Z</time>
      </trkpt>
      <trkpt lat="46.109805386513472" lon="10.521272644400597">
        <ele>2290.48</ele>
        <time>2018-07-10T07:55:13Z</time>
      </trkpt>
      <trkpt lat="46.109830029308796" lon="10.52130751311779">
        <ele>2291.9200000000001</ele>
        <time>2018-07-10T07:55:23Z</time>
      </trkpt>
      <trkpt lat="46.109847547486424" lon="10.521296616643667">
        <ele>2292.8800000000001</ele>
        <time>2018-07-10T07:55:34Z</time>
      </trkpt>
      <trkpt lat="46.109838327392936" lon="10.521233920007944">
        <ele>2295.77</ele>
        <time>2018-07-10T07:55:45Z</time>
      </trkpt>
      <trkpt lat="46.109875543043017" lon="10.521258395165205">
        <ele>2296.73</ele>
        <time>2018-07-10T07:55:56Z</time>
      </trkpt>
      <trkpt lat="46.109892725944519" lon="10.521242218092084">
        <ele>2298.1700000000001</ele>
        <time>2018-07-10T07:56:06Z</time>
      </trkpt>
      <trkpt lat="46.109904795885086" lon="10.521205170080066">
        <ele>2299.1300000000001</ele>
        <time>2018-07-10T07:56:14Z</time>
      </trkpt>
      <trkpt lat="46.109924744814634" lon="10.521167200058699">
        <ele>2300.5700000000002</ele>
        <time>2018-07-10T07:56:22Z</time>
      </trkpt>
      <trkpt lat="46.10994846560061" lon="10.521108694374561">
        <ele>2302.4899999999998</ele>
        <time>2018-07-10T07:56:36Z</time>
      </trkpt>
      <trkpt lat="46.109936898574233" lon="10.521056475117803">
        <ele>2303.9400000000001</ele>
        <time>2018-07-10T07:56:48Z</time>
      </trkpt>
      <trkpt lat="46.109953997656703" lon="10.520988749340177">
        <ele>2305.8600000000001</ele>
        <time>2018-07-10T07:57:01Z</time>
      </trkpt>
      <trkpt lat="46.109953494742513" lon="10.520937200635672">
        <ele>2307.3000000000002</ele>
        <time>2018-07-10T07:57:12Z</time>
      </trkpt>
      <trkpt lat="46.109949890524149" lon="10.520884059369564">
        <ele>2308.7399999999998</ele>
        <time>2018-07-10T07:57:23Z</time>
      </trkpt>
      <trkpt lat="46.109961457550526" lon="10.520831253379583">
        <ele>2310.6700000000001</ele>
        <time>2018-07-10T07:57:33Z</time>
      </trkpt>
      <trkpt lat="46.109967324882746" lon="10.520792109891772">
        <ele>2312.1100000000001</ele>
        <time>2018-07-10T07:57:44Z</time>
      </trkpt>
      <trkpt lat="46.109941340982914" lon="10.520773753523827">
        <ele>2313.5500000000002</ele>
        <time>2018-07-10T07:57:53Z</time>
      </trkpt>
      <trkpt lat="46.109934467822313" lon="10.520695885643363">
        <ele>2314.5100000000002</ele>
        <time>2018-07-10T07:58:02Z</time>
      </trkpt>
      <trkpt lat="46.109941424801946" lon="10.520655233412981">
        <ele>2314.9899999999998</ele>
        <time>2018-07-10T07:58:14Z</time>
      </trkpt>
      <trkpt lat="46.109956931322813" lon="10.520607959479094">
        <ele>2316.9099999999999</ele>
        <time>2018-07-10T07:58:24Z</time>
      </trkpt>
      <trkpt lat="46.109942682087421" lon="10.520569905638695">
        <ele>2318.3600000000001</ele>
        <time>2018-07-10T07:58:34Z</time>
      </trkpt>
      <trkpt lat="46.109957937151194" lon="10.520516680553555">
        <ele>2320.2800000000002</ele>
        <time>2018-07-10T07:58:45Z</time>
      </trkpt>
      <trkpt lat="46.110008228570223" lon="10.520465970039368">
        <ele>2321.2399999999998</ele>
        <time>2018-07-10T07:58:53Z</time>
      </trkpt>
      <trkpt lat="46.110019711777568" lon="10.520428251475096">
        <ele>2322.6799999999998</ele>
        <time>2018-07-10T07:59:02Z</time>
      </trkpt>
      <trkpt lat="46.11002909950912" lon="10.520377373322845">
        <ele>2324.6100000000001</ele>
        <time>2018-07-10T07:59:14Z</time>
      </trkpt>
      <trkpt lat="46.110056424513459" lon="10.520347785204649">
        <ele>2326.5300000000002</ele>
        <time>2018-07-10T07:59:25Z</time>
      </trkpt>
      <trkpt lat="46.110067069530487" lon="10.520339570939541">
        <ele>2327.4899999999998</ele>
        <time>2018-07-10T07:59:35Z</time>
      </trkpt>
      <trkpt lat="46.110055586323142" lon="10.52028919570148">
        <ele>2328.9299999999998</ele>
        <time>2018-07-10T07:59:44Z</time>
      </trkpt>
      <trkpt lat="46.110070841386914" lon="10.520249884575605">
        <ele>2330.3699999999999</ele>
        <time>2018-07-10T07:59:53Z</time>
      </trkpt>
      <trkpt lat="46.110089952126145" lon="10.520211830735207">
        <ele>2331.3299999999999</ele>
        <time>2018-07-10T08:00:02Z</time>
      </trkpt>
      <trkpt lat="46.110094143077731" lon="10.520182074978948">
        <ele>2333.2600000000002</ele>
        <time>2018-07-10T08:00:12Z</time>
      </trkpt>
      <trkpt lat="46.110103279352188" lon="10.52013237029314">
        <ele>2335.1799999999998</ele>
        <time>2018-07-10T08:00:23Z</time>
      </trkpt>
      <trkpt lat="46.110123815014958" lon="10.520098339766264">
        <ele>2336.1399999999999</ele>
        <time>2018-07-10T08:00:32Z</time>
      </trkpt>
      <trkpt lat="46.110140243545175" lon="10.520108733326197">
        <ele>2337.5799999999999</ele>
        <time>2018-07-10T08:00:41Z</time>
      </trkpt>
      <trkpt lat="46.110165305435658" lon="10.520129017531872">
        <ele>2339.02</ele>
        <time>2018-07-10T08:00:51Z</time>
      </trkpt>
      <trkpt lat="46.110183075070381" lon="10.520139075815678">
        <ele>2340.4699999999998</ele>
        <time>2018-07-10T08:01:02Z</time>
      </trkpt>
      <trkpt lat="46.110209058970213" lon="10.520146200433373">
        <ele>2341.9099999999999</ele>
        <time>2018-07-10T08:01:11Z</time>
      </trkpt>
      <trkpt lat="46.110241999849677" lon="10.520133040845394">
        <ele>2343.3499999999999</ele>
        <time>2018-07-10T08:01:21Z</time>
      </trkpt>
      <trkpt lat="46.110217608511448" lon="10.5201137624681">
        <ele>2345.27</ele>
        <time>2018-07-10T08:01:32Z</time>
      </trkpt>
      <trkpt lat="46.110211573541164" lon="10.520056011155248">
        <ele>2346.7199999999998</ele>
        <time>2018-07-10T08:01:41Z</time>
      </trkpt>
      <trkpt lat="46.110246693715453" lon="10.520060118287802">
        <ele>2348.1599999999999</ele>
        <time>2018-07-10T08:01:52Z</time>
      </trkpt>
      <trkpt lat="46.1102753598243" lon="10.5200429353863">
        <ele>2349.5999999999999</ele>
        <time>2018-07-10T08:02:03Z</time>
      </trkpt>
      <trkpt lat="46.11029002815485" lon="10.520008485764265">
        <ele>2351.52</ele>
        <time>2018-07-10T08:02:14Z</time>
      </trkpt>
      <trkpt lat="46.11030519939959" lon="10.519999684765935">
        <ele>2352.48</ele>
        <time>2018-07-10T08:02:26Z</time>
      </trkpt>
      <trkpt lat="46.110319951549172" lon="10.519967246800661">
        <ele>2353.4400000000001</ele>
        <time>2018-07-10T08:02:33Z</time>
      </trkpt>
      <trkpt lat="46.11032665707171" lon="10.519964396953583">
        <ele>2354.4099999999999</ele>
        <time>2018-07-10T08:02:43Z</time>
      </trkpt>
      <trkpt lat="46.110308300703764" lon="10.519952327013016">
        <ele>2356.3299999999999</ele>
        <time>2018-07-10T08:02:52Z</time>
      </trkpt>
      <trkpt lat="46.110325986519456" lon="10.519898599013686">
        <ele>2357.77</ele>
        <time>2018-07-10T08:03:00Z</time>
      </trkpt>
      <trkpt lat="46.11032523214817" lon="10.51986456848681">
        <ele>2359.21</ele>
        <time>2018-07-10T08:03:13Z</time>
      </trkpt>
      <trkpt lat="46.110317185521126" lon="10.519820898771286">
        <ele>2361.1399999999999</ele>
        <time>2018-07-10T08:03:23Z</time>
      </trkpt>
      <trkpt lat="46.110305115580559" lon="10.519822910428047">
        <ele>2361.1399999999999</ele>
        <time>2018-07-10T08:03:34Z</time>
      </trkpt>
      <trkpt lat="46.110343253239989" lon="10.519768930971622">
        <ele>2363.0599999999999</ele>
        <time>2018-07-10T08:03:44Z</time>
      </trkpt>
      <trkpt lat="46.110355155542493" lon="10.519737917929888">
        <ele>2365.46</ele>
        <time>2018-07-10T08:03:50Z</time>
      </trkpt>
      <trkpt lat="46.110361274331808" lon="10.519678657874465">
        <ele>2365.9400000000001</ele>
        <time>2018-07-10T08:04:02Z</time>
      </trkpt>
      <trkpt lat="46.110334787517786" lon="10.519631719216704">
        <ele>2367.3800000000001</ele>
        <time>2018-07-10T08:04:13Z</time>
      </trkpt>
      <trkpt lat="46.110325567424297" lon="10.519622834399343">
        <ele>2366.9000000000001</ele>
        <time>2018-07-10T08:04:14Z</time>
      </trkpt>
      <trkpt lat="46.110274018719792" lon="10.519568519666791">
        <ele>2367.3800000000001</ele>
        <time>2018-07-10T08:04:24Z</time>
      </trkpt>
      <trkpt lat="46.110244849696755" lon="10.519525017589331">
        <ele>2368.8299999999999</ele>
        <time>2018-07-10T08:04:32Z</time>
      </trkpt>
      <trkpt lat="46.110252058133483" lon="10.519461650401354">
        <ele>2369.79</ele>
        <time>2018-07-10T08:04:43Z</time>
      </trkpt>
      <trkpt lat="46.11028709448874" lon="10.51942678168416">
        <ele>2371.23</ele>
        <time>2018-07-10T08:04:54Z</time>
      </trkpt>
      <trkpt lat="46.110311150550842" lon="10.519389230757952">
        <ele>2373.1500000000001</ele>
        <time>2018-07-10T08:05:04Z</time>
      </trkpt>
      <trkpt lat="46.110321041196585" lon="10.519325947389007">
        <ele>2374.5900000000001</ele>
        <time>2018-07-10T08:05:15Z</time>
      </trkpt>
      <trkpt lat="46.110337972640991" lon="10.519269872456789">
        <ele>2376.04</ele>
        <time>2018-07-10T08:05:25Z</time>
      </trkpt>
      <trkpt lat="46.110373344272375" lon="10.51922838203609">
        <ele>2377.48</ele>
        <time>2018-07-10T08:05:35Z</time>
      </trkpt>
      <trkpt lat="46.110402680933475" lon="10.51920591853559">
        <ele>2378.4400000000001</ele>
        <time>2018-07-10T08:05:44Z</time>
      </trkpt>
      <trkpt lat="46.11067651771009" lon="10.51862882450223">
        <ele>2388.0500000000002</ele>
        <time>2018-07-10T08:10:59Z</time>
      </trkpt>
      <trkpt lat="46.110645085573196" lon="10.518661933019757">
        <ele>2385.1700000000001</ele>
        <time>2018-07-10T08:11:06Z</time>
      </trkpt>
      <trkpt lat="46.110643912106752" lon="10.518660005182028">
        <ele>2388.0500000000002</ele>
        <time>2018-07-10T08:11:07Z</time>
      </trkpt>
      <trkpt lat="46.11064282245934" lon="10.518660508096218">
        <ele>2386.6100000000001</ele>
        <time>2018-07-10T08:11:08Z</time>
      </trkpt>
      <trkpt lat="46.110639804974198" lon="10.518662519752979">
        <ele>2384.6900000000001</ele>
        <time>2018-07-10T08:11:09Z</time>
      </trkpt>
      <trkpt lat="46.110632847994566" lon="10.518657742068172">
        <ele>2387.5700000000002</ele>
        <time>2018-07-10T08:11:10Z</time>
      </trkpt>
      <trkpt lat="46.110625388100743" lon="10.518651036545634">
        <ele>2385.6500000000001</ele>
        <time>2018-07-10T08:11:11Z</time>
      </trkpt>
      <trkpt lat="46.110621280968189" lon="10.518649276345968">
        <ele>2389.4899999999998</ele>
        <time>2018-07-10T08:11:12Z</time>
      </trkpt>
      <trkpt lat="46.110622622072697" lon="10.518653299659491">
        <ele>2389.4899999999998</ele>
        <time>2018-07-10T08:11:13Z</time>
      </trkpt>
      <trkpt lat="46.110627986490726" lon="10.518659921362996">
        <ele>2381.3200000000002</ele>
        <time>2018-07-10T08:11:14Z</time>
      </trkpt>
      <trkpt lat="46.110631506890059" lon="10.518666626885533">
        <ele>2391.9000000000001</ele>
        <time>2018-07-10T08:11:15Z</time>
      </trkpt>
      <trkpt lat="46.110633686184883" lon="10.518669225275517">
        <ele>2387.5700000000002</ele>
        <time>2018-07-10T08:11:16Z</time>
      </trkpt>
      <trkpt lat="46.110657071694732" lon="10.51866939291358">
        <ele>2387.0900000000001</ele>
        <time>2018-07-10T08:11:26Z</time>
      </trkpt>
      <trkpt lat="46.110676098614931" lon="10.518670482560992">
        <ele>2376.04</ele>
        <time>2018-07-10T08:11:35Z</time>
      </trkpt>
      <trkpt lat="46.110675511881709" lon="10.518671488389373">
        <ele>2376.04</ele>
        <time>2018-07-10T08:11:36Z</time>
      </trkpt>
      <trkpt lat="46.110673416405916" lon="10.518672075122595">
        <ele>2393.3400000000001</ele>
        <time>2018-07-10T08:11:37Z</time>
      </trkpt>
      <trkpt lat="46.110671237111092" lon="10.518671739846468">
        <ele>2387.0900000000001</ele>
        <time>2018-07-10T08:11:38Z</time>
      </trkpt>
      <trkpt lat="46.110669812187552" lon="10.518671153113246">
        <ele>2385.1700000000001</ele>
        <time>2018-07-10T08:11:39Z</time>
      </trkpt>
      <trkpt lat="46.110667884349823" lon="10.518669057637453">
        <ele>2388.5300000000002</ele>
        <time>2018-07-10T08:11:40Z</time>
      </trkpt>
      <trkpt lat="46.11066478304565" lon="10.518667967990041">
        <ele>2386.6100000000001</ele>
        <time>2018-07-10T08:11:44Z</time>
      </trkpt>
      <trkpt lat="46.110655060037971" lon="10.518668973818421">
        <ele>2383.25</ele>
        <time>2018-07-10T08:11:54Z</time>
      </trkpt>
      <trkpt lat="46.110656065866351" lon="10.518676349893212">
        <ele>2390.46</ele>
        <time>2018-07-10T08:11:55Z</time>
      </trkpt>
      <trkpt lat="46.110656820237637" lon="10.518679367378354">
        <ele>2387.0900000000001</ele>
        <time>2018-07-10T08:11:56Z</time>
      </trkpt>
      <trkpt lat="46.110652210190892" lon="10.518679367378354">
        <ele>2387.5700000000002</ele>
        <time>2018-07-10T08:11:58Z</time>
      </trkpt>
      <trkpt lat="46.110657155513763" lon="10.518660005182028">
        <ele>2386.6100000000001</ele>
        <time>2018-07-10T08:12:02Z</time>
      </trkpt>
      <trkpt lat="46.110655479133129" lon="10.518662352114916">
        <ele>2387.5700000000002</ele>
        <time>2018-07-10T08:12:09Z</time>
      </trkpt>
      <trkpt lat="46.110681463032961" lon="10.518649276345968">
        <ele>2386.6100000000001</ele>
        <time>2018-07-10T08:12:24Z</time>
      </trkpt>
      <trkpt lat="46.110693281516433" lon="10.5186527967453">
        <ele>2386.1300000000001</ele>
        <time>2018-07-10T08:12:50Z</time>
      </trkpt>
      <trkpt lat="46.110492451116443" lon="10.518927220255136">
        <ele>2386.1300000000001</ele>
        <time>2018-07-10T08:13:11Z</time>
      </trkpt>
      <trkpt lat="46.110401172190905" lon="10.518974997103214">
        <ele>2386.1300000000001</ele>
        <time>2018-07-10T08:13:36Z</time>
      </trkpt>
      <trkpt lat="46.110402513295412" lon="10.519013050943613">
        <ele>2385.1700000000001</ele>
        <time>2018-07-10T08:13:48Z</time>
      </trkpt>
      <trkpt lat="46.110401842743158" lon="10.519009865820408">
        <ele>2386.6100000000001</ele>
        <time>2018-07-10T08:13:49Z</time>
      </trkpt>
      <trkpt lat="46.110407542437315" lon="10.518998466432095">
        <ele>2386.6100000000001</ele>
        <time>2018-07-10T08:14:08Z</time>
      </trkpt>
      <trkpt lat="46.110400082543492" lon="10.519004166126251">
        <ele>2386.6100000000001</ele>
        <time>2018-07-10T08:14:17Z</time>
      </trkpt>
      <trkpt lat="46.110403351485729" lon="10.519000981003046">
        <ele>2386.6100000000001</ele>
        <time>2018-07-10T08:14:31Z</time>
      </trkpt>
      <trkpt lat="46.110423132777214" lon="10.518975332379341">
        <ele>2387.5700000000002</ele>
        <time>2018-07-10T08:14:43Z</time>
      </trkpt>
      <trkpt lat="46.110469233244658" lon="10.519006429240108">
        <ele>2389.0100000000002</ele>
        <time>2018-07-10T08:14:54Z</time>
      </trkpt>
      <trkpt lat="46.110474681481719" lon="10.519002405926585">
        <ele>2389.9699999999998</ele>
        <time>2018-07-10T08:14:56Z</time>
      </trkpt>
      <trkpt lat="46.11046789214015" lon="10.519049931317568">
        <ele>2388.5300000000002</ele>
        <time>2018-07-10T08:15:14Z</time>
      </trkpt>
      <trkpt lat="46.110496893525124" lon="10.519032999873161">
        <ele>2390.46</ele>
        <time>2018-07-10T08:15:24Z</time>
      </trkpt>
      <trkpt lat="46.110547855496407" lon="10.519012128934264">
        <ele>2391.9000000000001</ele>
        <time>2018-07-10T08:15:34Z</time>
      </trkpt>
      <trkpt lat="46.110591189935803" lon="10.519003244116902">
        <ele>2392.8600000000001</ele>
        <time>2018-07-10T08:15:44Z</time>
      </trkpt>
      <trkpt lat="46.110598482191563" lon="10.518989665433764">
        <ele>2392.8600000000001</ele>
        <time>2018-07-10T08:15:54Z</time>
      </trkpt>
      <trkpt lat="46.110642738640308" lon="10.51896988414228">
        <ele>2394.7800000000002</ele>
        <time>2018-07-10T08:16:04Z</time>
      </trkpt>
      <trkpt lat="46.110647264868021" lon="10.518967201933265">
        <ele>2395.2600000000002</ele>
        <time>2018-07-10T08:16:08Z</time>
      </trkpt>
      <trkpt lat="46.110668303444982" lon="10.518935602158308">
        <ele>2396.6999999999998</ele>
        <time>2018-07-10T08:16:17Z</time>
      </trkpt>
      <trkpt lat="46.110696634277701" lon="10.518917078152299">
        <ele>2397.6700000000001</ele>
        <time>2018-07-10T08:16:28Z</time>
      </trkpt>
      <trkpt lat="46.110678864642978" lon="10.518966782838106">
        <ele>2397.1799999999998</ele>
        <time>2018-07-10T08:16:36Z</time>
      </trkpt>
      <trkpt lat="46.110677272081375" lon="10.518954880535603">
        <ele>2397.1799999999998</ele>
        <time>2018-07-10T08:16:57Z</time>
      </trkpt>
      <trkpt lat="46.110683055594563" lon="10.518951863050461">
        <ele>2397.6700000000001</ele>
        <time>2018-07-10T08:17:08Z</time>
      </trkpt>
      <trkpt lat="46.110669896006584" lon="10.51898798905313">
        <ele>2399.1100000000001</ele>
        <time>2018-07-10T08:17:15Z</time>
      </trkpt>
      <trkpt lat="46.110667381435633" lon="10.518981534987688">
        <ele>2397.6700000000001</ele>
        <time>2018-07-10T08:17:16Z</time>
      </trkpt>
      <trkpt lat="46.110666543245316" lon="10.518969297409058">
        <ele>2397.6700000000001</ele>
        <time>2018-07-10T08:17:32Z</time>
      </trkpt>
      <trkpt lat="46.110702501609921" lon="10.518957898020744">
        <ele>2398.6300000000001</ele>
        <time>2018-07-10T08:17:42Z</time>
      </trkpt>
      <trkpt lat="46.110733598470688" lon="10.518906516954303">
        <ele>2399.1100000000001</ele>
        <time>2018-07-10T08:17:57Z</time>
      </trkpt>
      <trkpt lat="46.1107605881989" lon="10.518875000998378">
        <ele>2401.0300000000002</ele>
        <time>2018-07-10T08:18:06Z</time>
      </trkpt>
      <trkpt lat="46.110771903768182" lon="10.51886091940105">
        <ele>2402.4699999999998</ele>
        <time>2018-07-10T08:18:14Z</time>
      </trkpt>
      <trkpt lat="46.110789338126779" lon="10.518851447850466">
        <ele>2403.4299999999998</ele>
        <time>2018-07-10T08:18:24Z</time>
      </trkpt>
      <trkpt lat="46.110823368653655" lon="10.518822949379683">
        <ele>2404.8800000000001</ele>
        <time>2018-07-10T08:18:34Z</time>
      </trkpt>
      <trkpt lat="46.110841389745474" lon="10.518807610496879">
        <ele>2406.3200000000002</ele>
        <time>2018-07-10T08:18:46Z</time>
      </trkpt>
      <trkpt lat="46.110875168815255" lon="10.518770981580019">
        <ele>2407.7600000000002</ele>
        <time>2018-07-10T08:18:56Z</time>
      </trkpt>
      <trkpt lat="46.110906098037958" lon="10.51878908649087">
        <ele>2408.7199999999998</ele>
        <time>2018-07-10T08:19:04Z</time>
      </trkpt>
      <trkpt lat="46.11089251935482" lon="10.518761510029435">
        <ele>2410.1599999999999</ele>
        <time>2018-07-10T08:19:15Z</time>
      </trkpt>
      <trkpt lat="46.110920934006572" lon="10.518736783415079">
        <ele>2411.5999999999999</ele>
        <time>2018-07-10T08:19:26Z</time>
      </trkpt>
      <trkpt lat="46.110961167141795" lon="10.518725551664829">
        <ele>2412.5700000000002</ele>
        <time>2018-07-10T08:19:36Z</time>
      </trkpt>
      <trkpt lat="46.11096041277051" lon="10.518663441762328">
        <ele>2414.0100000000002</ele>
        <time>2018-07-10T08:19:46Z</time>
      </trkpt>
      <trkpt lat="46.110987234860659" lon="10.51862639375031">
        <ele>2415.4499999999998</ele>
        <time>2018-07-10T08:19:56Z</time>
      </trkpt>
      <trkpt lat="46.111034592613578" lon="10.51861759275198">
        <ele>2417.3699999999999</ele>
        <time>2018-07-10T08:20:07Z</time>
      </trkpt>
      <trkpt lat="46.11105035059154" lon="10.518574342131615">
        <ele>2418.3299999999999</ele>
        <time>2018-07-10T08:20:18Z</time>
      </trkpt>
      <trkpt lat="46.111042555421591" lon="10.51854282617569">
        <ele>2419.3000000000002</ele>
        <time>2018-07-10T08:20:26Z</time>
      </trkpt>
      <trkpt lat="46.111046830192208" lon="10.518501503393054">
        <ele>2420.7399999999998</ele>
        <time>2018-07-10T08:20:36Z</time>
      </trkpt>
      <trkpt lat="46.11108161509037" lon="10.518470490351319">
        <ele>2421.6999999999998</ele>
        <time>2018-07-10T08:20:45Z</time>
      </trkpt>
      <trkpt lat="46.111120255663991" lon="10.518451295793056">
        <ele>2423.1399999999999</ele>
        <time>2018-07-10T08:20:54Z</time>
      </trkpt>
      <trkpt lat="46.111152274534106" lon="10.518467305228114">
        <ele>2424.0999999999999</ele>
        <time>2018-07-10T08:21:03Z</time>
      </trkpt>
      <trkpt lat="46.11119007691741" lon="10.518483482301235">
        <ele>2425.54</ele>
        <time>2018-07-10T08:21:14Z</time>
      </trkpt>
      <trkpt lat="46.111206756904721" lon="10.518486248329282">
        <ele>2426.9899999999998</ele>
        <time>2018-07-10T08:21:17Z</time>
      </trkpt>
      <trkpt lat="46.111225867643952" lon="10.518465461209416">
        <ele>2426.9899999999998</ele>
        <time>2018-07-10T08:21:27Z</time>
      </trkpt>
      <trkpt lat="46.111248163506389" lon="10.518442830070853">
        <ele>2428.4299999999998</ele>
        <time>2018-07-10T08:21:36Z</time>
      </trkpt>
      <trkpt lat="46.111261155456305" lon="10.518386755138636">
        <ele>2430.3499999999999</ele>
        <time>2018-07-10T08:21:45Z</time>
      </trkpt>
      <trkpt lat="46.111286552622914" lon="10.518335541710258">
        <ele>2432.27</ele>
        <time>2018-07-10T08:21:54Z</time>
      </trkpt>
      <trkpt lat="46.111285630613565" lon="10.518275108188391">
        <ele>2433.71</ele>
        <time>2018-07-10T08:22:06Z</time>
      </trkpt>
      <trkpt lat="46.111328713595867" lon="10.518262032419443">
        <ele>2435.6399999999999</ele>
        <time>2018-07-10T08:22:16Z</time>
      </trkpt>
      <trkpt lat="46.111355954781175" lon="10.518231438472867">
        <ele>2437.0799999999999</ele>
        <time>2018-07-10T08:22:27Z</time>
      </trkpt>
      <trkpt lat="46.11137380823493" lon="10.51821157336235">
        <ele>2438.52</ele>
        <time>2018-07-10T08:22:37Z</time>
      </trkpt>
      <trkpt lat="46.111408928409219" lon="10.518198329955339">
        <ele>2439.48</ele>
        <time>2018-07-10T08:22:46Z</time>
      </trkpt>
      <trkpt lat="46.111455112695694" lon="10.518187517300248">
        <ele>2440.9200000000001</ele>
        <time>2018-07-10T08:22:58Z</time>
      </trkpt>
      <trkpt lat="46.111448490992188" lon="10.518153067678213">
        <ele>2442.3699999999999</ele>
        <time>2018-07-10T08:23:07Z</time>
      </trkpt>
      <trkpt lat="46.111492747440934" lon="10.518142255023122">
        <ele>2444.77</ele>
        <time>2018-07-10T08:23:17Z</time>
      </trkpt>
      <trkpt lat="46.111518228426576" lon="10.518094645813107">
        <ele>2446.21</ele>
        <time>2018-07-10T08:23:27Z</time>
      </trkpt>
      <trkpt lat="46.111520742997527" lon="10.518080815672874">
        <ele>2447.1700000000001</ele>
        <time>2018-07-10T08:23:35Z</time>
      </trkpt>
      <trkpt lat="46.111547732725739" lon="10.518045946955681">
        <ele>2448.6199999999999</ele>
        <time>2018-07-10T08:23:45Z</time>
      </trkpt>
      <trkpt lat="46.111578745767474" lon="10.518018957227468">
        <ele>2450.54</ele>
        <time>2018-07-10T08:23:56Z</time>
      </trkpt>
      <trkpt lat="46.111593078821898" lon="10.517984088510275">
        <ele>2451.98</ele>
        <time>2018-07-10T08:24:05Z</time>
      </trkpt>
      <trkpt lat="46.111615961417556" lon="10.517952488735318">
        <ele>2453.4200000000001</ele>
        <time>2018-07-10T08:24:15Z</time>
      </trkpt>
      <trkpt lat="46.111621828749776" lon="10.517894234508276">
        <ele>2455.3400000000001</ele>
        <time>2018-07-10T08:24:27Z</time>
      </trkpt>
      <trkpt lat="46.111641610041261" lon="10.517867077142">
        <ele>2456.79</ele>
        <time>2018-07-10T08:24:37Z</time>
      </trkpt>
      <trkpt lat="46.111700451001525" lon="10.517874788492918">
        <ele>2458.23</ele>
        <time>2018-07-10T08:24:48Z</time>
      </trkpt>
      <trkpt lat="46.111719477921724" lon="10.517861042171717">
        <ele>2459.1900000000001</ele>
        <time>2018-07-10T08:24:57Z</time>
      </trkpt>
      <trkpt lat="46.111713526770473" lon="10.517841596156359">
        <ele>2461.1100000000001</ele>
        <time>2018-07-10T08:25:07Z</time>
      </trkpt>
      <trkpt lat="46.111737163737416" lon="10.517797926440835">
        <ele>2464</ele>
        <time>2018-07-10T08:25:18Z</time>
      </trkpt>
      <trkpt lat="46.111780665814877" lon="10.517785521224141">
        <ele>2464</ele>
        <time>2018-07-10T08:25:24Z</time>
      </trkpt>
      <trkpt lat="46.111837411299348" lon="10.517756352201104">
        <ele>2464.96</ele>
        <time>2018-07-10T08:25:35Z</time>
      </trkpt>
      <trkpt lat="46.111840344965458" lon="10.51781234331429">
        <ele>2465.4400000000001</ele>
        <time>2018-07-10T08:25:46Z</time>
      </trkpt>
      <trkpt lat="46.111872615292668" lon="10.517838411033154">
        <ele>2466.4000000000001</ele>
        <time>2018-07-10T08:25:54Z</time>
      </trkpt>
      <trkpt lat="46.111904047429562" lon="10.517895491793752">
        <ele>2467.3600000000001</ele>
        <time>2018-07-10T08:26:04Z</time>
      </trkpt>
      <trkpt lat="46.111920475959778" lon="10.517849307507277">
        <ele>2468.8000000000002</ele>
        <time>2018-07-10T08:26:11Z</time>
      </trkpt>
      <trkpt lat="46.111965319141746" lon="10.517883254215121">
        <ele>2470.2399999999998</ele>
        <time>2018-07-10T08:26:20Z</time>
      </trkpt>
      <trkpt lat="46.11199096776545" lon="10.51792130805552">
        <ele>2471.6900000000001</ele>
        <time>2018-07-10T08:26:29Z</time>
      </trkpt>
      <trkpt lat="46.112021561712027" lon="10.51797310821712">
        <ele>2474.0900000000001</ele>
        <time>2018-07-10T08:26:40Z</time>
      </trkpt>
      <trkpt lat="46.112042851746082" lon="10.518009569495916">
        <ele>2475.5300000000002</ele>
        <time>2018-07-10T08:26:51Z</time>
      </trkpt>
      <trkpt lat="46.112065650522709" lon="10.518017197027802">
        <ele>2477.4499999999998</ele>
        <time>2018-07-10T08:26:59Z</time>
      </trkpt>
      <trkpt lat="46.112088449299335" lon="10.517970845103264">
        <ele>2479.3800000000001</ele>
        <time>2018-07-10T08:27:11Z</time>
      </trkpt>
      <trkpt lat="46.11211309209466" lon="10.517962211742997">
        <ele>2480.8200000000002</ele>
        <time>2018-07-10T08:27:20Z</time>
      </trkpt>
      <trkpt lat="46.112021813169122" lon="10.518150720745325">
        <ele>2482.2600000000002</ele>
        <time>2018-07-10T08:27:30Z</time>
      </trkpt>
      <trkpt lat="46.111991051584482" lon="10.51823403686285">
        <ele>2483.2199999999998</ele>
        <time>2018-07-10T08:27:37Z</time>
      </trkpt>
      <trkpt lat="46.112003205344081" lon="10.518211741000414">
        <ele>2484.6599999999999</ele>
        <time>2018-07-10T08:27:46Z</time>
      </trkpt>
      <trkpt lat="46.112017957493663" lon="10.518174441531301">
        <ele>2486.5900000000001</ele>
        <time>2018-07-10T08:27:57Z</time>
      </trkpt>
      <trkpt lat="46.112030278891325" lon="10.518196653574705">
        <ele>2488.0300000000002</ele>
        <time>2018-07-10T08:28:07Z</time>
      </trkpt>
      <trkpt lat="46.112039666622877" lon="10.518218614161015">
        <ele>2488.9899999999998</ele>
        <time>2018-07-10T08:28:15Z</time>
      </trkpt>
      <trkpt lat="46.112017035484314" lon="10.518288854509592">
        <ele>2489.9499999999998</ele>
        <time>2018-07-10T08:28:26Z</time>
      </trkpt>
      <trkpt lat="46.11199926584959" lon="10.518301678821445">
        <ele>2489.9499999999998</ele>
        <time>2018-07-10T08:28:39Z</time>
      </trkpt>
      <trkpt lat="46.112011754885316" lon="10.518325315788388">
        <ele>2491.3899999999999</ele>
        <time>2018-07-10T08:28:49Z</time>
      </trkpt>
      <trkpt lat="46.112014688551426" lon="10.518331350758672">
        <ele>2491.8699999999999</ele>
        <time>2018-07-10T08:28:50Z</time>
      </trkpt>
      <trkpt lat="46.112047713249922" lon="10.518349623307586">
        <ele>2493.8000000000002</ele>
        <time>2018-07-10T08:28:59Z</time>
      </trkpt>
      <trkpt lat="46.112063219770789" lon="10.518345516175032">
        <ele>2495.7199999999998</ele>
        <time>2018-07-10T08:29:09Z</time>
      </trkpt>
      <trkpt lat="46.112072775140405" lon="10.518344342708588">
        <ele>2497.1599999999999</ele>
        <time>2018-07-10T08:29:20Z</time>
      </trkpt>
      <trkpt lat="46.11208819784224" lon="10.518350964412093">
        <ele>2498.1199999999999</ele>
        <time>2018-07-10T08:29:31Z</time>
      </trkpt>
      <trkpt lat="46.112095573917031" lon="10.518360771238804">
        <ele>2500.0500000000002</ele>
        <time>2018-07-10T08:29:42Z</time>
      </trkpt>
      <trkpt lat="46.11210529692471" lon="10.518396897241473">
        <ele>2501.4899999999998</ele>
        <time>2018-07-10T08:29:52Z</time>
      </trkpt>
      <trkpt lat="46.112111248075962" lon="10.518358172848821">
        <ele>2502.9299999999998</ele>
        <time>2018-07-10T08:30:04Z</time>
      </trkpt>
      <trkpt lat="46.112150056287646" lon="10.518272677436471">
        <ele>2503.8899999999999</ele>
        <time>2018-07-10T08:30:17Z</time>
      </trkpt>
      <trkpt lat="46.112129604443908" lon="10.518257590010762">
        <ele>2505.3299999999999</ele>
        <time>2018-07-10T08:30:26Z</time>
      </trkpt>
      <trkpt lat="46.112140165641904" lon="10.518317520618439">
        <ele>2506.77</ele>
        <time>2018-07-10T08:30:36Z</time>
      </trkpt>
      <trkpt lat="46.112151145935059" lon="10.518351970240474">
        <ele>2507.7399999999998</ele>
        <time>2018-07-10T08:30:46Z</time>
      </trkpt>
      <trkpt lat="46.112166400998831" lon="10.518323555588722">
        <ele>2509.1799999999998</ele>
        <time>2018-07-10T08:30:54Z</time>
      </trkpt>
      <trkpt lat="46.112176794558764" lon="10.518286088481545">
        <ele>2510.6199999999999</ele>
        <time>2018-07-10T08:31:04Z</time>
      </trkpt>
      <trkpt lat="46.112198922783136" lon="10.518269576132298">
        <ele>2511.5799999999999</ele>
        <time>2018-07-10T08:31:12Z</time>
      </trkpt>
      <trkpt lat="46.112204035744071" lon="10.518232779577374">
        <ele>2513.02</ele>
        <time>2018-07-10T08:31:20Z</time>
      </trkpt>
      <trkpt lat="46.112214010208845" lon="10.518208807334304">
        <ele>2514.4699999999998</ele>
        <time>2018-07-10T08:31:31Z</time>
      </trkpt>
      <trkpt lat="46.112219793722034" lon="10.518184332177043">
        <ele>2515.9099999999999</ele>
        <time>2018-07-10T08:31:40Z</time>
      </trkpt>
      <trkpt lat="46.112223397940397" lon="10.518183913081884">
        <ele>2515.9099999999999</ele>
        <time>2018-07-10T08:31:42Z</time>
      </trkpt>
      <trkpt lat="46.112227672711015" lon="10.518177626654506">
        <ele>2516.8699999999999</ele>
        <time>2018-07-10T08:31:51Z</time>
      </trkpt>
      <trkpt lat="46.112242927774787" lon="10.518151307478547">
        <ele>2518.3099999999999</ele>
        <time>2018-07-10T08:32:02Z</time>
      </trkpt>
      <trkpt lat="46.11226312816143" lon="10.51817687228322">
        <ele>2519.27</ele>
        <time>2018-07-10T08:32:10Z</time>
      </trkpt>
      <trkpt lat="46.11223965883255" lon="10.518222553655505">
        <ele>2519.75</ele>
        <time>2018-07-10T08:32:19Z</time>
      </trkpt>
      <trkpt lat="46.112232869490981" lon="10.518240826204419">
        <ele>2519.27</ele>
        <time>2018-07-10T08:32:38Z</time>
      </trkpt>
      <trkpt lat="46.11225382424891" lon="10.518257338553667">
        <ele>2520.71</ele>
        <time>2018-07-10T08:32:57Z</time>
      </trkpt>
      <trkpt lat="46.112223314121366" lon="10.518233282491565">
        <ele>2519.75</ele>
        <time>2018-07-10T08:33:08Z</time>
      </trkpt>
      <trkpt lat="46.112217362970114" lon="10.51823646761477">
        <ele>2519.75</ele>
        <time>2018-07-10T08:33:17Z</time>
      </trkpt>
      <trkpt lat="46.112220715731382" lon="10.51823110319674">
        <ele>2521.1900000000001</ele>
        <time>2018-07-10T08:33:22Z</time>
      </trkpt>
      <trkpt lat="46.112225744873285" lon="10.51824820227921">
        <ele>2519.75</ele>
        <time>2018-07-10T08:33:36Z</time>
      </trkpt>
      <trkpt lat="46.112228846177459" lon="10.51826236769557">
        <ele>2519.75</ele>
        <time>2018-07-10T08:33:51Z</time>
      </trkpt>
      <trkpt lat="46.112218787893653" lon="10.518262535333633">
        <ele>2520.23</ele>
        <time>2018-07-10T08:34:05Z</time>
      </trkpt>
      <trkpt lat="46.112207556143403" lon="10.51826479844749">
        <ele>2520.23</ele>
        <time>2018-07-10T08:34:25Z</time>
      </trkpt>
      <trkpt lat="46.112214177846909" lon="10.518268989399076">
        <ele>2518.3099999999999</ele>
        <time>2018-07-10T08:34:46Z</time>
      </trkpt>
      <trkpt lat="46.112209316343069" lon="10.518274521455169">
        <ele>2520.23</ele>
        <time>2018-07-10T08:34:47Z</time>
      </trkpt>
      <trkpt lat="46.112203532829881" lon="10.518270749598742">
        <ele>2522.6399999999999</ele>
        <time>2018-07-10T08:34:50Z</time>
      </trkpt>
      <trkpt lat="46.112203784286976" lon="10.518272928893566">
        <ele>2520.23</ele>
        <time>2018-07-10T08:34:51Z</time>
      </trkpt>
      <trkpt lat="46.112206466495991" lon="10.518270330503583">
        <ele>2519.75</ele>
        <time>2018-07-10T08:35:03Z</time>
      </trkpt>
      <trkpt lat="46.112240664660931" lon="10.518244346603751">
        <ele>2520.23</ele>
        <time>2018-07-10T08:35:29Z</time>
      </trkpt>
      <trkpt lat="46.112258182838559" lon="10.518218111246824">
        <ele>2519.75</ele>
        <time>2018-07-10T08:35:53Z</time>
      </trkpt>
      <trkpt lat="46.112260278314352" lon="10.518201263621449">
        <ele>2520.23</ele>
        <time>2018-07-10T08:36:09Z</time>
      </trkpt>
      <trkpt lat="46.112253908067942" lon="10.518209310248494">
        <ele>2520.23</ele>
        <time>2018-07-10T08:36:25Z</time>
      </trkpt>
      <trkpt lat="46.112223649397492" lon="10.518228756263852">
        <ele>2520.23</ele>
        <time>2018-07-10T08:36:51Z</time>
      </trkpt>
      <trkpt lat="46.112226918339729" lon="10.518256248906255">
        <ele>2519.27</ele>
        <time>2018-07-10T08:36:59Z</time>
      </trkpt>
      <trkpt lat="46.112223146483302" lon="10.518257841467857">
        <ele>2520.23</ele>
        <time>2018-07-10T08:37:01Z</time>
      </trkpt>
      <trkpt lat="46.112222308292985" lon="10.518258763477206">
        <ele>2521.6799999999998</ele>
        <time>2018-07-10T08:37:02Z</time>
      </trkpt>
      <trkpt lat="46.112215267494321" lon="10.518241161480546">
        <ele>2520.71</ele>
        <time>2018-07-10T08:37:21Z</time>
      </trkpt>
      <trkpt lat="46.112203784286976" lon="10.518273850902915">
        <ele>2521.1900000000001</ele>
        <time>2018-07-10T08:37:44Z</time>
      </trkpt>
      <trkpt lat="46.112199677154422" lon="10.518287345767021">
        <ele>2521.1900000000001</ele>
        <time>2018-07-10T08:38:00Z</time>
      </trkpt>
      <trkpt lat="46.112183416262269" lon="10.518285753205419">
        <ele>2521.6799999999998</ele>
        <time>2018-07-10T08:38:22Z</time>
      </trkpt>
      <trkpt lat="46.112191965803504" lon="10.518305953592062">
        <ele>2521.6799999999998</ele>
        <time>2018-07-10T08:38:36Z</time>
      </trkpt>
      <trkpt lat="46.112257093191147" lon="10.518237473443151">
        <ele>2522.6399999999999</ele>
        <time>2018-07-10T08:38:55Z</time>
      </trkpt>
      <trkpt lat="46.112317610532045" lon="10.518159605562687">
        <ele>2525.52</ele>
        <time>2018-07-10T08:39:05Z</time>
      </trkpt>
      <trkpt lat="46.112316604703665" lon="10.518137644976377">
        <ele>2526.96</ele>
        <time>2018-07-10T08:39:15Z</time>
      </trkpt>
      <trkpt lat="46.112367063760757" lon="10.518088359385729">
        <ele>2529.3699999999999</ele>
        <time>2018-07-10T08:39:27Z</time>
      </trkpt>
      <trkpt lat="46.112402938306332" lon="10.51807964220643">
        <ele>2530.8099999999999</ele>
        <time>2018-07-10T08:39:37Z</time>
      </trkpt>
      <trkpt lat="46.112441327422857" lon="10.518076792359352">
        <ele>2532.25</ele>
        <time>2018-07-10T08:39:48Z</time>
      </trkpt>
      <trkpt lat="46.112440824508667" lon="10.518067320808768">
        <ele>2533.6900000000001</ele>
        <time>2018-07-10T08:39:58Z</time>
      </trkpt>
      <trkpt lat="46.112400842830539" lon="10.518051814287901">
        <ele>2535.1300000000001</ele>
        <time>2018-07-10T08:40:09Z</time>
      </trkpt>
      <trkpt lat="46.112373098731041" lon="10.51800730638206">
        <ele>2536.0999999999999</ele>
        <time>2018-07-10T08:40:20Z</time>
      </trkpt>
      <trkpt lat="46.112407045438886" lon="10.517959864810109">
        <ele>2536.5799999999999</ele>
        <time>2018-07-10T08:40:31Z</time>
      </trkpt>
      <trkpt lat="46.112426072359085" lon="10.517892390489578">
        <ele>2538.98</ele>
        <time>2018-07-10T08:40:42Z</time>
      </trkpt>
      <trkpt lat="46.11246345564723" lon="10.517872776836157">
        <ele>2540.4200000000001</ele>
        <time>2018-07-10T08:40:54Z</time>
      </trkpt>
      <trkpt lat="46.112493798136711" lon="10.517878225073218">
        <ele>2541.8600000000001</ele>
        <time>2018-07-10T08:41:04Z</time>
      </trkpt>
      <trkpt lat="46.112524224445224" lon="10.517856515944004">
        <ele>2542.3400000000001</ele>
        <time>2018-07-10T08:41:13Z</time>
      </trkpt>
      <trkpt lat="46.112562781199813" lon="10.517817875370383">
        <ele>2544.27</ele>
        <time>2018-07-10T08:41:25Z</time>
      </trkpt>
      <trkpt lat="46.112562110647559" lon="10.517779402434826">
        <ele>2544.27</ele>
        <time>2018-07-10T08:41:33Z</time>
      </trkpt>
      <trkpt lat="46.112574096769094" lon="10.517756687477231">
        <ele>2544.75</ele>
        <time>2018-07-10T08:41:41Z</time>
      </trkpt>
      <trkpt lat="46.112581891939044" lon="10.517681082710624">
        <ele>2547.1500000000001</ele>
        <time>2018-07-10T08:41:54Z</time>
      </trkpt>
      <trkpt lat="46.112608965486288" lon="10.517632467672229">
        <ele>2548.5900000000001</ele>
        <time>2018-07-10T08:42:04Z</time>
      </trkpt>
      <trkpt lat="46.112630004063249" lon="10.517592485994101">
        <ele>2549.0700000000002</ele>
        <time>2018-07-10T08:42:13Z</time>
      </trkpt>
      <trkpt lat="46.112668057903647" lon="10.517492489889264">
        <ele>2549.0700000000002</ele>
        <time>2018-07-10T08:42:24Z</time>
      </trkpt>
      <trkpt lat="46.112682642415166" lon="10.51742828451097">
        <ele>2550.5100000000002</ele>
        <time>2018-07-10T08:42:35Z</time>
      </trkpt>
      <trkpt lat="46.112669063732028" lon="10.517407162114978">
        <ele>2551</ele>
        <time>2018-07-10T08:42:44Z</time>
      </trkpt>
      <trkpt lat="46.112642744556069" lon="10.517408838495612">
        <ele>2551.48</ele>
        <time>2018-07-10T08:42:55Z</time>
      </trkpt>
      <trkpt lat="46.112624891102314" lon="10.517367515712976">
        <ele>2553.4000000000001</ele>
        <time>2018-07-10T08:43:05Z</time>
      </trkpt>
      <trkpt lat="46.112595638260245" lon="10.517351757735014">
        <ele>2554.3600000000001</ele>
        <time>2018-07-10T08:43:15Z</time>
      </trkpt>
      <trkpt lat="46.112582646310329" lon="10.517336754128337">
        <ele>2556.2800000000002</ele>
        <time>2018-07-10T08:43:25Z</time>
      </trkpt>
      <trkpt lat="46.112565714865923" lon="10.517297107726336">
        <ele>2557.73</ele>
        <time>2018-07-10T08:43:34Z</time>
      </trkpt>
      <trkpt lat="46.112530510872602" lon="10.517277410253882">
        <ele>2559.1700000000001</ele>
        <time>2018-07-10T08:43:43Z</time>
      </trkpt>
      <trkpt lat="46.11247954890132" lon="10.517252432182431">
        <ele>2561.0900000000001</ele>
        <time>2018-07-10T08:43:56Z</time>
      </trkpt>
      <trkpt lat="46.112449038773775" lon="10.517204822972417">
        <ele>2563.0100000000002</ele>
        <time>2018-07-10T08:44:08Z</time>
      </trkpt>
      <trkpt lat="46.112409560009837" lon="10.517177833244205">
        <ele>2563.4899999999998</ele>
        <time>2018-07-10T08:44:17Z</time>
      </trkpt>
      <trkpt lat="46.112339571118355" lon="10.517137348651886">
        <ele>2564.4499999999998</ele>
        <time>2018-07-10T08:44:30Z</time>
      </trkpt>
      <trkpt lat="46.112265894189477" lon="10.517015559598804">
        <ele>2565.9000000000001</ele>
        <time>2018-07-10T08:44:44Z</time>
      </trkpt>
      <trkpt lat="46.112228259444237" lon="10.517011787742376">
        <ele>2566.3800000000001</ele>
        <time>2018-07-10T08:44:55Z</time>
      </trkpt>
      <trkpt lat="46.112193306908011" lon="10.516966106370091">
        <ele>2567.8200000000002</ele>
        <time>2018-07-10T08:45:06Z</time>
      </trkpt>
      <trkpt lat="46.112183080986142" lon="10.516909444704652">
        <ele>2569.2600000000002</ele>
        <time>2018-07-10T08:45:17Z</time>
      </trkpt>
      <trkpt lat="46.112168915569782" lon="10.516855046153069">
        <ele>2570.6999999999998</ele>
        <time>2018-07-10T08:45:30Z</time>
      </trkpt>
      <trkpt lat="46.112205879762769" lon="10.516832750290632">
        <ele>2571.6599999999999</ele>
        <time>2018-07-10T08:45:41Z</time>
      </trkpt>
      <trkpt lat="46.112245107069612" lon="10.516830906271935">
        <ele>2573.5900000000001</ele>
        <time>2018-07-10T08:45:52Z</time>
      </trkpt>
      <trkpt lat="46.112261116504669" lon="10.516841467469931">
        <ele>2574.5500000000002</ele>
        <time>2018-07-10T08:46:02Z</time>
      </trkpt>
      <trkpt lat="46.112286262214184" lon="10.516823614016175">
        <ele>2575.9899999999998</ele>
        <time>2018-07-10T08:46:13Z</time>
      </trkpt>
      <trkpt lat="46.112341834232211" lon="10.51681456156075">
        <ele>2577.4299999999998</ele>
        <time>2018-07-10T08:46:24Z</time>
      </trkpt>
      <trkpt lat="46.112395478412509" lon="10.516804587095976">
        <ele>2578.8699999999999</ele>
        <time>2018-07-10T08:46:36Z</time>
      </trkpt>
      <trkpt lat="46.112383659929037" lon="10.516765275970101">
        <ele>2579.8400000000001</ele>
        <time>2018-07-10T08:46:46Z</time>
      </trkpt>
      <trkpt lat="46.112416768446565" lon="10.516756307333708">
        <ele>2580.8000000000002</ele>
        <time>2018-07-10T08:46:58Z</time>
      </trkpt>
      <trkpt lat="46.112432274967432" lon="10.51669486798346">
        <ele>2582.7199999999998</ele>
        <time>2018-07-10T08:47:08Z</time>
      </trkpt>
      <trkpt lat="46.112441578879952" lon="10.516639295965433">
        <ele>2584.1599999999999</ele>
        <time>2018-07-10T08:47:20Z</time>
      </trkpt>
      <trkpt lat="46.112434789538383" lon="10.51656142808497">
        <ele>2585.5999999999999</ele>
        <time>2018-07-10T08:47:32Z</time>
      </trkpt>
      <trkpt lat="46.11242925748229" lon="10.516525469720364">
        <ele>2586.5599999999999</ele>
        <time>2018-07-10T08:47:44Z</time>
      </trkpt>
      <trkpt lat="46.112456917762756" lon="10.516483895480633">
        <ele>2588.0100000000002</ele>
        <time>2018-07-10T08:47:55Z</time>
      </trkpt>
      <trkpt lat="46.11248105764389" lon="10.516460174694657">
        <ele>2589.4499999999998</ele>
        <time>2018-07-10T08:48:05Z</time>
      </trkpt>
      <trkpt lat="46.112510729581118" lon="10.516478111967444">
        <ele>2590.8899999999999</ele>
        <time>2018-07-10T08:48:16Z</time>
      </trkpt>
      <trkpt lat="46.112523470073938" lon="10.516476603224874">
        <ele>2591.8499999999999</ele>
        <time>2018-07-10T08:48:28Z</time>
      </trkpt>
      <trkpt lat="46.112551717087626" lon="10.516468640416861">
        <ele>2592.8099999999999</ele>
        <time>2018-07-10T08:48:40Z</time>
      </trkpt>
      <trkpt lat="46.112563954666257" lon="10.516439890488982">
        <ele>2594.25</ele>
        <time>2018-07-10T08:48:50Z</time>
      </trkpt>
      <trkpt lat="46.112574432045221" lon="10.51637819968164">
        <ele>2596.1799999999998</ele>
        <time>2018-07-10T08:49:02Z</time>
      </trkpt>
      <trkpt lat="46.112614665180445" lon="10.516361938789487">
        <ele>2597.1399999999999</ele>
        <time>2018-07-10T08:49:12Z</time>
      </trkpt>
      <trkpt lat="46.112592201679945" lon="10.516332350671291">
        <ele>2598.0999999999999</ele>
        <time>2018-07-10T08:49:23Z</time>
      </trkpt>
      <trkpt lat="46.112610725685954" lon="10.516274934634566">
        <ele>2599.54</ele>
        <time>2018-07-10T08:49:34Z</time>
      </trkpt>
      <trkpt lat="46.112628411501646" lon="10.516255404800177">
        <ele>2600.02</ele>
        <time>2018-07-10T08:49:45Z</time>
      </trkpt>
      <trkpt lat="46.112640481442213" lon="10.516249034553766">
        <ele>2600.5</ele>
        <time>2018-07-10T08:49:56Z</time>
      </trkpt>
      <trkpt lat="46.112665208056569" lon="10.516218356788158">
        <ele>2602.4299999999998</ele>
        <time>2018-07-10T08:50:08Z</time>
      </trkpt>
      <trkpt lat="46.11270728521049" lon="10.516182230785489">
        <ele>2604.3499999999999</ele>
        <time>2018-07-10T08:50:18Z</time>
      </trkpt>
      <trkpt lat="46.112721869722009" lon="10.516153564676642">
        <ele>2604.8299999999999</ele>
        <time>2018-07-10T08:50:28Z</time>
      </trkpt>
      <trkpt lat="46.112730083987117" lon="10.516104949638247">
        <ele>2606.75</ele>
        <time>2018-07-10T08:50:40Z</time>
      </trkpt>
      <trkpt lat="46.112762941047549" lon="10.516064381226897">
        <ele>2608.1900000000001</ele>
        <time>2018-07-10T08:50:50Z</time>
      </trkpt>
      <trkpt lat="46.112783811986446" lon="10.516014089807868">
        <ele>2609.6399999999999</ele>
        <time>2018-07-10T08:51:01Z</time>
      </trkpt>
      <trkpt lat="46.112809292972088" lon="10.516003277152777">
        <ele>2610.1199999999999</ele>
        <time>2018-07-10T08:51:13Z</time>
      </trkpt>
      <trkpt lat="46.112812729552388" lon="10.515970503911376">
        <ele>2610.5999999999999</ele>
        <time>2018-07-10T08:51:30Z</time>
      </trkpt>
      <trkpt lat="46.112845670431852" lon="10.516013251617551">
        <ele>2611.5599999999999</ele>
        <time>2018-07-10T08:51:41Z</time>
      </trkpt>
      <trkpt lat="46.112863440066576" lon="10.516026075929403">
        <ele>2613.48</ele>
        <time>2018-07-10T08:51:53Z</time>
      </trkpt>
      <trkpt lat="46.112875510007143" lon="10.516083743423223">
        <ele>2614.9200000000001</ele>
        <time>2018-07-10T08:52:03Z</time>
      </trkpt>
      <trkpt lat="46.112889423966408" lon="10.51610897295177">
        <ele>2615.8800000000001</ele>
        <time>2018-07-10T08:52:14Z</time>
      </trkpt>
      <trkpt lat="46.112910378724337" lon="10.516151636838913">
        <ele>2617.3299999999999</ele>
        <time>2018-07-10T08:52:24Z</time>
      </trkpt>
      <trkpt lat="46.112927896901965" lon="10.516128418967128">
        <ele>2618.29</ele>
        <time>2018-07-10T08:52:34Z</time>
      </trkpt>
      <trkpt lat="46.112946672365069" lon="10.516095561906695">
        <ele>2619.25</ele>
        <time>2018-07-10T08:52:45Z</time>
      </trkpt>
      <trkpt lat="46.112992940470576" lon="10.516096735373139">
        <ele>2621.6500000000001</ele>
        <time>2018-07-10T08:52:56Z</time>
      </trkpt>
      <trkpt lat="46.112992772832513" lon="10.51600830629468">
        <ele>2623.0900000000001</ele>
        <time>2018-07-10T08:53:09Z</time>
      </trkpt>
      <trkpt lat="46.113007524982095" lon="10.515924571081996">
        <ele>2623.5799999999999</ele>
        <time>2018-07-10T08:53:21Z</time>
      </trkpt>
      <trkpt lat="46.113031916320324" lon="10.515896324068308">
        <ele>2623.5799999999999</ele>
        <time>2018-07-10T08:53:33Z</time>
      </trkpt>
      <trkpt lat="46.113066365942359" lon="10.515840165317059">
        <ele>2624.54</ele>
        <time>2018-07-10T08:53:43Z</time>
      </trkpt>
      <trkpt lat="46.11310794018209" lon="10.515820132568479">
        <ele>2625.98</ele>
        <time>2018-07-10T08:53:54Z</time>
      </trkpt>
      <trkpt lat="46.113129900768399" lon="10.515791634097695">
        <ele>2627.9000000000001</ele>
        <time>2018-07-10T08:54:05Z</time>
      </trkpt>
      <trkpt lat="46.113176252692938" lon="10.515771852806211">
        <ele>2629.3400000000001</ele>
        <time>2018-07-10T08:54:16Z</time>
      </trkpt>
      <trkpt lat="46.113194776698947" lon="10.515724830329418">
        <ele>2630.79</ele>
        <time>2018-07-10T08:54:27Z</time>
      </trkpt>
      <trkpt lat="46.113208523020148" lon="10.515680490061641">
        <ele>2632.23</ele>
        <time>2018-07-10T08:54:36Z</time>
      </trkpt>
      <trkpt lat="46.11323744058609" lon="10.515615278854966">
        <ele>2633.6700000000001</ele>
        <time>2018-07-10T08:54:48Z</time>
      </trkpt>
      <trkpt lat="46.113265017047524" lon="10.515611004084349">
        <ele>2635.1100000000001</ele>
        <time>2018-07-10T08:54:59Z</time>
      </trkpt>
      <trkpt lat="46.113278595730662" lon="10.515655260533094">
        <ele>2635.5900000000001</ele>
        <time>2018-07-10T08:55:15Z</time>
      </trkpt>
      <trkpt lat="46.113282451406121" lon="10.51560421474278">
        <ele>2636.0700000000002</ele>
        <time>2018-07-10T08:55:24Z</time>
      </trkpt>
      <trkpt lat="46.113289324566722" lon="10.515578230842948">
        <ele>2637.9899999999998</ele>
        <time>2018-07-10T08:55:36Z</time>
      </trkpt>
      <trkpt lat="46.113266944885254" lon="10.515570603311062">
        <ele>2638.48</ele>
        <time>2018-07-10T08:55:49Z</time>
      </trkpt>
      <trkpt lat="46.113279014825821" lon="10.515491981059313">
        <ele>2641.3600000000001</ele>
        <time>2018-07-10T08:56:01Z</time>
      </trkpt>
      <trkpt lat="46.11330290324986" lon="10.515444707125425">
        <ele>2644.2399999999998</ele>
        <time>2018-07-10T08:56:12Z</time>
      </trkpt>
      <trkpt lat="46.113299801945686" lon="10.515428530052304">
        <ele>2645.21</ele>
        <time>2018-07-10T08:56:24Z</time>
      </trkpt>
      <trkpt lat="46.113281194120646" lon="10.51541562192142">
        <ele>2646.6500000000001</ele>
        <time>2018-07-10T08:56:35Z</time>
      </trkpt>
      <trkpt lat="46.11329510807991" lon="10.515391062945127">
        <ele>2647.6100000000001</ele>
        <time>2018-07-10T08:56:42Z</time>
      </trkpt>
      <trkpt lat="46.113368030637503" lon="10.515378406271338">
        <ele>2649.5300000000002</ele>
        <time>2018-07-10T08:56:54Z</time>
      </trkpt>
      <trkpt lat="46.113400300964713" lon="10.515405144542456">
        <ele>2649.5300000000002</ele>
        <time>2018-07-10T08:57:03Z</time>
      </trkpt>
      <trkpt lat="46.113408850505948" lon="10.515404054895043">
        <ele>2649.5300000000002</ele>
        <time>2018-07-10T08:57:13Z</time>
      </trkpt>
      <trkpt lat="46.113428799435496" lon="10.515435067936778">
        <ele>2649.0500000000002</ele>
        <time>2018-07-10T08:57:26Z</time>
      </trkpt>
      <trkpt lat="46.113453442230821" lon="10.515454933047295">
        <ele>2648.0900000000001</ele>
        <time>2018-07-10T08:57:39Z</time>
      </trkpt>
      <trkpt lat="46.113466182723641" lon="10.515463063493371">
        <ele>2648.0900000000001</ele>
        <time>2018-07-10T08:57:50Z</time>
      </trkpt>
      <trkpt lat="46.113520581275225" lon="10.515471864491701">
        <ele>2648.0900000000001</ele>
        <time>2018-07-10T08:57:59Z</time>
      </trkpt>
      <trkpt lat="46.113522090017796" lon="10.51549575291574">
        <ele>2649.0500000000002</ele>
        <time>2018-07-10T08:58:07Z</time>
      </trkpt>
      <trkpt lat="46.113546481356025" lon="10.515494076535106">
        <ele>2650.9699999999998</ele>
        <time>2018-07-10T08:58:14Z</time>
      </trkpt>
      <trkpt lat="46.113590486347675" lon="10.515459040179849">
        <ele>2652.4200000000001</ele>
        <time>2018-07-10T08:58:23Z</time>
      </trkpt>
      <trkpt lat="46.113601131364703" lon="10.515406485646963">
        <ele>2653.3800000000001</ele>
        <time>2018-07-10T08:58:32Z</time>
      </trkpt>
      <trkpt lat="46.113648405298591" lon="10.51541511900723">
        <ele>2653.3800000000001</ele>
        <time>2018-07-10T08:58:44Z</time>
      </trkpt>
      <trkpt lat="46.113690314814448" lon="10.515393577516079">
        <ele>2654.8200000000002</ele>
        <time>2018-07-10T08:58:55Z</time>
      </trkpt>
      <trkpt lat="46.113723674789071" lon="10.515385279431939">
        <ele>2655.7800000000002</ele>
        <time>2018-07-10T08:59:04Z</time>
      </trkpt>
      <trkpt lat="46.113740522414446" lon="10.515377568081021">
        <ele>2657.2199999999998</ele>
        <time>2018-07-10T08:59:14Z</time>
      </trkpt>
      <trkpt lat="46.113768434152007" lon="10.515355858951807">
        <ele>2658.1799999999998</ele>
        <time>2018-07-10T08:59:23Z</time>
      </trkpt>
      <trkpt lat="46.113811517134309" lon="10.515352422371507">
        <ele>2658.6599999999999</ele>
        <time>2018-07-10T08:59:34Z</time>
      </trkpt>
      <trkpt lat="46.113841105252504" lon="10.515322415158153">
        <ele>2659.1399999999999</ele>
        <time>2018-07-10T08:59:46Z</time>
      </trkpt>
      <trkpt lat="46.113869603723288" lon="10.515302633866668">
        <ele>2660.5900000000001</ele>
        <time>2018-07-10T08:59:58Z</time>
      </trkpt>
      <trkpt lat="46.113907992839813" lon="10.515253767371178">
        <ele>2662.0300000000002</ele>
        <time>2018-07-10T09:00:08Z</time>
      </trkpt>
      <trkpt lat="46.113929031416774" lon="10.515266675502062">
        <ele>2663.4699999999998</ele>
        <time>2018-07-10T09:00:18Z</time>
      </trkpt>
      <trkpt lat="46.113961050286889" lon="10.515259131789207">
        <ele>2664.9099999999999</ele>
        <time>2018-07-10T09:00:28Z</time>
      </trkpt>
      <trkpt lat="46.11400505527854" lon="10.515237087383866">
        <ele>2665.8699999999999</ele>
        <time>2018-07-10T09:00:38Z</time>
      </trkpt>
      <trkpt lat="46.114029446616769" lon="10.515237422659993">
        <ele>2666.8299999999999</ele>
        <time>2018-07-10T09:00:45Z</time>
      </trkpt>
      <trkpt lat="46.114072278141975" lon="10.515248570591211">
        <ele>2667.8000000000002</ele>
        <time>2018-07-10T09:00:57Z</time>
      </trkpt>
      <trkpt lat="46.114111505448818" lon="10.515221999958158">
        <ele>2669.7199999999998</ele>
        <time>2018-07-10T09:01:04Z</time>
      </trkpt>
      <trkpt lat="46.114163473248482" lon="10.515235997736454">
        <ele>2671.6399999999999</ele>
        <time>2018-07-10T09:01:14Z</time>
      </trkpt>
      <trkpt lat="46.114142937585711" lon="10.515183443203568">
        <ele>2673.0799999999999</ele>
        <time>2018-07-10T09:01:22Z</time>
      </trkpt>
      <trkpt lat="46.114125167950988" lon="10.515131643041968">
        <ele>2674.52</ele>
        <time>2018-07-10T09:01:33Z</time>
      </trkpt>
      <trkpt lat="46.114098932594061" lon="10.515131056308746">
        <ele>2675.4899999999998</ele>
        <time>2018-07-10T09:01:44Z</time>
      </trkpt>
      <trkpt lat="46.114106643944979" lon="10.515129799023271">
        <ele>2675.4899999999998</ele>
        <time>2018-07-10T09:01:54Z</time>
      </trkpt>
      <trkpt lat="46.114116283133626" lon="10.515088895335793">
        <ele>2677.4099999999999</ele>
        <time>2018-07-10T09:02:04Z</time>
      </trkpt>
      <trkpt lat="46.114136064425111" lon="10.515040615573525">
        <ele>2679.8099999999999</ele>
        <time>2018-07-10T09:02:16Z</time>
      </trkpt>
      <trkpt lat="46.114153331145644" lon="10.515021421015263">
        <ele>2681.25</ele>
        <time>2018-07-10T09:02:24Z</time>
      </trkpt>
      <trkpt lat="46.114164814352989" lon="10.514973057433963">
        <ele>2683.6599999999999</ele>
        <time>2018-07-10T09:02:34Z</time>
      </trkpt>
      <trkpt lat="46.114210579544306" lon="10.514981187880039">
        <ele>2685.5799999999999</ele>
        <time>2018-07-10T09:02:45Z</time>
      </trkpt>
      <trkpt lat="46.114237066358328" lon="10.514980098232627">
        <ele>2687.02</ele>
        <time>2018-07-10T09:02:54Z</time>
      </trkpt>
      <trkpt lat="46.114288112148643" lon="10.51498512737453">
        <ele>2687.5</ele>
        <time>2018-07-10T09:03:02Z</time>
      </trkpt>
      <trkpt lat="46.114322058856487" lon="10.514971716329455">
        <ele>2688.9400000000001</ele>
        <time>2018-07-10T09:03:12Z</time>
      </trkpt>
      <trkpt lat="46.11439498141408" lon="10.514966687187552">
        <ele>2690.3899999999999</ele>
        <time>2018-07-10T09:03:23Z</time>
      </trkpt>
      <trkpt lat="46.114420462399721" lon="10.514928633347154">
        <ele>2692.3099999999999</ele>
        <time>2018-07-10T09:03:35Z</time>
      </trkpt>
      <trkpt lat="46.11443504691124" lon="10.514914216473699">
        <ele>2694.23</ele>
        <time>2018-07-10T09:03:46Z</time>
      </trkpt>
      <trkpt lat="46.114444267004728" lon="10.514904409646988">
        <ele>2695.6700000000001</ele>
        <time>2018-07-10T09:03:55Z</time>
      </trkpt>
      <trkpt lat="46.114495480433106" lon="10.514908935874701">
        <ele>2697.1199999999999</ele>
        <time>2018-07-10T09:04:05Z</time>
      </trkpt>
      <trkpt lat="46.114483745768666" lon="10.514895943924785">
        <ele>2698.5599999999999</ele>
        <time>2018-07-10T09:04:15Z</time>
      </trkpt>
      <trkpt lat="46.114466981962323" lon="10.514860823750496">
        <ele>2700</ele>
        <time>2018-07-10T09:04:23Z</time>
      </trkpt>
      <trkpt lat="46.114462707191706" lon="10.514818327501416">
        <ele>2701.4400000000001</ele>
        <time>2018-07-10T09:04:32Z</time>
      </trkpt>
      <trkpt lat="46.114488691091537" lon="10.514812292531133">
        <ele>2702.4000000000001</ele>
        <time>2018-07-10T09:04:41Z</time>
      </trkpt>
      <trkpt lat="46.114469580352306" lon="10.514797372743487">
        <ele>2703.8499999999999</ele>
        <time>2018-07-10T09:04:51Z</time>
      </trkpt>
      <trkpt lat="46.114473268389702" lon="10.514777759090066">
        <ele>2704.8099999999999</ele>
        <time>2018-07-10T09:04:59Z</time>
      </trkpt>
      <trkpt lat="46.11447905190289" lon="10.514741465449333">
        <ele>2706.25</ele>
        <time>2018-07-10T09:05:07Z</time>
      </trkpt>
      <trkpt lat="46.11449372023344" lon="10.514719421043992">
        <ele>2707.6900000000001</ele>
        <time>2018-07-10T09:05:15Z</time>
      </trkpt>
      <trkpt lat="46.114559853449464" lon="10.51475646905601">
        <ele>2708.6500000000001</ele>
        <time>2018-07-10T09:05:25Z</time>
      </trkpt>
      <trkpt lat="46.114577455446124" lon="10.514753367751837">
        <ele>2710.5700000000002</ele>
        <time>2018-07-10T09:05:34Z</time>
      </trkpt>
      <trkpt lat="46.114594303071499" lon="10.51473350264132">
        <ele>2711.54</ele>
        <time>2018-07-10T09:05:42Z</time>
      </trkpt>
      <trkpt lat="46.114589860662818" lon="10.514717912301421">
        <ele>2712.98</ele>
        <time>2018-07-10T09:05:50Z</time>
      </trkpt>
      <trkpt lat="46.114624813199043" lon="10.51477306522429">
        <ele>2713.9400000000001</ele>
        <time>2018-07-10T09:05:58Z</time>
      </trkpt>
      <trkpt lat="46.11466471105814" lon="10.514807682484388">
        <ele>2713.9400000000001</ele>
        <time>2018-07-10T09:06:07Z</time>
      </trkpt>
      <trkpt lat="46.114694969728589" lon="10.514838360249996">
        <ele>2714.4200000000001</ele>
        <time>2018-07-10T09:06:16Z</time>
      </trkpt>
      <trkpt lat="46.114718606695533" lon="10.514872809872031">
        <ele>2714.9000000000001</ele>
        <time>2018-07-10T09:06:25Z</time>
      </trkpt>
      <trkpt lat="46.114718187600374" lon="10.51479117013514">
        <ele>2715.8600000000001</ele>
        <time>2018-07-10T09:06:34Z</time>
      </trkpt>
      <trkpt lat="46.114723300561309" lon="10.514739956706762">
        <ele>2717.7800000000002</ele>
        <time>2018-07-10T09:06:45Z</time>
      </trkpt>
      <trkpt lat="46.114719193428755" lon="10.514683043584228">
        <ele>2719.71</ele>
        <time>2018-07-10T09:06:55Z</time>
      </trkpt>
      <trkpt lat="46.114753810688853" lon="10.514637529850006">
        <ele>2720.6700000000001</ele>
        <time>2018-07-10T09:07:10Z</time>
      </trkpt>
      <trkpt lat="46.114753223955631" lon="10.514626381918788">
        <ele>2722.5900000000001</ele>
        <time>2018-07-10T09:07:20Z</time>
      </trkpt>
      <trkpt lat="46.114759678021073" lon="10.514672985300422">
        <ele>2721.6300000000001</ele>
        <time>2018-07-10T09:07:33Z</time>
      </trkpt>
      <trkpt lat="46.114770406857133" lon="10.514622945338488">
        <ele>2723.5500000000002</ele>
        <time>2018-07-10T09:07:43Z</time>
      </trkpt>
      <trkpt lat="46.114785745739937" lon="10.514575922861695">
        <ele>2724.9899999999998</ele>
        <time>2018-07-10T09:07:48Z</time>
      </trkpt>
      <trkpt lat="46.11484207212925" lon="10.514590675011277">
        <ele>2726.9200000000001</ele>
        <time>2018-07-10T09:07:59Z</time>
      </trkpt>
      <trkpt lat="46.114878198131919" lon="10.514600314199924">
        <ele>2728.3600000000001</ele>
        <time>2018-07-10T09:08:09Z</time>
      </trkpt>
      <trkpt lat="46.11487140879035" lon="10.514653958380222">
        <ele>2728.8400000000001</ele>
        <time>2018-07-10T09:08:17Z</time>
      </trkpt>
      <trkpt lat="46.114886999130249" lon="10.514683043584228">
        <ele>2730.2800000000002</ele>
        <time>2018-07-10T09:08:25Z</time>
      </trkpt>
      <trkpt lat="46.114928824827075" lon="10.514724114909768">
        <ele>2730.7600000000002</ele>
        <time>2018-07-10T09:08:33Z</time>
      </trkpt>
      <trkpt lat="46.114986827597022" lon="10.514733335003257">
        <ele>2731.2399999999998</ele>
        <time>2018-07-10T09:08:43Z</time>
      </trkpt>
      <trkpt lat="46.115046255290508" lon="10.514755798503757">
        <ele>2731.2399999999998</ele>
        <time>2018-07-10T09:08:54Z</time>
      </trkpt>
      <trkpt lat="46.115081459283829" lon="10.514755630865693">
        <ele>2731.2399999999998</ele>
        <time>2018-07-10T09:09:04Z</time>
      </trkpt>
      <trkpt lat="46.115121021866798" lon="10.51476133055985">
        <ele>2732.1999999999998</ele>
        <time>2018-07-10T09:09:11Z</time>
      </trkpt>
      <trkpt lat="46.115160752087831" lon="10.514756552875042">
        <ele>2733.6500000000001</ele>
        <time>2018-07-10T09:09:21Z</time>
      </trkpt>
      <trkpt lat="46.11515580676496" lon="10.514751942828298">
        <ele>2733.6500000000001</ele>
        <time>2018-07-10T09:09:23Z</time>
      </trkpt>
      <trkpt lat="46.115186484530568" lon="10.514737106859684">
        <ele>2735.0900000000001</ele>
        <time>2018-07-10T09:09:31Z</time>
      </trkpt>
      <trkpt lat="46.115199141204357" lon="10.514735262840986">
        <ele>2735.5700000000002</ele>
        <time>2018-07-10T09:09:35Z</time>
      </trkpt>
      <trkpt lat="46.115230908617377" lon="10.514782117679715">
        <ele>2737.0100000000002</ele>
        <time>2018-07-10T09:09:43Z</time>
      </trkpt>
      <trkpt lat="46.115246247500181" lon="10.514809945598245">
        <ele>2738.4499999999998</ele>
        <time>2018-07-10T09:09:50Z</time>
      </trkpt>
      <trkpt lat="46.115213893353939" lon="10.514772729948163">
        <ele>2738.4499999999998</ele>
        <time>2018-07-10T09:10:03Z</time>
      </trkpt>
      <trkpt lat="46.11523593775928" lon="10.514771556481719">
        <ele>2739.4099999999999</ele>
        <time>2018-07-10T09:10:15Z</time>
      </trkpt>
      <trkpt lat="46.115220850333571" lon="10.514800725504756">
        <ele>2739.4099999999999</ele>
        <time>2018-07-10T09:10:30Z</time>
      </trkpt>
      <trkpt lat="46.115224622189999" lon="10.514787985011935">
        <ele>2739.4099999999999</ele>
        <time>2018-07-10T09:10:42Z</time>
      </trkpt>
      <trkpt lat="46.115239290520549" lon="10.514790918678045">
        <ele>2740.8600000000001</ele>
        <time>2018-07-10T09:10:51Z</time>
      </trkpt>
      <trkpt lat="46.115227891132236" lon="10.51481899805367">
        <ele>2740.8600000000001</ele>
        <time>2018-07-10T09:11:08Z</time>
      </trkpt>
      <trkpt lat="46.115201320499182" lon="10.514840455725789">
        <ele>2740.8600000000001</ele>
        <time>2018-07-10T09:11:27Z</time>
      </trkpt>
      <trkpt lat="46.115222107619047" lon="10.514803407713771">
        <ele>2742.3000000000002</ele>
        <time>2018-07-10T09:11:36Z</time>
      </trkpt>
      <trkpt lat="46.115225460380316" lon="10.514771556481719">
        <ele>2744.2199999999998</ele>
        <time>2018-07-10T09:11:45Z</time>
      </trkpt>
      <trkpt lat="46.115244068205357" lon="10.514722689986229">
        <ele>2746.6199999999999</ele>
        <time>2018-07-10T09:11:56Z</time>
      </trkpt>
      <trkpt lat="46.115248594433069" lon="10.514708021655679">
        <ele>2747.0999999999999</ele>
        <time>2018-07-10T09:11:58Z</time>
      </trkpt>
      <trkpt lat="46.115265190601349" lon="10.514682624489069">
        <ele>2748.5500000000002</ele>
        <time>2018-07-10T09:12:07Z</time>
      </trkpt>
      <trkpt lat="46.115308776497841" lon="10.514671979472041">
        <ele>2749.9899999999998</ele>
        <time>2018-07-10T09:12:15Z</time>
      </trkpt>
      <trkpt lat="46.115313721820712" lon="10.514672566205263">
        <ele>2749.9899999999998</ele>
        <time>2018-07-10T09:12:17Z</time>
      </trkpt>
      <trkpt lat="46.115464847534895" lon="10.514642223715782">
        <ele>2750.9499999999998</ele>
        <time>2018-07-10T09:12:28Z</time>
      </trkpt>
      <trkpt lat="46.115445988252759" lon="10.514600649476051">
        <ele>2752.3899999999999</ele>
        <time>2018-07-10T09:12:36Z</time>
      </trkpt>
      <trkpt lat="46.115469122305512" lon="10.51460056565702">
        <ele>2753.8299999999999</ele>
        <time>2018-07-10T09:12:45Z</time>
      </trkpt>
      <trkpt lat="46.115463254973292" lon="10.514579946175218">
        <ele>2755.2800000000002</ele>
        <time>2018-07-10T09:12:55Z</time>
      </trkpt>
      <trkpt lat="46.115490915253758" lon="10.514580952003598">
        <ele>2756.2399999999998</ele>
        <time>2018-07-10T09:13:04Z</time>
      </trkpt>
      <trkpt lat="46.115505248308182" lon="10.514589753001928">
        <ele>2757.1999999999998</ele>
        <time>2018-07-10T09:13:11Z</time>
      </trkpt>
      <trkpt lat="46.115510780364275" lon="10.514587154611945">
        <ele>2757.6799999999998</ele>
        <time>2018-07-10T09:13:13Z</time>
      </trkpt>
      <trkpt lat="46.11553743481636" lon="10.514580449089408">
        <ele>2758.6399999999999</ele>
        <time>2018-07-10T09:13:22Z</time>
      </trkpt>
      <trkpt lat="46.11553986556828" lon="10.514561254531145">
        <ele>2760.0799999999999</ele>
        <time>2018-07-10T09:13:30Z</time>
      </trkpt>
      <trkpt lat="46.115540955215693" lon="10.514561422169209">
        <ele>2761.04</ele>
        <time>2018-07-10T09:13:40Z</time>
      </trkpt>
      <trkpt lat="46.115537015721202" lon="10.514541640877724">
        <ele>2761.04</ele>
        <time>2018-07-10T09:13:52Z</time>
      </trkpt>
      <trkpt lat="46.115536512807012" lon="10.514503084123135">
        <ele>2762.4899999999998</ele>
        <time>2018-07-10T09:14:01Z</time>
      </trkpt>
      <trkpt lat="46.115570710971951" lon="10.514486571773887">
        <ele>2763.4499999999998</ele>
        <time>2018-07-10T09:14:09Z</time>
      </trkpt>
      <trkpt lat="46.115589486435056" lon="10.514470729976892">
        <ele>2764.8899999999999</ele>
        <time>2018-07-10T09:14:17Z</time>
      </trkpt>
      <trkpt lat="46.115604490041733" lon="10.514469807967544">
        <ele>2765.8499999999999</ele>
        <time>2018-07-10T09:14:23Z</time>
      </trkpt>
      <trkpt lat="46.115632988512516" lon="10.514457654207945">
        <ele>2767.77</ele>
        <time>2018-07-10T09:14:31Z</time>
      </trkpt>
      <trkpt lat="46.115643884986639" lon="10.51444717682898">
        <ele>2768.73</ele>
        <time>2018-07-10T09:14:40Z</time>
      </trkpt>
      <trkpt lat="46.115650925785303" lon="10.514426808804274">
        <ele>2770.6599999999999</ele>
        <time>2018-07-10T09:14:49Z</time>
      </trkpt>
      <trkpt lat="46.11565955914557" lon="10.514407530426979">
        <ele>2771.6199999999999</ele>
        <time>2018-07-10T09:15:00Z</time>
      </trkpt>
      <trkpt lat="46.1156390234828" lon="10.514386994764209">
        <ele>2772.0999999999999</ele>
        <time>2018-07-10T09:15:07Z</time>
      </trkpt>
      <trkpt lat="46.115622762590647" lon="10.514375092461705">
        <ele>2773.0599999999999</ele>
        <time>2018-07-10T09:15:16Z</time>
      </trkpt>
      <trkpt lat="46.115599041804671" lon="10.514332009479403">
        <ele>2774.98</ele>
        <time>2018-07-10T09:15:26Z</time>
      </trkpt>
      <trkpt lat="46.115621421486139" lon="10.514317927882075">
        <ele>2775.9400000000001</ele>
        <time>2018-07-10T09:15:34Z</time>
      </trkpt>
      <trkpt lat="46.11562829464674" lon="10.514309210702777">
        <ele>2776.4200000000001</ele>
        <time>2018-07-10T09:15:38Z</time>
      </trkpt>
      <trkpt lat="46.115657379850745" lon="10.514295799657702">
        <ele>2777.3899999999999</ele>
        <time>2018-07-10T09:15:45Z</time>
      </trkpt>
      <trkpt lat="46.115683196112514" lon="10.514305774122477">
        <ele>2778.3499999999999</ele>
        <time>2018-07-10T09:15:54Z</time>
      </trkpt>
      <trkpt lat="46.115668108686805" lon="10.514331255108118">
        <ele>2777.8699999999999</ele>
        <time>2018-07-10T09:16:02Z</time>
      </trkpt>
      <trkpt lat="46.115637766197324" lon="10.514337625354528">
        <ele>2778.3499999999999</ele>
        <time>2018-07-10T09:16:13Z</time>
      </trkpt>
      <trkpt lat="46.115622343495488" lon="10.514316419139504">
        <ele>2778.3499999999999</ele>
        <time>2018-07-10T09:16:22Z</time>
      </trkpt>
      <trkpt lat="46.115632401779294" lon="10.51431524567306">
        <ele>2778.8299999999999</ele>
        <time>2018-07-10T09:16:29Z</time>
      </trkpt>
      <trkpt lat="46.115648997947574" lon="10.514313569292426">
        <ele>2778.8299999999999</ele>
        <time>2018-07-10T09:16:33Z</time>
      </trkpt>
      <trkpt lat="46.11569132655859" lon="10.514335781335831">
        <ele>2777.8699999999999</ele>
        <time>2018-07-10T09:16:42Z</time>
      </trkpt>
      <trkpt lat="46.115684621036053" lon="10.51432111300528">
        <ele>2777.8699999999999</ele>
        <time>2018-07-10T09:16:45Z</time>
      </trkpt>
      <trkpt lat="46.115655284374952" lon="10.514342905953526">
        <ele>2778.3499999999999</ele>
        <time>2018-07-10T09:16:55Z</time>
      </trkpt>
      <trkpt lat="46.115670707076788" lon="10.514347935095429">
        <ele>2778.3499999999999</ele>
        <time>2018-07-10T09:17:05Z</time>
      </trkpt>
      <trkpt lat="46.115695768967271" lon="10.514363190159202">
        <ele>2777.8699999999999</ele>
        <time>2018-07-10T09:17:11Z</time>
      </trkpt>
      <trkpt lat="46.115730553865433" lon="10.514456648379564">
        <ele>2775.9400000000001</ele>
        <time>2018-07-10T09:17:21Z</time>
      </trkpt>
      <trkpt lat="46.115734074264765" lon="10.514473915100098">
        <ele>2775.46</ele>
        <time>2018-07-10T09:17:23Z</time>
      </trkpt>
      <trkpt lat="46.11570792272687" lon="10.514510544016957">
        <ele>2775.46</ele>
        <time>2018-07-10T09:17:27Z</time>
      </trkpt>
      <trkpt lat="46.115654362365603" lon="10.514530828222632">
        <ele>2776.4200000000001</ele>
        <time>2018-07-10T09:17:38Z</time>
      </trkpt>
      <trkpt lat="46.115639358758926" lon="10.514537701383233">
        <ele>2775.9400000000001</ele>
        <time>2018-07-10T09:17:51Z</time>
      </trkpt>
      <trkpt lat="46.115719322115183" lon="10.514505598694086">
        <ele>2775.46</ele>
        <time>2018-07-10T09:18:01Z</time>
      </trkpt>
      <trkpt lat="46.115721752867103" lon="10.514498557895422">
        <ele>2775.9400000000001</ele>
        <time>2018-07-10T09:18:04Z</time>
      </trkpt>
      <trkpt lat="46.115746479481459" lon="10.514479614794254">
        <ele>2775.9400000000001</ele>
        <time>2018-07-10T09:18:12Z</time>
      </trkpt>
      <trkpt lat="46.11575142480433" lon="10.514498390257359">
        <ele>2776.4200000000001</ele>
        <time>2018-07-10T09:18:21Z</time>
      </trkpt>
      <trkpt lat="46.115712197497487" lon="10.514500737190247">
        <ele>2775.9400000000001</ele>
        <time>2018-07-10T09:18:29Z</time>
      </trkpt>
      <trkpt lat="46.115716472268105" lon="10.514515154063702">
        <ele>2774.98</ele>
        <time>2018-07-10T09:18:39Z</time>
      </trkpt>
      <trkpt lat="46.115718819200993" lon="10.514509370550513">
        <ele>2774.98</ele>
        <time>2018-07-10T09:18:52Z</time>
      </trkpt>
      <trkpt lat="46.115729799494147" lon="10.514544909819961">
        <ele>2774.98</ele>
        <time>2018-07-10T09:19:11Z</time>
      </trkpt>
      <trkpt lat="46.115722088143229" lon="10.514538791030645">
        <ele>2775.46</ele>
        <time>2018-07-10T09:19:31Z</time>
      </trkpt>
      <trkpt lat="46.115731224417686" lon="10.514550358057022">
        <ele>2775.46</ele>
        <time>2018-07-10T09:19:51Z</time>
      </trkpt>
      <trkpt lat="46.115712784230709" lon="10.514545999467373">
        <ele>2775.9400000000001</ele>
        <time>2018-07-10T09:20:08Z</time>
      </trkpt>
      <trkpt lat="46.115707755088806" lon="10.514544323086739">
        <ele>2775.9400000000001</ele>
        <time>2018-07-10T09:20:16Z</time>
      </trkpt>
      <trkpt lat="46.115708593279123" lon="10.514548430219293">
        <ele>2775.9400000000001</ele>
        <time>2018-07-10T09:20:32Z</time>
      </trkpt>
      <trkpt lat="46.115716556087136" lon="10.51453024148941">
        <ele>2775.9400000000001</ele>
        <time>2018-07-10T09:20:48Z</time>
      </trkpt>
      <trkpt lat="46.115726279094815" lon="10.514525715261698">
        <ele>2775.9400000000001</ele>
        <time>2018-07-10T09:21:10Z</time>
      </trkpt>
      <trkpt lat="46.115723010152578" lon="10.514515824615955">
        <ele>2776.4200000000001</ele>
        <time>2018-07-10T09:21:29Z</time>
      </trkpt>
      <trkpt lat="46.115700379014015" lon="10.514513812959194">
        <ele>2776.9099999999999</ele>
        <time>2018-07-10T09:21:39Z</time>
      </trkpt>
      <trkpt lat="46.115696858614683" lon="10.51450677216053">
        <ele>2776.4200000000001</ele>
        <time>2018-07-10T09:21:59Z</time>
      </trkpt>
      <trkpt lat="46.115666935220361" lon="10.514513226225972">
        <ele>2776.9099999999999</ele>
        <time>2018-07-10T09:22:20Z</time>
      </trkpt>
      <trkpt lat="46.115658218041062" lon="10.514498641714454">
        <ele>2776.9099999999999</ele>
        <time>2018-07-10T09:22:35Z</time>
      </trkpt>
      <trkpt lat="46.115651596337557" lon="10.514495875686407">
        <ele>2776.9099999999999</ele>
        <time>2018-07-10T09:22:55Z</time>
      </trkpt>
      <trkpt lat="46.115655954927206" lon="10.514499815180898">
        <ele>2776.4200000000001</ele>
        <time>2018-07-10T09:23:16Z</time>
      </trkpt>
      <trkpt lat="46.115669701248407" lon="10.514490259811282">
        <ele>2776.9099999999999</ele>
        <time>2018-07-10T09:23:31Z</time>
      </trkpt>
      <trkpt lat="46.11566198989749" lon="10.514475842937827">
        <ele>2776.4200000000001</ele>
        <time>2018-07-10T09:23:48Z</time>
      </trkpt>
      <trkpt lat="46.115643382072449" lon="10.514475926756859">
        <ele>2777.3899999999999</ele>
        <time>2018-07-10T09:24:05Z</time>
      </trkpt>
      <trkpt lat="46.115637933835387" lon="10.514488834887743">
        <ele>2776.9099999999999</ele>
        <time>2018-07-10T09:24:23Z</time>
      </trkpt>
      <trkpt lat="46.115623768419027" lon="10.514505933970213">
        <ele>2777.3899999999999</ele>
        <time>2018-07-10T09:24:40Z</time>
      </trkpt>
      <trkpt lat="46.115653607994318" lon="10.514491936191916">
        <ele>2777.3899999999999</ele>
        <time>2018-07-10T09:25:01Z</time>
      </trkpt>
      <trkpt lat="46.115682357922196" lon="10.514526888728142">
        <ele>2777.3899999999999</ele>
        <time>2018-07-10T09:25:31Z</time>
      </trkpt>
      <trkpt lat="46.115669785067439" lon="10.514519931748509">
        <ele>2777.3899999999999</ele>
        <time>2018-07-10T09:25:53Z</time>
      </trkpt>
      <trkpt lat="46.115695182234049" lon="10.51452093757689">
        <ele>2777.8699999999999</ele>
        <time>2018-07-10T09:26:17Z</time>
      </trkpt>
      <trkpt lat="46.115713538601995" lon="10.514531917870045">
        <ele>2777.8699999999999</ele>
        <time>2018-07-10T09:26:34Z</time>
      </trkpt>
      <trkpt lat="46.115688309073448" lon="10.514529906213284">
        <ele>2777.3899999999999</ele>
        <time>2018-07-10T09:27:03Z</time>
      </trkpt>
      <trkpt lat="46.115675233304501" lon="10.514512471854687">
        <ele>2777.3899999999999</ele>
        <time>2018-07-10T09:27:20Z</time>
      </trkpt>
      <trkpt lat="46.11567422747612" lon="10.514482967555523">
        <ele>2777.8699999999999</ele>
        <time>2018-07-10T09:27:31Z</time>
      </trkpt>
      <trkpt lat="46.115703228861094" lon="10.514539377763867">
        <ele>2777.8699999999999</ele>
        <time>2018-07-10T09:27:58Z</time>
      </trkpt>
      <trkpt lat="46.115784533321857" lon="10.514543484896421">
        <ele>2777.8699999999999</ele>
        <time>2018-07-10T09:28:20Z</time>
      </trkpt>
      <trkpt lat="46.115731056779623" lon="10.514520267024636">
        <ele>2778.3499999999999</ele>
        <time>2018-07-10T09:28:39Z</time>
      </trkpt>
      <trkpt lat="46.11571236513555" lon="10.514521272853017">
        <ele>2777.8699999999999</ele>
        <time>2018-07-10T09:29:01Z</time>
      </trkpt>
      <trkpt lat="46.115698954090476" lon="10.514503503218293">
        <ele>2777.8699999999999</ele>
        <time>2018-07-10T09:29:13Z</time>
      </trkpt>
      <trkpt lat="46.115687806159258" lon="10.514479614794254">
        <ele>2778.3499999999999</ele>
        <time>2018-07-10T09:29:37Z</time>
      </trkpt>
      <trkpt lat="46.115685291588306" lon="10.514487158507109">
        <ele>2778.3499999999999</ele>
        <time>2018-07-10T09:29:51Z</time>
      </trkpt>
      <trkpt lat="46.115695014595985" lon="10.514478273689747">
        <ele>2778.3499999999999</ele>
        <time>2018-07-10T09:30:06Z</time>
      </trkpt>
      <trkpt lat="46.115695433691144" lon="10.514524793252349">
        <ele>2778.3499999999999</ele>
        <time>2018-07-10T09:30:23Z</time>
      </trkpt>
      <trkpt lat="46.115689817816019" lon="10.514525463804603">
        <ele>2778.3499999999999</ele>
        <time>2018-07-10T09:30:43Z</time>
      </trkpt>
      <trkpt lat="46.115691158920527" lon="10.514524877071381">
        <ele>2778.3499999999999</ele>
        <time>2018-07-10T09:31:09Z</time>
      </trkpt>
      <trkpt lat="46.115725859999657" lon="10.514532839879394">
        <ele>2778.8299999999999</ele>
        <time>2018-07-10T09:31:40Z</time>
      </trkpt>
      <trkpt lat="46.115678669884801" lon="10.51451163366437">
        <ele>2778.3499999999999</ele>
        <time>2018-07-10T09:32:10Z</time>
      </trkpt>
      <trkpt lat="46.115645142272115" lon="10.514519177377224">
        <ele>2778.3499999999999</ele>
        <time>2018-07-10T09:32:38Z</time>
      </trkpt>
      <trkpt lat="46.115657715126872" lon="10.514521524310112">
        <ele>2778.3499999999999</ele>
        <time>2018-07-10T09:33:01Z</time>
      </trkpt>
      <trkpt lat="46.115673473104835" lon="10.514516746625304">
        <ele>2778.8299999999999</ele>
        <time>2018-07-10T09:33:32Z</time>
      </trkpt>
      <trkpt lat="46.115696858614683" lon="10.514497635886073">
        <ele>2779.3099999999999</ele>
        <time>2018-07-10T09:33:55Z</time>
      </trkpt>
      <trkpt lat="46.115705659613013" lon="10.51450040191412">
        <ele>2780.27</ele>
        <time>2018-07-10T09:34:02Z</time>
      </trkpt>
      <trkpt lat="46.115711610764265" lon="10.514504760503769">
        <ele>2780.27</ele>
        <time>2018-07-10T09:34:15Z</time>
      </trkpt>
      <trkpt lat="46.115718148648739" lon="10.514519177377224">
        <ele>2780.27</ele>
        <time>2018-07-10T09:34:29Z</time>
      </trkpt>
      <trkpt lat="46.115731140598655" lon="10.514507191255689">
        <ele>2780.27</ele>
        <time>2018-07-10T09:34:40Z</time>
      </trkpt>
      <trkpt lat="46.115715214982629" lon="10.514495624229312">
        <ele>2780.27</ele>
        <time>2018-07-10T09:34:51Z</time>
      </trkpt>
      <trkpt lat="46.115701384842396" lon="10.514494869858027">
        <ele>2779.3099999999999</ele>
        <time>2018-07-10T09:35:05Z</time>
      </trkpt>
      <trkpt lat="46.115695517510176" lon="10.514506688341498">
        <ele>2778.8299999999999</ele>
        <time>2018-07-10T09:35:14Z</time>
      </trkpt>
      <trkpt lat="46.115706916898489" lon="10.514504173770547">
        <ele>2779.3099999999999</ele>
        <time>2018-07-10T09:35:29Z</time>
      </trkpt>
      <trkpt lat="46.115708677098155" lon="10.514518758282065">
        <ele>2779.3099999999999</ele>
        <time>2018-07-10T09:35:45Z</time>
      </trkpt>
      <trkpt lat="46.115702642127872" lon="10.514518842101097">
        <ele>2780.27</ele>
        <time>2018-07-10T09:36:07Z</time>
      </trkpt>
      <trkpt lat="46.11570842564106" lon="10.514495121315122">
        <ele>2780.27</ele>
        <time>2018-07-10T09:36:16Z</time>
      </trkpt>
      <trkpt lat="46.115715047344565" lon="10.514481710270047">
        <ele>2780.27</ele>
        <time>2018-07-10T09:36:28Z</time>
      </trkpt>
      <trkpt lat="46.115733571350574" lon="10.514468802139163">
        <ele>2780.75</ele>
        <time>2018-07-10T09:36:40Z</time>
      </trkpt>
      <trkpt lat="46.115739941596985" lon="10.514476429671049">
        <ele>2780.27</ele>
        <time>2018-07-10T09:36:56Z</time>
      </trkpt>
      <trkpt lat="46.1157494969666" lon="10.51450383849442">
        <ele>2780.27</ele>
        <time>2018-07-10T09:37:11Z</time>
      </trkpt>
      <trkpt lat="46.115727871656418" lon="10.514491768553853">
        <ele>2780.75</ele>
        <time>2018-07-10T09:37:24Z</time>
      </trkpt>
      <trkpt lat="46.115729380398989" lon="10.514470897614956">
        <ele>2780.75</ele>
        <time>2018-07-10T09:37:41Z</time>
      </trkpt>
      <trkpt lat="46.11573382280767" lon="10.514462012797594">
        <ele>2780.27</ele>
        <time>2018-07-10T09:37:57Z</time>
      </trkpt>
      <trkpt lat="46.115727620199323" lon="10.514458660036325">
        <ele>2780.27</ele>
        <time>2018-07-10T09:38:09Z</time>
      </trkpt>
      <trkpt lat="46.115723177790642" lon="10.514431586489081">
        <ele>2780.27</ele>
        <time>2018-07-10T09:38:25Z</time>
      </trkpt>
      <trkpt lat="46.115720830857754" lon="10.514438627287745">
        <ele>2780.75</ele>
        <time>2018-07-10T09:38:37Z</time>
      </trkpt>
      <trkpt lat="46.115724854171276" lon="10.514478189870715">
        <ele>2781.23</ele>
        <time>2018-07-10T09:38:50Z</time>
      </trkpt>
      <trkpt lat="46.115717059001327" lon="10.514500653371215">
        <ele>2781.23</ele>
        <time>2018-07-10T09:39:01Z</time>
      </trkpt>
      <trkpt lat="46.115729799494147" lon="10.514479530975223">
        <ele>2781.23</ele>
        <time>2018-07-10T09:39:20Z</time>
      </trkpt>
      <trkpt lat="46.115724854171276" lon="10.514453379437327">
        <ele>2781.23</ele>
        <time>2018-07-10T09:39:33Z</time>
      </trkpt>
      <trkpt lat="46.115729967132211" lon="10.514458240941167">
        <ele>2779.3099999999999</ele>
        <time>2018-07-10T09:39:39Z</time>
      </trkpt>
      <trkpt lat="46.115744551643729" lon="10.514462850987911">
        <ele>2780.75</ele>
        <time>2018-07-10T09:39:46Z</time>
      </trkpt>
      <trkpt lat="46.115745306015015" lon="10.514454133808613">
        <ele>2781.23</ele>
        <time>2018-07-10T09:40:00Z</time>
      </trkpt>
      <trkpt lat="46.115740025416017" lon="10.514457318931818">
        <ele>2780.75</ele>
        <time>2018-07-10T09:40:13Z</time>
      </trkpt>
      <trkpt lat="46.115758214145899" lon="10.514453463256359">
        <ele>2779.79</ele>
        <time>2018-07-10T09:40:24Z</time>
      </trkpt>
      <trkpt lat="46.115774055942893" lon="10.51442421041429">
        <ele>2779.79</ele>
        <time>2018-07-10T09:40:35Z</time>
      </trkpt>
      <trkpt lat="46.115789813920856" lon="10.514416247606277">
        <ele>2777.8699999999999</ele>
        <time>2018-07-10T09:40:43Z</time>
      </trkpt>
      <trkpt lat="46.115790903568268" lon="10.514409122988582">
        <ele>2778.3499999999999</ele>
        <time>2018-07-10T09:40:55Z</time>
      </trkpt>
      <trkpt lat="46.115815965458751" lon="10.514384228736162">
        <ele>2776.4200000000001</ele>
        <time>2018-07-10T09:41:11Z</time>
      </trkpt>
      <trkpt lat="46.115824431180954" lon="10.514368889853358">
        <ele>2774.98</ele>
        <time>2018-07-10T09:41:15Z</time>
      </trkpt>
      <trkpt lat="46.115827448666096" lon="10.514364028349519">
        <ele>2778.3499999999999</ele>
        <time>2018-07-10T09:41:16Z</time>
      </trkpt>
      <trkpt lat="46.11582912504673" lon="10.514359502121806">
        <ele>2776.4200000000001</ele>
        <time>2018-07-10T09:41:17Z</time>
      </trkpt>
      <trkpt lat="46.115844212472439" lon="10.514351204037666">
        <ele>2773.54</ele>
        <time>2018-07-10T09:41:21Z</time>
      </trkpt>
      <trkpt lat="46.1158427875489" lon="10.514349443838">
        <ele>2776.9099999999999</ele>
        <time>2018-07-10T09:41:22Z</time>
      </trkpt>
      <trkpt lat="46.115840105339885" lon="10.514347348362207">
        <ele>2774.98</ele>
        <time>2018-07-10T09:41:23Z</time>
      </trkpt>
      <trkpt lat="46.115844799205661" lon="10.514347348362207">
        <ele>2775.9400000000001</ele>
        <time>2018-07-10T09:41:28Z</time>
      </trkpt>
      <trkpt lat="46.115856198593974" lon="10.514348354190588">
        <ele>2773.0599999999999</ele>
        <time>2018-07-10T09:41:30Z</time>
      </trkpt>
      <trkpt lat="46.115881595760584" lon="10.514351706951857">
        <ele>2774.5</ele>
        <time>2018-07-10T09:41:40Z</time>
      </trkpt>
      <trkpt lat="46.115894503891468" lon="10.514340475201607">
        <ele>2773.0599999999999</ele>
        <time>2018-07-10T09:41:44Z</time>
      </trkpt>
      <trkpt lat="46.115890564396977" lon="10.514330416917801">
        <ele>2774.5</ele>
        <time>2018-07-10T09:41:51Z</time>
      </trkpt>
      <trkpt lat="46.11589265987277" lon="10.514330668374896">
        <ele>2773.0599999999999</ele>
        <time>2018-07-10T09:41:52Z</time>
      </trkpt>
      <trkpt lat="46.115898191928864" lon="10.514325890690088">
        <ele>2771.1399999999999</ele>
        <time>2018-07-10T09:41:53Z</time>
      </trkpt>
      <trkpt lat="46.11591168679297" lon="10.514315748587251">
        <ele>2770.6599999999999</ele>
        <time>2018-07-10T09:41:55Z</time>
      </trkpt>
      <trkpt lat="46.115924846380949" lon="10.514319436624646">
        <ele>2770.1799999999998</ele>
        <time>2018-07-10T09:41:59Z</time>
      </trkpt>
      <trkpt lat="46.11594446003437" lon="10.514289177954197">
        <ele>2769.21</ele>
        <time>2018-07-10T09:42:08Z</time>
      </trkpt>
      <trkpt lat="46.115959798917174" lon="10.514304684475064">
        <ele>2771.1399999999999</ele>
        <time>2018-07-10T09:42:10Z</time>
      </trkpt>
      <trkpt lat="46.115967761725187" lon="10.514348773285747">
        <ele>2769.6999999999998</ele>
        <time>2018-07-10T09:42:15Z</time>
      </trkpt>
      <trkpt lat="46.115974551066756" lon="10.514342822134495">
        <ele>2769.6999999999998</ele>
        <time>2018-07-10T09:42:20Z</time>
      </trkpt>
      <trkpt lat="46.115991231054068" lon="10.514322621747851">
        <ele>2767.29</ele>
        <time>2018-07-10T09:42:28Z</time>
      </trkpt>
      <trkpt lat="46.115990728139877" lon="10.514317760244012">
        <ele>2769.6999999999998</ele>
        <time>2018-07-10T09:42:29Z</time>
      </trkpt>
      <trkpt lat="46.115999445319176" lon="10.514309629797935">
        <ele>2766.8099999999999</ele>
        <time>2018-07-10T09:42:35Z</time>
      </trkpt>
      <trkpt lat="46.116009587422013" lon="10.514297978952527">
        <ele>2768.25</ele>
        <time>2018-07-10T09:42:38Z</time>
      </trkpt>
      <trkpt lat="46.116005815565586" lon="10.514298984780908">
        <ele>2766.8099999999999</ele>
        <time>2018-07-10T09:42:39Z</time>
      </trkpt>
      <trkpt lat="46.115995170548558" lon="10.514287501573563">
        <ele>2765.8499999999999</ele>
        <time>2018-07-10T09:42:49Z</time>
      </trkpt>
      <trkpt lat="46.116026351228356" lon="10.514254560694098">
        <ele>2764.8899999999999</ele>
        <time>2018-07-10T09:42:59Z</time>
      </trkpt>
      <trkpt lat="46.116025429219007" lon="10.514227654784918">
        <ele>2763.4499999999998</ele>
        <time>2018-07-10T09:43:07Z</time>
      </trkpt>
      <trkpt lat="46.116064321249723" lon="10.514221871271729">
        <ele>2762</ele>
        <time>2018-07-10T09:43:18Z</time>
      </trkpt>
      <trkpt lat="46.116055184975266" lon="10.514212399721146">
        <ele>2759.5999999999999</ele>
        <time>2018-07-10T09:43:30Z</time>
      </trkpt>
      <trkpt lat="46.116020316258073" lon="10.514188511297107">
        <ele>2760.5599999999999</ele>
        <time>2018-07-10T09:43:43Z</time>
      </trkpt>
      <trkpt lat="46.11602651886642" lon="10.51417937502265">
        <ele>2758.1599999999999</ele>
        <time>2018-07-10T09:43:54Z</time>
      </trkpt>
      <trkpt lat="46.116034733131528" lon="10.514161102473736">
        <ele>2757.1999999999998</ele>
        <time>2018-07-10T09:44:07Z</time>
      </trkpt>
      <trkpt lat="46.116047222167253" lon="10.514161940664053">
        <ele>2755.7600000000002</ele>
        <time>2018-07-10T09:44:18Z</time>
      </trkpt>
      <trkpt lat="46.116053257137537" lon="10.514128664508462">
        <ele>2756.2399999999998</ele>
        <time>2018-07-10T09:44:28Z</time>
      </trkpt>
      <trkpt lat="46.116042863577604" lon="10.514107877388597">
        <ele>2754.3099999999999</ele>
        <time>2018-07-10T09:44:40Z</time>
      </trkpt>
      <trkpt lat="46.116078654304147" lon="10.514069320634007">
        <ele>2752.3899999999999</ele>
        <time>2018-07-10T09:44:52Z</time>
      </trkpt>
      <trkpt lat="46.116091227158904" lon="10.514043085277081">
        <ele>2751.4299999999998</ele>
        <time>2018-07-10T09:45:01Z</time>
      </trkpt>
      <trkpt lat="46.116136573255062" lon="10.514026740565896">
        <ele>2749.9899999999998</ele>
        <time>2018-07-10T09:45:09Z</time>
      </trkpt>
      <trkpt lat="46.116162138059735" lon="10.514000169932842">
        <ele>2747.0999999999999</ele>
        <time>2018-07-10T09:45:19Z</time>
      </trkpt>
      <trkpt lat="46.116194576025009" lon="10.513973347842693">
        <ele>2745.1799999999998</ele>
        <time>2018-07-10T09:45:29Z</time>
      </trkpt>
      <trkpt lat="46.116239419206977" lon="10.513921966776252">
        <ele>2744.2199999999998</ele>
        <time>2018-07-10T09:45:38Z</time>
      </trkpt>
      <trkpt lat="46.116258697584271" lon="10.513827838003635">
        <ele>2742.3000000000002</ele>
        <time>2018-07-10T09:45:48Z</time>
      </trkpt>
      <trkpt lat="46.116271521896124" lon="10.513797663152218">
        <ele>2740.8600000000001</ele>
        <time>2018-07-10T09:45:51Z</time>
      </trkpt>
      <trkpt lat="46.116288537159562" lon="10.513762626796961">
        <ele>2739.8899999999999</ele>
        <time>2018-07-10T09:45:57Z</time>
      </trkpt>
      <trkpt lat="46.11629918217659" lon="10.513758016750216">
        <ele>2740.3800000000001</ele>
        <time>2018-07-10T09:45:58Z</time>
      </trkpt>
      <trkpt lat="46.116361878812313" lon="10.513716358691454">
        <ele>2738.4499999999998</ele>
        <time>2018-07-10T09:46:06Z</time>
      </trkpt>
      <trkpt lat="46.116389790549874" lon="10.513688027858734">
        <ele>2737.9699999999998</ele>
        <time>2018-07-10T09:46:16Z</time>
      </trkpt>
      <trkpt lat="46.116424994543195" lon="10.513666905462742">
        <ele>2737.0100000000002</ele>
        <time>2018-07-10T09:46:27Z</time>
      </trkpt>
      <trkpt lat="46.116456761956215" lon="10.513659110292792">
        <ele>2736.5300000000002</ele>
        <time>2018-07-10T09:46:34Z</time>
      </trkpt>
      <trkpt lat="46.116499677300453" lon="10.513656428083777">
        <ele>2736.0500000000002</ele>
        <time>2018-07-10T09:46:45Z</time>
      </trkpt>
      <trkpt lat="46.116540161892772" lon="10.513652488589287">
        <ele>2736.0500000000002</ele>
        <time>2018-07-10T09:46:57Z</time>
      </trkpt>
      <trkpt lat="46.116531696170568" lon="10.51365458406508">
        <ele>2735.5700000000002</ele>
        <time>2018-07-10T09:47:06Z</time>
      </trkpt>
      <trkpt lat="46.116587100550532" lon="10.513635389506817">
        <ele>2736.0500000000002</ele>
        <time>2018-07-10T09:47:19Z</time>
      </trkpt>
      <trkpt lat="46.116641834378242" lon="10.513594318181276">
        <ele>2736.0500000000002</ele>
        <time>2018-07-10T09:47:31Z</time>
      </trkpt>
      <trkpt lat="46.116641582921147" lon="10.513583840802312">
        <ele>2736.0500000000002</ele>
        <time>2018-07-10T09:47:41Z</time>
      </trkpt>
      <trkpt lat="46.116696232929826" lon="10.513583840802312">
        <ele>2735.5700000000002</ele>
        <time>2018-07-10T09:47:54Z</time>
      </trkpt>
      <trkpt lat="46.11669153906405" lon="10.513587696477771">
        <ele>2736.0500000000002</ele>
        <time>2018-07-10T09:47:57Z</time>
      </trkpt>
      <trkpt lat="46.116646947339177" lon="10.513605801388621">
        <ele>2735.5700000000002</ele>
        <time>2018-07-10T09:48:01Z</time>
      </trkpt>
      <trkpt lat="46.116620879620314" lon="10.51358425989747">
        <ele>2735.5700000000002</ele>
        <time>2018-07-10T09:48:05Z</time>
      </trkpt>
      <trkpt lat="46.116611743345857" lon="10.513490801677108">
        <ele>2734.6100000000001</ele>
        <time>2018-07-10T09:48:12Z</time>
      </trkpt>
      <trkpt lat="46.11663487739861" lon="10.513353254646063">
        <ele>2733.1700000000001</ele>
        <time>2018-07-10T09:48:23Z</time>
      </trkpt>
      <trkpt lat="46.116637475788593" lon="10.513323498889804">
        <ele>2732.6799999999998</ele>
        <time>2018-07-10T09:48:26Z</time>
      </trkpt>
      <trkpt lat="46.1166803073138" lon="10.513228196650743">
        <ele>2730.7600000000002</ele>
        <time>2018-07-10T09:48:36Z</time>
      </trkpt>
      <trkpt lat="46.116710398346186" lon="10.513150077313185">
        <ele>2729.8000000000002</ele>
        <time>2018-07-10T09:48:46Z</time>
      </trkpt>
      <trkpt lat="46.116709979251027" lon="10.513165667653084">
        <ele>2729.8000000000002</ele>
        <time>2018-07-10T09:48:59Z</time>
      </trkpt>
      <trkpt lat="46.116717522963881" lon="10.513163572177291">
        <ele>2729.3200000000002</ele>
        <time>2018-07-10T09:49:09Z</time>
      </trkpt>
      <trkpt lat="46.116744177415967" lon="10.513119734823704">
        <ele>2728.3600000000001</ele>
        <time>2018-07-10T09:49:20Z</time>
      </trkpt>
      <trkpt lat="46.116716936230659" lon="10.513155274093151">
        <ele>2728.8400000000001</ele>
        <time>2018-07-10T09:49:31Z</time>
      </trkpt>
      <trkpt lat="46.116712326183915" lon="10.513153513893485">
        <ele>2729.3200000000002</ele>
        <time>2018-07-10T09:49:32Z</time>
      </trkpt>
      <trkpt lat="46.116689359769225" lon="10.513060474768281">
        <ele>2729.3200000000002</ele>
        <time>2018-07-10T09:49:41Z</time>
      </trkpt>
      <trkpt lat="46.116677708923817" lon="10.513006830587983">
        <ele>2729.3200000000002</ele>
        <time>2018-07-10T09:49:53Z</time>
      </trkpt>
      <trkpt lat="46.116690533235669" lon="10.512997526675463">
        <ele>2728.3600000000001</ele>
        <time>2018-07-10T09:49:57Z</time>
      </trkpt>
      <trkpt lat="46.116690197959542" lon="10.512946983799338">
        <ele>2728.3600000000001</ele>
        <time>2018-07-10T09:50:06Z</time>
      </trkpt>
      <trkpt lat="46.116701513528824" lon="10.51293483003974">
        <ele>2727.4000000000001</ele>
        <time>2018-07-10T09:50:15Z</time>
      </trkpt>
      <trkpt lat="46.1167027708143" lon="10.512893171980977">
        <ele>2727.8800000000001</ele>
        <time>2018-07-10T09:50:26Z</time>
      </trkpt>
      <trkpt lat="46.11670671030879" lon="10.512895938009024">
        <ele>2727.8800000000001</ele>
        <time>2018-07-10T09:50:33Z</time>
      </trkpt>
      <trkpt lat="46.116712158545852" lon="10.512835839763284">
        <ele>2727.4000000000001</ele>
        <time>2018-07-10T09:50:43Z</time>
      </trkpt>
      <trkpt lat="46.116733532398939" lon="10.51281463354826">
        <ele>2726.9200000000001</ele>
        <time>2018-07-10T09:50:57Z</time>
      </trkpt>
      <trkpt lat="46.116751218214631" lon="10.512767527252436">
        <ele>2725.96</ele>
        <time>2018-07-10T09:51:08Z</time>
      </trkpt>
      <trkpt lat="46.11678633838892" lon="10.512700304389">
        <ele>2725.96</ele>
        <time>2018-07-10T09:51:19Z</time>
      </trkpt>
      <trkpt lat="46.116815758869052" lon="10.512710781767964">
        <ele>2725.96</ele>
        <time>2018-07-10T09:51:30Z</time>
      </trkpt>
      <trkpt lat="46.116806035861373" lon="10.512718744575977">
        <ele>2724.9899999999998</ele>
        <time>2018-07-10T09:51:45Z</time>
      </trkpt>
      <trkpt lat="46.116823386400938" lon="10.512658981606364">
        <ele>2724.0300000000002</ele>
        <time>2018-07-10T09:51:58Z</time>
      </trkpt>
      <trkpt lat="46.116856914013624" lon="10.512614054605365">
        <ele>2721.1500000000001</ele>
        <time>2018-07-10T09:52:07Z</time>
      </trkpt>
      <trkpt lat="46.116858003661036" lon="10.512553956359625">
        <ele>2719.71</ele>
        <time>2018-07-10T09:52:18Z</time>
      </trkpt>
      <trkpt lat="46.116870241239667" lon="10.512541132047772">
        <ele>2718.75</ele>
        <time>2018-07-10T09:52:28Z</time>
      </trkpt>
      <trkpt lat="46.116879377514124" lon="10.512544568628073">
        <ele>2717.7800000000002</ele>
        <time>2018-07-10T09:52:38Z</time>
      </trkpt>
      <trkpt lat="46.116881808266044" lon="10.512513304129243">
        <ele>2717.3000000000002</ele>
        <time>2018-07-10T09:52:47Z</time>
      </trkpt>
      <trkpt lat="46.116889854893088" lon="10.512492181733251">
        <ele>2716.8200000000002</ele>
        <time>2018-07-10T09:52:56Z</time>
      </trkpt>
      <trkpt lat="46.116932854056358" lon="10.51250047981739">
        <ele>2715.3800000000001</ele>
        <time>2018-07-10T09:53:04Z</time>
      </trkpt>
      <trkpt lat="46.11696076579392" lon="10.512478183954954">
        <ele>2714.4200000000001</ele>
        <time>2018-07-10T09:53:12Z</time>
      </trkpt>
      <trkpt lat="46.116976942867041" lon="10.512506598606706">
        <ele>2712.98</ele>
        <time>2018-07-10T09:53:21Z</time>
      </trkpt>
      <trkpt lat="46.116997646167874" lon="10.512495283037424">
        <ele>2712.02</ele>
        <time>2018-07-10T09:53:31Z</time>
      </trkpt>
      <trkpt lat="46.117032682523131" lon="10.512487236410379">
        <ele>2711.54</ele>
        <time>2018-07-10T09:53:43Z</time>
      </trkpt>
      <trkpt lat="46.117050284519792" lon="10.51248824223876">
        <ele>2710.5700000000002</ele>
        <time>2018-07-10T09:53:51Z</time>
      </trkpt>
      <trkpt lat="46.117071826010942" lon="10.512454295530915">
        <ele>2709.1300000000001</ele>
        <time>2018-07-10T09:54:01Z</time>
      </trkpt>
      <trkpt lat="46.117098229005933" lon="10.51244524307549">
        <ele>2708.6500000000001</ele>
        <time>2018-07-10T09:54:11Z</time>
      </trkpt>
      <trkpt lat="46.117118764668703" lon="10.512405931949615">
        <ele>2707.6900000000001</ele>
        <time>2018-07-10T09:54:22Z</time>
      </trkpt>
      <trkpt lat="46.11713569611311" lon="10.512393862009048">
        <ele>2705.77</ele>
        <time>2018-07-10T09:54:31Z</time>
      </trkpt>
      <trkpt lat="46.11716159619391" lon="10.512360502034426">
        <ele>2706.25</ele>
        <time>2018-07-10T09:54:42Z</time>
      </trkpt>
      <trkpt lat="46.117157824337482" lon="10.512352036312222">
        <ele>2705.77</ele>
        <time>2018-07-10T09:54:53Z</time>
      </trkpt>
      <trkpt lat="46.117163272574544" lon="10.512362765148282">
        <ele>2705.77</ele>
        <time>2018-07-10T09:55:01Z</time>
      </trkpt>
      <trkpt lat="46.117158075794578" lon="10.512359160929918">
        <ele>2705.77</ele>
        <time>2018-07-10T09:55:04Z</time>
      </trkpt>
      <trkpt lat="46.117164446040988" lon="10.512328902259469">
        <ele>2706.25</ele>
        <time>2018-07-10T09:55:13Z</time>
      </trkpt>
      <trkpt lat="46.117188669741154" lon="10.512320604175329">
        <ele>2704.8099999999999</ele>
        <time>2018-07-10T09:55:21Z</time>
      </trkpt>
      <trkpt lat="46.117214066907763" lon="10.512308701872826">
        <ele>2704.3299999999999</ele>
        <time>2018-07-10T09:55:28Z</time>
      </trkpt>
      <trkpt lat="46.117250192910433" lon="10.512286657467484">
        <ele>2703.8499999999999</ele>
        <time>2018-07-10T09:55:38Z</time>
      </trkpt>
      <trkpt lat="46.117278607562184" lon="10.512261595577002">
        <ele>2702.8800000000001</ele>
        <time>2018-07-10T09:55:46Z</time>
      </trkpt>
      <trkpt lat="46.117296209558845" lon="10.512307779863477">
        <ele>2701.4400000000001</ele>
        <time>2018-07-10T09:55:56Z</time>
      </trkpt>
      <trkpt lat="46.117261424660683" lon="10.512383049353957">
        <ele>2701.4400000000001</ele>
        <time>2018-07-10T09:56:22Z</time>
      </trkpt>
      <trkpt lat="46.117306184023619" lon="10.512352623045444">
        <ele>2700.96</ele>
        <time>2018-07-10T09:56:46Z</time>
      </trkpt>
      <trkpt lat="46.117317248135805" lon="10.512335523962975">
        <ele>2700.96</ele>
        <time>2018-07-10T09:57:07Z</time>
      </trkpt>
      <trkpt lat="46.117345746606588" lon="10.51228447817266">
        <ele>2699.52</ele>
        <time>2018-07-10T09:57:17Z</time>
      </trkpt>
      <trkpt lat="46.11737466417253" lon="10.512235276401043">
        <ele>2699.52</ele>
        <time>2018-07-10T09:57:28Z</time>
      </trkpt>
      <trkpt lat="46.117401570081711" lon="10.512251956388354">
        <ele>2698.0799999999999</ele>
        <time>2018-07-10T09:57:35Z</time>
      </trkpt>
      <trkpt lat="46.117421602830291" lon="10.512232929468155">
        <ele>2697.1199999999999</ele>
        <time>2018-07-10T09:57:45Z</time>
      </trkpt>
      <trkpt lat="46.11741959117353" lon="10.512205353006721">
        <ele>2697.5999999999999</ele>
        <time>2018-07-10T09:57:51Z</time>
      </trkpt>
      <trkpt lat="46.117464518174529" lon="10.51221901550889">
        <ele>2697.1199999999999</ele>
        <time>2018-07-10T09:58:01Z</time>
      </trkpt>
      <trkpt lat="46.117489915341139" lon="10.51220778375864">
        <ele>2696.6399999999999</ele>
        <time>2018-07-10T09:58:05Z</time>
      </trkpt>
      <trkpt lat="46.117518413811922" lon="10.512207029387355">
        <ele>2694.71</ele>
        <time>2018-07-10T09:58:13Z</time>
      </trkpt>
      <trkpt lat="46.117578595876694" lon="10.512225218117237">
        <ele>2693.27</ele>
        <time>2018-07-10T09:58:25Z</time>
      </trkpt>
      <trkpt lat="46.117616482079029" lon="10.512224799022079">
        <ele>2691.3499999999999</ele>
        <time>2018-07-10T09:58:35Z</time>
      </trkpt>
      <trkpt lat="46.117642549797893" lon="10.51223904825747">
        <ele>2690.3899999999999</ele>
        <time>2018-07-10T09:58:44Z</time>
      </trkpt>
      <trkpt lat="46.11767222173512" lon="10.512223793193698">
        <ele>2689.9099999999999</ele>
        <time>2018-07-10T09:58:54Z</time>
      </trkpt>
      <trkpt lat="46.117698792368174" lon="10.512237958610058">
        <ele>2689.4299999999998</ele>
        <time>2018-07-10T09:59:02Z</time>
      </trkpt>
      <trkpt lat="46.117735337466002" lon="10.512267043814063">
        <ele>2688.9400000000001</ele>
        <time>2018-07-10T09:59:11Z</time>
      </trkpt>
      <trkpt lat="46.117737349122763" lon="10.512265535071492">
        <ele>2688.46</ele>
        <time>2018-07-10T09:59:13Z</time>
      </trkpt>
      <trkpt lat="46.117748329415917" lon="10.512197641655803">
        <ele>2687.5</ele>
        <time>2018-07-10T09:59:22Z</time>
      </trkpt>
      <trkpt lat="46.11774941906333" lon="10.512168472632766">
        <ele>2686.0599999999999</ele>
        <time>2018-07-10T09:59:33Z</time>
      </trkpt>
      <trkpt lat="46.117761740460992" lon="10.512123964726925">
        <ele>2684.1399999999999</ele>
        <time>2018-07-10T09:59:41Z</time>
      </trkpt>
      <trkpt lat="46.11780071631074" lon="10.512137124314904">
        <ele>2682.6999999999998</ele>
        <time>2018-07-10T09:59:50Z</time>
      </trkpt>
      <trkpt lat="46.117801973596215" lon="10.512131256982684">
        <ele>2682.2199999999998</ele>
        <time>2018-07-10T09:59:54Z</time>
      </trkpt>
      <trkpt lat="46.11779535189271" lon="10.51209538243711">
        <ele>2681.25</ele>
        <time>2018-07-10T10:00:05Z</time>
      </trkpt>
      <trkpt lat="46.117817061021924" lon="10.512082977220416">
        <ele>2679.3299999999999</ele>
        <time>2018-07-10T10:00:14Z</time>
      </trkpt>
      <trkpt lat="46.11783835105598" lon="10.512073338031769">
        <ele>2678.3699999999999</ele>
        <time>2018-07-10T10:00:22Z</time>
      </trkpt>
      <trkpt lat="46.117850337177515" lon="10.512081887573004">
        <ele>2677.8899999999999</ele>
        <time>2018-07-10T10:00:33Z</time>
      </trkpt>
      <trkpt lat="46.117861233651638" lon="10.512029081583023">
        <ele>2676.4499999999998</ele>
        <time>2018-07-10T10:00:42Z</time>
      </trkpt>
      <trkpt lat="46.117881434038281" lon="10.51204115152359">
        <ele>2675.0100000000002</ele>
        <time>2018-07-10T10:00:50Z</time>
      </trkpt>
      <trkpt lat="46.117899706587195" lon="10.51204894669354">
        <ele>2674.52</ele>
        <time>2018-07-10T10:01:00Z</time>
      </trkpt>
      <trkpt lat="46.117911944165826" lon="10.512078953906894">
        <ele>2672.5999999999999</ele>
        <time>2018-07-10T10:01:10Z</time>
      </trkpt>
      <trkpt lat="46.117922756820917" lon="10.512074511498213">
        <ele>2672.1199999999999</ele>
        <time>2018-07-10T10:01:21Z</time>
      </trkpt>
      <trkpt lat="46.117916302755475" lon="10.512039558961987">
        <ele>2670.6799999999998</ele>
        <time>2018-07-10T10:01:32Z</time>
      </trkpt>
      <trkpt lat="46.117924433201551" lon="10.512036792933941">
        <ele>2671.1599999999999</ele>
        <time>2018-07-10T10:01:43Z</time>
      </trkpt>
      <trkpt lat="46.117943543940783" lon="10.512027405202389">
        <ele>2669.7199999999998</ele>
        <time>2018-07-10T10:01:51Z</time>
      </trkpt>
      <trkpt lat="46.117972880601883" lon="10.51202698610723">
        <ele>2667.3099999999999</ele>
        <time>2018-07-10T10:02:01Z</time>
      </trkpt>
      <trkpt lat="46.117987968027592" lon="10.512039642781019">
        <ele>2665.8699999999999</ele>
        <time>2018-07-10T10:02:05Z</time>
      </trkpt>
      <trkpt lat="46.118011521175504" lon="10.512028997763991">
        <ele>2665.8699999999999</ele>
        <time>2018-07-10T10:02:15Z</time>
      </trkpt>
      <trkpt lat="46.118029039353132" lon="10.512024806812406">
        <ele>2662.9899999999998</ele>
        <time>2018-07-10T10:02:21Z</time>
      </trkpt>
      <trkpt lat="46.118045635521412" lon="10.512040816247463">
        <ele>2662.0300000000002</ele>
        <time>2018-07-10T10:02:30Z</time>
      </trkpt>
      <trkpt lat="46.118058459833264" lon="10.512049617245793">
        <ele>2661.0700000000002</ele>
        <time>2018-07-10T10:02:39Z</time>
      </trkpt>
      <trkpt lat="46.118058795109391" lon="10.512055233120918">
        <ele>2660.1100000000001</ele>
        <time>2018-07-10T10:02:49Z</time>
      </trkpt>
      <trkpt lat="46.118086790665984" lon="10.512070823460817">
        <ele>2658.1799999999998</ele>
        <time>2018-07-10T10:03:01Z</time>
      </trkpt>
      <trkpt lat="46.118093077093363" lon="10.512049114331603">
        <ele>2656.2600000000002</ele>
        <time>2018-07-10T10:03:13Z</time>
      </trkpt>
      <trkpt lat="46.118100956082344" lon="10.512076439335942">
        <ele>2655.7800000000002</ele>
        <time>2018-07-10T10:03:21Z</time>
      </trkpt>
      <trkpt lat="46.118111265823245" lon="10.51210124976933">
        <ele>2655.3000000000002</ele>
        <time>2018-07-10T10:03:42Z</time>
      </trkpt>
      <trkpt lat="46.118086623027921" lon="10.512087838724256">
        <ele>2655.3000000000002</ele>
        <time>2018-07-10T10:03:58Z</time>
      </trkpt>
      <trkpt lat="46.11812811344862" lon="10.5120958853513">
        <ele>2653.8600000000001</ele>
        <time>2018-07-10T10:04:08Z</time>
      </trkpt>
      <trkpt lat="46.118152337148786" lon="10.512083815410733">
        <ele>2652.4200000000001</ele>
        <time>2018-07-10T10:04:16Z</time>
      </trkpt>
      <trkpt lat="46.118183014914393" lon="10.512090269476175">
        <ele>2650.9699999999998</ele>
        <time>2018-07-10T10:04:24Z</time>
      </trkpt>
      <trkpt lat="46.11819944344461" lon="10.512099824845791">
        <ele>2650.0100000000002</ele>
        <time>2018-07-10T10:04:33Z</time>
      </trkpt>
      <trkpt lat="46.118199611082673" lon="10.512124300003052">
        <ele>2648.5700000000002</ele>
        <time>2018-07-10T10:04:42Z</time>
      </trkpt>
      <trkpt lat="46.118215536698699" lon="10.5121149122715">
        <ele>2647.6100000000001</ele>
        <time>2018-07-10T10:04:49Z</time>
      </trkpt>
      <trkpt lat="46.118235988542438" lon="10.512119019404054">
        <ele>2645.6900000000001</ele>
        <time>2018-07-10T10:04:58Z</time>
      </trkpt>
      <trkpt lat="46.118261720985174" lon="10.512127317488194">
        <ele>2644.2399999999998</ele>
        <time>2018-07-10T10:05:04Z</time>
      </trkpt>
      <trkpt lat="46.11829130910337" lon="10.512145673856139">
        <ele>2643.2800000000002</ele>
        <time>2018-07-10T10:05:12Z</time>
      </trkpt>
      <trkpt lat="46.118287621065974" lon="10.512130167335272">
        <ele>2641.8400000000001</ele>
        <time>2018-07-10T10:05:22Z</time>
      </trkpt>
      <trkpt lat="46.118282591924071" lon="10.512140393257141">
        <ele>2641.3600000000001</ele>
        <time>2018-07-10T10:05:36Z</time>
      </trkpt>
      <trkpt lat="46.118287788704038" lon="10.512159420177341">
        <ele>2641.8400000000001</ele>
        <time>2018-07-10T10:05:58Z</time>
      </trkpt>
      <trkpt lat="46.118316287174821" lon="10.512121701613069">
        <ele>2641.3600000000001</ele>
        <time>2018-07-10T10:06:12Z</time>
      </trkpt>
      <trkpt lat="46.118334643542767" lon="10.512119941413403">
        <ele>2640.4000000000001</ele>
        <time>2018-07-10T10:06:22Z</time>
      </trkpt>
      <trkpt lat="46.118347635492682" lon="10.512157827615738">
        <ele>2639.4400000000001</ele>
        <time>2018-07-10T10:06:31Z</time>
      </trkpt>
      <trkpt lat="46.118367835879326" lon="10.512143578380346">
        <ele>2637.5100000000002</ele>
        <time>2018-07-10T10:06:39Z</time>
      </trkpt>
      <trkpt lat="46.11838367767632" lon="10.51213352009654">
        <ele>2635.5900000000001</ele>
        <time>2018-07-10T10:06:47Z</time>
      </trkpt>
      <trkpt lat="46.118388371542096" lon="10.512132346630096">
        <ele>2635.5900000000001</ele>
        <time>2018-07-10T10:06:56Z</time>
      </trkpt>
      <trkpt lat="46.118398094549775" lon="10.512114409357309">
        <ele>2633.6700000000001</ele>
        <time>2018-07-10T10:07:01Z</time>
      </trkpt>
      <trkpt lat="46.118411086499691" lon="10.512074595317245">
        <ele>2632.71</ele>
        <time>2018-07-10T10:07:12Z</time>
      </trkpt>
      <trkpt lat="46.118432711809874" lon="10.512100160121918">
        <ele>2632.23</ele>
        <time>2018-07-10T10:07:21Z</time>
      </trkpt>
      <trkpt lat="46.118457270786166" lon="10.512076187878847">
        <ele>2630.79</ele>
        <time>2018-07-10T10:07:29Z</time>
      </trkpt>
      <trkpt lat="46.118483925238252" lon="10.512072835117579">
        <ele>2628.8600000000001</ele>
        <time>2018-07-10T10:07:37Z</time>
      </trkpt>
      <trkpt lat="46.118509657680988" lon="10.512082390487194">
        <ele>2626.9400000000001</ele>
        <time>2018-07-10T10:07:46Z</time>
      </trkpt>
      <trkpt lat="46.118513848632574" lon="10.512044504284859">
        <ele>2625.5</ele>
        <time>2018-07-10T10:07:55Z</time>
      </trkpt>
      <trkpt lat="46.11853857524693" lon="10.512028662487864">
        <ele>2624.54</ele>
        <time>2018-07-10T10:08:06Z</time>
      </trkpt>
      <trkpt lat="46.118534971028566" lon="10.512027824297547">
        <ele>2624.0599999999999</ele>
        <time>2018-07-10T10:08:15Z</time>
      </trkpt>
      <trkpt lat="46.118537234142423" lon="10.51200301386416">
        <ele>2622.1300000000001</ele>
        <time>2018-07-10T10:08:26Z</time>
      </trkpt>
      <trkpt lat="46.118552656844258" lon="10.511999074369669">
        <ele>2622.1300000000001</ele>
        <time>2018-07-10T10:08:35Z</time>
      </trkpt>
      <trkpt lat="46.118544358760118" lon="10.511996643617749">
        <ele>2622.1300000000001</ele>
        <time>2018-07-10T10:08:49Z</time>
      </trkpt>
      <trkpt lat="46.118545113131404" lon="10.511946100741625">
        <ele>2621.6500000000001</ele>
        <time>2018-07-10T10:09:02Z</time>
      </trkpt>
      <trkpt lat="46.118582747876644" lon="10.511927912011743">
        <ele>2619.25</ele>
        <time>2018-07-10T10:09:10Z</time>
      </trkpt>
      <trkpt lat="46.118593225255609" lon="10.511924140155315">
        <ele>2619.25</ele>
        <time>2018-07-10T10:09:19Z</time>
      </trkpt>
      <trkpt lat="46.118605798110366" lon="10.511903101578355">
        <ele>2617.8099999999999</ele>
        <time>2018-07-10T10:09:31Z</time>
      </trkpt>
      <trkpt lat="46.118612419813871" lon="10.511899664998055">
        <ele>2617.3299999999999</ele>
        <time>2018-07-10T10:09:42Z</time>
      </trkpt>
      <trkpt lat="46.118613677099347" lon="10.511896060779691">
        <ele>2617.3299999999999</ele>
        <time>2018-07-10T10:09:43Z</time>
      </trkpt>
      <trkpt lat="46.118634967133403" lon="10.511881811544299">
        <ele>2616.8499999999999</ele>
        <time>2018-07-10T10:09:52Z</time>
      </trkpt>
      <trkpt lat="46.118651311844587" lon="10.511878039687872">
        <ele>2615.4000000000001</ele>
        <time>2018-07-10T10:10:02Z</time>
      </trkpt>
      <trkpt lat="46.118665644899011" lon="10.511877872049809">
        <ele>2614.4400000000001</ele>
        <time>2018-07-10T10:10:11Z</time>
      </trkpt>
      <trkpt lat="46.118680397048593" lon="10.511864544823766">
        <ele>2613.48</ele>
        <time>2018-07-10T10:10:21Z</time>
      </trkpt>
      <trkpt lat="46.118684001266956" lon="10.511866891756654">
        <ele>2612.52</ele>
        <time>2018-07-10T10:10:32Z</time>
      </trkpt>
      <trkpt lat="46.118684336543083" lon="10.511861443519592">
        <ele>2612.52</ele>
        <time>2018-07-10T10:10:34Z</time>
      </trkpt>
      <trkpt lat="46.118690622970462" lon="10.511841410771012">
        <ele>2612.52</ele>
        <time>2018-07-10T10:10:44Z</time>
      </trkpt>
      <trkpt lat="46.11868953332305" lon="10.51181978546083">
        <ele>2612.04</ele>
        <time>2018-07-10T10:10:57Z</time>
      </trkpt>
      <trkpt lat="46.118705794215202" lon="10.511786760762334">
        <ele>2611.5599999999999</ele>
        <time>2018-07-10T10:11:06Z</time>
      </trkpt>
      <trkpt lat="46.118715517222881" lon="10.511779636144638">
        <ele>2611.0799999999999</ele>
        <time>2018-07-10T10:11:24Z</time>
      </trkpt>
      <trkpt lat="46.118724066764116" lon="10.511747868731618">
        <ele>2611.0799999999999</ele>
        <time>2018-07-10T10:11:33Z</time>
      </trkpt>
      <trkpt lat="46.118726748973131" lon="10.511741414666176">
        <ele>2610.1199999999999</ele>
        <time>2018-07-10T10:11:40Z</time>
      </trkpt>
      <trkpt lat="46.118735717609525" lon="10.511739067733288">
        <ele>2610.1199999999999</ele>
        <time>2018-07-10T10:11:48Z</time>
      </trkpt>
      <trkpt lat="46.118718283250928" lon="10.511742420494556">
        <ele>2610.1199999999999</ele>
        <time>2018-07-10T10:11:59Z</time>
      </trkpt>
      <trkpt lat="46.118722055107355" lon="10.511714005842805">
        <ele>2609.1599999999999</ele>
        <time>2018-07-10T10:12:07Z</time>
      </trkpt>
      <trkpt lat="46.118738315999508" lon="10.511690620332956">
        <ele>2608.1900000000001</ele>
        <time>2018-07-10T10:12:15Z</time>
      </trkpt>
      <trkpt lat="46.118728928267956" lon="10.511666228994727">
        <ele>2607.71</ele>
        <time>2018-07-10T10:12:26Z</time>
      </trkpt>
      <trkpt lat="46.118713337928057" lon="10.511664804071188">
        <ele>2607.71</ele>
        <time>2018-07-10T10:12:36Z</time>
      </trkpt>
      <trkpt lat="46.118733873590827" lon="10.511629432439804">
        <ele>2608.6700000000001</ele>
        <time>2018-07-10T10:12:45Z</time>
      </trkpt>
      <trkpt lat="46.11875063739717" lon="10.5115916300565">
        <ele>2607.71</ele>
        <time>2018-07-10T10:12:54Z</time>
      </trkpt>
      <trkpt lat="46.118762707337737" lon="10.511578721925616">
        <ele>2607.23</ele>
        <time>2018-07-10T10:13:08Z</time>
      </trkpt>
      <trkpt lat="46.11877553164959" lon="10.511565562337637">
        <ele>2607.23</ele>
        <time>2018-07-10T10:13:17Z</time>
      </trkpt>
      <trkpt lat="46.118792630732059" lon="10.511569334194064">
        <ele>2607.23</ele>
        <time>2018-07-10T10:13:19Z</time>
      </trkpt>
      <trkpt lat="46.118821045383811" lon="10.511577716097236">
        <ele>2606.75</ele>
        <time>2018-07-10T10:13:28Z</time>
      </trkpt>
      <trkpt lat="46.118797827512026" lon="10.511588444933295">
        <ele>2606.75</ele>
        <time>2018-07-10T10:13:42Z</time>
      </trkpt>
      <trkpt lat="46.11881853081286" lon="10.511598754674196">
        <ele>2606.75</ele>
        <time>2018-07-10T10:13:54Z</time>
      </trkpt>
      <trkpt lat="46.118817860260606" lon="10.511595401912928">
        <ele>2606.75</ele>
        <time>2018-07-10T10:14:07Z</time>
      </trkpt>
      <trkpt lat="46.118817608803511" lon="10.511582745239139">
        <ele>2605.79</ele>
        <time>2018-07-10T10:14:21Z</time>
      </trkpt>
      <trkpt lat="46.118796989321709" lon="10.511603280901909">
        <ele>2606.75</ele>
        <time>2018-07-10T10:14:33Z</time>
      </trkpt>
      <trkpt lat="46.118781901896" lon="10.511587271466851">
        <ele>2606.75</ele>
        <time>2018-07-10T10:14:48Z</time>
      </trkpt>
      <trkpt lat="46.118811992928386" lon="10.511550391092896">
        <ele>2605.79</ele>
        <time>2018-07-10T10:14:57Z</time>
      </trkpt>
      <trkpt lat="46.118830014020205" lon="10.511559778824449">
        <ele>2605.79</ele>
        <time>2018-07-10T10:15:18Z</time>
      </trkpt>
      <trkpt lat="46.118830433115363" lon="10.511548211798072">
        <ele>2605.79</ele>
        <time>2018-07-10T10:15:36Z</time>
      </trkpt>
      <trkpt lat="46.118822637945414" lon="10.511539159342647">
        <ele>2605.79</ele>
        <time>2018-07-10T10:15:57Z</time>
      </trkpt>
      <trkpt lat="46.118824649602175" lon="10.51154469139874">
        <ele>2605.79</ele>
        <time>2018-07-10T10:15:59Z</time>
      </trkpt>
      <trkpt lat="46.11881853081286" lon="10.511572603136301">
        <ele>2606.75</ele>
        <time>2018-07-10T10:16:04Z</time>
      </trkpt>
      <trkpt lat="46.118790535256267" lon="10.511587858200073">
        <ele>2606.75</ele>
        <time>2018-07-10T10:16:14Z</time>
      </trkpt>
      <trkpt lat="46.118775699287653" lon="10.511588612571359">
        <ele>2606.27</ele>
        <time>2018-07-10T10:16:31Z</time>
      </trkpt>
      <trkpt lat="46.118805957958102" lon="10.5115657299757">
        <ele>2606.27</ele>
        <time>2018-07-10T10:16:46Z</time>
      </trkpt>
      <trkpt lat="46.118800342082977" lon="10.511594312265515">
        <ele>2606.75</ele>
        <time>2018-07-10T10:17:01Z</time>
      </trkpt>
      <trkpt lat="46.118794893845916" lon="10.51156179048121">
        <ele>2606.27</ele>
        <time>2018-07-10T10:17:15Z</time>
      </trkpt>
      <trkpt lat="46.118771424517035" lon="10.511586098000407">
        <ele>2606.27</ele>
        <time>2018-07-10T10:17:27Z</time>
      </trkpt>
      <trkpt lat="46.118776202201843" lon="10.511589031666517">
        <ele>2606.75</ele>
        <time>2018-07-10T10:17:40Z</time>
      </trkpt>
      <trkpt lat="46.118786260485649" lon="10.511589031666517">
        <ele>2606.27</ele>
        <time>2018-07-10T10:18:03Z</time>
      </trkpt>
      <trkpt lat="46.118797911331058" lon="10.511602191254497">
        <ele>2606.27</ele>
        <time>2018-07-10T10:18:19Z</time>
      </trkpt>
      <trkpt lat="46.11879707314074" lon="10.511601017788053">
        <ele>2606.75</ele>
        <time>2018-07-10T10:18:41Z</time>
      </trkpt>
      <trkpt lat="46.118795983493328" lon="10.511560784652829">
        <ele>2606.27</ele>
        <time>2018-07-10T10:18:49Z</time>
      </trkpt>
      <trkpt lat="46.118806209415197" lon="10.511602945625782">
        <ele>2606.27</ele>
        <time>2018-07-10T10:19:01Z</time>
      </trkpt>
      <trkpt lat="46.118832947686315" lon="10.511595066636801">
        <ele>2605.79</ele>
        <time>2018-07-10T10:19:20Z</time>
      </trkpt>
      <trkpt lat="46.11885029822588" lon="10.511590037494898">
        <ele>2605.79</ele>
        <time>2018-07-10T10:19:42Z</time>
      </trkpt>
      <trkpt lat="46.118842083960772" lon="10.511566065251827">
        <ele>2605.79</ele>
        <time>2018-07-10T10:19:51Z</time>
      </trkpt>
      <trkpt lat="46.118852058425546" lon="10.511544020846486">
        <ele>2605.79</ele>
        <time>2018-07-10T10:19:59Z</time>
      </trkpt>
      <trkpt lat="46.118858596310019" lon="10.511505883187056">
        <ele>2603.8699999999999</ele>
        <time>2018-07-10T10:20:09Z</time>
      </trkpt>
      <trkpt lat="46.118881395086646" lon="10.511473612859845">
        <ele>2603.3899999999999</ele>
        <time>2018-07-10T10:20:18Z</time>
      </trkpt>
      <trkpt lat="46.118899919092655" lon="10.511455172672868">
        <ele>2603.3899999999999</ele>
        <time>2018-07-10T10:20:32Z</time>
      </trkpt>
      <trkpt lat="46.118915509432554" lon="10.511464476585388">
        <ele>2603.3899999999999</ele>
        <time>2018-07-10T10:20:43Z</time>
      </trkpt>
      <trkpt lat="46.118929423391819" lon="10.511454250663519">
        <ele>2602.9099999999999</ele>
        <time>2018-07-10T10:20:57Z</time>
      </trkpt>
      <trkpt lat="46.118951886892319" lon="10.51150512881577">
        <ele>2602.4299999999998</ele>
        <time>2018-07-10T10:21:08Z</time>
      </trkpt>
      <trkpt lat="46.118936883285642" lon="10.511523066088557">
        <ele>2602.4299999999998</ele>
        <time>2018-07-10T10:21:21Z</time>
      </trkpt>
      <trkpt lat="46.118936045095325" lon="10.511485012248158">
        <ele>2602.9099999999999</ele>
        <time>2018-07-10T10:21:38Z</time>
      </trkpt>
      <trkpt lat="46.118936212733388" lon="10.511484341695905">
        <ele>2602.9099999999999</ele>
        <time>2018-07-10T10:21:53Z</time>
      </trkpt>
      <trkpt lat="46.11892556771636" lon="10.511473277583718">
        <ele>2602.9099999999999</ele>
        <time>2018-07-10T10:22:08Z</time>
      </trkpt>
      <trkpt lat="46.11892456188798" lon="10.511461542919278">
        <ele>2602.4299999999998</ele>
        <time>2018-07-10T10:22:27Z</time>
      </trkpt>
      <trkpt lat="46.118934284895658" lon="10.511472355574369">
        <ele>2602.9099999999999</ele>
        <time>2018-07-10T10:22:45Z</time>
      </trkpt>
      <trkpt lat="46.118934201076627" lon="10.511475456878543">
        <ele>2602.9099999999999</ele>
        <time>2018-07-10T10:23:04Z</time>
      </trkpt>
      <trkpt lat="46.118923975154757" lon="10.511488951742649">
        <ele>2602.4299999999998</ele>
        <time>2018-07-10T10:23:16Z</time>
      </trkpt>
      <trkpt lat="46.118918778374791" lon="10.51151585765183">
        <ele>2602.9099999999999</ele>
        <time>2018-07-10T10:23:32Z</time>
      </trkpt>
      <trkpt lat="46.118937721475959" lon="10.511497417464852">
        <ele>2602.4299999999998</ele>
        <time>2018-07-10T10:23:42Z</time>
      </trkpt>
      <trkpt lat="46.118939062580466" lon="10.511489035561681">
        <ele>2602.9099999999999</ele>
        <time>2018-07-10T10:23:53Z</time>
      </trkpt>
      <trkpt lat="46.118940152227879" lon="10.511464308947325">
        <ele>2602.4299999999998</ele>
        <time>2018-07-10T10:24:11Z</time>
      </trkpt>
      <trkpt lat="46.11895339563489" lon="10.511460285633802">
        <ele>2602.4299999999998</ele>
        <time>2018-07-10T10:24:30Z</time>
      </trkpt>
      <trkpt lat="46.118940319865942" lon="10.511474031955004">
        <ele>2602.9099999999999</ele>
        <time>2018-07-10T10:24:46Z</time>
      </trkpt>
      <trkpt lat="46.118923723697662" lon="10.511454083025455">
        <ele>2602.9099999999999</ele>
        <time>2018-07-10T10:25:04Z</time>
      </trkpt>
      <trkpt lat="46.11893143504858" lon="10.5114586930722">
        <ele>2601.9499999999998</ele>
        <time>2018-07-10T10:25:13Z</time>
      </trkpt>
      <trkpt lat="46.118923053145409" lon="10.511458944529295">
        <ele>2602.4299999999998</ele>
        <time>2018-07-10T10:25:26Z</time>
      </trkpt>
      <trkpt lat="46.118915257975459" lon="10.511490292847157">
        <ele>2601.9499999999998</ele>
        <time>2018-07-10T10:25:38Z</time>
      </trkpt>
      <trkpt lat="46.118939900770783" lon="10.511451903730631">
        <ele>2601.9499999999998</ele>
        <time>2018-07-10T10:25:54Z</time>
      </trkpt>
      <trkpt lat="46.118948198854923" lon="10.511469505727291">
        <ele>2601.46</ele>
        <time>2018-07-10T10:26:05Z</time>
      </trkpt>
      <trkpt lat="46.118942415341735" lon="10.51149632781744">
        <ele>2601.46</ele>
        <time>2018-07-10T10:26:20Z</time>
      </trkpt>
      <trkpt lat="46.11899153329432" lon="10.511475540697575">
        <ele>2600.5</ele>
        <time>2018-07-10T10:26:38Z</time>
      </trkpt>
      <trkpt lat="46.119030844420195" lon="10.51151099614799">
        <ele>2599.54</ele>
        <time>2018-07-10T10:26:46Z</time>
      </trkpt>
      <trkpt lat="46.119067976251245" lon="10.511516779661179">
        <ele>2598.0999999999999</ele>
        <time>2018-07-10T10:26:55Z</time>
      </trkpt>
      <trkpt lat="46.119085494428873" lon="10.511470763012767">
        <ele>2595.6999999999998</ele>
        <time>2018-07-10T10:27:05Z</time>
      </trkpt>
      <trkpt lat="46.119092702865601" lon="10.511465901508927">
        <ele>2596.1799999999998</ele>
        <time>2018-07-10T10:27:06Z</time>
      </trkpt>
      <trkpt lat="46.119121117517352" lon="10.511392392218113">
        <ele>2595.2199999999998</ele>
        <time>2018-07-10T10:27:16Z</time>
      </trkpt>
      <trkpt lat="46.119172414764762" lon="10.511297425255179">
        <ele>2594.25</ele>
        <time>2018-07-10T10:27:25Z</time>
      </trkpt>
      <trkpt lat="46.119180042296648" lon="10.511277811601758">
        <ele>2594.25</ele>
        <time>2018-07-10T10:27:35Z</time>
      </trkpt>
      <trkpt lat="46.11920066177845" lon="10.511298766359687">
        <ele>2594.25</ele>
        <time>2018-07-10T10:27:43Z</time>
      </trkpt>
      <trkpt lat="46.119199069216847" lon="10.511351153254509">
        <ele>2595.2199999999998</ele>
        <time>2018-07-10T10:27:51Z</time>
      </trkpt>
      <trkpt lat="46.119240308180451" lon="10.511327013373375">
        <ele>2594.7399999999998</ele>
        <time>2018-07-10T10:28:04Z</time>
      </trkpt>
      <trkpt lat="46.11926025711" lon="10.511312009766698">
        <ele>2594.7399999999998</ele>
        <time>2018-07-10T10:28:06Z</time>
      </trkpt>
      <trkpt lat="46.119314907118678" lon="10.511360038071871">
        <ele>2593.29</ele>
        <time>2018-07-10T10:28:16Z</time>
      </trkpt>
      <trkpt lat="46.119377855211496" lon="10.511311506852508">
        <ele>2591.3699999999999</ele>
        <time>2018-07-10T10:28:26Z</time>
      </trkpt>
      <trkpt lat="46.119424710050225" lon="10.511264149099588">
        <ele>2589.4499999999998</ele>
        <time>2018-07-10T10:28:36Z</time>
      </trkpt>
      <trkpt lat="46.119441809132695" lon="10.51127546466887">
        <ele>2588.4899999999998</ele>
        <time>2018-07-10T10:28:46Z</time>
      </trkpt>
      <trkpt lat="46.119459411129355" lon="10.511304968968034">
        <ele>2587.04</ele>
        <time>2018-07-10T10:28:54Z</time>
      </trkpt>
      <trkpt lat="46.119517162442207" lon="10.51126373000443">
        <ele>2585.1199999999999</ele>
        <time>2018-07-10T10:29:03Z</time>
      </trkpt>
      <trkpt lat="46.119526885449886" lon="10.511239925399423">
        <ele>2584.6399999999999</ele>
        <time>2018-07-10T10:29:06Z</time>
      </trkpt>
      <trkpt lat="46.1195676214993" lon="10.51120069809258">
        <ele>2583.6799999999998</ele>
        <time>2018-07-10T10:29:12Z</time>
      </trkpt>
      <trkpt lat="46.11961405724287" lon="10.511145796626806">
        <ele>2581.7600000000002</ele>
        <time>2018-07-10T10:29:20Z</time>
      </trkpt>
      <trkpt lat="46.1196384485811" lon="10.511134145781398">
        <ele>2580.3200000000002</ele>
        <time>2018-07-10T10:29:29Z</time>
      </trkpt>
      <trkpt lat="46.11964775249362" lon="10.511129200458527">
        <ele>2579.8400000000001</ele>
        <time>2018-07-10T10:29:33Z</time>
      </trkpt>
      <trkpt lat="46.119677759706974" lon="10.511087039485574">
        <ele>2576.9499999999998</ele>
        <time>2018-07-10T10:29:43Z</time>
      </trkpt>
      <trkpt lat="46.119732744991779" lon="10.511078238487244">
        <ele>2575.0300000000002</ele>
        <time>2018-07-10T10:29:53Z</time>
      </trkpt>
      <trkpt lat="46.119766775518656" lon="10.5110839381814">
        <ele>2573.1100000000001</ele>
        <time>2018-07-10T10:30:03Z</time>
      </trkpt>
      <trkpt lat="46.119810696691275" lon="10.51104873418808">
        <ele>2571.1799999999998</ele>
        <time>2018-07-10T10:30:12Z</time>
      </trkpt>
      <trkpt lat="46.119841709733009" lon="10.511013362556696">
        <ele>2569.7399999999998</ele>
        <time>2018-07-10T10:30:20Z</time>
      </trkpt>
      <trkpt lat="46.11988621763885" lon="10.511000286787748">
        <ele>2567.3400000000001</ele>
        <time>2018-07-10T10:30:30Z</time>
      </trkpt>
      <trkpt lat="46.11992234364152" lon="10.511048985645175">
        <ele>2565.4200000000001</ele>
        <time>2018-07-10T10:30:40Z</time>
      </trkpt>
      <trkpt lat="46.11995218321681" lon="10.510967262089252">
        <ele>2563.4899999999998</ele>
        <time>2018-07-10T10:30:50Z</time>
      </trkpt>
      <trkpt lat="46.120009766891599" lon="10.510950246825814">
        <ele>2561.0900000000001</ele>
        <time>2018-07-10T10:31:00Z</time>
      </trkpt>
      <trkpt lat="46.12005720846355" lon="10.510952090844512">
        <ele>2558.6900000000001</ele>
        <time>2018-07-10T10:31:09Z</time>
      </trkpt>
      <trkpt lat="46.120112780481577" lon="10.510939853265882">
        <ele>2557.2399999999998</ele>
        <time>2018-07-10T10:31:19Z</time>
      </trkpt>
      <trkpt lat="46.120157288387418" lon="10.510887550190091">
        <ele>2554.3600000000001</ele>
        <time>2018-07-10T10:31:30Z</time>
      </trkpt>
      <trkpt lat="46.1202048137784" lon="10.510892244055867">
        <ele>2552.4400000000001</ele>
        <time>2018-07-10T10:31:39Z</time>
      </trkpt>
      <trkpt lat="46.120242448523641" lon="10.510901883244514">
        <ele>2551</ele>
        <time>2018-07-10T10:31:49Z</time>
      </trkpt>
      <trkpt lat="46.12031226977706" lon="10.510904481634498">
        <ele>2548.5900000000001</ele>
        <time>2018-07-10T10:31:59Z</time>
      </trkpt>
      <trkpt lat="46.120379408821464" lon="10.510873217135668">
        <ele>2545.71</ele>
        <time>2018-07-10T10:32:10Z</time>
      </trkpt>
      <trkpt lat="46.12039977684617" lon="10.510861985385418">
        <ele>2544.75</ele>
        <time>2018-07-10T10:32:19Z</time>
      </trkpt>
      <trkpt lat="46.120476722717285" lon="10.51085377112031">
        <ele>2542.3400000000001</ele>
        <time>2018-07-10T10:32:31Z</time>
      </trkpt>
      <trkpt lat="46.120535396039486" lon="10.51080884411931">
        <ele>2541.8600000000001</ele>
        <time>2018-07-10T10:32:40Z</time>
      </trkpt>
      <trkpt lat="46.120563810691237" lon="10.510707926005125">
        <ele>2540.4200000000001</ele>
        <time>2018-07-10T10:32:49Z</time>
      </trkpt>
      <trkpt lat="46.120637319982052" lon="10.510657969862223">
        <ele>2538.98</ele>
        <time>2018-07-10T10:32:59Z</time>
      </trkpt>
      <trkpt lat="46.120680151507258" lon="10.510677415877581">
        <ele>2538.02</ele>
        <time>2018-07-10T10:33:09Z</time>
      </trkpt>
      <trkpt lat="46.120769251137972" lon="10.510644391179085">
        <ele>2536.5799999999999</ele>
        <time>2018-07-10T10:33:20Z</time>
      </trkpt>
      <trkpt lat="46.120780566707253" lon="10.510653695091605">
        <ele>2536.5799999999999</ele>
        <time>2018-07-10T10:33:33Z</time>
      </trkpt>
      <trkpt lat="46.12076623365283" lon="10.510651515796781">
        <ele>2535.6100000000001</ele>
        <time>2018-07-10T10:33:46Z</time>
      </trkpt>
      <trkpt lat="46.120779057964683" lon="10.51066760905087">
        <ele>2536.0999999999999</ele>
        <time>2018-07-10T10:34:10Z</time>
      </trkpt>
      <trkpt lat="46.120777130126953" lon="10.510661154985428">
        <ele>2536.0999999999999</ele>
        <time>2018-07-10T10:34:27Z</time>
      </trkpt>
      <trkpt lat="46.120790457352996" lon="10.510701891034842">
        <ele>2536.0999999999999</ele>
        <time>2018-07-10T10:34:48Z</time>
      </trkpt>
      <trkpt lat="46.120790122076869" lon="10.510685965418816">
        <ele>2536.0999999999999</ele>
        <time>2018-07-10T10:35:05Z</time>
      </trkpt>
      <trkpt lat="46.120845191180706" lon="10.510594099760056">
        <ele>2534.6500000000001</ele>
        <time>2018-07-10T10:35:15Z</time>
      </trkpt>
      <trkpt lat="46.120884921401739" lon="10.510547999292612">
        <ele>2534.1700000000001</ele>
        <time>2018-07-10T10:35:24Z</time>
      </trkpt>
      <trkpt lat="46.120922639966011" lon="10.510551352053881">
        <ele>2532.73</ele>
        <time>2018-07-10T10:35:32Z</time>
      </trkpt>
      <trkpt lat="46.120971506461501" lon="10.510581023991108">
        <ele>2531.29</ele>
        <time>2018-07-10T10:35:40Z</time>
      </trkpt>
      <trkpt lat="46.121045686304569" lon="10.510586053133011">
        <ele>2528.8899999999999</ele>
        <time>2018-07-10T10:35:52Z</time>
      </trkpt>
      <trkpt lat="46.121090613305569" lon="10.510578341782093">
        <ele>2526.96</ele>
        <time>2018-07-10T10:36:00Z</time>
      </trkpt>
      <trkpt lat="46.121129924431443" lon="10.510612707585096">
        <ele>2525.04</ele>
        <time>2018-07-10T10:36:10Z</time>
      </trkpt>
      <trkpt lat="46.121149118989706" lon="10.510621843859553">
        <ele>2524.0799999999999</ele>
        <time>2018-07-10T10:36:13Z</time>
      </trkpt>
      <trkpt lat="46.121192369610071" lon="10.510618658736348">
        <ele>2523.1199999999999</ele>
        <time>2018-07-10T10:36:18Z</time>
      </trkpt>
      <trkpt lat="46.121218018233776" lon="10.510602397844195">
        <ele>2522.6399999999999</ele>
        <time>2018-07-10T10:36:21Z</time>
      </trkpt>
      <trkpt lat="46.121290856972337" lon="10.510557806119323">
        <ele>2520.71</ele>
        <time>2018-07-10T10:36:32Z</time>
      </trkpt>
      <trkpt lat="46.121329413726926" lon="10.510551435872912">
        <ele>2519.27</ele>
        <time>2018-07-10T10:36:43Z</time>
      </trkpt>
      <trkpt lat="46.121377777308226" lon="10.51053375005722">
        <ele>2516.8699999999999</ele>
        <time>2018-07-10T10:36:52Z</time>
      </trkpt>
      <trkpt lat="46.121411137282848" lon="10.510487649589777">
        <ele>2514.9499999999998</ele>
        <time>2018-07-10T10:37:00Z</time>
      </trkpt>
      <trkpt lat="46.121446844190359" lon="10.51046191714704">
        <ele>2513.02</ele>
        <time>2018-07-10T10:37:08Z</time>
      </trkpt>
      <trkpt lat="46.121498057618737" lon="10.51044037565589">
        <ele>2511.0999999999999</ele>
        <time>2018-07-10T10:37:18Z</time>
      </trkpt>
      <trkpt lat="46.12155731767416" lon="10.510428389534354">
        <ele>2508.6999999999998</ele>
        <time>2018-07-10T10:37:28Z</time>
      </trkpt>
      <trkpt lat="46.121615152806044" lon="10.510397795587778">
        <ele>2506.77</ele>
        <time>2018-07-10T10:37:37Z</time>
      </trkpt>
      <trkpt lat="46.121671898290515" lon="10.510367536917329">
        <ele>2504.3699999999999</ele>
        <time>2018-07-10T10:37:46Z</time>
      </trkpt>
      <trkpt lat="46.121706264093518" lon="10.510350270196795">
        <ele>2502.9299999999998</ele>
        <time>2018-07-10T10:37:54Z</time>
      </trkpt>
      <trkpt lat="46.121745994314551" lon="10.510346246883273">
        <ele>2501.0100000000002</ele>
        <time>2018-07-10T10:38:02Z</time>
      </trkpt>
      <trkpt lat="46.121784131973982" lon="10.510367956012487">
        <ele>2499.0799999999999</ele>
        <time>2018-07-10T10:38:09Z</time>
      </trkpt>
      <trkpt lat="46.121820174157619" lon="10.510366028174758">
        <ele>2497.1599999999999</ele>
        <time>2018-07-10T10:38:17Z</time>
      </trkpt>
      <trkpt lat="46.121844062581658" lon="10.510407518595457">
        <ele>2495.7199999999998</ele>
        <time>2018-07-10T10:38:27Z</time>
      </trkpt>
      <trkpt lat="46.121896868571639" lon="10.510420091450214">
        <ele>2493.8000000000002</ele>
        <time>2018-07-10T10:38:37Z</time>
      </trkpt>
      <trkpt lat="46.121966606006026" lon="10.51041254773736">
        <ele>2491.3899999999999</ele>
        <time>2018-07-10T10:38:49Z</time>
      </trkpt>
      <trkpt lat="46.122014718130231" lon="10.510365944355726">
        <ele>2489.9499999999998</ele>
        <time>2018-07-10T10:38:58Z</time>
      </trkpt>
      <trkpt lat="46.122064674273133" lon="10.51033878698945">
        <ele>2487.5500000000002</ele>
        <time>2018-07-10T10:39:07Z</time>
      </trkpt>
      <trkpt lat="46.122111780568957" lon="10.51034364849329">
        <ele>2485.6300000000001</ele>
        <time>2018-07-10T10:39:14Z</time>
      </trkpt>
      <trkpt lat="46.122233485803008" lon="10.510292518883944">
        <ele>2483.6999999999998</ele>
        <time>2018-07-10T10:39:25Z</time>
      </trkpt>
      <trkpt lat="46.122311353683472" lon="10.510287741199136">
        <ele>2482.2600000000002</ele>
        <time>2018-07-10T10:39:35Z</time>
      </trkpt>
      <trkpt lat="46.122376061975956" lon="10.510283634066582">
        <ele>2480.8200000000002</ele>
        <time>2018-07-10T10:39:44Z</time>
      </trkpt>
      <trkpt lat="46.122417217120528" lon="10.510323531925678">
        <ele>2479.3800000000001</ele>
        <time>2018-07-10T10:39:55Z</time>
      </trkpt>
      <trkpt lat="46.12246373668313" lon="10.510306600481272">
        <ele>2477.9400000000001</ele>
        <time>2018-07-10T10:40:04Z</time>
      </trkpt>
      <trkpt lat="46.122484272345901" lon="10.510317999869585">
        <ele>2476.9699999999998</ele>
        <time>2018-07-10T10:40:06Z</time>
      </trkpt>
      <trkpt lat="46.122550070285797" lon="10.510400058701634">
        <ele>2476.0100000000002</ele>
        <time>2018-07-10T10:40:16Z</time>
      </trkpt>
      <trkpt lat="46.122636990621686" lon="10.510428221896291">
        <ele>2475.0500000000002</ele>
        <time>2018-07-10T10:40:28Z</time>
      </trkpt>
      <trkpt lat="46.122660711407661" lon="10.510461162775755">
        <ele>2474.0900000000001</ele>
        <time>2018-07-10T10:40:33Z</time>
      </trkpt>
      <trkpt lat="46.122710919007659" lon="10.510551016777754">
        <ele>2474.0900000000001</ele>
        <time>2018-07-10T10:40:45Z</time>
      </trkpt>
      <trkpt lat="46.122763222083449" lon="10.510617317631841">
        <ele>2474.0900000000001</ele>
        <time>2018-07-10T10:40:52Z</time>
      </trkpt>
      <trkpt lat="46.122794570401311" lon="10.510624945163727">
        <ele>2474.0900000000001</ele>
        <time>2018-07-10T10:40:56Z</time>
      </trkpt>
      <trkpt lat="46.122818626463413" lon="10.510671548545361">
        <ele>2474.0900000000001</ele>
        <time>2018-07-10T10:41:07Z</time>
      </trkpt>
      <trkpt lat="46.122804377228022" lon="10.510655036196113">
        <ele>2473.1300000000001</ele>
        <time>2018-07-10T10:41:15Z</time>
      </trkpt>
      <trkpt lat="46.122793480753899" lon="10.5106470733881">
        <ele>2473.1300000000001</ele>
        <time>2018-07-10T10:41:26Z</time>
      </trkpt>
      <trkpt lat="46.122809154912829" lon="10.510648163035512">
        <ele>2472.6500000000001</ele>
        <time>2018-07-10T10:41:40Z</time>
      </trkpt>
      <trkpt lat="46.122818877920508" lon="10.510649923235178">
        <ele>2473.1300000000001</ele>
        <time>2018-07-10T10:42:06Z</time>
      </trkpt>
      <trkpt lat="46.122802449390292" lon="10.510657634586096">
        <ele>2473.1300000000001</ele>
        <time>2018-07-10T10:42:30Z</time>
      </trkpt>
      <trkpt lat="46.122812507674098" lon="10.510657299309969">
        <ele>2473.1300000000001</ele>
        <time>2018-07-10T10:42:53Z</time>
      </trkpt>
      <trkpt lat="46.122793229296803" lon="10.51062754355371">
        <ele>2473.6100000000001</ele>
        <time>2018-07-10T10:43:18Z</time>
      </trkpt>
      <trkpt lat="46.122808400541544" lon="10.510668447241187">
        <ele>2473.6100000000001</ele>
        <time>2018-07-10T10:43:34Z</time>
      </trkpt>
      <trkpt lat="46.122802281752229" lon="10.510659394785762">
        <ele>2474.0900000000001</ele>
        <time>2018-07-10T10:43:49Z</time>
      </trkpt>
      <trkpt lat="46.122785517945886" lon="10.51061388105154">
        <ele>2474.0900000000001</ele>
        <time>2018-07-10T10:44:07Z</time>
      </trkpt>
      <trkpt lat="46.122780656442046" lon="10.510574067011476">
        <ele>2474.0900000000001</ele>
        <time>2018-07-10T10:44:29Z</time>
      </trkpt>
      <trkpt lat="46.122777387499809" lon="10.510589741170406">
        <ele>2474.0900000000001</ele>
        <time>2018-07-10T10:44:56Z</time>
      </trkpt>
      <trkpt lat="46.122781075537205" lon="10.510531738400459">
        <ele>2474.0900000000001</ele>
        <time>2018-07-10T10:45:18Z</time>
      </trkpt>
      <trkpt lat="46.122771352529526" lon="10.510499719530344">
        <ele>2474.0900000000001</ele>
        <time>2018-07-10T10:45:34Z</time>
      </trkpt>
      <trkpt lat="46.122790882363915" lon="10.510486057028174">
        <ele>2474.0900000000001</ele>
        <time>2018-07-10T10:45:54Z</time>
      </trkpt>
      <trkpt lat="46.122802784666419" lon="10.51048924215138">
        <ele>2474.0900000000001</ele>
        <time>2018-07-10T10:46:21Z</time>
      </trkpt>
      <trkpt lat="46.122822649776936" lon="10.510602733120322">
        <ele>2474.5700000000002</ele>
        <time>2018-07-10T10:46:47Z</time>
      </trkpt>
      <trkpt lat="46.122821560129523" lon="10.510600218549371">
        <ele>2474.5700000000002</ele>
        <time>2018-07-10T10:47:11Z</time>
      </trkpt>
      <trkpt lat="46.122803455218673" lon="10.510630309581757">
        <ele>2475.5300000000002</ele>
        <time>2018-07-10T10:47:22Z</time>
      </trkpt>
      <trkpt lat="46.122802197933197" lon="10.510638691484928">
        <ele>2475.5300000000002</ele>
        <time>2018-07-10T10:47:36Z</time>
      </trkpt>
      <trkpt lat="46.122816195711493" lon="10.51067884080112">
        <ele>2475.0500000000002</ele>
        <time>2018-07-10T10:47:59Z</time>
      </trkpt>
      <trkpt lat="46.122807813808322" lon="10.510669369250536">
        <ele>2475.5300000000002</ele>
        <time>2018-07-10T10:48:22Z</time>
      </trkpt>
      <trkpt lat="46.122805047780275" lon="10.510714128613472">
        <ele>2475.5300000000002</ele>
        <time>2018-07-10T10:48:34Z</time>
      </trkpt>
      <trkpt lat="46.12278375774622" lon="10.51068571396172">
        <ele>2475.5300000000002</ele>
        <time>2018-07-10T10:48:47Z</time>
      </trkpt>
      <trkpt lat="46.122790379449725" lon="10.510684372857213">
        <ele>2475.0500000000002</ele>
        <time>2018-07-10T10:48:56Z</time>
      </trkpt>
      <trkpt lat="46.122788032516837" lon="10.510679176077247">
        <ele>2475.0500000000002</ele>
        <time>2018-07-10T10:49:03Z</time>
      </trkpt>
      <trkpt lat="46.122797084972262" lon="10.510621340945363">
        <ele>2474.5700000000002</ele>
        <time>2018-07-10T10:49:17Z</time>
      </trkpt>
      <trkpt lat="46.122789373621345" lon="10.510639194399118">
        <ele>2474.5700000000002</ele>
        <time>2018-07-10T10:49:31Z</time>
      </trkpt>
      <trkpt lat="46.12277889624238" lon="10.510636093094945">
        <ele>2475.0500000000002</ele>
        <time>2018-07-10T10:49:41Z</time>
      </trkpt>
      <trkpt lat="46.122824912890792" lon="10.510644894093275">
        <ele>2475.0500000000002</ele>
        <time>2018-07-10T10:49:55Z</time>
      </trkpt>
      <trkpt lat="46.122798845171928" lon="10.510656712576747">
        <ele>2475.5300000000002</ele>
        <time>2018-07-10T10:50:15Z</time>
      </trkpt>
      <trkpt lat="46.122806975618005" lon="10.510650258511305">
        <ele>2475.0500000000002</ele>
        <time>2018-07-10T10:50:34Z</time>
      </trkpt>
      <trkpt lat="46.122810579836369" lon="10.510648246854544">
        <ele>2475.0500000000002</ele>
        <time>2018-07-10T10:50:52Z</time>
      </trkpt>
      <trkpt lat="46.122802533209324" lon="10.510660065338016">
        <ele>2475.0500000000002</ele>
        <time>2018-07-10T10:51:11Z</time>
      </trkpt>
      <trkpt lat="46.122789122164249" lon="10.510647492483258">
        <ele>2475.5300000000002</ele>
        <time>2018-07-10T10:51:25Z</time>
      </trkpt>
      <trkpt lat="46.122763054445386" lon="10.510667525231838">
        <ele>2475.0500000000002</ele>
        <time>2018-07-10T10:51:45Z</time>
      </trkpt>
      <trkpt lat="46.122774872928858" lon="10.510675152763724">
        <ele>2475.0500000000002</ele>
        <time>2018-07-10T10:52:01Z</time>
      </trkpt>
      <trkpt lat="46.122790211811662" lon="10.510670123621821">
        <ele>2475.5300000000002</ele>
        <time>2018-07-10T10:52:21Z</time>
      </trkpt>
      <trkpt lat="46.122802868485451" lon="10.510678002610803">
        <ele>2475.0500000000002</ele>
        <time>2018-07-10T10:52:33Z</time>
      </trkpt>
      <trkpt lat="46.122812675312161" lon="10.510659143328667">
        <ele>2475.0500000000002</ele>
        <time>2018-07-10T10:52:49Z</time>
      </trkpt>
      <trkpt lat="46.122817452996969" lon="10.510654449462891">
        <ele>2475.0500000000002</ele>
        <time>2018-07-10T10:53:05Z</time>
      </trkpt>
      <trkpt lat="46.122865816578269" lon="10.510609606280923">
        <ele>2472.6500000000001</ele>
        <time>2018-07-10T10:53:15Z</time>
      </trkpt>
      <trkpt lat="46.122873025014997" lon="10.510609103366733">
        <ele>2472.1700000000001</ele>
        <time>2018-07-10T10:53:16Z</time>
      </trkpt>
      <trkpt lat="46.122950306162238" lon="10.510651599615812">
        <ele>2468.8000000000002</ele>
        <time>2018-07-10T10:53:27Z</time>
      </trkpt>
      <trkpt lat="46.123008476570249" lon="10.510666603222489">
        <ele>2465.9200000000001</ele>
        <time>2018-07-10T10:53:36Z</time>
      </trkpt>
      <trkpt lat="46.123021971434355" lon="10.510675236582756">
        <ele>2464.96</ele>
        <time>2018-07-10T10:53:44Z</time>
      </trkpt>
      <trkpt lat="46.123058265075088" lon="10.510682025924325">
        <ele>2464</ele>
        <time>2018-07-10T10:53:54Z</time>
      </trkpt>
      <trkpt lat="46.123065473511815" lon="10.510672638192773">
        <ele>2463.04</ele>
        <time>2018-07-10T10:53:59Z</time>
      </trkpt>
      <trkpt lat="46.123095480725169" lon="10.510730557143688">
        <ele>2461.5900000000001</ele>
        <time>2018-07-10T10:54:08Z</time>
      </trkpt>
      <trkpt lat="46.123127834871411" lon="10.510690240189433">
        <ele>2458.71</ele>
        <time>2018-07-10T10:54:18Z</time>
      </trkpt>
      <trkpt lat="46.123157255351543" lon="10.510663753375411">
        <ele>2456.79</ele>
        <time>2018-07-10T10:54:27Z</time>
      </trkpt>
      <trkpt lat="46.123182903975248" lon="10.510623520240188">
        <ele>2454.3800000000001</ele>
        <time>2018-07-10T10:54:36Z</time>
      </trkpt>
      <trkpt lat="46.123202349990606" lon="10.510558728128672">
        <ele>2451.02</ele>
        <time>2018-07-10T10:54:46Z</time>
      </trkpt>
      <trkpt lat="46.12324551679194" lon="10.510518914088607">
        <ele>2448.6199999999999</ele>
        <time>2018-07-10T10:54:58Z</time>
      </trkpt>
      <trkpt lat="46.123266806825995" lon="10.510499887168407">
        <ele>2446.21</ele>
        <time>2018-07-10T10:55:08Z</time>
      </trkpt>
      <trkpt lat="46.123310225084424" lon="10.510440710932016">
        <ele>2443.3299999999999</ele>
        <time>2018-07-10T10:55:19Z</time>
      </trkpt>
      <trkpt lat="46.123322630301118" lon="10.510432831943035">
        <ele>2442.8499999999999</ele>
        <time>2018-07-10T10:55:30Z</time>
      </trkpt>
      <trkpt lat="46.123355152085423" lon="10.51041204482317">
        <ele>2440.4400000000001</ele>
        <time>2018-07-10T10:55:41Z</time>
      </trkpt>
      <trkpt lat="46.123368814587593" lon="10.510340295732021">
        <ele>2437.5599999999999</ele>
        <time>2018-07-10T10:55:50Z</time>
      </trkpt>
      <trkpt lat="46.123420698568225" lon="10.510331159457564">
        <ele>2434.6799999999998</ele>
        <time>2018-07-10T10:56:00Z</time>
      </trkpt>
      <trkpt lat="46.123448275029659" lon="10.510292602702975">
        <ele>2432.75</ele>
        <time>2018-07-10T10:56:08Z</time>
      </trkpt>
      <trkpt lat="46.123477863147855" lon="10.510239880532026">
        <ele>2430.8299999999999</ele>
        <time>2018-07-10T10:56:17Z</time>
      </trkpt>
      <trkpt lat="46.12354164943099" lon="10.510246250778437">
        <ele>2427.9499999999998</ele>
        <time>2018-07-10T10:56:28Z</time>
      </trkpt>
      <trkpt lat="46.123550618067384" lon="10.51026301458478">
        <ele>2426.5</ele>
        <time>2018-07-10T10:56:38Z</time>
      </trkpt>
      <trkpt lat="46.123594706878066" lon="10.510197803378105">
        <ele>2425.0599999999999</ele>
        <time>2018-07-10T10:56:49Z</time>
      </trkpt>
      <trkpt lat="46.123647931963205" lon="10.510178441181779">
        <ele>2422.1799999999998</ele>
        <time>2018-07-10T10:57:00Z</time>
      </trkpt>
      <trkpt lat="46.123700654134154" lon="10.510149523615837">
        <ele>2419.3000000000002</ele>
        <time>2018-07-10T10:57:11Z</time>
      </trkpt>
      <trkpt lat="46.123731415718794" lon="10.510112978518009">
        <ele>2416.4099999999999</ele>
        <time>2018-07-10T10:57:21Z</time>
      </trkpt>
      <trkpt lat="46.123757902532816" lon="10.510086324065924">
        <ele>2414.9699999999998</ele>
        <time>2018-07-10T10:57:26Z</time>
      </trkpt>
      <trkpt lat="46.123829819262028" lon="10.51007785834372">
        <ele>2411.5999999999999</ele>
        <time>2018-07-10T10:57:38Z</time>
      </trkpt>
      <trkpt lat="46.123858066275716" lon="10.510049359872937">
        <ele>2409.6799999999998</ele>
        <time>2018-07-10T10:57:48Z</time>
      </trkpt>
      <trkpt lat="46.123916739597917" lon="10.510050533339381">
        <ele>2407.2800000000002</ele>
        <time>2018-07-10T10:57:59Z</time>
      </trkpt>
      <trkpt lat="46.123943645507097" lon="10.509987082332373">
        <ele>2404.8800000000001</ele>
        <time>2018-07-10T10:58:09Z</time>
      </trkpt>
      <trkpt lat="46.124002989381552" lon="10.51000795327127">
        <ele>2402.9499999999998</ele>
        <time>2018-07-10T10:58:19Z</time>
      </trkpt>
      <trkpt lat="46.124012880027294" lon="10.510021867230535">
        <ele>2402.4699999999998</ele>
        <time>2018-07-10T10:58:21Z</time>
      </trkpt>
      <trkpt lat="46.124039031565189" lon="10.510047767311335">
        <ele>2401.9899999999998</ele>
        <time>2018-07-10T10:58:24Z</time>
      </trkpt>
      <trkpt lat="46.124055124819279" lon="10.510095292702317">
        <ele>2401.5100000000002</ele>
        <time>2018-07-10T10:58:27Z</time>
      </trkpt>
      <trkpt lat="46.124088652431965" lon="10.510086407884955">
        <ele>2401.0300000000002</ele>
        <time>2018-07-10T10:58:38Z</time>
      </trkpt>
      <trkpt lat="46.124075660482049" lon="10.510087916627526">
        <ele>2401.0300000000002</ele>
        <time>2018-07-10T10:59:01Z</time>
      </trkpt>
      <trkpt lat="46.124055124819279" lon="10.510101830586791">
        <ele>2401.0300000000002</ele>
        <time>2018-07-10T10:59:19Z</time>
      </trkpt>
      <trkpt lat="46.124026207253337" lon="10.510046761482954">
        <ele>2401.9899999999998</ele>
        <time>2018-07-10T10:59:30Z</time>
      </trkpt>
      <trkpt lat="46.124011455103755" lon="10.509958583861589">
        <ele>2401.5100000000002</ele>
        <time>2018-07-10T10:59:41Z</time>
      </trkpt>
      <trkpt lat="46.124029643833637" lon="10.50991072319448">
        <ele>2399.5900000000001</ele>
        <time>2018-07-10T10:59:49Z</time>
      </trkpt>
      <trkpt lat="46.124038444831967" lon="10.509889097884297">
        <ele>2397.6700000000001</ele>
        <time>2018-07-10T10:59:57Z</time>
      </trkpt>
      <trkpt lat="46.12405470572412" lon="10.509868729859591">
        <ele>2395.2600000000002</ele>
        <time>2018-07-10T11:00:08Z</time>
      </trkpt>
      <trkpt lat="46.124057890847325" lon="10.509814498946071">
        <ele>2394.3000000000002</ele>
        <time>2018-07-10T11:00:17Z</time>
      </trkpt>
      <trkpt lat="46.124103320762515" lon="10.50984769128263">
        <ele>2391.9000000000001</ele>
        <time>2018-07-10T11:00:28Z</time>
      </trkpt>
      <trkpt lat="46.12413533963263" lon="10.509820953011513">
        <ele>2389.9699999999998</ele>
        <time>2018-07-10T11:00:37Z</time>
      </trkpt>
      <trkpt lat="46.124170711264014" lon="10.509844087064266">
        <ele>2388.5300000000002</ele>
        <time>2018-07-10T11:00:46Z</time>
      </trkpt>
      <trkpt lat="46.124197198078036" lon="10.509823886677623">
        <ele>2387.0900000000001</ele>
        <time>2018-07-10T11:00:54Z</time>
      </trkpt>
      <trkpt lat="46.124210357666016" lon="10.509856576099992">
        <ele>2386.6100000000001</ele>
        <time>2018-07-10T11:01:06Z</time>
      </trkpt>
      <trkpt lat="46.124260816723108" lon="10.509855486452579">
        <ele>2384.6900000000001</ele>
        <time>2018-07-10T11:01:16Z</time>
      </trkpt>
      <trkpt lat="46.12432393245399" lon="10.50984475761652">
        <ele>2381.8000000000002</ele>
        <time>2018-07-10T11:01:26Z</time>
      </trkpt>
      <trkpt lat="46.12433759495616" lon="10.509842243045568">
        <ele>2380.3600000000001</ele>
        <time>2018-07-10T11:01:31Z</time>
      </trkpt>
      <trkpt lat="46.124375313520432" lon="10.509826233610511">
        <ele>2378.9200000000001</ele>
        <time>2018-07-10T11:01:37Z</time>
      </trkpt>
      <trkpt lat="46.124403811991215" lon="10.509784407913685">
        <ele>2377.48</ele>
        <time>2018-07-10T11:01:46Z</time>
      </trkpt>
      <trkpt lat="46.124429041519761" lon="10.509763369336724">
        <ele>2375.5500000000002</ele>
        <time>2018-07-10T11:01:55Z</time>
      </trkpt>
      <trkpt lat="46.124471370130777" lon="10.509753981605172">
        <ele>2373.6300000000001</ele>
        <time>2018-07-10T11:02:07Z</time>
      </trkpt>
      <trkpt lat="46.124476986005902" lon="10.509713916108012">
        <ele>2372.6700000000001</ele>
        <time>2018-07-10T11:02:17Z</time>
      </trkpt>
      <trkpt lat="46.124496180564165" lon="10.509701678529382">
        <ele>2371.23</ele>
        <time>2018-07-10T11:02:25Z</time>
      </trkpt>
      <trkpt lat="46.12450229935348" lon="10.509681394323707">
        <ele>2369.3099999999999</ele>
        <time>2018-07-10T11:02:35Z</time>
      </trkpt>
      <trkpt lat="46.124526606872678" lon="10.509697068482637">
        <ele>2367.8600000000001</ele>
        <time>2018-07-10T11:02:45Z</time>
      </trkpt>
      <trkpt lat="46.124517889693379" lon="10.509685836732388">
        <ele>2366.9000000000001</ele>
        <time>2018-07-10T11:02:54Z</time>
      </trkpt>
      <trkpt lat="46.124520068988204" lon="10.509654488414526">
        <ele>2365.9400000000001</ele>
        <time>2018-07-10T11:03:02Z</time>
      </trkpt>
      <trkpt lat="46.124527025967836" lon="10.509582655504346">
        <ele>2363.54</ele>
        <time>2018-07-10T11:03:11Z</time>
      </trkpt>
      <trkpt lat="46.124580334872007" lon="10.509589444845915">
        <ele>2361.6199999999999</ele>
        <time>2018-07-10T11:03:19Z</time>
      </trkpt>
      <trkpt lat="46.124597685411572" lon="10.509583745151758">
        <ele>2361.1399999999999</ele>
        <time>2018-07-10T11:03:21Z</time>
      </trkpt>
      <trkpt lat="46.124663734808564" lon="10.509571172297001">
        <ele>2359.21</ele>
        <time>2018-07-10T11:03:31Z</time>
      </trkpt>
      <trkpt lat="46.124678151682019" lon="10.509520042687654">
        <ele>2356.8099999999999</ele>
        <time>2018-07-10T11:03:36Z</time>
      </trkpt>
      <trkpt lat="46.124768927693367" lon="10.50949539989233">
        <ele>2353.4400000000001</ele>
        <time>2018-07-10T11:03:47Z</time>
      </trkpt>
      <trkpt lat="46.124825840815902" lon="10.509450472891331">
        <ele>2351.52</ele>
        <time>2018-07-10T11:03:56Z</time>
      </trkpt>
      <trkpt lat="46.124863978475332" lon="10.509386183694005">
        <ele>2349.1199999999999</ele>
        <time>2018-07-10T11:04:06Z</time>
      </trkpt>
      <trkpt lat="46.124892476946115" lon="10.509311417117715">
        <ele>2346.23</ele>
        <time>2018-07-10T11:04:15Z</time>
      </trkpt>
      <trkpt lat="46.124912844970822" lon="10.50923690199852">
        <ele>2344.79</ele>
        <time>2018-07-10T11:04:21Z</time>
      </trkpt>
      <trkpt lat="46.124929441139102" lon="10.50920614041388">
        <ele>2344.3099999999999</ele>
        <time>2018-07-10T11:04:23Z</time>
      </trkpt>
      <trkpt lat="46.124929776415229" lon="10.509191304445267">
        <ele>2343.8299999999999</ele>
        <time>2018-07-10T11:04:25Z</time>
      </trkpt>
      <trkpt lat="46.124934051185846" lon="10.50915040075779">
        <ele>2342.8699999999999</ele>
        <time>2018-07-10T11:04:28Z</time>
      </trkpt>
      <trkpt lat="46.124956849962473" lon="10.509121147915721">
        <ele>2341.9099999999999</ele>
        <time>2018-07-10T11:04:31Z</time>
      </trkpt>
      <trkpt lat="46.124963639304042" lon="10.509093487635255">
        <ele>2340.4699999999998</ele>
        <time>2018-07-10T11:04:35Z</time>
      </trkpt>
      <trkpt lat="46.124963974580169" lon="10.509060630574822">
        <ele>2339.02</ele>
        <time>2018-07-10T11:04:45Z</time>
      </trkpt>
      <trkpt lat="46.124956011772156" lon="10.509059121832252">
        <ele>2339.02</ele>
        <time>2018-07-10T11:04:49Z</time>
      </trkpt>
      <trkpt lat="46.12492935732007" lon="10.508988881483674">
        <ele>2338.0599999999999</ele>
        <time>2018-07-10T11:04:57Z</time>
      </trkpt>
      <trkpt lat="46.1249796487391" lon="10.508913025259972">
        <ele>2335.6599999999999</ele>
        <time>2018-07-10T11:05:07Z</time>
      </trkpt>
      <trkpt lat="46.124988365918398" lon="10.508909169584513">
        <ele>2335.1799999999998</ele>
        <time>2018-07-10T11:05:08Z</time>
      </trkpt>
      <trkpt lat="46.12504905089736" lon="10.508815040811896">
        <ele>2332.3000000000002</ele>
        <time>2018-07-10T11:05:20Z</time>
      </trkpt>
      <trkpt lat="46.125056343153119" lon="10.50878394395113">
        <ele>2331.3299999999999</ele>
        <time>2018-07-10T11:05:23Z</time>
      </trkpt>
      <trkpt lat="46.125075286254287" lon="10.508750332519412">
        <ele>2330.3699999999999</ele>
        <time>2018-07-10T11:05:26Z</time>
      </trkpt>
      <trkpt lat="46.125094229355454" lon="10.50873558036983">
        <ele>2329.8899999999999</ele>
        <time>2018-07-10T11:05:28Z</time>
      </trkpt>
      <trkpt lat="46.12510328181088" lon="10.5086974427104">
        <ele>2329.4099999999999</ele>
        <time>2018-07-10T11:05:31Z</time>
      </trkpt>
      <trkpt lat="46.125189196318388" lon="10.508686881512403">
        <ele>2327.0100000000002</ele>
        <time>2018-07-10T11:05:41Z</time>
      </trkpt>
      <trkpt lat="46.125208474695683" lon="10.508638517931104">
        <ele>2325.0900000000001</ele>
        <time>2018-07-10T11:05:47Z</time>
      </trkpt>
      <trkpt lat="46.125242505222559" lon="10.508550256490707">
        <ele>2323.1599999999999</ele>
        <time>2018-07-10T11:05:55Z</time>
      </trkpt>
      <trkpt lat="46.125282654538751" lon="10.508542209863663">
        <ele>2321.2399999999998</ele>
        <time>2018-07-10T11:06:02Z</time>
      </trkpt>
      <trkpt lat="46.125296903774142" lon="10.508505329489708">
        <ele>2320.7600000000002</ele>
        <time>2018-07-10T11:06:05Z</time>
      </trkpt>
      <trkpt lat="46.125301597639918" lon="10.508462833240628">
        <ele>2319.3200000000002</ele>
        <time>2018-07-10T11:06:08Z</time>
      </trkpt>
      <trkpt lat="46.125326324254274" lon="10.508365351706743">
        <ele>2316.9099999999999</ele>
        <time>2018-07-10T11:06:19Z</time>
      </trkpt>
      <trkpt lat="46.125355660915375" lon="10.508332746103406">
        <ele>2315.4699999999998</ele>
        <time>2018-07-10T11:06:24Z</time>
      </trkpt>
      <trkpt lat="46.125360019505024" lon="10.508254040032625">
        <ele>2312.5900000000001</ele>
        <time>2018-07-10T11:06:33Z</time>
      </trkpt>
      <trkpt lat="46.125364294275641" lon="10.50823031924665">
        <ele>2311.6300000000001</ele>
        <time>2018-07-10T11:06:36Z</time>
      </trkpt>
      <trkpt lat="46.125401258468628" lon="10.508134262636304">
        <ele>2308.7399999999998</ele>
        <time>2018-07-10T11:06:45Z</time>
      </trkpt>
      <trkpt lat="46.125439144670963" lon="10.508040469139814">
        <ele>2307.7800000000002</ele>
        <time>2018-07-10T11:06:54Z</time>
      </trkpt>
      <trkpt lat="46.125440234318376" lon="10.508039882406592">
        <ele>2307.3000000000002</ele>
        <time>2018-07-10T11:07:08Z</time>
      </trkpt>
      <trkpt lat="46.12544291652739" lon="10.508076092228293">
        <ele>2306.3400000000001</ele>
        <time>2018-07-10T11:07:19Z</time>
      </trkpt>
      <trkpt lat="46.125449538230896" lon="10.508086988702416">
        <ele>2306.3400000000001</ele>
        <time>2018-07-10T11:07:45Z</time>
      </trkpt>
      <trkpt lat="46.125445934012532" lon="10.508060082793236">
        <ele>2306.3400000000001</ele>
        <time>2018-07-10T11:08:09Z</time>
      </trkpt>
      <trkpt lat="46.125448951497674" lon="10.508069135248661">
        <ele>2306.3400000000001</ele>
        <time>2018-07-10T11:08:33Z</time>
      </trkpt>
      <trkpt lat="46.125436378642917" lon="10.508050443604589">
        <ele>2306.3400000000001</ele>
        <time>2018-07-10T11:09:01Z</time>
      </trkpt>
      <trkpt lat="46.12543704919517" lon="10.508035523816943">
        <ele>2306.3400000000001</ele>
        <time>2018-07-10T11:09:28Z</time>
      </trkpt>
      <trkpt lat="46.125436294823885" lon="10.508022867143154">
        <ele>2305.8600000000001</ele>
        <time>2018-07-10T11:09:48Z</time>
      </trkpt>
      <trkpt lat="46.125445766374469" lon="10.508002834394574">
        <ele>2306.3400000000001</ele>
        <time>2018-07-10T11:10:14Z</time>
      </trkpt>
      <trkpt lat="46.125441826879978" lon="10.508026052266359">
        <ele>2306.3400000000001</ele>
        <time>2018-07-10T11:10:37Z</time>
      </trkpt>
      <trkpt lat="46.125441743060946" lon="10.508025884628296">
        <ele>2306.8200000000002</ele>
        <time>2018-07-10T11:10:52Z</time>
      </trkpt>
      <trkpt lat="46.125447023659945" lon="10.508021609857678">
        <ele>2306.8200000000002</ele>
        <time>2018-07-10T11:11:12Z</time>
      </trkpt>
      <trkpt lat="46.125452890992165" lon="10.508075337857008">
        <ele>2306.3400000000001</ele>
        <time>2018-07-10T11:11:32Z</time>
      </trkpt>
      <trkpt lat="46.125449454411864" lon="10.508064357563853">
        <ele>2306.3400000000001</ele>
        <time>2018-07-10T11:11:43Z</time>
      </trkpt>
      <trkpt lat="46.125468062236905" lon="10.508070727810264">
        <ele>2306.8200000000002</ele>
        <time>2018-07-10T11:11:53Z</time>
      </trkpt>
      <trkpt lat="46.125459931790829" lon="10.508055556565523">
        <ele>2306.3400000000001</ele>
        <time>2018-07-10T11:12:09Z</time>
      </trkpt>
      <trkpt lat="46.125453813001513" lon="10.508044743910432">
        <ele>2306.3400000000001</ele>
        <time>2018-07-10T11:12:22Z</time>
      </trkpt>
      <trkpt lat="46.125430762767792" lon="10.508031249046326">
        <ele>2306.8200000000002</ele>
        <time>2018-07-10T11:12:35Z</time>
      </trkpt>
      <trkpt lat="46.125423470512033" lon="10.507993446663022">
        <ele>2306.3400000000001</ele>
        <time>2018-07-10T11:12:50Z</time>
      </trkpt>
      <trkpt lat="46.125440653413534" lon="10.507905436679721">
        <ele>2304.9000000000001</ele>
        <time>2018-07-10T11:13:00Z</time>
      </trkpt>
      <trkpt lat="46.125443754717708" lon="10.507896887138486">
        <ele>2304.4200000000001</ele>
        <time>2018-07-10T11:13:01Z</time>
      </trkpt>
      <trkpt lat="46.125486083328724" lon="10.507745845243335">
        <ele>2303.46</ele>
        <time>2018-07-10T11:13:13Z</time>
      </trkpt>
      <trkpt lat="46.125465547665954" lon="10.507702175527811">
        <ele>2302.4899999999998</ele>
        <time>2018-07-10T11:13:19Z</time>
      </trkpt>
      <trkpt lat="46.12543947994709" lon="10.507688093930483">
        <ele>2301.5300000000002</ele>
        <time>2018-07-10T11:13:30Z</time>
      </trkpt>
      <trkpt lat="46.125399330630898" lon="10.507648112252355">
        <ele>2300.0900000000001</ele>
        <time>2018-07-10T11:13:41Z</time>
      </trkpt>
      <trkpt lat="46.125334873795509" lon="10.507551217451692">
        <ele>2298.1700000000001</ele>
        <time>2018-07-10T11:13:53Z</time>
      </trkpt>
      <trkpt lat="46.125261364504695" lon="10.507461447268724">
        <ele>2296.73</ele>
        <time>2018-07-10T11:14:03Z</time>
      </trkpt>
      <trkpt lat="46.125183999538422" lon="10.507440492510796">
        <ele>2293.8400000000001</ele>
        <time>2018-07-10T11:14:13Z</time>
      </trkpt>
      <trkpt lat="46.125163547694683" lon="10.507460022345185">
        <ele>2292.8800000000001</ele>
        <time>2018-07-10T11:14:16Z</time>
      </trkpt>
      <trkpt lat="46.125121721997857" lon="10.507295317947865">
        <ele>2290.48</ele>
        <time>2018-07-10T11:14:27Z</time>
      </trkpt>
      <trkpt lat="46.125098504126072" lon="10.50718953832984">
        <ele>2289.52</ele>
        <time>2018-07-10T11:14:34Z</time>
      </trkpt>
      <trkpt lat="46.125088864937425" lon="10.507143437862396">
        <ele>2288.5599999999999</ele>
        <time>2018-07-10T11:14:38Z</time>
      </trkpt>
      <trkpt lat="46.125068413093686" lon="10.50706984475255">
        <ele>2287.1100000000001</ele>
        <time>2018-07-10T11:14:43Z</time>
      </trkpt>
      <trkpt lat="46.12504075281322" lon="10.507038412615657">
        <ele>2285.6700000000001</ele>
        <time>2018-07-10T11:14:48Z</time>
      </trkpt>
      <trkpt lat="46.12500999122858" lon="10.506999520584941">
        <ele>2284.71</ele>
        <time>2018-07-10T11:14:52Z</time>
      </trkpt>
      <trkpt lat="46.124982414767146" lon="10.506880916655064">
        <ele>2282.3099999999999</ele>
        <time>2018-07-10T11:15:01Z</time>
      </trkpt>
      <trkpt lat="46.124923573806882" lon="10.506833726540208">
        <ele>2281.3499999999999</ele>
        <time>2018-07-10T11:15:07Z</time>
      </trkpt>
      <trkpt lat="46.124866493046284" lon="10.50668285228312">
        <ele>2279.9000000000001</ele>
        <time>2018-07-10T11:15:18Z</time>
      </trkpt>
      <trkpt lat="46.124842101708055" lon="10.506599452346563">
        <ele>2277.98</ele>
        <time>2018-07-10T11:15:27Z</time>
      </trkpt>
      <trkpt lat="46.124835731461644" lon="10.506568858399987">
        <ele>2277.5</ele>
        <time>2018-07-10T11:15:33Z</time>
      </trkpt>
      <trkpt lat="46.124791894108057" lon="10.50656852312386">
        <ele>2276.54</ele>
        <time>2018-07-10T11:15:37Z</time>
      </trkpt>
      <trkpt lat="46.124693909659982" lon="10.506494762375951">
        <ele>2274.6199999999999</ele>
        <time>2018-07-10T11:15:48Z</time>
      </trkpt>
      <trkpt lat="46.124701453372836" lon="10.506436759606004">
        <ele>2274.1399999999999</ele>
        <time>2018-07-10T11:15:52Z</time>
      </trkpt>
      <trkpt lat="46.12469089217484" lon="10.506415385752916">
        <ele>2273.6599999999999</ele>
        <time>2018-07-10T11:15:54Z</time>
      </trkpt>
      <trkpt lat="46.124631380662322" lon="10.506317149847746">
        <ele>2272.21</ele>
        <time>2018-07-10T11:16:05Z</time>
      </trkpt>
      <trkpt lat="46.12459072843194" lon="10.506268702447414">
        <ele>2270.77</ele>
        <time>2018-07-10T11:16:11Z</time>
      </trkpt>
      <trkpt lat="46.124567342922091" lon="10.506215477362275">
        <ele>2270.77</ele>
        <time>2018-07-10T11:16:17Z</time>
      </trkpt>
      <trkpt lat="46.124550411477685" lon="10.506137777119875">
        <ele>2269.3299999999999</ele>
        <time>2018-07-10T11:16:27Z</time>
      </trkpt>
      <trkpt lat="46.124543454498053" lon="10.50616049207747">
        <ele>2269.3299999999999</ele>
        <time>2018-07-10T11:16:29Z</time>
      </trkpt>
      <trkpt lat="46.124513698741794" lon="10.506168538704515">
        <ele>2268.8499999999999</ele>
        <time>2018-07-10T11:16:32Z</time>
      </trkpt>
      <trkpt lat="46.124471621587873" lon="10.506038703024387">
        <ele>2267.4099999999999</ele>
        <time>2018-07-10T11:16:42Z</time>
      </trkpt>
      <trkpt lat="46.124428035691381" lon="10.505969887599349">
        <ele>2266.4499999999998</ele>
        <time>2018-07-10T11:16:48Z</time>
      </trkpt>
      <trkpt lat="46.124359555542469" lon="10.50583359785378">
        <ele>2264.04</ele>
        <time>2018-07-10T11:16:59Z</time>
      </trkpt>
      <trkpt lat="46.12434052862227" lon="10.505761513486505">
        <ele>2264.52</ele>
        <time>2018-07-10T11:17:05Z</time>
      </trkpt>
      <trkpt lat="46.124327033758163" lon="10.505737122148275">
        <ele>2264.04</ele>
        <time>2018-07-10T11:17:08Z</time>
      </trkpt>
      <trkpt lat="46.124270455911756" lon="10.505604771897197">
        <ele>2262.5999999999999</ele>
        <time>2018-07-10T11:17:18Z</time>
      </trkpt>
      <trkpt lat="46.124241705983877" lon="10.505545930936933">
        <ele>2262.1199999999999</ele>
        <time>2018-07-10T11:17:23Z</time>
      </trkpt>
      <trkpt lat="46.124225445091724" lon="10.505532771348953">
        <ele>2261.6399999999999</ele>
        <time>2018-07-10T11:17:25Z</time>
      </trkpt>
      <trkpt lat="46.124164005741477" lon="10.505488347262144">
        <ele>2260.1999999999998</ele>
        <time>2018-07-10T11:17:32Z</time>
      </trkpt>
      <trkpt lat="46.124093513935804" lon="10.505349207669497">
        <ele>2258.75</ele>
        <time>2018-07-10T11:17:43Z</time>
      </trkpt>
      <trkpt lat="46.124071134254336" lon="10.505316266790032">
        <ele>2258.75</ele>
        <time>2018-07-10T11:17:47Z</time>
      </trkpt>
      <trkpt lat="46.124047329649329" lon="10.505305957049131">
        <ele>2258.75</ele>
        <time>2018-07-10T11:17:50Z</time>
      </trkpt>
      <trkpt lat="46.12404934130609" lon="10.505233705043793">
        <ele>2258.75</ele>
        <time>2018-07-10T11:17:56Z</time>
      </trkpt>
      <trkpt lat="46.124056885018945" lon="10.505131613463163">
        <ele>2259.7199999999998</ele>
        <time>2018-07-10T11:18:05Z</time>
      </trkpt>
      <trkpt lat="46.124048167839646" lon="10.505075789988041">
        <ele>2258.75</ele>
        <time>2018-07-10T11:18:13Z</time>
      </trkpt>
      <trkpt lat="46.124070212244987" lon="10.504982834681869">
        <ele>2258.27</ele>
        <time>2018-07-10T11:18:22Z</time>
      </trkpt>
      <trkpt lat="46.124121258035302" lon="10.504912845790386">
        <ele>2256.8299999999999</ele>
        <time>2018-07-10T11:18:33Z</time>
      </trkpt>
      <trkpt lat="46.124104578047991" lon="10.504825171083212">
        <ele>2255.3899999999999</ele>
        <time>2018-07-10T11:18:43Z</time>
      </trkpt>
      <trkpt lat="46.124082114547491" lon="10.504740010946989">
        <ele>2254.4299999999998</ele>
        <time>2018-07-10T11:18:52Z</time>
      </trkpt>
      <trkpt lat="46.124014053493738" lon="10.50462325103581">
        <ele>2253.9499999999998</ele>
        <time>2018-07-10T11:19:04Z</time>
      </trkpt>
      <trkpt lat="46.124008940532804" lon="10.50451185554266">
        <ele>2253.9499999999998</ele>
        <time>2018-07-10T11:19:16Z</time>
      </trkpt>
      <trkpt lat="46.123988069593906" lon="10.504489811137319">
        <ele>2253.4699999999998</ele>
        <time>2018-07-10T11:19:28Z</time>
      </trkpt>
      <trkpt lat="46.123959487304091" lon="10.504438010975718">
        <ele>2252.9899999999998</ele>
        <time>2018-07-10T11:19:36Z</time>
      </trkpt>
      <trkpt lat="46.123949512839317" lon="10.504411775618792">
        <ele>2252.9899999999998</ele>
        <time>2018-07-10T11:19:46Z</time>
      </trkpt>
      <trkpt lat="46.123939706012607" lon="10.50432376563549">
        <ele>2252.0300000000002</ele>
        <time>2018-07-10T11:19:55Z</time>
      </trkpt>
      <trkpt lat="46.123913135379553" lon="10.504301218315959">
        <ele>2251.54</ele>
        <time>2018-07-10T11:19:59Z</time>
      </trkpt>
      <trkpt lat="46.123914644122124" lon="10.504230810329318">
        <ele>2251.54</ele>
        <time>2018-07-10T11:20:04Z</time>
      </trkpt>
      <trkpt lat="46.123919673264027" lon="10.504189906641841">
        <ele>2251.0599999999999</ele>
        <time>2018-07-10T11:20:07Z</time>
      </trkpt>
      <trkpt lat="46.123884972184896" lon="10.504078175872564">
        <ele>2251.0599999999999</ele>
        <time>2018-07-10T11:20:15Z</time>
      </trkpt>
      <trkpt lat="46.123834261670709" lon="10.503866448998451">
        <ele>2250.5799999999999</ele>
        <time>2018-07-10T11:20:29Z</time>
      </trkpt>
      <trkpt lat="46.12377910874784" lon="10.503687579184771">
        <ele>2249.6199999999999</ele>
        <time>2018-07-10T11:20:41Z</time>
      </trkpt>
      <trkpt lat="46.123733427375555" lon="10.503484988585114">
        <ele>2249.6199999999999</ele>
        <time>2018-07-10T11:20:55Z</time>
      </trkpt>
      <trkpt lat="46.123727727681398" lon="10.503318188712001">
        <ele>2248.6599999999999</ele>
        <time>2018-07-10T11:21:05Z</time>
      </trkpt>
      <trkpt lat="46.123728482052684" lon="10.503184078261256">
        <ele>2249.1399999999999</ele>
        <time>2018-07-10T11:21:13Z</time>
      </trkpt>
      <trkpt lat="46.123766619712114" lon="10.502982661128044">
        <ele>2248.6599999999999</ele>
        <time>2018-07-10T11:21:25Z</time>
      </trkpt>
      <trkpt lat="46.123778270557523" lon="10.502937734127045">
        <ele>2249.1399999999999</ele>
        <time>2018-07-10T11:21:28Z</time>
      </trkpt>
      <trkpt lat="46.123857898637652" lon="10.502798007801175">
        <ele>2248.1799999999998</ele>
        <time>2018-07-10T11:21:39Z</time>
      </trkpt>
      <trkpt lat="46.123893186450005" lon="10.50271812826395">
        <ele>2248.6599999999999</ele>
        <time>2018-07-10T11:21:45Z</time>
      </trkpt>
      <trkpt lat="46.123911291360855" lon="10.50262869335711">
        <ele>2247.6999999999998</ele>
        <time>2018-07-10T11:21:52Z</time>
      </trkpt>
      <trkpt lat="46.123918499797583" lon="10.502470526844263">
        <ele>2247.6999999999998</ele>
        <time>2018-07-10T11:22:03Z</time>
      </trkpt>
      <trkpt lat="46.123931240290403" lon="10.502419983968139">
        <ele>2247.6999999999998</ele>
        <time>2018-07-10T11:22:09Z</time>
      </trkpt>
      <trkpt lat="46.123962253332138" lon="10.502398191019893">
        <ele>2247.2199999999998</ele>
        <time>2018-07-10T11:22:17Z</time>
      </trkpt>
      <trkpt lat="46.123962923884392" lon="10.502323089167476">
        <ele>2247.6999999999998</ele>
        <time>2018-07-10T11:22:26Z</time>
      </trkpt>
      <trkpt lat="46.123998127877712" lon="10.502248741686344">
        <ele>2247.2199999999998</ele>
        <time>2018-07-10T11:22:34Z</time>
      </trkpt>
      <trkpt lat="46.124000642448664" lon="10.502231474965811">
        <ele>2247.6999999999998</ele>
        <time>2018-07-10T11:22:39Z</time>
      </trkpt>
      <trkpt lat="46.124023692682385" lon="10.502184871584177">
        <ele>2247.6999999999998</ele>
        <time>2018-07-10T11:22:44Z</time>
      </trkpt>
      <trkpt lat="46.124034421518445" lon="10.502166263759136">
        <ele>2247.6999999999998</ele>
        <time>2018-07-10T11:22:46Z</time>
      </trkpt>
      <trkpt lat="46.124057807028294" lon="10.50210976973176">
        <ele>2247.2199999999998</ele>
        <time>2018-07-10T11:22:55Z</time>
      </trkpt>
      <trkpt lat="46.124076163396239" lon="10.502120414748788">
        <ele>2246.7399999999998</ele>
        <time>2018-07-10T11:23:16Z</time>
      </trkpt>
      <trkpt lat="46.12407230772078" lon="10.502157127484679">
        <ele>2246.7399999999998</ele>
        <time>2018-07-10T11:23:24Z</time>
      </trkpt>
      <trkpt lat="46.124021178111434" lon="10.502124857157469">
        <ele>2245.7800000000002</ele>
        <time>2018-07-10T11:23:36Z</time>
      </trkpt>
      <trkpt lat="46.124015394598246" lon="10.502120247110724">
        <ele>2246.2600000000002</ele>
        <time>2018-07-10T11:23:37Z</time>
      </trkpt>
      <trkpt lat="46.123931994661689" lon="10.50196023657918">
        <ele>2245.7800000000002</ele>
        <time>2018-07-10T11:23:49Z</time>
      </trkpt>
      <trkpt lat="46.12386460416019" lon="10.501950094476342">
        <ele>2244.8200000000002</ele>
        <time>2018-07-10T11:23:56Z</time>
      </trkpt>
      <trkpt lat="46.123737869784236" lon="10.5019436404109">
        <ele>2244.8200000000002</ele>
        <time>2018-07-10T11:24:08Z</time>
      </trkpt>
      <trkpt lat="46.123633850365877" lon="10.50192947499454">
        <ele>2243.8499999999999</ele>
        <time>2018-07-10T11:24:19Z</time>
      </trkpt>
      <trkpt lat="46.123573919758201" lon="10.501905670389533">
        <ele>2243.8499999999999</ele>
        <time>2018-07-10T11:24:25Z</time>
      </trkpt>
      <trkpt lat="46.123526310548186" lon="10.501803327351809">
        <ele>2244.8200000000002</ele>
        <time>2018-07-10T11:24:34Z</time>
      </trkpt>
      <trkpt lat="46.123502254486084" lon="10.501709366217256">
        <ele>2243.8499999999999</ele>
        <time>2018-07-10T11:24:44Z</time>
      </trkpt>
      <trkpt lat="46.123548354953527" lon="10.501695116981864">
        <ele>2244.3299999999999</ele>
        <time>2018-07-10T11:24:54Z</time>
      </trkpt>
      <trkpt lat="46.123550869524479" lon="10.501661757007241">
        <ele>2244.3299999999999</ele>
        <time>2018-07-10T11:25:05Z</time>
      </trkpt>
      <trkpt lat="46.123556904494762" lon="10.501624122262001">
        <ele>2244.3299999999999</ele>
        <time>2018-07-10T11:25:21Z</time>
      </trkpt>
      <trkpt lat="46.123562939465046" lon="10.501632923260331">
        <ele>2244.3299999999999</ele>
        <time>2018-07-10T11:25:34Z</time>
      </trkpt>
      <trkpt lat="46.123545672744513" lon="10.501625631004572">
        <ele>2243.8499999999999</ele>
        <time>2018-07-10T11:25:46Z</time>
      </trkpt>
      <trkpt lat="46.123531674966216" lon="10.501591265201569">
        <ele>2243.3699999999999</ele>
        <time>2018-07-10T11:25:59Z</time>
      </trkpt>
      <trkpt lat="46.123520275577903" lon="10.501573327928782">
        <ele>2243.8499999999999</ele>
        <time>2018-07-10T11:26:10Z</time>
      </trkpt>
      <trkpt lat="46.123459255322814" lon="10.501514906063676">
        <ele>2243.8499999999999</ele>
        <time>2018-07-10T11:26:28Z</time>
      </trkpt>
      <trkpt lat="46.12349035218358" lon="10.501480540260673">
        <ele>2243.8499999999999</ele>
        <time>2018-07-10T11:26:46Z</time>
      </trkpt>
      <trkpt lat="46.12351474352181" lon="10.501513313502073">
        <ele>2244.3299999999999</ele>
        <time>2018-07-10T11:27:03Z</time>
      </trkpt>
      <trkpt lat="46.123514324426651" lon="10.501524545252323">
        <ele>2244.3299999999999</ele>
        <time>2018-07-10T11:27:19Z</time>
      </trkpt>
      <trkpt lat="46.12347811460495" lon="10.501466291025281">
        <ele>2244.8200000000002</ele>
        <time>2018-07-10T11:27:48Z</time>
      </trkpt>
      <trkpt lat="46.1234634462744" lon="10.501457238569856">
        <ele>2244.8200000000002</ele>
        <time>2018-07-10T11:28:13Z</time>
      </trkpt>
      <trkpt lat="46.123460261151195" lon="10.501474589109421">
        <ele>2244.8200000000002</ele>
        <time>2018-07-10T11:28:34Z</time>
      </trkpt>
      <trkpt lat="46.123457243666053" lon="10.501497890800238">
        <ele>2245.3000000000002</ele>
        <time>2018-07-10T11:28:56Z</time>
      </trkpt>
      <trkpt lat="46.123459003865719" lon="10.501501746475697">
        <ele>2245.3000000000002</ele>
        <time>2018-07-10T11:29:16Z</time>
      </trkpt>
      <trkpt lat="46.123464284464717" lon="10.501517336815596">
        <ele>2245.3000000000002</ele>
        <time>2018-07-10T11:29:40Z</time>
      </trkpt>
      <trkpt lat="46.123451376333833" lon="10.501499902456999">
        <ele>2245.3000000000002</ele>
        <time>2018-07-10T11:30:03Z</time>
      </trkpt>
      <trkpt lat="46.123463110998273" lon="10.501491017639637">
        <ele>2245.7800000000002</ele>
        <time>2018-07-10T11:30:21Z</time>
      </trkpt>
      <trkpt lat="46.123458836227655" lon="10.501418262720108">
        <ele>2245.7800000000002</ele>
        <time>2018-07-10T11:30:49Z</time>
      </trkpt>
      <trkpt lat="46.123464116826653" lon="10.501451874151826">
        <ele>2246.2600000000002</ele>
        <time>2018-07-10T11:31:05Z</time>
      </trkpt>
      <trkpt lat="46.123486747965217" lon="10.501469057053328">
        <ele>2246.2600000000002</ele>
        <time>2018-07-10T11:31:31Z</time>
      </trkpt>
      <trkpt lat="46.123501248657703" lon="10.501420693472028">
        <ele>2246.7399999999998</ele>
        <time>2018-07-10T11:31:51Z</time>
      </trkpt>
      <trkpt lat="46.123509295284748" lon="10.501463357359171">
        <ele>2246.7399999999998</ele>
        <time>2018-07-10T11:32:07Z</time>
      </trkpt>
    </trkseg>
  </trk>

  <trk>
    <name>5adamello2018-07-11</name>
    <extensions>
      <gpxx:TrackExtension>
        <gpxx:DisplayColor>Yellow</gpxx:DisplayColor>
      </gpxx:TrackExtension>
      <gpxtrkx:TrackStatsExtension xmlns:gpxtrkx="http://www.garmin.com/xmlschemas/TrackStatsExtension/v1">
        <gpxtrkx:Distance>13116</gpxtrkx:Distance>
        <gpxtrkx:TotalElapsedTime>29367</gpxtrkx:TotalElapsedTime>
        <gpxtrkx:MovingTime>19333</gpxtrkx:MovingTime>
        <gpxtrkx:StoppedTime>10021</gpxtrkx:StoppedTime>
        <gpxtrkx:MovingSpeed>1</gpxtrkx:MovingSpeed>
        <gpxtrkx:MaxSpeed>2</gpxtrkx:MaxSpeed>
        <gpxtrkx:MaxElevation>2830</gpxtrkx:MaxElevation>
        <gpxtrkx:MinElevation>2098</gpxtrkx:MinElevation>
        <gpxtrkx:Ascent>1079</gpxtrkx:Ascent>
        <gpxtrkx:Descent>876</gpxtrkx:Descent>
        <gpxtrkx:AvgAscentRate>0</gpxtrkx:AvgAscentRate>
        <gpxtrkx:MaxAscentRate>0</gpxtrkx:MaxAscentRate>
        <gpxtrkx:AvgDescentRate>0</gpxtrkx:AvgDescentRate>
        <gpxtrkx:MaxDescentRate>-0</gpxtrkx:MaxDescentRate>
      </gpxtrkx:TrackStatsExtension>
    </extensions>
    <trkseg>
      <trkpt lat="46.123569728806615" lon="10.501578189432621">
        <ele>2245.7800000000002</ele>
        <time>2018-07-11T06:00:32Z</time>
      </trkpt>
      <trkpt lat="46.123565705493093" lon="10.501584894955158">
        <ele>2245.7800000000002</ele>
        <time>2018-07-11T06:00:33Z</time>
      </trkpt>
      <trkpt lat="46.123561933636665" lon="10.501591265201569">
        <ele>2249.6199999999999</ele>
        <time>2018-07-11T06:00:36Z</time>
      </trkpt>
      <trkpt lat="46.123557155951858" lon="10.501592103391886">
        <ele>2249.6199999999999</ele>
        <time>2018-07-11T06:00:37Z</time>
      </trkpt>
      <trkpt lat="46.12360124476254" lon="10.501569891348481">
        <ele>2250.0999999999999</ele>
        <time>2018-07-11T06:00:55Z</time>
      </trkpt>
      <trkpt lat="46.123576182872057" lon="10.501586068421602">
        <ele>2249.6199999999999</ele>
        <time>2018-07-11T06:01:05Z</time>
      </trkpt>
      <trkpt lat="46.123547432944179" lon="10.501586152240634">
        <ele>2249.1399999999999</ele>
        <time>2018-07-11T06:01:22Z</time>
      </trkpt>
      <trkpt lat="46.123547935858369" lon="10.501589840278029">
        <ele>2249.1399999999999</ele>
        <time>2018-07-11T06:01:37Z</time>
      </trkpt>
      <trkpt lat="46.123520024120808" lon="10.501588331535459">
        <ele>2249.1399999999999</ele>
        <time>2018-07-11T06:01:45Z</time>
      </trkpt>
      <trkpt lat="46.123514324426651" lon="10.501585984602571">
        <ele>2249.1399999999999</ele>
        <time>2018-07-11T06:01:59Z</time>
      </trkpt>
      <trkpt lat="46.123527903109789" lon="10.501575507223606">
        <ele>2249.1399999999999</ele>
        <time>2018-07-11T06:02:08Z</time>
      </trkpt>
      <trkpt lat="46.123500494286418" lon="10.501559916883707">
        <ele>2249.1399999999999</ele>
        <time>2018-07-11T06:02:21Z</time>
      </trkpt>
      <trkpt lat="46.123446263372898" lon="10.501618254929781">
        <ele>2249.1399999999999</ele>
        <time>2018-07-11T06:02:32Z</time>
      </trkpt>
      <trkpt lat="46.123437630012631" lon="10.501723699271679">
        <ele>2249.1399999999999</ele>
        <time>2018-07-11T06:02:42Z</time>
      </trkpt>
      <trkpt lat="46.123672407120466" lon="10.501915561035275">
        <ele>2249.6199999999999</ele>
        <time>2018-07-11T06:02:56Z</time>
      </trkpt>
      <trkpt lat="46.123673832044005" lon="10.501891421154141">
        <ele>2248.6599999999999</ele>
        <time>2018-07-11T06:03:07Z</time>
      </trkpt>
      <trkpt lat="46.123723285272717" lon="10.501882284879684">
        <ele>2248.6599999999999</ele>
        <time>2018-07-11T06:03:16Z</time>
      </trkpt>
      <trkpt lat="46.12379863858223" lon="10.501871472224593">
        <ele>2248.6599999999999</ele>
        <time>2018-07-11T06:03:22Z</time>
      </trkpt>
      <trkpt lat="46.123891258612275" lon="10.501923942938447">
        <ele>2249.1399999999999</ele>
        <time>2018-07-11T06:03:35Z</time>
      </trkpt>
      <trkpt lat="46.123968539759517" lon="10.501935677602887">
        <ele>2249.6199999999999</ele>
        <time>2018-07-11T06:03:42Z</time>
      </trkpt>
      <trkpt lat="46.124025117605925" lon="10.502066854387522">
        <ele>2249.6199999999999</ele>
        <time>2018-07-11T06:03:51Z</time>
      </trkpt>
      <trkpt lat="46.12412067130208" lon="10.502156456932425">
        <ele>2250.5799999999999</ele>
        <time>2018-07-11T06:04:04Z</time>
      </trkpt>
      <trkpt lat="46.124157384037971" lon="10.5022182315588">
        <ele>2251.0599999999999</ele>
        <time>2018-07-11T06:04:15Z</time>
      </trkpt>
      <trkpt lat="46.124232737347484" lon="10.50234136171639">
        <ele>2251.0599999999999</ele>
        <time>2018-07-11T06:04:26Z</time>
      </trkpt>
      <trkpt lat="46.12431219778955" lon="10.502366591244936">
        <ele>2251.54</ele>
        <time>2018-07-11T06:04:39Z</time>
      </trkpt>
      <trkpt lat="46.124325692653656" lon="10.502362316474319">
        <ele>2251.0599999999999</ele>
        <time>2018-07-11T06:04:46Z</time>
      </trkpt>
      <trkpt lat="46.124423341825604" lon="10.502374051138759">
        <ele>2251.54</ele>
        <time>2018-07-11T06:04:56Z</time>
      </trkpt>
      <trkpt lat="46.124418899416924" lon="10.502342116087675">
        <ele>2251.54</ele>
        <time>2018-07-11T06:04:58Z</time>
      </trkpt>
      <trkpt lat="46.124393166974187" lon="10.502273803576827">
        <ele>2251.54</ele>
        <time>2018-07-11T06:05:03Z</time>
      </trkpt>
      <trkpt lat="46.124468185007572" lon="10.502232732251287">
        <ele>2252.5100000000002</ele>
        <time>2018-07-11T06:05:12Z</time>
      </trkpt>
      <trkpt lat="46.124518560245633" lon="10.502162575721741">
        <ele>2252.9899999999998</ele>
        <time>2018-07-11T06:05:20Z</time>
      </trkpt>
      <trkpt lat="46.124525684863329" lon="10.502119660377502">
        <ele>2252.9899999999998</ele>
        <time>2018-07-11T06:05:23Z</time>
      </trkpt>
      <trkpt lat="46.124513112008572" lon="10.501991249620914">
        <ele>2253.4699999999998</ele>
        <time>2018-07-11T06:05:35Z</time>
      </trkpt>
      <trkpt lat="46.124526103958488" lon="10.501988651230931">
        <ele>2253.4699999999998</ele>
        <time>2018-07-11T06:05:52Z</time>
      </trkpt>
      <trkpt lat="46.124517805874348" lon="10.501902485266328">
        <ele>2253.9499999999998</ele>
        <time>2018-07-11T06:05:59Z</time>
      </trkpt>
      <trkpt lat="46.124594248831272" lon="10.501808607950807">
        <ele>2254.9099999999999</ele>
        <time>2018-07-11T06:06:10Z</time>
      </trkpt>
      <trkpt lat="46.124604977667332" lon="10.501815229654312">
        <ele>2255.3899999999999</ele>
        <time>2018-07-11T06:06:11Z</time>
      </trkpt>
      <trkpt lat="46.124746296554804" lon="10.501856217160821">
        <ele>2256.8299999999999</ele>
        <time>2018-07-11T06:06:25Z</time>
      </trkpt>
      <trkpt lat="46.124774962663651" lon="10.501872478052974">
        <ele>2257.3099999999999</ele>
        <time>2018-07-11T06:06:27Z</time>
      </trkpt>
      <trkpt lat="46.124844029545784" lon="10.501951351761818">
        <ele>2256.3499999999999</ele>
        <time>2018-07-11T06:06:36Z</time>
      </trkpt>
      <trkpt lat="46.124904463067651" lon="10.50200130790472">
        <ele>2256.8299999999999</ele>
        <time>2018-07-11T06:06:43Z</time>
      </trkpt>
      <trkpt lat="46.124924663454294" lon="10.502007007598877">
        <ele>2256.8299999999999</ele>
        <time>2018-07-11T06:06:45Z</time>
      </trkpt>
      <trkpt lat="46.124956933781505" lon="10.502036260440946">
        <ele>2256.8299999999999</ele>
        <time>2018-07-11T06:06:49Z</time>
      </trkpt>
      <trkpt lat="46.125045865774155" lon="10.502084456384182">
        <ele>2257.79</ele>
        <time>2018-07-11T06:07:01Z</time>
      </trkpt>
      <trkpt lat="46.125091798603535" lon="10.502122258767486">
        <ele>2259.2399999999998</ele>
        <time>2018-07-11T06:07:12Z</time>
      </trkpt>
      <trkpt lat="46.125114681199193" lon="10.50211613997817">
        <ele>2259.7199999999998</ele>
        <time>2018-07-11T06:07:24Z</time>
      </trkpt>
      <trkpt lat="46.125130774453282" lon="10.50208730623126">
        <ele>2261.6399999999999</ele>
        <time>2018-07-11T06:07:34Z</time>
      </trkpt>
      <trkpt lat="46.125157680362463" lon="10.502067105844617">
        <ele>2262.1199999999999</ele>
        <time>2018-07-11T06:07:48Z</time>
      </trkpt>
      <trkpt lat="46.125176372006536" lon="10.502075823023915">
        <ele>2262.5999999999999</ele>
        <time>2018-07-11T06:07:58Z</time>
      </trkpt>
      <trkpt lat="46.125219957903028" lon="10.502078589051962">
        <ele>2263.5599999999999</ele>
        <time>2018-07-11T06:08:11Z</time>
      </trkpt>
      <trkpt lat="46.125229597091675" lon="10.502085462212563">
        <ele>2263.5599999999999</ele>
        <time>2018-07-11T06:08:13Z</time>
      </trkpt>
      <trkpt lat="46.125281313434243" lon="10.50213323906064">
        <ele>2264.04</ele>
        <time>2018-07-11T06:08:21Z</time>
      </trkpt>
      <trkpt lat="46.125329174101353" lon="10.502165341749787">
        <ele>2265</ele>
        <time>2018-07-11T06:08:31Z</time>
      </trkpt>
      <trkpt lat="46.125365300104022" lon="10.50218353047967">
        <ele>2265</ele>
        <time>2018-07-11T06:08:42Z</time>
      </trkpt>
      <trkpt lat="46.125370245426893" lon="10.502171460539103">
        <ele>2265</ele>
        <time>2018-07-11T06:08:53Z</time>
      </trkpt>
      <trkpt lat="46.125303609296679" lon="10.502180177718401">
        <ele>2264.52</ele>
        <time>2018-07-11T06:09:05Z</time>
      </trkpt>
      <trkpt lat="46.125291120260954" lon="10.50220113247633">
        <ele>2264.04</ele>
        <time>2018-07-11T06:09:25Z</time>
      </trkpt>
      <trkpt lat="46.125302100554109" lon="10.502213705331087">
        <ele>2264.52</ele>
        <time>2018-07-11T06:09:45Z</time>
      </trkpt>
      <trkpt lat="46.125311069190502" lon="10.502158384770155">
        <ele>2264.52</ele>
        <time>2018-07-11T06:10:00Z</time>
      </trkpt>
      <trkpt lat="46.125316265970469" lon="10.502157295122743">
        <ele>2264.52</ele>
        <time>2018-07-11T06:10:07Z</time>
      </trkpt>
      <trkpt lat="46.125300340354443" lon="10.502173136919737">
        <ele>2264.52</ele>
        <time>2018-07-11T06:10:21Z</time>
      </trkpt>
      <trkpt lat="46.125331185758114" lon="10.502140698954463">
        <ele>2265</ele>
        <time>2018-07-11T06:10:35Z</time>
      </trkpt>
      <trkpt lat="46.12537938170135" lon="10.502138352021575">
        <ele>2265.96</ele>
        <time>2018-07-11T06:10:43Z</time>
      </trkpt>
      <trkpt lat="46.125418189913034" lon="10.502106500789523">
        <ele>2267.4099999999999</ele>
        <time>2018-07-11T06:10:52Z</time>
      </trkpt>
      <trkpt lat="46.125452388077974" lon="10.502086887136102">
        <ele>2268.8499999999999</ele>
        <time>2018-07-11T06:11:01Z</time>
      </trkpt>
      <trkpt lat="46.125488765537739" lon="10.502033326774836">
        <ele>2269.8099999999999</ele>
        <time>2018-07-11T06:11:11Z</time>
      </trkpt>
      <trkpt lat="46.125502930954099" lon="10.501998960971832">
        <ele>2270.77</ele>
        <time>2018-07-11T06:11:17Z</time>
      </trkpt>
      <trkpt lat="46.12548591569066" lon="10.501927966251969">
        <ele>2271.25</ele>
        <time>2018-07-11T06:11:27Z</time>
      </trkpt>
      <trkpt lat="46.125504020601511" lon="10.501898964866996">
        <ele>2272.6900000000001</ele>
        <time>2018-07-11T06:11:39Z</time>
      </trkpt>
      <trkpt lat="46.125570992007852" lon="10.501958141103387">
        <ele>2272.6900000000001</ele>
        <time>2018-07-11T06:11:48Z</time>
      </trkpt>
      <trkpt lat="46.125591695308685" lon="10.501968031749129">
        <ele>2273.6599999999999</ele>
        <time>2018-07-11T06:11:56Z</time>
      </trkpt>
      <trkpt lat="46.125631090253592" lon="10.501956883817911">
        <ele>2275.0999999999999</ele>
        <time>2018-07-11T06:12:06Z</time>
      </trkpt>
      <trkpt lat="46.125669898465276" lon="10.501961158588529">
        <ele>2276.0599999999999</ele>
        <time>2018-07-11T06:12:16Z</time>
      </trkpt>
      <trkpt lat="46.125666294246912" lon="10.501910112798214">
        <ele>2277.98</ele>
        <time>2018-07-11T06:12:28Z</time>
      </trkpt>
      <trkpt lat="46.125670652836561" lon="10.501855295151472">
        <ele>2278.46</ele>
        <time>2018-07-11T06:12:36Z</time>
      </trkpt>
      <trkpt lat="46.12567400559783" lon="10.501783965155482">
        <ele>2279.9000000000001</ele>
        <time>2018-07-11T06:12:48Z</time>
      </trkpt>
      <trkpt lat="46.125704934820533" lon="10.501771476119757">
        <ele>2281.3499999999999</ele>
        <time>2018-07-11T06:12:59Z</time>
      </trkpt>
      <trkpt lat="46.125755310058594" lon="10.501785641536117">
        <ele>2281.8299999999999</ele>
        <time>2018-07-11T06:13:08Z</time>
      </trkpt>
      <trkpt lat="46.12579227425158" lon="10.501771224662662">
        <ele>2283.27</ele>
        <time>2018-07-11T06:13:17Z</time>
      </trkpt>
      <trkpt lat="46.125823454931378" lon="10.501755718141794">
        <ele>2284.23</ele>
        <time>2018-07-11T06:13:27Z</time>
      </trkpt>
      <trkpt lat="46.125870058313012" lon="10.501745492219925">
        <ele>2285.6700000000001</ele>
        <time>2018-07-11T06:13:36Z</time>
      </trkpt>
      <trkpt lat="46.125913141295314" lon="10.501756053417921">
        <ele>2286.6300000000001</ele>
        <time>2018-07-11T06:13:46Z</time>
      </trkpt>
      <trkpt lat="46.125929150730371" lon="10.501723531633615">
        <ele>2288.0799999999999</ele>
        <time>2018-07-11T06:13:57Z</time>
      </trkpt>
      <trkpt lat="46.125970557332039" lon="10.501714982092381">
        <ele>2289.04</ele>
        <time>2018-07-11T06:14:07Z</time>
      </trkpt>
      <trkpt lat="46.125987321138382" lon="10.501651363447309">
        <ele>2290.48</ele>
        <time>2018-07-11T06:14:20Z</time>
      </trkpt>
      <trkpt lat="46.125991512089968" lon="10.501628229394555">
        <ele>2291.4400000000001</ele>
        <time>2018-07-11T06:14:29Z</time>
      </trkpt>
      <trkpt lat="46.125977681949735" lon="10.50158841535449">
        <ele>2292.8800000000001</ele>
        <time>2018-07-11T06:14:38Z</time>
      </trkpt>
      <trkpt lat="46.125963600352407" lon="10.501570394262671">
        <ele>2290</ele>
        <time>2018-07-11T06:14:46Z</time>
      </trkpt>
      <trkpt lat="46.1259725689888" lon="10.501560587435961">
        <ele>2293.3600000000001</ele>
        <time>2018-07-11T06:14:56Z</time>
      </trkpt>
      <trkpt lat="46.125975921750069" lon="10.501511301845312">
        <ele>2294.3200000000002</ele>
        <time>2018-07-11T06:15:07Z</time>
      </trkpt>
      <trkpt lat="46.125954547896981" lon="10.501468051224947">
        <ele>2295.2800000000002</ele>
        <time>2018-07-11T06:15:17Z</time>
      </trkpt>
      <trkpt lat="46.125931413844228" lon="10.501428237184882">
        <ele>2296.25</ele>
        <time>2018-07-11T06:15:26Z</time>
      </trkpt>
      <trkpt lat="46.125955134630203" lon="10.501393368467689">
        <ele>2297.6900000000001</ele>
        <time>2018-07-11T06:15:35Z</time>
      </trkpt>
      <trkpt lat="46.126048844307661" lon="10.501416502520442">
        <ele>2300.0900000000001</ele>
        <time>2018-07-11T06:15:50Z</time>
      </trkpt>
      <trkpt lat="46.126050772145391" lon="10.501392111182213">
        <ele>2301.5300000000002</ele>
        <time>2018-07-11T06:15:58Z</time>
      </trkpt>
      <trkpt lat="46.126024955883622" lon="10.501353135332465">
        <ele>2302.4899999999998</ele>
        <time>2018-07-11T06:16:08Z</time>
      </trkpt>
      <trkpt lat="46.126007437705994" lon="10.501301502808928">
        <ele>2303.9400000000001</ele>
        <time>2018-07-11T06:16:18Z</time>
      </trkpt>
      <trkpt lat="46.126008192077279" lon="10.501257246360183">
        <ele>2304.9000000000001</ele>
        <time>2018-07-11T06:16:27Z</time>
      </trkpt>
      <trkpt lat="46.126009030267596" lon="10.501235201954842">
        <ele>2305.8600000000001</ele>
        <time>2018-07-11T06:16:35Z</time>
      </trkpt>
      <trkpt lat="46.126004587858915" lon="10.501194801181555">
        <ele>2306.3400000000001</ele>
        <time>2018-07-11T06:16:44Z</time>
      </trkpt>
      <trkpt lat="46.126008275896311" lon="10.501163704320788">
        <ele>2307.7800000000002</ele>
        <time>2018-07-11T06:16:54Z</time>
      </trkpt>
      <trkpt lat="46.126015316694975" lon="10.501129673793912">
        <ele>2308.7399999999998</ele>
        <time>2018-07-11T06:17:04Z</time>
      </trkpt>
      <trkpt lat="46.126021854579449" lon="10.501089608296752">
        <ele>2309.6999999999998</ele>
        <time>2018-07-11T06:17:13Z</time>
      </trkpt>
      <trkpt lat="46.126069547608495" lon="10.501096313819289">
        <ele>2310.1900000000001</ele>
        <time>2018-07-11T06:17:25Z</time>
      </trkpt>
      <trkpt lat="46.126090586185455" lon="10.501042837277055">
        <ele>2311.1500000000001</ele>
        <time>2018-07-11T06:17:35Z</time>
      </trkpt>
      <trkpt lat="46.126078264787793" lon="10.500990618020296">
        <ele>2312.1100000000001</ele>
        <time>2018-07-11T06:17:45Z</time>
      </trkpt>
      <trkpt lat="46.126086814329028" lon="10.500946110114455">
        <ele>2313.5500000000002</ele>
        <time>2018-07-11T06:17:54Z</time>
      </trkpt>
      <trkpt lat="46.126108691096306" lon="10.5009023565799">
        <ele>2314.5100000000002</ele>
        <time>2018-07-11T06:18:03Z</time>
      </trkpt>
      <trkpt lat="46.126108272001147" lon="10.500852651894093">
        <ele>2315.9499999999998</ele>
        <time>2018-07-11T06:18:12Z</time>
      </trkpt>
      <trkpt lat="46.126148169860244" lon="10.50086472183466">
        <ele>2316.4299999999998</ele>
        <time>2018-07-11T06:18:21Z</time>
      </trkpt>
      <trkpt lat="46.12615529447794" lon="10.500830942764878">
        <ele>2317.8800000000001</ele>
        <time>2018-07-11T06:18:29Z</time>
      </trkpt>
      <trkpt lat="46.126173064112663" lon="10.500810910016298">
        <ele>2318.8400000000001</ele>
        <time>2018-07-11T06:18:37Z</time>
      </trkpt>
      <trkpt lat="46.126199886202812" lon="10.500802276656032">
        <ele>2320.2800000000002</ele>
        <time>2018-07-11T06:18:48Z</time>
      </trkpt>
      <trkpt lat="46.126217069104314" lon="10.500797582790256">
        <ele>2321.2399999999998</ele>
        <time>2018-07-11T06:18:59Z</time>
      </trkpt>
      <trkpt lat="46.126234587281942" lon="10.500786434859037">
        <ele>2322.6799999999998</ele>
        <time>2018-07-11T06:19:11Z</time>
      </trkpt>
      <trkpt lat="46.126258140429854" lon="10.500772939994931">
        <ele>2323.6399999999999</ele>
        <time>2018-07-11T06:19:20Z</time>
      </trkpt>
      <trkpt lat="46.126293009147048" lon="10.500760786235332">
        <ele>2325.0900000000001</ele>
        <time>2018-07-11T06:19:31Z</time>
      </trkpt>
      <trkpt lat="46.126343719661236" lon="10.500774281099439">
        <ele>2326.0500000000002</ele>
        <time>2018-07-11T06:19:42Z</time>
      </trkpt>
      <trkpt lat="46.126356460154057" lon="10.500726168975234">
        <ele>2327.0100000000002</ele>
        <time>2018-07-11T06:19:51Z</time>
      </trkpt>
      <trkpt lat="46.126349586993456" lon="10.500725749880075">
        <ele>2327.9699999999998</ele>
        <time>2018-07-11T06:20:06Z</time>
      </trkpt>
      <trkpt lat="46.126378169283271" lon="10.500739328563213">
        <ele>2327.0100000000002</ele>
        <time>2018-07-11T06:20:24Z</time>
      </trkpt>
      <trkpt lat="46.126374732702971" lon="10.500729437917471">
        <ele>2327.4899999999998</ele>
        <time>2018-07-11T06:20:40Z</time>
      </trkpt>
      <trkpt lat="46.126365596428514" lon="10.500712003558874">
        <ele>2327.4899999999998</ele>
        <time>2018-07-11T06:20:53Z</time>
      </trkpt>
      <trkpt lat="46.126381689682603" lon="10.500716781243682">
        <ele>2327.4899999999998</ele>
        <time>2018-07-11T06:21:04Z</time>
      </trkpt>
      <trkpt lat="46.126409433782101" lon="10.500706806778908">
        <ele>2328.9299999999998</ele>
        <time>2018-07-11T06:21:17Z</time>
      </trkpt>
      <trkpt lat="46.126411110162735" lon="10.500637069344521">
        <ele>2330.3699999999999</ele>
        <time>2018-07-11T06:21:30Z</time>
      </trkpt>
      <trkpt lat="46.126423263922334" lon="10.500583844259381">
        <ele>2332.7800000000002</ele>
        <time>2018-07-11T06:21:42Z</time>
      </trkpt>
      <trkpt lat="46.126423599198461" lon="10.50051829777658">
        <ele>2333.7399999999998</ele>
        <time>2018-07-11T06:21:52Z</time>
      </trkpt>
      <trkpt lat="46.126433406025171" lon="10.500449649989605">
        <ele>2335.1799999999998</ele>
        <time>2018-07-11T06:22:03Z</time>
      </trkpt>
      <trkpt lat="46.126443967223167" lon="10.500392653048038">
        <ele>2336.6199999999999</ele>
        <time>2018-07-11T06:22:13Z</time>
      </trkpt>
      <trkpt lat="46.126482523977757" lon="10.500405225902796">
        <ele>2338.54</ele>
        <time>2018-07-11T06:22:22Z</time>
      </trkpt>
      <trkpt lat="46.12647095695138" lon="10.500362059101462">
        <ele>2339.9899999999998</ele>
        <time>2018-07-11T06:22:33Z</time>
      </trkpt>
      <trkpt lat="46.126467352733016" lon="10.500306319445372">
        <ele>2340.9499999999998</ele>
        <time>2018-07-11T06:22:44Z</time>
      </trkpt>
      <trkpt lat="46.126465760171413" lon="10.500253597274423">
        <ele>2342.8699999999999</ele>
        <time>2018-07-11T06:22:54Z</time>
      </trkpt>
      <trkpt lat="46.126475986093283" lon="10.500207161530852">
        <ele>2343.3499999999999</ele>
        <time>2018-07-11T06:23:03Z</time>
      </trkpt>
      <trkpt lat="46.126478752121329" lon="10.500154858455062">
        <ele>2344.79</ele>
        <time>2018-07-11T06:23:12Z</time>
      </trkpt>
      <trkpt lat="46.126503814011812" lon="10.500110937282443">
        <ele>2346.23</ele>
        <time>2018-07-11T06:23:24Z</time>
      </trkpt>
      <trkpt lat="46.126561146229506" lon="10.500121247023344">
        <ele>2347.6799999999998</ele>
        <time>2018-07-11T06:23:35Z</time>
      </trkpt>
      <trkpt lat="46.126565504819155" lon="10.500058801844716">
        <ele>2349.1199999999999</ele>
        <time>2018-07-11T06:23:47Z</time>
      </trkpt>
      <trkpt lat="46.126586543396115" lon="10.500036925077438">
        <ele>2350.0799999999999</ele>
        <time>2018-07-11T06:23:56Z</time>
      </trkpt>
      <trkpt lat="46.126561649143696" lon="10.500038350000978">
        <ele>2350.5599999999999</ele>
        <time>2018-07-11T06:24:13Z</time>
      </trkpt>
      <trkpt lat="46.126568941399455" lon="10.499980514869094">
        <ele>2351.52</ele>
        <time>2018-07-11T06:24:23Z</time>
      </trkpt>
      <trkpt lat="46.126585872843862" lon="10.49993340857327">
        <ele>2353.4400000000001</ele>
        <time>2018-07-11T06:24:34Z</time>
      </trkpt>
      <trkpt lat="46.126594841480255" lon="10.49987381324172">
        <ele>2354.4099999999999</ele>
        <time>2018-07-11T06:24:43Z</time>
      </trkpt>
      <trkpt lat="46.12660682760179" lon="10.499809607863426">
        <ele>2356.3299999999999</ele>
        <time>2018-07-11T06:24:55Z</time>
      </trkpt>
      <trkpt lat="46.126608923077583" lon="10.499802147969604">
        <ele>2356.8099999999999</ele>
        <time>2018-07-11T06:25:05Z</time>
      </trkpt>
      <trkpt lat="46.126644629985094" lon="10.499807931482792">
        <ele>2358.25</ele>
        <time>2018-07-11T06:25:16Z</time>
      </trkpt>
      <trkpt lat="46.126668266952038" lon="10.499800555408001">
        <ele>2359.21</ele>
        <time>2018-07-11T06:25:25Z</time>
      </trkpt>
      <trkpt lat="46.126696094870567" lon="10.499774739146233">
        <ele>2360.6500000000001</ele>
        <time>2018-07-11T06:25:34Z</time>
      </trkpt>
      <trkpt lat="46.126671368256211" lon="10.499744983389974">
        <ele>2362.0999999999999</ele>
        <time>2018-07-11T06:25:42Z</time>
      </trkpt>
      <trkpt lat="46.1267099250108" lon="10.499746492132545">
        <ele>2363.54</ele>
        <time>2018-07-11T06:25:52Z</time>
      </trkpt>
      <trkpt lat="46.126714954152703" lon="10.49973308108747">
        <ele>2365.46</ele>
        <time>2018-07-11T06:26:02Z</time>
      </trkpt>
      <trkpt lat="46.126724341884255" lon="10.499696787446737">
        <ele>2366.9000000000001</ele>
        <time>2018-07-11T06:26:13Z</time>
      </trkpt>
      <trkpt lat="46.126756193116307" lon="10.499657560139894">
        <ele>2368.8299999999999</ele>
        <time>2018-07-11T06:26:26Z</time>
      </trkpt>
      <trkpt lat="46.126781171187758" lon="10.499631157144904">
        <ele>2370.27</ele>
        <time>2018-07-11T06:26:37Z</time>
      </trkpt>
      <trkpt lat="46.126786451786757" lon="10.499594947323203">
        <ele>2372.1900000000001</ele>
        <time>2018-07-11T06:26:47Z</time>
      </trkpt>
      <trkpt lat="46.126789301633835" lon="10.499557144939899">
        <ele>2373.6300000000001</ele>
        <time>2018-07-11T06:26:57Z</time>
      </trkpt>
      <trkpt lat="46.1268100887537" lon="10.499531244859099">
        <ele>2374.5900000000001</ele>
        <time>2018-07-11T06:27:07Z</time>
      </trkpt>
      <trkpt lat="46.126824589446187" lon="10.499504841864109">
        <ele>2376.52</ele>
        <time>2018-07-11T06:27:19Z</time>
      </trkpt>
      <trkpt lat="46.126845711842179" lon="10.499498303979635">
        <ele>2377.96</ele>
        <time>2018-07-11T06:27:30Z</time>
      </trkpt>
      <trkpt lat="46.126887537539005" lon="10.499518839642406">
        <ele>2379.4000000000001</ele>
        <time>2018-07-11T06:27:40Z</time>
      </trkpt>
      <trkpt lat="46.126881083473563" lon="10.499475253745914">
        <ele>2380.8400000000001</ele>
        <time>2018-07-11T06:27:51Z</time>
      </trkpt>
      <trkpt lat="46.126868762075901" lon="10.499438876286149">
        <ele>2381.8000000000002</ele>
        <time>2018-07-11T06:28:02Z</time>
      </trkpt>
      <trkpt lat="46.126880832016468" lon="10.499411216005683">
        <ele>2383.25</ele>
        <time>2018-07-11T06:28:12Z</time>
      </trkpt>
      <trkpt lat="46.126871025189757" lon="10.499370815232396">
        <ele>2384.6900000000001</ele>
        <time>2018-07-11T06:28:20Z</time>
      </trkpt>
      <trkpt lat="46.126888124272227" lon="10.499337874352932">
        <ele>2386.1300000000001</ele>
        <time>2018-07-11T06:28:32Z</time>
      </trkpt>
      <trkpt lat="46.126903463155031" lon="10.499309040606022">
        <ele>2387.5700000000002</ele>
        <time>2018-07-11T06:28:43Z</time>
      </trkpt>
      <trkpt lat="46.126905390992761" lon="10.499256150797009">
        <ele>2389.0100000000002</ele>
        <time>2018-07-11T06:28:53Z</time>
      </trkpt>
      <trkpt lat="46.126907737925649" lon="10.49922538921237">
        <ele>2390.46</ele>
        <time>2018-07-11T06:29:04Z</time>
      </trkpt>
      <trkpt lat="46.126884017139673" lon="10.499173002317548">
        <ele>2391.4200000000001</ele>
        <time>2018-07-11T06:29:17Z</time>
      </trkpt>
      <trkpt lat="46.126849064603448" lon="10.499144671484828">
        <ele>2392.8600000000001</ele>
        <time>2018-07-11T06:29:29Z</time>
      </trkpt>
      <trkpt lat="46.126858117058873" lon="10.49911298789084">
        <ele>2394.3000000000002</ele>
        <time>2018-07-11T06:29:39Z</time>
      </trkpt>
      <trkpt lat="46.126847136765718" lon="10.499070324003696">
        <ele>2395.7399999999998</ele>
        <time>2018-07-11T06:29:48Z</time>
      </trkpt>
      <trkpt lat="46.126830959692597" lon="10.499021792784333">
        <ele>2397.1799999999998</ele>
        <time>2018-07-11T06:29:59Z</time>
      </trkpt>
      <trkpt lat="46.126842359080911" lon="10.498995641246438">
        <ele>2397.1799999999998</ele>
        <time>2018-07-11T06:30:08Z</time>
      </trkpt>
      <trkpt lat="46.126818303018808" lon="10.498952306807041">
        <ele>2398.1500000000001</ele>
        <time>2018-07-11T06:30:17Z</time>
      </trkpt>
      <trkpt lat="46.126797432079911" lon="10.4989043623209">
        <ele>2400.0700000000002</ele>
        <time>2018-07-11T06:30:29Z</time>
      </trkpt>
      <trkpt lat="46.126758456230164" lon="10.498862033709884">
        <ele>2401.0300000000002</ele>
        <time>2018-07-11T06:30:42Z</time>
      </trkpt>
      <trkpt lat="46.126742614433169" lon="10.498832194134593">
        <ele>2402.4699999999998</ele>
        <time>2018-07-11T06:30:52Z</time>
      </trkpt>
      <trkpt lat="46.126726688817143" lon="10.498788189142942">
        <ele>2403.9099999999999</ele>
        <time>2018-07-11T06:31:02Z</time>
      </trkpt>
      <trkpt lat="46.126678995788097" lon="10.498730521649122">
        <ele>2404.3899999999999</ele>
        <time>2018-07-11T06:31:14Z</time>
      </trkpt>
      <trkpt lat="46.126637756824493" lon="10.498702190816402">
        <ele>2404.8800000000001</ele>
        <time>2018-07-11T06:31:26Z</time>
      </trkpt>
      <trkpt lat="46.126618394628167" lon="10.498624406754971">
        <ele>2406.3200000000002</ele>
        <time>2018-07-11T06:31:36Z</time>
      </trkpt>
      <trkpt lat="46.126623507589102" lon="10.498589286580682">
        <ele>2407.7600000000002</ele>
        <time>2018-07-11T06:31:47Z</time>
      </trkpt>
      <trkpt lat="46.126618897542357" lon="10.498586688190699">
        <ele>2408.2399999999998</ele>
        <time>2018-07-11T06:31:50Z</time>
      </trkpt>
      <trkpt lat="46.126601966097951" lon="10.49854913726449">
        <ele>2408.2399999999998</ele>
        <time>2018-07-11T06:31:57Z</time>
      </trkpt>
      <trkpt lat="46.126610431820154" lon="10.498513011261821">
        <ele>2409.6799999999998</ele>
        <time>2018-07-11T06:32:07Z</time>
      </trkpt>
      <trkpt lat="46.126610096544027" lon="10.498469425365329">
        <ele>2410.6399999999999</ele>
        <time>2018-07-11T06:32:17Z</time>
      </trkpt>
      <trkpt lat="46.126584028825164" lon="10.498425588011742">
        <ele>2410.6399999999999</ele>
        <time>2018-07-11T06:32:27Z</time>
      </trkpt>
      <trkpt lat="46.126561565324664" lon="10.498374626040459">
        <ele>2411.1199999999999</ele>
        <time>2018-07-11T06:32:36Z</time>
      </trkpt>
      <trkpt lat="46.126550836488605" lon="10.498350569978356">
        <ele>2411.1199999999999</ele>
        <time>2018-07-11T06:32:48Z</time>
      </trkpt>
      <trkpt lat="46.126524014398456" lon="10.498313019052148">
        <ele>2410.1599999999999</ele>
        <time>2018-07-11T06:32:58Z</time>
      </trkpt>
      <trkpt lat="46.126510770991445" lon="10.498274378478527">
        <ele>2410.6399999999999</ele>
        <time>2018-07-11T06:33:09Z</time>
      </trkpt>
      <trkpt lat="46.126487888395786" lon="10.498234396800399">
        <ele>2412.5700000000002</ele>
        <time>2018-07-11T06:33:19Z</time>
      </trkpt>
      <trkpt lat="46.126468274742365" lon="10.498212687671185">
        <ele>2413.5300000000002</ele>
        <time>2018-07-11T06:33:32Z</time>
      </trkpt>
      <trkpt lat="46.126463748514652" lon="10.498190643265843">
        <ele>2414.0100000000002</ele>
        <time>2018-07-11T06:33:43Z</time>
      </trkpt>
      <trkpt lat="46.126450588926673" lon="10.498159043490887">
        <ele>2415.9299999999998</ele>
        <time>2018-07-11T06:33:54Z</time>
      </trkpt>
      <trkpt lat="46.126442207023501" lon="10.498113362118602">
        <ele>2417.3699999999999</ele>
        <time>2018-07-11T06:34:04Z</time>
      </trkpt>
      <trkpt lat="46.12642209045589" lon="10.498069357126951">
        <ele>2418.3299999999999</ele>
        <time>2018-07-11T06:34:13Z</time>
      </trkpt>
      <trkpt lat="46.1263991240412" lon="10.498025016859174">
        <ele>2418.8099999999999</ele>
        <time>2018-07-11T06:34:23Z</time>
      </trkpt>
      <trkpt lat="46.12635905854404" lon="10.49801261164248">
        <ele>2417.8499999999999</ele>
        <time>2018-07-11T06:34:34Z</time>
      </trkpt>
      <trkpt lat="46.126329721882939" lon="10.49794320948422">
        <ele>2417.8499999999999</ele>
        <time>2018-07-11T06:34:46Z</time>
      </trkpt>
      <trkpt lat="46.126325782388449" lon="10.497884536162019">
        <ele>2418.8099999999999</ele>
        <time>2018-07-11T06:34:56Z</time>
      </trkpt>
      <trkpt lat="46.126324608922005" lon="10.497817564755678">
        <ele>2420.2600000000002</ele>
        <time>2018-07-11T06:35:09Z</time>
      </trkpt>
      <trkpt lat="46.126301055774093" lon="10.497781103476882">
        <ele>2420.7399999999998</ele>
        <time>2018-07-11T06:35:19Z</time>
      </trkpt>
      <trkpt lat="46.126272054389119" lon="10.497719412669539">
        <ele>2422.1799999999998</ele>
        <time>2018-07-11T06:35:32Z</time>
      </trkpt>
      <trkpt lat="46.126228300854564" lon="10.497684879228473">
        <ele>2422.6599999999999</ele>
        <time>2018-07-11T06:35:44Z</time>
      </trkpt>
      <trkpt lat="46.126176752150059" lon="10.49766568467021">
        <ele>2423.1399999999999</ele>
        <time>2018-07-11T06:35:55Z</time>
      </trkpt>
      <trkpt lat="46.126138782128692" lon="10.497642634436488">
        <ele>2423.1399999999999</ele>
        <time>2018-07-11T06:36:05Z</time>
      </trkpt>
      <trkpt lat="46.126074325293303" lon="10.497588906437159">
        <ele>2422.1799999999998</ele>
        <time>2018-07-11T06:36:17Z</time>
      </trkpt>
      <trkpt lat="46.126031074672937" lon="10.497525706887245">
        <ele>2422.6599999999999</ele>
        <time>2018-07-11T06:36:27Z</time>
      </trkpt>
      <trkpt lat="46.125967875123024" lon="10.49745412543416">
        <ele>2423.1399999999999</ele>
        <time>2018-07-11T06:36:40Z</time>
      </trkpt>
      <trkpt lat="46.125936275348067" lon="10.497446916997433">
        <ele>2422.1799999999998</ele>
        <time>2018-07-11T06:36:51Z</time>
      </trkpt>
      <trkpt lat="46.125922864302993" lon="10.497452113777399">
        <ele>2421.6999999999998</ele>
        <time>2018-07-11T06:37:01Z</time>
      </trkpt>
      <trkpt lat="46.125904340296984" lon="10.497457981109619">
        <ele>2420.7399999999998</ele>
        <time>2018-07-11T06:37:11Z</time>
      </trkpt>
      <trkpt lat="46.125849271193147" lon="10.49744188785553">
        <ele>2419.3000000000002</ele>
        <time>2018-07-11T06:37:21Z</time>
      </trkpt>
      <trkpt lat="46.125810882076621" lon="10.497413305565715">
        <ele>2420.7399999999998</ele>
        <time>2018-07-11T06:37:32Z</time>
      </trkpt>
      <trkpt lat="46.125762350857258" lon="10.497387740761042">
        <ele>2421.2199999999998</ele>
        <time>2018-07-11T06:37:42Z</time>
      </trkpt>
      <trkpt lat="46.125714238733053" lon="10.497347256168723">
        <ele>2422.6599999999999</ele>
        <time>2018-07-11T06:37:54Z</time>
      </trkpt>
      <trkpt lat="46.125683896243572" lon="10.497293192893267">
        <ele>2423.6199999999999</ele>
        <time>2018-07-11T06:38:04Z</time>
      </trkpt>
      <trkpt lat="46.125677525997162" lon="10.497254636138678">
        <ele>2425.0599999999999</ele>
        <time>2018-07-11T06:38:16Z</time>
      </trkpt>
      <trkpt lat="46.125670233741403" lon="10.497218677774072">
        <ele>2426.02</ele>
        <time>2018-07-11T06:38:27Z</time>
      </trkpt>
      <trkpt lat="46.125690015032887" lon="10.497199902310967">
        <ele>2427.4699999999998</ele>
        <time>2018-07-11T06:38:40Z</time>
      </trkpt>
      <trkpt lat="46.125714825466275" lon="10.497186910361052">
        <ele>2428.4299999999998</ele>
        <time>2018-07-11T06:38:49Z</time>
      </trkpt>
      <trkpt lat="46.125719603151083" lon="10.497156986966729">
        <ele>2430.3499999999999</ele>
        <time>2018-07-11T06:39:00Z</time>
      </trkpt>
      <trkpt lat="46.125727230682969" lon="10.497147012501955">
        <ele>2430.8299999999999</ele>
        <time>2018-07-11T06:39:11Z</time>
      </trkpt>
      <trkpt lat="46.125730331987143" lon="10.49712429754436">
        <ele>2432.27</ele>
        <time>2018-07-11T06:39:22Z</time>
      </trkpt>
      <trkpt lat="46.125739132985473" lon="10.497114574536681">
        <ele>2432.75</ele>
        <time>2018-07-11T06:39:35Z</time>
      </trkpt>
      <trkpt lat="46.12576100975275" lon="10.497119184583426">
        <ele>2433.71</ele>
        <time>2018-07-11T06:39:45Z</time>
      </trkpt>
      <trkpt lat="46.125738965347409" lon="10.497091524302959">
        <ele>2435.1599999999999</ele>
        <time>2018-07-11T06:39:56Z</time>
      </trkpt>
      <trkpt lat="46.125754974782467" lon="10.497070653364062">
        <ele>2436.5999999999999</ele>
        <time>2018-07-11T06:40:06Z</time>
      </trkpt>
      <trkpt lat="46.125725554302335" lon="10.497040478512645">
        <ele>2437.5599999999999</ele>
        <time>2018-07-11T06:40:17Z</time>
      </trkpt>
      <trkpt lat="46.125740138813853" lon="10.497018434107304">
        <ele>2438.04</ele>
        <time>2018-07-11T06:40:29Z</time>
      </trkpt>
      <trkpt lat="46.125750029459596" lon="10.496994713321328">
        <ele>2439.48</ele>
        <time>2018-07-11T06:40:42Z</time>
      </trkpt>
      <trkpt lat="46.125726057216525" lon="10.49696403555572">
        <ele>2440.4400000000001</ele>
        <time>2018-07-11T06:40:52Z</time>
      </trkpt>
      <trkpt lat="46.125721782445908" lon="10.496930256485939">
        <ele>2441.4099999999999</ele>
        <time>2018-07-11T06:41:01Z</time>
      </trkpt>
      <trkpt lat="46.125717088580132" lon="10.496918438002467">
        <ele>2442.3699999999999</ele>
        <time>2018-07-11T06:41:13Z</time>
      </trkpt>
      <trkpt lat="46.125731421634555" lon="10.496909720823169">
        <ele>2442.8499999999999</ele>
        <time>2018-07-11T06:41:28Z</time>
      </trkpt>
      <trkpt lat="46.125715998932719" lon="10.49689463339746">
        <ele>2442.8499999999999</ele>
        <time>2018-07-11T06:41:46Z</time>
      </trkpt>
      <trkpt lat="46.125752460211515" lon="10.496894801035523">
        <ele>2443.8099999999999</ele>
        <time>2018-07-11T06:41:57Z</time>
      </trkpt>
      <trkpt lat="46.125758411362767" lon="10.496869320049882">
        <ele>2445.25</ele>
        <time>2018-07-11T06:42:07Z</time>
      </trkpt>
      <trkpt lat="46.125765284523368" lon="10.496835624799132">
        <ele>2447.1700000000001</ele>
        <time>2018-07-11T06:42:17Z</time>
      </trkpt>
      <trkpt lat="46.125747598707676" lon="10.496797151863575">
        <ele>2448.1300000000001</ele>
        <time>2018-07-11T06:42:29Z</time>
      </trkpt>
      <trkpt lat="46.125725889578462" lon="10.496766977012157">
        <ele>2447.6500000000001</ele>
        <time>2018-07-11T06:42:38Z</time>
      </trkpt>
      <trkpt lat="46.125715747475624" lon="10.496701095253229">
        <ele>2448.1300000000001</ele>
        <time>2018-07-11T06:42:47Z</time>
      </trkpt>
      <trkpt lat="46.125726141035557" lon="10.496650468558073">
        <ele>2449.5799999999999</ele>
        <time>2018-07-11T06:42:57Z</time>
      </trkpt>
      <trkpt lat="46.125729912891984" lon="10.496596992015839">
        <ele>2451.02</ele>
        <time>2018-07-11T06:43:08Z</time>
      </trkpt>
      <trkpt lat="46.12574047408998" lon="10.4965731035918">
        <ele>2452.9400000000001</ele>
        <time>2018-07-11T06:43:20Z</time>
      </trkpt>
      <trkpt lat="46.125776264816523" lon="10.496560446918011">
        <ele>2454.3800000000001</ele>
        <time>2018-07-11T06:43:31Z</time>
      </trkpt>
      <trkpt lat="46.125780371949077" lon="10.496517950668931">
        <ele>2455.3400000000001</ele>
        <time>2018-07-11T06:43:41Z</time>
      </trkpt>
      <trkpt lat="46.125777270644903" lon="10.496505042538047">
        <ele>2456.3099999999999</ele>
        <time>2018-07-11T06:43:47Z</time>
      </trkpt>
      <trkpt lat="46.125811217352748" lon="10.496512837707996">
        <ele>2457.27</ele>
        <time>2018-07-11T06:43:55Z</time>
      </trkpt>
      <trkpt lat="46.125826220959425" lon="10.496503114700317">
        <ele>2458.23</ele>
        <time>2018-07-11T06:44:05Z</time>
      </trkpt>
      <trkpt lat="46.125850277021527" lon="10.496486602351069">
        <ele>2459.6700000000001</ele>
        <time>2018-07-11T06:44:14Z</time>
      </trkpt>
      <trkpt lat="46.125862933695316" lon="10.496499175205827">
        <ele>2461.1100000000001</ele>
        <time>2018-07-11T06:44:25Z</time>
      </trkpt>
      <trkpt lat="46.125897048041224" lon="10.496517783030868">
        <ele>2462.0700000000002</ele>
        <time>2018-07-11T06:44:35Z</time>
      </trkpt>
      <trkpt lat="46.125912386924028" lon="10.496499259024858">
        <ele>2463.52</ele>
        <time>2018-07-11T06:44:43Z</time>
      </trkpt>
      <trkpt lat="46.125893192365766" lon="10.496461289003491">
        <ele>2464.96</ele>
        <time>2018-07-11T06:44:54Z</time>
      </trkpt>
      <trkpt lat="46.12591833807528" lon="10.496450560167432">
        <ele>2465.4400000000001</ele>
        <time>2018-07-11T06:45:05Z</time>
      </trkpt>
      <trkpt lat="46.125923870131373" lon="10.496434550732374">
        <ele>2465.9200000000001</ele>
        <time>2018-07-11T06:45:16Z</time>
      </trkpt>
      <trkpt lat="46.125907525420189" lon="10.496414182707667">
        <ele>2467.3600000000001</ele>
        <time>2018-07-11T06:45:24Z</time>
      </trkpt>
      <trkpt lat="46.12591146491468" lon="10.49642994068563">
        <ele>2467.8400000000001</ele>
        <time>2018-07-11T06:45:38Z</time>
      </trkpt>
      <trkpt lat="46.125897383317351" lon="10.496422564610839">
        <ele>2469.2800000000002</ele>
        <time>2018-07-11T06:45:50Z</time>
      </trkpt>
      <trkpt lat="46.125918673351407" lon="10.496410494670272">
        <ele>2470.2399999999998</ele>
        <time>2018-07-11T06:46:02Z</time>
      </trkpt>
      <trkpt lat="46.125910459086299" lon="10.496396999806166">
        <ele>2471.6900000000001</ele>
        <time>2018-07-11T06:46:19Z</time>
      </trkpt>
      <trkpt lat="46.125916074961424" lon="10.496398843824863">
        <ele>2472.1700000000001</ele>
        <time>2018-07-11T06:46:29Z</time>
      </trkpt>
      <trkpt lat="46.125933090224862" lon="10.496405214071274">
        <ele>2473.6100000000001</ele>
        <time>2018-07-11T06:46:41Z</time>
      </trkpt>
      <trkpt lat="46.12592613324523" lon="10.496407309547067">
        <ele>2474.5700000000002</ele>
        <time>2018-07-11T06:46:52Z</time>
      </trkpt>
      <trkpt lat="46.125952284783125" lon="10.496438574045897">
        <ele>2476.0100000000002</ele>
        <time>2018-07-11T06:47:07Z</time>
      </trkpt>
      <trkpt lat="46.125977011397481" lon="10.496450560167432">
        <ele>2476.9699999999998</ele>
        <time>2018-07-11T06:47:20Z</time>
      </trkpt>
      <trkpt lat="46.125975837931037" lon="10.496466150507331">
        <ele>2478.4200000000001</ele>
        <time>2018-07-11T06:47:29Z</time>
      </trkpt>
      <trkpt lat="46.125973658636212" lon="10.496283173561096">
        <ele>2479.3800000000001</ele>
        <time>2018-07-11T06:47:39Z</time>
      </trkpt>
      <trkpt lat="46.12600089982152" lon="10.496274456381798">
        <ele>2480.8200000000002</ele>
        <time>2018-07-11T06:47:48Z</time>
      </trkpt>
      <trkpt lat="46.126022608950734" lon="10.496242605149746">
        <ele>2482.2600000000002</ele>
        <time>2018-07-11T06:47:58Z</time>
      </trkpt>
      <trkpt lat="46.126035265624523" lon="10.496242856606841">
        <ele>2483.6999999999998</ele>
        <time>2018-07-11T06:48:08Z</time>
      </trkpt>
      <trkpt lat="46.126017328351736" lon="10.496210586279631">
        <ele>2484.6599999999999</ele>
        <time>2018-07-11T06:48:16Z</time>
      </trkpt>
      <trkpt lat="46.125996625050902" lon="10.496184686198831">
        <ele>2486.1100000000001</ele>
        <time>2018-07-11T06:48:27Z</time>
      </trkpt>
      <trkpt lat="46.125963181257248" lon="10.496168006211519">
        <ele>2487.5500000000002</ele>
        <time>2018-07-11T06:48:37Z</time>
      </trkpt>
      <trkpt lat="46.125929402187467" lon="10.496138921007514">
        <ele>2488.5100000000002</ele>
        <time>2018-07-11T06:48:47Z</time>
      </trkpt>
      <trkpt lat="46.125917080789804" lon="10.496102962642908">
        <ele>2490.4299999999998</ele>
        <time>2018-07-11T06:48:58Z</time>
      </trkpt>
      <trkpt lat="46.12593443132937" lon="10.496098855510354">
        <ele>2489.9499999999998</ele>
        <time>2018-07-11T06:49:11Z</time>
      </trkpt>
      <trkpt lat="46.125936023890972" lon="10.496097011491656">
        <ele>2490.4299999999998</ele>
        <time>2018-07-11T06:49:12Z</time>
      </trkpt>
      <trkpt lat="46.125952703878284" lon="10.49607471562922">
        <ele>2490.9099999999999</ele>
        <time>2018-07-11T06:49:27Z</time>
      </trkpt>
      <trkpt lat="46.12597206607461" lon="10.496010091155767">
        <ele>2493.3200000000002</ele>
        <time>2018-07-11T06:49:42Z</time>
      </trkpt>
      <trkpt lat="46.125950943678617" lon="10.495964242145419">
        <ele>2496.6799999999998</ele>
        <time>2018-07-11T06:49:51Z</time>
      </trkpt>
      <trkpt lat="46.125916913151741" lon="10.495894756168127">
        <ele>2495.7199999999998</ele>
        <time>2018-07-11T06:50:02Z</time>
      </trkpt>
      <trkpt lat="46.12589436583221" lon="10.495844800025225">
        <ele>2495.7199999999998</ele>
        <time>2018-07-11T06:50:16Z</time>
      </trkpt>
      <trkpt lat="46.125877350568771" lon="10.49572485499084">
        <ele>2497.1599999999999</ele>
        <time>2018-07-11T06:50:29Z</time>
      </trkpt>
      <trkpt lat="46.125858575105667" lon="10.495691914111376">
        <ele>2497.6399999999999</ele>
        <time>2018-07-11T06:50:40Z</time>
      </trkpt>
      <trkpt lat="46.125857401639223" lon="10.495679341256618">
        <ele>2497.6399999999999</ele>
        <time>2018-07-11T06:50:55Z</time>
      </trkpt>
      <trkpt lat="46.125862346962094" lon="10.495633911341429">
        <ele>2497.6399999999999</ele>
        <time>2018-07-11T06:51:05Z</time>
      </trkpt>
      <trkpt lat="46.125865280628204" lon="10.495598874986172">
        <ele>2497.6399999999999</ele>
        <time>2018-07-11T06:51:09Z</time>
      </trkpt>
      <trkpt lat="46.125836195424199" lon="10.495574232190847">
        <ele>2498.5999999999999</ele>
        <time>2018-07-11T06:51:15Z</time>
      </trkpt>
      <trkpt lat="46.125810379162431" lon="10.495517067611217">
        <ele>2499.0799999999999</ele>
        <time>2018-07-11T06:51:26Z</time>
      </trkpt>
      <trkpt lat="46.125801410526037" lon="10.495503321290016">
        <ele>2499.0799999999999</ele>
        <time>2018-07-11T06:51:28Z</time>
      </trkpt>
      <trkpt lat="46.125756483525038" lon="10.495425788685679">
        <ele>2499.0799999999999</ele>
        <time>2018-07-11T06:51:38Z</time>
      </trkpt>
      <trkpt lat="46.125722955912352" lon="10.495365103706717">
        <ele>2499.0799999999999</ele>
        <time>2018-07-11T06:51:49Z</time>
      </trkpt>
      <trkpt lat="46.125680543482304" lon="10.495274411514401">
        <ele>2499.5700000000002</ele>
        <time>2018-07-11T06:52:00Z</time>
      </trkpt>
      <trkpt lat="46.125664701685309" lon="10.495218923315406">
        <ele>2500.0500000000002</ele>
        <time>2018-07-11T06:52:10Z</time>
      </trkpt>
      <trkpt lat="46.125639555975795" lon="10.495165698230267">
        <ele>2500.0500000000002</ele>
        <time>2018-07-11T06:52:21Z</time>
      </trkpt>
      <trkpt lat="46.125631174072623" lon="10.495094200596213">
        <ele>2501.9699999999998</ele>
        <time>2018-07-11T06:52:31Z</time>
      </trkpt>
      <trkpt lat="46.125603597611189" lon="10.495063690468669">
        <ele>2501.4899999999998</ele>
        <time>2018-07-11T06:52:43Z</time>
      </trkpt>
      <trkpt lat="46.1256134044379" lon="10.495066959410906">
        <ele>2501.4899999999998</ele>
        <time>2018-07-11T06:52:55Z</time>
      </trkpt>
      <trkpt lat="46.125630754977465" lon="10.495072575286031">
        <ele>2501.9699999999998</ele>
        <time>2018-07-11T06:53:09Z</time>
      </trkpt>
      <trkpt lat="46.125617679208517" lon="10.495068216696382">
        <ele>2501.0100000000002</ele>
        <time>2018-07-11T06:53:22Z</time>
      </trkpt>
      <trkpt lat="46.12560804001987" lon="10.495078358799219">
        <ele>2501.0100000000002</ele>
        <time>2018-07-11T06:53:36Z</time>
      </trkpt>
      <trkpt lat="46.125605525448918" lon="10.495080286636949">
        <ele>2501.0100000000002</ele>
        <time>2018-07-11T06:53:59Z</time>
      </trkpt>
      <trkpt lat="46.125598819926381" lon="10.495060086250305">
        <ele>2501.0100000000002</ele>
        <time>2018-07-11T06:54:25Z</time>
      </trkpt>
      <trkpt lat="46.125594796612859" lon="10.495060086250305">
        <ele>2501.0100000000002</ele>
        <time>2018-07-11T06:54:51Z</time>
      </trkpt>
      <trkpt lat="46.125597981736064" lon="10.495074084028602">
        <ele>2501.0100000000002</ele>
        <time>2018-07-11T06:55:22Z</time>
      </trkpt>
      <trkpt lat="46.125594461336732" lon="10.49506620503962">
        <ele>2501.4899999999998</ele>
        <time>2018-07-11T06:55:49Z</time>
      </trkpt>
      <trkpt lat="46.125596892088652" lon="10.495064193382859">
        <ele>2501.4899999999998</ele>
        <time>2018-07-11T06:56:10Z</time>
      </trkpt>
      <trkpt lat="46.125596556812525" lon="10.495066791772842">
        <ele>2501.4899999999998</ele>
        <time>2018-07-11T06:56:31Z</time>
      </trkpt>
      <trkpt lat="46.125595299527049" lon="10.49506863579154">
        <ele>2501.9699999999998</ele>
        <time>2018-07-11T06:56:57Z</time>
      </trkpt>
      <trkpt lat="46.125600580126047" lon="10.49506570212543">
        <ele>2501.9699999999998</ele>
        <time>2018-07-11T06:57:24Z</time>
      </trkpt>
      <trkpt lat="46.12559923902154" lon="10.495073916390538">
        <ele>2501.9699999999998</ele>
        <time>2018-07-11T06:57:51Z</time>
      </trkpt>
      <trkpt lat="46.125598317012191" lon="10.495067713782191">
        <ele>2501.9699999999998</ele>
        <time>2018-07-11T06:58:19Z</time>
      </trkpt>
      <trkpt lat="46.12559974193573" lon="10.495069976896048">
        <ele>2501.9699999999998</ele>
        <time>2018-07-11T06:58:44Z</time>
      </trkpt>
      <trkpt lat="46.125595383346081" lon="10.49506913870573">
        <ele>2501.9699999999998</ele>
        <time>2018-07-11T06:59:17Z</time>
      </trkpt>
      <trkpt lat="46.125598987564445" lon="10.495066456496716">
        <ele>2501.9699999999998</ele>
        <time>2018-07-11T06:59:41Z</time>
      </trkpt>
      <trkpt lat="46.125595467165112" lon="10.495068216696382">
        <ele>2501.9699999999998</ele>
        <time>2018-07-11T07:00:08Z</time>
      </trkpt>
      <trkpt lat="46.125599155202508" lon="10.495088417083025">
        <ele>2502.4499999999998</ele>
        <time>2018-07-11T07:00:33Z</time>
      </trkpt>
      <trkpt lat="46.125604687258601" lon="10.49509696662426">
        <ele>2502.4499999999998</ele>
        <time>2018-07-11T07:00:59Z</time>
      </trkpt>
      <trkpt lat="46.1256168410182" lon="10.495071653276682">
        <ele>2502.4499999999998</ele>
        <time>2018-07-11T07:01:11Z</time>
      </trkpt>
      <trkpt lat="46.125607285648584" lon="10.495063774287701">
        <ele>2502.4499999999998</ele>
        <time>2018-07-11T07:01:27Z</time>
      </trkpt>
      <trkpt lat="46.125621702522039" lon="10.495080454275012">
        <ele>2502.4499999999998</ele>
        <time>2018-07-11T07:01:36Z</time>
      </trkpt>
      <trkpt lat="46.125625306740403" lon="10.495080789551139">
        <ele>2502.4499999999998</ele>
        <time>2018-07-11T07:01:50Z</time>
      </trkpt>
      <trkpt lat="46.125620696693659" lon="10.495088417083025">
        <ele>2502.4499999999998</ele>
        <time>2018-07-11T07:02:05Z</time>
      </trkpt>
      <trkpt lat="46.125600999221206" lon="10.49510333687067">
        <ele>2501.9699999999998</ele>
        <time>2018-07-11T07:02:14Z</time>
      </trkpt>
      <trkpt lat="46.125602843239903" lon="10.49511507153511">
        <ele>2501.0100000000002</ele>
        <time>2018-07-11T07:02:26Z</time>
      </trkpt>
      <trkpt lat="46.125606028363109" lon="10.495124123990536">
        <ele>2501.0100000000002</ele>
        <time>2018-07-11T07:02:41Z</time>
      </trkpt>
      <trkpt lat="46.125564370304346" lon="10.495099984109402">
        <ele>2501.0100000000002</ele>
        <time>2018-07-11T07:02:48Z</time>
      </trkpt>
      <trkpt lat="46.12549714744091" lon="10.495004346594214">
        <ele>2500.0500000000002</ele>
        <time>2018-07-11T07:03:01Z</time>
      </trkpt>
      <trkpt lat="46.125428751111031" lon="10.494959838688374">
        <ele>2498.5999999999999</ele>
        <time>2018-07-11T07:03:11Z</time>
      </trkpt>
      <trkpt lat="46.125401174649596" lon="10.494905188679695">
        <ele>2498.1199999999999</ele>
        <time>2018-07-11T07:03:24Z</time>
      </trkpt>
      <trkpt lat="46.125390445813537" lon="10.494890017434955">
        <ele>2498.1199999999999</ele>
        <time>2018-07-11T07:03:32Z</time>
      </trkpt>
      <trkpt lat="46.125348284840584" lon="10.494785495102406">
        <ele>2498.1199999999999</ele>
        <time>2018-07-11T07:03:43Z</time>
      </trkpt>
      <trkpt lat="46.125345351174474" lon="10.494756745174527">
        <ele>2498.1199999999999</ele>
        <time>2018-07-11T07:03:54Z</time>
      </trkpt>
      <trkpt lat="46.125349961221218" lon="10.494719026610255">
        <ele>2499.5700000000002</ele>
        <time>2018-07-11T07:04:06Z</time>
      </trkpt>
      <trkpt lat="46.125374268740416" lon="10.494713913649321">
        <ele>2500.0500000000002</ele>
        <time>2018-07-11T07:04:17Z</time>
      </trkpt>
      <trkpt lat="46.125367227941751" lon="10.494706118479371">
        <ele>2501.9699999999998</ele>
        <time>2018-07-11T07:04:29Z</time>
      </trkpt>
      <trkpt lat="46.125349625945091" lon="10.494634537026286">
        <ele>2502.9299999999998</ele>
        <time>2018-07-11T07:04:40Z</time>
      </trkpt>
      <trkpt lat="46.125368485227227" lon="10.494569912552834">
        <ele>2504.3699999999999</ele>
        <time>2018-07-11T07:04:51Z</time>
      </trkpt>
      <trkpt lat="46.125351805239916" lon="10.494504533708096">
        <ele>2505.8099999999999</ele>
        <time>2018-07-11T07:05:02Z</time>
      </trkpt>
      <trkpt lat="46.125353230163455" lon="10.494451224803925">
        <ele>2507.2600000000002</ele>
        <time>2018-07-11T07:05:12Z</time>
      </trkpt>
      <trkpt lat="46.125350296497345" lon="10.494424989446998">
        <ele>2507.2600000000002</ele>
        <time>2018-07-11T07:05:27Z</time>
      </trkpt>
      <trkpt lat="46.125381058081985" lon="10.494410488754511">
        <ele>2508.2199999999998</ele>
        <time>2018-07-11T07:05:36Z</time>
      </trkpt>
      <trkpt lat="46.125421123579144" lon="10.494424570351839">
        <ele>2510.1399999999999</ele>
        <time>2018-07-11T07:05:46Z</time>
      </trkpt>
      <trkpt lat="46.125433947890997" lon="10.49438064917922">
        <ele>2512.0599999999999</ele>
        <time>2018-07-11T07:05:57Z</time>
      </trkpt>
      <trkpt lat="46.125456998124719" lon="10.494327507913113">
        <ele>2513.5</ele>
        <time>2018-07-11T07:06:09Z</time>
      </trkpt>
      <trkpt lat="46.125496812164783" lon="10.494266236200929">
        <ele>2514.9499999999998</ele>
        <time>2018-07-11T07:06:21Z</time>
      </trkpt>
      <trkpt lat="46.125547019764781" lon="10.49426288343966">
        <ele>2515.9099999999999</ele>
        <time>2018-07-11T07:06:32Z</time>
      </trkpt>
      <trkpt lat="46.125529250130057" lon="10.494225164875388">
        <ele>2517.3499999999999</ele>
        <time>2018-07-11T07:06:42Z</time>
      </trkpt>
      <trkpt lat="46.125511564314365" lon="10.494159031659365">
        <ele>2517.8299999999999</ele>
        <time>2018-07-11T07:06:51Z</time>
      </trkpt>
      <trkpt lat="46.125485664233565" lon="10.49411385320127">
        <ele>2518.3099999999999</ele>
        <time>2018-07-11T07:07:01Z</time>
      </trkpt>
      <trkpt lat="46.125497231259942" lon="10.494092982262373">
        <ele>2518.79</ele>
        <time>2018-07-11T07:07:11Z</time>
      </trkpt>
      <trkpt lat="46.125520868226886" lon="10.494092646986246">
        <ele>2519.75</ele>
        <time>2018-07-11T07:07:24Z</time>
      </trkpt>
      <trkpt lat="46.125520952045918" lon="10.494065824896097">
        <ele>2520.71</ele>
        <time>2018-07-11T07:07:33Z</time>
      </trkpt>
      <trkpt lat="46.125533357262611" lon="10.494066076353192">
        <ele>2521.6799999999998</ele>
        <time>2018-07-11T07:07:46Z</time>
      </trkpt>
      <trkpt lat="46.125553390011191" lon="10.494059873744845">
        <ele>2523.1199999999999</ele>
        <time>2018-07-11T07:07:59Z</time>
      </trkpt>
      <trkpt lat="46.125559424981475" lon="10.494053335860372">
        <ele>2524.0799999999999</ele>
        <time>2018-07-11T07:08:09Z</time>
      </trkpt>
      <trkpt lat="46.125558838248253" lon="10.49400974996388">
        <ele>2525.52</ele>
        <time>2018-07-11T07:08:22Z</time>
      </trkpt>
      <trkpt lat="46.125561017543077" lon="10.493947891518474">
        <ele>2527.4400000000001</ele>
        <time>2018-07-11T07:08:34Z</time>
      </trkpt>
      <trkpt lat="46.125550791621208" lon="10.493868263438344">
        <ele>2529.3699999999999</ele>
        <time>2018-07-11T07:08:49Z</time>
      </trkpt>
      <trkpt lat="46.125583732500672" lon="10.493869772180915">
        <ele>2530.3299999999999</ele>
        <time>2018-07-11T07:08:59Z</time>
      </trkpt>
      <trkpt lat="46.125592784956098" lon="10.493853595107794">
        <ele>2531.29</ele>
        <time>2018-07-11T07:09:09Z</time>
      </trkpt>
      <trkpt lat="46.125575350597501" lon="10.493822079151869">
        <ele>2531.77</ele>
        <time>2018-07-11T07:09:18Z</time>
      </trkpt>
      <trkpt lat="46.125586163252592" lon="10.493789725005627">
        <ele>2532.73</ele>
        <time>2018-07-11T07:09:31Z</time>
      </trkpt>
      <trkpt lat="46.125572919845581" lon="10.493727531284094">
        <ele>2534.6500000000001</ele>
        <time>2018-07-11T07:09:41Z</time>
      </trkpt>
      <trkpt lat="46.125574847683311" lon="10.493687633424997">
        <ele>2535.1300000000001</ele>
        <time>2018-07-11T07:09:52Z</time>
      </trkpt>
      <trkpt lat="46.125594042241573" lon="10.493661062791944">
        <ele>2536.5799999999999</ele>
        <time>2018-07-11T07:10:05Z</time>
      </trkpt>
      <trkpt lat="46.125589851289988" lon="10.493656033650041">
        <ele>2536.5799999999999</ele>
        <time>2018-07-11T07:10:20Z</time>
      </trkpt>
      <trkpt lat="46.125597143545747" lon="10.493639018386602">
        <ele>2536.5799999999999</ele>
        <time>2018-07-11T07:10:30Z</time>
      </trkpt>
      <trkpt lat="46.125594545155764" lon="10.493608927354217">
        <ele>2537.54</ele>
        <time>2018-07-11T07:10:40Z</time>
      </trkpt>
      <trkpt lat="46.125597143545747" lon="10.493592331185937">
        <ele>2538.5</ele>
        <time>2018-07-11T07:10:51Z</time>
      </trkpt>
      <trkpt lat="46.125614577904344" lon="10.493567856028676">
        <ele>2539.46</ele>
        <time>2018-07-11T07:11:00Z</time>
      </trkpt>
      <trkpt lat="46.125618433579803" lon="10.493560982868075">
        <ele>2540.4200000000001</ele>
        <time>2018-07-11T07:11:14Z</time>
      </trkpt>
      <trkpt lat="46.125623043626547" lon="10.4935597255826">
        <ele>2540.9000000000001</ele>
        <time>2018-07-11T07:11:28Z</time>
      </trkpt>
      <trkpt lat="46.125621031969786" lon="10.493538854643703">
        <ele>2541.3800000000001</ele>
        <time>2018-07-11T07:11:35Z</time>
      </trkpt>
      <trkpt lat="46.125621283426881" lon="10.49344589933753">
        <ele>2541.3800000000001</ele>
        <time>2018-07-11T07:11:45Z</time>
      </trkpt>
      <trkpt lat="46.125604351982474" lon="10.493401056155562">
        <ele>2540.4200000000001</ele>
        <time>2018-07-11T07:11:55Z</time>
      </trkpt>
      <trkpt lat="46.125651374459267" lon="10.493399798870087">
        <ele>2541.8600000000001</ele>
        <time>2018-07-11T07:12:06Z</time>
      </trkpt>
      <trkpt lat="46.125676184892654" lon="10.493409018963575">
        <ele>2543.3099999999999</ele>
        <time>2018-07-11T07:12:10Z</time>
      </trkpt>
      <trkpt lat="46.125676352530718" lon="10.493331486359239">
        <ele>2546.1900000000001</ele>
        <time>2018-07-11T07:12:19Z</time>
      </trkpt>
      <trkpt lat="46.125712059438229" lon="10.493311118334532">
        <ele>2547.1500000000001</ele>
        <time>2018-07-11T07:12:27Z</time>
      </trkpt>
      <trkpt lat="46.125718848779798" lon="10.493295108899474">
        <ele>2549.0700000000002</ele>
        <time>2018-07-11T07:12:35Z</time>
      </trkpt>
      <trkpt lat="46.125734522938728" lon="10.493284966796637">
        <ele>2549.0700000000002</ele>
        <time>2018-07-11T07:12:45Z</time>
      </trkpt>
      <trkpt lat="46.125732259824872" lon="10.493279099464417">
        <ele>2549.0700000000002</ele>
        <time>2018-07-11T07:13:03Z</time>
      </trkpt>
      <trkpt lat="46.125725135207176" lon="10.493271136656404">
        <ele>2549.0700000000002</ele>
        <time>2018-07-11T07:13:06Z</time>
      </trkpt>
      <trkpt lat="46.125718178227544" lon="10.493221431970596">
        <ele>2549.0700000000002</ele>
        <time>2018-07-11T07:13:16Z</time>
      </trkpt>
      <trkpt lat="46.12575757317245" lon="10.493192095309496">
        <ele>2550.5100000000002</ele>
        <time>2018-07-11T07:13:25Z</time>
      </trkpt>
      <trkpt lat="46.12576394341886" lon="10.493143144994974">
        <ele>2551.96</ele>
        <time>2018-07-11T07:13:37Z</time>
      </trkpt>
      <trkpt lat="46.125776767730713" lon="10.493096206337214">
        <ele>2553.8800000000001</ele>
        <time>2018-07-11T07:13:50Z</time>
      </trkpt>
      <trkpt lat="46.125807194039226" lon="10.493077347055078">
        <ele>2555.3200000000002</ele>
        <time>2018-07-11T07:14:00Z</time>
      </trkpt>
      <trkpt lat="46.125817503780127" lon="10.493030743673444">
        <ele>2556.2800000000002</ele>
        <time>2018-07-11T07:14:10Z</time>
      </trkpt>
      <trkpt lat="46.125810462981462" lon="10.492983972653747">
        <ele>2557.2399999999998</ele>
        <time>2018-07-11T07:14:21Z</time>
      </trkpt>
      <trkpt lat="46.12580006942153" lon="10.492915660142899">
        <ele>2557.73</ele>
        <time>2018-07-11T07:14:31Z</time>
      </trkpt>
      <trkpt lat="46.125790765509009" lon="10.492880372330546">
        <ele>2559.1700000000001</ele>
        <time>2018-07-11T07:14:40Z</time>
      </trkpt>
      <trkpt lat="46.125776516273618" lon="10.492809042334557">
        <ele>2561.5700000000002</ele>
        <time>2018-07-11T07:14:51Z</time>
      </trkpt>
      <trkpt lat="46.125777438282967" lon="10.492758248001337">
        <ele>2562.0500000000002</ele>
        <time>2018-07-11T07:15:01Z</time>
      </trkpt>
      <trkpt lat="46.125771654769778" lon="10.492712566629052">
        <ele>2563.4899999999998</ele>
        <time>2018-07-11T07:15:10Z</time>
      </trkpt>
      <trkpt lat="46.125778025016189" lon="10.492670154199004">
        <ele>2564.9299999999998</ele>
        <time>2018-07-11T07:15:19Z</time>
      </trkpt>
      <trkpt lat="46.125799650326371" lon="10.492606200277805">
        <ele>2566.3800000000001</ele>
        <time>2018-07-11T07:15:28Z</time>
      </trkpt>
      <trkpt lat="46.125805014744401" lon="10.492542078718543">
        <ele>2567.3400000000001</ele>
        <time>2018-07-11T07:15:38Z</time>
      </trkpt>
      <trkpt lat="46.125795710831881" lon="10.49253604374826">
        <ele>2566.8600000000001</ele>
        <time>2018-07-11T07:15:48Z</time>
      </trkpt>
      <trkpt lat="46.125785820186138" lon="10.492519866675138">
        <ele>2566.8600000000001</ele>
        <time>2018-07-11T07:16:01Z</time>
      </trkpt>
      <trkpt lat="46.125776180997491" lon="10.492491787299514">
        <ele>2567.8200000000002</ele>
        <time>2018-07-11T07:16:09Z</time>
      </trkpt>
      <trkpt lat="46.125748520717025" lon="10.492412662133574">
        <ele>2569.2600000000002</ele>
        <time>2018-07-11T07:16:20Z</time>
      </trkpt>
      <trkpt lat="46.125744581222534" lon="10.492360778152943">
        <ele>2571.6599999999999</ele>
        <time>2018-07-11T07:16:32Z</time>
      </trkpt>
      <trkpt lat="46.125796968117356" lon="10.492368573322892">
        <ele>2572.6300000000001</ele>
        <time>2018-07-11T07:16:41Z</time>
      </trkpt>
      <trkpt lat="46.125835441052914" lon="10.492392713204026">
        <ele>2573.5900000000001</ele>
        <time>2018-07-11T07:16:51Z</time>
      </trkpt>
      <trkpt lat="46.12582303583622" lon="10.492389192804694">
        <ele>2573.5900000000001</ele>
        <time>2018-07-11T07:17:03Z</time>
      </trkpt>
      <trkpt lat="46.125848265364766" lon="10.492387264966965">
        <ele>2574.0700000000002</ele>
        <time>2018-07-11T07:17:17Z</time>
      </trkpt>
      <trkpt lat="46.125849103555083" lon="10.492342840880156">
        <ele>2574.5500000000002</ele>
        <time>2018-07-11T07:17:32Z</time>
      </trkpt>
      <trkpt lat="46.125846253708005" lon="10.492267068475485">
        <ele>2575.9899999999998</ele>
        <time>2018-07-11T07:17:41Z</time>
      </trkpt>
      <trkpt lat="46.125844158232212" lon="10.492203198373318">
        <ele>2577.9099999999999</ele>
        <time>2018-07-11T07:17:52Z</time>
      </trkpt>
      <trkpt lat="46.125868130475283" lon="10.492147374898195">
        <ele>2580.8000000000002</ele>
        <time>2018-07-11T07:18:01Z</time>
      </trkpt>
      <trkpt lat="46.125872991979122" lon="10.492085600271821">
        <ele>2583.6799999999998</ele>
        <time>2018-07-11T07:18:11Z</time>
      </trkpt>
      <trkpt lat="46.125869136303663" lon="10.492042265832424">
        <ele>2585.1199999999999</ele>
        <time>2018-07-11T07:18:19Z</time>
      </trkpt>
      <trkpt lat="46.125864274799824" lon="10.492013934999704">
        <ele>2585.5999999999999</ele>
        <time>2018-07-11T07:18:29Z</time>
      </trkpt>
      <trkpt lat="46.125841224566102" lon="10.491939084604383">
        <ele>2587.04</ele>
        <time>2018-07-11T07:18:40Z</time>
      </trkpt>
      <trkpt lat="46.125822532922029" lon="10.491909245029092">
        <ele>2587.5300000000002</ele>
        <time>2018-07-11T07:18:52Z</time>
      </trkpt>
      <trkpt lat="46.125812474638224" lon="10.491906898096204">
        <ele>2587.5300000000002</ele>
        <time>2018-07-11T07:19:08Z</time>
      </trkpt>
      <trkpt lat="46.12582840025425" lon="10.491920812055469">
        <ele>2587.04</ele>
        <time>2018-07-11T07:19:21Z</time>
      </trkpt>
      <trkpt lat="46.125795291736722" lon="10.491847721859813">
        <ele>2588.0100000000002</ele>
        <time>2018-07-11T07:19:31Z</time>
      </trkpt>
      <trkpt lat="46.125755058601499" lon="10.491816373541951">
        <ele>2589.4499999999998</ele>
        <time>2018-07-11T07:19:39Z</time>
      </trkpt>
      <trkpt lat="46.125740138813853" lon="10.491708414629102">
        <ele>2590.4099999999999</ele>
        <time>2018-07-11T07:19:50Z</time>
      </trkpt>
      <trkpt lat="46.12573653459549" lon="10.491669606417418">
        <ele>2591.3699999999999</ele>
        <time>2018-07-11T07:19:57Z</time>
      </trkpt>
      <trkpt lat="46.125723123550415" lon="10.491599533706903">
        <ele>2592.8099999999999</ele>
        <time>2018-07-11T07:20:06Z</time>
      </trkpt>
      <trkpt lat="46.12569160759449" lon="10.491582518443465">
        <ele>2593.77</ele>
        <time>2018-07-11T07:20:17Z</time>
      </trkpt>
      <trkpt lat="46.125669395551085" lon="10.491536585614085">
        <ele>2593.77</ele>
        <time>2018-07-11T07:20:22Z</time>
      </trkpt>
      <trkpt lat="46.12560024484992" lon="10.49145913682878">
        <ele>2593.29</ele>
        <time>2018-07-11T07:20:32Z</time>
      </trkpt>
      <trkpt lat="46.125576607882977" lon="10.491360398009419">
        <ele>2594.25</ele>
        <time>2018-07-11T07:20:42Z</time>
      </trkpt>
      <trkpt lat="46.125540062785149" lon="10.491232322528958">
        <ele>2594.7399999999998</ele>
        <time>2018-07-11T07:20:55Z</time>
      </trkpt>
      <trkpt lat="46.125499242916703" lon="10.491190329194069">
        <ele>2595.2199999999998</ele>
        <time>2018-07-11T07:21:01Z</time>
      </trkpt>
      <trkpt lat="46.125493040308356" lon="10.491128889843822">
        <ele>2596.1799999999998</ele>
        <time>2018-07-11T07:21:10Z</time>
      </trkpt>
      <trkpt lat="46.125487005338073" lon="10.491050519049168">
        <ele>2597.6199999999999</ele>
        <time>2018-07-11T07:21:20Z</time>
      </trkpt>
      <trkpt lat="46.125503852963448" lon="10.491002155467868">
        <ele>2598.5799999999999</ele>
        <time>2018-07-11T07:21:29Z</time>
      </trkpt>
      <trkpt lat="46.125511731952429" lon="10.490949600934982">
        <ele>2600.02</ele>
        <time>2018-07-11T07:21:39Z</time>
      </trkpt>
      <trkpt lat="46.12552153877914" lon="10.490926969796419">
        <ele>2600.5</ele>
        <time>2018-07-11T07:21:49Z</time>
      </trkpt>
      <trkpt lat="46.125536542385817" lon="10.490859495475888">
        <ele>2601.9499999999998</ele>
        <time>2018-07-11T07:22:00Z</time>
      </trkpt>
      <trkpt lat="46.125537632033229" lon="10.490795960649848">
        <ele>2603.3899999999999</ele>
        <time>2018-07-11T07:22:09Z</time>
      </trkpt>
      <trkpt lat="46.125547019764781" lon="10.490749944001436">
        <ele>2604.8299999999999</ele>
        <time>2018-07-11T07:22:18Z</time>
      </trkpt>
      <trkpt lat="46.125560095533729" lon="10.490723373368382">
        <ele>2606.27</ele>
        <time>2018-07-11T07:22:28Z</time>
      </trkpt>
      <trkpt lat="46.125542493537068" lon="10.490696970373392">
        <ele>2607.23</ele>
        <time>2018-07-11T07:22:36Z</time>
      </trkpt>
      <trkpt lat="46.125543750822544" lon="10.490646762773395">
        <ele>2608.1900000000001</ele>
        <time>2018-07-11T07:22:44Z</time>
      </trkpt>
      <trkpt lat="46.125543583184481" lon="10.490609463304281">
        <ele>2608.6700000000001</ele>
        <time>2018-07-11T07:22:52Z</time>
      </trkpt>
      <trkpt lat="46.125553054735065" lon="10.490571577101946">
        <ele>2610.1199999999999</ele>
        <time>2018-07-11T07:23:03Z</time>
      </trkpt>
      <trkpt lat="46.125588426366448" lon="10.490517597645521">
        <ele>2613</ele>
        <time>2018-07-11T07:23:17Z</time>
      </trkpt>
      <trkpt lat="46.12560854293406" lon="10.490529919043183">
        <ele>2613.48</ele>
        <time>2018-07-11T07:23:26Z</time>
      </trkpt>
      <trkpt lat="46.125605441629887" lon="10.490504102781415">
        <ele>2613.96</ele>
        <time>2018-07-11T07:23:35Z</time>
      </trkpt>
      <trkpt lat="46.125606028363109" lon="10.49048189073801">
        <ele>2614.9200000000001</ele>
        <time>2018-07-11T07:23:46Z</time>
      </trkpt>
      <trkpt lat="46.12560024484992" lon="10.49044911749661">
        <ele>2615.8800000000001</ele>
        <time>2018-07-11T07:23:56Z</time>
      </trkpt>
      <trkpt lat="46.125606447458267" lon="10.490370662882924">
        <ele>2617.8099999999999</ele>
        <time>2018-07-11T07:24:08Z</time>
      </trkpt>
      <trkpt lat="46.125613572075963" lon="10.490299500524998">
        <ele>2618.77</ele>
        <time>2018-07-11T07:24:17Z</time>
      </trkpt>
      <trkpt lat="46.125620696693659" lon="10.490172430872917">
        <ele>2618.77</ele>
        <time>2018-07-11T07:24:28Z</time>
      </trkpt>
      <trkpt lat="46.125654391944408" lon="10.490080816671252">
        <ele>2619.25</ele>
        <time>2018-07-11T07:24:39Z</time>
      </trkpt>
      <trkpt lat="46.125650452449918" lon="10.490028094500303">
        <ele>2620.21</ele>
        <time>2018-07-11T07:24:49Z</time>
      </trkpt>
      <trkpt lat="46.125644668936729" lon="10.490004289895296">
        <ele>2621.1700000000001</ele>
        <time>2018-07-11T07:24:58Z</time>
      </trkpt>
      <trkpt lat="46.125647434964776" lon="10.489982161670923">
        <ele>2622.1300000000001</ele>
        <time>2018-07-11T07:25:08Z</time>
      </trkpt>
      <trkpt lat="46.125640477985144" lon="10.489944275468588">
        <ele>2624.0599999999999</ele>
        <time>2018-07-11T07:25:17Z</time>
      </trkpt>
      <trkpt lat="46.125665875151753" lon="10.489895576611161">
        <ele>2625.02</ele>
        <time>2018-07-11T07:25:27Z</time>
      </trkpt>
      <trkpt lat="46.125674257054925" lon="10.489855511114001">
        <ele>2625.98</ele>
        <time>2018-07-11T07:25:36Z</time>
      </trkpt>
      <trkpt lat="46.125688506290317" lon="10.48980999737978">
        <ele>2627.4200000000001</ele>
        <time>2018-07-11T07:25:48Z</time>
      </trkpt>
      <trkpt lat="46.125689763575792" lon="10.489773284643888">
        <ele>2628.8600000000001</ele>
        <time>2018-07-11T07:25:59Z</time>
      </trkpt>
      <trkpt lat="46.125704934820533" lon="10.489741265773773">
        <ele>2629.8200000000002</ele>
        <time>2018-07-11T07:26:07Z</time>
      </trkpt>
      <trkpt lat="46.125680208206177" lon="10.489722322672606">
        <ele>2630.79</ele>
        <time>2018-07-11T07:26:17Z</time>
      </trkpt>
      <trkpt lat="46.125698480755091" lon="10.489756437018514">
        <ele>2631.75</ele>
        <time>2018-07-11T07:26:28Z</time>
      </trkpt>
      <trkpt lat="46.125691523775458" lon="10.489738332107663">
        <ele>2631.75</ele>
        <time>2018-07-11T07:26:39Z</time>
      </trkpt>
      <trkpt lat="46.125678699463606" lon="10.48973229713738">
        <ele>2632.23</ele>
        <time>2018-07-11T07:26:53Z</time>
      </trkpt>
      <trkpt lat="46.125669647008181" lon="10.489704050123692">
        <ele>2631.27</ele>
        <time>2018-07-11T07:27:05Z</time>
      </trkpt>
      <trkpt lat="46.125668305903673" lon="10.489670857787132">
        <ele>2632.23</ele>
        <time>2018-07-11T07:27:13Z</time>
      </trkpt>
      <trkpt lat="46.125706862658262" lon="10.489628110080957">
        <ele>2634.1500000000001</ele>
        <time>2018-07-11T07:27:25Z</time>
      </trkpt>
      <trkpt lat="46.125679956749082" lon="10.489581758156419">
        <ele>2634.6300000000001</ele>
        <time>2018-07-11T07:27:33Z</time>
      </trkpt>
      <trkpt lat="46.125703174620867" lon="10.489579159766436">
        <ele>2636.0700000000002</ele>
        <time>2018-07-11T07:27:42Z</time>
      </trkpt>
      <trkpt lat="46.125751538202167" lon="10.489552672952414">
        <ele>2637.9899999999998</ele>
        <time>2018-07-11T07:27:53Z</time>
      </trkpt>
      <trkpt lat="46.125759668648243" lon="10.489513529464602">
        <ele>2638.96</ele>
        <time>2018-07-11T07:28:02Z</time>
      </trkpt>
      <trkpt lat="46.125767379999161" lon="10.489472625777125">
        <ele>2639.9200000000001</ele>
        <time>2018-07-11T07:28:13Z</time>
      </trkpt>
      <trkpt lat="46.125803757458925" lon="10.48944840207696">
        <ele>2641.3600000000001</ele>
        <time>2018-07-11T07:28:25Z</time>
      </trkpt>
      <trkpt lat="46.125789675861597" lon="10.489435326308012">
        <ele>2641.8400000000001</ele>
        <time>2018-07-11T07:28:35Z</time>
      </trkpt>
      <trkpt lat="46.125783640891314" lon="10.489361314103007">
        <ele>2642.8000000000002</ele>
        <time>2018-07-11T07:28:46Z</time>
      </trkpt>
      <trkpt lat="46.125771906226873" lon="10.489276070147753">
        <ele>2642.3200000000002</ele>
        <time>2018-07-11T07:28:55Z</time>
      </trkpt>
      <trkpt lat="46.125788418576121" lon="10.489175403490663">
        <ele>2643.2800000000002</ele>
        <time>2018-07-11T07:29:06Z</time>
      </trkpt>
      <trkpt lat="46.125809792429209" lon="10.489112371578813">
        <ele>2644.7199999999998</ele>
        <time>2018-07-11T07:29:17Z</time>
      </trkpt>
      <trkpt lat="46.125816917046905" lon="10.489053865894675">
        <ele>2646.1700000000001</ele>
        <time>2018-07-11T07:29:29Z</time>
      </trkpt>
      <trkpt lat="46.125849271193147" lon="10.489011537283659">
        <ele>2647.6100000000001</ele>
        <time>2018-07-11T07:29:38Z</time>
      </trkpt>
      <trkpt lat="46.125878943130374" lon="10.488995611667633">
        <ele>2649.5300000000002</ele>
        <time>2018-07-11T07:29:49Z</time>
      </trkpt>
      <trkpt lat="46.125879194587469" lon="10.488966275006533">
        <ele>2650.0100000000002</ele>
        <time>2018-07-11T07:30:00Z</time>
      </trkpt>
      <trkpt lat="46.125874668359756" lon="10.488939117640257">
        <ele>2650.9699999999998</ele>
        <time>2018-07-11T07:30:10Z</time>
      </trkpt>
      <trkpt lat="46.125884475186467" lon="10.488908775150776">
        <ele>2652.4200000000001</ele>
        <time>2018-07-11T07:30:19Z</time>
      </trkpt>
      <trkpt lat="46.125926384702325" lon="10.488902740180492">
        <ele>2654.3400000000001</ele>
        <time>2018-07-11T07:30:29Z</time>
      </trkpt>
      <trkpt lat="46.125955134630203" lon="10.488911708816886">
        <ele>2655.7800000000002</ele>
        <time>2018-07-11T07:30:40Z</time>
      </trkpt>
      <trkpt lat="46.12594029866159" lon="10.48886351287365">
        <ele>2657.2199999999998</ele>
        <time>2018-07-11T07:30:50Z</time>
      </trkpt>
      <trkpt lat="46.125932671129704" lon="10.488809533417225">
        <ele>2657.6999999999998</ele>
        <time>2018-07-11T07:30:59Z</time>
      </trkpt>
      <trkpt lat="46.125922948122025" lon="10.488814814016223">
        <ele>2657.6999999999998</ele>
        <time>2018-07-11T07:31:01Z</time>
      </trkpt>
      <trkpt lat="46.125888749957085" lon="10.488758403807878">
        <ele>2656.2600000000002</ele>
        <time>2018-07-11T07:31:10Z</time>
      </trkpt>
      <trkpt lat="46.125876596197486" lon="10.488737029954791">
        <ele>2656.2600000000002</ele>
        <time>2018-07-11T07:31:13Z</time>
      </trkpt>
      <trkpt lat="46.125842733308673" lon="10.488665867596865">
        <ele>2656.2600000000002</ele>
        <time>2018-07-11T07:31:23Z</time>
      </trkpt>
      <trkpt lat="46.12583133392036" lon="10.488596046343446">
        <ele>2658.6599999999999</ele>
        <time>2018-07-11T07:31:35Z</time>
      </trkpt>
      <trkpt lat="46.125810882076621" lon="10.488545503467321">
        <ele>2659.6199999999999</ele>
        <time>2018-07-11T07:31:47Z</time>
      </trkpt>
      <trkpt lat="46.12585430033505" lon="10.488507784903049">
        <ele>2661.0700000000002</ele>
        <time>2018-07-11T07:31:58Z</time>
      </trkpt>
      <trkpt lat="46.125856982544065" lon="10.488471239805222">
        <ele>2662.0300000000002</ele>
        <time>2018-07-11T07:32:08Z</time>
      </trkpt>
      <trkpt lat="46.125854970887303" lon="10.488466126844287">
        <ele>2662.0300000000002</ele>
        <time>2018-07-11T07:32:20Z</time>
      </trkpt>
      <trkpt lat="46.125856982544065" lon="10.488456403836608">
        <ele>2662.0300000000002</ele>
        <time>2018-07-11T07:32:32Z</time>
      </trkpt>
      <trkpt lat="46.125853378325701" lon="10.488423211500049">
        <ele>2663.4699999999998</ele>
        <time>2018-07-11T07:32:36Z</time>
      </trkpt>
      <trkpt lat="46.125844744965434" lon="10.488361017778516">
        <ele>2663.4699999999998</ele>
        <time>2018-07-11T07:32:44Z</time>
      </trkpt>
      <trkpt lat="46.125831501558423" lon="10.488289687782526">
        <ele>2664.9099999999999</ele>
        <time>2018-07-11T07:32:55Z</time>
      </trkpt>
      <trkpt lat="46.125832507386804" lon="10.488238222897053">
        <ele>2666.3499999999999</ele>
        <time>2018-07-11T07:33:04Z</time>
      </trkpt>
      <trkpt lat="46.125823203474283" lon="10.488193882629275">
        <ele>2667.8000000000002</ele>
        <time>2018-07-11T07:33:14Z</time>
      </trkpt>
      <trkpt lat="46.125838458538055" lon="10.488203437998891">
        <ele>2667.8000000000002</ele>
        <time>2018-07-11T07:33:30Z</time>
      </trkpt>
      <trkpt lat="46.125811468809843" lon="10.488131688907743">
        <ele>2667.8000000000002</ele>
        <time>2018-07-11T07:33:40Z</time>
      </trkpt>
      <trkpt lat="46.125796716660261" lon="10.488075781613588">
        <ele>2668.2800000000002</ele>
        <time>2018-07-11T07:33:49Z</time>
      </trkpt>
      <trkpt lat="46.125765619799495" lon="10.488020461052656">
        <ele>2668.7600000000002</ele>
        <time>2018-07-11T07:33:59Z</time>
      </trkpt>
      <trkpt lat="46.125780874863267" lon="10.487970924004912">
        <ele>2671.1599999999999</ele>
        <time>2018-07-11T07:34:10Z</time>
      </trkpt>
      <trkpt lat="46.125759165734053" lon="10.487926164641976">
        <ele>2672.1199999999999</ele>
        <time>2018-07-11T07:34:22Z</time>
      </trkpt>
      <trkpt lat="46.12573703750968" lon="10.487874448299408">
        <ele>2672.5999999999999</ele>
        <time>2018-07-11T07:34:31Z</time>
      </trkpt>
      <trkpt lat="46.125742569565773" lon="10.487812170758843">
        <ele>2673.5599999999999</ele>
        <time>2018-07-11T07:34:42Z</time>
      </trkpt>
      <trkpt lat="46.125749610364437" lon="10.487761879339814">
        <ele>2675.0100000000002</ele>
        <time>2018-07-11T07:34:52Z</time>
      </trkpt>
      <trkpt lat="46.125749526545405" lon="10.487727597355843">
        <ele>2675.0100000000002</ele>
        <time>2018-07-11T07:34:55Z</time>
      </trkpt>
      <trkpt lat="46.125708622857928" lon="10.487661045044661">
        <ele>2675.4899999999998</ele>
        <time>2018-07-11T07:35:05Z</time>
      </trkpt>
      <trkpt lat="46.125675262883306" lon="10.48757060430944">
        <ele>2675.4899999999998</ele>
        <time>2018-07-11T07:35:15Z</time>
      </trkpt>
      <trkpt lat="46.125656235963106" lon="10.487528527155519">
        <ele>2675.4899999999998</ele>
        <time>2018-07-11T07:35:24Z</time>
      </trkpt>
      <trkpt lat="46.125653050839901" lon="10.487519474700093">
        <ele>2675.9699999999998</ele>
        <time>2018-07-11T07:35:26Z</time>
      </trkpt>
      <trkpt lat="46.125629413872957" lon="10.487449150532484">
        <ele>2676.4499999999998</ele>
        <time>2018-07-11T07:35:36Z</time>
      </trkpt>
      <trkpt lat="46.125630335882306" lon="10.487427106127143">
        <ele>2677.8899999999999</ele>
        <time>2018-07-11T07:35:47Z</time>
      </trkpt>
      <trkpt lat="46.125623881816864" lon="10.487399529665709">
        <ele>2677.8899999999999</ele>
        <time>2018-07-11T07:35:54Z</time>
      </trkpt>
      <trkpt lat="46.125583061948419" lon="10.487337671220303">
        <ele>2676.9299999999998</ele>
        <time>2018-07-11T07:36:04Z</time>
      </trkpt>
      <trkpt lat="46.125543331727386" lon="10.487268101423979">
        <ele>2677.8899999999999</ele>
        <time>2018-07-11T07:36:14Z</time>
      </trkpt>
      <trkpt lat="46.125506618991494" lon="10.487209763377905">
        <ele>2679.3299999999999</ele>
        <time>2018-07-11T07:36:25Z</time>
      </trkpt>
      <trkpt lat="46.125496979802847" lon="10.487135583534837">
        <ele>2679.8099999999999</ele>
        <time>2018-07-11T07:36:35Z</time>
      </trkpt>
      <trkpt lat="46.12547904253006" lon="10.487093841657043">
        <ele>2680.29</ele>
        <time>2018-07-11T07:36:46Z</time>
      </trkpt>
      <trkpt lat="46.125480551272631" lon="10.487091578543186">
        <ele>2679.8099999999999</ele>
        <time>2018-07-11T07:37:00Z</time>
      </trkpt>
      <trkpt lat="46.125473761931062" lon="10.487114125862718">
        <ele>2679.3299999999999</ele>
        <time>2018-07-11T07:37:16Z</time>
      </trkpt>
      <trkpt lat="46.125463033095002" lon="10.487112617120147">
        <ele>2679.3299999999999</ele>
        <time>2018-07-11T07:37:30Z</time>
      </trkpt>
      <trkpt lat="46.125489519909024" lon="10.487100463360548">
        <ele>2679.3299999999999</ele>
        <time>2018-07-11T07:37:42Z</time>
      </trkpt>
      <trkpt lat="46.125465799123049" lon="10.487028546631336">
        <ele>2679.8099999999999</ele>
        <time>2018-07-11T07:37:53Z</time>
      </trkpt>
      <trkpt lat="46.125444928184152" lon="10.487014716491103">
        <ele>2680.29</ele>
        <time>2018-07-11T07:38:04Z</time>
      </trkpt>
      <trkpt lat="46.125431349501014" lon="10.486969789490104">
        <ele>2680.77</ele>
        <time>2018-07-11T07:38:17Z</time>
      </trkpt>
      <trkpt lat="46.125429756939411" lon="10.486935675144196">
        <ele>2680.77</ele>
        <time>2018-07-11T07:38:28Z</time>
      </trkpt>
      <trkpt lat="46.125436630100012" lon="10.486932238563895">
        <ele>2680.29</ele>
        <time>2018-07-11T07:38:37Z</time>
      </trkpt>
      <trkpt lat="46.125451801344752" lon="10.486942548304796">
        <ele>2680.77</ele>
        <time>2018-07-11T07:38:47Z</time>
      </trkpt>
      <trkpt lat="46.125458758324385" lon="10.486938441172242">
        <ele>2680.29</ele>
        <time>2018-07-11T07:38:59Z</time>
      </trkpt>
      <trkpt lat="46.125459345057607" lon="10.486940620467067">
        <ele>2680.77</ele>
        <time>2018-07-11T07:39:09Z</time>
      </trkpt>
      <trkpt lat="46.125466721132398" lon="10.486942967399955">
        <ele>2680.77</ele>
        <time>2018-07-11T07:39:22Z</time>
      </trkpt>
      <trkpt lat="46.125446939840913" lon="10.486934250220656">
        <ele>2680.77</ele>
        <time>2018-07-11T07:39:32Z</time>
      </trkpt>
      <trkpt lat="46.125452052801847" lon="10.486925365403295">
        <ele>2681.25</ele>
        <time>2018-07-11T07:39:43Z</time>
      </trkpt>
      <trkpt lat="46.125469068065286" lon="10.48694028519094">
        <ele>2680.77</ele>
        <time>2018-07-11T07:39:59Z</time>
      </trkpt>
      <trkpt lat="46.125461691990495" lon="10.486940117552876">
        <ele>2680.29</ele>
        <time>2018-07-11T07:40:09Z</time>
      </trkpt>
      <trkpt lat="46.125434953719378" lon="10.486904578283429">
        <ele>2681.25</ele>
        <time>2018-07-11T07:40:18Z</time>
      </trkpt>
      <trkpt lat="46.125458674505353" lon="10.486926035955548">
        <ele>2681.25</ele>
        <time>2018-07-11T07:40:28Z</time>
      </trkpt>
      <trkpt lat="46.125472001731396" lon="10.486935004591942">
        <ele>2681.73</ele>
        <time>2018-07-11T07:40:42Z</time>
      </trkpt>
      <trkpt lat="46.125451130792499" lon="10.486950092017651">
        <ele>2681.25</ele>
        <time>2018-07-11T07:40:58Z</time>
      </trkpt>
      <trkpt lat="46.125443587079644" lon="10.48694564960897">
        <ele>2681.25</ele>
        <time>2018-07-11T07:41:09Z</time>
      </trkpt>
      <trkpt lat="46.125425230711699" lon="10.486951936036348">
        <ele>2680.77</ele>
        <time>2018-07-11T07:41:21Z</time>
      </trkpt>
      <trkpt lat="46.125421207398176" lon="10.486931651830673">
        <ele>2680.77</ele>
        <time>2018-07-11T07:41:24Z</time>
      </trkpt>
      <trkpt lat="46.125382818281651" lon="10.48686652444303">
        <ele>2679.3299999999999</ele>
        <time>2018-07-11T07:41:34Z</time>
      </trkpt>
      <trkpt lat="46.125360270962119" lon="10.486845904961228">
        <ele>2679.3299999999999</ele>
        <time>2018-07-11T07:41:43Z</time>
      </trkpt>
      <trkpt lat="46.125346021726727" lon="10.486833248287439">
        <ele>2679.8099999999999</ele>
        <time>2018-07-11T07:41:49Z</time>
      </trkpt>
      <trkpt lat="46.125333867967129" lon="10.486787650734186">
        <ele>2680.29</ele>
        <time>2018-07-11T07:41:56Z</time>
      </trkpt>
      <trkpt lat="46.125330766662955" lon="10.486762253567576">
        <ele>2680.29</ele>
        <time>2018-07-11T07:42:04Z</time>
      </trkpt>
      <trkpt lat="46.125334622338414" lon="10.486749345436692">
        <ele>2680.29</ele>
        <time>2018-07-11T07:42:05Z</time>
      </trkpt>
      <trkpt lat="46.125316601246595" lon="10.486681368201971">
        <ele>2679.3299999999999</ele>
        <time>2018-07-11T07:42:15Z</time>
      </trkpt>
      <trkpt lat="46.12530168145895" lon="10.486656976863742">
        <ele>2679.3299999999999</ele>
        <time>2018-07-11T07:42:25Z</time>
      </trkpt>
      <trkpt lat="46.125291790813208" lon="10.486664185300469">
        <ele>2678.8499999999999</ele>
        <time>2018-07-11T07:42:37Z</time>
      </trkpt>
      <trkpt lat="46.125303274020553" lon="10.486623868346214">
        <ele>2678.8499999999999</ele>
        <time>2018-07-11T07:42:57Z</time>
      </trkpt>
      <trkpt lat="46.125321630388498" lon="10.486611630767584">
        <ele>2679.8099999999999</ele>
        <time>2018-07-11T07:43:08Z</time>
      </trkpt>
      <trkpt lat="46.125310650095344" lon="10.486598219722509">
        <ele>2679.8099999999999</ele>
        <time>2018-07-11T07:43:20Z</time>
      </trkpt>
      <trkpt lat="46.125308303162456" lon="10.48657332547009">
        <ele>2679.8099999999999</ele>
        <time>2018-07-11T07:43:32Z</time>
      </trkpt>
      <trkpt lat="46.125315008684993" lon="10.486549939960241">
        <ele>2680.29</ele>
        <time>2018-07-11T07:43:40Z</time>
      </trkpt>
      <trkpt lat="46.125318948179483" lon="10.486558740958571">
        <ele>2679.8099999999999</ele>
        <time>2018-07-11T07:43:50Z</time>
      </trkpt>
      <trkpt lat="46.125315008684993" lon="10.486583299934864">
        <ele>2679.3299999999999</ele>
        <time>2018-07-11T07:44:03Z</time>
      </trkpt>
      <trkpt lat="46.12530654296279" lon="10.486588161438704">
        <ele>2678.8499999999999</ele>
        <time>2018-07-11T07:44:13Z</time>
      </trkpt>
      <trkpt lat="46.125285839661956" lon="10.48654742538929">
        <ele>2678.8499999999999</ele>
        <time>2018-07-11T07:44:22Z</time>
      </trkpt>
      <trkpt lat="46.125283828005195" lon="10.486507778987288">
        <ele>2679.3299999999999</ele>
        <time>2018-07-11T07:44:29Z</time>
      </trkpt>
      <trkpt lat="46.125276535749435" lon="10.486495122313499">
        <ele>2678.3699999999999</ele>
        <time>2018-07-11T07:44:39Z</time>
      </trkpt>
      <trkpt lat="46.125253820791841" lon="10.486479615792632">
        <ele>2678.3699999999999</ele>
        <time>2018-07-11T07:44:48Z</time>
      </trkpt>
      <trkpt lat="46.125255078077316" lon="10.486456649377942">
        <ele>2678.3699999999999</ele>
        <time>2018-07-11T07:45:00Z</time>
      </trkpt>
      <trkpt lat="46.125252479687333" lon="10.486438041552901">
        <ele>2679.3299999999999</ele>
        <time>2018-07-11T07:45:13Z</time>
      </trkpt>
      <trkpt lat="46.125260945409536" lon="10.486409207805991">
        <ele>2679.3299999999999</ele>
        <time>2018-07-11T07:45:24Z</time>
      </trkpt>
      <trkpt lat="46.125256167724729" lon="10.486397389322519">
        <ele>2679.8099999999999</ele>
        <time>2018-07-11T07:45:29Z</time>
      </trkpt>
      <trkpt lat="46.125267818570137" lon="10.486396802589297">
        <ele>2680.77</ele>
        <time>2018-07-11T07:45:39Z</time>
      </trkpt>
      <trkpt lat="46.12524158321321" lon="10.486341984942555">
        <ele>2681.73</ele>
        <time>2018-07-11T07:45:48Z</time>
      </trkpt>
      <trkpt lat="46.125233536586165" lon="10.486308122053742">
        <ele>2681.73</ele>
        <time>2018-07-11T07:45:56Z</time>
      </trkpt>
      <trkpt lat="46.125230770558119" lon="10.486306110396981">
        <ele>2681.73</ele>
        <time>2018-07-11T07:46:05Z</time>
      </trkpt>
      <trkpt lat="46.12521325238049" lon="10.486265206709504">
        <ele>2682.6999999999998</ele>
        <time>2018-07-11T07:46:12Z</time>
      </trkpt>
      <trkpt lat="46.125213755294681" lon="10.486254477873445">
        <ele>2682.2199999999998</ele>
        <time>2018-07-11T07:46:22Z</time>
      </trkpt>
      <trkpt lat="46.125190705060959" lon="10.486224889755249">
        <ele>2682.6999999999998</ele>
        <time>2018-07-11T07:46:33Z</time>
      </trkpt>
      <trkpt lat="46.12518047913909" lon="10.486213658004999">
        <ele>2682.6999999999998</ele>
        <time>2018-07-11T07:46:47Z</time>
      </trkpt>
      <trkpt lat="46.125167235732079" lon="10.486170239746571">
        <ele>2682.2199999999998</ele>
        <time>2018-07-11T07:46:57Z</time>
      </trkpt>
      <trkpt lat="46.125126918777823" lon="10.486092874780297">
        <ele>2681.73</ele>
        <time>2018-07-11T07:47:08Z</time>
      </trkpt>
      <trkpt lat="46.125098671764135" lon="10.486054569482803">
        <ele>2681.73</ele>
        <time>2018-07-11T07:47:21Z</time>
      </trkpt>
      <trkpt lat="46.125095402821898" lon="10.486044259741902">
        <ele>2680.77</ele>
        <time>2018-07-11T07:47:30Z</time>
      </trkpt>
      <trkpt lat="46.125061204656959" lon="10.486031351611018">
        <ele>2679.3299999999999</ele>
        <time>2018-07-11T07:47:39Z</time>
      </trkpt>
      <trkpt lat="46.125009069219232" lon="10.485925488173962">
        <ele>2679.3299999999999</ele>
        <time>2018-07-11T07:47:50Z</time>
      </trkpt>
      <trkpt lat="46.125002279877663" lon="10.485835885629058">
        <ele>2680.77</ele>
        <time>2018-07-11T07:48:00Z</time>
      </trkpt>
      <trkpt lat="46.125041171908379" lon="10.485821217298508">
        <ele>2682.2199999999998</ele>
        <time>2018-07-11T07:48:10Z</time>
      </trkpt>
      <trkpt lat="46.125045698136091" lon="10.48577637411654">
        <ele>2684.1399999999999</ele>
        <time>2018-07-11T07:48:21Z</time>
      </trkpt>
      <trkpt lat="46.125050643458962" lon="10.485775368288159">
        <ele>2684.1399999999999</ele>
        <time>2018-07-11T07:48:33Z</time>
      </trkpt>
      <trkpt lat="46.125076124444604" lon="10.485767992213368">
        <ele>2685.0999999999999</ele>
        <time>2018-07-11T07:48:43Z</time>
      </trkpt>
      <trkpt lat="46.12510428763926" lon="10.485748462378979">
        <ele>2687.02</ele>
        <time>2018-07-11T07:48:52Z</time>
      </trkpt>
      <trkpt lat="46.125113759189844" lon="10.485683586448431">
        <ele>2687.5</ele>
        <time>2018-07-11T07:49:01Z</time>
      </trkpt>
      <trkpt lat="46.125142425298691" lon="10.485648047178984">
        <ele>2688.46</ele>
        <time>2018-07-11T07:49:11Z</time>
      </trkpt>
      <trkpt lat="46.125165307894349" lon="10.485597588121891">
        <ele>2689.4299999999998</ele>
        <time>2018-07-11T07:49:21Z</time>
      </trkpt>
      <trkpt lat="46.125178299844265" lon="10.485591469332576">
        <ele>2690.3899999999999</ele>
        <time>2018-07-11T07:49:33Z</time>
      </trkpt>
      <trkpt lat="46.125170839950442" lon="10.485576968640089">
        <ele>2691.8299999999999</ele>
        <time>2018-07-11T07:49:41Z</time>
      </trkpt>
      <trkpt lat="46.125174527987838" lon="10.485550565645099">
        <ele>2690.3899999999999</ele>
        <time>2018-07-11T07:49:50Z</time>
      </trkpt>
      <trkpt lat="46.125175785273314" lon="10.485515696927905">
        <ele>2690.8699999999999</ele>
        <time>2018-07-11T07:49:58Z</time>
      </trkpt>
      <trkpt lat="46.125172097235918" lon="10.485520306974649">
        <ele>2690.3899999999999</ele>
        <time>2018-07-11T07:50:01Z</time>
      </trkpt>
      <trkpt lat="46.125173019245267" lon="10.485479738563299">
        <ele>2689.4299999999998</ele>
        <time>2018-07-11T07:50:10Z</time>
      </trkpt>
      <trkpt lat="46.12517025321722" lon="10.485433470457792">
        <ele>2688.9400000000001</ele>
        <time>2018-07-11T07:50:21Z</time>
      </trkpt>
      <trkpt lat="46.125175533816218" lon="10.485391141846776">
        <ele>2688.9400000000001</ele>
        <time>2018-07-11T07:50:32Z</time>
      </trkpt>
      <trkpt lat="46.125184586271644" lon="10.485383095219731">
        <ele>2689.4299999999998</ele>
        <time>2018-07-11T07:50:39Z</time>
      </trkpt>
      <trkpt lat="46.125173941254616" lon="10.485353423282504">
        <ele>2688.9400000000001</ele>
        <time>2018-07-11T07:50:50Z</time>
      </trkpt>
      <trkpt lat="46.125166984274983" lon="10.485325092449784">
        <ele>2689.4299999999998</ele>
        <time>2018-07-11T07:50:59Z</time>
      </trkpt>
      <trkpt lat="46.1251575127244" lon="10.485288295894861">
        <ele>2689.4299999999998</ele>
        <time>2018-07-11T07:51:08Z</time>
      </trkpt>
      <trkpt lat="46.125139659270644" lon="10.485275890678167">
        <ele>2690.3899999999999</ele>
        <time>2018-07-11T07:51:18Z</time>
      </trkpt>
      <trkpt lat="46.125165475532413" lon="10.485320147126913">
        <ele>2690.3899999999999</ele>
        <time>2018-07-11T07:51:29Z</time>
      </trkpt>
      <trkpt lat="46.12512624822557" lon="10.485314363613725">
        <ele>2688.9400000000001</ele>
        <time>2018-07-11T07:51:38Z</time>
      </trkpt>
      <trkpt lat="46.125126918777823" lon="10.485260970890522">
        <ele>2688.9400000000001</ele>
        <time>2018-07-11T07:51:48Z</time>
      </trkpt>
      <trkpt lat="46.125119291245937" lon="10.485234651714563">
        <ele>2689.9099999999999</ele>
        <time>2018-07-11T07:52:00Z</time>
      </trkpt>
      <trkpt lat="46.125120297074318" lon="10.485252924263477">
        <ele>2690.3899999999999</ele>
        <time>2018-07-11T07:52:12Z</time>
      </trkpt>
      <trkpt lat="46.125129098072648" lon="10.485236076638103">
        <ele>2689.9099999999999</ele>
        <time>2018-07-11T07:52:22Z</time>
      </trkpt>
      <trkpt lat="46.125143598765135" lon="10.485264742746949">
        <ele>2689.9099999999999</ele>
        <time>2018-07-11T07:52:31Z</time>
      </trkpt>
      <trkpt lat="46.125143598765135" lon="10.485294833779335">
        <ele>2690.8699999999999</ele>
        <time>2018-07-11T07:52:46Z</time>
      </trkpt>
      <trkpt lat="46.125121302902699" lon="10.485266502946615">
        <ele>2689.9099999999999</ele>
        <time>2018-07-11T07:53:02Z</time>
      </trkpt>
      <trkpt lat="46.125102862715721" lon="10.485261138528585">
        <ele>2690.3899999999999</ele>
        <time>2018-07-11T07:53:10Z</time>
      </trkpt>
      <trkpt lat="46.125070257112384" lon="10.485260970890522">
        <ele>2689.4299999999998</ele>
        <time>2018-07-11T07:53:18Z</time>
      </trkpt>
      <trkpt lat="46.125060953199863" lon="10.48526281490922">
        <ele>2689.4299999999998</ele>
        <time>2018-07-11T07:53:21Z</time>
      </trkpt>
      <trkpt lat="46.125047458335757" lon="10.485207075253129">
        <ele>2689.9099999999999</ele>
        <time>2018-07-11T07:53:31Z</time>
      </trkpt>
      <trkpt lat="46.125051146373153" lon="10.485155694186687">
        <ele>2689.9099999999999</ele>
        <time>2018-07-11T07:53:45Z</time>
      </trkpt>
      <trkpt lat="46.12504318356514" lon="10.485118646174669">
        <ele>2689.9099999999999</ele>
        <time>2018-07-11T07:53:53Z</time>
      </trkpt>
      <trkpt lat="46.125043435022235" lon="10.485085034742951">
        <ele>2690.3899999999999</ele>
        <time>2018-07-11T07:54:02Z</time>
      </trkpt>
      <trkpt lat="46.12504418939352" lon="10.485101463273168">
        <ele>2691.3499999999999</ele>
        <time>2018-07-11T07:54:13Z</time>
      </trkpt>
      <trkpt lat="46.12505441531539" lon="10.485122250393033">
        <ele>2691.3499999999999</ele>
        <time>2018-07-11T07:54:24Z</time>
      </trkpt>
      <trkpt lat="46.125072771683335" lon="10.485124429687858">
        <ele>2691.8299999999999</ele>
        <time>2018-07-11T07:54:42Z</time>
      </trkpt>
      <trkpt lat="46.125064892694354" lon="10.485199447721243">
        <ele>2691.8299999999999</ele>
        <time>2018-07-11T07:55:08Z</time>
      </trkpt>
      <trkpt lat="46.125018456950784" lon="10.485079670324922">
        <ele>2691.8299999999999</ele>
        <time>2018-07-11T07:55:20Z</time>
      </trkpt>
      <trkpt lat="46.125001944601536" lon="10.485068690031767">
        <ele>2691.3499999999999</ele>
        <time>2018-07-11T07:55:26Z</time>
      </trkpt>
      <trkpt lat="46.124984761700034" lon="10.485049663111567">
        <ele>2690.8699999999999</ele>
        <time>2018-07-11T07:55:28Z</time>
      </trkpt>
      <trkpt lat="46.124948216602206" lon="10.484990570694208">
        <ele>2691.3499999999999</ele>
        <time>2018-07-11T07:55:39Z</time>
      </trkpt>
      <trkpt lat="46.124937068670988" lon="10.484986128285527">
        <ele>2691.3499999999999</ele>
        <time>2018-07-11T07:55:52Z</time>
      </trkpt>
      <trkpt lat="46.124937320128083" lon="10.484983362257481">
        <ele>2690.8699999999999</ele>
        <time>2018-07-11T07:56:04Z</time>
      </trkpt>
      <trkpt lat="46.124923154711723" lon="10.484959222376347">
        <ele>2690.8699999999999</ele>
        <time>2018-07-11T07:56:18Z</time>
      </trkpt>
      <trkpt lat="46.12491519190371" lon="10.484922928735614">
        <ele>2691.8299999999999</ele>
        <time>2018-07-11T07:56:25Z</time>
      </trkpt>
      <trkpt lat="46.124919885769486" lon="10.484910104423761">
        <ele>2691.8299999999999</ele>
        <time>2018-07-11T07:56:36Z</time>
      </trkpt>
      <trkpt lat="46.124903960153461" lon="10.484871128574014">
        <ele>2691.3499999999999</ele>
        <time>2018-07-11T07:56:52Z</time>
      </trkpt>
      <trkpt lat="46.124903373420238" lon="10.484839864075184">
        <ele>2691.8299999999999</ele>
        <time>2018-07-11T07:57:05Z</time>
      </trkpt>
      <trkpt lat="46.124898595735431" lon="10.484817484393716">
        <ele>2692.3099999999999</ele>
        <time>2018-07-11T07:57:13Z</time>
      </trkpt>
      <trkpt lat="46.12489465624094" lon="10.484813628718257">
        <ele>2692.3099999999999</ele>
        <time>2018-07-11T07:57:15Z</time>
      </trkpt>
      <trkpt lat="46.124909492209554" lon="10.484775993973017">
        <ele>2692.79</ele>
        <time>2018-07-11T07:57:25Z</time>
      </trkpt>
      <trkpt lat="46.124925334006548" lon="10.484776915982366">
        <ele>2692.79</ele>
        <time>2018-07-11T07:57:45Z</time>
      </trkpt>
      <trkpt lat="46.124905804172158" lon="10.484761828556657">
        <ele>2692.79</ele>
        <time>2018-07-11T07:57:57Z</time>
      </trkpt>
      <trkpt lat="46.124904211610556" lon="10.484746573492885">
        <ele>2692.79</ele>
        <time>2018-07-11T07:58:09Z</time>
      </trkpt>
      <trkpt lat="46.124903792515397" lon="10.484746908769011">
        <ele>2692.79</ele>
        <time>2018-07-11T07:58:20Z</time>
      </trkpt>
      <trkpt lat="46.124882502481341" lon="10.484753279015422">
        <ele>2692.3099999999999</ele>
        <time>2018-07-11T07:58:30Z</time>
      </trkpt>
      <trkpt lat="46.124897003173828" lon="10.484766773879528">
        <ele>2692.3099999999999</ele>
        <time>2018-07-11T07:58:47Z</time>
      </trkpt>
      <trkpt lat="46.124926172196865" lon="10.484792087227106">
        <ele>2693.27</ele>
        <time>2018-07-11T07:58:52Z</time>
      </trkpt>
      <trkpt lat="46.124938661232591" lon="10.48482259735465">
        <ele>2693.75</ele>
        <time>2018-07-11T07:59:02Z</time>
      </trkpt>
      <trkpt lat="46.124919885769486" lon="10.484773395583034">
        <ele>2693.75</ele>
        <time>2018-07-11T07:59:13Z</time>
      </trkpt>
      <trkpt lat="46.124901697039604" lon="10.484748668968678">
        <ele>2692.79</ele>
        <time>2018-07-11T07:59:22Z</time>
      </trkpt>
      <trkpt lat="46.124889627099037" lon="10.484719919040799">
        <ele>2692.3099999999999</ele>
        <time>2018-07-11T07:59:30Z</time>
      </trkpt>
      <trkpt lat="46.124882334843278" lon="10.48471312969923">
        <ele>2692.3099999999999</ele>
        <time>2018-07-11T07:59:38Z</time>
      </trkpt>
      <trkpt lat="46.124874539673328" lon="10.484698209911585">
        <ele>2692.79</ele>
        <time>2018-07-11T07:59:48Z</time>
      </trkpt>
      <trkpt lat="46.124873785302043" lon="10.484654875472188">
        <ele>2691.3499999999999</ele>
        <time>2018-07-11T07:59:56Z</time>
      </trkpt>
      <trkpt lat="46.124875964596868" lon="10.484629981219769">
        <ele>2691.8299999999999</ele>
        <time>2018-07-11T08:00:04Z</time>
      </trkpt>
      <trkpt lat="46.124884011223912" lon="10.484575415030122">
        <ele>2691.3499999999999</ele>
        <time>2018-07-11T08:00:13Z</time>
      </trkpt>
      <trkpt lat="46.124879233539104" lon="10.484553286805749">
        <ele>2690.8699999999999</ele>
        <time>2018-07-11T08:00:22Z</time>
      </trkpt>
      <trkpt lat="46.124896667897701" lon="10.484510622918606">
        <ele>2691.3499999999999</ele>
        <time>2018-07-11T08:00:31Z</time>
      </trkpt>
      <trkpt lat="46.124893818050623" lon="10.484468713402748">
        <ele>2691.3499999999999</ele>
        <time>2018-07-11T08:00:39Z</time>
      </trkpt>
      <trkpt lat="46.124917874112725" lon="10.484426049515605">
        <ele>2691.3499999999999</ele>
        <time>2018-07-11T08:00:49Z</time>
      </trkpt>
      <trkpt lat="46.124912761151791" lon="10.48438916914165">
        <ele>2690.3899999999999</ele>
        <time>2018-07-11T08:00:57Z</time>
      </trkpt>
      <trkpt lat="46.124918460845947" lon="10.484362682327628">
        <ele>2690.3899999999999</ele>
        <time>2018-07-11T08:01:04Z</time>
      </trkpt>
      <trkpt lat="46.124911587685347" lon="10.48434273339808">
        <ele>2689.9099999999999</ele>
        <time>2018-07-11T08:01:12Z</time>
      </trkpt>
      <trkpt lat="46.124908067286015" lon="10.4843261372298">
        <ele>2689.9099999999999</ele>
        <time>2018-07-11T08:01:20Z</time>
      </trkpt>
      <trkpt lat="46.124898428097367" lon="10.484299985691905">
        <ele>2688.9400000000001</ele>
        <time>2018-07-11T08:01:28Z</time>
      </trkpt>
      <trkpt lat="46.124887363985181" lon="10.484277522191405">
        <ele>2688.9400000000001</ele>
        <time>2018-07-11T08:01:34Z</time>
      </trkpt>
      <trkpt lat="46.124884681776166" lon="10.484247514978051">
        <ele>2689.4299999999998</ele>
        <time>2018-07-11T08:01:42Z</time>
      </trkpt>
      <trkpt lat="46.124880239367485" lon="10.484195379540324">
        <ele>2689.4299999999998</ele>
        <time>2018-07-11T08:01:52Z</time>
      </trkpt>
      <trkpt lat="46.124876970425248" lon="10.48413653858006">
        <ele>2689.9099999999999</ele>
        <time>2018-07-11T08:02:00Z</time>
      </trkpt>
      <trkpt lat="46.124888956546783" lon="10.484086917713284">
        <ele>2691.3499999999999</ele>
        <time>2018-07-11T08:02:10Z</time>
      </trkpt>
      <trkpt lat="46.124885519966483" lon="10.484057664871216">
        <ele>2692.3099999999999</ele>
        <time>2018-07-11T08:02:20Z</time>
      </trkpt>
      <trkpt lat="46.124910833314061" lon="10.484039727598429">
        <ele>2693.27</ele>
        <time>2018-07-11T08:02:30Z</time>
      </trkpt>
      <trkpt lat="46.124922735616565" lon="10.484043583273888">
        <ele>2693.27</ele>
        <time>2018-07-11T08:02:40Z</time>
      </trkpt>
      <trkpt lat="46.12493229098618" lon="10.484039727598429">
        <ele>2694.23</ele>
        <time>2018-07-11T08:02:48Z</time>
      </trkpt>
      <trkpt lat="46.124932207167149" lon="10.484049534425139">
        <ele>2694.71</ele>
        <time>2018-07-11T08:03:00Z</time>
      </trkpt>
      <trkpt lat="46.124961460009217" lon="10.484067387878895">
        <ele>2695.6700000000001</ele>
        <time>2018-07-11T08:03:09Z</time>
      </trkpt>
      <trkpt lat="46.124989707022905" lon="10.484041403979063">
        <ele>2697.1199999999999</ele>
        <time>2018-07-11T08:03:20Z</time>
      </trkpt>
      <trkpt lat="46.124999094754457" lon="10.483999662101269">
        <ele>2698.5599999999999</ele>
        <time>2018-07-11T08:03:30Z</time>
      </trkpt>
      <trkpt lat="46.125007476657629" lon="10.483979964628816">
        <ele>2699.52</ele>
        <time>2018-07-11T08:03:39Z</time>
      </trkpt>
      <trkpt lat="46.125017618760467" lon="10.483974684029818">
        <ele>2700</ele>
        <time>2018-07-11T08:03:51Z</time>
      </trkpt>
      <trkpt lat="46.125018456950784" lon="10.483959596604109">
        <ele>2700.96</ele>
        <time>2018-07-11T08:04:01Z</time>
      </trkpt>
      <trkpt lat="46.125046033412218" lon="10.483961189165711">
        <ele>2702.8800000000001</ele>
        <time>2018-07-11T08:04:12Z</time>
      </trkpt>
      <trkpt lat="46.12505299039185" lon="10.4839220456779">
        <ele>2703.3600000000001</ele>
        <time>2018-07-11T08:04:21Z</time>
      </trkpt>
      <trkpt lat="46.125047877430916" lon="10.483858846127987">
        <ele>2703.8499999999999</ele>
        <time>2018-07-11T08:04:32Z</time>
      </trkpt>
      <trkpt lat="46.125050643458962" lon="10.483821714296937">
        <ele>2705.77</ele>
        <time>2018-07-11T08:04:41Z</time>
      </trkpt>
      <trkpt lat="46.125051649287343" lon="10.483808387070894">
        <ele>2706.73</ele>
        <time>2018-07-11T08:04:46Z</time>
      </trkpt>
      <trkpt lat="46.125085931271315" lon="10.48380327410996">
        <ele>2707.6900000000001</ele>
        <time>2018-07-11T08:04:55Z</time>
      </trkpt>
      <trkpt lat="46.125086853280663" lon="10.483857337385416">
        <ele>2708.1700000000001</ele>
        <time>2018-07-11T08:05:08Z</time>
      </trkpt>
      <trkpt lat="46.125094648450613" lon="10.483855241909623">
        <ele>2705.77</ele>
        <time>2018-07-11T08:05:13Z</time>
      </trkpt>
      <trkpt lat="46.125099342316389" lon="10.48385264351964">
        <ele>2708.6500000000001</ele>
        <time>2018-07-11T08:05:16Z</time>
      </trkpt>
      <trkpt lat="46.125095821917057" lon="10.48385264351964">
        <ele>2708.1700000000001</ele>
        <time>2018-07-11T08:05:33Z</time>
      </trkpt>
      <trkpt lat="46.125096492469311" lon="10.483790030702949">
        <ele>2708.1700000000001</ele>
        <time>2018-07-11T08:05:46Z</time>
      </trkpt>
      <trkpt lat="46.125111496075988" lon="10.483770165592432">
        <ele>2709.6100000000001</ele>
        <time>2018-07-11T08:05:56Z</time>
      </trkpt>
      <trkpt lat="46.125114429742098" lon="10.483764801174402">
        <ele>2710.5700000000002</ele>
        <time>2018-07-11T08:06:08Z</time>
      </trkpt>
      <trkpt lat="46.125138653442264" lon="10.483724065124989">
        <ele>2712.02</ele>
        <time>2018-07-11T08:06:17Z</time>
      </trkpt>
      <trkpt lat="46.125148124992847" lon="10.48368995077908">
        <ele>2713.46</ele>
        <time>2018-07-11T08:06:27Z</time>
      </trkpt>
      <trkpt lat="46.12517561763525" lon="10.483663463965058">
        <ele>2714.4200000000001</ele>
        <time>2018-07-11T08:06:39Z</time>
      </trkpt>
      <trkpt lat="46.125168995931745" lon="10.483633037656546">
        <ele>2716.8200000000002</ele>
        <time>2018-07-11T08:06:52Z</time>
      </trkpt>
      <trkpt lat="46.125186011195183" lon="10.483604539185762">
        <ele>2716.8200000000002</ele>
        <time>2018-07-11T08:07:04Z</time>
      </trkpt>
      <trkpt lat="46.12518198788166" lon="10.483588362112641">
        <ele>2717.7800000000002</ele>
        <time>2018-07-11T08:07:16Z</time>
      </trkpt>
      <trkpt lat="46.125176707282662" lon="10.483560198917985">
        <ele>2717.7800000000002</ele>
        <time>2018-07-11T08:07:26Z</time>
      </trkpt>
      <trkpt lat="46.125167738646269" lon="10.483521055430174">
        <ele>2718.75</ele>
        <time>2018-07-11T08:07:36Z</time>
      </trkpt>
      <trkpt lat="46.125167990103364" lon="10.483459951356053">
        <ele>2718.27</ele>
        <time>2018-07-11T08:07:45Z</time>
      </trkpt>
      <trkpt lat="46.125176288187504" lon="10.483453832566738">
        <ele>2718.27</ele>
        <time>2018-07-11T08:07:54Z</time>
      </trkpt>
      <trkpt lat="46.125176539644599" lon="10.483453748747706">
        <ele>2717.7800000000002</ele>
        <time>2018-07-11T08:08:08Z</time>
      </trkpt>
      <trkpt lat="46.125182323157787" lon="10.483463052660227">
        <ele>2717.3000000000002</ele>
        <time>2018-07-11T08:08:19Z</time>
      </trkpt>
      <trkpt lat="46.125189112499356" lon="10.483481325209141">
        <ele>2717.3000000000002</ele>
        <time>2018-07-11T08:08:41Z</time>
      </trkpt>
      <trkpt lat="46.125181568786502" lon="10.483473530039191">
        <ele>2717.7800000000002</ele>
        <time>2018-07-11T08:09:08Z</time>
      </trkpt>
      <trkpt lat="46.125172013416886" lon="10.483444444835186">
        <ele>2717.7800000000002</ele>
        <time>2018-07-11T08:09:29Z</time>
      </trkpt>
      <trkpt lat="46.125173857435584" lon="10.483447713777423">
        <ele>2717.7800000000002</ele>
        <time>2018-07-11T08:09:42Z</time>
      </trkpt>
      <trkpt lat="46.125177126377821" lon="10.483449893072248">
        <ele>2717.3000000000002</ele>
        <time>2018-07-11T08:09:54Z</time>
      </trkpt>
      <trkpt lat="46.125173019245267" lon="10.483457772061229">
        <ele>2717.7800000000002</ele>
        <time>2018-07-11T08:10:13Z</time>
      </trkpt>
      <trkpt lat="46.125170337036252" lon="10.483452575281262">
        <ele>2717.3000000000002</ele>
        <time>2018-07-11T08:10:29Z</time>
      </trkpt>
      <trkpt lat="46.125168409198523" lon="10.483442600816488">
        <ele>2717.7800000000002</ele>
        <time>2018-07-11T08:10:57Z</time>
      </trkpt>
      <trkpt lat="46.125173270702362" lon="10.483468165621161">
        <ele>2717.3000000000002</ele>
        <time>2018-07-11T08:11:24Z</time>
      </trkpt>
      <trkpt lat="46.125170923769474" lon="10.483466824516654">
        <ele>2717.3000000000002</ele>
        <time>2018-07-11T08:12:07Z</time>
      </trkpt>
      <trkpt lat="46.125163631513715" lon="10.483455844223499">
        <ele>2717.3000000000002</ele>
        <time>2018-07-11T08:12:35Z</time>
      </trkpt>
      <trkpt lat="46.125165894627571" lon="10.483454586938024">
        <ele>2717.3000000000002</ele>
        <time>2018-07-11T08:12:59Z</time>
      </trkpt>
      <trkpt lat="46.125171259045601" lon="10.483455257490277">
        <ele>2717.3000000000002</ele>
        <time>2018-07-11T08:13:31Z</time>
      </trkpt>
      <trkpt lat="46.125165726989508" lon="10.483447294682264">
        <ele>2717.7800000000002</ele>
        <time>2018-07-11T08:13:59Z</time>
      </trkpt>
      <trkpt lat="46.125159272924066" lon="10.483444277197123">
        <ele>2717.7800000000002</ele>
        <time>2018-07-11T08:14:30Z</time>
      </trkpt>
      <trkpt lat="46.125164302065969" lon="10.483443606644869">
        <ele>2717.7800000000002</ele>
        <time>2018-07-11T08:14:50Z</time>
      </trkpt>
      <trkpt lat="46.12515508197248" lon="10.483439499512315">
        <ele>2717.7800000000002</ele>
        <time>2018-07-11T08:15:18Z</time>
      </trkpt>
      <trkpt lat="46.125169079750776" lon="10.48345785588026">
        <ele>2717.7800000000002</ele>
        <time>2018-07-11T08:15:44Z</time>
      </trkpt>
      <trkpt lat="46.125173857435584" lon="10.48345978371799">
        <ele>2718.27</ele>
        <time>2018-07-11T08:16:11Z</time>
      </trkpt>
      <trkpt lat="46.125168493017554" lon="10.483456263318658">
        <ele>2718.27</ele>
        <time>2018-07-11T08:16:31Z</time>
      </trkpt>
      <trkpt lat="46.125176204368472" lon="10.483453329652548">
        <ele>2717.7800000000002</ele>
        <time>2018-07-11T08:16:48Z</time>
      </trkpt>
      <trkpt lat="46.125176707282662" lon="10.483457520604134">
        <ele>2718.75</ele>
        <time>2018-07-11T08:17:06Z</time>
      </trkpt>
      <trkpt lat="46.125177294015884" lon="10.48345978371799">
        <ele>2715.8600000000001</ele>
        <time>2018-07-11T08:17:18Z</time>
      </trkpt>
      <trkpt lat="46.125172348693013" lon="10.48345391638577">
        <ele>2718.27</ele>
        <time>2018-07-11T08:17:32Z</time>
      </trkpt>
      <trkpt lat="46.125166984274983" lon="10.483455760404468">
        <ele>2718.75</ele>
        <time>2018-07-11T08:17:55Z</time>
      </trkpt>
      <trkpt lat="46.125175366178155" lon="10.483455676585436">
        <ele>2718.75</ele>
        <time>2018-07-11T08:18:14Z</time>
      </trkpt>
      <trkpt lat="46.12517855130136" lon="10.483460957184434">
        <ele>2719.71</ele>
        <time>2018-07-11T08:18:25Z</time>
      </trkpt>
      <trkpt lat="46.125179138034582" lon="10.483448803424835">
        <ele>2719.71</ele>
        <time>2018-07-11T08:18:33Z</time>
      </trkpt>
      <trkpt lat="46.125181401148438" lon="10.483440672978759">
        <ele>2719.23</ele>
        <time>2018-07-11T08:18:46Z</time>
      </trkpt>
      <trkpt lat="46.12519514746964" lon="10.48343924805522">
        <ele>2720.1900000000001</ele>
        <time>2018-07-11T08:18:58Z</time>
      </trkpt>
      <trkpt lat="46.125176623463631" lon="10.483454251661897">
        <ele>2720.1900000000001</ele>
        <time>2018-07-11T08:19:10Z</time>
      </trkpt>
      <trkpt lat="46.125192297622561" lon="10.483444277197123">
        <ele>2720.1900000000001</ele>
        <time>2018-07-11T08:19:24Z</time>
      </trkpt>
      <trkpt lat="46.125178216025233" lon="10.483427261933684">
        <ele>2719.23</ele>
        <time>2018-07-11T08:19:33Z</time>
      </trkpt>
      <trkpt lat="46.125170923769474" lon="10.483390633016825">
        <ele>2719.71</ele>
        <time>2018-07-11T08:19:49Z</time>
      </trkpt>
      <trkpt lat="46.125191627070308" lon="10.483340928331017">
        <ele>2721.1500000000001</ele>
        <time>2018-07-11T08:19:57Z</time>
      </trkpt>
      <trkpt lat="46.125216353684664" lon="10.483301868662238">
        <ele>2723.0700000000002</ele>
        <time>2018-07-11T08:20:07Z</time>
      </trkpt>
      <trkpt lat="46.125219287350774" lon="10.483243195340037">
        <ele>2724.0300000000002</ele>
        <time>2018-07-11T08:20:17Z</time>
      </trkpt>
      <trkpt lat="46.125237895175815" lon="10.483203800395131">
        <ele>2724.9899999999998</ele>
        <time>2018-07-11T08:20:28Z</time>
      </trkpt>
      <trkpt lat="46.125273853540421" lon="10.483196172863245">
        <ele>2726.4400000000001</ele>
        <time>2018-07-11T08:20:38Z</time>
      </trkpt>
      <trkpt lat="46.125278798863292" lon="10.483170356601477">
        <ele>2727.4000000000001</ele>
        <time>2018-07-11T08:20:46Z</time>
      </trkpt>
      <trkpt lat="46.125310063362122" lon="10.483125010505319">
        <ele>2729.3200000000002</ele>
        <time>2018-07-11T08:20:57Z</time>
      </trkpt>
      <trkpt lat="46.125305369496346" lon="10.483057368546724">
        <ele>2729.8000000000002</ele>
        <time>2018-07-11T08:21:08Z</time>
      </trkpt>
      <trkpt lat="46.125306207686663" lon="10.482993246987462">
        <ele>2731.7199999999998</ele>
        <time>2018-07-11T08:21:19Z</time>
      </trkpt>
      <trkpt lat="46.125321378931403" lon="10.482938596978784">
        <ele>2732.6799999999998</ele>
        <time>2018-07-11T08:21:28Z</time>
      </trkpt>
      <trkpt lat="46.125335460528731" lon="10.482913367450237">
        <ele>2734.1300000000001</ele>
        <time>2018-07-11T08:21:39Z</time>
      </trkpt>
      <trkpt lat="46.125338729470968" lon="10.482876822352409">
        <ele>2735.5700000000002</ele>
        <time>2018-07-11T08:21:49Z</time>
      </trkpt>
      <trkpt lat="46.125364964827895" lon="10.482854610309005">
        <ele>2736.0500000000002</ele>
        <time>2018-07-11T08:22:01Z</time>
      </trkpt>
      <trkpt lat="46.125358175486326" lon="10.482836086302996">
        <ele>2736.5300000000002</ele>
        <time>2018-07-11T08:22:05Z</time>
      </trkpt>
      <trkpt lat="46.125346608459949" lon="10.482748746871948">
        <ele>2736.5300000000002</ele>
        <time>2018-07-11T08:22:15Z</time>
      </trkpt>
      <trkpt lat="46.125349793583155" lon="10.48267750069499">
        <ele>2737.9699999999998</ele>
        <time>2018-07-11T08:22:25Z</time>
      </trkpt>
      <trkpt lat="46.125330766662955" lon="10.482620587572455">
        <ele>2737.9699999999998</ele>
        <time>2018-07-11T08:22:35Z</time>
      </trkpt>
      <trkpt lat="46.12532950937748" lon="10.482573229819536">
        <ele>2739.4099999999999</ele>
        <time>2018-07-11T08:22:45Z</time>
      </trkpt>
      <trkpt lat="46.12531341612339" lon="10.482521513476968">
        <ele>2739.8899999999999</ele>
        <time>2018-07-11T08:22:55Z</time>
      </trkpt>
      <trkpt lat="46.125338478013873" lon="10.482510533183813">
        <ele>2741.3400000000001</ele>
        <time>2018-07-11T08:23:04Z</time>
      </trkpt>
      <trkpt lat="46.125336717814207" lon="10.482437275350094">
        <ele>2742.3000000000002</ele>
        <time>2018-07-11T08:23:16Z</time>
      </trkpt>
      <trkpt lat="46.125327246263623" lon="10.482418332248926">
        <ele>2741.3400000000001</ele>
        <time>2018-07-11T08:23:22Z</time>
      </trkpt>
      <trkpt lat="46.125353230163455" lon="10.482319677248597">
        <ele>2741.3400000000001</ele>
        <time>2018-07-11T08:23:34Z</time>
      </trkpt>
      <trkpt lat="46.125344932079315" lon="10.482268966734409">
        <ele>2741.3400000000001</ele>
        <time>2018-07-11T08:23:47Z</time>
      </trkpt>
      <trkpt lat="46.125386254861951" lon="10.482207024469972">
        <ele>2742.3000000000002</ele>
        <time>2018-07-11T08:23:57Z</time>
      </trkpt>
      <trkpt lat="46.12539648078382" lon="10.482146674767137">
        <ele>2742.7800000000002</ele>
        <time>2018-07-11T08:24:06Z</time>
      </trkpt>
      <trkpt lat="46.125404695048928" lon="10.482067046687007">
        <ele>2743.2600000000002</ele>
        <time>2018-07-11T08:24:18Z</time>
      </trkpt>
      <trkpt lat="46.12540234811604" lon="10.482037290930748">
        <ele>2743.2600000000002</ele>
        <time>2018-07-11T08:24:26Z</time>
      </trkpt>
      <trkpt lat="46.125403689220548" lon="10.482004098594189">
        <ele>2742.7800000000002</ele>
        <time>2018-07-11T08:24:31Z</time>
      </trkpt>
      <trkpt lat="46.125405952334404" lon="10.482002589851618">
        <ele>2742.7800000000002</ele>
        <time>2018-07-11T08:24:41Z</time>
      </trkpt>
      <trkpt lat="46.125414501875639" lon="10.481949113309383">
        <ele>2742.7800000000002</ele>
        <time>2018-07-11T08:24:53Z</time>
      </trkpt>
      <trkpt lat="46.125408802181482" lon="10.481911730021238">
        <ele>2742.7800000000002</ele>
        <time>2018-07-11T08:24:59Z</time>
      </trkpt>
      <trkpt lat="46.125394552946091" lon="10.481857415288687">
        <ele>2742.3000000000002</ele>
        <time>2018-07-11T08:25:08Z</time>
      </trkpt>
      <trkpt lat="46.12539547495544" lon="10.481800837442279">
        <ele>2741.8200000000002</ele>
        <time>2018-07-11T08:25:16Z</time>
      </trkpt>
      <trkpt lat="46.125391284003854" lon="10.481753144413233">
        <ele>2742.7800000000002</ele>
        <time>2018-07-11T08:25:25Z</time>
      </trkpt>
      <trkpt lat="46.12539597786963" lon="10.481694722548127">
        <ele>2742.7800000000002</ele>
        <time>2018-07-11T08:25:35Z</time>
      </trkpt>
      <trkpt lat="46.125407125800848" lon="10.481645604595542">
        <ele>2742.7800000000002</ele>
        <time>2018-07-11T08:25:45Z</time>
      </trkpt>
      <trkpt lat="46.125401258468628" lon="10.481676617637277">
        <ele>2742.7800000000002</ele>
        <time>2018-07-11T08:25:56Z</time>
      </trkpt>
      <trkpt lat="46.125380638986826" lon="10.481622973456979">
        <ele>2743.2600000000002</ele>
        <time>2018-07-11T08:26:04Z</time>
      </trkpt>
      <trkpt lat="46.12537594512105" lon="10.48162791877985">
        <ele>2743.2600000000002</ele>
        <time>2018-07-11T08:26:05Z</time>
      </trkpt>
      <trkpt lat="46.125342585146427" lon="10.48160495236516">
        <ele>2743.2600000000002</ele>
        <time>2018-07-11T08:26:11Z</time>
      </trkpt>
      <trkpt lat="46.125345351174474" lon="10.481545943766832">
        <ele>2744.2199999999998</ele>
        <time>2018-07-11T08:26:20Z</time>
      </trkpt>
      <trkpt lat="46.125321965664625" lon="10.481518786400557">
        <ele>2743.7399999999998</ele>
        <time>2018-07-11T08:26:32Z</time>
      </trkpt>
      <trkpt lat="46.125327330082655" lon="10.481505710631609">
        <ele>2744.2199999999998</ele>
        <time>2018-07-11T08:26:42Z</time>
      </trkpt>
      <trkpt lat="46.125316685065627" lon="10.481456844136119">
        <ele>2743.2600000000002</ele>
        <time>2018-07-11T08:26:53Z</time>
      </trkpt>
      <trkpt lat="46.12530218437314" lon="10.481424741446972">
        <ele>2742.3000000000002</ele>
        <time>2018-07-11T08:26:59Z</time>
      </trkpt>
      <trkpt lat="46.125308554619551" lon="10.481371432542801">
        <ele>2742.7800000000002</ele>
        <time>2018-07-11T08:27:09Z</time>
      </trkpt>
      <trkpt lat="46.125298328697681" lon="10.481354920193553">
        <ele>2743.2600000000002</ele>
        <time>2018-07-11T08:27:12Z</time>
      </trkpt>
      <trkpt lat="46.125289527699351" lon="10.481322482228279">
        <ele>2742.7800000000002</ele>
        <time>2018-07-11T08:27:23Z</time>
      </trkpt>
      <trkpt lat="46.125292796641588" lon="10.481371432542801">
        <ele>2742.7800000000002</ele>
        <time>2018-07-11T08:27:36Z</time>
      </trkpt>
      <trkpt lat="46.125291539356112" lon="10.481364391744137">
        <ele>2742.3000000000002</ele>
        <time>2018-07-11T08:27:47Z</time>
      </trkpt>
      <trkpt lat="46.125282989814878" lon="10.481339748948812">
        <ele>2741.8200000000002</ele>
        <time>2018-07-11T08:27:55Z</time>
      </trkpt>
      <trkpt lat="46.125273182988167" lon="10.481319967657328">
        <ele>2740.8600000000001</ele>
        <time>2018-07-11T08:28:05Z</time>
      </trkpt>
      <trkpt lat="46.125266561284661" lon="10.481300856918097">
        <ele>2740.8600000000001</ele>
        <time>2018-07-11T08:28:07Z</time>
      </trkpt>
      <trkpt lat="46.125288521870971" lon="10.481200525537133">
        <ele>2741.3400000000001</ele>
        <time>2018-07-11T08:28:18Z</time>
      </trkpt>
      <trkpt lat="46.125294975936413" lon="10.481181163340807">
        <ele>2741.3400000000001</ele>
        <time>2018-07-11T08:28:20Z</time>
      </trkpt>
      <trkpt lat="46.125284163281322" lon="10.481183426454663">
        <ele>2741.3400000000001</ele>
        <time>2018-07-11T08:28:27Z</time>
      </trkpt>
      <trkpt lat="46.125266561284661" lon="10.481167584657669">
        <ele>2740.3800000000001</ele>
        <time>2018-07-11T08:28:34Z</time>
      </trkpt>
      <trkpt lat="46.125274524092674" lon="10.481098098680377">
        <ele>2738.9299999999998</ele>
        <time>2018-07-11T08:28:41Z</time>
      </trkpt>
      <trkpt lat="46.12528407946229" lon="10.481022577732801">
        <ele>2739.4099999999999</ele>
        <time>2018-07-11T08:28:50Z</time>
      </trkpt>
      <trkpt lat="46.125309141352773" lon="10.481003550812602">
        <ele>2739.8899999999999</ele>
        <time>2018-07-11T08:29:06Z</time>
      </trkpt>
      <trkpt lat="46.125283995643258" lon="10.480966502800584">
        <ele>2740.3800000000001</ele>
        <time>2018-07-11T08:29:17Z</time>
      </trkpt>
      <trkpt lat="46.125288773328066" lon="10.480958623811603">
        <ele>2740.3800000000001</ele>
        <time>2018-07-11T08:29:29Z</time>
      </trkpt>
      <trkpt lat="46.125269243493676" lon="10.48102349974215">
        <ele>2739.8899999999999</ele>
        <time>2018-07-11T08:29:48Z</time>
      </trkpt>
      <trkpt lat="46.125254156067967" lon="10.481038419529796">
        <ele>2739.8899999999999</ele>
        <time>2018-07-11T08:30:08Z</time>
      </trkpt>
      <trkpt lat="46.125271003693342" lon="10.481004808098078">
        <ele>2740.3800000000001</ele>
        <time>2018-07-11T08:30:16Z</time>
      </trkpt>
      <trkpt lat="46.12528801895678" lon="10.480967843905091">
        <ele>2740.3800000000001</ele>
        <time>2018-07-11T08:30:25Z</time>
      </trkpt>
      <trkpt lat="46.125284917652607" lon="10.480949403718114">
        <ele>2740.3800000000001</ele>
        <time>2018-07-11T08:30:43Z</time>
      </trkpt>
      <trkpt lat="46.125274021178484" lon="10.480929454788566">
        <ele>2740.8600000000001</ele>
        <time>2018-07-11T08:30:56Z</time>
      </trkpt>
      <trkpt lat="46.125288605690002" lon="10.480890478938818">
        <ele>2741.8200000000002</ele>
        <time>2018-07-11T08:31:09Z</time>
      </trkpt>
      <trkpt lat="46.125274272635579" lon="10.480854939669371">
        <ele>2742.3000000000002</ele>
        <time>2018-07-11T08:31:23Z</time>
      </trkpt>
      <trkpt lat="46.125299669802189" lon="10.480753351002932">
        <ele>2743.2600000000002</ele>
        <time>2018-07-11T08:31:33Z</time>
      </trkpt>
      <trkpt lat="46.125337472185493" lon="10.480719907209277">
        <ele>2743.7399999999998</ele>
        <time>2018-07-11T08:31:41Z</time>
      </trkpt>
      <trkpt lat="46.125380052253604" lon="10.480629215016961">
        <ele>2742.7800000000002</ele>
        <time>2018-07-11T08:31:51Z</time>
      </trkpt>
      <trkpt lat="46.125417100265622" lon="10.480583282187581">
        <ele>2744.2199999999998</ele>
        <time>2018-07-11T08:32:03Z</time>
      </trkpt>
      <trkpt lat="46.125433277338743" lon="10.480552520602942">
        <ele>2744.6999999999998</ele>
        <time>2018-07-11T08:32:13Z</time>
      </trkpt>
      <trkpt lat="46.125452639535069" lon="10.480516813695431">
        <ele>2746.1399999999999</ele>
        <time>2018-07-11T08:32:23Z</time>
      </trkpt>
      <trkpt lat="46.125466302037239" lon="10.480499127879739">
        <ele>2745.6599999999999</ele>
        <time>2018-07-11T08:32:32Z</time>
      </trkpt>
      <trkpt lat="46.125459596514702" lon="10.480482950806618">
        <ele>2746.1399999999999</ele>
        <time>2018-07-11T08:32:43Z</time>
      </trkpt>
      <trkpt lat="46.125463703647256" lon="10.480431653559208">
        <ele>2746.6199999999999</ele>
        <time>2018-07-11T08:32:54Z</time>
      </trkpt>
      <trkpt lat="46.125472756102681" lon="10.480383038520813">
        <ele>2748.5500000000002</ele>
        <time>2018-07-11T08:33:06Z</time>
      </trkpt>
      <trkpt lat="46.12548298202455" lon="10.480342973023653">
        <ele>2749.0300000000002</ele>
        <time>2018-07-11T08:33:18Z</time>
      </trkpt>
      <trkpt lat="46.125461691990495" lon="10.48035797663033">
        <ele>2749.5100000000002</ele>
        <time>2018-07-11T08:33:26Z</time>
      </trkpt>
      <trkpt lat="46.12547317519784" lon="10.480335764586926">
        <ele>2749.0300000000002</ele>
        <time>2018-07-11T08:33:40Z</time>
      </trkpt>
      <trkpt lat="46.125468313694" lon="10.48029838129878">
        <ele>2749.9899999999998</ele>
        <time>2018-07-11T08:33:49Z</time>
      </trkpt>
      <trkpt lat="46.125504523515701" lon="10.480283461511135">
        <ele>2750.9499999999998</ele>
        <time>2018-07-11T08:34:00Z</time>
      </trkpt>
      <trkpt lat="46.125466721132398" lon="10.480255549773574">
        <ele>2751.4299999999998</ele>
        <time>2018-07-11T08:34:09Z</time>
      </trkpt>
      <trkpt lat="46.125479377806187" lon="10.480254963040352">
        <ele>2751.4299999999998</ele>
        <time>2018-07-11T08:34:19Z</time>
      </trkpt>
      <trkpt lat="46.125498823821545" lon="10.480294106528163">
        <ele>2750.9499999999998</ele>
        <time>2018-07-11T08:34:29Z</time>
      </trkpt>
      <trkpt lat="46.125479293987155" lon="10.480313468724489">
        <ele>2750.9499999999998</ele>
        <time>2018-07-11T08:34:39Z</time>
      </trkpt>
      <trkpt lat="46.125458339229226" lon="10.480319503694773">
        <ele>2750.4699999999998</ele>
        <time>2018-07-11T08:34:55Z</time>
      </trkpt>
      <trkpt lat="46.125475605949759" lon="10.480291759595275">
        <ele>2749.5100000000002</ele>
        <time>2018-07-11T08:35:06Z</time>
      </trkpt>
      <trkpt lat="46.125466972589493" lon="10.480260411277413">
        <ele>2749.0300000000002</ele>
        <time>2018-07-11T08:35:18Z</time>
      </trkpt>
      <trkpt lat="46.12546730786562" lon="10.4802490118891">
        <ele>2749.9899999999998</ele>
        <time>2018-07-11T08:35:33Z</time>
      </trkpt>
      <trkpt lat="46.125480132177472" lon="10.480209952220321">
        <ele>2751.4299999999998</ele>
        <time>2018-07-11T08:35:43Z</time>
      </trkpt>
      <trkpt lat="46.125492118299007" lon="10.480177346616983">
        <ele>2752.3899999999999</ele>
        <time>2018-07-11T08:35:52Z</time>
      </trkpt>
      <trkpt lat="46.125503350049257" lon="10.480155888944864">
        <ele>2753.8299999999999</ele>
        <time>2018-07-11T08:36:02Z</time>
      </trkpt>
      <trkpt lat="46.125520700588822" lon="10.480123618617654">
        <ele>2755.2800000000002</ele>
        <time>2018-07-11T08:36:12Z</time>
      </trkpt>
      <trkpt lat="46.125520868226886" lon="10.480129653587937">
        <ele>2756.2399999999998</ele>
        <time>2018-07-11T08:36:21Z</time>
      </trkpt>
      <trkpt lat="46.125531680881977" lon="10.480087408795953">
        <ele>2756.7199999999998</ele>
        <time>2018-07-11T08:36:31Z</time>
      </trkpt>
      <trkpt lat="46.125552803277969" lon="10.480058994144201">
        <ele>2757.6799999999998</ele>
        <time>2018-07-11T08:36:43Z</time>
      </trkpt>
      <trkpt lat="46.125550707802176" lon="10.480050360783935">
        <ele>2758.6399999999999</ele>
        <time>2018-07-11T08:36:55Z</time>
      </trkpt>
      <trkpt lat="46.125548696145415" lon="10.480044241994619">
        <ele>2759.5999999999999</ele>
        <time>2018-07-11T08:37:04Z</time>
      </trkpt>
      <trkpt lat="46.125577613711357" lon="10.480040637776256">
        <ele>2760.0799999999999</ele>
        <time>2018-07-11T08:37:15Z</time>
      </trkpt>
      <trkpt lat="46.125573758035898" lon="10.480020940303802">
        <ele>2761.52</ele>
        <time>2018-07-11T08:37:24Z</time>
      </trkpt>
      <trkpt lat="46.125599909573793" lon="10.480023538693786">
        <ele>2762.4899999999998</ele>
        <time>2018-07-11T08:37:31Z</time>
      </trkpt>
      <trkpt lat="46.125635951757431" lon="10.480023454874754">
        <ele>2764.4099999999999</ele>
        <time>2018-07-11T08:37:42Z</time>
      </trkpt>
      <trkpt lat="46.125613739714026" lon="10.479975175112486">
        <ele>2765.3699999999999</ele>
        <time>2018-07-11T08:37:53Z</time>
      </trkpt>
      <trkpt lat="46.125643663108349" lon="10.479976180940866">
        <ele>2766.8099999999999</ele>
        <time>2018-07-11T08:38:03Z</time>
      </trkpt>
      <trkpt lat="46.125670233741403" lon="10.480003673583269">
        <ele>2767.77</ele>
        <time>2018-07-11T08:38:11Z</time>
      </trkpt>
      <trkpt lat="46.125684231519699" lon="10.480010714381933">
        <ele>2768.73</ele>
        <time>2018-07-11T08:38:21Z</time>
      </trkpt>
      <trkpt lat="46.125690266489983" lon="10.479975761845708">
        <ele>2769.6999999999998</ele>
        <time>2018-07-11T08:38:32Z</time>
      </trkpt>
      <trkpt lat="46.125720608979464" lon="10.479969894513488">
        <ele>2771.6199999999999</ele>
        <time>2018-07-11T08:38:39Z</time>
      </trkpt>
      <trkpt lat="46.125687919557095" lon="10.47995874658227">
        <ele>2772.5799999999999</ele>
        <time>2018-07-11T08:38:51Z</time>
      </trkpt>
      <trkpt lat="46.125710047781467" lon="10.479900576174259">
        <ele>2774.02</ele>
        <time>2018-07-11T08:39:03Z</time>
      </trkpt>
      <trkpt lat="46.125747179612517" lon="10.479860259220004">
        <ele>2775.9400000000001</ele>
        <time>2018-07-11T08:39:14Z</time>
      </trkpt>
      <trkpt lat="46.125753549858928" lon="10.479833269491792">
        <ele>2777.3899999999999</ele>
        <time>2018-07-11T08:39:23Z</time>
      </trkpt>
      <trkpt lat="46.125732678920031" lon="10.479795467108488">
        <ele>2778.3499999999999</ele>
        <time>2018-07-11T08:39:34Z</time>
      </trkpt>
      <trkpt lat="46.125758495181799" lon="10.479745846241713">
        <ele>2779.79</ele>
        <time>2018-07-11T08:39:44Z</time>
      </trkpt>
      <trkpt lat="46.125779114663601" lon="10.479680802673101">
        <ele>2781.71</ele>
        <time>2018-07-11T08:39:54Z</time>
      </trkpt>
      <trkpt lat="46.12579227425158" lon="10.479710977524519">
        <ele>2783.1500000000001</ele>
        <time>2018-07-11T08:40:04Z</time>
      </trkpt>
      <trkpt lat="46.125817839056253" lon="10.479716174304485">
        <ele>2784.5999999999999</ele>
        <time>2018-07-11T08:40:15Z</time>
      </trkpt>
      <trkpt lat="46.125856311991811" lon="10.479689100757241">
        <ele>2786.04</ele>
        <time>2018-07-11T08:40:24Z</time>
      </trkpt>
      <trkpt lat="46.125851450487971" lon="10.479659345000982">
        <ele>2787.48</ele>
        <time>2018-07-11T08:40:34Z</time>
      </trkpt>
      <trkpt lat="46.125871064141393" lon="10.479708043858409">
        <ele>2788.9200000000001</ele>
        <time>2018-07-11T08:40:43Z</time>
      </trkpt>
      <trkpt lat="46.125895287841558" lon="10.479690777137876">
        <ele>2790.3600000000001</ele>
        <time>2018-07-11T08:40:53Z</time>
      </trkpt>
      <trkpt lat="46.125925797969103" lon="10.479716677218676">
        <ele>2792.29</ele>
        <time>2018-07-11T08:41:03Z</time>
      </trkpt>
      <trkpt lat="46.125942394137383" lon="10.479701925069094">
        <ele>2793.25</ele>
        <time>2018-07-11T08:41:11Z</time>
      </trkpt>
      <trkpt lat="46.125958068296313" lon="10.47972765751183">
        <ele>2794.6900000000001</ele>
        <time>2018-07-11T08:41:22Z</time>
      </trkpt>
      <trkpt lat="46.125979525968432" lon="10.479734530672431">
        <ele>2796.1300000000001</ele>
        <time>2018-07-11T08:41:33Z</time>
      </trkpt>
      <trkpt lat="46.126012047752738" lon="10.479715084657073">
        <ele>2798.0500000000002</ele>
        <time>2018-07-11T08:41:42Z</time>
      </trkpt>
      <trkpt lat="46.126038283109665" lon="10.479688178747892">
        <ele>2799.5</ele>
        <time>2018-07-11T08:41:53Z</time>
      </trkpt>
      <trkpt lat="46.126066949218512" lon="10.47970712184906">
        <ele>2801.4200000000001</ele>
        <time>2018-07-11T08:42:03Z</time>
      </trkpt>
      <trkpt lat="46.126080863177776" lon="10.479695471003652">
        <ele>2802.3800000000001</ele>
        <time>2018-07-11T08:42:11Z</time>
      </trkpt>
      <trkpt lat="46.126085389405489" lon="10.479663368314505">
        <ele>2803.3400000000001</ele>
        <time>2018-07-11T08:42:21Z</time>
      </trkpt>
      <trkpt lat="46.126075414940715" lon="10.479618106037378">
        <ele>2805.2600000000002</ele>
        <time>2018-07-11T08:42:32Z</time>
      </trkpt>
      <trkpt lat="46.126073906198144" lon="10.479588098824024">
        <ele>2807.1900000000001</ele>
        <time>2018-07-11T08:42:42Z</time>
      </trkpt>
      <trkpt lat="46.126089747995138" lon="10.47960301861167">
        <ele>2808.6300000000001</ele>
        <time>2018-07-11T08:42:53Z</time>
      </trkpt>
      <trkpt lat="46.126125957816839" lon="10.479586003348231">
        <ele>2810.0700000000002</ele>
        <time>2018-07-11T08:43:04Z</time>
      </trkpt>
      <trkpt lat="46.12613576464355" lon="10.479546440765262">
        <ele>2812.4699999999998</ele>
        <time>2018-07-11T08:43:15Z</time>
      </trkpt>
      <trkpt lat="46.126152779906988" lon="10.479555241763592">
        <ele>2813.4400000000001</ele>
        <time>2018-07-11T08:43:25Z</time>
      </trkpt>
      <trkpt lat="46.126149846240878" lon="10.47952925786376">
        <ele>2814.4000000000001</ele>
        <time>2018-07-11T08:43:33Z</time>
      </trkpt>
      <trkpt lat="46.126169124618173" lon="10.47952632419765">
        <ele>2815.3600000000001</ele>
        <time>2018-07-11T08:43:41Z</time>
      </trkpt>
      <trkpt lat="46.126186391338706" lon="10.479541914537549">
        <ele>2816.8000000000002</ele>
        <time>2018-07-11T08:43:50Z</time>
      </trkpt>
      <trkpt lat="46.126180607825518" lon="10.479511488229036">
        <ele>2817.7600000000002</ele>
        <time>2018-07-11T08:43:58Z</time>
      </trkpt>
      <trkpt lat="46.12619929946959" lon="10.479493048042059">
        <ele>2819.6799999999998</ele>
        <time>2018-07-11T08:44:10Z</time>
      </trkpt>
      <trkpt lat="46.126227295026183" lon="10.479486929252744">
        <ele>2820.6500000000001</ele>
        <time>2018-07-11T08:44:21Z</time>
      </trkpt>
      <trkpt lat="46.126242214813828" lon="10.479470584541559">
        <ele>2822.0900000000001</ele>
        <time>2018-07-11T08:44:32Z</time>
      </trkpt>
      <trkpt lat="46.126243555918336" lon="10.479461280629039">
        <ele>2823.5300000000002</ele>
        <time>2018-07-11T08:44:42Z</time>
      </trkpt>
      <trkpt lat="46.126236766576767" lon="10.479433704167604">
        <ele>2825.4499999999998</ele>
        <time>2018-07-11T08:44:53Z</time>
      </trkpt>
      <trkpt lat="46.126273730769753" lon="10.479432698339224">
        <ele>2826.8899999999999</ele>
        <time>2018-07-11T08:45:02Z</time>
      </trkpt>
      <trkpt lat="46.126271216198802" lon="10.479458179324865">
        <ele>2825.9299999999998</ele>
        <time>2018-07-11T08:45:18Z</time>
      </trkpt>
      <trkpt lat="46.12628529779613" lon="10.479471758008003">
        <ele>2826.8899999999999</ele>
        <time>2018-07-11T08:45:32Z</time>
      </trkpt>
      <trkpt lat="46.126281609758735" lon="10.479441583156586">
        <ele>2827.8499999999999</ele>
        <time>2018-07-11T08:45:42Z</time>
      </trkpt>
      <trkpt lat="46.126299714669585" lon="10.479432865977287">
        <ele>2828.8200000000002</ele>
        <time>2018-07-11T08:45:55Z</time>
      </trkpt>
      <trkpt lat="46.126307090744376" lon="10.479427920654416">
        <ele>2828.3400000000001</ele>
        <time>2018-07-11T08:46:09Z</time>
      </trkpt>
      <trkpt lat="46.126315724104643" lon="10.479417778551579">
        <ele>2828.8200000000002</ele>
        <time>2018-07-11T08:46:22Z</time>
      </trkpt>
      <trkpt lat="46.126308850944042" lon="10.479428004473448">
        <ele>2828.8200000000002</ele>
        <time>2018-07-11T08:46:36Z</time>
      </trkpt>
      <trkpt lat="46.126294936984777" lon="10.479452647268772">
        <ele>2828.8200000000002</ele>
        <time>2018-07-11T08:46:52Z</time>
      </trkpt>
      <trkpt lat="46.126303235068917" lon="10.479460190981627">
        <ele>2828.8200000000002</ele>
        <time>2018-07-11T08:47:01Z</time>
      </trkpt>
      <trkpt lat="46.126319412142038" lon="10.479455329477787">
        <ele>2829.7800000000002</ele>
        <time>2018-07-11T08:47:11Z</time>
      </trkpt>
      <trkpt lat="46.12632293254137" lon="10.479441750794649">
        <ele>2830.2600000000002</ele>
        <time>2018-07-11T08:47:24Z</time>
      </trkpt>
      <trkpt lat="46.126327961683273" lon="10.479439236223698">
        <ele>2830.2600000000002</ele>
        <time>2018-07-11T08:47:43Z</time>
      </trkpt>
      <trkpt lat="46.126326872035861" lon="10.479439739137888">
        <ele>2830.2600000000002</ele>
        <time>2018-07-11T08:48:03Z</time>
      </trkpt>
      <trkpt lat="46.126313209533691" lon="10.479448540136218">
        <ele>2829.7800000000002</ele>
        <time>2018-07-11T08:48:18Z</time>
      </trkpt>
      <trkpt lat="46.1263058334589" lon="10.479445187374949">
        <ele>2829.7800000000002</ele>
        <time>2018-07-11T08:48:32Z</time>
      </trkpt>
      <trkpt lat="46.126301977783442" lon="10.479426579549909">
        <ele>2828.8200000000002</ele>
        <time>2018-07-11T08:48:42Z</time>
      </trkpt>
      <trkpt lat="46.126304408535361" lon="10.479439320042729">
        <ele>2828.8200000000002</ele>
        <time>2018-07-11T08:48:55Z</time>
      </trkpt>
      <trkpt lat="46.126298373565078" lon="10.479439403861761">
        <ele>2828.8200000000002</ele>
        <time>2018-07-11T08:49:11Z</time>
      </trkpt>
      <trkpt lat="46.126300804316998" lon="10.479435967281461">
        <ele>2828.8200000000002</ele>
        <time>2018-07-11T08:49:22Z</time>
      </trkpt>
      <trkpt lat="46.126297367736697" lon="10.479393471032381">
        <ele>2827.3699999999999</ele>
        <time>2018-07-11T08:49:31Z</time>
      </trkpt>
      <trkpt lat="46.126301558688283" lon="10.479380059987307">
        <ele>2825.4499999999998</ele>
        <time>2018-07-11T08:49:42Z</time>
      </trkpt>
      <trkpt lat="46.126294266432524" lon="10.479353992268443">
        <ele>2824.4899999999998</ele>
        <time>2018-07-11T08:49:54Z</time>
      </trkpt>
      <trkpt lat="46.126317568123341" lon="10.479303700849414">
        <ele>2823.0500000000002</ele>
        <time>2018-07-11T08:50:04Z</time>
      </trkpt>
      <trkpt lat="46.126323854550719" lon="10.479331025853753">
        <ele>2823.0500000000002</ele>
        <time>2018-07-11T08:50:17Z</time>
      </trkpt>
      <trkpt lat="46.126305498182774" lon="10.479322727769613">
        <ele>2823.0500000000002</ele>
        <time>2018-07-11T08:50:30Z</time>
      </trkpt>
      <trkpt lat="46.126300552859902" lon="10.479364972561598">
        <ele>2823.5300000000002</ele>
        <time>2018-07-11T08:50:44Z</time>
      </trkpt>
      <trkpt lat="46.12629946321249" lon="10.479367151856422">
        <ele>2824.4899999999998</ele>
        <time>2018-07-11T08:50:52Z</time>
      </trkpt>
      <trkpt lat="46.126318071037531" lon="10.47929959371686">
        <ele>2824.0100000000002</ele>
        <time>2018-07-11T08:51:03Z</time>
      </trkpt>
      <trkpt lat="46.126311952248216" lon="10.479313004761934">
        <ele>2823.0500000000002</ele>
        <time>2018-07-11T08:51:16Z</time>
      </trkpt>
      <trkpt lat="46.126307845115662" lon="10.47932063229382">
        <ele>2823.0500000000002</ele>
        <time>2018-07-11T08:51:31Z</time>
      </trkpt>
      <trkpt lat="46.126271216198802" lon="10.479267658665776">
        <ele>2822.0900000000001</ele>
        <time>2018-07-11T08:51:44Z</time>
      </trkpt>
      <trkpt lat="46.126284124329686" lon="10.479222564026713">
        <ele>2820.6500000000001</ele>
        <time>2018-07-11T08:51:57Z</time>
      </trkpt>
      <trkpt lat="46.126283369958401" lon="10.479226922616363">
        <ele>2819.6799999999998</ele>
        <time>2018-07-11T08:52:10Z</time>
      </trkpt>
      <trkpt lat="46.126310024410486" lon="10.479194233193994">
        <ele>2818.7199999999998</ele>
        <time>2018-07-11T08:52:21Z</time>
      </trkpt>
      <trkpt lat="46.1263058334589" lon="10.479206889867783">
        <ele>2817.7600000000002</ele>
        <time>2018-07-11T08:52:29Z</time>
      </trkpt>
      <trkpt lat="46.126285465434194" lon="10.479236310347915">
        <ele>2817.2800000000002</ele>
        <time>2018-07-11T08:52:45Z</time>
      </trkpt>
      <trkpt lat="46.126280520111322" lon="10.479148887097836">
        <ele>2816.3200000000002</ele>
        <time>2018-07-11T08:52:56Z</time>
      </trkpt>
      <trkpt lat="46.12627842463553" lon="10.47910999506712">
        <ele>2814.8800000000001</ele>
        <time>2018-07-11T08:53:06Z</time>
      </trkpt>
      <trkpt lat="46.126269288361073" lon="10.479119382798672">
        <ele>2814.4000000000001</ele>
        <time>2018-07-11T08:53:20Z</time>
      </trkpt>
      <trkpt lat="46.126297870650887" lon="10.479113180190325">
        <ele>2813.9200000000001</ele>
        <time>2018-07-11T08:53:39Z</time>
      </trkpt>
      <trkpt lat="46.126303067430854" lon="10.479098008945584">
        <ele>2813.4400000000001</ele>
        <time>2018-07-11T08:53:52Z</time>
      </trkpt>
      <trkpt lat="46.126310946419835" lon="10.479086274281144">
        <ele>2812.4699999999998</ele>
        <time>2018-07-11T08:54:01Z</time>
      </trkpt>
      <trkpt lat="46.126318825408816" lon="10.479097841307521">
        <ele>2811.9899999999998</ele>
        <time>2018-07-11T08:54:15Z</time>
      </trkpt>
      <trkpt lat="46.126322513446212" lon="10.479106642305851">
        <ele>2810.5500000000002</ele>
        <time>2018-07-11T08:54:28Z</time>
      </trkpt>
      <trkpt lat="46.126331817358732" lon="10.479120723903179">
        <ele>2810.0700000000002</ele>
        <time>2018-07-11T08:54:38Z</time>
      </trkpt>
      <trkpt lat="46.126326620578766" lon="10.479095242917538">
        <ele>2809.1100000000001</ele>
        <time>2018-07-11T08:54:48Z</time>
      </trkpt>
      <trkpt lat="46.126307342201471" lon="10.479056853801012">
        <ele>2808.6300000000001</ele>
        <time>2018-07-11T08:55:00Z</time>
      </trkpt>
      <trkpt lat="46.126300133764744" lon="10.479049729183316">
        <ele>2808.6300000000001</ele>
        <time>2018-07-11T08:55:10Z</time>
      </trkpt>
      <trkpt lat="46.126305582001805" lon="10.479044280946255">
        <ele>2808.1500000000001</ele>
        <time>2018-07-11T08:55:21Z</time>
      </trkpt>
      <trkpt lat="46.126319831237197" lon="10.479030953720212">
        <ele>2806.71</ele>
        <time>2018-07-11T08:55:30Z</time>
      </trkpt>
      <trkpt lat="46.126345479860902" lon="10.479022739455104">
        <ele>2806.23</ele>
        <time>2018-07-11T08:55:43Z</time>
      </trkpt>
      <trkpt lat="46.12634539604187" lon="10.479009412229061">
        <ele>2805.2600000000002</ele>
        <time>2018-07-11T08:55:53Z</time>
      </trkpt>
      <trkpt lat="46.126342881470919" lon="10.479018548503518">
        <ele>2804.7800000000002</ele>
        <time>2018-07-11T08:56:00Z</time>
      </trkpt>
      <trkpt lat="46.126343300566077" lon="10.478980829939246">
        <ele>2803.3400000000001</ele>
        <time>2018-07-11T08:56:08Z</time>
      </trkpt>
      <trkpt lat="46.126340283080935" lon="10.478974292054772">
        <ele>2802.8600000000001</ele>
        <time>2018-07-11T08:56:17Z</time>
      </trkpt>
      <trkpt lat="46.126340785995126" lon="10.478959456086159">
        <ele>2801.9000000000001</ele>
        <time>2018-07-11T08:56:26Z</time>
      </trkpt>
      <trkpt lat="46.126332236453891" lon="10.478956941515207">
        <ele>2800.9400000000001</ele>
        <time>2018-07-11T08:56:36Z</time>
      </trkpt>
      <trkpt lat="46.126299379393458" lon="10.478937579318881">
        <ele>2799.5</ele>
        <time>2018-07-11T08:56:47Z</time>
      </trkpt>
      <trkpt lat="46.126310946419835" lon="10.478892987594008">
        <ele>2799.02</ele>
        <time>2018-07-11T08:57:02Z</time>
      </trkpt>
      <trkpt lat="46.126338271424174" lon="10.478867925703526">
        <ele>2799.02</ele>
        <time>2018-07-11T08:57:16Z</time>
      </trkpt>
      <trkpt lat="46.126313041895628" lon="10.478876139968634">
        <ele>2798.0500000000002</ele>
        <time>2018-07-11T08:57:27Z</time>
      </trkpt>
      <trkpt lat="46.126298038288951" lon="10.478862728923559">
        <ele>2796.6100000000001</ele>
        <time>2018-07-11T08:57:38Z</time>
      </trkpt>
      <trkpt lat="46.126334918662906" lon="10.478842360898852">
        <ele>2795.1700000000001</ele>
        <time>2018-07-11T08:57:49Z</time>
      </trkpt>
      <trkpt lat="46.126320669427514" lon="10.478805229067802">
        <ele>2794.21</ele>
        <time>2018-07-11T08:58:02Z</time>
      </trkpt>
      <trkpt lat="46.126303235068917" lon="10.478768432512879">
        <ele>2793.25</ele>
        <time>2018-07-11T08:58:14Z</time>
      </trkpt>
      <trkpt lat="46.126291919499636" lon="10.478720236569643">
        <ele>2791.8099999999999</ele>
        <time>2018-07-11T08:58:25Z</time>
      </trkpt>
      <trkpt lat="46.126271802932024" lon="10.478665083646774">
        <ele>2789.8800000000001</ele>
        <time>2018-07-11T08:58:39Z</time>
      </trkpt>
      <trkpt lat="46.126297870650887" lon="10.478622671216726">
        <ele>2788.4400000000001</ele>
        <time>2018-07-11T08:58:50Z</time>
      </trkpt>
      <trkpt lat="46.12630482763052" lon="10.478584952652454">
        <ele>2787.48</ele>
        <time>2018-07-11T08:59:02Z</time>
      </trkpt>
      <trkpt lat="46.126309270039201" lon="10.478576319292188">
        <ele>2787.48</ele>
        <time>2018-07-11T08:59:17Z</time>
      </trkpt>
      <trkpt lat="46.12632435746491" lon="10.478557124733925">
        <ele>2786.04</ele>
        <time>2018-07-11T08:59:29Z</time>
      </trkpt>
      <trkpt lat="46.126348078250885" lon="10.478521669283509">
        <ele>2785.0799999999999</ele>
        <time>2018-07-11T08:59:40Z</time>
      </trkpt>
      <trkpt lat="46.126353107392788" lon="10.478505659848452">
        <ele>2784.1199999999999</ele>
        <time>2018-07-11T08:59:50Z</time>
      </trkpt>
      <trkpt lat="46.126328716054559" lon="10.478513622656465">
        <ele>2783.1500000000001</ele>
        <time>2018-07-11T09:00:01Z</time>
      </trkpt>
      <trkpt lat="46.126368949189782" lon="10.478535667061806">
        <ele>2783.6300000000001</ele>
        <time>2018-07-11T09:00:12Z</time>
      </trkpt>
      <trkpt lat="46.126381941139698" lon="10.478519154712558">
        <ele>2782.6700000000001</ele>
        <time>2018-07-11T09:00:22Z</time>
      </trkpt>
      <trkpt lat="46.126364171504974" lon="10.478509766981006">
        <ele>2782.1900000000001</ele>
        <time>2018-07-11T09:00:30Z</time>
      </trkpt>
      <trkpt lat="46.126336008310318" lon="10.478495685383677">
        <ele>2781.71</ele>
        <time>2018-07-11T09:00:38Z</time>
      </trkpt>
      <trkpt lat="46.126334667205811" lon="10.478452350944281">
        <ele>2780.75</ele>
        <time>2018-07-11T09:00:46Z</time>
      </trkpt>
      <trkpt lat="46.126325530931354" lon="10.478408178314567">
        <ele>2779.79</ele>
        <time>2018-07-11T09:00:57Z</time>
      </trkpt>
      <trkpt lat="46.126329135149717" lon="10.478384457528591">
        <ele>2778.8299999999999</ele>
        <time>2018-07-11T09:01:05Z</time>
      </trkpt>
      <trkpt lat="46.126331733539701" lon="10.478402059525251">
        <ele>2778.8299999999999</ele>
        <time>2018-07-11T09:01:14Z</time>
      </trkpt>
      <trkpt lat="46.126339612528682" lon="10.478370627388358">
        <ele>2776.9099999999999</ele>
        <time>2018-07-11T09:01:23Z</time>
      </trkpt>
      <trkpt lat="46.126342127099633" lon="10.478375488892198">
        <ele>2776.4200000000001</ele>
        <time>2018-07-11T09:01:36Z</time>
      </trkpt>
      <trkpt lat="46.126363081857562" lon="10.478353947401047">
        <ele>2775.46</ele>
        <time>2018-07-11T09:01:44Z</time>
      </trkpt>
      <trkpt lat="46.126349838450551" lon="10.478352522477508">
        <ele>2775.46</ele>
        <time>2018-07-11T09:01:55Z</time>
      </trkpt>
      <trkpt lat="46.126343887299299" lon="10.478328801691532">
        <ele>2774.02</ele>
        <time>2018-07-11T09:02:05Z</time>
      </trkpt>
      <trkpt lat="46.126344809308648" lon="10.478293932974339">
        <ele>2773.54</ele>
        <time>2018-07-11T09:02:15Z</time>
      </trkpt>
      <trkpt lat="46.126359896734357" lon="10.478296866640449">
        <ele>2773.0599999999999</ele>
        <time>2018-07-11T09:02:24Z</time>
      </trkpt>
      <trkpt lat="46.126338103786111" lon="10.478296028450131">
        <ele>2772.0999999999999</ele>
        <time>2018-07-11T09:02:36Z</time>
      </trkpt>
      <trkpt lat="46.126347240060568" lon="10.478274654597044">
        <ele>2771.6199999999999</ele>
        <time>2018-07-11T09:02:48Z</time>
      </trkpt>
      <trkpt lat="46.126289237290621" lon="10.478288484737277">
        <ele>2771.1399999999999</ele>
        <time>2018-07-11T09:03:02Z</time>
      </trkpt>
      <trkpt lat="46.126257888972759" lon="10.478278007358313">
        <ele>2770.6599999999999</ele>
        <time>2018-07-11T09:03:11Z</time>
      </trkpt>
      <trkpt lat="46.126311952248216" lon="10.478209024295211">
        <ele>2769.21</ele>
        <time>2018-07-11T09:03:20Z</time>
      </trkpt>
      <trkpt lat="46.126305414363742" lon="10.478198379278183">
        <ele>2768.25</ele>
        <time>2018-07-11T09:03:30Z</time>
      </trkpt>
      <trkpt lat="46.126303235068917" lon="10.478198798373342">
        <ele>2768.25</ele>
        <time>2018-07-11T09:03:31Z</time>
      </trkpt>
      <trkpt lat="46.126291751861572" lon="10.478181866928935">
        <ele>2767.77</ele>
        <time>2018-07-11T09:03:40Z</time>
      </trkpt>
      <trkpt lat="46.126294266432524" lon="10.478156637400389">
        <ele>2767.29</ele>
        <time>2018-07-11T09:03:50Z</time>
      </trkpt>
      <trkpt lat="46.126297200098634" lon="10.478128138929605">
        <ele>2766.3299999999999</ele>
        <time>2018-07-11T09:04:04Z</time>
      </trkpt>
      <trkpt lat="46.126300971955061" lon="10.478085977956653">
        <ele>2765.3699999999999</ele>
        <time>2018-07-11T09:04:15Z</time>
      </trkpt>
      <trkpt lat="46.126300804316998" lon="10.478063346818089">
        <ele>2764.8899999999999</ele>
        <time>2018-07-11T09:04:24Z</time>
      </trkpt>
      <trkpt lat="46.126300888136029" lon="10.478019677102566">
        <ele>2763.9299999999998</ele>
        <time>2018-07-11T09:04:33Z</time>
      </trkpt>
      <trkpt lat="46.126313796266913" lon="10.477995537221432">
        <ele>2763.4499999999998</ele>
        <time>2018-07-11T09:04:42Z</time>
      </trkpt>
      <trkpt lat="46.126319244503975" lon="10.477980701252818">
        <ele>2762.9699999999998</ele>
        <time>2018-07-11T09:04:52Z</time>
      </trkpt>
      <trkpt lat="46.126303402706981" lon="10.477964524179697">
        <ele>2762</ele>
        <time>2018-07-11T09:05:01Z</time>
      </trkpt>
      <trkpt lat="46.126313209533691" lon="10.477907862514257">
        <ele>2761.04</ele>
        <time>2018-07-11T09:05:11Z</time>
      </trkpt>
      <trkpt lat="46.126309018582106" lon="10.477878358215094">
        <ele>2760.0799999999999</ele>
        <time>2018-07-11T09:05:15Z</time>
      </trkpt>
      <trkpt lat="46.126326201483607" lon="10.477867461740971">
        <ele>2759.1199999999999</ele>
        <time>2018-07-11T09:05:24Z</time>
      </trkpt>
      <trkpt lat="46.126287896186113" lon="10.477891601622105">
        <ele>2758.6399999999999</ele>
        <time>2018-07-11T09:05:33Z</time>
      </trkpt>
      <trkpt lat="46.126311533153057" lon="10.477855307981372">
        <ele>2758.1599999999999</ele>
        <time>2018-07-11T09:05:44Z</time>
      </trkpt>
      <trkpt lat="46.126297451555729" lon="10.477807279676199">
        <ele>2757.6799999999998</ele>
        <time>2018-07-11T09:05:54Z</time>
      </trkpt>
      <trkpt lat="46.126312287524343" lon="10.477765956893563">
        <ele>2756.2399999999998</ele>
        <time>2018-07-11T09:06:02Z</time>
      </trkpt>
      <trkpt lat="46.126318741589785" lon="10.47775749117136">
        <ele>2755.7600000000002</ele>
        <time>2018-07-11T09:06:10Z</time>
      </trkpt>
      <trkpt lat="46.126292003318667" lon="10.477756066247821">
        <ele>2755.2800000000002</ele>
        <time>2018-07-11T09:06:22Z</time>
      </trkpt>
      <trkpt lat="46.126293428242207" lon="10.477751791477203">
        <ele>2755.2800000000002</ele>
        <time>2018-07-11T09:06:23Z</time>
      </trkpt>
      <trkpt lat="46.126272305846214" lon="10.477715497836471">
        <ele>2754.3099999999999</ele>
        <time>2018-07-11T09:06:32Z</time>
      </trkpt>
      <trkpt lat="46.126264929771423" lon="10.477657075971365">
        <ele>2752.3899999999999</ele>
        <time>2018-07-11T09:06:44Z</time>
      </trkpt>
      <trkpt lat="46.126255542039871" lon="10.477624805644155">
        <ele>2751.4299999999998</ele>
        <time>2018-07-11T09:06:55Z</time>
      </trkpt>
      <trkpt lat="46.126276915892959" lon="10.477568479254842">
        <ele>2749.5100000000002</ele>
        <time>2018-07-11T09:07:05Z</time>
      </trkpt>
      <trkpt lat="46.12628529779613" lon="10.477520534768701">
        <ele>2749.0300000000002</ele>
        <time>2018-07-11T09:07:16Z</time>
      </trkpt>
      <trkpt lat="46.126281023025513" lon="10.477503687143326">
        <ele>2748.0700000000002</ele>
        <time>2018-07-11T09:07:28Z</time>
      </trkpt>
      <trkpt lat="46.126308431848884" lon="10.477477367967367">
        <ele>2746.6199999999999</ele>
        <time>2018-07-11T09:07:40Z</time>
      </trkpt>
      <trkpt lat="46.126300720497966" lon="10.477445013821125">
        <ele>2746.1399999999999</ele>
        <time>2018-07-11T09:07:53Z</time>
      </trkpt>
      <trkpt lat="46.126320250332355" lon="10.477448366582394">
        <ele>2746.1399999999999</ele>
        <time>2018-07-11T09:08:07Z</time>
      </trkpt>
      <trkpt lat="46.126337936148047" lon="10.47743990086019">
        <ele>2746.1399999999999</ele>
        <time>2018-07-11T09:08:26Z</time>
      </trkpt>
      <trkpt lat="46.126349670812488" lon="10.477397488430142">
        <ele>2745.1799999999998</ele>
        <time>2018-07-11T09:08:38Z</time>
      </trkpt>
      <trkpt lat="46.126333577558398" lon="10.477427747100592">
        <ele>2744.6999999999998</ele>
        <time>2018-07-11T09:08:50Z</time>
      </trkpt>
      <trkpt lat="46.126369535923004" lon="10.477425986900926">
        <ele>2743.2600000000002</ele>
        <time>2018-07-11T09:08:59Z</time>
      </trkpt>
      <trkpt lat="46.126354029402137" lon="10.477425316348672">
        <ele>2742.3000000000002</ele>
        <time>2018-07-11T09:09:08Z</time>
      </trkpt>
      <trkpt lat="46.126359896734357" lon="10.477384496480227">
        <ele>2741.3400000000001</ele>
        <time>2018-07-11T09:09:19Z</time>
      </trkpt>
      <trkpt lat="46.1263766605407" lon="10.477338647469878">
        <ele>2739.8899999999999</ele>
        <time>2018-07-11T09:09:27Z</time>
      </trkpt>
      <trkpt lat="46.126347491517663" lon="10.477307299152017">
        <ele>2738.9299999999998</ele>
        <time>2018-07-11T09:09:36Z</time>
      </trkpt>
      <trkpt lat="46.126362746581435" lon="10.477235717698932">
        <ele>2736.5300000000002</ele>
        <time>2018-07-11T09:09:47Z</time>
      </trkpt>
      <trkpt lat="46.126391999423504" lon="10.477182408794761">
        <ele>2734.6100000000001</ele>
        <time>2018-07-11T09:09:57Z</time>
      </trkpt>
      <trkpt lat="46.12639719620347" lon="10.477144187316298">
        <ele>2732.6799999999998</ele>
        <time>2018-07-11T09:10:05Z</time>
      </trkpt>
      <trkpt lat="46.126439776271582" lon="10.477130692452192">
        <ele>2731.2399999999998</ele>
        <time>2018-07-11T09:10:17Z</time>
      </trkpt>
      <trkpt lat="46.12643918953836" lon="10.477094063535333">
        <ele>2729.3200000000002</ele>
        <time>2018-07-11T09:10:27Z</time>
      </trkpt>
      <trkpt lat="46.126458384096622" lon="10.477081993594766">
        <ele>2727.8800000000001</ele>
        <time>2018-07-11T09:10:36Z</time>
      </trkpt>
      <trkpt lat="46.126468945294619" lon="10.477015776559711">
        <ele>2725.96</ele>
        <time>2018-07-11T09:10:46Z</time>
      </trkpt>
      <trkpt lat="46.126493755728006" lon="10.476996079087257">
        <ele>2724.5100000000002</ele>
        <time>2018-07-11T09:10:57Z</time>
      </trkpt>
      <trkpt lat="46.126516219228506" lon="10.476955510675907">
        <ele>2723.0700000000002</ele>
        <time>2018-07-11T09:11:10Z</time>
      </trkpt>
      <trkpt lat="46.126539101824164" lon="10.476926928386092">
        <ele>2721.1500000000001</ele>
        <time>2018-07-11T09:11:21Z</time>
      </trkpt>
      <trkpt lat="46.126528959721327" lon="10.47691997140646">
        <ele>2720.1900000000001</ele>
        <time>2018-07-11T09:11:31Z</time>
      </trkpt>
      <trkpt lat="46.126530719920993" lon="10.476894322782755">
        <ele>2719.23</ele>
        <time>2018-07-11T09:11:42Z</time>
      </trkpt>
      <trkpt lat="46.126525271683931" lon="10.47683204524219">
        <ele>2718.27</ele>
        <time>2018-07-11T09:11:50Z</time>
      </trkpt>
      <trkpt lat="46.12651445902884" lon="10.476827770471573">
        <ele>2717.3000000000002</ele>
        <time>2018-07-11T09:12:00Z</time>
      </trkpt>
      <trkpt lat="46.126481601968408" lon="10.47682223841548">
        <ele>2716.8200000000002</ele>
        <time>2018-07-11T09:12:10Z</time>
      </trkpt>
      <trkpt lat="46.126461820676923" lon="10.476771779358387">
        <ele>2715.8600000000001</ele>
        <time>2018-07-11T09:12:21Z</time>
      </trkpt>
      <trkpt lat="46.126463832333684" lon="10.476756105199456">
        <ele>2714.4200000000001</ele>
        <time>2018-07-11T09:12:30Z</time>
      </trkpt>
      <trkpt lat="46.126491827890277" lon="10.4767313785851">
        <ele>2713.46</ele>
        <time>2018-07-11T09:12:41Z</time>
      </trkpt>
      <trkpt lat="46.126521248370409" lon="10.476692570373416">
        <ele>2712.5</ele>
        <time>2018-07-11T09:12:51Z</time>
      </trkpt>
      <trkpt lat="46.126524014398456" lon="10.476662060245872">
        <ele>2710.5700000000002</ele>
        <time>2018-07-11T09:13:03Z</time>
      </trkpt>
      <trkpt lat="46.126537760719657" lon="10.476636998355389">
        <ele>2710.0900000000001</ele>
        <time>2018-07-11T09:13:13Z</time>
      </trkpt>
      <trkpt lat="46.126530049368739" lon="10.476630292832851">
        <ele>2708.6500000000001</ele>
        <time>2018-07-11T09:13:22Z</time>
      </trkpt>
      <trkpt lat="46.126503143459558" lon="10.476643200963736">
        <ele>2707.21</ele>
        <time>2018-07-11T09:13:30Z</time>
      </trkpt>
      <trkpt lat="46.126491827890277" lon="10.476609757170081">
        <ele>2705.77</ele>
        <time>2018-07-11T09:13:40Z</time>
      </trkpt>
      <trkpt lat="46.126535246148705" lon="10.476540271192789">
        <ele>2704.8099999999999</ele>
        <time>2018-07-11T09:13:50Z</time>
      </trkpt>
      <trkpt lat="46.126571455970407" lon="10.476488554850221">
        <ele>2702.8800000000001</ele>
        <time>2018-07-11T09:14:01Z</time>
      </trkpt>
      <trkpt lat="46.126564498990774" lon="10.476480592042208">
        <ele>2701.4400000000001</ele>
        <time>2018-07-11T09:14:11Z</time>
      </trkpt>
      <trkpt lat="46.126570114865899" lon="10.476458296179771">
        <ele>2700</ele>
        <time>2018-07-11T09:14:22Z</time>
      </trkpt>
      <trkpt lat="46.126587633043528" lon="10.476442202925682">
        <ele>2699.04</ele>
        <time>2018-07-11T09:14:34Z</time>
      </trkpt>
      <trkpt lat="46.126570617780089" lon="10.47644454985857">
        <ele>2698.5599999999999</ele>
        <time>2018-07-11T09:14:44Z</time>
      </trkpt>
      <trkpt lat="46.126614538952708" lon="10.476416302844882">
        <ele>2697.1199999999999</ele>
        <time>2018-07-11T09:14:54Z</time>
      </trkpt>
      <trkpt lat="46.126624932512641" lon="10.476371040567756">
        <ele>2696.1500000000001</ele>
        <time>2018-07-11T09:15:02Z</time>
      </trkpt>
      <trkpt lat="46.126645049080253" lon="10.47635612078011">
        <ele>2696.1500000000001</ele>
        <time>2018-07-11T09:15:12Z</time>
      </trkpt>
      <trkpt lat="46.126651419326663" lon="10.476348577067256">
        <ele>2695.1900000000001</ele>
        <time>2018-07-11T09:15:23Z</time>
      </trkpt>
      <trkpt lat="46.126685449853539" lon="10.476316725835204">
        <ele>2695.1900000000001</ele>
        <time>2018-07-11T09:15:32Z</time>
      </trkpt>
      <trkpt lat="46.126696513965726" lon="10.476285545155406">
        <ele>2693.75</ele>
        <time>2018-07-11T09:15:42Z</time>
      </trkpt>
      <trkpt lat="46.126703470945358" lon="10.47627598978579">
        <ele>2693.75</ele>
        <time>2018-07-11T09:15:55Z</time>
      </trkpt>
      <trkpt lat="46.126728113740683" lon="10.47623441554606">
        <ele>2692.79</ele>
        <time>2018-07-11T09:16:03Z</time>
      </trkpt>
      <trkpt lat="46.126732807606459" lon="10.476197870448232">
        <ele>2691.8299999999999</ele>
        <time>2018-07-11T09:16:13Z</time>
      </trkpt>
      <trkpt lat="46.126739010214806" lon="10.476186638697982">
        <ele>2690.8699999999999</ele>
        <time>2018-07-11T09:16:22Z</time>
      </trkpt>
      <trkpt lat="46.126710008829832" lon="10.476238522678614">
        <ele>2689.9099999999999</ele>
        <time>2018-07-11T09:16:33Z</time>
      </trkpt>
      <trkpt lat="46.126733645796776" lon="10.47622125595808">
        <ele>2689.4299999999998</ele>
        <time>2018-07-11T09:16:42Z</time>
      </trkpt>
      <trkpt lat="46.126744626089931" lon="10.476184207946062">
        <ele>2688.46</ele>
        <time>2018-07-11T09:16:52Z</time>
      </trkpt>
      <trkpt lat="46.126747811213136" lon="10.476154955103993">
        <ele>2687.98</ele>
        <time>2018-07-11T09:17:01Z</time>
      </trkpt>
      <trkpt lat="46.126746721565723" lon="10.47617238946259">
        <ele>2686.54</ele>
        <time>2018-07-11T09:17:13Z</time>
      </trkpt>
      <trkpt lat="46.126757366582751" lon="10.476153111085296">
        <ele>2685.5799999999999</ele>
        <time>2018-07-11T09:17:22Z</time>
      </trkpt>
      <trkpt lat="46.126755774021149" lon="10.476120673120022">
        <ele>2683.6599999999999</ele>
        <time>2018-07-11T09:17:32Z</time>
      </trkpt>
      <trkpt lat="46.12678611651063" lon="10.476076668128371">
        <ele>2682.6999999999998</ele>
        <time>2018-07-11T09:17:41Z</time>
      </trkpt>
      <trkpt lat="46.126785278320313" lon="10.476030735298991">
        <ele>2681.25</ele>
        <time>2018-07-11T09:17:54Z</time>
      </trkpt>
      <trkpt lat="46.126792570576072" lon="10.476016737520695">
        <ele>2680.29</ele>
        <time>2018-07-11T09:18:05Z</time>
      </trkpt>
      <trkpt lat="46.126796007156372" lon="10.476039536297321">
        <ele>2679.3299999999999</ele>
        <time>2018-07-11T09:18:22Z</time>
      </trkpt>
      <trkpt lat="46.126782931387424" lon="10.476012211292982">
        <ele>2678.8499999999999</ele>
        <time>2018-07-11T09:18:33Z</time>
      </trkpt>
      <trkpt lat="46.126780500635505" lon="10.475980527698994">
        <ele>2677.4099999999999</ele>
        <time>2018-07-11T09:18:41Z</time>
      </trkpt>
      <trkpt lat="46.126772202551365" lon="10.475976085290313">
        <ele>2676.9299999999998</ele>
        <time>2018-07-11T09:18:52Z</time>
      </trkpt>
      <trkpt lat="46.126750661060214" lon="10.475963512435555">
        <ele>2675.9699999999998</ele>
        <time>2018-07-11T09:19:02Z</time>
      </trkpt>
      <trkpt lat="46.126739261671901" lon="10.475850272923708">
        <ele>2675.0100000000002</ele>
        <time>2018-07-11T09:19:13Z</time>
      </trkpt>
      <trkpt lat="46.126760886982083" lon="10.475809955969453">
        <ele>2674.52</ele>
        <time>2018-07-11T09:19:33Z</time>
      </trkpt>
      <trkpt lat="46.126732053235173" lon="10.475827474147081">
        <ele>2673.5599999999999</ele>
        <time>2018-07-11T09:19:45Z</time>
      </trkpt>
      <trkpt lat="46.126746134832501" lon="10.475790426135063">
        <ele>2672.5999999999999</ele>
        <time>2018-07-11T09:19:55Z</time>
      </trkpt>
      <trkpt lat="46.126755522564054" lon="10.475778104737401">
        <ele>2671.6399999999999</ele>
        <time>2018-07-11T09:20:09Z</time>
      </trkpt>
      <trkpt lat="46.126769185066223" lon="10.475755138322711">
        <ele>2671.6399999999999</ele>
        <time>2018-07-11T09:20:15Z</time>
      </trkpt>
      <trkpt lat="46.12678611651063" lon="10.475733261555433">
        <ele>2671.6399999999999</ele>
        <time>2018-07-11T09:20:18Z</time>
      </trkpt>
      <trkpt lat="46.126801874488592" lon="10.475703254342079">
        <ele>2669.7199999999998</ele>
        <time>2018-07-11T09:20:27Z</time>
      </trkpt>
      <trkpt lat="46.126805897802114" lon="10.475678443908691">
        <ele>2668.7600000000002</ele>
        <time>2018-07-11T09:20:37Z</time>
      </trkpt>
      <trkpt lat="46.126816375181079" lon="10.475666206330061">
        <ele>2669.2399999999998</ele>
        <time>2018-07-11T09:20:48Z</time>
      </trkpt>
      <trkpt lat="46.126764658838511" lon="10.475691016763449">
        <ele>2668.7600000000002</ele>
        <time>2018-07-11T09:21:00Z</time>
      </trkpt>
      <trkpt lat="46.126739848405123" lon="10.475670648738742">
        <ele>2667.8000000000002</ele>
        <time>2018-07-11T09:21:06Z</time>
      </trkpt>
      <trkpt lat="46.12676365301013" lon="10.475625470280647">
        <ele>2666.8299999999999</ele>
        <time>2018-07-11T09:21:14Z</time>
      </trkpt>
      <trkpt lat="46.12674068659544" lon="10.475608538836241">
        <ele>2665.8699999999999</ele>
        <time>2018-07-11T09:21:27Z</time>
      </trkpt>
      <trkpt lat="46.126744961366057" lon="10.475641312077641">
        <ele>2665.8699999999999</ele>
        <time>2018-07-11T09:21:39Z</time>
      </trkpt>
      <trkpt lat="46.126765161752701" lon="10.475620357319713">
        <ele>2665.8699999999999</ele>
        <time>2018-07-11T09:21:49Z</time>
      </trkpt>
      <trkpt lat="46.126788631081581" lon="10.475573921576142">
        <ele>2664.9099999999999</ele>
        <time>2018-07-11T09:22:00Z</time>
      </trkpt>
      <trkpt lat="46.126773711293936" lon="10.475536538287997">
        <ele>2663.4699999999998</ele>
        <time>2018-07-11T09:22:12Z</time>
      </trkpt>
      <trkpt lat="46.126778740435839" lon="10.475471746176481">
        <ele>2662.9899999999998</ele>
        <time>2018-07-11T09:22:22Z</time>
      </trkpt>
      <trkpt lat="46.126772202551365" lon="10.475503262132406">
        <ele>2662.9899999999998</ele>
        <time>2018-07-11T09:22:34Z</time>
      </trkpt>
      <trkpt lat="46.126742530614138" lon="10.475494544953108">
        <ele>2662.5100000000002</ele>
        <time>2018-07-11T09:22:48Z</time>
      </trkpt>
      <trkpt lat="46.126793492585421" lon="10.475480547174811">
        <ele>2662.0300000000002</ele>
        <time>2018-07-11T09:22:59Z</time>
      </trkpt>
      <trkpt lat="46.126760467886925" lon="10.475473841652274">
        <ele>2661.5500000000002</ele>
        <time>2018-07-11T09:23:12Z</time>
      </trkpt>
      <trkpt lat="46.126792570576072" lon="10.475433273240924">
        <ele>2661.0700000000002</ele>
        <time>2018-07-11T09:23:24Z</time>
      </trkpt>
      <trkpt lat="46.126790978014469" lon="10.475417096167803">
        <ele>2660.5900000000001</ele>
        <time>2018-07-11T09:23:33Z</time>
      </trkpt>
      <trkpt lat="46.126811010763049" lon="10.475367559120059">
        <ele>2659.1399999999999</ele>
        <time>2018-07-11T09:23:45Z</time>
      </trkpt>
      <trkpt lat="46.126826936379075" lon="10.475317183881998">
        <ele>2659.1399999999999</ele>
        <time>2018-07-11T09:24:03Z</time>
      </trkpt>
      <trkpt lat="46.126829870045185" lon="10.47531827352941">
        <ele>2659.1399999999999</ele>
        <time>2018-07-11T09:24:12Z</time>
      </trkpt>
      <trkpt lat="46.12682425417006" lon="10.475307712331414">
        <ele>2657.2199999999998</ele>
        <time>2018-07-11T09:24:23Z</time>
      </trkpt>
      <trkpt lat="46.126829199492931" lon="10.475278627127409">
        <ele>2655.7800000000002</ele>
        <time>2018-07-11T09:24:31Z</time>
      </trkpt>
      <trkpt lat="46.126825930550694" lon="10.475338138639927">
        <ele>2655.7800000000002</ele>
        <time>2018-07-11T09:24:39Z</time>
      </trkpt>
      <trkpt lat="46.126796258613467" lon="10.475319614633918">
        <ele>2655.3000000000002</ele>
        <time>2018-07-11T09:24:54Z</time>
      </trkpt>
      <trkpt lat="46.126811765134335" lon="10.475252224132419">
        <ele>2654.3400000000001</ele>
        <time>2018-07-11T09:25:02Z</time>
      </trkpt>
      <trkpt lat="46.126829031854868" lon="10.47522003762424">
        <ele>2653.8600000000001</ele>
        <time>2018-07-11T09:25:11Z</time>
      </trkpt>
      <trkpt lat="46.126836827024817" lon="10.475203860551119">
        <ele>2653.8600000000001</ele>
        <time>2018-07-11T09:25:21Z</time>
      </trkpt>
      <trkpt lat="46.12685208208859" lon="10.475159017369151">
        <ele>2652.4200000000001</ele>
        <time>2018-07-11T09:25:31Z</time>
      </trkpt>
      <trkpt lat="46.126850238069892" lon="10.475134626030922">
        <ele>2651.4499999999998</ele>
        <time>2018-07-11T09:25:39Z</time>
      </trkpt>
      <trkpt lat="46.126836827024817" lon="10.47509154304862">
        <ele>2650.4899999999998</ele>
        <time>2018-07-11T09:25:49Z</time>
      </trkpt>
      <trkpt lat="46.126848394051194" lon="10.475076036527753">
        <ele>2650.4899999999998</ele>
        <time>2018-07-11T09:25:52Z</time>
      </trkpt>
      <trkpt lat="46.126847052946687" lon="10.475047789514065">
        <ele>2650.4899999999998</ele>
        <time>2018-07-11T09:26:03Z</time>
      </trkpt>
      <trkpt lat="46.126856608316302" lon="10.475044185295701">
        <ele>2650.0100000000002</ele>
        <time>2018-07-11T09:26:12Z</time>
      </trkpt>
      <trkpt lat="46.126854261383414" lon="10.474999090656638">
        <ele>2649.0500000000002</ele>
        <time>2018-07-11T09:26:19Z</time>
      </trkpt>
      <trkpt lat="46.12686381675303" lon="10.474977381527424">
        <ele>2649.0500000000002</ele>
        <time>2018-07-11T09:26:29Z</time>
      </trkpt>
      <trkpt lat="46.126870857551694" lon="10.474967742338777">
        <ele>2648.5700000000002</ele>
        <time>2018-07-11T09:26:38Z</time>
      </trkpt>
      <trkpt lat="46.126826433464885" lon="10.474982243031263">
        <ele>2648.5700000000002</ele>
        <time>2018-07-11T09:26:53Z</time>
      </trkpt>
      <trkpt lat="46.126818722113967" lon="10.474917870014906">
        <ele>2647.6100000000001</ele>
        <time>2018-07-11T09:27:04Z</time>
      </trkpt>
      <trkpt lat="46.126805897802114" lon="10.474914014339447">
        <ele>2647.6100000000001</ele>
        <time>2018-07-11T09:27:13Z</time>
      </trkpt>
      <trkpt lat="46.126763317734003" lon="10.474851233884692">
        <ele>2647.6100000000001</ele>
        <time>2018-07-11T09:27:22Z</time>
      </trkpt>
      <trkpt lat="46.126747140660882" lon="10.4748076479882">
        <ele>2646.1700000000001</ele>
        <time>2018-07-11T09:27:32Z</time>
      </trkpt>
      <trkpt lat="46.12675585784018" lon="10.474754758179188">
        <ele>2645.21</ele>
        <time>2018-07-11T09:27:42Z</time>
      </trkpt>
      <trkpt lat="46.126763736829162" lon="10.474734557792544">
        <ele>2644.7199999999998</ele>
        <time>2018-07-11T09:27:51Z</time>
      </trkpt>
      <trkpt lat="46.126752588897943" lon="10.474703712388873">
        <ele>2644.2399999999998</ele>
        <time>2018-07-11T09:27:59Z</time>
      </trkpt>
      <trkpt lat="46.126752169802785" lon="10.474695079028606">
        <ele>2643.7600000000002</ele>
        <time>2018-07-11T09:28:00Z</time>
      </trkpt>
      <trkpt lat="46.126782344654202" lon="10.474628442898393">
        <ele>2642.3200000000002</ele>
        <time>2018-07-11T09:28:10Z</time>
      </trkpt>
      <trkpt lat="46.126769352704287" lon="10.474584940820932">
        <ele>2641.3600000000001</ele>
        <time>2018-07-11T09:28:18Z</time>
      </trkpt>
      <trkpt lat="46.12676021642983" lon="10.474538337439299">
        <ele>2641.3600000000001</ele>
        <time>2018-07-11T09:28:29Z</time>
      </trkpt>
      <trkpt lat="46.126757618039846" lon="10.474485196173191">
        <ele>2640.8800000000001</ele>
        <time>2018-07-11T09:28:38Z</time>
      </trkpt>
      <trkpt lat="46.126770358532667" lon="10.474461475387216">
        <ele>2640.8800000000001</ele>
        <time>2018-07-11T09:28:46Z</time>
      </trkpt>
      <trkpt lat="46.126774214208126" lon="10.474430797621608">
        <ele>2640.4000000000001</ele>
        <time>2018-07-11T09:28:56Z</time>
      </trkpt>
      <trkpt lat="46.126793911680579" lon="10.474409507587552">
        <ele>2639.9200000000001</ele>
        <time>2018-07-11T09:29:00Z</time>
      </trkpt>
      <trkpt lat="46.126818973571062" lon="10.474332561716437">
        <ele>2638.96</ele>
        <time>2018-07-11T09:29:09Z</time>
      </trkpt>
      <trkpt lat="46.126835318282247" lon="10.474278749898076">
        <ele>2637.9899999999998</ele>
        <time>2018-07-11T09:29:17Z</time>
      </trkpt>
      <trkpt lat="46.126830959692597" lon="10.474215215072036">
        <ele>2638.48</ele>
        <time>2018-07-11T09:29:24Z</time>
      </trkpt>
      <trkpt lat="46.126832971349359" lon="10.47417632304132">
        <ele>2637.9899999999998</ele>
        <time>2018-07-11T09:29:27Z</time>
      </trkpt>
      <trkpt lat="46.126860380172729" lon="10.474126283079386">
        <ele>2638.48</ele>
        <time>2018-07-11T09:29:36Z</time>
      </trkpt>
      <trkpt lat="46.126845125108957" lon="10.474073896184564">
        <ele>2638.48</ele>
        <time>2018-07-11T09:29:46Z</time>
      </trkpt>
      <trkpt lat="46.126853339374065" lon="10.474048247560859">
        <ele>2638.48</ele>
        <time>2018-07-11T09:29:57Z</time>
      </trkpt>
      <trkpt lat="46.126884100958705" lon="10.474005918949842">
        <ele>2638.48</ele>
        <time>2018-07-11T09:30:06Z</time>
      </trkpt>
      <trkpt lat="46.126907402649522" lon="10.474017150700092">
        <ele>2638.48</ele>
        <time>2018-07-11T09:30:17Z</time>
      </trkpt>
      <trkpt lat="46.126926681026816" lon="10.474013295024633">
        <ele>2637.9899999999998</ele>
        <time>2018-07-11T09:30:28Z</time>
      </trkpt>
      <trkpt lat="46.126909665763378" lon="10.474016396328807">
        <ele>2638.48</ele>
        <time>2018-07-11T09:30:33Z</time>
      </trkpt>
      <trkpt lat="46.126922741532326" lon="10.473959315568209">
        <ele>2637.9899999999998</ele>
        <time>2018-07-11T09:30:40Z</time>
      </trkpt>
      <trkpt lat="46.126952664926648" lon="10.473968535661697">
        <ele>2637.5100000000002</ele>
        <time>2018-07-11T09:30:43Z</time>
      </trkpt>
      <trkpt lat="46.126974290236831" lon="10.474001560360193">
        <ele>2638.48</ele>
        <time>2018-07-11T09:30:50Z</time>
      </trkpt>
      <trkpt lat="46.126970937475562" lon="10.474036429077387">
        <ele>2638.48</ele>
        <time>2018-07-11T09:30:58Z</time>
      </trkpt>
      <trkpt lat="46.127007650211453" lon="10.47402486205101">
        <ele>2638.48</ele>
        <time>2018-07-11T09:31:09Z</time>
      </trkpt>
      <trkpt lat="46.126993065699935" lon="10.47396769747138">
        <ele>2637.9899999999998</ele>
        <time>2018-07-11T09:31:18Z</time>
      </trkpt>
      <trkpt lat="46.126977307721972" lon="10.473970882594585">
        <ele>2638.48</ele>
        <time>2018-07-11T09:31:27Z</time>
      </trkpt>
      <trkpt lat="46.126979570835829" lon="10.473978007212281">
        <ele>2637.5100000000002</ele>
        <time>2018-07-11T09:31:29Z</time>
      </trkpt>
      <trkpt lat="46.126978397369385" lon="10.47399066388607">
        <ele>2637.0300000000002</ele>
        <time>2018-07-11T09:31:40Z</time>
      </trkpt>
      <trkpt lat="46.12696498632431" lon="10.473983874544501">
        <ele>2637.0300000000002</ele>
        <time>2018-07-11T09:31:56Z</time>
      </trkpt>
      <trkpt lat="46.126931374892592" lon="10.473992759361863">
        <ele>2637.0300000000002</ele>
        <time>2018-07-11T09:32:14Z</time>
      </trkpt>
      <trkpt lat="46.126928357407451" lon="10.473976163193583">
        <ele>2636.5500000000002</ele>
        <time>2018-07-11T09:32:33Z</time>
      </trkpt>
      <trkpt lat="46.126940175890923" lon="10.473978091031313">
        <ele>2637.0300000000002</ele>
        <time>2018-07-11T09:32:44Z</time>
      </trkpt>
      <trkpt lat="46.126944785937667" lon="10.473998291417956">
        <ele>2636.5500000000002</ele>
        <time>2018-07-11T09:33:05Z</time>
      </trkpt>
      <trkpt lat="46.126924250274897" lon="10.474016815423965">
        <ele>2636.5500000000002</ele>
        <time>2018-07-11T09:33:32Z</time>
      </trkpt>
      <trkpt lat="46.126933386549354" lon="10.473988484591246">
        <ele>2636.0700000000002</ele>
        <time>2018-07-11T09:34:04Z</time>
      </trkpt>
      <trkpt lat="46.12691855058074" lon="10.474015977233648">
        <ele>2636.0700000000002</ele>
        <time>2018-07-11T09:34:36Z</time>
      </trkpt>
      <trkpt lat="46.126937242224813" lon="10.473989490419626">
        <ele>2636.0700000000002</ele>
        <time>2018-07-11T09:34:58Z</time>
      </trkpt>
      <trkpt lat="46.126915784552693" lon="10.474005499854684">
        <ele>2637.5100000000002</ele>
        <time>2018-07-11T09:35:24Z</time>
      </trkpt>
      <trkpt lat="46.126948809251189" lon="10.473954873159528">
        <ele>2636.0700000000002</ele>
        <time>2018-07-11T09:35:56Z</time>
      </trkpt>
      <trkpt lat="46.126937577500939" lon="10.473963506519794">
        <ele>2636.0700000000002</ele>
        <time>2018-07-11T09:36:27Z</time>
      </trkpt>
      <trkpt lat="46.126932632178068" lon="10.473958812654018">
        <ele>2636.0700000000002</ele>
        <time>2018-07-11T09:36:57Z</time>
      </trkpt>
      <trkpt lat="46.126968590542674" lon="10.47394179739058">
        <ele>2636.0700000000002</ele>
        <time>2018-07-11T09:37:30Z</time>
      </trkpt>
      <trkpt lat="46.126991137862206" lon="10.473923524841666">
        <ele>2635.5900000000001</ele>
        <time>2018-07-11T09:38:03Z</time>
      </trkpt>
      <trkpt lat="46.126962723210454" lon="10.473940623924136">
        <ele>2635.5900000000001</ele>
        <time>2018-07-11T09:38:28Z</time>
      </trkpt>
      <trkpt lat="46.126990299671888" lon="10.473972056061029">
        <ele>2635.5900000000001</ele>
        <time>2018-07-11T09:38:52Z</time>
      </trkpt>
      <trkpt lat="46.126954425126314" lon="10.473958477377892">
        <ele>2636.0700000000002</ele>
        <time>2018-07-11T09:39:08Z</time>
      </trkpt>
      <trkpt lat="46.126961298286915" lon="10.473983120173216">
        <ele>2635.5900000000001</ele>
        <time>2018-07-11T09:39:30Z</time>
      </trkpt>
      <trkpt lat="46.126968171447515" lon="10.473962752148509">
        <ele>2635.5900000000001</ele>
        <time>2018-07-11T09:39:42Z</time>
      </trkpt>
      <trkpt lat="46.126990467309952" lon="10.473974151536822">
        <ele>2635.5900000000001</ele>
        <time>2018-07-11T09:40:10Z</time>
      </trkpt>
      <trkpt lat="46.126994406804442" lon="10.473968954756856">
        <ele>2635.5900000000001</ele>
        <time>2018-07-11T09:40:48Z</time>
      </trkpt>
      <trkpt lat="46.127007147297263" lon="10.473951939493418">
        <ele>2635.5900000000001</ele>
        <time>2018-07-11T09:41:20Z</time>
      </trkpt>
      <trkpt lat="46.127001279965043" lon="10.473971636965871">
        <ele>2635.5900000000001</ele>
        <time>2018-07-11T09:41:59Z</time>
      </trkpt>
      <trkpt lat="46.126993065699935" lon="10.47396769747138">
        <ele>2635.1100000000001</ele>
        <time>2018-07-11T09:42:36Z</time>
      </trkpt>
      <trkpt lat="46.127007734030485" lon="10.473951185122132">
        <ele>2635.1100000000001</ele>
        <time>2018-07-11T09:43:17Z</time>
      </trkpt>
      <trkpt lat="46.127001028507948" lon="10.473962919786572">
        <ele>2635.1100000000001</ele>
        <time>2018-07-11T09:43:57Z</time>
      </trkpt>
      <trkpt lat="46.126957861706614" lon="10.473994603380561">
        <ele>2635.1100000000001</ele>
        <time>2018-07-11T09:44:14Z</time>
      </trkpt>
      <trkpt lat="46.126976637169719" lon="10.473993010818958">
        <ele>2635.1100000000001</ele>
        <time>2018-07-11T09:44:32Z</time>
      </trkpt>
      <trkpt lat="46.126994993537664" lon="10.473991921171546">
        <ele>2636.0700000000002</ele>
        <time>2018-07-11T09:44:42Z</time>
      </trkpt>
      <trkpt lat="46.126984767615795" lon="10.474021760746837">
        <ele>2636.0700000000002</ele>
        <time>2018-07-11T09:44:52Z</time>
      </trkpt>
      <trkpt lat="46.126928525045514" lon="10.474017402157187">
        <ele>2635.5900000000001</ele>
        <time>2018-07-11T09:45:05Z</time>
      </trkpt>
      <trkpt lat="46.126951742917299" lon="10.473949089646339">
        <ele>2635.5900000000001</ele>
        <time>2018-07-11T09:45:22Z</time>
      </trkpt>
      <trkpt lat="46.126939253881574" lon="10.473970379680395">
        <ele>2635.1100000000001</ele>
        <time>2018-07-11T09:45:31Z</time>
      </trkpt>
      <trkpt lat="46.126924501731992" lon="10.474017569795251">
        <ele>2635.5900000000001</ele>
        <time>2018-07-11T09:45:43Z</time>
      </trkpt>
      <trkpt lat="46.126894662156701" lon="10.474032321944833">
        <ele>2635.1100000000001</ele>
        <time>2018-07-11T09:45:54Z</time>
      </trkpt>
      <trkpt lat="46.126911090686917" lon="10.474037099629641">
        <ele>2635.1100000000001</ele>
        <time>2018-07-11T09:46:10Z</time>
      </trkpt>
      <trkpt lat="46.126935314387083" lon="10.474036009982228">
        <ele>2635.1100000000001</ele>
        <time>2018-07-11T09:46:25Z</time>
      </trkpt>
      <trkpt lat="46.126954844221473" lon="10.474045816808939">
        <ele>2635.1100000000001</ele>
        <time>2018-07-11T09:46:50Z</time>
      </trkpt>
      <trkpt lat="46.126936990767717" lon="10.474046152085066">
        <ele>2635.1100000000001</ele>
        <time>2018-07-11T09:47:07Z</time>
      </trkpt>
      <trkpt lat="46.126986611634493" lon="10.474027544260025">
        <ele>2635.1100000000001</ele>
        <time>2018-07-11T09:47:27Z</time>
      </trkpt>
      <trkpt lat="46.126972446218133" lon="10.474068280309439">
        <ele>2635.5900000000001</ele>
        <time>2018-07-11T09:47:41Z</time>
      </trkpt>
      <trkpt lat="46.12697328440845" lon="10.474077751860023">
        <ele>2635.1100000000001</ele>
        <time>2018-07-11T09:47:51Z</time>
      </trkpt>
      <trkpt lat="46.126925926655531" lon="10.47400139272213">
        <ele>2634.6300000000001</ele>
        <time>2018-07-11T09:48:02Z</time>
      </trkpt>
      <trkpt lat="46.126879071816802" lon="10.473968870937824">
        <ele>2633.6700000000001</ele>
        <time>2018-07-11T09:48:12Z</time>
      </trkpt>
      <trkpt lat="46.126855351030827" lon="10.473960908129811">
        <ele>2633.6700000000001</ele>
        <time>2018-07-11T09:48:25Z</time>
      </trkpt>
      <trkpt lat="46.126844119280577" lon="10.473938528448343">
        <ele>2633.6700000000001</ele>
        <time>2018-07-11T09:48:33Z</time>
      </trkpt>
      <trkpt lat="46.126826098188758" lon="10.473945401608944">
        <ele>2633.6700000000001</ele>
        <time>2018-07-11T09:48:41Z</time>
      </trkpt>
      <trkpt lat="46.126811681315303" lon="10.473891589790583">
        <ele>2633.1900000000001</ele>
        <time>2018-07-11T09:48:49Z</time>
      </trkpt>
      <trkpt lat="46.126812854781747" lon="10.473877172917128">
        <ele>2632.71</ele>
        <time>2018-07-11T09:48:59Z</time>
      </trkpt>
      <trkpt lat="46.126805394887924" lon="10.473860409110785">
        <ele>2632.71</ele>
        <time>2018-07-11T09:49:12Z</time>
      </trkpt>
      <trkpt lat="46.126794666051865" lon="10.473807770758867">
        <ele>2632.23</ele>
        <time>2018-07-11T09:49:24Z</time>
      </trkpt>
      <trkpt lat="46.126809921115637" lon="10.47379813157022">
        <ele>2631.75</ele>
        <time>2018-07-11T09:49:33Z</time>
      </trkpt>
      <trkpt lat="46.126821739599109" lon="10.47375756315887">
        <ele>2630.79</ele>
        <time>2018-07-11T09:49:43Z</time>
      </trkpt>
      <trkpt lat="46.126806735992432" lon="10.473741721361876">
        <ele>2630.3000000000002</ele>
        <time>2018-07-11T09:49:58Z</time>
      </trkpt>
      <trkpt lat="46.126792151480913" lon="10.473725041374564">
        <ele>2630.3000000000002</ele>
        <time>2018-07-11T09:50:06Z</time>
      </trkpt>
      <trkpt lat="46.126779578626156" lon="10.473692351952195">
        <ele>2628.8600000000001</ele>
        <time>2018-07-11T09:50:16Z</time>
      </trkpt>
      <trkpt lat="46.126811429858208" lon="10.473659913986921">
        <ele>2627.9000000000001</ele>
        <time>2018-07-11T09:50:26Z</time>
      </trkpt>
      <trkpt lat="46.126836240291595" lon="10.473633427172899">
        <ele>2626.46</ele>
        <time>2018-07-11T09:50:37Z</time>
      </trkpt>
      <trkpt lat="46.126833222806454" lon="10.473622865974903">
        <ele>2625.5</ele>
        <time>2018-07-11T09:50:46Z</time>
      </trkpt>
      <trkpt lat="46.126851495355368" lon="10.473621943965554">
        <ele>2625.5</ele>
        <time>2018-07-11T09:51:02Z</time>
      </trkpt>
      <trkpt lat="46.126844454556704" lon="10.473585734143853">
        <ele>2624.54</ele>
        <time>2018-07-11T09:51:15Z</time>
      </trkpt>
      <trkpt lat="46.126842442899942" lon="10.473595121875405">
        <ele>2624.0599999999999</ele>
        <time>2018-07-11T09:51:27Z</time>
      </trkpt>
      <trkpt lat="46.126836994662881" lon="10.47356653958559">
        <ele>2622.6100000000001</ele>
        <time>2018-07-11T09:51:38Z</time>
      </trkpt>
      <trkpt lat="46.126844454556704" lon="10.47356310300529">
        <ele>2621.1700000000001</ele>
        <time>2018-07-11T09:51:49Z</time>
      </trkpt>
      <trkpt lat="46.126846885308623" lon="10.473536867648363">
        <ele>2620.21</ele>
        <time>2018-07-11T09:51:59Z</time>
      </trkpt>
      <trkpt lat="46.126853171736002" lon="10.47350543551147">
        <ele>2618.29</ele>
        <time>2018-07-11T09:52:10Z</time>
      </trkpt>
      <trkpt lat="46.12686138600111" lon="10.47347953543067">
        <ele>2616.8499999999999</ele>
        <time>2018-07-11T09:52:21Z</time>
      </trkpt>
      <trkpt lat="46.126878065988421" lon="10.473449276760221">
        <ele>2615.4000000000001</ele>
        <time>2018-07-11T09:52:30Z</time>
      </trkpt>
      <trkpt lat="46.126907654106617" lon="10.47341994009912">
        <ele>2613</ele>
        <time>2018-07-11T09:52:41Z</time>
      </trkpt>
      <trkpt lat="46.126937912777066" lon="10.473400913178921">
        <ele>2611.5599999999999</ele>
        <time>2018-07-11T09:52:52Z</time>
      </trkpt>
      <trkpt lat="46.126978481188416" lon="10.473378282040358">
        <ele>2609.6399999999999</ele>
        <time>2018-07-11T09:53:01Z</time>
      </trkpt>
      <trkpt lat="46.127014858648181" lon="10.473351879045367">
        <ele>2607.71</ele>
        <time>2018-07-11T09:53:14Z</time>
      </trkpt>
      <trkpt lat="46.127024749293923" lon="10.473316004499793">
        <ele>2605.79</ele>
        <time>2018-07-11T09:53:24Z</time>
      </trkpt>
      <trkpt lat="46.127055343240499" lon="10.473278369754553">
        <ele>2604.8299999999999</ele>
        <time>2018-07-11T09:53:33Z</time>
      </trkpt>
      <trkpt lat="46.127063725143671" lon="10.473271496593952">
        <ele>2603.8699999999999</ele>
        <time>2018-07-11T09:53:35Z</time>
      </trkpt>
      <trkpt lat="46.127081997692585" lon="10.473260097205639">
        <ele>2602.9099999999999</ele>
        <time>2018-07-11T09:53:44Z</time>
      </trkpt>
      <trkpt lat="46.127100689336658" lon="10.473227994516492">
        <ele>2601.46</ele>
        <time>2018-07-11T09:53:54Z</time>
      </trkpt>
      <trkpt lat="46.127110915258527" lon="10.473206620663404">
        <ele>2599.54</ele>
        <time>2018-07-11T09:54:05Z</time>
      </trkpt>
      <trkpt lat="46.127120722085238" lon="10.473160771653056">
        <ele>2597.1399999999999</ele>
        <time>2018-07-11T09:54:17Z</time>
      </trkpt>
      <trkpt lat="46.127145113423467" lon="10.473133279010653">
        <ele>2595.2199999999998</ele>
        <time>2018-07-11T09:54:27Z</time>
      </trkpt>
      <trkpt lat="46.127179646864533" lon="10.473103942349553">
        <ele>2593.29</ele>
        <time>2018-07-11T09:54:35Z</time>
      </trkpt>
      <trkpt lat="46.127201775088906" lon="10.473047532141209">
        <ele>2591.8499999999999</ele>
        <time>2018-07-11T09:54:46Z</time>
      </trkpt>
      <trkpt lat="46.127202864736319" lon="10.473045101389289">
        <ele>2590.8899999999999</ele>
        <time>2018-07-11T09:54:57Z</time>
      </trkpt>
      <trkpt lat="46.127240415662527" lon="10.473002186045051">
        <ele>2588.9699999999998</ele>
        <time>2018-07-11T09:55:07Z</time>
      </trkpt>
      <trkpt lat="46.12728307954967" lon="10.47300067730248">
        <ele>2588.4899999999998</ele>
        <time>2018-07-11T09:55:17Z</time>
      </trkpt>
      <trkpt lat="46.127296909689903" lon="10.472997408360243">
        <ele>2588.0100000000002</ele>
        <time>2018-07-11T09:55:20Z</time>
      </trkpt>
      <trkpt lat="46.127331191673875" lon="10.472992630675435">
        <ele>2588.0100000000002</ele>
        <time>2018-07-11T09:55:30Z</time>
      </trkpt>
      <trkpt lat="46.127350050956011" lon="10.472996402531862">
        <ele>2588.4899999999998</ele>
        <time>2018-07-11T09:55:38Z</time>
      </trkpt>
      <trkpt lat="46.127355666831136" lon="10.47299237921834">
        <ele>2588.0100000000002</ele>
        <time>2018-07-11T09:55:51Z</time>
      </trkpt>
      <trkpt lat="46.127373101189733" lon="10.473000006750226">
        <ele>2587.5300000000002</ele>
        <time>2018-07-11T09:56:03Z</time>
      </trkpt>
      <trkpt lat="46.127372765913606" lon="10.472986092790961">
        <ele>2587.5300000000002</ele>
        <time>2018-07-11T09:56:17Z</time>
      </trkpt>
      <trkpt lat="46.127405622974038" lon="10.472965138033032">
        <ele>2585.5999999999999</ele>
        <time>2018-07-11T09:56:29Z</time>
      </trkpt>
      <trkpt lat="46.127414843067527" lon="10.47291174530983">
        <ele>2584.6399999999999</ele>
        <time>2018-07-11T09:56:40Z</time>
      </trkpt>
      <trkpt lat="46.127465553581715" lon="10.472876206040382">
        <ele>2583.1999999999998</ele>
        <time>2018-07-11T09:56:52Z</time>
      </trkpt>
      <trkpt lat="46.127498410642147" lon="10.472828848287463">
        <ele>2580.8000000000002</ele>
        <time>2018-07-11T09:57:03Z</time>
      </trkpt>
      <trkpt lat="46.127531100064516" lon="10.472791464999318">
        <ele>2579.3499999999999</ele>
        <time>2018-07-11T09:57:12Z</time>
      </trkpt>
      <trkpt lat="46.127546019852161" lon="10.47276321798563">
        <ele>2578.3899999999999</ele>
        <time>2018-07-11T09:57:21Z</time>
      </trkpt>
      <trkpt lat="46.127568064257503" lon="10.472716363146901">
        <ele>2576.9499999999998</ele>
        <time>2018-07-11T09:57:32Z</time>
      </trkpt>
      <trkpt lat="46.12759186886251" lon="10.47266355715692">
        <ele>2575.5100000000002</ele>
        <time>2018-07-11T09:57:42Z</time>
      </trkpt>
      <trkpt lat="46.127603184431791" lon="10.472634891048074">
        <ele>2574.5500000000002</ele>
        <time>2018-07-11T09:57:52Z</time>
      </trkpt>
      <trkpt lat="46.127603687345982" lon="10.472603207454085">
        <ele>2574.0700000000002</ele>
        <time>2018-07-11T09:58:02Z</time>
      </trkpt>
      <trkpt lat="46.127622462809086" lon="10.472586276009679">
        <ele>2573.1100000000001</ele>
        <time>2018-07-11T09:58:17Z</time>
      </trkpt>
      <trkpt lat="46.127641573548317" lon="10.47257705591619">
        <ele>2572.6300000000001</ele>
        <time>2018-07-11T09:58:29Z</time>
      </trkpt>
      <trkpt lat="46.127645848318934" lon="10.472549060359597">
        <ele>2571.1799999999998</ele>
        <time>2018-07-11T09:58:42Z</time>
      </trkpt>
      <trkpt lat="46.127667808905244" lon="10.472509581595659">
        <ele>2569.2600000000002</ele>
        <time>2018-07-11T09:58:54Z</time>
      </trkpt>
      <trkpt lat="46.127704018726945" lon="10.472499774768949">
        <ele>2567.8200000000002</ele>
        <time>2018-07-11T09:59:03Z</time>
      </trkpt>
      <trkpt lat="46.127731595188379" lon="10.472455183044076">
        <ele>2568.3000000000002</ele>
        <time>2018-07-11T09:59:13Z</time>
      </trkpt>
      <trkpt lat="46.127736372873187" lon="10.472402293235064">
        <ele>2566.8600000000001</ele>
        <time>2018-07-11T09:59:26Z</time>
      </trkpt>
      <trkpt lat="46.127759087830782" lon="10.472307493910193">
        <ele>2564.9299999999998</ele>
        <time>2018-07-11T09:59:37Z</time>
      </trkpt>
      <trkpt lat="46.127764284610748" lon="10.472304560244083">
        <ele>2564.4499999999998</ele>
        <time>2018-07-11T09:59:38Z</time>
      </trkpt>
      <trkpt lat="46.127777611836791" lon="10.472268853336573">
        <ele>2562.5300000000002</ele>
        <time>2018-07-11T09:59:43Z</time>
      </trkpt>
      <trkpt lat="46.127779372036457" lon="10.472249491140246">
        <ele>2560.6100000000001</ele>
        <time>2018-07-11T09:59:52Z</time>
      </trkpt>
      <trkpt lat="46.127809463068843" lon="10.472210347652435">
        <ele>2559.6500000000001</ele>
        <time>2018-07-11T10:00:01Z</time>
      </trkpt>
      <trkpt lat="46.127818012610078" lon="10.47220372594893">
        <ele>2559.1700000000001</ele>
        <time>2018-07-11T10:00:12Z</time>
      </trkpt>
      <trkpt lat="46.127827484160662" lon="10.472119906917214">
        <ele>2556.7600000000002</ele>
        <time>2018-07-11T10:00:21Z</time>
      </trkpt>
      <trkpt lat="46.127817844972014" lon="10.472064670175314">
        <ele>2554.8400000000001</ele>
        <time>2018-07-11T10:00:32Z</time>
      </trkpt>
      <trkpt lat="46.127807702869177" lon="10.472040614113212">
        <ele>2553.8800000000001</ele>
        <time>2018-07-11T10:00:42Z</time>
      </trkpt>
      <trkpt lat="46.127809546887875" lon="10.47198923304677">
        <ele>2552.9200000000001</ele>
        <time>2018-07-11T10:00:51Z</time>
      </trkpt>
      <trkpt lat="46.127820359542966" lon="10.471985377371311">
        <ele>2551.96</ele>
        <time>2018-07-11T10:01:07Z</time>
      </trkpt>
      <trkpt lat="46.12779370509088" lon="10.471999291330576">
        <ele>2551.96</ele>
        <time>2018-07-11T10:01:30Z</time>
      </trkpt>
      <trkpt lat="46.12779513001442" lon="10.472007170319557">
        <ele>2551.96</ele>
        <time>2018-07-11T10:01:46Z</time>
      </trkpt>
      <trkpt lat="46.127809463068843" lon="10.47190960496664">
        <ele>2549.5500000000002</ele>
        <time>2018-07-11T10:01:59Z</time>
      </trkpt>
      <trkpt lat="46.127780294045806" lon="10.471918741241097">
        <ele>2548.1100000000001</ele>
        <time>2018-07-11T10:02:08Z</time>
      </trkpt>
      <trkpt lat="46.127777863293886" lon="10.471847746521235">
        <ele>2546.6700000000001</ele>
        <time>2018-07-11T10:02:20Z</time>
      </trkpt>
      <trkpt lat="46.127781635150313" lon="10.471813129261136">
        <ele>2545.71</ele>
        <time>2018-07-11T10:02:24Z</time>
      </trkpt>
      <trkpt lat="46.127770654857159" lon="10.471728052943945">
        <ele>2544.27</ele>
        <time>2018-07-11T10:02:34Z</time>
      </trkpt>
      <trkpt lat="46.127762608230114" lon="10.471642892807722">
        <ele>2540.9000000000001</ele>
        <time>2018-07-11T10:02:44Z</time>
      </trkpt>
      <trkpt lat="46.127787753939629" lon="10.471562929451466">
        <ele>2538.98</ele>
        <time>2018-07-11T10:02:55Z</time>
      </trkpt>
      <trkpt lat="46.127820611000061" lon="10.471488414332271">
        <ele>2537.0599999999999</ele>
        <time>2018-07-11T10:03:05Z</time>
      </trkpt>
      <trkpt lat="46.127864615991712" lon="10.471402583643794">
        <ele>2534.1700000000001</ele>
        <time>2018-07-11T10:03:16Z</time>
      </trkpt>
      <trkpt lat="46.127887330949306" lon="10.471306778490543">
        <ele>2531.29</ele>
        <time>2018-07-11T10:03:28Z</time>
      </trkpt>
      <trkpt lat="46.127863358706236" lon="10.471280375495553">
        <ele>2530.3299999999999</ele>
        <time>2018-07-11T10:03:40Z</time>
      </trkpt>
      <trkpt lat="46.1278479360044" lon="10.471241651102901">
        <ele>2530.8099999999999</ele>
        <time>2018-07-11T10:03:53Z</time>
      </trkpt>
      <trkpt lat="46.127841984853148" lon="10.471211727708578">
        <ele>2530.8099999999999</ele>
        <time>2018-07-11T10:04:08Z</time>
      </trkpt>
      <trkpt lat="46.127801835536957" lon="10.471242824569345">
        <ele>2530.8099999999999</ele>
        <time>2018-07-11T10:04:18Z</time>
      </trkpt>
      <trkpt lat="46.127821365371346" lon="10.471181133762002">
        <ele>2529.3699999999999</ele>
        <time>2018-07-11T10:04:31Z</time>
      </trkpt>
      <trkpt lat="46.12783963792026" lon="10.471118604764342">
        <ele>2526.48</ele>
        <time>2018-07-11T10:04:40Z</time>
      </trkpt>
      <trkpt lat="46.127813151106238" lon="10.471091195940971">
        <ele>2524.5599999999999</ele>
        <time>2018-07-11T10:04:53Z</time>
      </trkpt>
      <trkpt lat="46.127795800566673" lon="10.471063200384378">
        <ele>2524.0799999999999</ele>
        <time>2018-07-11T10:05:08Z</time>
      </trkpt>
      <trkpt lat="46.127777192741632" lon="10.471030343323946">
        <ele>2522.1599999999999</ele>
        <time>2018-07-11T10:05:17Z</time>
      </trkpt>
      <trkpt lat="46.127745844423771" lon="10.470980973914266">
        <ele>2520.71</ele>
        <time>2018-07-11T10:05:27Z</time>
      </trkpt>
      <trkpt lat="46.127751544117928" lon="10.470893802121282">
        <ele>2519.27</ele>
        <time>2018-07-11T10:05:37Z</time>
      </trkpt>
      <trkpt lat="46.127741150557995" lon="10.470800092443824">
        <ele>2516.8699999999999</ele>
        <time>2018-07-11T10:05:47Z</time>
      </trkpt>
      <trkpt lat="46.12776093184948" lon="10.470706634223461">
        <ele>2514.4699999999998</ele>
        <time>2018-07-11T10:05:58Z</time>
      </trkpt>
      <trkpt lat="46.127732684835792" lon="10.470684925094247">
        <ele>2513.5</ele>
        <time>2018-07-11T10:06:07Z</time>
      </trkpt>
      <trkpt lat="46.127726063132286" lon="10.470632705837488">
        <ele>2512.54</ele>
        <time>2018-07-11T10:06:11Z</time>
      </trkpt>
      <trkpt lat="46.127729332074523" lon="10.470585096627474">
        <ele>2511.5799999999999</ele>
        <time>2018-07-11T10:06:20Z</time>
      </trkpt>
      <trkpt lat="46.127747520804405" lon="10.470545031130314">
        <ele>2510.6199999999999</ele>
        <time>2018-07-11T10:06:30Z</time>
      </trkpt>
      <trkpt lat="46.127737546339631" lon="10.470465905964375">
        <ele>2507.7399999999998</ele>
        <time>2018-07-11T10:06:42Z</time>
      </trkpt>
      <trkpt lat="46.127785407006741" lon="10.470416285097599">
        <ele>2505.3299999999999</ele>
        <time>2018-07-11T10:06:53Z</time>
      </trkpt>
      <trkpt lat="46.127801919355989" lon="10.470341769978404">
        <ele>2502.9299999999998</ele>
        <time>2018-07-11T10:07:03Z</time>
      </trkpt>
      <trkpt lat="46.127797476947308" lon="10.470283348113298">
        <ele>2501.0100000000002</ele>
        <time>2018-07-11T10:07:13Z</time>
      </trkpt>
      <trkpt lat="46.127805020660162" lon="10.47025116160512">
        <ele>2500.0500000000002</ele>
        <time>2018-07-11T10:07:22Z</time>
      </trkpt>
      <trkpt lat="46.127805104479194" lon="10.470248563215137">
        <ele>2500.0500000000002</ele>
        <time>2018-07-11T10:07:23Z</time>
      </trkpt>
      <trkpt lat="46.127789514139295" lon="10.470281168818474">
        <ele>2499.0799999999999</ele>
        <time>2018-07-11T10:07:33Z</time>
      </trkpt>
      <trkpt lat="46.127787502482533" lon="10.470277816057205">
        <ele>2499.0799999999999</ele>
        <time>2018-07-11T10:07:59Z</time>
      </trkpt>
      <trkpt lat="46.127790184691548" lon="10.470275720581412">
        <ele>2500.0500000000002</ele>
        <time>2018-07-11T10:08:23Z</time>
      </trkpt>
      <trkpt lat="46.127812145277858" lon="10.470282845199108">
        <ele>2500.0500000000002</ele>
        <time>2018-07-11T10:08:32Z</time>
      </trkpt>
      <trkpt lat="46.127817174419761" lon="10.470294496044517">
        <ele>2500.0500000000002</ele>
        <time>2018-07-11T10:08:45Z</time>
      </trkpt>
      <trkpt lat="46.127787586301565" lon="10.470268428325653">
        <ele>2499.5700000000002</ele>
        <time>2018-07-11T10:08:56Z</time>
      </trkpt>
      <trkpt lat="46.127791106700897" lon="10.470213526859879">
        <ele>2497.6399999999999</ele>
        <time>2018-07-11T10:09:05Z</time>
      </trkpt>
      <trkpt lat="46.127784317359328" lon="10.470175724476576">
        <ele>2495.7199999999998</ele>
        <time>2018-07-11T10:09:15Z</time>
      </trkpt>
      <trkpt lat="46.127785490825772" lon="10.470086960121989">
        <ele>2492.3600000000001</ele>
        <time>2018-07-11T10:09:28Z</time>
      </trkpt>
      <trkpt lat="46.127764033153653" lon="10.470060808584094">
        <ele>2490.9099999999999</ele>
        <time>2018-07-11T10:09:37Z</time>
      </trkpt>
      <trkpt lat="46.127757662907243" lon="10.470026442781091">
        <ele>2489.4699999999998</ele>
        <time>2018-07-11T10:09:48Z</time>
      </trkpt>
      <trkpt lat="46.127737211063504" lon="10.470031974837184">
        <ele>2487.5500000000002</ele>
        <time>2018-07-11T10:09:57Z</time>
      </trkpt>
      <trkpt lat="46.127731679007411" lon="10.469933487474918">
        <ele>2485.6300000000001</ele>
        <time>2018-07-11T10:10:07Z</time>
      </trkpt>
      <trkpt lat="46.127778785303235" lon="10.46985930763185">
        <ele>2483.2199999999998</ele>
        <time>2018-07-11T10:10:18Z</time>
      </trkpt>
      <trkpt lat="46.127801667898893" lon="10.469754030928016">
        <ele>2481.3000000000002</ele>
        <time>2018-07-11T10:10:25Z</time>
      </trkpt>
      <trkpt lat="46.127872075885534" lon="10.469677755609155">
        <ele>2478.9000000000001</ele>
        <time>2018-07-11T10:10:36Z</time>
      </trkpt>
      <trkpt lat="46.127866124734282" lon="10.469672223553061">
        <ele>2478.9000000000001</ele>
        <time>2018-07-11T10:10:39Z</time>
      </trkpt>
      <trkpt lat="46.127854222431779" lon="10.469618830829859">
        <ele>2477.4499999999998</ele>
        <time>2018-07-11T10:10:49Z</time>
      </trkpt>
      <trkpt lat="46.1278738360852" lon="10.469572730362415">
        <ele>2476.4899999999998</ele>
        <time>2018-07-11T10:10:57Z</time>
      </trkpt>
      <trkpt lat="46.127835363149643" lon="10.469583878293633">
        <ele>2474.5700000000002</ele>
        <time>2018-07-11T10:11:06Z</time>
      </trkpt>
      <trkpt lat="46.127831591293216" lon="10.469538867473602">
        <ele>2472.6500000000001</ele>
        <time>2018-07-11T10:11:14Z</time>
      </trkpt>
      <trkpt lat="46.127819437533617" lon="10.469490084797144">
        <ele>2471.6900000000001</ele>
        <time>2018-07-11T10:11:22Z</time>
      </trkpt>
      <trkpt lat="46.127791106700897" lon="10.469399308785796">
        <ele>2468.3200000000002</ele>
        <time>2018-07-11T10:11:32Z</time>
      </trkpt>
      <trkpt lat="46.127806194126606" lon="10.469320183619857">
        <ele>2466.4000000000001</ele>
        <time>2018-07-11T10:11:41Z</time>
      </trkpt>
      <trkpt lat="46.127823712304235" lon="10.46929738484323">
        <ele>2466.8800000000001</ele>
        <time>2018-07-11T10:11:50Z</time>
      </trkpt>
      <trkpt lat="46.127787502482533" lon="10.46928221359849">
        <ele>2466.4000000000001</ele>
        <time>2018-07-11T10:12:01Z</time>
      </trkpt>
      <trkpt lat="46.127795381471515" lon="10.469154138118029">
        <ele>2463.52</ele>
        <time>2018-07-11T10:12:13Z</time>
      </trkpt>
      <trkpt lat="46.127817090600729" lon="10.469140391796827">
        <ele>2462.5500000000002</ele>
        <time>2018-07-11T10:12:17Z</time>
      </trkpt>
      <trkpt lat="46.127860173583031" lon="10.46905598603189">
        <ele>2460.6300000000001</ele>
        <time>2018-07-11T10:12:28Z</time>
      </trkpt>
      <trkpt lat="46.127861766144633" lon="10.469025643542409">
        <ele>2460.1500000000001</ele>
        <time>2018-07-11T10:12:39Z</time>
      </trkpt>
      <trkpt lat="46.127868304029107" lon="10.468995468690991">
        <ele>2458.71</ele>
        <time>2018-07-11T10:12:50Z</time>
      </trkpt>
      <trkpt lat="46.127877775579691" lon="10.468949284404516">
        <ele>2457.27</ele>
        <time>2018-07-11T10:13:02Z</time>
      </trkpt>
      <trkpt lat="46.127873416990042" lon="10.468952804803848">
        <ele>2456.3099999999999</ele>
        <time>2018-07-11T10:13:13Z</time>
      </trkpt>
      <trkpt lat="46.127859419211745" lon="10.468900082632899">
        <ele>2453.9000000000001</ele>
        <time>2018-07-11T10:13:24Z</time>
      </trkpt>
      <trkpt lat="46.127874171361327" lon="10.468837469816208">
        <ele>2451.02</ele>
        <time>2018-07-11T10:13:34Z</time>
      </trkpt>
      <trkpt lat="46.127874255180359" lon="10.468789273872972">
        <ele>2449.0999999999999</ele>
        <time>2018-07-11T10:13:43Z</time>
      </trkpt>
      <trkpt lat="46.127879116684198" lon="10.468778964132071">
        <ele>2447.6500000000001</ele>
        <time>2018-07-11T10:13:54Z</time>
      </trkpt>
      <trkpt lat="46.127877440303564" lon="10.468715596944094">
        <ele>2446.21</ele>
        <time>2018-07-11T10:14:03Z</time>
      </trkpt>
      <trkpt lat="46.127899065613747" lon="10.468662204220891">
        <ele>2443.8099999999999</ele>
        <time>2018-07-11T10:14:14Z</time>
      </trkpt>
      <trkpt lat="46.127902753651142" lon="10.468618702143431">
        <ele>2442.3699999999999</ele>
        <time>2018-07-11T10:14:23Z</time>
      </trkpt>
      <trkpt lat="46.127911806106567" lon="10.468559442088008">
        <ele>2439.96</ele>
        <time>2018-07-11T10:14:33Z</time>
      </trkpt>
      <trkpt lat="46.127896970137954" lon="10.468498673290014">
        <ele>2438.52</ele>
        <time>2018-07-11T10:14:44Z</time>
      </trkpt>
      <trkpt lat="46.127928653731942" lon="10.468472773209214">
        <ele>2437.0799999999999</ele>
        <time>2018-07-11T10:14:52Z</time>
      </trkpt>
      <trkpt lat="46.127952123060822" lon="10.468446034938097">
        <ele>2436.1199999999999</ele>
        <time>2018-07-11T10:15:00Z</time>
      </trkpt>
      <trkpt lat="46.127957236021757" lon="10.468391049653292">
        <ele>2434.1999999999998</ele>
        <time>2018-07-11T10:15:11Z</time>
      </trkpt>
      <trkpt lat="46.127964025363326" lon="10.468325167894363">
        <ele>2432.27</ele>
        <time>2018-07-11T10:15:20Z</time>
      </trkpt>
      <trkpt lat="46.12796176224947" lon="10.468262974172831">
        <ele>2430.3499999999999</ele>
        <time>2018-07-11T10:15:29Z</time>
      </trkpt>
      <trkpt lat="46.127979448065162" lon="10.468171276152134">
        <ele>2428.4299999999998</ele>
        <time>2018-07-11T10:15:40Z</time>
      </trkpt>
      <trkpt lat="46.127972491085529" lon="10.468130623921752">
        <ele>2426.5</ele>
        <time>2018-07-11T10:15:49Z</time>
      </trkpt>
      <trkpt lat="46.127996630966663" lon="10.468060299754143">
        <ele>2425.0599999999999</ele>
        <time>2018-07-11T10:16:00Z</time>
      </trkpt>
      <trkpt lat="46.12803015857935" lon="10.468021491542459">
        <ele>2423.6199999999999</ele>
        <time>2018-07-11T10:16:10Z</time>
      </trkpt>
      <trkpt lat="46.128034014254808" lon="10.468008080497384">
        <ele>2422.6599999999999</ele>
        <time>2018-07-11T10:16:18Z</time>
      </trkpt>
      <trkpt lat="46.128042479977012" lon="10.467948820441961">
        <ele>2420.2600000000002</ele>
        <time>2018-07-11T10:16:28Z</time>
      </trkpt>
      <trkpt lat="46.128064943477511" lon="10.467895762994885">
        <ele>2417.8499999999999</ele>
        <time>2018-07-11T10:16:40Z</time>
      </trkpt>
      <trkpt lat="46.128068547695875" lon="10.467821834608912">
        <ele>2415.4499999999998</ele>
        <time>2018-07-11T10:16:50Z</time>
      </trkpt>
      <trkpt lat="46.128084808588028" lon="10.467736758291721">
        <ele>2413.0500000000002</ele>
        <time>2018-07-11T10:17:00Z</time>
      </trkpt>
      <trkpt lat="46.128097549080849" lon="10.467651346698403">
        <ele>2410.6399999999999</ele>
        <time>2018-07-11T10:17:11Z</time>
      </trkpt>
      <trkpt lat="46.128138704225421" lon="10.467579262331128">
        <ele>2407.7600000000002</ele>
        <time>2018-07-11T10:17:23Z</time>
      </trkpt>
      <trkpt lat="46.128108948469162" lon="10.467525953426957">
        <ele>2405.8400000000001</ele>
        <time>2018-07-11T10:17:35Z</time>
      </trkpt>
      <trkpt lat="46.128107775002718" lon="10.467443056404591">
        <ele>2403.4299999999998</ele>
        <time>2018-07-11T10:17:46Z</time>
      </trkpt>
      <trkpt lat="46.128141470253468" lon="10.467366361990571">
        <ele>2401.0300000000002</ele>
        <time>2018-07-11T10:17:57Z</time>
      </trkpt>
      <trkpt lat="46.128157563507557" lon="10.46734482049942">
        <ele>2399.5900000000001</ele>
        <time>2018-07-11T10:18:06Z</time>
      </trkpt>
      <trkpt lat="46.128155719488859" lon="10.467266533523798">
        <ele>2396.6999999999998</ele>
        <time>2018-07-11T10:18:17Z</time>
      </trkpt>
      <trkpt lat="46.128138871863484" lon="10.467210374772549">
        <ele>2394.3000000000002</ele>
        <time>2018-07-11T10:18:27Z</time>
      </trkpt>
      <trkpt lat="46.128124035894871" lon="10.46715178526938">
        <ele>2391.9000000000001</ele>
        <time>2018-07-11T10:18:39Z</time>
      </trkpt>
      <trkpt lat="46.128090675920248" lon="10.467111216858029">
        <ele>2389.4899999999998</ele>
        <time>2018-07-11T10:18:49Z</time>
      </trkpt>
      <trkpt lat="46.128105176612735" lon="10.467041311785579">
        <ele>2387.5700000000002</ele>
        <time>2018-07-11T10:18:57Z</time>
      </trkpt>
      <trkpt lat="46.128142978996038" lon="10.467009544372559">
        <ele>2385.6500000000001</ele>
        <time>2018-07-11T10:19:06Z</time>
      </trkpt>
      <trkpt lat="46.128196120262146" lon="10.466962438076735">
        <ele>2382.7600000000002</ele>
        <time>2018-07-11T10:19:18Z</time>
      </trkpt>
      <trkpt lat="46.128184553235769" lon="10.466968724504113">
        <ele>2382.2800000000002</ele>
        <time>2018-07-11T10:19:30Z</time>
      </trkpt>
      <trkpt lat="46.128167370334268" lon="10.466955984011292">
        <ele>2380.8400000000001</ele>
        <time>2018-07-11T10:19:43Z</time>
      </trkpt>
      <trkpt lat="46.128177009522915" lon="10.466882726177573">
        <ele>2378.4400000000001</ele>
        <time>2018-07-11T10:19:54Z</time>
      </trkpt>
      <trkpt lat="46.128181200474501" lon="10.466791363433003">
        <ele>2376.52</ele>
        <time>2018-07-11T10:20:04Z</time>
      </trkpt>
      <trkpt lat="46.128146583214402" lon="10.466765463352203">
        <ele>2375.0700000000002</ele>
        <time>2018-07-11T10:20:14Z</time>
      </trkpt>
      <trkpt lat="46.128150103613734" lon="10.466763535514474">
        <ele>2375.0700000000002</ele>
        <time>2018-07-11T10:20:24Z</time>
      </trkpt>
      <trkpt lat="46.128151612356305" lon="10.46674040146172">
        <ele>2375.0700000000002</ele>
        <time>2018-07-11T10:20:34Z</time>
      </trkpt>
      <trkpt lat="46.128138536587358" lon="10.466728331521153">
        <ele>2375.0700000000002</ele>
        <time>2018-07-11T10:20:53Z</time>
      </trkpt>
      <trkpt lat="46.128153624013066" lon="10.466718943789601">
        <ele>2375.0700000000002</ele>
        <time>2018-07-11T10:21:04Z</time>
      </trkpt>
      <trkpt lat="46.128155970945954" lon="10.466692373156548">
        <ele>2375.0700000000002</ele>
        <time>2018-07-11T10:21:15Z</time>
      </trkpt>
      <trkpt lat="46.128146247938275" lon="10.466662785038352">
        <ele>2374.1100000000001</ele>
        <time>2018-07-11T10:21:26Z</time>
      </trkpt>
      <trkpt lat="46.12813476473093" lon="10.466651888564229">
        <ele>2373.1500000000001</ele>
        <time>2018-07-11T10:21:37Z</time>
      </trkpt>
      <trkpt lat="46.128146331757307" lon="10.466632358729839">
        <ele>2372.6700000000001</ele>
        <time>2018-07-11T10:21:46Z</time>
      </trkpt>
      <trkpt lat="46.128137949854136" lon="10.466606793925166">
        <ele>2372.1900000000001</ele>
        <time>2018-07-11T10:21:57Z</time>
      </trkpt>
      <trkpt lat="46.128121269866824" lon="10.466568572446704">
        <ele>2371.71</ele>
        <time>2018-07-11T10:22:07Z</time>
      </trkpt>
      <trkpt lat="46.128103751689196" lon="10.466513754799962">
        <ele>2370.75</ele>
        <time>2018-07-11T10:22:17Z</time>
      </trkpt>
      <trkpt lat="46.128100231289864" lon="10.466474695131183">
        <ele>2371.23</ele>
        <time>2018-07-11T10:22:27Z</time>
      </trkpt>
      <trkpt lat="46.128107607364655" lon="10.466464720666409">
        <ele>2371.23</ele>
        <time>2018-07-11T10:22:36Z</time>
      </trkpt>
      <trkpt lat="46.128104086965322" lon="10.46644376590848">
        <ele>2371.23</ele>
        <time>2018-07-11T10:22:38Z</time>
      </trkpt>
      <trkpt lat="46.12807609140873" lon="10.466421470046043">
        <ele>2372.1900000000001</ele>
        <time>2018-07-11T10:22:47Z</time>
      </trkpt>
      <trkpt lat="46.128089167177677" lon="10.466376878321171">
        <ele>2371.23</ele>
        <time>2018-07-11T10:22:56Z</time>
      </trkpt>
      <trkpt lat="46.128092939034104" lon="10.46634460799396">
        <ele>2370.75</ele>
        <time>2018-07-11T10:23:06Z</time>
      </trkpt>
      <trkpt lat="46.12810492515564" lon="10.466318121179938">
        <ele>2369.3099999999999</ele>
        <time>2018-07-11T10:23:15Z</time>
      </trkpt>
      <trkpt lat="46.128114564344287" lon="10.466281492263079">
        <ele>2368.3499999999999</ele>
        <time>2018-07-11T10:23:23Z</time>
      </trkpt>
      <trkpt lat="46.128139961510897" lon="10.466253831982613">
        <ele>2367.8600000000001</ele>
        <time>2018-07-11T10:23:32Z</time>
      </trkpt>
      <trkpt lat="46.128159994259477" lon="10.466215694323182">
        <ele>2366.9000000000001</ele>
        <time>2018-07-11T10:23:41Z</time>
      </trkpt>
      <trkpt lat="46.128169884905219" lon="10.466208821162581">
        <ele>2365.9400000000001</ele>
        <time>2018-07-11T10:23:51Z</time>
      </trkpt>
      <trkpt lat="46.128179775550961" lon="10.466185351833701">
        <ele>2365.46</ele>
        <time>2018-07-11T10:24:01Z</time>
      </trkpt>
      <trkpt lat="46.128203244879842" lon="10.466121481731534">
        <ele>2363.54</ele>
        <time>2018-07-11T10:24:12Z</time>
      </trkpt>
      <trkpt lat="46.128215985372663" lon="10.466058785095811">
        <ele>2361.6199999999999</ele>
        <time>2018-07-11T10:24:22Z</time>
      </trkpt>
      <trkpt lat="46.12822663038969" lon="10.466019054874778">
        <ele>2360.1700000000001</ele>
        <time>2018-07-11T10:24:30Z</time>
      </trkpt>
      <trkpt lat="46.128235179930925" lon="10.465952167287469">
        <ele>2358.73</ele>
        <time>2018-07-11T10:24:39Z</time>
      </trkpt>
      <trkpt lat="46.128232749179006" lon="10.465883351862431">
        <ele>2357.29</ele>
        <time>2018-07-11T10:24:48Z</time>
      </trkpt>
      <trkpt lat="46.128231324255466" lon="10.465817721560597">
        <ele>2356.8099999999999</ele>
        <time>2018-07-11T10:24:57Z</time>
      </trkpt>
      <trkpt lat="46.128227636218071" lon="10.465749744325876">
        <ele>2355.3699999999999</ele>
        <time>2018-07-11T10:25:07Z</time>
      </trkpt>
      <trkpt lat="46.128230402246118" lon="10.465707834810019">
        <ele>2354.8899999999999</ele>
        <time>2018-07-11T10:25:16Z</time>
      </trkpt>
      <trkpt lat="46.12823249772191" lon="10.465708756819367">
        <ele>2354.8899999999999</ele>
        <time>2018-07-11T10:25:30Z</time>
      </trkpt>
      <trkpt lat="46.128239287063479" lon="10.465681934729218">
        <ele>2353.9299999999998</ele>
        <time>2018-07-11T10:25:40Z</time>
      </trkpt>
      <trkpt lat="46.128234341740608" lon="10.46561504714191">
        <ele>2352.48</ele>
        <time>2018-07-11T10:25:49Z</time>
      </trkpt>
      <trkpt lat="46.128242220729589" lon="10.465546902269125">
        <ele>2351.04</ele>
        <time>2018-07-11T10:25:58Z</time>
      </trkpt>
      <trkpt lat="46.128246579319239" lon="10.465526953339577">
        <ele>2350.5599999999999</ele>
        <time>2018-07-11T10:26:08Z</time>
      </trkpt>
      <trkpt lat="46.128244483843446" lon="10.465501891449094">
        <ele>2349.5999999999999</ele>
        <time>2018-07-11T10:26:20Z</time>
      </trkpt>
      <trkpt lat="46.1282520275563" lon="10.465459730476141">
        <ele>2348.6399999999999</ele>
        <time>2018-07-11T10:26:28Z</time>
      </trkpt>
      <trkpt lat="46.128241466358304" lon="10.46545771881938">
        <ele>2348.6399999999999</ele>
        <time>2018-07-11T10:26:39Z</time>
      </trkpt>
      <trkpt lat="46.128273736685514" lon="10.465358477085829">
        <ele>2347.6799999999998</ele>
        <time>2018-07-11T10:26:52Z</time>
      </trkpt>
      <trkpt lat="46.128267282620072" lon="10.465302485972643">
        <ele>2347.1999999999998</ele>
        <time>2018-07-11T10:27:02Z</time>
      </trkpt>
      <trkpt lat="46.128279352560639" lon="10.465261582285166">
        <ele>2346.7199999999998</ele>
        <time>2018-07-11T10:27:12Z</time>
      </trkpt>
      <trkpt lat="46.128281531855464" lon="10.465261247009039">
        <ele>2346.7199999999998</ele>
        <time>2018-07-11T10:27:24Z</time>
      </trkpt>
      <trkpt lat="46.128274407237768" lon="10.465267617255449">
        <ele>2346.7199999999998</ele>
        <time>2018-07-11T10:27:45Z</time>
      </trkpt>
      <trkpt lat="46.128265187144279" lon="10.465229395776987">
        <ele>2346.23</ele>
        <time>2018-07-11T10:28:06Z</time>
      </trkpt>
      <trkpt lat="46.128299301490188" lon="10.465144654735923">
        <ele>2344.3099999999999</ele>
        <time>2018-07-11T10:28:16Z</time>
      </trkpt>
      <trkpt lat="46.128330565989017" lon="10.465045915916562">
        <ele>2341.9099999999999</ele>
        <time>2018-07-11T10:28:27Z</time>
      </trkpt>
      <trkpt lat="46.128360824659467" lon="10.464953631162643">
        <ele>2339.9899999999998</ele>
        <time>2018-07-11T10:28:38Z</time>
      </trkpt>
      <trkpt lat="46.128387227654457" lon="10.464917337521911">
        <ele>2338.0599999999999</ele>
        <time>2018-07-11T10:28:47Z</time>
      </trkpt>
      <trkpt lat="46.128424108028412" lon="10.46497592702508">
        <ele>2335.6599999999999</ele>
        <time>2018-07-11T10:29:00Z</time>
      </trkpt>
      <trkpt lat="46.128452271223068" lon="10.464973915368319">
        <ele>2333.7399999999998</ele>
        <time>2018-07-11T10:29:10Z</time>
      </trkpt>
      <trkpt lat="46.128504993394017" lon="10.464940220117569">
        <ele>2330.8499999999999</ele>
        <time>2018-07-11T10:29:20Z</time>
      </trkpt>
      <trkpt lat="46.128549501299858" lon="10.46493879519403">
        <ele>2328.9299999999998</ele>
        <time>2018-07-11T10:29:29Z</time>
      </trkpt>
      <trkpt lat="46.128597529605031" lon="10.464931922033429">
        <ele>2327.0100000000002</ele>
        <time>2018-07-11T10:29:40Z</time>
      </trkpt>
      <trkpt lat="46.128606414422393" lon="10.464903255924582">
        <ele>2326.0500000000002</ele>
        <time>2018-07-11T10:29:51Z</time>
      </trkpt>
      <trkpt lat="46.128622004762292" lon="10.464895544573665">
        <ele>2325.5700000000002</ele>
        <time>2018-07-11T10:30:01Z</time>
      </trkpt>
      <trkpt lat="46.128634745255113" lon="10.464821113273501">
        <ele>2324.1199999999999</ele>
        <time>2018-07-11T10:30:10Z</time>
      </trkpt>
      <trkpt lat="46.128643043339252" lon="10.464777443557978">
        <ele>2320.7600000000002</ele>
        <time>2018-07-11T10:30:16Z</time>
      </trkpt>
      <trkpt lat="46.128675984218717" lon="10.464733187109232">
        <ele>2319.3200000000002</ele>
        <time>2018-07-11T10:30:28Z</time>
      </trkpt>
      <trkpt lat="46.128686293959618" lon="10.464722625911236">
        <ele>2317.8800000000001</ele>
        <time>2018-07-11T10:30:31Z</time>
      </trkpt>
      <trkpt lat="46.128687970340252" lon="10.464720111340284">
        <ele>2317.4000000000001</ele>
        <time>2018-07-11T10:30:43Z</time>
      </trkpt>
      <trkpt lat="46.128687299787998" lon="10.464711729437113">
        <ele>2317.4000000000001</ele>
        <time>2018-07-11T10:30:48Z</time>
      </trkpt>
      <trkpt lat="46.128675900399685" lon="10.464685242623091">
        <ele>2316.9099999999999</ele>
        <time>2018-07-11T10:30:58Z</time>
      </trkpt>
      <trkpt lat="46.128661148250103" lon="10.464681638404727">
        <ele>2316.9099999999999</ele>
        <time>2018-07-11T10:31:21Z</time>
      </trkpt>
      <trkpt lat="46.128670871257782" lon="10.464611565694213">
        <ele>2315.4699999999998</ele>
        <time>2018-07-11T10:31:32Z</time>
      </trkpt>
      <trkpt lat="46.128674978390336" lon="10.464535793289542">
        <ele>2313.0700000000002</ele>
        <time>2018-07-11T10:31:42Z</time>
      </trkpt>
      <trkpt lat="46.128675900399685" lon="10.464528752490878">
        <ele>2312.5900000000001</ele>
        <time>2018-07-11T10:31:43Z</time>
      </trkpt>
      <trkpt lat="46.128676068037748" lon="10.46446236781776">
        <ele>2310.6700000000001</ele>
        <time>2018-07-11T10:31:53Z</time>
      </trkpt>
      <trkpt lat="46.128710517659783" lon="10.464410400018096">
        <ele>2308.2600000000002</ele>
        <time>2018-07-11T10:32:03Z</time>
      </trkpt>
      <trkpt lat="46.128707583993673" lon="10.464342087507248">
        <ele>2305.8600000000001</ele>
        <time>2018-07-11T10:32:13Z</time>
      </trkpt>
      <trkpt lat="46.128708925098181" lon="10.464331274852157">
        <ele>2305.8600000000001</ele>
        <time>2018-07-11T10:32:14Z</time>
      </trkpt>
      <trkpt lat="46.128731723874807" lon="10.464308056980371">
        <ele>2303.9400000000001</ele>
        <time>2018-07-11T10:32:23Z</time>
      </trkpt>
      <trkpt lat="46.128759048879147" lon="10.464270254597068">
        <ele>2301.5300000000002</ele>
        <time>2018-07-11T10:32:34Z</time>
      </trkpt>
      <trkpt lat="46.128792995586991" lon="10.464235721156001">
        <ele>2299.1300000000001</ele>
        <time>2018-07-11T10:32:47Z</time>
      </trkpt>
      <trkpt lat="46.128803389146924" lon="10.464243935421109">
        <ele>2298.6500000000001</ele>
        <time>2018-07-11T10:32:49Z</time>
      </trkpt>
      <trkpt lat="46.128833061084151" lon="10.464322809129953">
        <ele>2297.6900000000001</ele>
        <time>2018-07-11T10:33:01Z</time>
      </trkpt>
      <trkpt lat="46.128868097439408" lon="10.464282408356667">
        <ele>2295.77</ele>
        <time>2018-07-11T10:33:11Z</time>
      </trkpt>
      <trkpt lat="46.128869438543916" lon="10.464226417243481">
        <ele>2293.8400000000001</ele>
        <time>2018-07-11T10:33:21Z</time>
      </trkpt>
      <trkpt lat="46.128907240927219" lon="10.464205294847488">
        <ele>2291.9200000000001</ele>
        <time>2018-07-11T10:33:31Z</time>
      </trkpt>
      <trkpt lat="46.128944288939238" lon="10.464203031733632">
        <ele>2289.52</ele>
        <time>2018-07-11T10:33:42Z</time>
      </trkpt>
      <trkpt lat="46.128986952826381" lon="10.464206887409091">
        <ele>2287.5900000000001</ele>
        <time>2018-07-11T10:33:53Z</time>
      </trkpt>
      <trkpt lat="46.129017965868115" lon="10.46420001424849">
        <ele>2285.6700000000001</ele>
        <time>2018-07-11T10:34:01Z</time>
      </trkpt>
      <trkpt lat="46.129044955596328" lon="10.464138323441148">
        <ele>2284.23</ele>
        <time>2018-07-11T10:34:10Z</time>
      </trkpt>
      <trkpt lat="46.129058534279466" lon="10.464105550199747">
        <ele>2283.27</ele>
        <time>2018-07-11T10:34:15Z</time>
      </trkpt>
      <trkpt lat="46.129061132669449" lon="10.464085936546326">
        <ele>2282.3099999999999</ele>
        <time>2018-07-11T10:34:28Z</time>
      </trkpt>
      <trkpt lat="46.129095666110516" lon="10.464054085314274">
        <ele>2280.3800000000001</ele>
        <time>2018-07-11T10:34:38Z</time>
      </trkpt>
      <trkpt lat="46.129084182903171" lon="10.463992059230804">
        <ele>2278.9400000000001</ele>
        <time>2018-07-11T10:34:48Z</time>
      </trkpt>
      <trkpt lat="46.129125505685806" lon="10.46392735093832">
        <ele>2276.54</ele>
        <time>2018-07-11T10:34:58Z</time>
      </trkpt>
      <trkpt lat="46.129128104075789" lon="10.463864989578724">
        <ele>2274.6199999999999</ele>
        <time>2018-07-11T10:35:12Z</time>
      </trkpt>
      <trkpt lat="46.129144616425037" lon="10.46382425352931">
        <ele>2273.6599999999999</ele>
        <time>2018-07-11T10:35:15Z</time>
      </trkpt>
      <trkpt lat="46.129201529547572" lon="10.463755019009113">
        <ele>2270.77</ele>
        <time>2018-07-11T10:35:26Z</time>
      </trkpt>
      <trkpt lat="46.129258191213012" lon="10.463709840551019">
        <ele>2267.8899999999999</ele>
        <time>2018-07-11T10:35:37Z</time>
      </trkpt>
      <trkpt lat="46.129307141527534" lon="10.463670948520303">
        <ele>2265.96</ele>
        <time>2018-07-11T10:35:47Z</time>
      </trkpt>
      <trkpt lat="46.129341255873442" lon="10.463611604645848">
        <ele>2263.5599999999999</ele>
        <time>2018-07-11T10:35:55Z</time>
      </trkpt>
      <trkpt lat="46.129376040771604" lon="10.463539017364383">
        <ele>2261.6399999999999</ele>
        <time>2018-07-11T10:36:06Z</time>
      </trkpt>
      <trkpt lat="46.12940764054656" lon="10.463464083150029">
        <ele>2258.75</ele>
        <time>2018-07-11T10:36:16Z</time>
      </trkpt>
      <trkpt lat="46.129414848983288" lon="10.46341136097908">
        <ele>2257.79</ele>
        <time>2018-07-11T10:36:25Z</time>
      </trkpt>
      <trkpt lat="46.12942130304873" lon="10.463337767869234">
        <ele>2256.8299999999999</ele>
        <time>2018-07-11T10:36:32Z</time>
      </trkpt>
      <trkpt lat="46.12943303771317" lon="10.463312789797783">
        <ele>2256.3499999999999</ele>
        <time>2018-07-11T10:36:35Z</time>
      </trkpt>
      <trkpt lat="46.129464386031032" lon="10.463232323527336">
        <ele>2254.9099999999999</ele>
        <time>2018-07-11T10:36:42Z</time>
      </trkpt>
      <trkpt lat="46.129514006897807" lon="10.463111540302634">
        <ele>2252.5100000000002</ele>
        <time>2018-07-11T10:36:55Z</time>
      </trkpt>
      <trkpt lat="46.129562789574265" lon="10.46304976567626">
        <ele>2250.0999999999999</ele>
        <time>2018-07-11T10:37:05Z</time>
      </trkpt>
      <trkpt lat="46.129600843414664" lon="10.462985057383776">
        <ele>2248.6599999999999</ele>
        <time>2018-07-11T10:37:15Z</time>
      </trkpt>
      <trkpt lat="46.129640154540539" lon="10.462980112060905">
        <ele>2247.6999999999998</ele>
        <time>2018-07-11T10:37:25Z</time>
      </trkpt>
      <trkpt lat="46.129685584455729" lon="10.462905429303646">
        <ele>2245.7800000000002</ele>
        <time>2018-07-11T10:37:35Z</time>
      </trkpt>
      <trkpt lat="46.129683908075094" lon="10.462813647463918">
        <ele>2243.3699999999999</ele>
        <time>2018-07-11T10:37:46Z</time>
      </trkpt>
      <trkpt lat="46.129688434302807" lon="10.462764110416174">
        <ele>2241.4499999999998</ele>
        <time>2018-07-11T10:37:57Z</time>
      </trkpt>
      <trkpt lat="46.129697319120169" lon="10.462679453194141">
        <ele>2239.0500000000002</ele>
        <time>2018-07-11T10:38:06Z</time>
      </trkpt>
      <trkpt lat="46.129682818427682" lon="10.462565291672945">
        <ele>2237.1300000000001</ele>
        <time>2018-07-11T10:38:17Z</time>
      </trkpt>
      <trkpt lat="46.129681561142206" lon="10.462505361065269">
        <ele>2235.1999999999998</ele>
        <time>2018-07-11T10:38:26Z</time>
      </trkpt>
      <trkpt lat="46.129721459001303" lon="10.462405197322369">
        <ele>2233.2800000000002</ele>
        <time>2018-07-11T10:38:37Z</time>
      </trkpt>
      <trkpt lat="46.1297198664397" lon="10.462379045784473">
        <ele>2232.8000000000002</ele>
        <time>2018-07-11T10:38:48Z</time>
      </trkpt>
      <trkpt lat="46.1297423299402" lon="10.462320204824209">
        <ele>2230.4000000000001</ele>
        <time>2018-07-11T10:38:57Z</time>
      </trkpt>
      <trkpt lat="46.129720872268081" lon="10.462274858728051">
        <ele>2229.9200000000001</ele>
        <time>2018-07-11T10:39:07Z</time>
      </trkpt>
      <trkpt lat="46.12972179427743" lon="10.462193302810192">
        <ele>2227.9899999999998</ele>
        <time>2018-07-11T10:39:18Z</time>
      </trkpt>
      <trkpt lat="46.129760351032019" lon="10.462134964764118">
        <ele>2226.0700000000002</ele>
        <time>2018-07-11T10:39:26Z</time>
      </trkpt>
      <trkpt lat="46.129792369902134" lon="10.462148627266288">
        <ele>2225.1100000000001</ele>
        <time>2018-07-11T10:39:37Z</time>
      </trkpt>
      <trkpt lat="46.129796477034688" lon="10.462157679721713">
        <ele>2225.1100000000001</ele>
        <time>2018-07-11T10:39:52Z</time>
      </trkpt>
      <trkpt lat="46.129802679643035" lon="10.462145609781146">
        <ele>2225.1100000000001</ele>
        <time>2018-07-11T10:40:08Z</time>
      </trkpt>
      <trkpt lat="46.129796812310815" lon="10.462160278111696">
        <ele>2224.6300000000001</ele>
        <time>2018-07-11T10:40:24Z</time>
      </trkpt>
      <trkpt lat="46.129801254719496" lon="10.462120464071631">
        <ele>2224.6300000000001</ele>
        <time>2018-07-11T10:40:29Z</time>
      </trkpt>
      <trkpt lat="46.129819191992283" lon="10.462024742737412">
        <ele>2223.6700000000001</ele>
        <time>2018-07-11T10:40:36Z</time>
      </trkpt>
      <trkpt lat="46.129891779273748" lon="10.461910162121058">
        <ele>2220.7800000000002</ele>
        <time>2018-07-11T10:40:49Z</time>
      </trkpt>
      <trkpt lat="46.129892868921161" lon="10.46189515851438">
        <ele>2220.7800000000002</ele>
        <time>2018-07-11T10:40:50Z</time>
      </trkpt>
      <trkpt lat="46.129915751516819" lon="10.461787953972816">
        <ele>2218.8600000000001</ele>
        <time>2018-07-11T10:40:59Z</time>
      </trkpt>
      <trkpt lat="46.129934694617987" lon="10.461721485480666">
        <ele>2218.3800000000001</ele>
        <time>2018-07-11T10:41:04Z</time>
      </trkpt>
      <trkpt lat="46.129945507273078" lon="10.461657615378499">
        <ele>2216.9400000000001</ele>
        <time>2018-07-11T10:41:09Z</time>
      </trkpt>
      <trkpt lat="46.129990098997951" lon="10.461615873500705">
        <ele>2215.5</ele>
        <time>2018-07-11T10:41:16Z</time>
      </trkpt>
      <trkpt lat="46.129972329363227" lon="10.461541023105383">
        <ele>2214.0500000000002</ele>
        <time>2018-07-11T10:41:21Z</time>
      </trkpt>
      <trkpt lat="46.129981214180589" lon="10.461407331749797">
        <ele>2212.1300000000001</ele>
        <time>2018-07-11T10:41:32Z</time>
      </trkpt>
      <trkpt lat="46.130003090947866" lon="10.461333068087697">
        <ele>2209.73</ele>
        <time>2018-07-11T10:41:40Z</time>
      </trkpt>
      <trkpt lat="46.13000082783401" lon="10.461290907114744">
        <ele>2209.25</ele>
        <time>2018-07-11T10:41:44Z</time>
      </trkpt>
      <trkpt lat="46.130042737349868" lon="10.46122670173645">
        <ele>2207.3200000000002</ele>
        <time>2018-07-11T10:41:53Z</time>
      </trkpt>
      <trkpt lat="46.13010685890913" lon="10.461162077262998">
        <ele>2205.4000000000001</ele>
        <time>2018-07-11T10:42:02Z</time>
      </trkpt>
      <trkpt lat="46.13014742732048" lon="10.461158221587539">
        <ele>2204.4400000000001</ele>
        <time>2018-07-11T10:42:06Z</time>
      </trkpt>
      <trkpt lat="46.130188917741179" lon="10.461113965138793">
        <ele>2203.48</ele>
        <time>2018-07-11T10:42:12Z</time>
      </trkpt>
      <trkpt lat="46.130253290757537" lon="10.461004162207246">
        <ele>2202.04</ele>
        <time>2018-07-11T10:42:22Z</time>
      </trkpt>
      <trkpt lat="46.130275502800941" lon="10.460910620167851">
        <ele>2200.5900000000001</ele>
        <time>2018-07-11T10:42:30Z</time>
      </trkpt>
      <trkpt lat="46.130324872210622" lon="10.460778018459678">
        <ele>2198.6700000000001</ele>
        <time>2018-07-11T10:42:40Z</time>
      </trkpt>
      <trkpt lat="46.130387401208282" lon="10.460723116993904">
        <ele>2197.71</ele>
        <time>2018-07-11T10:42:49Z</time>
      </trkpt>
      <trkpt lat="46.130408607423306" lon="10.460692187771201">
        <ele>2197.71</ele>
        <time>2018-07-11T10:42:56Z</time>
      </trkpt>
      <trkpt lat="46.130418078973889" lon="10.460674166679382">
        <ele>2197.23</ele>
        <time>2018-07-11T10:43:00Z</time>
      </trkpt>
      <trkpt lat="46.13045621663332" lon="10.46061934903264">
        <ele>2197.23</ele>
        <time>2018-07-11T10:43:06Z</time>
      </trkpt>
      <trkpt lat="46.130495611578226" lon="10.460544247180223">
        <ele>2197.23</ele>
        <time>2018-07-11T10:43:13Z</time>
      </trkpt>
      <trkpt lat="46.130527462810278" lon="10.460367221385241">
        <ele>2196.27</ele>
        <time>2018-07-11T10:43:25Z</time>
      </trkpt>
      <trkpt lat="46.130521260201931" lon="10.460301926359534">
        <ele>2195.79</ele>
        <time>2018-07-11T10:43:35Z</time>
      </trkpt>
      <trkpt lat="46.130540873855352" lon="10.460332604125142">
        <ele>2195.79</ele>
        <time>2018-07-11T10:43:49Z</time>
      </trkpt>
      <trkpt lat="46.130565768107772" lon="10.460310224443674">
        <ele>2195.3099999999999</ele>
        <time>2018-07-11T10:43:59Z</time>
      </trkpt>
      <trkpt lat="46.130579765886068" lon="10.460293125361204">
        <ele>2194.8299999999999</ele>
        <time>2018-07-11T10:44:02Z</time>
      </trkpt>
      <trkpt lat="46.130595188587904" lon="10.460276026278734">
        <ele>2194.8299999999999</ele>
        <time>2018-07-11T10:44:04Z</time>
      </trkpt>
      <trkpt lat="46.13060281611979" lon="10.460226237773895">
        <ele>2195.79</ele>
        <time>2018-07-11T10:44:14Z</time>
      </trkpt>
      <trkpt lat="46.130602648481727" lon="10.460228249430656">
        <ele>2197.23</ele>
        <time>2018-07-11T10:44:18Z</time>
      </trkpt>
      <trkpt lat="46.130602648481727" lon="10.460224477574229">
        <ele>2195.3099999999999</ele>
        <time>2018-07-11T10:44:21Z</time>
      </trkpt>
      <trkpt lat="46.130606001242995" lon="10.460175191983581">
        <ele>2195.3099999999999</ele>
        <time>2018-07-11T10:44:33Z</time>
      </trkpt>
      <trkpt lat="46.130608599632978" lon="10.460161278024316">
        <ele>2195.3099999999999</ele>
        <time>2018-07-11T10:44:34Z</time>
      </trkpt>
      <trkpt lat="46.13062871620059" lon="10.46010235324502">
        <ele>2195.3099999999999</ele>
        <time>2018-07-11T10:44:42Z</time>
      </trkpt>
      <trkpt lat="46.130627123638988" lon="10.460090367123485">
        <ele>2194.8299999999999</ele>
        <time>2018-07-11T10:44:56Z</time>
      </trkpt>
      <trkpt lat="46.130657382309437" lon="10.460064131766558">
        <ele>2194.8299999999999</ele>
        <time>2018-07-11T10:45:05Z</time>
      </trkpt>
      <trkpt lat="46.130681606009603" lon="10.460049966350198">
        <ele>2194.8299999999999</ele>
        <time>2018-07-11T10:45:09Z</time>
      </trkpt>
      <trkpt lat="46.130759390071034" lon="10.45996162109077">
        <ele>2195.3099999999999</ele>
        <time>2018-07-11T10:45:21Z</time>
      </trkpt>
      <trkpt lat="46.130816470831633" lon="10.459871180355549">
        <ele>2196.27</ele>
        <time>2018-07-11T10:45:32Z</time>
      </trkpt>
      <trkpt lat="46.130887465551496" lon="10.459805466234684">
        <ele>2196.75</ele>
        <time>2018-07-11T10:45:43Z</time>
      </trkpt>
      <trkpt lat="46.130957873538136" lon="10.459773950278759">
        <ele>2198.1900000000001</ele>
        <time>2018-07-11T10:45:55Z</time>
      </trkpt>
      <trkpt lat="46.131001878529787" lon="10.459743188694119">
        <ele>2198.6700000000001</ele>
        <time>2018-07-11T10:46:05Z</time>
      </trkpt>
      <trkpt lat="46.131062814965844" lon="10.459650903940201">
        <ele>2199.1500000000001</ele>
        <time>2018-07-11T10:46:16Z</time>
      </trkpt>
      <trkpt lat="46.131128612905741" lon="10.459565408527851">
        <ele>2200.1100000000001</ele>
        <time>2018-07-11T10:46:27Z</time>
      </trkpt>
      <trkpt lat="46.131190471351147" lon="10.459494246169925">
        <ele>2200.5900000000001</ele>
        <time>2018-07-11T10:46:37Z</time>
      </trkpt>
      <trkpt lat="46.131202876567841" lon="10.459485277533531">
        <ele>2200.1100000000001</ele>
        <time>2018-07-11T10:46:39Z</time>
      </trkpt>
      <trkpt lat="46.131281415000558" lon="10.459439847618341">
        <ele>2201.0799999999999</ele>
        <time>2018-07-11T10:46:50Z</time>
      </trkpt>
      <trkpt lat="46.131367916241288" lon="10.459409169852734">
        <ele>2201.0799999999999</ele>
        <time>2018-07-11T10:47:01Z</time>
      </trkpt>
      <trkpt lat="46.131423991173506" lon="10.459348652511835">
        <ele>2202.04</ele>
        <time>2018-07-11T10:47:11Z</time>
      </trkpt>
      <trkpt lat="46.131436564028263" lon="10.459335492923856">
        <ele>2201.5599999999999</ele>
        <time>2018-07-11T10:47:13Z</time>
      </trkpt>
      <trkpt lat="46.131486352533102" lon="10.459281597286463">
        <ele>2201.0799999999999</ele>
        <time>2018-07-11T10:47:22Z</time>
      </trkpt>
      <trkpt lat="46.131511330604553" lon="10.459242537617683">
        <ele>2201.0799999999999</ele>
        <time>2018-07-11T10:47:26Z</time>
      </trkpt>
      <trkpt lat="46.131583582609892" lon="10.459132986143231">
        <ele>2201.5599999999999</ele>
        <time>2018-07-11T10:47:38Z</time>
      </trkpt>
      <trkpt lat="46.131654661148787" lon="10.459043635055423">
        <ele>2202.04</ele>
        <time>2018-07-11T10:47:49Z</time>
      </trkpt>
      <trkpt lat="46.131739234551787" lon="10.459022680297494">
        <ele>2203</ele>
        <time>2018-07-11T10:48:00Z</time>
      </trkpt>
      <trkpt lat="46.131814671680331" lon="10.458987895399332">
        <ele>2203.48</ele>
        <time>2018-07-11T10:48:12Z</time>
      </trkpt>
      <trkpt lat="46.131865046918392" lon="10.458962162956595">
        <ele>2204.9200000000001</ele>
        <time>2018-07-11T10:48:22Z</time>
      </trkpt>
      <trkpt lat="46.1319181881845" lon="10.45894137583673">
        <ele>2205.8800000000001</ele>
        <time>2018-07-11T10:48:33Z</time>
      </trkpt>
      <trkpt lat="46.131914248690009" lon="10.45886711217463">
        <ele>2206.3600000000001</ele>
        <time>2018-07-11T10:48:42Z</time>
      </trkpt>
      <trkpt lat="46.131947441026568" lon="10.458814222365618">
        <ele>2207.8099999999999</ele>
        <time>2018-07-11T10:48:53Z</time>
      </trkpt>
      <trkpt lat="46.131998235359788" lon="10.458761164918542">
        <ele>2209.25</ele>
        <time>2018-07-11T10:49:04Z</time>
      </trkpt>
      <trkpt lat="46.131997732445598" lon="10.458729062229395">
        <ele>2210.21</ele>
        <time>2018-07-11T10:49:15Z</time>
      </trkpt>
      <trkpt lat="46.132000582292676" lon="10.4587097838521">
        <ele>2209.73</ele>
        <time>2018-07-11T10:49:20Z</time>
      </trkpt>
      <trkpt lat="46.132004605606198" lon="10.458635855466127">
        <ele>2209.25</ele>
        <time>2018-07-11T10:49:25Z</time>
      </trkpt>
      <trkpt lat="46.131983567029238" lon="10.458572739735246">
        <ele>2209.73</ele>
        <time>2018-07-11T10:49:31Z</time>
      </trkpt>
      <trkpt lat="46.131944339722395" lon="10.458470061421394">
        <ele>2209.73</ele>
        <time>2018-07-11T10:49:43Z</time>
      </trkpt>
      <trkpt lat="46.131915086880326" lon="10.458379620686173">
        <ele>2209.73</ele>
        <time>2018-07-11T10:49:53Z</time>
      </trkpt>
      <trkpt lat="46.131913494318724" lon="10.45831348747015">
        <ele>2209.73</ele>
        <time>2018-07-11T10:50:02Z</time>
      </trkpt>
      <trkpt lat="46.131904860958457" lon="10.458267303183675">
        <ele>2208.77</ele>
        <time>2018-07-11T10:50:07Z</time>
      </trkpt>
      <trkpt lat="46.131894467398524" lon="10.458108214661479">
        <ele>2207.8099999999999</ele>
        <time>2018-07-11T10:50:17Z</time>
      </trkpt>
      <trkpt lat="46.13192941993475" lon="10.457995478063822">
        <ele>2208.77</ele>
        <time>2018-07-11T10:50:28Z</time>
      </trkpt>
      <trkpt lat="46.131988512352109" lon="10.457948036491871">
        <ele>2210.21</ele>
        <time>2018-07-11T10:50:37Z</time>
      </trkpt>
      <trkpt lat="46.132044671103358" lon="10.457894979044795">
        <ele>2210.6900000000001</ele>
        <time>2018-07-11T10:50:45Z</time>
      </trkpt>
      <trkpt lat="46.132067050784826" lon="10.457849632948637">
        <ele>2210.6900000000001</ele>
        <time>2018-07-11T10:50:49Z</time>
      </trkpt>
      <trkpt lat="46.132114073261619" lon="10.457808477804065">
        <ele>2210.6900000000001</ele>
        <time>2018-07-11T10:50:55Z</time>
      </trkpt>
      <trkpt lat="46.132165035232902" lon="10.457681827247143">
        <ele>2210.6900000000001</ele>
        <time>2018-07-11T10:51:06Z</time>
      </trkpt>
      <trkpt lat="46.132175931707025" lon="10.457609491422772">
        <ele>2210.6900000000001</ele>
        <time>2018-07-11T10:51:12Z</time>
      </trkpt>
      <trkpt lat="46.132174171507359" lon="10.457481080666184">
        <ele>2211.1700000000001</ele>
        <time>2018-07-11T10:51:23Z</time>
      </trkpt>
      <trkpt lat="46.132179368287325" lon="10.457370607182384">
        <ele>2211.6500000000001</ele>
        <time>2018-07-11T10:51:33Z</time>
      </trkpt>
      <trkpt lat="46.132142739370465" lon="10.457300031557679">
        <ele>2211.6500000000001</ele>
        <time>2018-07-11T10:51:43Z</time>
      </trkpt>
      <trkpt lat="46.132121784612536" lon="10.457231132313609">
        <ele>2212.1300000000001</ele>
        <time>2018-07-11T10:51:48Z</time>
      </trkpt>
      <trkpt lat="46.132110888138413" lon="10.45713004656136">
        <ele>2211.1700000000001</ele>
        <time>2018-07-11T10:51:59Z</time>
      </trkpt>
      <trkpt lat="46.13208825699985" lon="10.45707187615335">
        <ele>2211.6500000000001</ele>
        <time>2018-07-11T10:52:08Z</time>
      </trkpt>
      <trkpt lat="46.132082305848598" lon="10.456970455124974">
        <ele>2212.6100000000001</ele>
        <time>2018-07-11T10:52:18Z</time>
      </trkpt>
      <trkpt lat="46.132068643346429" lon="10.456875152885914">
        <ele>2214.0500000000002</ele>
        <time>2018-07-11T10:52:30Z</time>
      </trkpt>
      <trkpt lat="46.132060261443257" lon="10.456839110702276">
        <ele>2213.5700000000002</ele>
        <time>2018-07-11T10:52:39Z</time>
      </trkpt>
      <trkpt lat="46.13205699250102" lon="10.45682854950428">
        <ele>2213.5700000000002</ele>
        <time>2018-07-11T10:52:48Z</time>
      </trkpt>
      <trkpt lat="46.132031595334411" lon="10.456646578386426">
        <ele>2213.0900000000001</ele>
        <time>2018-07-11T10:53:00Z</time>
      </trkpt>
      <trkpt lat="46.132077863439918" lon="10.456510204821825">
        <ele>2211.6500000000001</ele>
        <time>2018-07-11T10:53:10Z</time>
      </trkpt>
      <trkpt lat="46.132081048563123" lon="10.456501990556717">
        <ele>2211.6500000000001</ele>
        <time>2018-07-11T10:53:11Z</time>
      </trkpt>
      <trkpt lat="46.132116671651602" lon="10.456359330564737">
        <ele>2211.1700000000001</ele>
        <time>2018-07-11T10:53:22Z</time>
      </trkpt>
      <trkpt lat="46.132116671651602" lon="10.456344997510314">
        <ele>2210.21</ele>
        <time>2018-07-11T10:53:23Z</time>
      </trkpt>
      <trkpt lat="46.13210728392005" lon="10.456277439370751">
        <ele>2210.6900000000001</ele>
        <time>2018-07-11T10:53:30Z</time>
      </trkpt>
      <trkpt lat="46.132138213142753" lon="10.456153722479939">
        <ele>2210.21</ele>
        <time>2018-07-11T10:53:41Z</time>
      </trkpt>
      <trkpt lat="46.132154893130064" lon="10.456070490181446">
        <ele>2209.25</ele>
        <time>2018-07-11T10:53:48Z</time>
      </trkpt>
      <trkpt lat="46.132220439612865" lon="10.455952472984791">
        <ele>2208.29</ele>
        <time>2018-07-11T10:53:58Z</time>
      </trkpt>
      <trkpt lat="46.132290260866284" lon="10.455874605104327">
        <ele>2207.3200000000002</ele>
        <time>2018-07-11T10:54:08Z</time>
      </trkpt>
      <trkpt lat="46.132278945297003" lon="10.455823224037886">
        <ele>2206.8400000000001</ele>
        <time>2018-07-11T10:54:12Z</time>
      </trkpt>
      <trkpt lat="46.132233515381813" lon="10.455742590129375">
        <ele>2205.8800000000001</ele>
        <time>2018-07-11T10:54:19Z</time>
      </trkpt>
      <trkpt lat="46.132232006639242" lon="10.455560870468616">
        <ele>2205.4000000000001</ele>
        <time>2018-07-11T10:54:31Z</time>
      </trkpt>
      <trkpt lat="46.132227564230561" lon="10.455415109172463">
        <ele>2205.8800000000001</ele>
        <time>2018-07-11T10:54:43Z</time>
      </trkpt>
      <trkpt lat="46.132237119600177" lon="10.45531427487731">
        <ele>2206.3600000000001</ele>
        <time>2018-07-11T10:54:53Z</time>
      </trkpt>
      <trkpt lat="46.132250530645251" lon="10.455247219651937">
        <ele>2206.8400000000001</ele>
        <time>2018-07-11T10:55:02Z</time>
      </trkpt>
      <trkpt lat="46.132279699668288" lon="10.455183265730739">
        <ele>2205.4000000000001</ele>
        <time>2018-07-11T10:55:11Z</time>
      </trkpt>
      <trkpt lat="46.132293362170458" lon="10.455096596851945">
        <ele>2204.9200000000001</ele>
        <time>2018-07-11T10:55:19Z</time>
      </trkpt>
      <trkpt lat="46.132331332191825" lon="10.455014202743769">
        <ele>2203.48</ele>
        <time>2018-07-11T10:55:27Z</time>
      </trkpt>
      <trkpt lat="46.132377181202173" lon="10.454884115606546">
        <ele>2203</ele>
        <time>2018-07-11T10:55:38Z</time>
      </trkpt>
      <trkpt lat="46.132380533963442" lon="10.454873135313392">
        <ele>2202.52</ele>
        <time>2018-07-11T10:55:39Z</time>
      </trkpt>
      <trkpt lat="46.132382294163108" lon="10.45472351834178">
        <ele>2202.52</ele>
        <time>2018-07-11T10:55:50Z</time>
      </trkpt>
      <trkpt lat="46.13235748372972" lon="10.454641291871667">
        <ele>2202.52</ele>
        <time>2018-07-11T10:55:56Z</time>
      </trkpt>
      <trkpt lat="46.132321525365114" lon="10.454508187249303">
        <ele>2202.04</ele>
        <time>2018-07-11T10:56:08Z</time>
      </trkpt>
      <trkpt lat="46.132319597527385" lon="10.454498799517751">
        <ele>2202.04</ele>
        <time>2018-07-11T10:56:09Z</time>
      </trkpt>
      <trkpt lat="46.132267126813531" lon="10.454415902495384">
        <ele>2202.04</ele>
        <time>2018-07-11T10:56:17Z</time>
      </trkpt>
      <trkpt lat="46.13230224698782" lon="10.454303836449981">
        <ele>2202.04</ele>
        <time>2018-07-11T10:56:27Z</time>
      </trkpt>
      <trkpt lat="46.132306773215532" lon="10.454292688518763">
        <ele>2202.04</ele>
        <time>2018-07-11T10:56:28Z</time>
      </trkpt>
      <trkpt lat="46.132324039936066" lon="10.454248515889049">
        <ele>2201.0799999999999</ele>
        <time>2018-07-11T10:56:32Z</time>
      </trkpt>
      <trkpt lat="46.132371313869953" lon="10.454117506742477">
        <ele>2201.0799999999999</ele>
        <time>2018-07-11T10:56:43Z</time>
      </trkpt>
      <trkpt lat="46.132357148453593" lon="10.454028993844986">
        <ele>2201.5599999999999</ele>
        <time>2018-07-11T10:56:50Z</time>
      </trkpt>
      <trkpt lat="46.132338456809521" lon="10.453943079337478">
        <ele>2201.0799999999999</ele>
        <time>2018-07-11T10:56:57Z</time>
      </trkpt>
      <trkpt lat="46.132318004965782" lon="10.453774854540825">
        <ele>2199.6300000000001</ele>
        <time>2018-07-11T10:57:09Z</time>
      </trkpt>
      <trkpt lat="46.132327141240239" lon="10.453774435445666">
        <ele>2200.1100000000001</ele>
        <time>2018-07-11T10:57:18Z</time>
      </trkpt>
      <trkpt lat="46.13231934607029" lon="10.453749541193247">
        <ele>2200.1100000000001</ele>
        <time>2018-07-11T10:57:20Z</time>
      </trkpt>
      <trkpt lat="46.132246172055602" lon="10.453550303354859">
        <ele>2199.1500000000001</ele>
        <time>2018-07-11T10:57:35Z</time>
      </trkpt>
      <trkpt lat="46.13215665332973" lon="10.453420719131827">
        <ele>2199.1500000000001</ele>
        <time>2018-07-11T10:57:47Z</time>
      </trkpt>
      <trkpt lat="46.132117258384824" lon="10.453367494046688">
        <ele>2199.1500000000001</ele>
        <time>2018-07-11T10:57:52Z</time>
      </trkpt>
      <trkpt lat="46.132039474323392" lon="10.453330194577575">
        <ele>2199.1500000000001</ele>
        <time>2018-07-11T10:58:05Z</time>
      </trkpt>
      <trkpt lat="46.131997900083661" lon="10.453381910920143">
        <ele>2198.1900000000001</ele>
        <time>2018-07-11T10:58:14Z</time>
      </trkpt>
      <trkpt lat="46.131946183741093" lon="10.453572431579232">
        <ele>2197.23</ele>
        <time>2018-07-11T10:58:28Z</time>
      </trkpt>
      <trkpt lat="46.131863370537758" lon="10.453689862042665">
        <ele>2197.23</ele>
        <time>2018-07-11T10:58:39Z</time>
      </trkpt>
      <trkpt lat="46.131781814619899" lon="10.453842412680387">
        <ele>2197.23</ele>
        <time>2018-07-11T10:58:52Z</time>
      </trkpt>
      <trkpt lat="46.131724985316396" lon="10.453886585310102">
        <ele>2197.23</ele>
        <time>2018-07-11T10:58:59Z</time>
      </trkpt>
      <trkpt lat="46.131692128255963" lon="10.453926399350166">
        <ele>2198.1900000000001</ele>
        <time>2018-07-11T10:59:12Z</time>
      </trkpt>
      <trkpt lat="46.131653068587184" lon="10.453953389078379">
        <ele>2197.71</ele>
        <time>2018-07-11T10:59:16Z</time>
      </trkpt>
      <trkpt lat="46.131640579551458" lon="10.453985324129462">
        <ele>2196.27</ele>
        <time>2018-07-11T10:59:19Z</time>
      </trkpt>
      <trkpt lat="46.131635131314397" lon="10.453994376584888">
        <ele>2196.27</ele>
        <time>2018-07-11T10:59:20Z</time>
      </trkpt>
      <trkpt lat="46.131609231233597" lon="10.454018348827958">
        <ele>2195.3099999999999</ele>
        <time>2018-07-11T10:59:23Z</time>
      </trkpt>
      <trkpt lat="46.131511749699712" lon="10.45397006906569">
        <ele>2194.8299999999999</ele>
        <time>2018-07-11T10:59:33Z</time>
      </trkpt>
      <trkpt lat="46.131503116339445" lon="10.453969230875373">
        <ele>2194.8299999999999</ele>
        <time>2018-07-11T10:59:34Z</time>
      </trkpt>
      <trkpt lat="46.13144863396883" lon="10.453985072672367">
        <ele>2193.8699999999999</ele>
        <time>2018-07-11T10:59:45Z</time>
      </trkpt>
      <trkpt lat="46.131447879597545" lon="10.453993622213602">
        <ele>2193.8699999999999</ele>
        <time>2018-07-11T10:59:57Z</time>
      </trkpt>
      <trkpt lat="46.131434133276343" lon="10.45399303548038">
        <ele>2193.8699999999999</ele>
        <time>2018-07-11T11:00:08Z</time>
      </trkpt>
      <trkpt lat="46.131438156589866" lon="10.453972332179546">
        <ele>2192.9000000000001</ele>
        <time>2018-07-11T11:00:19Z</time>
      </trkpt>
      <trkpt lat="46.13143740221858" lon="10.453956490382552">
        <ele>2192.9000000000001</ele>
        <time>2018-07-11T11:00:39Z</time>
      </trkpt>
      <trkpt lat="46.131452489644289" lon="10.453962106257677">
        <ele>2192.9000000000001</ele>
        <time>2018-07-11T11:00:56Z</time>
      </trkpt>
      <trkpt lat="46.131431953981519" lon="10.453964537009597">
        <ele>2192.9000000000001</ele>
        <time>2018-07-11T11:01:14Z</time>
      </trkpt>
      <trkpt lat="46.131434720009565" lon="10.453947270289063">
        <ele>2192.9000000000001</ele>
        <time>2018-07-11T11:01:32Z</time>
      </trkpt>
      <trkpt lat="46.131442598998547" lon="10.453959088772535">
        <ele>2192.4200000000001</ele>
        <time>2018-07-11T11:01:56Z</time>
      </trkpt>
      <trkpt lat="46.131458692252636" lon="10.453969063237309">
        <ele>2192.4200000000001</ele>
        <time>2018-07-11T11:02:28Z</time>
      </trkpt>
      <trkpt lat="46.131482580676675" lon="10.453957160934806">
        <ele>2192.4200000000001</ele>
        <time>2018-07-11T11:03:00Z</time>
      </trkpt>
      <trkpt lat="46.131463386118412" lon="10.45397249981761">
        <ele>2191.9400000000001</ele>
        <time>2018-07-11T11:03:25Z</time>
      </trkpt>
      <trkpt lat="46.131457770243287" lon="10.453970991075039">
        <ele>2191.9400000000001</ele>
        <time>2018-07-11T11:03:45Z</time>
      </trkpt>
      <trkpt lat="46.131438072770834" lon="10.453985072672367">
        <ele>2191.9400000000001</ele>
        <time>2018-07-11T11:04:08Z</time>
      </trkpt>
      <trkpt lat="46.131441928446293" lon="10.453966800123453">
        <ele>2191.9400000000001</ele>
        <time>2018-07-11T11:04:40Z</time>
      </trkpt>
      <trkpt lat="46.131441760808229" lon="10.453953137621284">
        <ele>2191.9400000000001</ele>
        <time>2018-07-11T11:05:07Z</time>
      </trkpt>
      <trkpt lat="46.131454920396209" lon="10.453955484554172">
        <ele>2191.9400000000001</ele>
        <time>2018-07-11T11:05:32Z</time>
      </trkpt>
      <trkpt lat="46.131447544321418" lon="10.453985994681716">
        <ele>2191.9400000000001</ele>
        <time>2018-07-11T11:06:04Z</time>
      </trkpt>
      <trkpt lat="46.131444526836276" lon="10.453948108479381">
        <ele>2191.9400000000001</ele>
        <time>2018-07-11T11:06:33Z</time>
      </trkpt>
      <trkpt lat="46.131453327834606" lon="10.453961100429296">
        <ele>2191.46</ele>
        <time>2018-07-11T11:06:59Z</time>
      </trkpt>
      <trkpt lat="46.13145106472075" lon="10.453953891992569">
        <ele>2191.46</ele>
        <time>2018-07-11T11:07:18Z</time>
      </trkpt>
      <trkpt lat="46.131430193781853" lon="10.453965878114104">
        <ele>2191.46</ele>
        <time>2018-07-11T11:07:39Z</time>
      </trkpt>
      <trkpt lat="46.13143346272409" lon="10.45397006906569">
        <ele>2191.46</ele>
        <time>2018-07-11T11:08:02Z</time>
      </trkpt>
      <trkpt lat="46.131430109962821" lon="10.453974427655339">
        <ele>2190.98</ele>
        <time>2018-07-11T11:08:22Z</time>
      </trkpt>
      <trkpt lat="46.131437150761485" lon="10.45398180373013">
        <ele>2191.46</ele>
        <time>2018-07-11T11:08:43Z</time>
      </trkpt>
      <trkpt lat="46.13141980022192" lon="10.453963195905089">
        <ele>2191.46</ele>
        <time>2018-07-11T11:09:01Z</time>
      </trkpt>
      <trkpt lat="46.131426673382521" lon="10.453970236703753">
        <ele>2190.98</ele>
        <time>2018-07-11T11:09:25Z</time>
      </trkpt>
      <trkpt lat="46.131409406661987" lon="10.453979624435306">
        <ele>2190.98</ele>
        <time>2018-07-11T11:09:51Z</time>
      </trkpt>
      <trkpt lat="46.131432540714741" lon="10.453946432098746">
        <ele>2190.98</ele>
        <time>2018-07-11T11:10:11Z</time>
      </trkpt>
      <trkpt lat="46.131419045850635" lon="10.453977277502418">
        <ele>2190.98</ele>
        <time>2018-07-11T11:10:36Z</time>
      </trkpt>
      <trkpt lat="46.131441090255976" lon="10.45398230664432">
        <ele>2190.5</ele>
        <time>2018-07-11T11:11:03Z</time>
      </trkpt>
      <trkpt lat="46.13142516463995" lon="10.453991275280714">
        <ele>2190.98</ele>
        <time>2018-07-11T11:11:26Z</time>
      </trkpt>
      <trkpt lat="46.131440587341785" lon="10.453979624435306">
        <ele>2190.5</ele>
        <time>2018-07-11T11:11:54Z</time>
      </trkpt>
      <trkpt lat="46.131428852677345" lon="10.453976523131132">
        <ele>2190.5</ele>
        <time>2018-07-11T11:12:17Z</time>
      </trkpt>
      <trkpt lat="46.131425248458982" lon="10.453991191461682">
        <ele>2190.5</ele>
        <time>2018-07-11T11:12:50Z</time>
      </trkpt>
      <trkpt lat="46.131432540714741" lon="10.453968057408929">
        <ele>2190.02</ele>
        <time>2018-07-11T11:13:07Z</time>
      </trkpt>
      <trkpt lat="46.131438491865993" lon="10.453962106257677">
        <ele>2190.02</ele>
        <time>2018-07-11T11:13:21Z</time>
      </trkpt>
      <trkpt lat="46.131438994780183" lon="10.453965039923787">
        <ele>2189.54</ele>
        <time>2018-07-11T11:13:41Z</time>
      </trkpt>
      <trkpt lat="46.131451232358813" lon="10.453969398513436">
        <ele>2189.54</ele>
        <time>2018-07-11T11:13:58Z</time>
      </trkpt>
      <trkpt lat="46.131438491865993" lon="10.453943079337478">
        <ele>2189.54</ele>
        <time>2018-07-11T11:14:23Z</time>
      </trkpt>
      <trkpt lat="46.131439497694373" lon="10.453967973589897">
        <ele>2190.02</ele>
        <time>2018-07-11T11:14:55Z</time>
      </trkpt>
      <trkpt lat="46.131443688645959" lon="10.453968308866024">
        <ele>2189.54</ele>
        <time>2018-07-11T11:15:16Z</time>
      </trkpt>
      <trkpt lat="46.131437569856644" lon="10.45396076515317">
        <ele>2189.54</ele>
        <time>2018-07-11T11:15:34Z</time>
      </trkpt>
      <trkpt lat="46.131415190175176" lon="10.453971326351166">
        <ele>2189.0599999999999</ele>
        <time>2018-07-11T11:16:01Z</time>
      </trkpt>
      <trkpt lat="46.131364982575178" lon="10.453969482332468">
        <ele>2189.0599999999999</ele>
        <time>2018-07-11T11:16:31Z</time>
      </trkpt>
      <trkpt lat="46.131369173526764" lon="10.45396369881928">
        <ele>2189.0599999999999</ele>
        <time>2018-07-11T11:16:57Z</time>
      </trkpt>
      <trkpt lat="46.131375292316079" lon="10.453972080722451">
        <ele>2189.0599999999999</ele>
        <time>2018-07-11T11:17:22Z</time>
      </trkpt>
      <trkpt lat="46.131382081657648" lon="10.45397786423564">
        <ele>2189.0599999999999</ele>
        <time>2018-07-11T11:17:53Z</time>
      </trkpt>
      <trkpt lat="46.131415860727429" lon="10.453959256410599">
        <ele>2188.5799999999999</ele>
        <time>2018-07-11T11:18:25Z</time>
      </trkpt>
      <trkpt lat="46.131419884040952" lon="10.453961519524455">
        <ele>2188.5799999999999</ele>
        <time>2018-07-11T11:18:54Z</time>
      </trkpt>
      <trkpt lat="46.131427763029933" lon="10.453958753496408">
        <ele>2188.5799999999999</ele>
        <time>2018-07-11T11:19:17Z</time>
      </trkpt>
      <trkpt lat="46.131421644240618" lon="10.453945929184556">
        <ele>2188.5799999999999</ele>
        <time>2018-07-11T11:19:57Z</time>
      </trkpt>
      <trkpt lat="46.131415944546461" lon="10.453963531181216">
        <ele>2188.0999999999999</ele>
        <time>2018-07-11T11:20:22Z</time>
      </trkpt>
      <trkpt lat="46.131413849070668" lon="10.453963615000248">
        <ele>2188.5799999999999</ele>
        <time>2018-07-11T11:20:49Z</time>
      </trkpt>
      <trkpt lat="46.131414016708732" lon="10.453964537009597">
        <ele>2188.5799999999999</ele>
        <time>2018-07-11T11:21:17Z</time>
      </trkpt>
      <trkpt lat="46.13140756264329" lon="10.453979456797242">
        <ele>2188.5799999999999</ele>
        <time>2018-07-11T11:21:49Z</time>
      </trkpt>
      <trkpt lat="46.131390295922756" lon="10.453991526737809">
        <ele>2188.5799999999999</ele>
        <time>2018-07-11T11:22:15Z</time>
      </trkpt>
      <trkpt lat="46.131383506581187" lon="10.453991359099746">
        <ele>2188.5799999999999</ele>
        <time>2018-07-11T11:22:41Z</time>
      </trkpt>
      <trkpt lat="46.131404042243958" lon="10.453979456797242">
        <ele>2188.5799999999999</ele>
        <time>2018-07-11T11:23:11Z</time>
      </trkpt>
      <trkpt lat="46.131394654512405" lon="10.453970655798912">
        <ele>2188.5799999999999</ele>
        <time>2018-07-11T11:23:49Z</time>
      </trkpt>
      <trkpt lat="46.131378728896379" lon="10.453964788466692">
        <ele>2188.0999999999999</ele>
        <time>2018-07-11T11:24:25Z</time>
      </trkpt>
      <trkpt lat="46.131392307579517" lon="10.453988173976541">
        <ele>2188.0999999999999</ele>
        <time>2018-07-11T11:25:01Z</time>
      </trkpt>
      <trkpt lat="46.131410747766495" lon="10.453971661627293">
        <ele>2188.0999999999999</ele>
        <time>2018-07-11T11:25:30Z</time>
      </trkpt>
      <trkpt lat="46.131427679210901" lon="10.453959507867694">
        <ele>2187.6199999999999</ele>
        <time>2018-07-11T11:26:02Z</time>
      </trkpt>
      <trkpt lat="46.131408819928765" lon="10.453956155106425">
        <ele>2188.0999999999999</ele>
        <time>2018-07-11T11:26:37Z</time>
      </trkpt>
      <trkpt lat="46.131460452452302" lon="10.453923046588898">
        <ele>2188.0999999999999</ele>
        <time>2018-07-11T11:27:10Z</time>
      </trkpt>
      <trkpt lat="46.131430193781853" lon="10.453957160934806">
        <ele>2188.0999999999999</ele>
        <time>2018-07-11T11:27:44Z</time>
      </trkpt>
      <trkpt lat="46.131426589563489" lon="10.453968727961183">
        <ele>2188.0999999999999</ele>
        <time>2018-07-11T11:28:10Z</time>
      </trkpt>
      <trkpt lat="46.131416782736778" lon="10.453968979418278">
        <ele>2188.0999999999999</ele>
        <time>2018-07-11T11:28:41Z</time>
      </trkpt>
      <trkpt lat="46.131420219317079" lon="10.45396420173347">
        <ele>2188.0999999999999</ele>
        <time>2018-07-11T11:29:09Z</time>
      </trkpt>
      <trkpt lat="46.131428517401218" lon="10.453924052417278">
        <ele>2188.0999999999999</ele>
        <time>2018-07-11T11:29:35Z</time>
      </trkpt>
      <trkpt lat="46.131423069164157" lon="10.453848615288734">
        <ele>2187.6199999999999</ele>
        <time>2018-07-11T11:30:05Z</time>
      </trkpt>
      <trkpt lat="46.131394151598215" lon="10.453889518976212">
        <ele>2187.6199999999999</ele>
        <time>2018-07-11T11:30:35Z</time>
      </trkpt>
      <trkpt lat="46.131401862949133" lon="10.453883148729801">
        <ele>2187.6199999999999</ele>
        <time>2018-07-11T11:31:03Z</time>
      </trkpt>
      <trkpt lat="46.131425332278013" lon="10.453928997740149">
        <ele>2187.6199999999999</ele>
        <time>2018-07-11T11:31:31Z</time>
      </trkpt>
      <trkpt lat="46.131409239023924" lon="10.453916424885392">
        <ele>2187.6199999999999</ele>
        <time>2018-07-11T11:32:03Z</time>
      </trkpt>
      <trkpt lat="46.131407730281353" lon="10.453950287774205">
        <ele>2187.6199999999999</ele>
        <time>2018-07-11T11:32:36Z</time>
      </trkpt>
      <trkpt lat="46.13141150213778" lon="10.453926483169198">
        <ele>2187.6199999999999</ele>
        <time>2018-07-11T11:33:11Z</time>
      </trkpt>
      <trkpt lat="46.131425248458982" lon="10.453925812616944">
        <ele>2187.6199999999999</ele>
        <time>2018-07-11T11:33:38Z</time>
      </trkpt>
      <trkpt lat="46.131421225145459" lon="10.453952383249998">
        <ele>2187.6199999999999</ele>
        <time>2018-07-11T11:34:07Z</time>
      </trkpt>
      <trkpt lat="46.131415441632271" lon="10.454008709639311">
        <ele>2188.0999999999999</ele>
        <time>2018-07-11T11:34:22Z</time>
      </trkpt>
      <trkpt lat="46.131417034193873" lon="10.454028742387891">
        <ele>2187.6199999999999</ele>
        <time>2018-07-11T11:34:45Z</time>
      </trkpt>
      <trkpt lat="46.131422650068998" lon="10.454021114856005">
        <ele>2188.0999999999999</ele>
        <time>2018-07-11T11:35:11Z</time>
      </trkpt>
      <trkpt lat="46.131406892091036" lon="10.454020611941814">
        <ele>2188.0999999999999</ele>
        <time>2018-07-11T11:35:39Z</time>
      </trkpt>
      <trkpt lat="46.131431451067328" lon="10.453974846750498">
        <ele>2188.0999999999999</ele>
        <time>2018-07-11T11:35:59Z</time>
      </trkpt>
      <trkpt lat="46.131431870162487" lon="10.453946096822619">
        <ele>2188.0999999999999</ele>
        <time>2018-07-11T11:36:27Z</time>
      </trkpt>
      <trkpt lat="46.131452489644289" lon="10.453972583636642">
        <ele>2188.0999999999999</ele>
        <time>2018-07-11T11:37:04Z</time>
      </trkpt>
      <trkpt lat="46.131447292864323" lon="10.453986413776875">
        <ele>2187.6199999999999</ele>
        <time>2018-07-11T11:37:44Z</time>
      </trkpt>
      <trkpt lat="46.131479060277343" lon="10.453990520909429">
        <ele>2187.6199999999999</ele>
        <time>2018-07-11T11:38:21Z</time>
      </trkpt>
      <trkpt lat="46.131463386118412" lon="10.453984150663018">
        <ele>2187.1399999999999</ele>
        <time>2018-07-11T11:39:02Z</time>
      </trkpt>
      <trkpt lat="46.131457854062319" lon="10.453971996903419">
        <ele>2187.1399999999999</ele>
        <time>2018-07-11T11:39:38Z</time>
      </trkpt>
      <trkpt lat="46.131463721394539" lon="10.453987000510097">
        <ele>2186.6599999999999</ele>
        <time>2018-07-11T11:40:13Z</time>
      </trkpt>
      <trkpt lat="46.13147352822125" lon="10.453993119299412">
        <ele>2186.6599999999999</ele>
        <time>2018-07-11T11:40:51Z</time>
      </trkpt>
      <trkpt lat="46.131447376683354" lon="10.453941151499748">
        <ele>2186.6599999999999</ele>
        <time>2018-07-11T11:41:24Z</time>
      </trkpt>
      <trkpt lat="46.131420219317079" lon="10.453947018831968">
        <ele>2187.1399999999999</ele>
        <time>2018-07-11T11:41:55Z</time>
      </trkpt>
      <trkpt lat="46.131432205438614" lon="10.453951209783554">
        <ele>2186.1799999999998</ele>
        <time>2018-07-11T11:42:35Z</time>
      </trkpt>
      <trkpt lat="46.131448717787862" lon="10.453959172591567">
        <ele>2186.6599999999999</ele>
        <time>2018-07-11T11:43:14Z</time>
      </trkpt>
      <trkpt lat="46.131431702524424" lon="10.453919693827629">
        <ele>2186.6599999999999</ele>
        <time>2018-07-11T11:43:53Z</time>
      </trkpt>
      <trkpt lat="46.131443604826927" lon="10.453947018831968">
        <ele>2186.1799999999998</ele>
        <time>2018-07-11T11:44:35Z</time>
      </trkpt>
      <trkpt lat="46.131438408046961" lon="10.45393637381494">
        <ele>2185.6900000000001</ele>
        <time>2018-07-11T11:45:14Z</time>
      </trkpt>
      <trkpt lat="46.131454585120082" lon="10.453970404341817">
        <ele>2185.6900000000001</ele>
        <time>2018-07-11T11:45:46Z</time>
      </trkpt>
      <trkpt lat="46.131422063335776" lon="10.453975098207593">
        <ele>2185.21</ele>
        <time>2018-07-11T11:46:06Z</time>
      </trkpt>
      <trkpt lat="46.131453663110733" lon="10.453969063237309">
        <ele>2185.6900000000001</ele>
        <time>2018-07-11T11:46:33Z</time>
      </trkpt>
      <trkpt lat="46.13143396563828" lon="10.453926315531135">
        <ele>2185.21</ele>
        <time>2018-07-11T11:47:04Z</time>
      </trkpt>
      <trkpt lat="46.131441928446293" lon="10.453956825658679">
        <ele>2185.21</ele>
        <time>2018-07-11T11:47:32Z</time>
      </trkpt>
      <trkpt lat="46.131467493250966" lon="10.453974092379212">
        <ele>2184.73</ele>
        <time>2018-07-11T11:48:07Z</time>
      </trkpt>
      <trkpt lat="46.131458021700382" lon="10.453942995518446">
        <ele>2184.73</ele>
        <time>2018-07-11T11:48:35Z</time>
      </trkpt>
      <trkpt lat="46.131458021700382" lon="10.4539764393121">
        <ele>2184.73</ele>
        <time>2018-07-11T11:49:08Z</time>
      </trkpt>
      <trkpt lat="46.131435809656978" lon="10.453958250582218">
        <ele>2184.25</ele>
        <time>2018-07-11T11:49:35Z</time>
      </trkpt>
      <trkpt lat="46.131454082205892" lon="10.453988341614604">
        <ele>2184.25</ele>
        <time>2018-07-11T11:50:01Z</time>
      </trkpt>
      <trkpt lat="46.131476042792201" lon="10.453986581414938">
        <ele>2184.25</ele>
        <time>2018-07-11T11:50:29Z</time>
      </trkpt>
      <trkpt lat="46.131441257894039" lon="10.453970488160849">
        <ele>2184.25</ele>
        <time>2018-07-11T11:51:02Z</time>
      </trkpt>
      <trkpt lat="46.131446538493037" lon="10.45397006906569">
        <ele>2183.77</ele>
        <time>2018-07-11T11:51:31Z</time>
      </trkpt>
      <trkpt lat="46.131453160196543" lon="10.453955736011267">
        <ele>2183.77</ele>
        <time>2018-07-11T11:52:05Z</time>
      </trkpt>
      <trkpt lat="46.13141736947" lon="10.453971745446324">
        <ele>2185.6900000000001</ele>
        <time>2018-07-11T11:52:35Z</time>
      </trkpt>
      <trkpt lat="46.131429187953472" lon="10.45400133356452">
        <ele>2184.73</ele>
        <time>2018-07-11T11:52:46Z</time>
      </trkpt>
      <trkpt lat="46.131451902911067" lon="10.453983563929796">
        <ele>2184.73</ele>
        <time>2018-07-11T11:53:15Z</time>
      </trkpt>
      <trkpt lat="46.131465146318078" lon="10.454000579193234">
        <ele>2183.77</ele>
        <time>2018-07-11T11:53:45Z</time>
      </trkpt>
      <trkpt lat="46.131451232358813" lon="10.453986749053001">
        <ele>2184.73</ele>
        <time>2018-07-11T11:54:06Z</time>
      </trkpt>
      <trkpt lat="46.131452238187194" lon="10.454003009945154">
        <ele>2185.21</ele>
        <time>2018-07-11T11:54:21Z</time>
      </trkpt>
      <trkpt lat="46.131444945931435" lon="10.453965207561851">
        <ele>2185.21</ele>
        <time>2018-07-11T11:54:30Z</time>
      </trkpt>
      <trkpt lat="46.13144276663661" lon="10.453980714082718">
        <ele>2185.6900000000001</ele>
        <time>2018-07-11T11:54:41Z</time>
      </trkpt>
      <trkpt lat="46.131436564028263" lon="10.453972332179546">
        <ele>2185.6900000000001</ele>
        <time>2018-07-11T11:54:55Z</time>
      </trkpt>
      <trkpt lat="46.131442431360483" lon="10.453968644142151">
        <ele>2185.21</ele>
        <time>2018-07-11T11:55:08Z</time>
      </trkpt>
      <trkpt lat="46.131430109962821" lon="10.453967219218612">
        <ele>2185.21</ele>
        <time>2018-07-11T11:55:25Z</time>
      </trkpt>
      <trkpt lat="46.131434217095375" lon="10.453974427655339">
        <ele>2185.21</ele>
        <time>2018-07-11T11:55:38Z</time>
      </trkpt>
      <trkpt lat="46.13144913688302" lon="10.453944923356175">
        <ele>2185.21</ele>
        <time>2018-07-11T11:55:50Z</time>
      </trkpt>
      <trkpt lat="46.13149800337851" lon="10.453985324129462">
        <ele>2185.21</ele>
        <time>2018-07-11T11:55:58Z</time>
      </trkpt>
      <trkpt lat="46.131519041955471" lon="10.45399647206068">
        <ele>2186.1799999999998</ele>
        <time>2018-07-11T11:56:08Z</time>
      </trkpt>
      <trkpt lat="46.131525998935103" lon="10.453960932791233">
        <ele>2185.6900000000001</ele>
        <time>2018-07-11T11:56:19Z</time>
      </trkpt>
      <trkpt lat="46.131544020026922" lon="10.45393880456686">
        <ele>2185.6900000000001</ele>
        <time>2018-07-11T11:56:26Z</time>
      </trkpt>
      <trkpt lat="46.131617780774832" lon="10.453974762931466">
        <ele>2187.1399999999999</ele>
        <time>2018-07-11T11:56:38Z</time>
      </trkpt>
      <trkpt lat="46.131682572886348" lon="10.453882226720452">
        <ele>2187.6199999999999</ele>
        <time>2018-07-11T11:56:50Z</time>
      </trkpt>
      <trkpt lat="46.131720626726747" lon="10.453827492892742">
        <ele>2188.5799999999999</ele>
        <time>2018-07-11T11:56:57Z</time>
      </trkpt>
      <trkpt lat="46.131749041378498" lon="10.453800167888403">
        <ele>2188.0999999999999</ele>
        <time>2018-07-11T11:57:00Z</time>
      </trkpt>
      <trkpt lat="46.131815845146775" lon="10.453652394935489">
        <ele>2188.0999999999999</ele>
        <time>2018-07-11T11:57:12Z</time>
      </trkpt>
      <trkpt lat="46.131856245920062" lon="10.453596571460366">
        <ele>2188.0999999999999</ele>
        <time>2018-07-11T11:57:22Z</time>
      </trkpt>
      <trkpt lat="46.131882313638926" lon="10.453557595610619">
        <ele>2187.1399999999999</ele>
        <time>2018-07-11T11:57:26Z</time>
      </trkpt>
      <trkpt lat="46.131902514025569" lon="10.453542256727815">
        <ele>2188.0999999999999</ele>
        <time>2018-07-11T11:57:29Z</time>
      </trkpt>
      <trkpt lat="46.131951715797186" lon="10.4534428473562">
        <ele>2187.1399999999999</ele>
        <time>2018-07-11T11:57:38Z</time>
      </trkpt>
      <trkpt lat="46.13199689425528" lon="10.453312089666724">
        <ele>2188.5799999999999</ele>
        <time>2018-07-11T11:57:50Z</time>
      </trkpt>
      <trkpt lat="46.132032936438918" lon="10.453226761892438">
        <ele>2189.54</ele>
        <time>2018-07-11T11:58:01Z</time>
      </trkpt>
      <trkpt lat="46.132030673325062" lon="10.453227767720819">
        <ele>2189.54</ele>
        <time>2018-07-11T11:58:14Z</time>
      </trkpt>
      <trkpt lat="46.132056908681989" lon="10.453141769394279">
        <ele>2190.02</ele>
        <time>2018-07-11T11:58:24Z</time>
      </trkpt>
      <trkpt lat="46.132060680538416" lon="10.453127939254045">
        <ele>2190.02</ele>
        <time>2018-07-11T11:58:25Z</time>
      </trkpt>
      <trkpt lat="46.132070487365127" lon="10.453050993382931">
        <ele>2190.5</ele>
        <time>2018-07-11T11:58:31Z</time>
      </trkpt>
      <trkpt lat="46.132068978622556" lon="10.453029368072748">
        <ele>2190.5</ele>
        <time>2018-07-11T11:58:33Z</time>
      </trkpt>
      <trkpt lat="46.132025895640254" lon="10.452937921509147">
        <ele>2191.9400000000001</ele>
        <time>2018-07-11T11:58:44Z</time>
      </trkpt>
      <trkpt lat="46.131987255066633" lon="10.452864076942205">
        <ele>2192.9000000000001</ele>
        <time>2018-07-11T11:58:52Z</time>
      </trkpt>
      <trkpt lat="46.13200812600553" lon="10.45270306058228">
        <ele>2193.8699999999999</ele>
        <time>2018-07-11T11:59:03Z</time>
      </trkpt>
      <trkpt lat="46.132001504302025" lon="10.452671376988292">
        <ele>2193.8699999999999</ele>
        <time>2018-07-11T11:59:06Z</time>
      </trkpt>
      <trkpt lat="46.131976190954447" lon="10.45258529484272">
        <ele>2195.3099999999999</ele>
        <time>2018-07-11T11:59:16Z</time>
      </trkpt>
      <trkpt lat="46.131967473775148" lon="10.452506337314844">
        <ele>2195.79</ele>
        <time>2018-07-11T11:59:25Z</time>
      </trkpt>
      <trkpt lat="46.131957499310374" lon="10.452403826639056">
        <ele>2197.23</ele>
        <time>2018-07-11T11:59:37Z</time>
      </trkpt>
      <trkpt lat="46.131945429369807" lon="10.452282121405005">
        <ele>2198.1900000000001</ele>
        <time>2018-07-11T11:59:49Z</time>
      </trkpt>
      <trkpt lat="46.131953811272979" lon="10.452221520245075">
        <ele>2198.6700000000001</ele>
        <time>2018-07-11T11:59:55Z</time>
      </trkpt>
      <trkpt lat="46.131974179297686" lon="10.452126385644078">
        <ele>2199.1500000000001</ele>
        <time>2018-07-11T12:00:05Z</time>
      </trkpt>
      <trkpt lat="46.131971329450607" lon="10.452110208570957">
        <ele>2199.6300000000001</ele>
        <time>2018-07-11T12:00:07Z</time>
      </trkpt>
      <trkpt lat="46.131996475160122" lon="10.45202043838799">
        <ele>2200.1100000000001</ele>
        <time>2018-07-11T12:00:16Z</time>
      </trkpt>
      <trkpt lat="46.132018100470304" lon="10.45195153914392">
        <ele>2201.0799999999999</ele>
        <time>2018-07-11T12:00:24Z</time>
      </trkpt>
      <trkpt lat="46.132034780457616" lon="10.45183620415628">
        <ele>2201.5599999999999</ele>
        <time>2018-07-11T12:00:34Z</time>
      </trkpt>
      <trkpt lat="46.132041150704026" lon="10.451750541105866">
        <ele>2202.04</ele>
        <time>2018-07-11T12:00:42Z</time>
      </trkpt>
      <trkpt lat="46.132040563970804" lon="10.451713912189007">
        <ele>2202.04</ele>
        <time>2018-07-11T12:00:45Z</time>
      </trkpt>
      <trkpt lat="46.132048610597849" lon="10.451609892770648">
        <ele>2202.52</ele>
        <time>2018-07-11T12:00:54Z</time>
      </trkpt>
      <trkpt lat="46.132047520950437" lon="10.451558763161302">
        <ele>2203</ele>
        <time>2018-07-11T12:00:59Z</time>
      </trkpt>
      <trkpt lat="46.132073337212205" lon="10.451452480629086">
        <ele>2203.48</ele>
        <time>2018-07-11T12:01:09Z</time>
      </trkpt>
      <trkpt lat="46.132095633074641" lon="10.451340582221746">
        <ele>2203.96</ele>
        <time>2018-07-11T12:01:21Z</time>
      </trkpt>
      <trkpt lat="46.132110552862287" lon="10.451279142871499">
        <ele>2204.9200000000001</ele>
        <time>2018-07-11T12:01:27Z</time>
      </trkpt>
      <trkpt lat="46.132124634459615" lon="10.451223151758313">
        <ele>2204.9200000000001</ele>
        <time>2018-07-11T12:01:33Z</time>
      </trkpt>
      <trkpt lat="46.132155060768127" lon="10.451113181188703">
        <ele>2205.8800000000001</ele>
        <time>2018-07-11T12:01:44Z</time>
      </trkpt>
      <trkpt lat="46.132176350802183" lon="10.451027601957321">
        <ele>2206.8400000000001</ele>
        <time>2018-07-11T12:01:54Z</time>
      </trkpt>
      <trkpt lat="46.132197640836239" lon="10.450917212292552">
        <ele>2209.25</ele>
        <time>2018-07-11T12:02:07Z</time>
      </trkpt>
      <trkpt lat="46.132211554795504" lon="10.450851833447814">
        <ele>2209.73</ele>
        <time>2018-07-11T12:02:17Z</time>
      </trkpt>
      <trkpt lat="46.132217086851597" lon="10.450852671638131">
        <ele>2209.73</ele>
        <time>2018-07-11T12:02:34Z</time>
      </trkpt>
      <trkpt lat="46.132193952798843" lon="10.450804308056831">
        <ele>2209.73</ele>
        <time>2018-07-11T12:02:54Z</time>
      </trkpt>
      <trkpt lat="46.132183223962784" lon="10.450802631676197">
        <ele>2208.29</ele>
        <time>2018-07-11T12:02:58Z</time>
      </trkpt>
      <trkpt lat="46.132190432399511" lon="10.450826687738299">
        <ele>2209.73</ele>
        <time>2018-07-11T12:03:13Z</time>
      </trkpt>
      <trkpt lat="46.132200071588159" lon="10.450831549242139">
        <ele>2209.73</ele>
        <time>2018-07-11T12:03:36Z</time>
      </trkpt>
      <trkpt lat="46.132210716605186" lon="10.450838590040803">
        <ele>2209.73</ele>
        <time>2018-07-11T12:03:40Z</time>
      </trkpt>
      <trkpt lat="46.132222535088658" lon="10.450675059109926">
        <ele>2210.21</ele>
        <time>2018-07-11T12:03:53Z</time>
      </trkpt>
      <trkpt lat="46.13222605548799" lon="10.450663492083549">
        <ele>2210.21</ele>
        <time>2018-07-11T12:03:54Z</time>
      </trkpt>
      <trkpt lat="46.132261510938406" lon="10.450638849288225">
        <ele>2211.1700000000001</ele>
        <time>2018-07-11T12:03:59Z</time>
      </trkpt>
      <trkpt lat="46.13227198831737" lon="10.450583528727293">
        <ele>2211.6500000000001</ele>
        <time>2018-07-11T12:04:04Z</time>
      </trkpt>
      <trkpt lat="46.13229738548398" lon="10.450438437983394">
        <ele>2212.6100000000001</ele>
        <time>2018-07-11T12:04:16Z</time>
      </trkpt>
      <trkpt lat="46.132302079349756" lon="10.450400048866868">
        <ele>2213.0900000000001</ele>
        <time>2018-07-11T12:04:22Z</time>
      </trkpt>
      <trkpt lat="46.132304091006517" lon="10.450237188488245">
        <ele>2213.0900000000001</ele>
        <time>2018-07-11T12:04:37Z</time>
      </trkpt>
      <trkpt lat="46.132291182875633" lon="10.450128642842174">
        <ele>2213.0900000000001</ele>
        <time>2018-07-11T12:04:48Z</time>
      </trkpt>
      <trkpt lat="46.132268719375134" lon="10.450012553483248">
        <ele>2212.6100000000001</ele>
        <time>2018-07-11T12:04:59Z</time>
      </trkpt>
      <trkpt lat="46.132252793759108" lon="10.449900487437844">
        <ele>2211.6500000000001</ele>
        <time>2018-07-11T12:05:09Z</time>
      </trkpt>
      <trkpt lat="46.132255392149091" lon="10.449845334514976">
        <ele>2209.73</ele>
        <time>2018-07-11T12:05:13Z</time>
      </trkpt>
      <trkpt lat="46.132264109328389" lon="10.449716588482261">
        <ele>2210.21</ele>
        <time>2018-07-11T12:05:23Z</time>
      </trkpt>
      <trkpt lat="46.132276682183146" lon="10.449653221294284">
        <ele>2209.73</ele>
        <time>2018-07-11T12:05:28Z</time>
      </trkpt>
      <trkpt lat="46.13228322006762" lon="10.44951525516808">
        <ele>2210.21</ele>
        <time>2018-07-11T12:05:39Z</time>
      </trkpt>
      <trkpt lat="46.132284644991159" lon="10.449411738663912">
        <ele>2211.1700000000001</ele>
        <time>2018-07-11T12:05:51Z</time>
      </trkpt>
      <trkpt lat="46.13226612098515" lon="10.449349964037538">
        <ele>2212.1300000000001</ele>
        <time>2018-07-11T12:06:01Z</time>
      </trkpt>
      <trkpt lat="46.132266791537404" lon="10.449244603514671">
        <ele>2214.0500000000002</ele>
        <time>2018-07-11T12:06:12Z</time>
      </trkpt>
      <trkpt lat="46.132261762395501" lon="10.449230605736375">
        <ele>2214.0500000000002</ele>
        <time>2018-07-11T12:06:13Z</time>
      </trkpt>
      <trkpt lat="46.132243657484651" lon="10.449047880247235">
        <ele>2213.5700000000002</ele>
        <time>2018-07-11T12:06:26Z</time>
      </trkpt>
      <trkpt lat="46.132252374663949" lon="10.44897579587996">
        <ele>2214.0500000000002</ele>
        <time>2018-07-11T12:06:33Z</time>
      </trkpt>
      <trkpt lat="46.132256146520376" lon="10.448948135599494">
        <ele>2214.5300000000002</ele>
        <time>2018-07-11T12:06:35Z</time>
      </trkpt>
      <trkpt lat="46.132244579493999" lon="10.448802458122373">
        <ele>2215.0100000000002</ele>
        <time>2018-07-11T12:06:47Z</time>
      </trkpt>
      <trkpt lat="46.132270228117704" lon="10.448667844757438">
        <ele>2215.0100000000002</ele>
        <time>2018-07-11T12:06:58Z</time>
      </trkpt>
      <trkpt lat="46.132290428504348" lon="10.448571117594838">
        <ele>2215.98</ele>
        <time>2018-07-11T12:07:09Z</time>
      </trkpt>
      <trkpt lat="46.132295038551092" lon="10.448490902781487">
        <ele>2216.46</ele>
        <time>2018-07-11T12:07:19Z</time>
      </trkpt>
      <trkpt lat="46.132288416847587" lon="10.44839333742857">
        <ele>2217.4200000000001</ele>
        <time>2018-07-11T12:07:30Z</time>
      </trkpt>
      <trkpt lat="46.132279615849257" lon="10.448292251676321">
        <ele>2218.3800000000001</ele>
        <time>2018-07-11T12:07:40Z</time>
      </trkpt>
      <trkpt lat="46.1322739161551" lon="10.448269369080663">
        <ele>2218.3800000000001</ele>
        <time>2018-07-11T12:07:43Z</time>
      </trkpt>
      <trkpt lat="46.132275173440576" lon="10.448139449581504">
        <ele>2218.3800000000001</ele>
        <time>2018-07-11T12:07:55Z</time>
      </trkpt>
      <trkpt lat="46.132277771830559" lon="10.448030736297369">
        <ele>2218.3800000000001</ele>
        <time>2018-07-11T12:08:06Z</time>
      </trkpt>
      <trkpt lat="46.132292104884982" lon="10.447962675243616">
        <ele>2220.3000000000002</ele>
        <time>2018-07-11T12:08:15Z</time>
      </trkpt>
      <trkpt lat="46.132309706881642" lon="10.447866283357143">
        <ele>2220.7800000000002</ele>
        <time>2018-07-11T12:08:25Z</time>
      </trkpt>
      <trkpt lat="46.132334936410189" lon="10.447791600599885">
        <ele>2220.7800000000002</ele>
        <time>2018-07-11T12:08:35Z</time>
      </trkpt>
      <trkpt lat="46.132332924753428" lon="10.447783805429935">
        <ele>2220.7800000000002</ele>
        <time>2018-07-11T12:08:36Z</time>
      </trkpt>
      <trkpt lat="46.13236284814775" lon="10.447663944214582">
        <ele>2220.3000000000002</ele>
        <time>2018-07-11T12:08:46Z</time>
      </trkpt>
      <trkpt lat="46.132381455972791" lon="10.447598733007908">
        <ele>2220.3000000000002</ele>
        <time>2018-07-11T12:08:54Z</time>
      </trkpt>
      <trkpt lat="46.132372487336397" lon="10.447532096877694">
        <ele>2220.7800000000002</ele>
        <time>2018-07-11T12:08:59Z</time>
      </trkpt>
      <trkpt lat="46.132378187030554" lon="10.447420533746481">
        <ele>2221.2600000000002</ele>
        <time>2018-07-11T12:09:09Z</time>
      </trkpt>
      <trkpt lat="46.132390592247248" lon="10.447309138253331">
        <ele>2222.2199999999998</ele>
        <time>2018-07-11T12:09:20Z</time>
      </trkpt>
      <trkpt lat="46.132392017170787" lon="10.44729933142662">
        <ele>2222.2199999999998</ele>
        <time>2018-07-11T12:09:21Z</time>
      </trkpt>
      <trkpt lat="46.132397213950753" lon="10.447243507951498">
        <ele>2222.71</ele>
        <time>2018-07-11T12:09:27Z</time>
      </trkpt>
      <trkpt lat="46.13240098580718" lon="10.447131274268031">
        <ele>2223.1900000000001</ele>
        <time>2018-07-11T12:09:38Z</time>
      </trkpt>
      <trkpt lat="46.132413223385811" lon="10.44705399312079">
        <ele>2225.1100000000001</ele>
        <time>2018-07-11T12:09:49Z</time>
      </trkpt>
      <trkpt lat="46.132437698543072" lon="10.446944776922464">
        <ele>2226.5500000000002</ele>
        <time>2018-07-11T12:09:59Z</time>
      </trkpt>
      <trkpt lat="46.132448511198163" lon="10.446889288723469">
        <ele>2227.5100000000002</ele>
        <time>2018-07-11T12:10:08Z</time>
      </trkpt>
      <trkpt lat="46.132489833980799" lon="10.446862801909447">
        <ele>2228.9499999999998</ele>
        <time>2018-07-11T12:10:18Z</time>
      </trkpt>
      <trkpt lat="46.132528726011515" lon="10.446809576824307">
        <ele>2230.4000000000001</ele>
        <time>2018-07-11T12:10:27Z</time>
      </trkpt>
      <trkpt lat="46.132565354928374" lon="10.446770936250687">
        <ele>2230.4000000000001</ele>
        <time>2018-07-11T12:10:33Z</time>
      </trkpt>
      <trkpt lat="46.132611287757754" lon="10.446675717830658">
        <ele>2229.4299999999998</ele>
        <time>2018-07-11T12:10:44Z</time>
      </trkpt>
      <trkpt lat="46.132642133161426" lon="10.44659617356956">
        <ele>2229.9200000000001</ele>
        <time>2018-07-11T12:10:53Z</time>
      </trkpt>
      <trkpt lat="46.132674990221858" lon="10.446492405608296">
        <ele>2229.9200000000001</ele>
        <time>2018-07-11T12:11:03Z</time>
      </trkpt>
      <trkpt lat="46.132712960243225" lon="10.446393247693777">
        <ele>2230.4000000000001</ele>
        <time>2018-07-11T12:11:13Z</time>
      </trkpt>
      <trkpt lat="46.132726538926363" lon="10.44636357575655">
        <ele>2230.4000000000001</ele>
        <time>2018-07-11T12:11:17Z</time>
      </trkpt>
      <trkpt lat="46.132746320217848" lon="10.446312613785267">
        <ele>2229.9200000000001</ele>
        <time>2018-07-11T12:11:21Z</time>
      </trkpt>
      <trkpt lat="46.132772890850902" lon="10.446220831945539">
        <ele>2229.9200000000001</ele>
        <time>2018-07-11T12:11:28Z</time>
      </trkpt>
      <trkpt lat="46.132789570838213" lon="10.446203229948878">
        <ele>2229.9200000000001</ele>
        <time>2018-07-11T12:11:30Z</time>
      </trkpt>
      <trkpt lat="46.132829049602151" lon="10.446065850555897">
        <ele>2229.4299999999998</ele>
        <time>2018-07-11T12:11:40Z</time>
      </trkpt>
      <trkpt lat="46.132862074300647" lon="10.445955293253064">
        <ele>2229.4299999999998</ele>
        <time>2018-07-11T12:11:48Z</time>
      </trkpt>
      <trkpt lat="46.132871210575104" lon="10.445933165028691">
        <ele>2228.9499999999998</ele>
        <time>2018-07-11T12:11:50Z</time>
      </trkpt>
      <trkpt lat="46.132909264415503" lon="10.445760330185294">
        <ele>2228.4699999999998</ele>
        <time>2018-07-11T12:12:03Z</time>
      </trkpt>
      <trkpt lat="46.132937092334032" lon="10.445624962449074">
        <ele>2227.5100000000002</ele>
        <time>2018-07-11T12:12:13Z</time>
      </trkpt>
      <trkpt lat="46.132958550006151" lon="10.445511387661099">
        <ele>2227.0300000000002</ele>
        <time>2018-07-11T12:12:23Z</time>
      </trkpt>
      <trkpt lat="46.132966512814164" lon="10.445419689640403">
        <ele>2224.6300000000001</ele>
        <time>2018-07-11T12:12:32Z</time>
      </trkpt>
      <trkpt lat="46.132974224165082" lon="10.445362105965614">
        <ele>2224.1500000000001</ele>
        <time>2018-07-11T12:12:42Z</time>
      </trkpt>
      <trkpt lat="46.132981181144714" lon="10.445332182571292">
        <ele>2224.1500000000001</ele>
        <time>2018-07-11T12:12:46Z</time>
      </trkpt>
      <trkpt lat="46.133034406229854" lon="10.445243502035737">
        <ele>2222.2199999999998</ele>
        <time>2018-07-11T12:12:55Z</time>
      </trkpt>
      <trkpt lat="46.133085200563073" lon="10.445195389911532">
        <ele>2220.3000000000002</ele>
        <time>2018-07-11T12:13:04Z</time>
      </trkpt>
      <trkpt lat="46.133113615214825" lon="10.44513612985611">
        <ele>2219.3400000000001</ele>
        <time>2018-07-11T12:13:08Z</time>
      </trkpt>
      <trkpt lat="46.133141778409481" lon="10.445098578929901">
        <ele>2218.8600000000001</ele>
        <time>2018-07-11T12:13:12Z</time>
      </trkpt>
      <trkpt lat="46.133162062615156" lon="10.445057926699519">
        <ele>2218.8600000000001</ele>
        <time>2018-07-11T12:13:17Z</time>
      </trkpt>
      <trkpt lat="46.133243786171079" lon="10.444986764341593">
        <ele>2217.9000000000001</ele>
        <time>2018-07-11T12:13:28Z</time>
      </trkpt>
      <trkpt lat="46.133268093690276" lon="10.444977544248104">
        <ele>2218.3800000000001</ele>
        <time>2018-07-11T12:13:31Z</time>
      </trkpt>
      <trkpt lat="46.133300783112645" lon="10.444961115717888">
        <ele>2217.9000000000001</ele>
        <time>2018-07-11T12:13:35Z</time>
      </trkpt>
      <trkpt lat="46.133329784497619" lon="10.4449363052845">
        <ele>2217.9000000000001</ele>
        <time>2018-07-11T12:13:39Z</time>
      </trkpt>
      <trkpt lat="46.133400779217482" lon="10.444840416312218">
        <ele>2216.9400000000001</ele>
        <time>2018-07-11T12:13:49Z</time>
      </trkpt>
      <trkpt lat="46.133413100615144" lon="10.444825412705541">
        <ele>2216.9400000000001</ele>
        <time>2018-07-11T12:13:51Z</time>
      </trkpt>
      <trkpt lat="46.133500020951033" lon="10.444726506248116">
        <ele>2215.5</ele>
        <time>2018-07-11T12:14:02Z</time>
      </trkpt>
      <trkpt lat="46.133577805012465" lon="10.444638412445784">
        <ele>2215.5</ele>
        <time>2018-07-11T12:14:12Z</time>
      </trkpt>
      <trkpt lat="46.13361862488091" lon="10.444566830992699">
        <ele>2214.5300000000002</ele>
        <time>2018-07-11T12:14:23Z</time>
      </trkpt>
      <trkpt lat="46.133661875501275" lon="10.444492399692535">
        <ele>2213.5700000000002</ele>
        <time>2018-07-11T12:14:30Z</time>
      </trkpt>
      <trkpt lat="46.133701018989086" lon="10.444476893171668">
        <ele>2214.0500000000002</ele>
        <time>2018-07-11T12:14:40Z</time>
      </trkpt>
      <trkpt lat="46.133702360093594" lon="10.444485526531935">
        <ele>2214.0500000000002</ele>
        <time>2018-07-11T12:14:57Z</time>
      </trkpt>
      <trkpt lat="46.133704539388418" lon="10.444507151842117">
        <ele>2214.5300000000002</ele>
        <time>2018-07-11T12:15:13Z</time>
      </trkpt>
      <trkpt lat="46.133717615157366" lon="10.444507487118244">
        <ele>2214.0500000000002</ele>
        <time>2018-07-11T12:15:30Z</time>
      </trkpt>
      <trkpt lat="46.133718453347683" lon="10.444505726918578">
        <ele>2214.5300000000002</ele>
        <time>2018-07-11T12:15:43Z</time>
      </trkpt>
      <trkpt lat="46.133717782795429" lon="10.444495500996709">
        <ele>2214.5300000000002</ele>
        <time>2018-07-11T12:15:44Z</time>
      </trkpt>
      <trkpt lat="46.133720465004444" lon="10.444415789097548">
        <ele>2213.5700000000002</ele>
        <time>2018-07-11T12:15:49Z</time>
      </trkpt>
      <trkpt lat="46.133747287094593" lon="10.444337585940957">
        <ele>2213.0900000000001</ele>
        <time>2018-07-11T12:15:55Z</time>
      </trkpt>
      <trkpt lat="46.133769918233156" lon="10.444193920120597">
        <ele>2209.73</ele>
        <time>2018-07-11T12:16:07Z</time>
      </trkpt>
      <trkpt lat="46.133772851899266" lon="10.444065425544977">
        <ele>2206.8400000000001</ele>
        <time>2018-07-11T12:16:19Z</time>
      </trkpt>
      <trkpt lat="46.13378232344985" lon="10.443953694775701">
        <ele>2204.4400000000001</ele>
        <time>2018-07-11T12:16:30Z</time>
      </trkpt>
      <trkpt lat="46.133810570463538" lon="10.443833163008094">
        <ele>2202.04</ele>
        <time>2018-07-11T12:16:42Z</time>
      </trkpt>
      <trkpt lat="46.133815012872219" lon="10.443795947358012">
        <ele>2201.5599999999999</ele>
        <time>2018-07-11T12:16:45Z</time>
      </trkpt>
      <trkpt lat="46.133821299299598" lon="10.443747919052839">
        <ele>2202.04</ele>
        <time>2018-07-11T12:16:49Z</time>
      </trkpt>
      <trkpt lat="46.133861448615789" lon="10.443602744489908">
        <ele>2198.6700000000001</ele>
        <time>2018-07-11T12:17:00Z</time>
      </trkpt>
      <trkpt lat="46.133875446394086" lon="10.443471567705274">
        <ele>2195.79</ele>
        <time>2018-07-11T12:17:11Z</time>
      </trkpt>
      <trkpt lat="46.133916601538658" lon="10.443352460861206">
        <ele>2193.3899999999999</ele>
        <time>2018-07-11T12:17:23Z</time>
      </trkpt>
      <trkpt lat="46.133955912664533" lon="10.44324659742415">
        <ele>2190.98</ele>
        <time>2018-07-11T12:17:34Z</time>
      </trkpt>
      <trkpt lat="46.13397435285151" lon="10.443080551922321">
        <ele>2188.0999999999999</ele>
        <time>2018-07-11T12:17:48Z</time>
      </trkpt>
      <trkpt lat="46.134041827172041" lon="10.442956918850541">
        <ele>2185.6900000000001</ele>
        <time>2018-07-11T12:18:00Z</time>
      </trkpt>
      <trkpt lat="46.134113492444158" lon="10.442849798128009">
        <ele>2183.29</ele>
        <time>2018-07-11T12:18:11Z</time>
      </trkpt>
      <trkpt lat="46.134158838540316" lon="10.442737396806479">
        <ele>2181.3699999999999</ele>
        <time>2018-07-11T12:18:22Z</time>
      </trkpt>
      <trkpt lat="46.134199239313602" lon="10.44262164272368">
        <ele>2178.9699999999998</ele>
        <time>2018-07-11T12:18:32Z</time>
      </trkpt>
      <trkpt lat="46.134241400286555" lon="10.44250194914639">
        <ele>2176.5599999999999</ele>
        <time>2018-07-11T12:18:44Z</time>
      </trkpt>
      <trkpt lat="46.134245758876204" lon="10.442483592778444">
        <ele>2176.0799999999999</ele>
        <time>2018-07-11T12:18:46Z</time>
      </trkpt>
      <trkpt lat="46.134270150214434" lon="10.442436905577779">
        <ele>2176.0799999999999</ele>
        <time>2018-07-11T12:18:50Z</time>
      </trkpt>
      <trkpt lat="46.134300576522946" lon="10.442342357710004">
        <ele>2172.7199999999998</ele>
        <time>2018-07-11T12:19:00Z</time>
      </trkpt>
      <trkpt lat="46.134314490482211" lon="10.44221168383956">
        <ele>2169.8299999999999</ele>
        <time>2018-07-11T12:19:13Z</time>
      </trkpt>
      <trkpt lat="46.134339217096567" lon="10.442114286124706">
        <ele>2168.3899999999999</ele>
        <time>2018-07-11T12:19:21Z</time>
      </trkpt>
      <trkpt lat="46.134308287873864" lon="10.442189052700996">
        <ele>2167.4299999999998</ele>
        <time>2018-07-11T12:19:31Z</time>
      </trkpt>
      <trkpt lat="46.134355729445815" lon="10.442068772390485">
        <ele>2165.0300000000002</ele>
        <time>2018-07-11T12:19:44Z</time>
      </trkpt>
      <trkpt lat="46.134409457445145" lon="10.441967519000173">
        <ele>2162.6199999999999</ele>
        <time>2018-07-11T12:19:56Z</time>
      </trkpt>
      <trkpt lat="46.134440805763006" lon="10.4418486636132">
        <ele>2160.2199999999998</ele>
        <time>2018-07-11T12:20:08Z</time>
      </trkpt>
      <trkpt lat="46.134445164352655" lon="10.441824775189161">
        <ele>2159.7399999999998</ele>
        <time>2018-07-11T12:20:10Z</time>
      </trkpt>
      <trkpt lat="46.134477686136961" lon="10.441738860681653">
        <ele>2157.3400000000001</ele>
        <time>2018-07-11T12:20:20Z</time>
      </trkpt>
      <trkpt lat="46.134481625631452" lon="10.441699214279652">
        <ele>2156.8600000000001</ele>
        <time>2018-07-11T12:20:23Z</time>
      </trkpt>
      <trkpt lat="46.134496629238129" lon="10.441646408289671">
        <ele>2156.3699999999999</ele>
        <time>2018-07-11T12:20:28Z</time>
      </trkpt>
      <trkpt lat="46.134548094123602" lon="10.441557643935084">
        <ele>2153.9699999999998</ele>
        <time>2018-07-11T12:20:39Z</time>
      </trkpt>
      <trkpt lat="46.13456703722477" lon="10.441509699448943">
        <ele>2153.0100000000002</ele>
        <time>2018-07-11T12:20:44Z</time>
      </trkpt>
      <trkpt lat="46.134581537917256" lon="10.441467203199863">
        <ele>2152.5300000000002</ele>
        <time>2018-07-11T12:20:48Z</time>
      </trkpt>
      <trkpt lat="46.134595116600394" lon="10.4413927718997">
        <ele>2151.0900000000001</ele>
        <time>2018-07-11T12:20:55Z</time>
      </trkpt>
      <trkpt lat="46.13462864421308" lon="10.44128280133009">
        <ele>2149.1599999999999</ele>
        <time>2018-07-11T12:21:06Z</time>
      </trkpt>
      <trkpt lat="46.134653203189373" lon="10.441221864894032">
        <ele>2148.1999999999998</ele>
        <time>2018-07-11T12:21:15Z</time>
      </trkpt>
      <trkpt lat="46.134718498215079" lon="10.441099070012569">
        <ele>2146.2800000000002</ele>
        <time>2018-07-11T12:21:27Z</time>
      </trkpt>
      <trkpt lat="46.134771723300219" lon="10.441030506044626">
        <ele>2144.8400000000001</ele>
        <time>2018-07-11T12:21:35Z</time>
      </trkpt>
      <trkpt lat="46.134857134893537" lon="10.440963367000222">
        <ele>2143.4000000000001</ele>
        <time>2018-07-11T12:21:47Z</time>
      </trkpt>
      <trkpt lat="46.134859481826425" lon="10.440952051430941">
        <ele>2143.4000000000001</ele>
        <time>2018-07-11T12:21:48Z</time>
      </trkpt>
      <trkpt lat="46.134872222319245" lon="10.440841829404235">
        <ele>2142.4400000000001</ele>
        <time>2018-07-11T12:21:58Z</time>
      </trkpt>
      <trkpt lat="46.134922849014401" lon="10.440757842734456">
        <ele>2140.9899999999998</ele>
        <time>2018-07-11T12:22:09Z</time>
      </trkpt>
      <trkpt lat="46.134942630305886" lon="10.440645692870021">
        <ele>2139.5500000000002</ele>
        <time>2018-07-11T12:22:20Z</time>
      </trkpt>
      <trkpt lat="46.134940031915903" lon="10.440556509420276">
        <ele>2138.1100000000001</ele>
        <time>2018-07-11T12:22:29Z</time>
      </trkpt>
      <trkpt lat="46.134944306686521" lon="10.440517030656338">
        <ele>2137.6300000000001</ele>
        <time>2018-07-11T12:22:32Z</time>
      </trkpt>
      <trkpt lat="46.134999375790358" lon="10.440368754789233">
        <ele>2136.1900000000001</ele>
        <time>2018-07-11T12:22:44Z</time>
      </trkpt>
      <trkpt lat="46.135060479864478" lon="10.440272614359856">
        <ele>2134.2600000000002</ele>
        <time>2018-07-11T12:22:56Z</time>
      </trkpt>
      <trkpt lat="46.135072382166982" lon="10.440258532762527">
        <ele>2133.7800000000002</ele>
        <time>2018-07-11T12:22:58Z</time>
      </trkpt>
      <trkpt lat="46.135116219520569" lon="10.440179323777556">
        <ele>2132.3400000000001</ele>
        <time>2018-07-11T12:23:06Z</time>
      </trkpt>
      <trkpt lat="46.135138012468815" lon="10.440052589401603">
        <ele>2130.9000000000001</ele>
        <time>2018-07-11T12:23:17Z</time>
      </trkpt>
      <trkpt lat="46.13516952842474" lon="10.439939685165882">
        <ele>2129.46</ele>
        <time>2018-07-11T12:23:29Z</time>
      </trkpt>
      <trkpt lat="46.135190734639764" lon="10.439826613292098">
        <ele>2128.5</ele>
        <time>2018-07-11T12:23:41Z</time>
      </trkpt>
      <trkpt lat="46.135201714932919" lon="10.439714631065726">
        <ele>2127.0500000000002</ele>
        <time>2018-07-11T12:23:51Z</time>
      </trkpt>
      <trkpt lat="46.135218981653452" lon="10.439577754586935">
        <ele>2126.0900000000001</ele>
        <time>2018-07-11T12:24:03Z</time>
      </trkpt>
      <trkpt lat="46.135228117927909" lon="10.439450684934855">
        <ele>2124.1700000000001</ele>
        <time>2018-07-11T12:24:15Z</time>
      </trkpt>
      <trkpt lat="46.135240606963634" lon="10.439405255019665">
        <ele>2123.21</ele>
        <time>2018-07-11T12:24:26Z</time>
      </trkpt>
      <trkpt lat="46.135225184261799" lon="10.439442554488778">
        <ele>2122.25</ele>
        <time>2018-07-11T12:24:44Z</time>
      </trkpt>
      <trkpt lat="46.135265249758959" lon="10.439341887831688">
        <ele>2122.25</ele>
        <time>2018-07-11T12:24:58Z</time>
      </trkpt>
      <trkpt lat="46.135315708816051" lon="10.439197635278106">
        <ele>2120.3200000000002</ele>
        <time>2018-07-11T12:25:10Z</time>
      </trkpt>
      <trkpt lat="46.135349404066801" lon="10.439026057720184">
        <ele>2118.8800000000001</ele>
        <time>2018-07-11T12:25:22Z</time>
      </trkpt>
      <trkpt lat="46.135408412665129" lon="10.438885157927871">
        <ele>2118.4000000000001</ele>
        <time>2018-07-11T12:25:34Z</time>
      </trkpt>
      <trkpt lat="46.135427607223392" lon="10.438868813216686">
        <ele>2117.9200000000001</ele>
        <time>2018-07-11T12:25:36Z</time>
      </trkpt>
      <trkpt lat="46.135525004938245" lon="10.438840985298157">
        <ele>2116.96</ele>
        <time>2018-07-11T12:25:46Z</time>
      </trkpt>
      <trkpt lat="46.135546630248427" lon="10.438854647800326">
        <ele>2116.96</ele>
        <time>2018-07-11T12:25:57Z</time>
      </trkpt>
      <trkpt lat="46.135584935545921" lon="10.438860766589642">
        <ele>2116.96</ele>
        <time>2018-07-11T12:26:19Z</time>
      </trkpt>
      <trkpt lat="46.135590216144919" lon="10.438856659457088">
        <ele>2116.48</ele>
        <time>2018-07-11T12:26:28Z</time>
      </trkpt>
      <trkpt lat="46.135595580562949" lon="10.438770744949579">
        <ele>2116.96</ele>
        <time>2018-07-11T12:26:38Z</time>
      </trkpt>
      <trkpt lat="46.135582337155938" lon="10.43874878436327">
        <ele>2116.96</ele>
        <time>2018-07-11T12:26:41Z</time>
      </trkpt>
      <trkpt lat="46.135547971352935" lon="10.438691200688481">
        <ele>2116.96</ele>
        <time>2018-07-11T12:26:46Z</time>
      </trkpt>
      <trkpt lat="46.135533889755607" lon="10.438679046928883">
        <ele>2116.96</ele>
        <time>2018-07-11T12:26:48Z</time>
      </trkpt>
      <trkpt lat="46.135528860613704" lon="10.438552564010024">
        <ele>2118.8800000000001</ele>
        <time>2018-07-11T12:27:00Z</time>
      </trkpt>
      <trkpt lat="46.135522155091166" lon="10.438482156023383">
        <ele>2120.3200000000002</ele>
        <time>2018-07-11T12:27:09Z</time>
      </trkpt>
      <trkpt lat="46.135534392669797" lon="10.438360283151269">
        <ele>2122.25</ele>
        <time>2018-07-11T12:27:22Z</time>
      </trkpt>
      <trkpt lat="46.135564399883151" lon="10.438313512131572">
        <ele>2123.21</ele>
        <time>2018-07-11T12:27:32Z</time>
      </trkpt>
      <trkpt lat="46.135613182559609" lon="10.438219048082829">
        <ele>2123.6900000000001</ele>
        <time>2018-07-11T12:27:44Z</time>
      </trkpt>
      <trkpt lat="46.135638831183314" lon="10.438134558498859">
        <ele>2121.29</ele>
        <time>2018-07-11T12:27:53Z</time>
      </trkpt>
      <trkpt lat="46.135650482028723" lon="10.438054343685508">
        <ele>2120.8099999999999</ele>
        <time>2018-07-11T12:27:59Z</time>
      </trkpt>
      <trkpt lat="46.135636148974299" lon="10.437975050881505">
        <ele>2120.8099999999999</ele>
        <time>2018-07-11T12:28:11Z</time>
      </trkpt>
      <trkpt lat="46.135639166459441" lon="10.437969518825412">
        <ele>2119.8400000000001</ele>
        <time>2018-07-11T12:28:25Z</time>
      </trkpt>
      <trkpt lat="46.135633299127221" lon="10.437930710613728">
        <ele>2120.3200000000002</ele>
        <time>2018-07-11T12:28:37Z</time>
      </trkpt>
      <trkpt lat="46.135620474815369" lon="10.437852507457137">
        <ele>2120.3200000000002</ele>
        <time>2018-07-11T12:28:44Z</time>
      </trkpt>
      <trkpt lat="46.135631538927555" lon="10.437810095027089">
        <ele>2119.8400000000001</ele>
        <time>2018-07-11T12:28:49Z</time>
      </trkpt>
      <trkpt lat="46.135605219751596" lon="10.437681265175343">
        <ele>2118.4000000000001</ele>
        <time>2018-07-11T12:29:00Z</time>
      </trkpt>
      <trkpt lat="46.135599436238408" lon="10.437669865787029">
        <ele>2118.8800000000001</ele>
        <time>2018-07-11T12:29:05Z</time>
      </trkpt>
      <trkpt lat="46.135607566684484" lon="10.437607252970338">
        <ele>2117.9200000000001</ele>
        <time>2018-07-11T12:29:11Z</time>
      </trkpt>
      <trkpt lat="46.135608404874802" lon="10.437545143067837">
        <ele>2116.96</ele>
        <time>2018-07-11T12:29:15Z</time>
      </trkpt>
      <trkpt lat="46.135624246671796" lon="10.437348168343306">
        <ele>2116</ele>
        <time>2018-07-11T12:29:28Z</time>
      </trkpt>
      <trkpt lat="46.135681075975299" lon="10.437171310186386">
        <ele>2115.52</ele>
        <time>2018-07-11T12:29:40Z</time>
      </trkpt>
      <trkpt lat="46.135734720155597" lon="10.437072571367025">
        <ele>2114.5599999999999</ele>
        <time>2018-07-11T12:29:48Z</time>
      </trkpt>
      <trkpt lat="46.135754082351923" lon="10.437053041532636">
        <ele>2114.5599999999999</ele>
        <time>2018-07-11T12:29:50Z</time>
      </trkpt>
      <trkpt lat="46.13578325137496" lon="10.436922954395413">
        <ele>2113.5999999999999</ele>
        <time>2018-07-11T12:30:01Z</time>
      </trkpt>
      <trkpt lat="46.135774785652757" lon="10.436909291893244">
        <ele>2113.5999999999999</ele>
        <time>2018-07-11T12:30:03Z</time>
      </trkpt>
      <trkpt lat="46.135711837559938" lon="10.436778031289577">
        <ele>2113.1199999999999</ele>
        <time>2018-07-11T12:30:15Z</time>
      </trkpt>
      <trkpt lat="46.135720554739237" lon="10.436655655503273">
        <ele>2111.1900000000001</ele>
        <time>2018-07-11T12:30:27Z</time>
      </trkpt>
      <trkpt lat="46.13575148396194" lon="10.436631347984076">
        <ele>2108.3099999999999</ele>
        <time>2018-07-11T12:30:37Z</time>
      </trkpt>
      <trkpt lat="46.135757267475128" lon="10.436598239466548">
        <ele>2105.9099999999999</ele>
        <time>2018-07-11T12:30:47Z</time>
      </trkpt>
      <trkpt lat="46.135781658813357" lon="10.436508050188422">
        <ele>2103.98</ele>
        <time>2018-07-11T12:30:58Z</time>
      </trkpt>
      <trkpt lat="46.135785514488816" lon="10.436496399343014">
        <ele>2103.5</ele>
        <time>2018-07-11T12:30:59Z</time>
      </trkpt>
      <trkpt lat="46.135807223618031" lon="10.43639556504786">
        <ele>2102.54</ele>
        <time>2018-07-11T12:31:08Z</time>
      </trkpt>
      <trkpt lat="46.135861957445741" lon="10.436342675238848">
        <ele>2102.0599999999999</ele>
        <time>2018-07-11T12:31:15Z</time>
      </trkpt>
      <trkpt lat="46.13588735461235" lon="10.436278553679585">
        <ele>2101.5799999999999</ele>
        <time>2018-07-11T12:31:19Z</time>
      </trkpt>
      <trkpt lat="46.135925156995654" lon="10.436195656657219">
        <ele>2101.5799999999999</ele>
        <time>2018-07-11T12:31:26Z</time>
      </trkpt>
      <trkpt lat="46.135942591354251" lon="10.436074957251549">
        <ele>2103.02</ele>
        <time>2018-07-11T12:31:38Z</time>
      </trkpt>
      <trkpt lat="46.135988440364599" lon="10.435985187068582">
        <ele>2104.9400000000001</ele>
        <time>2018-07-11T12:31:51Z</time>
      </trkpt>
      <trkpt lat="46.136074690148234" lon="10.435972111299634">
        <ele>2106.8699999999999</ele>
        <time>2018-07-11T12:32:04Z</time>
      </trkpt>
      <trkpt lat="46.13615264184773" lon="10.436022067442536">
        <ele>2108.79</ele>
        <time>2018-07-11T12:32:16Z</time>
      </trkpt>
      <trkpt lat="46.136197904124856" lon="10.436028186231852">
        <ele>2109.27</ele>
        <time>2018-07-11T12:32:22Z</time>
      </trkpt>
      <trkpt lat="46.136241909116507" lon="10.436032880097628">
        <ele>2109.27</ele>
        <time>2018-07-11T12:32:26Z</time>
      </trkpt>
      <trkpt lat="46.136269401758909" lon="10.435993988066912">
        <ele>2109.75</ele>
        <time>2018-07-11T12:32:34Z</time>
      </trkpt>
      <trkpt lat="46.13628264516592" lon="10.435874294489622">
        <ele>2108.79</ele>
        <time>2018-07-11T12:32:41Z</time>
      </trkpt>
      <trkpt lat="46.136302761733532" lon="10.435814028605819">
        <ele>2107.8299999999999</ele>
        <time>2018-07-11T12:32:46Z</time>
      </trkpt>
      <trkpt lat="46.136352214962244" lon="10.435663992539048">
        <ele>2107.3499999999999</ele>
        <time>2018-07-11T12:32:57Z</time>
      </trkpt>
      <trkpt lat="46.136377863585949" lon="10.43561571277678">
        <ele>2105.9099999999999</ele>
        <time>2018-07-11T12:33:01Z</time>
      </trkpt>
      <trkpt lat="46.136384233832359" lon="10.435552345588803">
        <ele>2105.4200000000001</ele>
        <time>2018-07-11T12:33:05Z</time>
      </trkpt>
      <trkpt lat="46.136451289057732" lon="10.435364507138729">
        <ele>2103.98</ele>
        <time>2018-07-11T12:33:18Z</time>
      </trkpt>
      <trkpt lat="46.136504430323839" lon="10.435263253748417">
        <ele>2103.5</ele>
        <time>2018-07-11T12:33:28Z</time>
      </trkpt>
      <trkpt lat="46.136529659852386" lon="10.435242466628551">
        <ele>2103.02</ele>
        <time>2018-07-11T12:33:31Z</time>
      </trkpt>
      <trkpt lat="46.136605348438025" lon="10.435227798298001">
        <ele>2101.5799999999999</ele>
        <time>2018-07-11T12:33:43Z</time>
      </trkpt>
      <trkpt lat="46.136637786403298" lon="10.435283035039902">
        <ele>2099.6599999999999</ele>
        <time>2018-07-11T12:33:54Z</time>
      </trkpt>
      <trkpt lat="46.136655891314149" lon="10.435307007282972">
        <ele>2098.6999999999998</ele>
        <time>2018-07-11T12:34:08Z</time>
      </trkpt>
      <trkpt lat="46.136664859950542" lon="10.435299882665277">
        <ele>2098.6999999999998</ele>
        <time>2018-07-11T12:34:26Z</time>
      </trkpt>
      <trkpt lat="46.136648850515485" lon="10.43530298396945">
        <ele>2098.6999999999998</ele>
        <time>2018-07-11T12:34:47Z</time>
      </trkpt>
      <trkpt lat="46.136599481105804" lon="10.435304492712021">
        <ele>2098.6999999999998</ele>
        <time>2018-07-11T12:35:05Z</time>
      </trkpt>
      <trkpt lat="46.136696878820658" lon="10.435324776917696">
        <ele>2098.21</ele>
        <time>2018-07-11T12:35:15Z</time>
      </trkpt>
      <trkpt lat="46.136679109185934" lon="10.435290411114693">
        <ele>2098.6999999999998</ele>
        <time>2018-07-11T12:35:25Z</time>
      </trkpt>
      <trkpt lat="46.136618088930845" lon="10.435212207958102">
        <ele>2101.0999999999999</ele>
        <time>2018-07-11T12:35:37Z</time>
      </trkpt>
      <trkpt lat="46.136563438922167" lon="10.435176333412528">
        <ele>2102.54</ele>
        <time>2018-07-11T12:35:48Z</time>
      </trkpt>
      <trkpt lat="46.136540807783604" lon="10.435093017295003">
        <ele>2103.98</ele>
        <time>2018-07-11T12:35:59Z</time>
      </trkpt>
      <trkpt lat="46.13648297265172" lon="10.435094693675637">
        <ele>2104.46</ele>
        <time>2018-07-11T12:36:16Z</time>
      </trkpt>
      <trkpt lat="46.136471908539534" lon="10.43505429290235">
        <ele>2105.4200000000001</ele>
        <time>2018-07-11T12:36:26Z</time>
      </trkpt>
      <trkpt lat="46.136638289317489" lon="10.434908783063293">
        <ele>2106.8699999999999</ele>
        <time>2018-07-11T12:36:37Z</time>
      </trkpt>
      <trkpt lat="46.136638792231679" lon="10.434904927387834">
        <ele>2107.3499999999999</ele>
        <time>2018-07-11T12:36:48Z</time>
      </trkpt>
      <trkpt lat="46.136658238247037" lon="10.434866286814213">
        <ele>2107.3499999999999</ele>
        <time>2018-07-11T12:36:56Z</time>
      </trkpt>
      <trkpt lat="46.136657483875751" lon="10.43488179333508">
        <ele>2106.8699999999999</ele>
        <time>2018-07-11T12:37:02Z</time>
      </trkpt>
      <trkpt lat="46.136658238247037" lon="10.434887409210205">
        <ele>2108.3099999999999</ele>
        <time>2018-07-11T12:37:05Z</time>
      </trkpt>
      <trkpt lat="46.136668883264065" lon="10.43487835675478">
        <ele>2107.3499999999999</ele>
        <time>2018-07-11T12:37:18Z</time>
      </trkpt>
      <trkpt lat="46.136688077822328" lon="10.434842314571142">
        <ele>2106.8699999999999</ele>
        <time>2018-07-11T12:37:31Z</time>
      </trkpt>
      <trkpt lat="46.136714061722159" lon="10.434801075607538">
        <ele>2105.9099999999999</ele>
        <time>2018-07-11T12:37:35Z</time>
      </trkpt>
      <trkpt lat="46.136716995388269" lon="10.434712059795856">
        <ele>2105.9099999999999</ele>
        <time>2018-07-11T12:37:42Z</time>
      </trkpt>
      <trkpt lat="46.136683048680425" lon="10.43462086468935">
        <ele>2107.8299999999999</ele>
        <time>2018-07-11T12:37:54Z</time>
      </trkpt>
      <trkpt lat="46.136653292924166" lon="10.43454953469336">
        <ele>2109.75</ele>
        <time>2018-07-11T12:38:06Z</time>
      </trkpt>
      <trkpt lat="46.136676259338856" lon="10.434455070644617">
        <ele>2111.6700000000001</ele>
        <time>2018-07-11T12:38:17Z</time>
      </trkpt>
      <trkpt lat="46.136705679818988" lon="10.434389105066657">
        <ele>2113.1199999999999</ele>
        <time>2018-07-11T12:38:28Z</time>
      </trkpt>
      <trkpt lat="46.136728562414646" lon="10.434289192780852">
        <ele>2114.5599999999999</ele>
        <time>2018-07-11T12:38:39Z</time>
      </trkpt>
      <trkpt lat="46.13676049746573" lon="10.434234458953142">
        <ele>2116.48</ele>
        <time>2018-07-11T12:38:51Z</time>
      </trkpt>
      <trkpt lat="46.136808358132839" lon="10.434179725125432">
        <ele>2116.96</ele>
        <time>2018-07-11T12:39:03Z</time>
      </trkpt>
      <trkpt lat="46.136822188273072" lon="10.434119878336787">
        <ele>2118.4000000000001</ele>
        <time>2018-07-11T12:39:13Z</time>
      </trkpt>
      <trkpt lat="46.136824619024992" lon="10.434050979092717">
        <ele>2119.8400000000001</ele>
        <time>2018-07-11T12:39:23Z</time>
      </trkpt>
      <trkpt lat="46.136830234900117" lon="10.433973362669349">
        <ele>2121.29</ele>
        <time>2018-07-11T12:39:35Z</time>
      </trkpt>
      <trkpt lat="46.13684113137424" lon="10.43394117616117">
        <ele>2121.77</ele>
        <time>2018-07-11T12:39:39Z</time>
      </trkpt>
      <trkpt lat="46.136870216578245" lon="10.433866493403912">
        <ele>2123.21</ele>
        <time>2018-07-11T12:39:50Z</time>
      </trkpt>
      <trkpt lat="46.136888070032001" lon="10.433818968012929">
        <ele>2124.1700000000001</ele>
        <time>2018-07-11T12:40:01Z</time>
      </trkpt>
      <trkpt lat="46.136903073638678" lon="10.433820225298405">
        <ele>2124.1700000000001</ele>
        <time>2018-07-11T12:40:12Z</time>
      </trkpt>
      <trkpt lat="46.136925034224987" lon="10.433785608038306">
        <ele>2125.1300000000001</ele>
        <time>2018-07-11T12:40:21Z</time>
      </trkpt>
      <trkpt lat="46.136972978711128" lon="10.433691730722785">
        <ele>2126.0900000000001</ele>
        <time>2018-07-11T12:40:34Z</time>
      </trkpt>
      <trkpt lat="46.13700675778091" lon="10.433606235310435">
        <ele>2127.5300000000002</ele>
        <time>2018-07-11T12:40:46Z</time>
      </trkpt>
      <trkpt lat="46.13702729344368" lon="10.433518895879388">
        <ele>2128.02</ele>
        <time>2018-07-11T12:41:00Z</time>
      </trkpt>
      <trkpt lat="46.137034501880407" lon="10.433504395186901">
        <ele>2130.4200000000001</ele>
        <time>2018-07-11T12:41:03Z</time>
      </trkpt>
      <trkpt lat="46.13706199452281" lon="10.433417893946171">
        <ele>2131.8600000000001</ele>
        <time>2018-07-11T12:41:15Z</time>
      </trkpt>
      <trkpt lat="46.137088229879737" lon="10.433342959731817">
        <ele>2133.3000000000002</ele>
        <time>2018-07-11T12:41:27Z</time>
      </trkpt>
      <trkpt lat="46.137113627046347" lon="10.433267271146178">
        <ele>2135.23</ele>
        <time>2018-07-11T12:41:39Z</time>
      </trkpt>
      <trkpt lat="46.137136593461037" lon="10.43320775963366">
        <ele>2136.6700000000001</ele>
        <time>2018-07-11T12:41:51Z</time>
      </trkpt>
      <trkpt lat="46.137159643694758" lon="10.43313005939126">
        <ele>2138.1100000000001</ele>
        <time>2018-07-11T12:42:02Z</time>
      </trkpt>
      <trkpt lat="46.137187723070383" lon="10.43304649181664">
        <ele>2139.5500000000002</ele>
        <time>2018-07-11T12:42:12Z</time>
      </trkpt>
      <trkpt lat="46.137222507968545" lon="10.432966696098447">
        <ele>2141.4699999999998</ele>
        <time>2018-07-11T12:42:24Z</time>
      </trkpt>
      <trkpt lat="46.137267434969544" lon="10.432900059968233">
        <ele>2142.9200000000001</ele>
        <time>2018-07-11T12:42:36Z</time>
      </trkpt>
      <trkpt lat="46.137309763580561" lon="10.432846415787935">
        <ele>2144.8400000000001</ele>
        <time>2018-07-11T12:42:48Z</time>
      </trkpt>
      <trkpt lat="46.137380925938487" lon="10.432761004194617">
        <ele>2146.7600000000002</ele>
        <time>2018-07-11T12:43:03Z</time>
      </trkpt>
      <trkpt lat="46.137440521270037" lon="10.432720938697457">
        <ele>2148.1999999999998</ele>
        <time>2018-07-11T12:43:15Z</time>
      </trkpt>
      <trkpt lat="46.13749735057354" lon="10.4326341021806">
        <ele>2150.6100000000001</ele>
        <time>2018-07-11T12:43:31Z</time>
      </trkpt>
      <trkpt lat="46.137560131028295" lon="10.43253930285573">
        <ele>2152.0500000000002</ele>
        <time>2018-07-11T12:43:46Z</time>
      </trkpt>
      <trkpt lat="46.137614194303751" lon="10.43245523236692">
        <ele>2153.9699999999998</ele>
        <time>2018-07-11T12:44:00Z</time>
      </trkpt>
      <trkpt lat="46.137675130739808" lon="10.43238733895123">
        <ele>2155.4099999999999</ele>
        <time>2018-07-11T12:44:11Z</time>
      </trkpt>
      <trkpt lat="46.137742018327117" lon="10.432366300374269">
        <ele>2156.8600000000001</ele>
        <time>2018-07-11T12:44:24Z</time>
      </trkpt>
      <trkpt lat="46.137788286432624" lon="10.432356828823686">
        <ele>2157.8200000000002</ele>
        <time>2018-07-11T12:44:36Z</time>
      </trkpt>
      <trkpt lat="46.137796919792891" lon="10.432352051138878">
        <ele>2157.3400000000001</ele>
        <time>2018-07-11T12:44:54Z</time>
      </trkpt>
      <trkpt lat="46.137872440740466" lon="10.432271752506495">
        <ele>2159.2600000000002</ele>
        <time>2018-07-11T12:45:08Z</time>
      </trkpt>
      <trkpt lat="46.137925162911415" lon="10.432232273742557">
        <ele>2161.1799999999998</ele>
        <time>2018-07-11T12:45:18Z</time>
      </trkpt>
      <trkpt lat="46.137986350804567" lon="10.43218944221735">
        <ele>2162.6199999999999</ele>
        <time>2018-07-11T12:45:29Z</time>
      </trkpt>
      <trkpt lat="46.13804804161191" lon="10.432122722268105">
        <ele>2164.5500000000002</ele>
        <time>2018-07-11T12:45:42Z</time>
      </trkpt>
      <trkpt lat="46.138101601973176" lon="10.432086177170277">
        <ele>2165.9899999999998</ele>
        <time>2018-07-11T12:45:54Z</time>
      </trkpt>
      <trkpt lat="46.138145942240953" lon="10.432085003703833">
        <ele>2167.9099999999999</ele>
        <time>2018-07-11T12:46:04Z</time>
      </trkpt>
      <trkpt lat="46.138172429054976" lon="10.43207217939198">
        <ele>2169.3499999999999</ele>
        <time>2018-07-11T12:46:14Z</time>
      </trkpt>
      <trkpt lat="46.138218697160482" lon="10.432083578780293">
        <ele>2170.79</ele>
        <time>2018-07-11T12:46:23Z</time>
      </trkpt>
      <trkpt lat="46.138260858133435" lon="10.432074191048741">
        <ele>2171.7600000000002</ele>
        <time>2018-07-11T12:46:34Z</time>
      </trkpt>
      <trkpt lat="46.138318609446287" lon="10.432061115279794">
        <ele>2173.1999999999998</ele>
        <time>2018-07-11T12:46:45Z</time>
      </trkpt>
      <trkpt lat="46.138364458456635" lon="10.432021971791983">
        <ele>2174.6399999999999</ele>
        <time>2018-07-11T12:46:58Z</time>
      </trkpt>
      <trkpt lat="46.13840376958251" lon="10.431946367025375">
        <ele>2176.0799999999999</ele>
        <time>2018-07-11T12:47:09Z</time>
      </trkpt>
      <trkpt lat="46.138445176184177" lon="10.4319485463202">
        <ele>2178</ele>
        <time>2018-07-11T12:47:22Z</time>
      </trkpt>
      <trkpt lat="46.138484571129084" lon="10.432051727548242">
        <ele>2179.4499999999998</ele>
        <time>2018-07-11T12:47:35Z</time>
      </trkpt>
      <trkpt lat="46.138502592220902" lon="10.432153651490808">
        <ele>2180.8899999999999</ele>
        <time>2018-07-11T12:47:47Z</time>
      </trkpt>
      <trkpt lat="46.138521870598197" lon="10.432189861312509">
        <ele>2181.8499999999999</ele>
        <time>2018-07-11T12:47:55Z</time>
      </trkpt>
      <trkpt lat="46.138547100126743" lon="10.432098917663097">
        <ele>2183.29</ele>
        <time>2018-07-11T12:48:07Z</time>
      </trkpt>
      <trkpt lat="46.138559756800532" lon="10.432057259604335">
        <ele>2183.77</ele>
        <time>2018-07-11T12:48:16Z</time>
      </trkpt>
      <trkpt lat="46.138604432344437" lon="10.432015182450414">
        <ele>2184.73</ele>
        <time>2018-07-11T12:48:25Z</time>
      </trkpt>
      <trkpt lat="46.13865053281188" lon="10.432072766125202">
        <ele>2186.1799999999998</ele>
        <time>2018-07-11T12:48:36Z</time>
      </trkpt>
      <trkpt lat="46.138658663257957" lon="10.432185586541891">
        <ele>2187.6199999999999</ele>
        <time>2018-07-11T12:48:48Z</time>
      </trkpt>
      <trkpt lat="46.138627314940095" lon="10.432283570989966">
        <ele>2189.0599999999999</ele>
        <time>2018-07-11T12:49:00Z</time>
      </trkpt>
      <trkpt lat="46.138598816469312" lon="10.432391529902816">
        <ele>2190.98</ele>
        <time>2018-07-11T12:49:12Z</time>
      </trkpt>
      <trkpt lat="46.138579370453954" lon="10.43247819878161">
        <ele>2191.46</ele>
        <time>2018-07-11T12:49:23Z</time>
      </trkpt>
      <trkpt lat="46.138620190322399" lon="10.432514911517501">
        <ele>2192.9000000000001</ele>
        <time>2018-07-11T12:49:33Z</time>
      </trkpt>
      <trkpt lat="46.138673583045602" lon="10.432491106912494">
        <ele>2193.8699999999999</ele>
        <time>2018-07-11T12:49:44Z</time>
      </trkpt>
      <trkpt lat="46.138676516711712" lon="10.432489681988955">
        <ele>2194.3499999999999</ele>
        <time>2018-07-11T12:49:54Z</time>
      </trkpt>
      <trkpt lat="46.138699147850275" lon="10.43246797285974">
        <ele>2194.3499999999999</ele>
        <time>2018-07-11T12:50:10Z</time>
      </trkpt>
      <trkpt lat="46.138762012124062" lon="10.432429248467088">
        <ele>2196.27</ele>
        <time>2018-07-11T12:50:23Z</time>
      </trkpt>
      <trkpt lat="46.138805681839585" lon="10.432389099150896">
        <ele>2197.23</ele>
        <time>2018-07-11T12:50:36Z</time>
      </trkpt>
      <trkpt lat="46.138864774256945" lon="10.432319780811667">
        <ele>2198.6700000000001</ele>
        <time>2018-07-11T12:50:48Z</time>
      </trkpt>
      <trkpt lat="46.138914730399847" lon="10.432258090004325">
        <ele>2200.5900000000001</ele>
        <time>2018-07-11T12:51:00Z</time>
      </trkpt>
      <trkpt lat="46.138964602723718" lon="10.432180222123861">
        <ele>2202.04</ele>
        <time>2018-07-11T12:51:13Z</time>
      </trkpt>
      <trkpt lat="46.139019755646586" lon="10.432146694511175">
        <ele>2203</ele>
        <time>2018-07-11T12:51:23Z</time>
      </trkpt>
      <trkpt lat="46.139088235795498" lon="10.432135378941894">
        <ele>2204.4400000000001</ele>
        <time>2018-07-11T12:51:34Z</time>
      </trkpt>
      <trkpt lat="46.139157302677631" lon="10.432148538529873">
        <ele>2204.9200000000001</ele>
        <time>2018-07-11T12:51:43Z</time>
      </trkpt>
      <trkpt lat="46.139256795868278" lon="10.432189609855413">
        <ele>2205.8800000000001</ele>
        <time>2018-07-11T12:51:56Z</time>
      </trkpt>
      <trkpt lat="46.13933902233839" lon="10.432221377268434">
        <ele>2206.3600000000001</ele>
        <time>2018-07-11T12:52:07Z</time>
      </trkpt>
      <trkpt lat="46.139423260465264" lon="10.432267980650067">
        <ele>2207.8099999999999</ele>
        <time>2018-07-11T12:52:20Z</time>
      </trkpt>
      <trkpt lat="46.139488806948066" lon="10.43233553878963">
        <ele>2208.77</ele>
        <time>2018-07-11T12:52:31Z</time>
      </trkpt>
      <trkpt lat="46.139547312632203" lon="10.43237267062068">
        <ele>2209.25</ele>
        <time>2018-07-11T12:52:40Z</time>
      </trkpt>
      <trkpt lat="46.139646638184786" lon="10.432385327294469">
        <ele>2210.21</ele>
        <time>2018-07-11T12:52:53Z</time>
      </trkpt>
      <trkpt lat="46.139719896018505" lon="10.432360852137208">
        <ele>2211.6500000000001</ele>
        <time>2018-07-11T12:53:04Z</time>
      </trkpt>
      <trkpt lat="46.139799188822508" lon="10.432380130514503">
        <ele>2213.5700000000002</ele>
        <time>2018-07-11T12:53:18Z</time>
      </trkpt>
      <trkpt lat="46.139856437221169" lon="10.432392619550228">
        <ele>2215.98</ele>
        <time>2018-07-11T12:53:30Z</time>
      </trkpt>
      <trkpt lat="46.139908656477928" lon="10.43239077553153">
        <ele>2217.4200000000001</ele>
        <time>2018-07-11T12:53:41Z</time>
      </trkpt>
      <trkpt lat="46.139933886006474" lon="10.432375855743885">
        <ele>2217.9000000000001</ele>
        <time>2018-07-11T12:53:50Z</time>
      </trkpt>
      <trkpt lat="46.139951320365071" lon="10.432362025603652">
        <ele>2217.4200000000001</ele>
        <time>2018-07-11T12:54:02Z</time>
      </trkpt>
      <trkpt lat="46.139967665076256" lon="10.432343669235706">
        <ele>2217.4200000000001</ele>
        <time>2018-07-11T12:54:05Z</time>
      </trkpt>
      <trkpt lat="46.139978310093284" lon="10.432284492999315">
        <ele>2217.9000000000001</ele>
        <time>2018-07-11T12:54:10Z</time>
      </trkpt>
      <trkpt lat="46.13998937420547" lon="10.432262364774942">
        <ele>2217.9000000000001</ele>
        <time>2018-07-11T12:54:12Z</time>
      </trkpt>
      <trkpt lat="46.140104038640857" lon="10.432190196588635">
        <ele>2218.3800000000001</ele>
        <time>2018-07-11T12:54:24Z</time>
      </trkpt>
      <trkpt lat="46.140133207663894" lon="10.432148706167936">
        <ele>2218.3800000000001</ele>
        <time>2018-07-11T12:54:29Z</time>
      </trkpt>
      <trkpt lat="46.140122395008802" lon="10.43211568146944">
        <ele>2218.3800000000001</ele>
        <time>2018-07-11T12:54:32Z</time>
      </trkpt>
      <trkpt lat="46.140062967315316" lon="10.431977044790983">
        <ele>2219.3400000000001</ele>
        <time>2018-07-11T12:54:44Z</time>
      </trkpt>
      <trkpt lat="46.140002030879259" lon="10.431881826370955">
        <ele>2219.8200000000002</ele>
        <time>2018-07-11T12:54:54Z</time>
      </trkpt>
      <trkpt lat="46.139940842986107" lon="10.431771520525217">
        <ele>2220.7800000000002</ele>
        <time>2018-07-11T12:55:05Z</time>
      </trkpt>
      <trkpt lat="46.139889294281602" lon="10.431676805019379">
        <ele>2221.2600000000002</ele>
        <time>2018-07-11T12:55:14Z</time>
      </trkpt>
      <trkpt lat="46.139865154400468" lon="10.431629614904523">
        <ele>2221.2600000000002</ele>
        <time>2018-07-11T12:55:19Z</time>
      </trkpt>
      <trkpt lat="46.139815198257565" lon="10.431532636284828">
        <ele>2222.2199999999998</ele>
        <time>2018-07-11T12:55:29Z</time>
      </trkpt>
      <trkpt lat="46.139766583219171" lon="10.43139198794961">
        <ele>2223.1900000000001</ele>
        <time>2018-07-11T12:55:41Z</time>
      </trkpt>
      <trkpt lat="46.139735653996468" lon="10.431268606334925">
        <ele>2223.6700000000001</ele>
        <time>2018-07-11T12:55:53Z</time>
      </trkpt>
      <trkpt lat="46.139725092798471" lon="10.431128293275833">
        <ele>2224.6300000000001</ele>
        <time>2018-07-11T12:56:06Z</time>
      </trkpt>
      <trkpt lat="46.139710089191794" lon="10.431077498942614">
        <ele>2225.1100000000001</ele>
        <time>2018-07-11T12:56:11Z</time>
      </trkpt>
      <trkpt lat="46.139722326770425" lon="10.43110809288919">
        <ele>2225.1100000000001</ele>
        <time>2018-07-11T12:56:20Z</time>
      </trkpt>
      <trkpt lat="46.139735402539372" lon="10.431142626330256">
        <ele>2225.1100000000001</ele>
        <time>2018-07-11T12:56:29Z</time>
      </trkpt>
      <trkpt lat="46.139725176617503" lon="10.431099040433764">
        <ele>2225.1100000000001</ele>
        <time>2018-07-11T12:56:42Z</time>
      </trkpt>
      <trkpt lat="46.13969910889864" lon="10.431107506155968">
        <ele>2225.1100000000001</ele>
        <time>2018-07-11T12:56:53Z</time>
      </trkpt>
      <trkpt lat="46.139693493023515" lon="10.431085713207722">
        <ele>2224.1500000000001</ele>
        <time>2018-07-11T12:57:07Z</time>
      </trkpt>
      <trkpt lat="46.139687541872263" lon="10.431087557226419">
        <ele>2224.6300000000001</ele>
        <time>2018-07-11T12:57:24Z</time>
      </trkpt>
      <trkpt lat="46.139704305678606" lon="10.431035673245788">
        <ele>2225.5900000000001</ele>
        <time>2018-07-11T12:57:31Z</time>
      </trkpt>
      <trkpt lat="46.139648733660579" lon="10.430919835343957">
        <ele>2226.0700000000002</ele>
        <time>2018-07-11T12:57:42Z</time>
      </trkpt>
      <trkpt lat="46.139580672606826" lon="10.430849846452475">
        <ele>2225.5900000000001</ele>
        <time>2018-07-11T12:57:53Z</time>
      </trkpt>
      <trkpt lat="46.139508252963424" lon="10.430843057110906">
        <ele>2225.5900000000001</ele>
        <time>2018-07-11T12:58:03Z</time>
      </trkpt>
      <trkpt lat="46.139576565474272" lon="10.43079930357635">
        <ele>2226.0700000000002</ele>
        <time>2018-07-11T12:58:13Z</time>
      </trkpt>
      <trkpt lat="46.139649571850896" lon="10.430811876431108">
        <ele>2225.5900000000001</ele>
        <time>2018-07-11T12:58:20Z</time>
      </trkpt>
      <trkpt lat="46.139728277921677" lon="10.430894605815411">
        <ele>2227.5100000000002</ele>
        <time>2018-07-11T12:58:32Z</time>
      </trkpt>
      <trkpt lat="46.139804217964411" lon="10.430945148691535">
        <ele>2228.9499999999998</ele>
        <time>2018-07-11T12:58:43Z</time>
      </trkpt>
      <trkpt lat="46.139874206855893" lon="10.430977754294872">
        <ele>2230.4000000000001</ele>
        <time>2018-07-11T12:58:54Z</time>
      </trkpt>
      <trkpt lat="46.139905638992786" lon="10.430868370458484">
        <ele>2231.8400000000001</ele>
        <time>2018-07-11T12:59:08Z</time>
      </trkpt>
      <trkpt lat="46.139919133856893" lon="10.430760243907571">
        <ele>2233.2800000000002</ele>
        <time>2018-07-11T12:59:19Z</time>
      </trkpt>
      <trkpt lat="46.139909578487277" lon="10.430675502866507">
        <ele>2234.2399999999998</ele>
        <time>2018-07-11T12:59:30Z</time>
      </trkpt>
      <trkpt lat="46.139882421121001" lon="10.430563604459167">
        <ele>2235.6799999999998</ele>
        <time>2018-07-11T12:59:42Z</time>
      </trkpt>
      <trkpt lat="46.139924246817827" lon="10.430490262806416">
        <ele>2237.6100000000001</ele>
        <time>2018-07-11T12:59:54Z</time>
      </trkpt>
      <trkpt lat="46.139957774430513" lon="10.430501829832792">
        <ele>2238.0900000000001</ele>
        <time>2018-07-11T12:59:59Z</time>
      </trkpt>
      <trkpt lat="46.140036480501294" lon="10.430561257526278">
        <ele>2239.5300000000002</ele>
        <time>2018-07-11T13:00:10Z</time>
      </trkpt>
      <trkpt lat="46.140074199065566" lon="10.43066150508821">
        <ele>2240.4899999999998</ele>
        <time>2018-07-11T13:00:21Z</time>
      </trkpt>
      <trkpt lat="46.140085179358721" lon="10.430694278329611">
        <ele>2240.9699999999998</ele>
        <time>2018-07-11T13:00:25Z</time>
      </trkpt>
      <trkpt lat="46.14007486961782" lon="10.430749682709575">
        <ele>2241.4499999999998</ele>
        <time>2018-07-11T13:00:30Z</time>
      </trkpt>
      <trkpt lat="46.140050478279591" lon="10.430875243619084">
        <ele>2242.8899999999999</ele>
        <time>2018-07-11T13:00:42Z</time>
      </trkpt>
      <trkpt lat="46.140056764706969" lon="10.430970210582018">
        <ele>2244.8200000000002</ele>
        <time>2018-07-11T13:00:54Z</time>
      </trkpt>
      <trkpt lat="46.140075791627169" lon="10.431032152846456">
        <ele>2246.2600000000002</ele>
        <time>2018-07-11T13:01:05Z</time>
      </trkpt>
      <trkpt lat="46.140118539333344" lon="10.431113122031093">
        <ele>2248.1799999999998</ele>
        <time>2018-07-11T13:01:18Z</time>
      </trkpt>
      <trkpt lat="46.140153910964727" lon="10.431155953556299">
        <ele>2249.1399999999999</ele>
        <time>2018-07-11T13:01:27Z</time>
      </trkpt>
      <trkpt lat="46.140194814652205" lon="10.431234911084175">
        <ele>2250.0999999999999</ele>
        <time>2018-07-11T13:01:36Z</time>
      </trkpt>
      <trkpt lat="46.14019020460546" lon="10.431166933849454">
        <ele>2251.54</ele>
        <time>2018-07-11T13:01:45Z</time>
      </trkpt>
      <trkpt lat="46.140177212655544" lon="10.431077163666487">
        <ele>2252.9899999999998</ele>
        <time>2018-07-11T13:01:56Z</time>
      </trkpt>
      <trkpt lat="46.140161454677582" lon="10.430977419018745">
        <ele>2254.9099999999999</ele>
        <time>2018-07-11T13:02:09Z</time>
      </trkpt>
      <trkpt lat="46.140191880986094" lon="10.430910447612405">
        <ele>2256.3499999999999</ele>
        <time>2018-07-11T13:02:21Z</time>
      </trkpt>
      <trkpt lat="46.140244519338012" lon="10.430979179218411">
        <ele>2258.27</ele>
        <time>2018-07-11T13:02:34Z</time>
      </trkpt>
      <trkpt lat="46.140274442732334" lon="10.431023351848125">
        <ele>2259.2399999999998</ele>
        <time>2018-07-11T13:02:42Z</time>
      </trkpt>
      <trkpt lat="46.140308976173401" lon="10.431049168109894">
        <ele>2261.1599999999999</ele>
        <time>2018-07-11T13:02:53Z</time>
      </trkpt>
      <trkpt lat="46.140368403866887" lon="10.431095687672496">
        <ele>2263.0799999999999</ele>
        <time>2018-07-11T13:03:05Z</time>
      </trkpt>
      <trkpt lat="46.140425987541676" lon="10.431130388751626">
        <ele>2264.52</ele>
        <time>2018-07-11T13:03:15Z</time>
      </trkpt>
      <trkpt lat="46.14047602750361" lon="10.431143045425415">
        <ele>2265.48</ele>
        <time>2018-07-11T13:03:27Z</time>
      </trkpt>
      <trkpt lat="46.140549369156361" lon="10.431211944669485">
        <ele>2267.4099999999999</ele>
        <time>2018-07-11T13:03:40Z</time>
      </trkpt>
      <trkpt lat="46.140604102984071" lon="10.431300960481167">
        <ele>2269.3299999999999</ele>
        <time>2018-07-11T13:03:55Z</time>
      </trkpt>
      <trkpt lat="46.140632769092917" lon="10.431382348760962">
        <ele>2270.77</ele>
        <time>2018-07-11T13:04:07Z</time>
      </trkpt>
      <trkpt lat="46.140642492100596" lon="10.43141202069819">
        <ele>2271.25</ele>
        <time>2018-07-11T13:04:10Z</time>
      </trkpt>
      <trkpt lat="46.140670822933316" lon="10.431500449776649">
        <ele>2272.21</ele>
        <time>2018-07-11T13:04:23Z</time>
      </trkpt>
      <trkpt lat="46.140676606446505" lon="10.431599523872137">
        <ele>2274.6199999999999</ele>
        <time>2018-07-11T13:04:35Z</time>
      </trkpt>
      <trkpt lat="46.140695801004767" lon="10.431657526642084">
        <ele>2275.5799999999999</ele>
        <time>2018-07-11T13:04:45Z</time>
      </trkpt>
      <trkpt lat="46.14073159173131" lon="10.431723073124886">
        <ele>2277.02</ele>
        <time>2018-07-11T13:04:55Z</time>
      </trkpt>
      <trkpt lat="46.140809711068869" lon="10.431809658184648">
        <ele>2278.9400000000001</ele>
        <time>2018-07-11T13:05:09Z</time>
      </trkpt>
      <trkpt lat="46.140871569514275" lon="10.431845616549253">
        <ele>2279.9000000000001</ele>
        <time>2018-07-11T13:05:20Z</time>
      </trkpt>
      <trkpt lat="46.140877604484558" lon="10.431816782802343">
        <ele>2279.9000000000001</ele>
        <time>2018-07-11T13:05:28Z</time>
      </trkpt>
      <trkpt lat="46.140874419361353" lon="10.431688707321882">
        <ele>2282.3099999999999</ele>
        <time>2018-07-11T13:05:40Z</time>
      </trkpt>
      <trkpt lat="46.140920268371701" lon="10.431630788370967">
        <ele>2283.27</ele>
        <time>2018-07-11T13:05:50Z</time>
      </trkpt>
      <trkpt lat="46.140897804871202" lon="10.431570941582322">
        <ele>2284.23</ele>
        <time>2018-07-11T13:06:01Z</time>
      </trkpt>
      <trkpt lat="46.140905264765024" lon="10.431494247168303">
        <ele>2285.6700000000001</ele>
        <time>2018-07-11T13:06:11Z</time>
      </trkpt>
      <trkpt lat="46.140899397432804" lon="10.431435657665133">
        <ele>2285.6700000000001</ele>
        <time>2018-07-11T13:06:25Z</time>
      </trkpt>
      <trkpt lat="46.140930578112602" lon="10.431444458663464">
        <ele>2285.6700000000001</ele>
        <time>2018-07-11T13:06:44Z</time>
      </trkpt>
      <trkpt lat="46.140933679416776" lon="10.431432137265801">
        <ele>2284.71</ele>
        <time>2018-07-11T13:06:55Z</time>
      </trkpt>
      <trkpt lat="46.140935523435473" lon="10.431445464491844">
        <ele>2285.1900000000001</ele>
        <time>2018-07-11T13:07:19Z</time>
      </trkpt>
      <trkpt lat="46.140971062704921" lon="10.431427359580994">
        <ele>2285.1900000000001</ele>
        <time>2018-07-11T13:07:42Z</time>
      </trkpt>
      <trkpt lat="46.140949269756675" lon="10.431452756747603">
        <ele>2285.1900000000001</ele>
        <time>2018-07-11T13:08:08Z</time>
      </trkpt>
      <trkpt lat="46.140945246443152" lon="10.431461306288838">
        <ele>2285.1900000000001</ele>
        <time>2018-07-11T13:08:27Z</time>
      </trkpt>
      <trkpt lat="46.14095882512629" lon="10.431439932435751">
        <ele>2284.71</ele>
        <time>2018-07-11T13:08:52Z</time>
      </trkpt>
      <trkpt lat="46.140956897288561" lon="10.431439178064466">
        <ele>2286.1500000000001</ele>
        <time>2018-07-11T13:09:15Z</time>
      </trkpt>
      <trkpt lat="46.140955137088895" lon="10.431450912728906">
        <ele>2285.6700000000001</ele>
        <time>2018-07-11T13:09:35Z</time>
      </trkpt>
      <trkpt lat="46.140957484021783" lon="10.431449906900525">
        <ele>2285.6700000000001</ele>
        <time>2018-07-11T13:09:52Z</time>
      </trkpt>
      <trkpt lat="46.140972906723619" lon="10.431482177227736">
        <ele>2286.1500000000001</ele>
        <time>2018-07-11T13:10:09Z</time>
      </trkpt>
      <trkpt lat="46.140979276970029" lon="10.431465664878488">
        <ele>2286.6300000000001</ele>
        <time>2018-07-11T13:10:36Z</time>
      </trkpt>
      <trkpt lat="46.140947928652167" lon="10.431485949084163">
        <ele>2286.6300000000001</ele>
        <time>2018-07-11T13:10:59Z</time>
      </trkpt>
      <trkpt lat="46.14092412404716" lon="10.431535234674811">
        <ele>2286.6300000000001</ele>
        <time>2018-07-11T13:11:19Z</time>
      </trkpt>
      <trkpt lat="46.140932003036141" lon="10.431533893570304">
        <ele>2287.1100000000001</ele>
        <time>2018-07-11T13:11:40Z</time>
      </trkpt>
      <trkpt lat="46.140938373282552" lon="10.431588124483824">
        <ele>2287.5900000000001</ele>
        <time>2018-07-11T13:12:05Z</time>
      </trkpt>
      <trkpt lat="46.140957232564688" lon="10.431565074250102">
        <ele>2288.0799999999999</ele>
        <time>2018-07-11T13:12:34Z</time>
      </trkpt>
      <trkpt lat="46.140969805419445" lon="10.431578485295177">
        <ele>2289.04</ele>
        <time>2018-07-11T13:13:01Z</time>
      </trkpt>
      <trkpt lat="46.140943318605423" lon="10.431590974330902">
        <ele>2289.52</ele>
        <time>2018-07-11T13:13:31Z</time>
      </trkpt>
      <trkpt lat="46.140957567840815" lon="10.43159382417798">
        <ele>2290.48</ele>
        <time>2018-07-11T13:13:57Z</time>
      </trkpt>
      <trkpt lat="46.141008697450161" lon="10.431540347635746">
        <ele>2291.9200000000001</ele>
        <time>2018-07-11T13:14:29Z</time>
      </trkpt>
      <trkpt lat="46.140937032178044" lon="10.431579072028399">
        <ele>2292.8800000000001</ele>
        <time>2018-07-11T13:14:56Z</time>
      </trkpt>
      <trkpt lat="46.140926806256175" lon="10.431583849713206">
        <ele>2293.3600000000001</ele>
        <time>2018-07-11T13:15:17Z</time>
      </trkpt>
      <trkpt lat="46.140939379110932" lon="10.431640846654773">
        <ele>2293.3600000000001</ele>
        <time>2018-07-11T13:15:48Z</time>
      </trkpt>
      <trkpt lat="46.140914484858513" lon="10.431642271578312">
        <ele>2293.8400000000001</ele>
        <time>2018-07-11T13:16:15Z</time>
      </trkpt>
      <trkpt lat="46.140941390767694" lon="10.431604301556945">
        <ele>2295.2800000000002</ele>
        <time>2018-07-11T13:16:41Z</time>
      </trkpt>
      <trkpt lat="46.14096368663013" lon="10.431605810299516">
        <ele>2296.25</ele>
        <time>2018-07-11T13:17:14Z</time>
      </trkpt>
      <trkpt lat="46.140960417687893" lon="10.431592231616378">
        <ele>2296.25</ele>
        <time>2018-07-11T13:17:38Z</time>
      </trkpt>
      <trkpt lat="46.141028562560678" lon="10.431569181382656">
        <ele>2296.25</ele>
        <time>2018-07-11T13:18:01Z</time>
      </trkpt>
      <trkpt lat="46.141015067696571" lon="10.431553423404694">
        <ele>2296.25</ele>
        <time>2018-07-11T13:18:21Z</time>
      </trkpt>
      <trkpt lat="46.141012636944652" lon="10.431582676246762">
        <ele>2296.25</ele>
        <time>2018-07-11T13:18:49Z</time>
      </trkpt>
      <trkpt lat="46.141008697450161" lon="10.431569013744593">
        <ele>2296.73</ele>
        <time>2018-07-11T13:19:11Z</time>
      </trkpt>
      <trkpt lat="46.141006350517273" lon="10.431549903005362">
        <ele>2296.25</ele>
        <time>2018-07-11T13:19:41Z</time>
      </trkpt>
      <trkpt lat="46.141027053818107" lon="10.431538000702858">
        <ele>2296.25</ele>
        <time>2018-07-11T13:20:12Z</time>
      </trkpt>
      <trkpt lat="46.141031328588724" lon="10.431505143642426">
        <ele>2296.25</ele>
        <time>2018-07-11T13:20:33Z</time>
      </trkpt>
      <trkpt lat="46.141009368002415" lon="10.431520231068134">
        <ele>2296.25</ele>
        <time>2018-07-11T13:20:51Z</time>
      </trkpt>
      <trkpt lat="46.141048427671194" lon="10.431556357070804">
        <ele>2295.77</ele>
        <time>2018-07-11T13:21:07Z</time>
      </trkpt>
      <trkpt lat="46.141023030504584" lon="10.431522745639086">
        <ele>2297.21</ele>
        <time>2018-07-11T13:21:21Z</time>
      </trkpt>
      <trkpt lat="46.140928650274873" lon="10.431448649615049">
        <ele>2296.25</ele>
        <time>2018-07-11T13:21:41Z</time>
      </trkpt>
      <trkpt lat="46.14092068746686" lon="10.431449068710208">
        <ele>2296.73</ele>
        <time>2018-07-11T13:21:55Z</time>
      </trkpt>
      <trkpt lat="46.140913059934974" lon="10.431417468935251">
        <ele>2297.21</ele>
        <time>2018-07-11T13:22:04Z</time>
      </trkpt>
      <trkpt lat="46.140919681638479" lon="10.431398693472147">
        <ele>2297.21</ele>
        <time>2018-07-11T13:22:15Z</time>
      </trkpt>
      <trkpt lat="46.14093778654933" lon="10.431397771462798">
        <ele>2297.6900000000001</ele>
        <time>2018-07-11T13:22:26Z</time>
      </trkpt>
      <trkpt lat="46.14094608463347" lon="10.431401878595352">
        <ele>2297.21</ele>
        <time>2018-07-11T13:22:47Z</time>
      </trkpt>
      <trkpt lat="46.140934433788061" lon="10.431448230519891">
        <ele>2297.6900000000001</ele>
        <time>2018-07-11T13:23:01Z</time>
      </trkpt>
      <trkpt lat="46.140956645831466" lon="10.431423168629408">
        <ele>2297.21</ele>
        <time>2018-07-11T13:23:15Z</time>
      </trkpt>
      <trkpt lat="46.140961591154337" lon="10.431388635188341">
        <ele>2297.21</ele>
        <time>2018-07-11T13:23:20Z</time>
      </trkpt>
      <trkpt lat="46.140883639454842" lon="10.431332560256124">
        <ele>2296.73</ele>
        <time>2018-07-11T13:23:24Z</time>
      </trkpt>
      <trkpt lat="46.140932254493237" lon="10.431321663782001">
        <ele>2298.6500000000001</ele>
        <time>2018-07-11T13:23:34Z</time>
      </trkpt>
      <trkpt lat="46.141017414629459" lon="10.431338511407375">
        <ele>2300.5700000000002</ele>
        <time>2018-07-11T13:23:47Z</time>
      </trkpt>
      <trkpt lat="46.141082206740975" lon="10.431303475052118">
        <ele>2300.5700000000002</ele>
        <time>2018-07-11T13:23:57Z</time>
      </trkpt>
      <trkpt lat="46.141137527301908" lon="10.431271875277162">
        <ele>2302.4899999999998</ele>
        <time>2018-07-11T13:24:06Z</time>
      </trkpt>
      <trkpt lat="46.141185890883207" lon="10.431234911084175">
        <ele>2303.46</ele>
        <time>2018-07-11T13:24:18Z</time>
      </trkpt>
      <trkpt lat="46.141182705760002" lon="10.431248573586345">
        <ele>2303.46</ele>
        <time>2018-07-11T13:24:30Z</time>
      </trkpt>
      <trkpt lat="46.1412104498595" lon="10.431308839470148">
        <ele>2303.46</ele>
        <time>2018-07-11T13:24:45Z</time>
      </trkpt>
      <trkpt lat="46.141234925016761" lon="10.431407745927572">
        <ele>2304.9000000000001</ele>
        <time>2018-07-11T13:24:57Z</time>
      </trkpt>
      <trkpt lat="46.141290664672852" lon="10.431419732049108">
        <ele>2305.3800000000001</ele>
        <time>2018-07-11T13:25:09Z</time>
      </trkpt>
      <trkpt lat="46.141310697421432" lon="10.431448398157954">
        <ele>2305.3800000000001</ele>
        <time>2018-07-11T13:25:13Z</time>
      </trkpt>
      <trkpt lat="46.141323857009411" lon="10.431472454220057">
        <ele>2304.9000000000001</ele>
        <time>2018-07-11T13:25:15Z</time>
      </trkpt>
      <trkpt lat="46.141315558925271" lon="10.431532971560955">
        <ele>2304.9000000000001</ele>
        <time>2018-07-11T13:25:19Z</time>
      </trkpt>
      <trkpt lat="46.141337938606739" lon="10.431618886068463">
        <ele>2305.8600000000001</ele>
        <time>2018-07-11T13:25:29Z</time>
      </trkpt>
      <trkpt lat="46.141400132328272" lon="10.431710835546255">
        <ele>2307.3000000000002</ele>
        <time>2018-07-11T13:25:42Z</time>
      </trkpt>
      <trkpt lat="46.141470959410071" lon="10.431779567152262">
        <ele>2309.2199999999998</ele>
        <time>2018-07-11T13:25:55Z</time>
      </trkpt>
      <trkpt lat="46.141522508114576" lon="10.431892219930887">
        <ele>2310.6700000000001</ele>
        <time>2018-07-11T13:26:08Z</time>
      </trkpt>
      <trkpt lat="46.141585540026426" lon="10.431912923231721">
        <ele>2312.5900000000001</ele>
        <time>2018-07-11T13:26:20Z</time>
      </trkpt>
      <trkpt lat="46.141621666029096" lon="10.431900601834059">
        <ele>2314.0300000000002</ele>
        <time>2018-07-11T13:26:31Z</time>
      </trkpt>
      <trkpt lat="46.141666509211063" lon="10.43187377974391">
        <ele>2315.4699999999998</ele>
        <time>2018-07-11T13:26:41Z</time>
      </trkpt>
      <trkpt lat="46.141741443425417" lon="10.431900601834059">
        <ele>2316.4299999999998</ele>
        <time>2018-07-11T13:26:52Z</time>
      </trkpt>
      <trkpt lat="46.141805816441774" lon="10.431930357590318">
        <ele>2317.8800000000001</ele>
        <time>2018-07-11T13:27:04Z</time>
      </trkpt>
      <trkpt lat="46.14185250364244" lon="10.431947121396661">
        <ele>2318.8400000000001</ele>
        <time>2018-07-11T13:27:14Z</time>
      </trkpt>
      <trkpt lat="46.141905225813389" lon="10.431975368410349">
        <ele>2320.7600000000002</ele>
        <time>2018-07-11T13:27:27Z</time>
      </trkpt>
      <trkpt lat="46.141958115622401" lon="10.432011242955923">
        <ele>2322.6799999999998</ele>
        <time>2018-07-11T13:27:39Z</time>
      </trkpt>
      <trkpt lat="46.141996923834085" lon="10.432035801932216">
        <ele>2323.6399999999999</ele>
        <time>2018-07-11T13:27:48Z</time>
      </trkpt>
      <trkpt lat="46.142033888027072" lon="10.432079220190644">
        <ele>2324.6100000000001</ele>
        <time>2018-07-11T13:28:00Z</time>
      </trkpt>
      <trkpt lat="46.14204553887248" lon="10.432146694511175">
        <ele>2326.0500000000002</ele>
        <time>2018-07-11T13:28:09Z</time>
      </trkpt>
      <trkpt lat="46.142028104513884" lon="10.432213833555579">
        <ele>2327.4899999999998</ele>
        <time>2018-07-11T13:28:20Z</time>
      </trkpt>
      <trkpt lat="46.142053501680493" lon="10.432249456644058">
        <ele>2329.4099999999999</ele>
        <time>2018-07-11T13:28:31Z</time>
      </trkpt>
      <trkpt lat="46.142083425074816" lon="10.432331431657076">
        <ele>2330.3699999999999</ele>
        <time>2018-07-11T13:28:44Z</time>
      </trkpt>
      <trkpt lat="46.142091723158956" lon="10.432396307587624">
        <ele>2331.3299999999999</ele>
        <time>2018-07-11T13:28:54Z</time>
      </trkpt>
      <trkpt lat="46.142063224688172" lon="10.432478869333863">
        <ele>2332.3000000000002</ele>
        <time>2018-07-11T13:29:06Z</time>
      </trkpt>
      <trkpt lat="46.142066493630409" lon="10.43254517018795">
        <ele>2333.7399999999998</ele>
        <time>2018-07-11T13:29:16Z</time>
      </trkpt>
      <trkpt lat="46.14213639870286" lon="10.432587247341871">
        <ele>2335.1799999999998</ele>
        <time>2018-07-11T13:29:28Z</time>
      </trkpt>
      <trkpt lat="46.142199262976646" lon="10.43265949934721">
        <ele>2337.0999999999999</ele>
        <time>2018-07-11T13:29:40Z</time>
      </trkpt>
      <trkpt lat="46.142262294888496" lon="10.43269612826407">
        <ele>2338.54</ele>
        <time>2018-07-11T13:29:52Z</time>
      </trkpt>
      <trkpt lat="46.142357010394335" lon="10.432781539857388">
        <ele>2338.0599999999999</ele>
        <time>2018-07-11T13:30:05Z</time>
      </trkpt>
      <trkpt lat="46.142448289319873" lon="10.432830825448036">
        <ele>2338.54</ele>
        <time>2018-07-11T13:30:17Z</time>
      </trkpt>
      <trkpt lat="46.142516015097499" lon="10.432895449921489">
        <ele>2339.5100000000002</ele>
        <time>2018-07-11T13:30:28Z</time>
      </trkpt>
      <trkpt lat="46.142597487196326" lon="10.432975245639682">
        <ele>2340.4699999999998</ele>
        <time>2018-07-11T13:30:41Z</time>
      </trkpt>
      <trkpt lat="46.142710894346237" lon="10.433039283379912">
        <ele>2339.9899999999998</ele>
        <time>2018-07-11T13:30:56Z</time>
      </trkpt>
      <trkpt lat="46.142811141908169" lon="10.433105500414968">
        <ele>2340.9499999999998</ele>
        <time>2018-07-11T13:31:09Z</time>
      </trkpt>
      <trkpt lat="46.14282832480967" lon="10.433117654174566">
        <ele>2339.9899999999998</ele>
        <time>2018-07-11T13:31:12Z</time>
      </trkpt>
      <trkpt lat="46.142928823828697" lon="10.433192923665047">
        <ele>2339.9899999999998</ele>
        <time>2018-07-11T13:31:23Z</time>
      </trkpt>
      <trkpt lat="46.14302622154355" lon="10.433219578117132">
        <ele>2339.9899999999998</ele>
        <time>2018-07-11T13:31:33Z</time>
      </trkpt>
      <trkpt lat="46.143110040575266" lon="10.433283029124141">
        <ele>2339.9899999999998</ele>
        <time>2018-07-11T13:31:45Z</time>
      </trkpt>
      <trkpt lat="46.143184304237366" lon="10.433366009965539">
        <ele>2338.54</ele>
        <time>2018-07-11T13:31:57Z</time>
      </trkpt>
      <trkpt lat="46.143212467432022" lon="10.433365926146507">
        <ele>2338.0599999999999</ele>
        <time>2018-07-11T13:32:00Z</time>
      </trkpt>
      <trkpt lat="46.143282791599631" lon="10.433365339413285">
        <ele>2336.6199999999999</ele>
        <time>2018-07-11T13:32:10Z</time>
      </trkpt>
      <trkpt lat="46.143365688621998" lon="10.433353185653687">
        <ele>2335.1799999999998</ele>
        <time>2018-07-11T13:32:20Z</time>
      </trkpt>
      <trkpt lat="46.14339024759829" lon="10.43335871770978">
        <ele>2334.6999999999998</ele>
        <time>2018-07-11T13:32:23Z</time>
      </trkpt>
      <trkpt lat="46.143505247309804" lon="10.433411356061697">
        <ele>2332.3000000000002</ele>
        <time>2018-07-11T13:32:37Z</time>
      </trkpt>
      <trkpt lat="46.143597783520818" lon="10.433449074625969">
        <ele>2330.3699999999999</ele>
        <time>2018-07-11T13:32:49Z</time>
      </trkpt>
      <trkpt lat="46.143659809604287" lon="10.433482686057687">
        <ele>2328.4499999999998</ele>
        <time>2018-07-11T13:32:58Z</time>
      </trkpt>
      <trkpt lat="46.143730888143182" lon="10.433542197570205">
        <ele>2326.5300000000002</ele>
        <time>2018-07-11T13:33:08Z</time>
      </trkpt>
      <trkpt lat="46.143819820135832" lon="10.433561559766531">
        <ele>2325.0900000000001</ele>
        <time>2018-07-11T13:33:20Z</time>
      </trkpt>
      <trkpt lat="46.143896346911788" lon="10.433586956933141">
        <ele>2324.1199999999999</ele>
        <time>2018-07-11T13:33:30Z</time>
      </trkpt>
      <trkpt lat="46.144026517868042" lon="10.433619730174541">
        <ele>2323.1599999999999</ele>
        <time>2018-07-11T13:33:43Z</time>
      </trkpt>
      <trkpt lat="46.144125927239656" lon="10.433655688539147">
        <ele>2323.6399999999999</ele>
        <time>2018-07-11T13:33:55Z</time>
      </trkpt>
      <trkpt lat="46.144221816211939" lon="10.43368955142796">
        <ele>2324.1199999999999</ele>
        <time>2018-07-11T13:34:06Z</time>
      </trkpt>
      <trkpt lat="46.144310412928462" lon="10.433753840625286">
        <ele>2324.1199999999999</ele>
        <time>2018-07-11T13:34:17Z</time>
      </trkpt>
      <trkpt lat="46.144418455660343" lon="10.43380681425333">
        <ele>2323.6399999999999</ele>
        <time>2018-07-11T13:34:30Z</time>
      </trkpt>
      <trkpt lat="46.144501436501741" lon="10.433865487575531">
        <ele>2324.1199999999999</ele>
        <time>2018-07-11T13:34:39Z</time>
      </trkpt>
      <trkpt lat="46.144580813124776" lon="10.43399004265666">
        <ele>2324.1199999999999</ele>
        <time>2018-07-11T13:34:49Z</time>
      </trkpt>
      <trkpt lat="46.144674187526107" lon="10.43406187556684">
        <ele>2323.1599999999999</ele>
        <time>2018-07-11T13:35:01Z</time>
      </trkpt>
      <trkpt lat="46.144781308248639" lon="10.434103198349476">
        <ele>2322.6799999999998</ele>
        <time>2018-07-11T13:35:13Z</time>
      </trkpt>
      <trkpt lat="46.144803771749139" lon="10.434138318523765">
        <ele>2322.1999999999998</ele>
        <time>2018-07-11T13:35:23Z</time>
      </trkpt>
      <trkpt lat="46.144890692085028" lon="10.434232363477349">
        <ele>2322.6799999999998</ele>
        <time>2018-07-11T13:35:35Z</time>
      </trkpt>
      <trkpt lat="46.144959926605225" lon="10.434298999607563">
        <ele>2323.1599999999999</ele>
        <time>2018-07-11T13:35:44Z</time>
      </trkpt>
      <trkpt lat="46.144990436732769" lon="10.434372927993536">
        <ele>2323.1599999999999</ele>
        <time>2018-07-11T13:35:51Z</time>
      </trkpt>
      <trkpt lat="46.145034860819578" lon="10.434413412585855">
        <ele>2322.6799999999998</ele>
        <time>2018-07-11T13:35:56Z</time>
      </trkpt>
      <trkpt lat="46.145075429230928" lon="10.434514665976167">
        <ele>2323.1599999999999</ele>
        <time>2018-07-11T13:36:07Z</time>
      </trkpt>
      <trkpt lat="46.145128738135099" lon="10.434580044820905">
        <ele>2323.6399999999999</ele>
        <time>2018-07-11T13:36:19Z</time>
      </trkpt>
      <trkpt lat="46.145169893279672" lon="10.434628492221236">
        <ele>2322.1999999999998</ele>
        <time>2018-07-11T13:36:30Z</time>
      </trkpt>
      <trkpt lat="46.145188082009554" lon="10.434675514698029">
        <ele>2321.2399999999998</ele>
        <time>2018-07-11T13:36:39Z</time>
      </trkpt>
      <trkpt lat="46.145223453640938" lon="10.434717172756791">
        <ele>2319.8000000000002</ele>
        <time>2018-07-11T13:36:49Z</time>
      </trkpt>
      <trkpt lat="46.145273074507713" lon="10.434762015938759">
        <ele>2318.3600000000001</ele>
        <time>2018-07-11T13:36:58Z</time>
      </trkpt>
      <trkpt lat="46.145329317077994" lon="10.434766709804535">
        <ele>2316.9099999999999</ele>
        <time>2018-07-11T13:37:05Z</time>
      </trkpt>
      <trkpt lat="46.145436856895685" lon="10.434863520786166">
        <ele>2316.9099999999999</ele>
        <time>2018-07-11T13:37:17Z</time>
      </trkpt>
      <trkpt lat="46.145470887422562" lon="10.43490719050169">
        <ele>2316.4299999999998</ele>
        <time>2018-07-11T13:37:21Z</time>
      </trkpt>
      <trkpt lat="46.145468959584832" lon="10.434962091967463">
        <ele>2316.9099999999999</ele>
        <time>2018-07-11T13:37:35Z</time>
      </trkpt>
      <trkpt lat="46.145471809431911" lon="10.43498681858182">
        <ele>2316.9099999999999</ele>
        <time>2018-07-11T13:37:53Z</time>
      </trkpt>
      <trkpt lat="46.145456973463297" lon="10.434999391436577">
        <ele>2316.4299999999998</ele>
        <time>2018-07-11T13:38:20Z</time>
      </trkpt>
      <trkpt lat="46.145478012040257" lon="10.434975922107697">
        <ele>2316.4299999999998</ele>
        <time>2018-07-11T13:38:45Z</time>
      </trkpt>
      <trkpt lat="46.145511288195848" lon="10.434979191049933">
        <ele>2316.4299999999998</ele>
        <time>2018-07-11T13:38:50Z</time>
      </trkpt>
      <trkpt lat="46.145569877699018" lon="10.435023196041584">
        <ele>2315.9499999999998</ele>
        <time>2018-07-11T13:38:59Z</time>
      </trkpt>
      <trkpt lat="46.145668113604188" lon="10.435149678960443">
        <ele>2315.9499999999998</ele>
        <time>2018-07-11T13:39:11Z</time>
      </trkpt>
      <trkpt lat="46.145676663145423" lon="10.435165604576468">
        <ele>2315.4699999999998</ele>
        <time>2018-07-11T13:39:12Z</time>
      </trkpt>
      <trkpt lat="46.145758219063282" lon="10.435300469398499">
        <ele>2314.9899999999998</ele>
        <time>2018-07-11T13:39:23Z</time>
      </trkpt>
      <trkpt lat="46.145801721140742" lon="10.435429299250245">
        <ele>2315.9499999999998</ele>
        <time>2018-07-11T13:39:34Z</time>
      </trkpt>
      <trkpt lat="46.145811695605516" lon="10.435445141047239">
        <ele>2315.9499999999998</ele>
        <time>2018-07-11T13:39:36Z</time>
      </trkpt>
      <trkpt lat="46.145856874063611" lon="10.435552429407835">
        <ele>2315.4699999999998</ele>
        <time>2018-07-11T13:39:45Z</time>
      </trkpt>
      <trkpt lat="46.145950332283974" lon="10.435652425512671">
        <ele>2315.9499999999998</ele>
        <time>2018-07-11T13:39:57Z</time>
      </trkpt>
      <trkpt lat="46.145963575690985" lon="10.435668015852571">
        <ele>2316.4299999999998</ele>
        <time>2018-07-11T13:39:59Z</time>
      </trkpt>
      <trkpt lat="46.146000036969781" lon="10.435705566778779">
        <ele>2316.9099999999999</ele>
        <time>2018-07-11T13:40:04Z</time>
      </trkpt>
      <trkpt lat="46.146089471876621" lon="10.435752086341381">
        <ele>2316.4299999999998</ele>
        <time>2018-07-11T13:40:14Z</time>
      </trkpt>
      <trkpt lat="46.146189887076616" lon="10.435820566490293">
        <ele>2315.9499999999998</ele>
        <time>2018-07-11T13:40:25Z</time>
      </trkpt>
      <trkpt lat="46.146295415237546" lon="10.435869432985783">
        <ele>2314.5100000000002</ele>
        <time>2018-07-11T13:40:36Z</time>
      </trkpt>
      <trkpt lat="46.146329697221518" lon="10.435880497097969">
        <ele>2313.5500000000002</ele>
        <time>2018-07-11T13:40:40Z</time>
      </trkpt>
      <trkpt lat="46.14639675244689" lon="10.4359445348382">
        <ele>2312.5900000000001</ele>
        <time>2018-07-11T13:40:47Z</time>
      </trkpt>
      <trkpt lat="46.146432040259242" lon="10.435959370806813">
        <ele>2312.5900000000001</ele>
        <time>2018-07-11T13:40:51Z</time>
      </trkpt>
      <trkpt lat="46.146495072171092" lon="10.43607646599412">
        <ele>2313.0700000000002</ele>
        <time>2018-07-11T13:41:02Z</time>
      </trkpt>
      <trkpt lat="46.146533880382776" lon="10.436105551198125">
        <ele>2313.0700000000002</ele>
        <time>2018-07-11T13:41:14Z</time>
      </trkpt>
      <trkpt lat="46.146558271721005" lon="10.436166236177087">
        <ele>2313.0700000000002</ele>
        <time>2018-07-11T13:41:18Z</time>
      </trkpt>
      <trkpt lat="46.146596074104309" lon="10.436208732426167">
        <ele>2313.0700000000002</ele>
        <time>2018-07-11T13:41:22Z</time>
      </trkpt>
      <trkpt lat="46.146629434078932" lon="10.436266819015145">
        <ele>2313.0700000000002</ele>
        <time>2018-07-11T13:41:26Z</time>
      </trkpt>
      <trkpt lat="46.146653238683939" lon="10.43630420230329">
        <ele>2313.0700000000002</ele>
        <time>2018-07-11T13:41:29Z</time>
      </trkpt>
      <trkpt lat="46.14676714874804" lon="10.436434876173735">
        <ele>2312.5900000000001</ele>
        <time>2018-07-11T13:41:41Z</time>
      </trkpt>
      <trkpt lat="46.146820206195116" lon="10.43650796636939">
        <ele>2312.1100000000001</ele>
        <time>2018-07-11T13:41:48Z</time>
      </trkpt>
      <trkpt lat="46.146859182044864" lon="10.436583152040839">
        <ele>2311.6300000000001</ele>
        <time>2018-07-11T13:41:56Z</time>
      </trkpt>
      <trkpt lat="46.146917436271906" lon="10.436658170074224">
        <ele>2310.6700000000001</ele>
        <time>2018-07-11T13:42:04Z</time>
      </trkpt>
      <trkpt lat="46.146968817338347" lon="10.43674441985786">
        <ele>2309.6999999999998</ele>
        <time>2018-07-11T13:42:15Z</time>
      </trkpt>
      <trkpt lat="46.14699823781848" lon="10.436746766790748">
        <ele>2310.1900000000001</ele>
        <time>2018-07-11T13:42:19Z</time>
      </trkpt>
      <trkpt lat="46.147099491208792" lon="10.436831507831812">
        <ele>2311.1500000000001</ele>
        <time>2018-07-11T13:42:31Z</time>
      </trkpt>
      <trkpt lat="46.147195296362042" lon="10.436928067356348">
        <ele>2311.1500000000001</ele>
        <time>2018-07-11T13:42:42Z</time>
      </trkpt>
      <trkpt lat="46.14728800021112" lon="10.437006941065192">
        <ele>2311.1500000000001</ele>
        <time>2018-07-11T13:42:53Z</time>
      </trkpt>
      <trkpt lat="46.147366035729647" lon="10.437057064846158">
        <ele>2312.1100000000001</ele>
        <time>2018-07-11T13:43:03Z</time>
      </trkpt>
      <trkpt lat="46.147438120096922" lon="10.437098555266857">
        <ele>2313.0700000000002</ele>
        <time>2018-07-11T13:43:13Z</time>
      </trkpt>
      <trkpt lat="46.147500732913613" lon="10.437195030972362">
        <ele>2314.0300000000002</ele>
        <time>2018-07-11T13:43:24Z</time>
      </trkpt>
      <trkpt lat="46.147556724026799" lon="10.437271222472191">
        <ele>2315.4699999999998</ele>
        <time>2018-07-11T13:43:36Z</time>
      </trkpt>
      <trkpt lat="46.147601567208767" lon="10.437305588275194">
        <ele>2315.9499999999998</ele>
        <time>2018-07-11T13:43:46Z</time>
      </trkpt>
      <trkpt lat="46.147605925798416" lon="10.437355376780033">
        <ele>2316.9099999999999</ele>
        <time>2018-07-11T13:43:59Z</time>
      </trkpt>
      <trkpt lat="46.147608021274209" lon="10.437368368729949">
        <ele>2316.9099999999999</ele>
        <time>2018-07-11T13:44:00Z</time>
      </trkpt>
      <trkpt lat="46.147646075114608" lon="10.437472723424435">
        <ele>2317.8800000000001</ele>
        <time>2018-07-11T13:44:11Z</time>
      </trkpt>
      <trkpt lat="46.147682452574372" lon="10.437573054805398">
        <ele>2318.8400000000001</ele>
        <time>2018-07-11T13:44:22Z</time>
      </trkpt>
      <trkpt lat="46.147734420374036" lon="10.437652515247464">
        <ele>2321.2399999999998</ele>
        <time>2018-07-11T13:44:35Z</time>
      </trkpt>
      <trkpt lat="46.147788818925619" lon="10.437660980969667">
        <ele>2322.1999999999998</ele>
        <time>2018-07-11T13:44:46Z</time>
      </trkpt>
      <trkpt lat="46.147839864715934" lon="10.437634494155645">
        <ele>2323.6399999999999</ele>
        <time>2018-07-11T13:44:57Z</time>
      </trkpt>
      <trkpt lat="46.147864339873195" lon="10.437650587409735">
        <ele>2324.1199999999999</ele>
        <time>2018-07-11T13:45:00Z</time>
      </trkpt>
      <trkpt lat="46.147913290187716" lon="10.43766307644546">
        <ele>2325.5700000000002</ele>
        <time>2018-07-11T13:45:11Z</time>
      </trkpt>
      <trkpt lat="46.147960564121604" lon="10.437643798068166">
        <ele>2326.0500000000002</ele>
        <time>2018-07-11T13:45:21Z</time>
      </trkpt>
      <trkpt lat="46.148018231615424" lon="10.437627034261823">
        <ele>2327.0100000000002</ele>
        <time>2018-07-11T13:45:33Z</time>
      </trkpt>
      <trkpt lat="46.148091657087207" lon="10.437678080052137">
        <ele>2328.9299999999998</ele>
        <time>2018-07-11T13:45:47Z</time>
      </trkpt>
      <trkpt lat="46.148125939071178" lon="10.437669614329934">
        <ele>2330.3699999999999</ele>
        <time>2018-07-11T13:45:57Z</time>
      </trkpt>
      <trkpt lat="46.14816022105515" lon="10.437610941007733">
        <ele>2331.8099999999999</ele>
        <time>2018-07-11T13:46:07Z</time>
      </trkpt>
      <trkpt lat="46.148215709254146" lon="10.437589650973678">
        <ele>2332.7800000000002</ele>
        <time>2018-07-11T13:46:18Z</time>
      </trkpt>
      <trkpt lat="46.148276561871171" lon="10.43758537620306">
        <ele>2333.7399999999998</ele>
        <time>2018-07-11T13:46:30Z</time>
      </trkpt>
      <trkpt lat="46.148325176909566" lon="10.437565678730607">
        <ele>2335.1799999999998</ele>
        <time>2018-07-11T13:46:42Z</time>
      </trkpt>
      <trkpt lat="46.148399775847793" lon="10.437552435323596">
        <ele>2336.1399999999999</ele>
        <time>2018-07-11T13:46:53Z</time>
      </trkpt>
      <trkpt lat="46.148411007598042" lon="10.437567438930273">
        <ele>2336.1399999999999</ele>
        <time>2018-07-11T13:47:06Z</time>
      </trkpt>
      <trkpt lat="46.148426681756973" lon="10.437568528577685">
        <ele>2336.6199999999999</ele>
        <time>2018-07-11T13:47:23Z</time>
      </trkpt>
      <trkpt lat="46.148433890193701" lon="10.437563415616751">
        <ele>2336.6199999999999</ele>
        <time>2018-07-11T13:47:24Z</time>
      </trkpt>
      <trkpt lat="46.148505974560976" lon="10.437548998743296">
        <ele>2337.5799999999999</ele>
        <time>2018-07-11T13:47:35Z</time>
      </trkpt>
      <trkpt lat="46.148569174110889" lon="10.437573976814747">
        <ele>2339.02</ele>
        <time>2018-07-11T13:47:45Z</time>
      </trkpt>
      <trkpt lat="46.148621309548616" lon="10.437610857188702">
        <ele>2340.4699999999998</ele>
        <time>2018-07-11T13:47:54Z</time>
      </trkpt>
      <trkpt lat="46.14865860901773" lon="10.437706746160984">
        <ele>2342.3899999999999</ele>
        <time>2018-07-11T13:48:06Z</time>
      </trkpt>
      <trkpt lat="46.148678809404373" lon="10.437782602384686">
        <ele>2343.8299999999999</ele>
        <time>2018-07-11T13:48:17Z</time>
      </trkpt>
      <trkpt lat="46.14870211109519" lon="10.43782576918602">
        <ele>2345.75</ele>
        <time>2018-07-11T13:48:29Z</time>
      </trkpt>
      <trkpt lat="46.148740248754621" lon="10.437847645953298">
        <ele>2347.1999999999998</ele>
        <time>2018-07-11T13:48:38Z</time>
      </trkpt>
      <trkpt lat="46.148783247917891" lon="10.437860051169991">
        <ele>2348.6399999999999</ele>
        <time>2018-07-11T13:48:49Z</time>
      </trkpt>
      <trkpt lat="46.148817194625735" lon="10.437899781391025">
        <ele>2349.5999999999999</ele>
        <time>2018-07-11T13:48:59Z</time>
      </trkpt>
      <trkpt lat="46.148851728066802" lon="10.437922328710556">
        <ele>2351.04</ele>
        <time>2018-07-11T13:49:09Z</time>
      </trkpt>
      <trkpt lat="46.148860361427069" lon="10.437982007861137">
        <ele>2352.48</ele>
        <time>2018-07-11T13:49:20Z</time>
      </trkpt>
      <trkpt lat="46.148868659511209" lon="10.437952922657132">
        <ele>2353.4400000000001</ele>
        <time>2018-07-11T13:49:39Z</time>
      </trkpt>
      <trkpt lat="46.148873353376985" lon="10.437953006476164">
        <ele>2352.96</ele>
        <time>2018-07-11T13:50:03Z</time>
      </trkpt>
      <trkpt lat="46.148862456902862" lon="10.437955101951957">
        <ele>2352.96</ele>
        <time>2018-07-11T13:50:27Z</time>
      </trkpt>
      <trkpt lat="46.148835131898522" lon="10.437954012304544">
        <ele>2352.96</ele>
        <time>2018-07-11T13:50:48Z</time>
      </trkpt>
      <trkpt lat="46.148869413882494" lon="10.437958538532257">
        <ele>2353.4400000000001</ele>
        <time>2018-07-11T13:51:07Z</time>
      </trkpt>
      <trkpt lat="46.148926327005029" lon="10.437964489683509">
        <ele>2355.3699999999999</ele>
        <time>2018-07-11T13:51:20Z</time>
      </trkpt>
      <trkpt lat="46.14897133782506" lon="10.437981085851789">
        <ele>2356.3299999999999</ele>
        <time>2018-07-11T13:51:31Z</time>
      </trkpt>
      <trkpt lat="46.148985084146261" lon="10.437989383935928">
        <ele>2356.3299999999999</ele>
        <time>2018-07-11T13:51:46Z</time>
      </trkpt>
      <trkpt lat="46.149017103016376" lon="10.438014026731253">
        <ele>2357.77</ele>
        <time>2018-07-11T13:51:55Z</time>
      </trkpt>
      <trkpt lat="46.149046020582318" lon="10.43810329400003">
        <ele>2359.21</ele>
        <time>2018-07-11T13:52:06Z</time>
      </trkpt>
      <trkpt lat="46.149036213755608" lon="10.438114358112216">
        <ele>2359.6900000000001</ele>
        <time>2018-07-11T13:52:17Z</time>
      </trkpt>
      <trkpt lat="46.149033447727561" lon="10.438113184645772">
        <ele>2359.6900000000001</ele>
        <time>2018-07-11T13:52:36Z</time>
      </trkpt>
      <trkpt lat="46.149026406928897" lon="10.438111759722233">
        <ele>2359.21</ele>
        <time>2018-07-11T13:52:52Z</time>
      </trkpt>
      <trkpt lat="46.14903973415494" lon="10.438136989250779">
        <ele>2360.1700000000001</ele>
        <time>2018-07-11T13:53:07Z</time>
      </trkpt>
      <trkpt lat="46.149067645892501" lon="10.43817269615829">
        <ele>2360.6500000000001</ele>
        <time>2018-07-11T13:53:12Z</time>
      </trkpt>
      <trkpt lat="46.149109806865454" lon="10.438267411664128">
        <ele>2361.6199999999999</ele>
        <time>2018-07-11T13:53:22Z</time>
      </trkpt>
      <trkpt lat="46.149152554571629" lon="10.438362713903189">
        <ele>2362.5799999999999</ele>
        <time>2018-07-11T13:53:33Z</time>
      </trkpt>
      <trkpt lat="46.149169486016035" lon="10.438372101634741">
        <ele>2363.0599999999999</ele>
        <time>2018-07-11T13:53:36Z</time>
      </trkpt>
      <trkpt lat="46.149205360561609" lon="10.438465559855103">
        <ele>2363.54</ele>
        <time>2018-07-11T13:53:47Z</time>
      </trkpt>
      <trkpt lat="46.14916630089283" lon="10.438505206257105">
        <ele>2364.02</ele>
        <time>2018-07-11T13:53:56Z</time>
      </trkpt>
      <trkpt lat="46.149167055264115" lon="10.438490957021713">
        <ele>2363.0599999999999</ele>
        <time>2018-07-11T13:54:06Z</time>
      </trkpt>
      <trkpt lat="46.14915456622839" lon="10.43847369030118">
        <ele>2363.0599999999999</ele>
        <time>2018-07-11T13:54:27Z</time>
      </trkpt>
      <trkpt lat="46.14916630089283" lon="10.438479306176305">
        <ele>2363.0599999999999</ele>
        <time>2018-07-11T13:54:45Z</time>
      </trkpt>
      <trkpt lat="46.149168228730559" lon="10.438480731099844">
        <ele>2363.0599999999999</ele>
        <time>2018-07-11T13:55:14Z</time>
      </trkpt>
      <trkpt lat="46.14916579797864" lon="10.438475701957941">
        <ele>2362.5799999999999</ele>
        <time>2018-07-11T13:55:37Z</time>
      </trkpt>
      <trkpt lat="46.149160182103515" lon="10.438476456329226">
        <ele>2362.5799999999999</ele>
        <time>2018-07-11T13:56:05Z</time>
      </trkpt>
      <trkpt lat="46.14916143938899" lon="10.438483329489827">
        <ele>2362.5799999999999</ele>
        <time>2018-07-11T13:56:33Z</time>
      </trkpt>
      <trkpt lat="46.149154985323548" lon="10.438480814918876">
        <ele>2362.5799999999999</ele>
        <time>2018-07-11T13:56:48Z</time>
      </trkpt>
      <trkpt lat="46.149167977273464" lon="10.438484083861113">
        <ele>2363.54</ele>
        <time>2018-07-11T13:56:55Z</time>
      </trkpt>
      <trkpt lat="46.149182813242078" lon="10.43849422596395">
        <ele>2363.54</ele>
        <time>2018-07-11T13:57:08Z</time>
      </trkpt>
      <trkpt lat="46.149235786870122" lon="10.438541751354933">
        <ele>2364.5</ele>
        <time>2018-07-11T13:57:18Z</time>
      </trkpt>
      <trkpt lat="46.149284318089485" lon="10.438605286180973">
        <ele>2364.5</ele>
        <time>2018-07-11T13:57:28Z</time>
      </trkpt>
      <trkpt lat="46.149325892329216" lon="10.438685333356261">
        <ele>2365.9400000000001</ele>
        <time>2018-07-11T13:57:39Z</time>
      </trkpt>
      <trkpt lat="46.149363359436393" lon="10.438748449087143">
        <ele>2367.3800000000001</ele>
        <time>2018-07-11T13:57:49Z</time>
      </trkpt>
      <trkpt lat="46.149381045252085" lon="10.43882648460567">
        <ele>2368.8299999999999</ele>
        <time>2018-07-11T13:57:59Z</time>
      </trkpt>
      <trkpt lat="46.149382051080465" lon="10.438888091593981">
        <ele>2369.79</ele>
        <time>2018-07-11T13:58:08Z</time>
      </trkpt>
      <trkpt lat="46.149421697482467" lon="10.438957326114178">
        <ele>2371.71</ele>
        <time>2018-07-11T13:58:19Z</time>
      </trkpt>
      <trkpt lat="46.149437120184302" lon="10.43901851400733">
        <ele>2373.1500000000001</ele>
        <time>2018-07-11T13:58:29Z</time>
      </trkpt>
      <trkpt lat="46.149421781301498" lon="10.439067799597979">
        <ele>2374.1100000000001</ele>
        <time>2018-07-11T13:58:39Z</time>
      </trkpt>
      <trkpt lat="46.149379285052419" lon="10.439102333039045">
        <ele>2375.5500000000002</ele>
        <time>2018-07-11T13:58:50Z</time>
      </trkpt>
      <trkpt lat="46.149394623935223" lon="10.439130999147892">
        <ele>2376.52</ele>
        <time>2018-07-11T13:59:02Z</time>
      </trkpt>
      <trkpt lat="46.149387583136559" lon="10.439213560894132">
        <ele>2378.9200000000001</ele>
        <time>2018-07-11T13:59:14Z</time>
      </trkpt>
      <trkpt lat="46.149392863735557" lon="10.439247088506818">
        <ele>2379.8800000000001</ele>
        <time>2018-07-11T13:59:22Z</time>
      </trkpt>
      <trkpt lat="46.149411052465439" lon="10.439285645261407">
        <ele>2381.3200000000002</ele>
        <time>2018-07-11T13:59:32Z</time>
      </trkpt>
      <trkpt lat="46.149414069950581" lon="10.439334511756897">
        <ele>2384.21</ele>
        <time>2018-07-11T13:59:44Z</time>
      </trkpt>
      <trkpt lat="46.149388169869781" lon="10.439368961378932">
        <ele>2384.21</ele>
        <time>2018-07-11T13:59:54Z</time>
      </trkpt>
      <trkpt lat="46.149391857907176" lon="10.43941137380898">
        <ele>2386.1300000000001</ele>
        <time>2018-07-11T14:00:04Z</time>
      </trkpt>
      <trkpt lat="46.149370903149247" lon="10.439450098201632">
        <ele>2387.0900000000001</ele>
        <time>2018-07-11T14:00:13Z</time>
      </trkpt>
      <trkpt lat="46.149369310587645" lon="10.439498461782932">
        <ele>2388.5300000000002</ele>
        <time>2018-07-11T14:00:22Z</time>
      </trkpt>
      <trkpt lat="46.149333016946912" lon="10.439523523673415">
        <ele>2389.9699999999998</ele>
        <time>2018-07-11T14:00:30Z</time>
      </trkpt>
      <trkpt lat="46.149289011955261" lon="10.439584795385599">
        <ele>2391.4200000000001</ele>
        <time>2018-07-11T14:00:41Z</time>
      </trkpt>
      <trkpt lat="46.149282893165946" lon="10.439586387947202">
        <ele>2391.9000000000001</ele>
        <time>2018-07-11T14:00:43Z</time>
      </trkpt>
      <trkpt lat="46.149262944236398" lon="10.439594937488437">
        <ele>2392.8600000000001</ele>
        <time>2018-07-11T14:00:49Z</time>
      </trkpt>
      <trkpt lat="46.149257747456431" lon="10.43959803879261">
        <ele>2393.3400000000001</ele>
        <time>2018-07-11T14:01:01Z</time>
      </trkpt>
      <trkpt lat="46.149254310876131" lon="10.439627794548869">
        <ele>2393.3400000000001</ele>
        <time>2018-07-11T14:01:14Z</time>
      </trkpt>
      <trkpt lat="46.149214832112193" lon="10.439729634672403">
        <ele>2394.3000000000002</ele>
        <time>2018-07-11T14:01:25Z</time>
      </trkpt>
      <trkpt lat="46.149172084406018" lon="10.439815381541848">
        <ele>2396.2199999999998</ele>
        <time>2018-07-11T14:01:38Z</time>
      </trkpt>
      <trkpt lat="46.149169402197003" lon="10.439891489222646">
        <ele>2397.6700000000001</ele>
        <time>2018-07-11T14:01:50Z</time>
      </trkpt>
      <trkpt lat="46.149167893454432" lon="10.439921412616968">
        <ele>2398.1500000000001</ele>
        <time>2018-07-11T14:02:02Z</time>
      </trkpt>
      <trkpt lat="46.14916873164475" lon="10.440018055960536">
        <ele>2399.5900000000001</ele>
        <time>2018-07-11T14:02:14Z</time>
      </trkpt>
      <trkpt lat="46.149182645604014" lon="10.440098522230983">
        <ele>2401.0300000000002</ele>
        <time>2018-07-11T14:02:25Z</time>
      </trkpt>
      <trkpt lat="46.149205779656768" lon="10.440129786729813">
        <ele>2401.5100000000002</ele>
        <time>2018-07-11T14:02:39Z</time>
      </trkpt>
      <trkpt lat="46.149233104661107" lon="10.440172618255019">
        <ele>2402.9499999999998</ele>
        <time>2018-07-11T14:02:49Z</time>
      </trkpt>
      <trkpt lat="46.149275433272123" lon="10.440174462273717">
        <ele>2404.3899999999999</ele>
        <time>2018-07-11T14:02:59Z</time>
      </trkpt>
      <trkpt lat="46.149311810731888" lon="10.440179659053683">
        <ele>2405.8400000000001</ele>
        <time>2018-07-11T14:03:08Z</time>
      </trkpt>
      <trkpt lat="46.149332514032722" lon="10.440181251615286">
        <ele>2407.2800000000002</ele>
        <time>2018-07-11T14:03:19Z</time>
      </trkpt>
      <trkpt lat="46.149346260353923" lon="10.440247636288404">
        <ele>2409.1999999999998</ele>
        <time>2018-07-11T14:03:32Z</time>
      </trkpt>
      <trkpt lat="46.149363107979298" lon="10.440221736207604">
        <ele>2410.6399999999999</ele>
        <time>2018-07-11T14:03:42Z</time>
      </trkpt>
      <trkpt lat="46.149379201233387" lon="10.440199691802263">
        <ele>2412.0900000000001</ele>
        <time>2018-07-11T14:03:51Z</time>
      </trkpt>
      <trkpt lat="46.149403089657426" lon="10.440174210816622">
        <ele>2412.5700000000002</ele>
        <time>2018-07-11T14:04:00Z</time>
      </trkpt>
      <trkpt lat="46.149436114355922" lon="10.440165074542165">
        <ele>2414.0100000000002</ele>
        <time>2018-07-11T14:04:09Z</time>
      </trkpt>
      <trkpt lat="46.149437204003334" lon="10.440232381224632">
        <ele>2415.4499999999998</ele>
        <time>2018-07-11T14:04:19Z</time>
      </trkpt>
      <trkpt lat="46.149441646412015" lon="10.440280493348837">
        <ele>2417.3699999999999</ele>
        <time>2018-07-11T14:04:31Z</time>
      </trkpt>
      <trkpt lat="46.149450950324535" lon="10.440255766734481">
        <ele>2418.3299999999999</ele>
        <time>2018-07-11T14:04:42Z</time>
      </trkpt>
      <trkpt lat="46.149489926174283" lon="10.440225759521127">
        <ele>2419.7800000000002</ele>
        <time>2018-07-11T14:04:52Z</time>
      </trkpt>
      <trkpt lat="46.149519179016352" lon="10.440224502235651">
        <ele>2421.6999999999998</ele>
        <time>2018-07-11T14:05:03Z</time>
      </trkpt>
      <trkpt lat="46.149537703022361" lon="10.440218718722463">
        <ele>2424.0999999999999</ele>
        <time>2018-07-11T14:05:15Z</time>
      </trkpt>
      <trkpt lat="46.149560250341892" lon="10.440225675702095">
        <ele>2425.0599999999999</ele>
        <time>2018-07-11T14:05:26Z</time>
      </trkpt>
      <trkpt lat="46.149574834853411" lon="10.440286947414279">
        <ele>2426.5</ele>
        <time>2018-07-11T14:05:38Z</time>
      </trkpt>
      <trkpt lat="46.149583384394646" lon="10.440313685685396">
        <ele>2429.3899999999999</ele>
        <time>2018-07-11T14:05:47Z</time>
      </trkpt>
      <trkpt lat="46.149578941985965" lon="10.440342603251338">
        <ele>2428.9099999999999</ele>
        <time>2018-07-11T14:05:57Z</time>
      </trkpt>
      <trkpt lat="46.149587407708168" lon="10.440376969054341">
        <ele>2430.3499999999999</ele>
        <time>2018-07-11T14:06:09Z</time>
      </trkpt>
      <trkpt lat="46.149578187614679" lon="10.440402114763856">
        <ele>2431.3099999999999</ele>
        <time>2018-07-11T14:06:20Z</time>
      </trkpt>
      <trkpt lat="46.14957282319665" lon="10.440462799742818">
        <ele>2432.75</ele>
        <time>2018-07-11T14:06:31Z</time>
      </trkpt>
      <trkpt lat="46.149536445736885" lon="10.440533040091395">
        <ele>2434.1999999999998</ele>
        <time>2018-07-11T14:06:41Z</time>
      </trkpt>
      <trkpt lat="46.14951373077929" lon="10.440582996234298">
        <ele>2435.6399999999999</ele>
        <time>2018-07-11T14:06:50Z</time>
      </trkpt>
      <trkpt lat="46.149504091590643" lon="10.440663043409586">
        <ele>2436.5999999999999</ele>
        <time>2018-07-11T14:07:01Z</time>
      </trkpt>
      <trkpt lat="46.149563267827034" lon="10.440638903528452">
        <ele>2438.04</ele>
        <time>2018-07-11T14:07:13Z</time>
      </trkpt>
      <trkpt lat="46.149593191221356" lon="10.440639574080706">
        <ele>2439</ele>
        <time>2018-07-11T14:07:22Z</time>
      </trkpt>
      <trkpt lat="46.149645326659083" lon="10.440643345937133">
        <ele>2440.4400000000001</ele>
        <time>2018-07-11T14:07:34Z</time>
      </trkpt>
      <trkpt lat="46.149712968617678" lon="10.440620295703411">
        <ele>2441.4099999999999</ele>
        <time>2018-07-11T14:07:45Z</time>
      </trkpt>
      <trkpt lat="46.149780442938209" lon="10.440539326518774">
        <ele>2442.8499999999999</ele>
        <time>2018-07-11T14:07:58Z</time>
      </trkpt>
      <trkpt lat="46.149832913652062" lon="10.440556593239307">
        <ele>2444.77</ele>
        <time>2018-07-11T14:08:08Z</time>
      </trkpt>
      <trkpt lat="46.149864597246051" lon="10.440541421994567">
        <ele>2445.73</ele>
        <time>2018-07-11T14:08:18Z</time>
      </trkpt>
      <trkpt lat="46.149915307760239" lon="10.440521473065019">
        <ele>2447.1700000000001</ele>
        <time>2018-07-11T14:08:29Z</time>
      </trkpt>
      <trkpt lat="46.1499950196594" lon="10.440482161939144">
        <ele>2449.0999999999999</ele>
        <time>2018-07-11T14:08:43Z</time>
      </trkpt>
      <trkpt lat="46.150036845356226" lon="10.440463637933135">
        <ele>2450.54</ele>
        <time>2018-07-11T14:08:52Z</time>
      </trkpt>
      <trkpt lat="46.150040533393621" lon="10.440455004572868">
        <ele>2450.54</ele>
        <time>2018-07-11T14:08:54Z</time>
      </trkpt>
      <trkpt lat="46.150069031864405" lon="10.440423069521785">
        <ele>2451.5</ele>
        <time>2018-07-11T14:09:05Z</time>
      </trkpt>
      <trkpt lat="46.150121837854385" lon="10.440430529415607">
        <ele>2451.02</ele>
        <time>2018-07-11T14:09:11Z</time>
      </trkpt>
      <trkpt lat="46.150211021304131" lon="10.440393565222621">
        <ele>2450.54</ele>
        <time>2018-07-11T14:09:23Z</time>
      </trkpt>
      <trkpt lat="46.150239938870072" lon="10.44035785831511">
        <ele>2451.98</ele>
        <time>2018-07-11T14:09:34Z</time>
      </trkpt>
      <trkpt lat="46.150284446775913" lon="10.440273201093078">
        <ele>2453.9000000000001</ele>
        <time>2018-07-11T14:09:46Z</time>
      </trkpt>
      <trkpt lat="46.150324176996946" lon="10.440295245498419">
        <ele>2454.3800000000001</ele>
        <time>2018-07-11T14:09:57Z</time>
      </trkpt>
    </trkseg>
  </trk>

  <trk>
    <name>6adamello2018-07-12</name>
    <extensions>
      <gpxx:TrackExtension>
        <gpxx:DisplayColor>Yellow</gpxx:DisplayColor>
      </gpxx:TrackExtension>
      <gpxtrkx:TrackStatsExtension xmlns:gpxtrkx="http://www.garmin.com/xmlschemas/TrackStatsExtension/v1">
        <gpxtrkx:Distance>10619</gpxtrkx:Distance>
        <gpxtrkx:TotalElapsedTime>24211</gpxtrkx:TotalElapsedTime>
        <gpxtrkx:MovingTime>14063</gpxtrkx:MovingTime>
        <gpxtrkx:StoppedTime>6999</gpxtrkx:StoppedTime>
        <gpxtrkx:MovingSpeed>1</gpxtrkx:MovingSpeed>
        <gpxtrkx:MaxSpeed>2</gpxtrkx:MaxSpeed>
        <gpxtrkx:MaxElevation>2887</gpxtrkx:MaxElevation>
        <gpxtrkx:MinElevation>2391</gpxtrkx:MinElevation>
        <gpxtrkx:Ascent>556</gpxtrkx:Ascent>
        <gpxtrkx:Descent>657</gpxtrkx:Descent>
        <gpxtrkx:AvgAscentRate>0</gpxtrkx:AvgAscentRate>
        <gpxtrkx:MaxAscentRate>0</gpxtrkx:MaxAscentRate>
        <gpxtrkx:AvgDescentRate>0</gpxtrkx:AvgDescentRate>
        <gpxtrkx:MaxDescentRate>-0</gpxtrkx:MaxDescentRate>
      </gpxtrkx:TrackStatsExtension>
    </extensions>
    <trkseg>
      <trkpt lat="46.150374384596944" lon="10.440238835290074">
        <ele>2457.75</ele>
        <time>2018-07-12T05:58:02Z</time>
      </trkpt>
      <trkpt lat="46.150365164503455" lon="10.440239002928138">
        <ele>2457.27</ele>
        <time>2018-07-12T05:58:19Z</time>
      </trkpt>
      <trkpt lat="46.150354854762554" lon="10.440232632681727">
        <ele>2456.79</ele>
        <time>2018-07-12T05:58:31Z</time>
      </trkpt>
      <trkpt lat="46.150339432060719" lon="10.440213521942496">
        <ele>2456.79</ele>
        <time>2018-07-12T05:58:52Z</time>
      </trkpt>
      <trkpt lat="46.150337336584926" lon="10.440202709287405">
        <ele>2456.79</ele>
        <time>2018-07-12T05:59:16Z</time>
      </trkpt>
      <trkpt lat="46.150350663810968" lon="10.440230956301093">
        <ele>2456.79</ele>
        <time>2018-07-12T05:59:40Z</time>
      </trkpt>
      <trkpt lat="46.15034244954586" lon="10.440220478922129">
        <ele>2456.3099999999999</ele>
        <time>2018-07-12T05:59:55Z</time>
      </trkpt>
      <trkpt lat="46.150354268029332" lon="10.440242439508438">
        <ele>2459.1900000000001</ele>
        <time>2018-07-12T06:00:03Z</time>
      </trkpt>
      <trkpt lat="46.150356195867062" lon="10.440242271870375">
        <ele>2459.1900000000001</ele>
        <time>2018-07-12T06:00:04Z</time>
      </trkpt>
      <trkpt lat="46.150353094562888" lon="10.440210169181228">
        <ele>2456.79</ele>
        <time>2018-07-12T06:00:07Z</time>
      </trkpt>
      <trkpt lat="46.150343539193273" lon="10.440218718722463">
        <ele>2456.79</ele>
        <time>2018-07-12T06:00:28Z</time>
      </trkpt>
      <trkpt lat="46.150340018793941" lon="10.440227687358856">
        <ele>2456.79</ele>
        <time>2018-07-12T06:00:41Z</time>
      </trkpt>
      <trkpt lat="46.150333816185594" lon="10.440239924937487">
        <ele>2456.79</ele>
        <time>2018-07-12T06:01:11Z</time>
      </trkpt>
      <trkpt lat="46.150319064036012" lon="10.440248306840658">
        <ele>2456.79</ele>
        <time>2018-07-12T06:01:34Z</time>
      </trkpt>
      <trkpt lat="46.150322165340185" lon="10.440250150859356">
        <ele>2456.79</ele>
        <time>2018-07-12T06:02:02Z</time>
      </trkpt>
      <trkpt lat="46.150308838114142" lon="10.440240511670709">
        <ele>2456.79</ele>
        <time>2018-07-12T06:02:24Z</time>
      </trkpt>
      <trkpt lat="46.150333061814308" lon="10.44023422524333">
        <ele>2456.79</ele>
        <time>2018-07-12T06:02:52Z</time>
      </trkpt>
      <trkpt lat="46.150300456210971" lon="10.44026255607605">
        <ele>2457.27</ele>
        <time>2018-07-12T06:03:19Z</time>
      </trkpt>
      <trkpt lat="46.150367595255375" lon="10.440241768956184">
        <ele>2456.79</ele>
        <time>2018-07-12T06:03:46Z</time>
      </trkpt>
      <trkpt lat="46.150339934974909" lon="10.440233135595918">
        <ele>2457.27</ele>
        <time>2018-07-12T06:04:10Z</time>
      </trkpt>
      <trkpt lat="46.150315795093775" lon="10.44024939648807">
        <ele>2456.79</ele>
        <time>2018-07-12T06:04:44Z</time>
      </trkpt>
      <trkpt lat="46.15036541596055" lon="10.440229363739491">
        <ele>2456.79</ele>
        <time>2018-07-12T06:05:06Z</time>
      </trkpt>
      <trkpt lat="46.150361057370901" lon="10.440224166959524">
        <ele>2457.75</ele>
        <time>2018-07-12T06:05:18Z</time>
      </trkpt>
      <trkpt lat="46.150369103997946" lon="10.440229615196586">
        <ele>2457.27</ele>
        <time>2018-07-12T06:05:24Z</time>
      </trkpt>
      <trkpt lat="46.15038150921464" lon="10.440177815034986">
        <ele>2457.27</ele>
        <time>2018-07-12T06:05:34Z</time>
      </trkpt>
      <trkpt lat="46.150367176160216" lon="10.44019072316587">
        <ele>2457.75</ele>
        <time>2018-07-12T06:05:45Z</time>
      </trkpt>
      <trkpt lat="46.150378827005625" lon="10.440204804763198">
        <ele>2457.75</ele>
        <time>2018-07-12T06:05:58Z</time>
      </trkpt>
      <trkpt lat="46.150369606912136" lon="10.44016188941896">
        <ele>2457.27</ele>
        <time>2018-07-12T06:06:14Z</time>
      </trkpt>
      <trkpt lat="46.150426771491766" lon="10.440158704295754">
        <ele>2457.27</ele>
        <time>2018-07-12T06:06:20Z</time>
      </trkpt>
      <trkpt lat="46.150435907766223" lon="10.440140767022967">
        <ele>2457.27</ele>
        <time>2018-07-12T06:06:22Z</time>
      </trkpt>
      <trkpt lat="46.150508159771562" lon="10.44008762575686">
        <ele>2456.79</ele>
        <time>2018-07-12T06:06:32Z</time>
      </trkpt>
      <trkpt lat="46.15052324719727" lon="10.440124673768878">
        <ele>2456.79</ele>
        <time>2018-07-12T06:06:41Z</time>
      </trkpt>
      <trkpt lat="46.150509668514132" lon="10.440127020701766">
        <ele>2456.79</ele>
        <time>2018-07-12T06:06:54Z</time>
      </trkpt>
      <trkpt lat="46.150532383471727" lon="10.440121404826641">
        <ele>2456.79</ele>
        <time>2018-07-12T06:07:03Z</time>
      </trkpt>
      <trkpt lat="46.150557361543179" lon="10.440077148377895">
        <ele>2456.3099999999999</ele>
        <time>2018-07-12T06:07:14Z</time>
      </trkpt>
      <trkpt lat="46.150597175583243" lon="10.440104976296425">
        <ele>2454.8600000000001</ele>
        <time>2018-07-12T06:07:25Z</time>
      </trkpt>
      <trkpt lat="46.150619387626648" lon="10.440155100077391">
        <ele>2453.9000000000001</ele>
        <time>2018-07-12T06:07:32Z</time>
      </trkpt>
      <trkpt lat="46.150674456730485" lon="10.440267417579889">
        <ele>2452.9400000000001</ele>
        <time>2018-07-12T06:07:43Z</time>
      </trkpt>
      <trkpt lat="46.150713600218296" lon="10.440359367057681">
        <ele>2452.46</ele>
        <time>2018-07-12T06:07:54Z</time>
      </trkpt>
      <trkpt lat="46.150771016255021" lon="10.440447041764855">
        <ele>2453.4200000000001</ele>
        <time>2018-07-12T06:08:07Z</time>
      </trkpt>
      <trkpt lat="46.150757186114788" lon="10.440477635711432">
        <ele>2454.3800000000001</ele>
        <time>2018-07-12T06:08:15Z</time>
      </trkpt>
      <trkpt lat="46.150727933272719" lon="10.440491968765855">
        <ele>2453.9000000000001</ele>
        <time>2018-07-12T06:08:34Z</time>
      </trkpt>
      <trkpt lat="46.150789121165872" lon="10.440474115312099">
        <ele>2452.46</ele>
        <time>2018-07-12T06:08:44Z</time>
      </trkpt>
      <trkpt lat="46.150833293795586" lon="10.440553575754166">
        <ele>2451.5</ele>
        <time>2018-07-12T06:08:51Z</time>
      </trkpt>
      <trkpt lat="46.150868162512779" lon="10.440660445019603">
        <ele>2451.98</ele>
        <time>2018-07-12T06:09:01Z</time>
      </trkpt>
      <trkpt lat="46.150890542194247" lon="10.440714759752154">
        <ele>2451.02</ele>
        <time>2018-07-12T06:09:13Z</time>
      </trkpt>
      <trkpt lat="46.150911245495081" lon="10.440816516056657">
        <ele>2451.5</ele>
        <time>2018-07-12T06:09:23Z</time>
      </trkpt>
      <trkpt lat="46.150936223566532" lon="10.440872255712748">
        <ele>2451.5</ele>
        <time>2018-07-12T06:09:32Z</time>
      </trkpt>
      <trkpt lat="46.150952065363526" lon="10.44099991209805">
        <ele>2451.02</ele>
        <time>2018-07-12T06:09:43Z</time>
      </trkpt>
      <trkpt lat="46.150964805856347" lon="10.441075265407562">
        <ele>2451.02</ele>
        <time>2018-07-12T06:09:52Z</time>
      </trkpt>
      <trkpt lat="46.150975031778216" lon="10.441154642030597">
        <ele>2450.54</ele>
        <time>2018-07-12T06:09:59Z</time>
      </trkpt>
      <trkpt lat="46.150976959615946" lon="10.441222283989191">
        <ele>2451.02</ele>
        <time>2018-07-12T06:10:04Z</time>
      </trkpt>
      <trkpt lat="46.150981318205595" lon="10.441351281479001">
        <ele>2450.54</ele>
        <time>2018-07-12T06:10:15Z</time>
      </trkpt>
      <trkpt lat="46.150978049263358" lon="10.441448427736759">
        <ele>2450.54</ele>
        <time>2018-07-12T06:10:24Z</time>
      </trkpt>
      <trkpt lat="46.150988610461354" lon="10.441521853208542">
        <ele>2450.54</ele>
        <time>2018-07-12T06:10:34Z</time>
      </trkpt>
      <trkpt lat="46.150982575491071" lon="10.441573653370142">
        <ele>2450.54</ele>
        <time>2018-07-12T06:10:40Z</time>
      </trkpt>
      <trkpt lat="46.151014929637313" lon="10.441669709980488">
        <ele>2450.54</ele>
        <time>2018-07-12T06:10:50Z</time>
      </trkpt>
      <trkpt lat="46.151001350954175" lon="10.44183743186295">
        <ele>2450.54</ele>
        <time>2018-07-12T06:11:02Z</time>
      </trkpt>
      <trkpt lat="46.151027167215943" lon="10.441946815699339">
        <ele>2451.02</ele>
        <time>2018-07-12T06:11:12Z</time>
      </trkpt>
      <trkpt lat="46.151042254641652" lon="10.441971207037568">
        <ele>2451.02</ele>
        <time>2018-07-12T06:11:19Z</time>
      </trkpt>
      <trkpt lat="46.151081984862685" lon="10.442008003592491">
        <ele>2451.02</ele>
        <time>2018-07-12T06:11:29Z</time>
      </trkpt>
      <trkpt lat="46.151090869680047" lon="10.442056870087981">
        <ele>2451.02</ele>
        <time>2018-07-12T06:11:37Z</time>
      </trkpt>
      <trkpt lat="46.151116099208593" lon="10.442134654149413">
        <ele>2451.98</ele>
        <time>2018-07-12T06:11:47Z</time>
      </trkpt>
      <trkpt lat="46.15114962682128" lon="10.442186370491982">
        <ele>2453.4200000000001</ele>
        <time>2018-07-12T06:11:58Z</time>
      </trkpt>
      <trkpt lat="46.151149794459343" lon="10.442273374646902">
        <ele>2454.3800000000001</ele>
        <time>2018-07-12T06:12:08Z</time>
      </trkpt>
      <trkpt lat="46.151126576587558" lon="10.442346381023526">
        <ele>2455.8200000000002</ele>
        <time>2018-07-12T06:12:19Z</time>
      </trkpt>
      <trkpt lat="46.151114255189896" lon="10.442434810101986">
        <ele>2457.75</ele>
        <time>2018-07-12T06:12:30Z</time>
      </trkpt>
      <trkpt lat="46.151117188856006" lon="10.44244235381484">
        <ele>2457.75</ele>
        <time>2018-07-12T06:12:31Z</time>
      </trkpt>
      <trkpt lat="46.151163876056671" lon="10.442481078207493">
        <ele>2457.75</ele>
        <time>2018-07-12T06:12:40Z</time>
      </trkpt>
      <trkpt lat="46.15117946639657" lon="10.442560287192464">
        <ele>2458.23</ele>
        <time>2018-07-12T06:12:49Z</time>
      </trkpt>
      <trkpt lat="46.151178209111094" lon="10.442637987434864">
        <ele>2459.1900000000001</ele>
        <time>2018-07-12T06:12:57Z</time>
      </trkpt>
      <trkpt lat="46.151189189404249" lon="10.442695487290621">
        <ele>2460.6300000000001</ele>
        <time>2018-07-12T06:13:07Z</time>
      </trkpt>
      <trkpt lat="46.151151387020946" lon="10.442756256088614">
        <ele>2460.1500000000001</ele>
        <time>2018-07-12T06:13:16Z</time>
      </trkpt>
      <trkpt lat="46.151169575750828" lon="10.442830268293619">
        <ele>2460.1500000000001</ele>
        <time>2018-07-12T06:13:27Z</time>
      </trkpt>
      <trkpt lat="46.151220705360174" lon="10.442856922745705">
        <ele>2460.1500000000001</ele>
        <time>2018-07-12T06:13:37Z</time>
      </trkpt>
      <trkpt lat="46.151252472773194" lon="10.442922385409474">
        <ele>2460.6300000000001</ele>
        <time>2018-07-12T06:13:48Z</time>
      </trkpt>
      <trkpt lat="46.151263453066349" lon="10.442984327673912">
        <ele>2461.5900000000001</ele>
        <time>2018-07-12T06:13:58Z</time>
      </trkpt>
      <trkpt lat="46.15119656547904" lon="10.44302036985755">
        <ele>2462.5500000000002</ele>
        <time>2018-07-12T06:14:07Z</time>
      </trkpt>
      <trkpt lat="46.15117066539824" lon="10.443064626306295">
        <ele>2463.52</ele>
        <time>2018-07-12T06:14:16Z</time>
      </trkpt>
      <trkpt lat="46.15117552690208" lon="10.443120701238513">
        <ele>2464.48</ele>
        <time>2018-07-12T06:14:28Z</time>
      </trkpt>
      <trkpt lat="46.151155158877373" lon="10.443140314891934">
        <ele>2464.48</ele>
        <time>2018-07-12T06:14:36Z</time>
      </trkpt>
      <trkpt lat="46.151146190240979" lon="10.443185241892934">
        <ele>2465.4400000000001</ele>
        <time>2018-07-12T06:14:48Z</time>
      </trkpt>
      <trkpt lat="46.15115649998188" lon="10.443234359845519">
        <ele>2466.8800000000001</ele>
        <time>2018-07-12T06:14:59Z</time>
      </trkpt>
      <trkpt lat="46.151144932955503" lon="10.443284315988421">
        <ele>2467.8400000000001</ele>
        <time>2018-07-12T06:15:11Z</time>
      </trkpt>
      <trkpt lat="46.151151387020946" lon="10.443320861086249">
        <ele>2469.2800000000002</ele>
        <time>2018-07-12T06:15:22Z</time>
      </trkpt>
      <trkpt lat="46.151138227432966" lon="10.443336870521307">
        <ele>2470.2399999999998</ele>
        <time>2018-07-12T06:15:31Z</time>
      </trkpt>
      <trkpt lat="46.151127079501748" lon="10.443369895219803">
        <ele>2472.6500000000001</ele>
        <time>2018-07-12T06:15:42Z</time>
      </trkpt>
      <trkpt lat="46.151120709255338" lon="10.443401662632823">
        <ele>2473.6100000000001</ele>
        <time>2018-07-12T06:15:51Z</time>
      </trkpt>
      <trkpt lat="46.151110734790564" lon="10.443435106426477">
        <ele>2474.0900000000001</ele>
        <time>2018-07-12T06:16:01Z</time>
      </trkpt>
      <trkpt lat="46.151127833873034" lon="10.443493779748678">
        <ele>2476.0100000000002</ele>
        <time>2018-07-12T06:16:12Z</time>
      </trkpt>
      <trkpt lat="46.151109980419278" lon="10.443557649850845">
        <ele>2477.9400000000001</ele>
        <time>2018-07-12T06:16:23Z</time>
      </trkpt>
      <trkpt lat="46.151074524968863" lon="10.443633422255516">
        <ele>2478.9000000000001</ele>
        <time>2018-07-12T06:16:37Z</time>
      </trkpt>
      <trkpt lat="46.151045355945826" lon="10.443677175790071">
        <ele>2480.3400000000001</ele>
        <time>2018-07-12T06:16:47Z</time>
      </trkpt>
      <trkpt lat="46.151050049811602" lon="10.443704081699252">
        <ele>2480.8200000000002</ele>
        <time>2018-07-12T06:17:00Z</time>
      </trkpt>
      <trkpt lat="46.151054995134473" lon="10.443761078640819">
        <ele>2481.3000000000002</ele>
        <time>2018-07-12T06:17:11Z</time>
      </trkpt>
      <trkpt lat="46.15106119774282" lon="10.44381832703948">
        <ele>2482.2600000000002</ele>
        <time>2018-07-12T06:17:21Z</time>
      </trkpt>
      <trkpt lat="46.151044266298413" lon="10.443915640935302">
        <ele>2483.6999999999998</ele>
        <time>2018-07-12T06:17:33Z</time>
      </trkpt>
      <trkpt lat="46.151045607402921" lon="10.443974481895566">
        <ele>2485.1500000000001</ele>
        <time>2018-07-12T06:17:42Z</time>
      </trkpt>
      <trkpt lat="46.151022389531136" lon="10.444025862962008">
        <ele>2485.6300000000001</ele>
        <time>2018-07-12T06:17:50Z</time>
      </trkpt>
      <trkpt lat="46.151037560775876" lon="10.444100713357329">
        <ele>2486.1100000000001</ele>
        <time>2018-07-12T06:18:00Z</time>
      </trkpt>
      <trkpt lat="46.150999758392572" lon="10.444196769967675">
        <ele>2488.0300000000002</ele>
        <time>2018-07-12T06:18:14Z</time>
      </trkpt>
      <trkpt lat="46.150999926030636" lon="10.444227866828442">
        <ele>2488.0300000000002</ele>
        <time>2018-07-12T06:18:22Z</time>
      </trkpt>
      <trkpt lat="46.15099280141294" lon="10.444259801879525">
        <ele>2488.9899999999998</ele>
        <time>2018-07-12T06:18:32Z</time>
      </trkpt>
      <trkpt lat="46.150983665138483" lon="10.44432258233428">
        <ele>2489.4699999999998</ele>
        <time>2018-07-12T06:18:45Z</time>
      </trkpt>
      <trkpt lat="46.150981318205595" lon="10.444394079968333">
        <ele>2489.9499999999998</ele>
        <time>2018-07-12T06:18:55Z</time>
      </trkpt>
      <trkpt lat="46.151012750342488" lon="10.444406820461154">
        <ele>2490.4299999999998</ele>
        <time>2018-07-12T06:19:05Z</time>
      </trkpt>
      <trkpt lat="46.151029346510768" lon="10.444435318931937">
        <ele>2490.9099999999999</ele>
        <time>2018-07-12T06:19:15Z</time>
      </trkpt>
      <trkpt lat="46.151030687615275" lon="10.444453842937946">
        <ele>2490.9099999999999</ele>
        <time>2018-07-12T06:19:19Z</time>
      </trkpt>
      <trkpt lat="46.15108223631978" lon="10.444460632279515">
        <ele>2490.9099999999999</ele>
        <time>2018-07-12T06:19:28Z</time>
      </trkpt>
      <trkpt lat="46.151128252968192" lon="10.444516455754638">
        <ele>2491.8699999999999</ele>
        <time>2018-07-12T06:19:37Z</time>
      </trkpt>
      <trkpt lat="46.151124062016606" lon="10.444561298936605">
        <ele>2492.8400000000001</ele>
        <time>2018-07-12T06:19:46Z</time>
      </trkpt>
      <trkpt lat="46.151131354272366" lon="10.444599771872163">
        <ele>2493.3200000000002</ele>
        <time>2018-07-12T06:19:56Z</time>
      </trkpt>
      <trkpt lat="46.151129258796573" lon="10.444629108533263">
        <ele>2493.3200000000002</ele>
        <time>2018-07-12T06:20:05Z</time>
      </trkpt>
      <trkpt lat="46.15112230181694" lon="10.444653332233429">
        <ele>2494.7600000000002</ele>
        <time>2018-07-12T06:20:16Z</time>
      </trkpt>
      <trkpt lat="46.151181310415268" lon="10.44463874772191">
        <ele>2495.2399999999998</ele>
        <time>2018-07-12T06:20:30Z</time>
      </trkpt>
      <trkpt lat="46.151235708966851" lon="10.444640591740608">
        <ele>2495.7199999999998</ele>
        <time>2018-07-12T06:20:38Z</time>
      </trkpt>
      <trkpt lat="46.151285665109754" lon="10.444627096876502">
        <ele>2495.7199999999998</ele>
        <time>2018-07-12T06:20:50Z</time>
      </trkpt>
      <trkpt lat="46.151310475543141" lon="10.444641681388021">
        <ele>2496.6799999999998</ele>
        <time>2018-07-12T06:20:54Z</time>
      </trkpt>
      <trkpt lat="46.151384487748146" lon="10.444698594510555">
        <ele>2497.1599999999999</ele>
        <time>2018-07-12T06:21:05Z</time>
      </trkpt>
      <trkpt lat="46.151352217420936" lon="10.44475014321506">
        <ele>2497.6399999999999</ele>
        <time>2018-07-12T06:21:19Z</time>
      </trkpt>
      <trkpt lat="46.151362778618932" lon="10.444745700806379">
        <ele>2495.2399999999998</ele>
        <time>2018-07-12T06:21:22Z</time>
      </trkpt>
      <trkpt lat="46.151371411979198" lon="10.444748885929585">
        <ele>2498.5999999999999</ele>
        <time>2018-07-12T06:21:25Z</time>
      </trkpt>
      <trkpt lat="46.151375016197562" lon="10.444759782403708">
        <ele>2497.6399999999999</ele>
        <time>2018-07-12T06:21:42Z</time>
      </trkpt>
      <trkpt lat="46.151370238512754" lon="10.444823568686843">
        <ele>2497.6399999999999</ele>
        <time>2018-07-12T06:21:55Z</time>
      </trkpt>
      <trkpt lat="46.15138809196651" lon="10.444892970845103">
        <ele>2499.5700000000002</ele>
        <time>2018-07-12T06:22:05Z</time>
      </trkpt>
      <trkpt lat="46.15138758905232" lon="10.444920798763633">
        <ele>2500.0500000000002</ele>
        <time>2018-07-12T06:22:09Z</time>
      </trkpt>
      <trkpt lat="46.151377614587545" lon="10.44501350261271">
        <ele>2501.0100000000002</ele>
        <time>2018-07-12T06:22:19Z</time>
      </trkpt>
      <trkpt lat="46.15135096013546" lon="10.445078546181321">
        <ele>2501.4899999999998</ele>
        <time>2018-07-12T06:22:28Z</time>
      </trkpt>
      <trkpt lat="46.15134802646935" lon="10.44514887034893">
        <ele>2502.9299999999998</ele>
        <time>2018-07-12T06:22:39Z</time>
      </trkpt>
      <trkpt lat="46.151349786669016" lon="10.445185415446758">
        <ele>2503.8899999999999</ele>
        <time>2018-07-12T06:22:47Z</time>
      </trkpt>
      <trkpt lat="46.151353642344475" lon="10.445247022435069">
        <ele>2504.3699999999999</ele>
        <time>2018-07-12T06:22:57Z</time>
      </trkpt>
      <trkpt lat="46.151373758912086" lon="10.445311479270458">
        <ele>2505.3299999999999</ele>
        <time>2018-07-12T06:23:06Z</time>
      </trkpt>
      <trkpt lat="46.151365041732788" lon="10.44538339599967">
        <ele>2505.8099999999999</ele>
        <time>2018-07-12T06:23:18Z</time>
      </trkpt>
      <trkpt lat="46.152072977274656" lon="10.454583456739783">
        <ele>2638.48</ele>
        <time>2018-07-12T06:57:52Z</time>
      </trkpt>
      <trkpt lat="46.152076162397861" lon="10.454614050686359">
        <ele>2638.48</ele>
        <time>2018-07-12T06:58:05Z</time>
      </trkpt>
      <trkpt lat="46.152075324207544" lon="10.45460432767868">
        <ele>2637.9899999999998</ele>
        <time>2018-07-12T06:58:16Z</time>
      </trkpt>
      <trkpt lat="46.152044227346778" lon="10.454566860571504">
        <ele>2637.5100000000002</ele>
        <time>2018-07-12T06:58:31Z</time>
      </trkpt>
      <trkpt lat="46.152043892070651" lon="10.454528471454978">
        <ele>2637.5100000000002</ele>
        <time>2018-07-12T06:58:48Z</time>
      </trkpt>
      <trkpt lat="46.152050513774157" lon="10.454523442313075">
        <ele>2637.9899999999998</ele>
        <time>2018-07-12T06:59:03Z</time>
      </trkpt>
      <trkpt lat="46.152067445218563" lon="10.454528722912073">
        <ele>2638.48</ele>
        <time>2018-07-12T06:59:12Z</time>
      </trkpt>
      <trkpt lat="46.152055878192186" lon="10.454554874449968">
        <ele>2638.48</ele>
        <time>2018-07-12T06:59:27Z</time>
      </trkpt>
      <trkpt lat="46.152060991153121" lon="10.454534590244293">
        <ele>2638.48</ele>
        <time>2018-07-12T06:59:38Z</time>
      </trkpt>
      <trkpt lat="46.154321171343327" lon="10.456731738522649">
        <ele>2709.1300000000001</ele>
        <time>2018-07-12T07:15:46Z</time>
      </trkpt>
      <trkpt lat="46.15439317189157" lon="10.456678681075573">
        <ele>2707.21</ele>
        <time>2018-07-12T07:16:08Z</time>
      </trkpt>
      <trkpt lat="46.154372887685895" lon="10.456676501780748">
        <ele>2706.73</ele>
        <time>2018-07-12T07:16:18Z</time>
      </trkpt>
      <trkpt lat="46.154375402256846" lon="10.456662252545357">
        <ele>2707.6900000000001</ele>
        <time>2018-07-12T07:16:26Z</time>
      </trkpt>
      <trkpt lat="46.154343551024795" lon="10.456645656377077">
        <ele>2707.21</ele>
        <time>2018-07-12T07:16:42Z</time>
      </trkpt>
      <trkpt lat="46.154350927099586" lon="10.456585893407464">
        <ele>2708.1700000000001</ele>
        <time>2018-07-12T07:16:59Z</time>
      </trkpt>
      <trkpt lat="46.154407421126962" lon="10.456615732982755">
        <ele>2709.6100000000001</ele>
        <time>2018-07-12T07:17:08Z</time>
      </trkpt>
      <trkpt lat="46.154454778879881" lon="10.456580109894276">
        <ele>2711.0599999999999</ele>
        <time>2018-07-12T07:17:18Z</time>
      </trkpt>
      <trkpt lat="46.154475649818778" lon="10.456560244783759">
        <ele>2712.02</ele>
        <time>2018-07-12T07:17:26Z</time>
      </trkpt>
      <trkpt lat="46.154514206573367" lon="10.45656418427825">
        <ele>2713.46</ele>
        <time>2018-07-12T07:17:37Z</time>
      </trkpt>
      <trkpt lat="46.1545505002141" lon="10.456560244783759">
        <ele>2714.4200000000001</ele>
        <time>2018-07-12T07:17:47Z</time>
      </trkpt>
      <trkpt lat="46.154594672843814" lon="10.456566866487265">
        <ele>2715.3800000000001</ele>
        <time>2018-07-12T07:17:56Z</time>
      </trkpt>
      <trkpt lat="46.154643204063177" lon="10.456568291410804">
        <ele>2715.8600000000001</ele>
        <time>2018-07-12T07:18:05Z</time>
      </trkpt>
      <trkpt lat="46.154681844636798" lon="10.456582540646195">
        <ele>2714.9000000000001</ele>
        <time>2018-07-12T07:18:15Z</time>
      </trkpt>
      <trkpt lat="46.154730292037129" lon="10.456574410200119">
        <ele>2714.9000000000001</ele>
        <time>2018-07-12T07:18:23Z</time>
      </trkpt>
      <trkpt lat="46.154742697253823" lon="10.456566531211138">
        <ele>2714.9000000000001</ele>
        <time>2018-07-12T07:18:25Z</time>
      </trkpt>
      <trkpt lat="46.15476256236434" lon="10.456508360803127">
        <ele>2714.9000000000001</ele>
        <time>2018-07-12T07:18:35Z</time>
      </trkpt>
      <trkpt lat="46.154790222644806" lon="10.456506432965398">
        <ele>2714.9000000000001</ele>
        <time>2018-07-12T07:18:45Z</time>
      </trkpt>
      <trkpt lat="46.154819475486875" lon="10.456517161801457">
        <ele>2714.9000000000001</ele>
        <time>2018-07-12T07:18:52Z</time>
      </trkpt>
      <trkpt lat="46.154807657003403" lon="10.456562675535679">
        <ele>2714.9000000000001</ele>
        <time>2018-07-12T07:19:01Z</time>
      </trkpt>
      <trkpt lat="46.154853422194719" lon="10.45661942102015">
        <ele>2714.4200000000001</ele>
        <time>2018-07-12T07:19:10Z</time>
      </trkpt>
      <trkpt lat="46.154856523498893" lon="10.456601232290268">
        <ele>2714.4200000000001</ele>
        <time>2018-07-12T07:19:18Z</time>
      </trkpt>
      <trkpt lat="46.15487789735198" lon="10.456586228683591">
        <ele>2714.4200000000001</ele>
        <time>2018-07-12T07:19:24Z</time>
      </trkpt>
      <trkpt lat="46.154939420521259" lon="10.456566866487265">
        <ele>2714.4200000000001</ele>
        <time>2018-07-12T07:19:34Z</time>
      </trkpt>
      <trkpt lat="46.154976133257151" lon="10.456489669159055">
        <ele>2714.9000000000001</ele>
        <time>2018-07-12T07:19:44Z</time>
      </trkpt>
      <trkpt lat="46.15501175634563" lon="10.45646938495338">
        <ele>2715.8600000000001</ele>
        <time>2018-07-12T07:19:53Z</time>
      </trkpt>
      <trkpt lat="46.155071770772338" lon="10.456434097141027">
        <ele>2717.3000000000002</ele>
        <time>2018-07-12T07:20:03Z</time>
      </trkpt>
      <trkpt lat="46.155091803520918" lon="10.456415070220828">
        <ele>2716.8200000000002</ele>
        <time>2018-07-12T07:20:11Z</time>
      </trkpt>
      <trkpt lat="46.15512072108686" lon="10.456437282264233">
        <ele>2716.8200000000002</ele>
        <time>2018-07-12T07:20:24Z</time>
      </trkpt>
      <trkpt lat="46.155161121860147" lon="10.456440467387438">
        <ele>2717.7800000000002</ele>
        <time>2018-07-12T07:20:34Z</time>
      </trkpt>
      <trkpt lat="46.155209904536605" lon="10.456446837633848">
        <ele>2718.27</ele>
        <time>2018-07-12T07:20:42Z</time>
      </trkpt>
      <trkpt lat="46.155247539281845" lon="10.456477012485266">
        <ele>2718.75</ele>
        <time>2018-07-12T07:20:51Z</time>
      </trkpt>
      <trkpt lat="46.155262542888522" lon="10.456473408266902">
        <ele>2719.71</ele>
        <time>2018-07-12T07:20:59Z</time>
      </trkpt>
      <trkpt lat="46.155295819044113" lon="10.456519676372409">
        <ele>2720.1900000000001</ele>
        <time>2018-07-12T07:21:09Z</time>
      </trkpt>
      <trkpt lat="46.155323479324579" lon="10.456580612808466">
        <ele>2720.1900000000001</ele>
        <time>2018-07-12T07:21:20Z</time>
      </trkpt>
      <trkpt lat="46.155329179018736" lon="10.45657642185688">
        <ele>2720.6700000000001</ele>
        <time>2018-07-12T07:21:34Z</time>
      </trkpt>
      <trkpt lat="46.155375111848116" lon="10.456607770174742">
        <ele>2720.6700000000001</ele>
        <time>2018-07-12T07:21:43Z</time>
      </trkpt>
      <trkpt lat="46.155422972515225" lon="10.456642555072904">
        <ele>2718.75</ele>
        <time>2018-07-12T07:21:53Z</time>
      </trkpt>
      <trkpt lat="46.155454404652119" lon="10.456628976389766">
        <ele>2719.71</ele>
        <time>2018-07-12T07:22:04Z</time>
      </trkpt>
      <trkpt lat="46.15546865388751" lon="10.456658648326993">
        <ele>2719.23</ele>
        <time>2018-07-12T07:22:13Z</time>
      </trkpt>
      <trkpt lat="46.155460523441434" lon="10.456680776551366">
        <ele>2718.75</ele>
        <time>2018-07-12T07:22:21Z</time>
      </trkpt>
      <trkpt lat="46.155492374673486" lon="10.456640208140016">
        <ele>2719.71</ele>
        <time>2018-07-12T07:22:39Z</time>
      </trkpt>
      <trkpt lat="46.155497068539262" lon="10.456626880913973">
        <ele>2719.71</ele>
        <time>2018-07-12T07:22:57Z</time>
      </trkpt>
      <trkpt lat="46.155489357188344" lon="10.456633921712637">
        <ele>2719.71</ele>
        <time>2018-07-12T07:23:06Z</time>
      </trkpt>
      <trkpt lat="46.155506204813719" lon="10.456630820408463">
        <ele>2719.71</ele>
        <time>2018-07-12T07:23:20Z</time>
      </trkpt>
      <trkpt lat="46.155492123216391" lon="10.456661498174071">
        <ele>2719.71</ele>
        <time>2018-07-12T07:23:32Z</time>
      </trkpt>
      <trkpt lat="46.155495559796691" lon="10.456660995259881">
        <ele>2719.71</ele>
        <time>2018-07-12T07:23:46Z</time>
      </trkpt>
      <trkpt lat="46.15550042130053" lon="10.456643644720316">
        <ele>2719.71</ele>
        <time>2018-07-12T07:24:00Z</time>
      </trkpt>
      <trkpt lat="46.155467815697193" lon="10.456586144864559">
        <ele>2720.1900000000001</ele>
        <time>2018-07-12T07:24:10Z</time>
      </trkpt>
      <trkpt lat="46.155478795990348" lon="10.456578768789768">
        <ele>2721.1500000000001</ele>
        <time>2018-07-12T07:24:19Z</time>
      </trkpt>
      <trkpt lat="46.155482232570648" lon="10.45659301802516">
        <ele>2721.6300000000001</ele>
        <time>2018-07-12T07:24:30Z</time>
      </trkpt>
      <trkpt lat="46.155501259490848" lon="10.456589916720986">
        <ele>2721.6300000000001</ele>
        <time>2018-07-12T07:24:44Z</time>
      </trkpt>
      <trkpt lat="46.155538223683834" lon="10.456590251997113">
        <ele>2721.6300000000001</ele>
        <time>2018-07-12T07:25:00Z</time>
      </trkpt>
      <trkpt lat="46.155527578666806" lon="10.456621684134007">
        <ele>2721.6300000000001</ele>
        <time>2018-07-12T07:25:19Z</time>
      </trkpt>
      <trkpt lat="46.155523052439094" lon="10.456657893955708">
        <ele>2720.6700000000001</ele>
        <time>2018-07-12T07:25:26Z</time>
      </trkpt>
      <trkpt lat="46.155524309724569" lon="10.456662839278579">
        <ele>2720.1900000000001</ele>
        <time>2018-07-12T07:25:37Z</time>
      </trkpt>
      <trkpt lat="46.155531350523233" lon="10.456677339971066">
        <ele>2720.6700000000001</ele>
        <time>2018-07-12T07:25:50Z</time>
      </trkpt>
      <trkpt lat="46.155538139864802" lon="10.456668706610799">
        <ele>2720.6700000000001</ele>
        <time>2018-07-12T07:26:08Z</time>
      </trkpt>
      <trkpt lat="46.155495895072818" lon="10.45667071826756">
        <ele>2720.6700000000001</ele>
        <time>2018-07-12T07:26:30Z</time>
      </trkpt>
      <trkpt lat="46.155495140701532" lon="10.456682369112968">
        <ele>2720.6700000000001</ele>
        <time>2018-07-12T07:26:49Z</time>
      </trkpt>
      <trkpt lat="46.155512658879161" lon="10.45668832026422">
        <ele>2720.6700000000001</ele>
        <time>2018-07-12T07:27:14Z</time>
      </trkpt>
      <trkpt lat="46.155517520383" lon="10.456658229231834">
        <ele>2721.1500000000001</ele>
        <time>2018-07-12T07:27:30Z</time>
      </trkpt>
      <trkpt lat="46.155510982498527" lon="10.456671640276909">
        <ele>2720.6700000000001</ele>
        <time>2018-07-12T07:27:40Z</time>
      </trkpt>
      <trkpt lat="46.155522717162967" lon="10.456687146797776">
        <ele>2720.6700000000001</ele>
        <time>2018-07-12T07:27:59Z</time>
      </trkpt>
      <trkpt lat="46.155540738254786" lon="10.456706928089261">
        <ele>2720.6700000000001</ele>
        <time>2018-07-12T07:28:11Z</time>
      </trkpt>
      <trkpt lat="46.155528500676155" lon="10.456717740744352">
        <ele>2720.1900000000001</ele>
        <time>2018-07-12T07:28:22Z</time>
      </trkpt>
      <trkpt lat="46.155506288632751" lon="10.456755207851529">
        <ele>2720.1900000000001</ele>
        <time>2018-07-12T07:28:32Z</time>
      </trkpt>
      <trkpt lat="46.155506456270814" lon="10.45676744543016">
        <ele>2720.6700000000001</ele>
        <time>2018-07-12T07:28:47Z</time>
      </trkpt>
      <trkpt lat="46.155518861487508" lon="10.456778341904283">
        <ele>2720.1900000000001</ele>
        <time>2018-07-12T07:28:59Z</time>
      </trkpt>
      <trkpt lat="46.155524645000696" lon="10.456797452643514">
        <ele>2720.1900000000001</ele>
        <time>2018-07-12T07:29:06Z</time>
      </trkpt>
      <trkpt lat="46.155547443777323" lon="10.456854784861207">
        <ele>2719.71</ele>
        <time>2018-07-12T07:29:15Z</time>
      </trkpt>
      <trkpt lat="46.155529506504536" lon="10.456893425434828">
        <ele>2719.71</ele>
        <time>2018-07-12T07:29:20Z</time>
      </trkpt>
      <trkpt lat="46.155533781275153" lon="10.456961737945676">
        <ele>2719.23</ele>
        <time>2018-07-12T07:29:28Z</time>
      </trkpt>
      <trkpt lat="46.155557250604033" lon="10.457021333277225">
        <ele>2720.1900000000001</ele>
        <time>2018-07-12T07:29:37Z</time>
      </trkpt>
      <trkpt lat="46.155557837337255" lon="10.457043629139662">
        <ele>2720.1900000000001</ele>
        <time>2018-07-12T07:29:40Z</time>
      </trkpt>
      <trkpt lat="46.155580300837755" lon="10.457097692415118">
        <ele>2721.6300000000001</ele>
        <time>2018-07-12T07:29:49Z</time>
      </trkpt>
      <trkpt lat="46.155608799308538" lon="10.457101631909609">
        <ele>2720.6700000000001</ele>
        <time>2018-07-12T07:29:58Z</time>
      </trkpt>
      <trkpt lat="46.155629586428404" lon="10.457097105681896">
        <ele>2720.6700000000001</ele>
        <time>2018-07-12T07:30:09Z</time>
      </trkpt>
      <trkpt lat="46.155671998858452" lon="10.457103308290243">
        <ele>2720.1900000000001</ele>
        <time>2018-07-12T07:30:17Z</time>
      </trkpt>
      <trkpt lat="46.155675100162625" lon="10.4570899810642">
        <ele>2720.1900000000001</ele>
        <time>2018-07-12T07:30:21Z</time>
      </trkpt>
      <trkpt lat="46.155717428773642" lon="10.457050083205104">
        <ele>2719.71</ele>
        <time>2018-07-12T07:30:29Z</time>
      </trkpt>
      <trkpt lat="46.155727235600352" lon="10.457042539492249">
        <ele>2719.71</ele>
        <time>2018-07-12T07:30:31Z</time>
      </trkpt>
      <trkpt lat="46.155743999406695" lon="10.457052094861865">
        <ele>2719.23</ele>
        <time>2018-07-12T07:30:33Z</time>
      </trkpt>
      <trkpt lat="46.155753890052438" lon="10.457079000771046">
        <ele>2719.71</ele>
        <time>2018-07-12T07:30:42Z</time>
      </trkpt>
      <trkpt lat="46.155744586139917" lon="10.457055950537324">
        <ele>2719.71</ele>
        <time>2018-07-12T07:30:50Z</time>
      </trkpt>
      <trkpt lat="46.155774258077145" lon="10.45707288198173">
        <ele>2719.71</ele>
        <time>2018-07-12T07:31:04Z</time>
      </trkpt>
      <trkpt lat="46.155802421271801" lon="10.457113534212112">
        <ele>2719.71</ele>
        <time>2018-07-12T07:31:13Z</time>
      </trkpt>
      <trkpt lat="46.155821951106191" lon="10.457101967185736">
        <ele>2720.6700000000001</ele>
        <time>2018-07-12T07:31:23Z</time>
      </trkpt>
      <trkpt lat="46.155826393514872" lon="10.457097524777055">
        <ele>2721.1500000000001</ele>
        <time>2018-07-12T07:31:30Z</time>
      </trkpt>
      <trkpt lat="46.15582337602973" lon="10.457101967185736">
        <ele>2721.1500000000001</ele>
        <time>2018-07-12T07:31:39Z</time>
      </trkpt>
      <trkpt lat="46.155826561152935" lon="10.457082856446505">
        <ele>2720.6700000000001</ele>
        <time>2018-07-12T07:31:41Z</time>
      </trkpt>
      <trkpt lat="46.155853215605021" lon="10.457109762355685">
        <ele>2722.1100000000001</ele>
        <time>2018-07-12T07:31:49Z</time>
      </trkpt>
      <trkpt lat="46.15584927611053" lon="10.457093920558691">
        <ele>2721.6300000000001</ele>
        <time>2018-07-12T07:31:54Z</time>
      </trkpt>
      <trkpt lat="46.15588984452188" lon="10.457093585282564">
        <ele>2721.6300000000001</ele>
        <time>2018-07-12T07:32:05Z</time>
      </trkpt>
      <trkpt lat="46.155903674662113" lon="10.457068691030145">
        <ele>2722.1100000000001</ele>
        <time>2018-07-12T07:32:12Z</time>
      </trkpt>
      <trkpt lat="46.155947931110859" lon="10.4570899810642">
        <ele>2722.5900000000001</ele>
        <time>2018-07-12T07:32:21Z</time>
      </trkpt>
      <trkpt lat="46.15594700910151" lon="10.457072965800762">
        <ele>2722.5900000000001</ele>
        <time>2018-07-12T07:32:29Z</time>
      </trkpt>
      <trkpt lat="46.155957067385316" lon="10.457066344097257">
        <ele>2722.5900000000001</ele>
        <time>2018-07-12T07:32:38Z</time>
      </trkpt>
      <trkpt lat="46.155989253893495" lon="10.457060728222132">
        <ele>2723.0700000000002</ele>
        <time>2018-07-12T07:32:45Z</time>
      </trkpt>
      <trkpt lat="46.156009957194328" lon="10.457033906131983">
        <ele>2722.5900000000001</ele>
        <time>2018-07-12T07:32:53Z</time>
      </trkpt>
      <trkpt lat="46.156013729050756" lon="10.45702937990427">
        <ele>2722.5900000000001</ele>
        <time>2018-07-12T07:33:03Z</time>
      </trkpt>
      <trkpt lat="46.156027391552925" lon="10.45704698190093">
        <ele>2723.0700000000002</ele>
        <time>2018-07-12T07:33:15Z</time>
      </trkpt>
      <trkpt lat="46.156041389331222" lon="10.457072211429477">
        <ele>2723.0700000000002</ele>
        <time>2018-07-12T07:33:25Z</time>
      </trkpt>
      <trkpt lat="46.156057147309184" lon="10.457075061276555">
        <ele>2723.0700000000002</ele>
        <time>2018-07-12T07:33:29Z</time>
      </trkpt>
      <trkpt lat="46.156082293018699" lon="10.457082437351346">
        <ele>2723.5500000000002</ele>
        <time>2018-07-12T07:33:38Z</time>
      </trkpt>
      <trkpt lat="46.156083717942238" lon="10.457034660503268">
        <ele>2722.5900000000001</ele>
        <time>2018-07-12T07:33:54Z</time>
      </trkpt>
      <trkpt lat="46.156090758740902" lon="10.457023261114955">
        <ele>2722.1100000000001</ele>
        <time>2018-07-12T07:33:56Z</time>
      </trkpt>
      <trkpt lat="46.156127555295825" lon="10.457052513957024">
        <ele>2722.5900000000001</ele>
        <time>2018-07-12T07:34:04Z</time>
      </trkpt>
      <trkpt lat="46.156130824238062" lon="10.457036923617125">
        <ele>2722.1100000000001</ele>
        <time>2018-07-12T07:34:13Z</time>
      </trkpt>
      <trkpt lat="46.156144738197327" lon="10.457038683816791">
        <ele>2721.6300000000001</ele>
        <time>2018-07-12T07:34:21Z</time>
      </trkpt>
      <trkpt lat="46.156161921098828" lon="10.456999959424138">
        <ele>2721.6300000000001</ele>
        <time>2018-07-12T07:34:29Z</time>
      </trkpt>
      <trkpt lat="46.156224114820361" lon="10.456999288871884">
        <ele>2721.6300000000001</ele>
        <time>2018-07-12T07:34:39Z</time>
      </trkpt>
      <trkpt lat="46.156246159225702" lon="10.456980848684907">
        <ele>2721.1500000000001</ele>
        <time>2018-07-12T07:34:49Z</time>
      </trkpt>
      <trkpt lat="46.15627977065742" lon="10.457044718787074">
        <ele>2722.1100000000001</ele>
        <time>2018-07-12T07:34:58Z</time>
      </trkpt>
      <trkpt lat="46.156290080398321" lon="10.457078833132982">
        <ele>2723.0700000000002</ele>
        <time>2018-07-12T07:35:07Z</time>
      </trkpt>
      <trkpt lat="46.156300054863095" lon="10.457038432359695">
        <ele>2723.0700000000002</ele>
        <time>2018-07-12T07:35:18Z</time>
      </trkpt>
      <trkpt lat="46.156323608011007" lon="10.45706944540143">
        <ele>2723.0700000000002</ele>
        <time>2018-07-12T07:35:28Z</time>
      </trkpt>
      <trkpt lat="46.156337941065431" lon="10.457079755142331">
        <ele>2723.5500000000002</ele>
        <time>2018-07-12T07:35:36Z</time>
      </trkpt>
      <trkpt lat="46.156367110088468" lon="10.457103559747338">
        <ele>2724.0300000000002</ele>
        <time>2018-07-12T07:35:43Z</time>
      </trkpt>
      <trkpt lat="46.156409019604325" lon="10.457097860053182">
        <ele>2724.5100000000002</ele>
        <time>2018-07-12T07:35:53Z</time>
      </trkpt>
      <trkpt lat="46.156403906643391" lon="10.457050669938326">
        <ele>2724.5100000000002</ele>
        <time>2018-07-12T07:36:05Z</time>
      </trkpt>
      <trkpt lat="46.156462077051401" lon="10.45705821365118">
        <ele>2724.5100000000002</ele>
        <time>2018-07-12T07:36:13Z</time>
      </trkpt>
      <trkpt lat="46.15650063380599" lon="10.457042120397091">
        <ele>2724.9899999999998</ele>
        <time>2018-07-12T07:36:22Z</time>
      </trkpt>
      <trkpt lat="46.15650842897594" lon="10.45703424140811">
        <ele>2725.96</ele>
        <time>2018-07-12T07:36:35Z</time>
      </trkpt>
      <trkpt lat="46.156533407047391" lon="10.457070870324969">
        <ele>2726.4400000000001</ele>
        <time>2018-07-12T07:36:47Z</time>
      </trkpt>
      <trkpt lat="46.156540615484118" lon="10.45705427415669">
        <ele>2726.4400000000001</ele>
        <time>2018-07-12T07:37:00Z</time>
      </trkpt>
      <trkpt lat="46.156521588563919" lon="10.457048574462533">
        <ele>2726.4400000000001</ele>
        <time>2018-07-12T07:37:10Z</time>
      </trkpt>
      <trkpt lat="46.156543046236038" lon="10.457051927223802">
        <ele>2726.4400000000001</ele>
        <time>2018-07-12T07:37:21Z</time>
      </trkpt>
      <trkpt lat="46.156555199995637" lon="10.457048658281565">
        <ele>2726.9200000000001</ele>
        <time>2018-07-12T07:37:38Z</time>
      </trkpt>
      <trkpt lat="46.156561654061079" lon="10.457000294700265">
        <ele>2727.4000000000001</ele>
        <time>2018-07-12T07:37:45Z</time>
      </trkpt>
      <trkpt lat="46.156598618254066" lon="10.456965677440166">
        <ele>2726.9200000000001</ele>
        <time>2018-07-12T07:37:56Z</time>
      </trkpt>
      <trkpt lat="46.15660322830081" lon="10.456913877278566">
        <ele>2726.9200000000001</ele>
        <time>2018-07-12T07:38:05Z</time>
      </trkpt>
      <trkpt lat="46.156627452000976" lon="10.456906417384744">
        <ele>2726.9200000000001</ele>
        <time>2018-07-12T07:38:13Z</time>
      </trkpt>
      <trkpt lat="46.156651172786951" lon="10.456930473446846">
        <ele>2727.4000000000001</ele>
        <time>2018-07-12T07:38:23Z</time>
      </trkpt>
      <trkpt lat="46.156671373173594" lon="10.456964168697596">
        <ele>2728.3600000000001</ele>
        <time>2018-07-12T07:38:33Z</time>
      </trkpt>
      <trkpt lat="46.156665338203311" lon="10.456970874220133">
        <ele>2728.8400000000001</ele>
        <time>2018-07-12T07:38:44Z</time>
      </trkpt>
      <trkpt lat="46.156685957685113" lon="10.456963665783405">
        <ele>2729.8000000000002</ele>
        <time>2018-07-12T07:38:54Z</time>
      </trkpt>
      <trkpt lat="46.156697859987617" lon="10.456979842856526">
        <ele>2730.7600000000002</ele>
        <time>2018-07-12T07:39:04Z</time>
      </trkpt>
      <trkpt lat="46.156720826402307" lon="10.456948494538665">
        <ele>2732.1999999999998</ele>
        <time>2018-07-12T07:39:14Z</time>
      </trkpt>
      <trkpt lat="46.156728705391288" lon="10.456997528672218">
        <ele>2733.1700000000001</ele>
        <time>2018-07-12T07:39:23Z</time>
      </trkpt>
      <trkpt lat="46.156745133921504" lon="10.456984033808112">
        <ele>2733.6500000000001</ele>
        <time>2018-07-12T07:39:33Z</time>
      </trkpt>
      <trkpt lat="46.156757371500134" lon="10.457000210881233">
        <ele>2735.0900000000001</ele>
        <time>2018-07-12T07:39:41Z</time>
      </trkpt>
      <trkpt lat="46.156772710382938" lon="10.456993002444506">
        <ele>2736.0500000000002</ele>
        <time>2018-07-12T07:39:50Z</time>
      </trkpt>
      <trkpt lat="46.156786791980267" lon="10.456976238638163">
        <ele>2737.4899999999998</ele>
        <time>2018-07-12T07:40:00Z</time>
      </trkpt>
      <trkpt lat="46.15680942311883" lon="10.456900550052524">
        <ele>2738.4499999999998</ele>
        <time>2018-07-12T07:40:11Z</time>
      </trkpt>
      <trkpt lat="46.156847979873419" lon="10.456884037703276">
        <ele>2738.9299999999998</ele>
        <time>2018-07-12T07:40:19Z</time>
      </trkpt>
      <trkpt lat="46.156882848590612" lon="10.456848749890924">
        <ele>2739.4099999999999</ele>
        <time>2018-07-12T07:40:30Z</time>
      </trkpt>
      <trkpt lat="46.156900366768241" lon="10.456837518140674">
        <ele>2739.8899999999999</ele>
        <time>2018-07-12T07:40:42Z</time>
      </trkpt>
      <trkpt lat="46.156932218000293" lon="10.456872554495931">
        <ele>2741.3400000000001</ele>
        <time>2018-07-12T07:40:50Z</time>
      </trkpt>
      <trkpt lat="46.156948814168572" lon="10.456868866458535">
        <ele>2742.3000000000002</ele>
        <time>2018-07-12T07:40:57Z</time>
      </trkpt>
      <trkpt lat="46.156960381194949" lon="10.456853695213795">
        <ele>2743.7399999999998</ele>
        <time>2018-07-12T07:41:07Z</time>
      </trkpt>
      <trkpt lat="46.156986281275749" lon="10.456822598353028">
        <ele>2744.2199999999998</ele>
        <time>2018-07-12T07:41:15Z</time>
      </trkpt>
      <trkpt lat="46.156992735341191" lon="10.456819329410791">
        <ele>2744.6999999999998</ele>
        <time>2018-07-12T07:41:18Z</time>
      </trkpt>
      <trkpt lat="46.157028106972575" lon="10.456750178709626">
        <ele>2744.6999999999998</ele>
        <time>2018-07-12T07:41:28Z</time>
      </trkpt>
      <trkpt lat="46.157064316794276" lon="10.456793932244182">
        <ele>2745.6599999999999</ele>
        <time>2018-07-12T07:41:38Z</time>
      </trkpt>
      <trkpt lat="46.157067166641355" lon="10.456831902265549">
        <ele>2746.1399999999999</ele>
        <time>2018-07-12T07:41:44Z</time>
      </trkpt>
      <trkpt lat="46.157051827758551" lon="10.456903651356697">
        <ele>2748.0700000000002</ele>
        <time>2018-07-12T07:41:53Z</time>
      </trkpt>
      <trkpt lat="46.157023413106799" lon="10.456947153434157">
        <ele>2748.0700000000002</ele>
        <time>2018-07-12T07:42:00Z</time>
      </trkpt>
      <trkpt lat="46.156994076445699" lon="10.45702057890594">
        <ele>2748.5500000000002</ele>
        <time>2018-07-12T07:42:11Z</time>
      </trkpt>
      <trkpt lat="46.157030537724495" lon="10.457027703523636">
        <ele>2749.9899999999998</ele>
        <time>2018-07-12T07:42:20Z</time>
      </trkpt>
      <trkpt lat="46.157048977911472" lon="10.456991996616125">
        <ele>2750.9499999999998</ele>
        <time>2018-07-12T07:42:27Z</time>
      </trkpt>
      <trkpt lat="46.157062891870737" lon="10.457048993557692">
        <ele>2752.3899999999999</ele>
        <time>2018-07-12T07:42:35Z</time>
      </trkpt>
      <trkpt lat="46.157098514959216" lon="10.457076570019126">
        <ele>2753.3499999999999</ele>
        <time>2018-07-12T07:42:45Z</time>
      </trkpt>
      <trkpt lat="46.157116452232003" lon="10.457074642181396">
        <ele>2754.8000000000002</ele>
        <time>2018-07-12T07:42:56Z</time>
      </trkpt>
      <trkpt lat="46.157149225473404" lon="10.457101967185736">
        <ele>2755.7600000000002</ele>
        <time>2018-07-12T07:43:07Z</time>
      </trkpt>
      <trkpt lat="46.157175879925489" lon="10.457134991884232">
        <ele>2757.1999999999998</ele>
        <time>2018-07-12T07:43:15Z</time>
      </trkpt>
      <trkpt lat="46.157201109454036" lon="10.457160975784063">
        <ele>2758.6399999999999</ele>
        <time>2018-07-12T07:43:23Z</time>
      </trkpt>
      <trkpt lat="46.157214688137174" lon="10.457176482304931">
        <ele>2759.5999999999999</ele>
        <time>2018-07-12T07:43:30Z</time>
      </trkpt>
      <trkpt lat="46.157229859381914" lon="10.457158796489239">
        <ele>2760.5599999999999</ele>
        <time>2018-07-12T07:43:39Z</time>
      </trkpt>
      <trkpt lat="46.157261710613966" lon="10.457171956077218">
        <ele>2761.52</ele>
        <time>2018-07-12T07:43:47Z</time>
      </trkpt>
      <trkpt lat="46.15727998316288" lon="10.457135662436485">
        <ele>2762.9699999999998</ele>
        <time>2018-07-12T07:43:57Z</time>
      </trkpt>
      <trkpt lat="46.15727411583066" lon="10.457168184220791">
        <ele>2763.4499999999998</ele>
        <time>2018-07-12T07:44:09Z</time>
      </trkpt>
      <trkpt lat="46.157311080023646" lon="10.457131639122963">
        <ele>2764.4099999999999</ele>
        <time>2018-07-12T07:44:19Z</time>
      </trkpt>
      <trkpt lat="46.157330526039004" lon="10.457102721557021">
        <ele>2765.8499999999999</ele>
        <time>2018-07-12T07:44:30Z</time>
      </trkpt>
      <trkpt lat="46.157354163005948" lon="10.457203974947333">
        <ele>2766.8099999999999</ele>
        <time>2018-07-12T07:44:41Z</time>
      </trkpt>
      <trkpt lat="46.157409148290753" lon="10.457228114828467">
        <ele>2768.25</ele>
        <time>2018-07-12T07:44:53Z</time>
      </trkpt>
      <trkpt lat="46.157451895996928" lon="10.457204561680555">
        <ele>2769.6999999999998</ele>
        <time>2018-07-12T07:45:02Z</time>
      </trkpt>
      <trkpt lat="46.157480059191585" lon="10.457185786217451">
        <ele>2771.1399999999999</ele>
        <time>2018-07-12T07:45:11Z</time>
      </trkpt>
      <trkpt lat="46.157516352832317" lon="10.457181679084897">
        <ele>2771.6199999999999</ele>
        <time>2018-07-12T07:45:21Z</time>
      </trkpt>
      <trkpt lat="46.157528087496758" lon="10.457170698791742">
        <ele>2772.0999999999999</ele>
        <time>2018-07-12T07:45:31Z</time>
      </trkpt>
      <trkpt lat="46.157571086660028" lon="10.45717254281044">
        <ele>2773.54</ele>
        <time>2018-07-12T07:45:40Z</time>
      </trkpt>
      <trkpt lat="46.157627664506435" lon="10.457133986055851">
        <ele>2774.98</ele>
        <time>2018-07-12T07:45:51Z</time>
      </trkpt>
      <trkpt lat="46.157682482153177" lon="10.457163909450173">
        <ele>2775.9400000000001</ele>
        <time>2018-07-12T07:46:03Z</time>
      </trkpt>
      <trkpt lat="46.15773294121027" lon="10.45720187947154">
        <ele>2777.3899999999999</ele>
        <time>2018-07-12T07:46:16Z</time>
      </trkpt>
      <trkpt lat="46.157779796048999" lon="10.457241022959352">
        <ele>2777.8699999999999</ele>
        <time>2018-07-12T07:46:27Z</time>
      </trkpt>
      <trkpt lat="46.157778035849333" lon="10.457314196974039">
        <ele>2778.3499999999999</ele>
        <time>2018-07-12T07:46:38Z</time>
      </trkpt>
      <trkpt lat="46.157780047506094" lon="10.457386197522283">
        <ele>2779.79</ele>
        <time>2018-07-12T07:46:48Z</time>
      </trkpt>
      <trkpt lat="46.157725900411606" lon="10.457435734570026">
        <ele>2780.75</ele>
        <time>2018-07-12T07:46:57Z</time>
      </trkpt>
      <trkpt lat="46.157694468274713" lon="10.457500359043479">
        <ele>2781.71</ele>
        <time>2018-07-12T07:47:09Z</time>
      </trkpt>
      <trkpt lat="46.157662868499756" lon="10.457563390955329">
        <ele>2782.6700000000001</ele>
        <time>2018-07-12T07:47:20Z</time>
      </trkpt>
      <trkpt lat="46.157599166035652" lon="10.457615945488214">
        <ele>2783.6300000000001</ele>
        <time>2018-07-12T07:47:31Z</time>
      </trkpt>
      <trkpt lat="46.157579217106104" lon="10.45765433460474">
        <ele>2784.5999999999999</ele>
        <time>2018-07-12T07:47:41Z</time>
      </trkpt>
      <trkpt lat="46.157575445249677" lon="10.457710912451148">
        <ele>2786.04</ele>
        <time>2018-07-12T07:47:50Z</time>
      </trkpt>
      <trkpt lat="46.157567650079727" lon="10.457767490297556">
        <ele>2786.52</ele>
        <time>2018-07-12T07:47:58Z</time>
      </trkpt>
      <trkpt lat="46.15755457431078" lon="10.457831276580691">
        <ele>2787.96</ele>
        <time>2018-07-12T07:48:07Z</time>
      </trkpt>
      <trkpt lat="46.15754971280694" lon="10.457877963781357">
        <ele>2788.9200000000001</ele>
        <time>2018-07-12T07:48:17Z</time>
      </trkpt>
      <trkpt lat="46.15755608305335" lon="10.457937307655811">
        <ele>2789.8800000000001</ele>
        <time>2018-07-12T07:48:28Z</time>
      </trkpt>
      <trkpt lat="46.15755750797689" lon="10.457950131967664">
        <ele>2789.8800000000001</ele>
        <time>2018-07-12T07:48:30Z</time>
      </trkpt>
      <trkpt lat="46.15758340805769" lon="10.457966141402721">
        <ele>2791.3299999999999</ele>
        <time>2018-07-12T07:48:40Z</time>
      </trkpt>
      <trkpt lat="46.15761760622263" lon="10.457958430051804">
        <ele>2791.8099999999999</ele>
        <time>2018-07-12T07:48:48Z</time>
      </trkpt>
      <trkpt lat="46.157663622871041" lon="10.457946360111237">
        <ele>2791.3299999999999</ele>
        <time>2018-07-12T07:48:59Z</time>
      </trkpt>
      <trkpt lat="46.157715506851673" lon="10.457919957116246">
        <ele>2791.8099999999999</ele>
        <time>2018-07-12T07:49:08Z</time>
      </trkpt>
      <trkpt lat="46.157749621197581" lon="10.457887854427099">
        <ele>2792.77</ele>
        <time>2018-07-12T07:49:16Z</time>
      </trkpt>
      <trkpt lat="46.157783987000585" lon="10.457861199975014">
        <ele>2793.25</ele>
        <time>2018-07-12T07:49:24Z</time>
      </trkpt>
      <trkpt lat="46.157809887081385" lon="10.457848208025098">
        <ele>2794.21</ele>
        <time>2018-07-12T07:49:34Z</time>
      </trkpt>
      <trkpt lat="46.157848024740815" lon="10.457848962396383">
        <ele>2795.6500000000001</ele>
        <time>2018-07-12T07:49:44Z</time>
      </trkpt>
      <trkpt lat="46.157903429120779" lon="10.457891374826431">
        <ele>2797.5700000000002</ele>
        <time>2018-07-12T07:49:54Z</time>
      </trkpt>
      <trkpt lat="46.157939890399575" lon="10.457882573828101">
        <ele>2798.0500000000002</ele>
        <time>2018-07-12T07:50:02Z</time>
      </trkpt>
      <trkpt lat="46.157962772995234" lon="10.457893721759319">
        <ele>2799.5</ele>
        <time>2018-07-12T07:50:11Z</time>
      </trkpt>
      <trkpt lat="46.157992612570524" lon="10.457906043156981">
        <ele>2800.9400000000001</ele>
        <time>2018-07-12T07:50:21Z</time>
      </trkpt>
      <trkpt lat="46.158020608127117" lon="10.457924148067832">
        <ele>2801.9000000000001</ele>
        <time>2018-07-12T07:50:30Z</time>
      </trkpt>
      <trkpt lat="46.158053213730454" lon="10.457926662638783">
        <ele>2803.3400000000001</ele>
        <time>2018-07-12T07:50:40Z</time>
      </trkpt>
      <trkpt lat="46.158077102154493" lon="10.457897577434778">
        <ele>2804.3000000000002</ele>
        <time>2018-07-12T07:50:49Z</time>
      </trkpt>
      <trkpt lat="46.158110965043306" lon="10.457870839163661">
        <ele>2805.2600000000002</ele>
        <time>2018-07-12T07:50:59Z</time>
      </trkpt>
      <trkpt lat="46.158156394958496" lon="10.457890033721924">
        <ele>2806.71</ele>
        <time>2018-07-12T07:51:09Z</time>
      </trkpt>
      <trkpt lat="46.158191431313753" lon="10.457872431725264">
        <ele>2808.6300000000001</ele>
        <time>2018-07-12T07:51:19Z</time>
      </trkpt>
      <trkpt lat="46.158216409385204" lon="10.457917777821422">
        <ele>2809.1100000000001</ele>
        <time>2018-07-12T07:51:29Z</time>
      </trkpt>
      <trkpt lat="46.158230155706406" lon="10.457937391474843">
        <ele>2810.5500000000002</ele>
        <time>2018-07-12T07:51:40Z</time>
      </trkpt>
      <trkpt lat="46.158250439912081" lon="10.457923226058483">
        <ele>2811.0300000000002</ele>
        <time>2018-07-12T07:51:48Z</time>
      </trkpt>
      <trkpt lat="46.15829000249505" lon="10.4579171910882">
        <ele>2811.9899999999998</ele>
        <time>2018-07-12T07:51:56Z</time>
      </trkpt>
      <trkpt lat="46.158308191224933" lon="10.457919202744961">
        <ele>2813.4400000000001</ele>
        <time>2018-07-12T07:52:07Z</time>
      </trkpt>
      <trkpt lat="46.158313220366836" lon="10.457889111712575">
        <ele>2814.4000000000001</ele>
        <time>2018-07-12T07:52:18Z</time>
      </trkpt>
      <trkpt lat="46.158364769071341" lon="10.457853404805064">
        <ele>2814.4000000000001</ele>
        <time>2018-07-12T07:52:28Z</time>
      </trkpt>
      <trkpt lat="46.158394189551473" lon="10.457876957952976">
        <ele>2816.3200000000002</ele>
        <time>2018-07-12T07:52:38Z</time>
      </trkpt>
      <trkpt lat="46.158392513170838" lon="10.457950467243791">
        <ele>2817.2800000000002</ele>
        <time>2018-07-12T07:52:48Z</time>
      </trkpt>
      <trkpt lat="46.158393435180187" lon="10.458008553832769">
        <ele>2819.1999999999998</ele>
        <time>2018-07-12T07:52:58Z</time>
      </trkpt>
      <trkpt lat="46.158390501514077" lon="10.458037555217743">
        <ele>2820.1599999999999</ele>
        <time>2018-07-12T07:53:09Z</time>
      </trkpt>
      <trkpt lat="46.158403074368834" lon="10.458087343722582">
        <ele>2821.6100000000001</ele>
        <time>2018-07-12T07:53:19Z</time>
      </trkpt>
      <trkpt lat="46.158439787104726" lon="10.458085080608726">
        <ele>2822.5700000000002</ele>
        <time>2018-07-12T07:53:30Z</time>
      </trkpt>
      <trkpt lat="46.15846736356616" lon="10.458069322630763">
        <ele>2825.4499999999998</ele>
        <time>2018-07-12T07:53:41Z</time>
      </trkpt>
      <trkpt lat="46.158508434891701" lon="10.458079380914569">
        <ele>2825.9299999999998</ele>
        <time>2018-07-12T07:53:53Z</time>
      </trkpt>
      <trkpt lat="46.158519331365824" lon="10.458084242418408">
        <ele>2828.3400000000001</ele>
        <time>2018-07-12T07:54:03Z</time>
      </trkpt>
      <trkpt lat="46.158549673855305" lon="10.458076866343617">
        <ele>2828.8200000000002</ele>
        <time>2018-07-12T07:54:14Z</time>
      </trkpt>
      <trkpt lat="46.158562749624252" lon="10.458055324852467">
        <ele>2829.7800000000002</ele>
        <time>2018-07-12T07:54:25Z</time>
      </trkpt>
      <trkpt lat="46.158586470410228" lon="10.458024563267827">
        <ele>2829.3000000000002</ele>
        <time>2018-07-12T07:54:35Z</time>
      </trkpt>
      <trkpt lat="46.158624943345785" lon="10.457989107817411">
        <ele>2829.7800000000002</ele>
        <time>2018-07-12T07:54:44Z</time>
      </trkpt>
      <trkpt lat="46.15861538797617" lon="10.457955412566662">
        <ele>2829.3000000000002</ele>
        <time>2018-07-12T07:54:53Z</time>
      </trkpt>
      <trkpt lat="46.158631900325418" lon="10.457935715094209">
        <ele>2829.7800000000002</ele>
        <time>2018-07-12T07:55:02Z</time>
      </trkpt>
      <trkpt lat="46.158670289441943" lon="10.457920711487532">
        <ele>2829.7800000000002</ele>
        <time>2018-07-12T07:55:10Z</time>
      </trkpt>
      <trkpt lat="46.15867112763226" lon="10.45789229683578">
        <ele>2830.2600000000002</ele>
        <time>2018-07-12T07:55:20Z</time>
      </trkpt>
      <trkpt lat="46.158694932237267" lon="10.457870420068502">
        <ele>2829.7800000000002</ele>
        <time>2018-07-12T07:55:32Z</time>
      </trkpt>
      <trkpt lat="46.158719910308719" lon="10.457858014851809">
        <ele>2830.2600000000002</ele>
        <time>2018-07-12T07:55:42Z</time>
      </trkpt>
      <trkpt lat="46.158731980249286" lon="10.457844855263829">
        <ele>2830.7399999999998</ele>
        <time>2018-07-12T07:55:53Z</time>
      </trkpt>
      <trkpt lat="46.158769279718399" lon="10.45783219859004">
        <ele>2832.1799999999998</ele>
        <time>2018-07-12T07:56:03Z</time>
      </trkpt>
      <trkpt lat="46.158804735168815" lon="10.457831360399723">
        <ele>2833.6199999999999</ele>
        <time>2018-07-12T07:56:13Z</time>
      </trkpt>
      <trkpt lat="46.158831976354122" lon="10.457837646827102">
        <ele>2834.5799999999999</ele>
        <time>2018-07-12T07:56:23Z</time>
      </trkpt>
      <trkpt lat="46.158832646906376" lon="10.457815770059824">
        <ele>2835.5500000000002</ele>
        <time>2018-07-12T07:56:32Z</time>
      </trkpt>
      <trkpt lat="46.158822672441602" lon="10.457806885242462">
        <ele>2835.5500000000002</ele>
        <time>2018-07-12T07:56:47Z</time>
      </trkpt>
      <trkpt lat="46.158836837857962" lon="10.457832366228104">
        <ele>2835.5500000000002</ele>
        <time>2018-07-12T07:56:59Z</time>
      </trkpt>
      <trkpt lat="46.158866425976157" lon="10.457781320437789">
        <ele>2836.9899999999998</ele>
        <time>2018-07-12T07:57:11Z</time>
      </trkpt>
      <trkpt lat="46.158892242237926" lon="10.457833372056484">
        <ele>2838.4299999999998</ele>
        <time>2018-07-12T07:57:20Z</time>
      </trkpt>
      <trkpt lat="46.158914621919394" lon="10.457837730646133">
        <ele>2839.3899999999999</ele>
        <time>2018-07-12T07:57:30Z</time>
      </trkpt>
      <trkpt lat="46.158923758193851" lon="10.457811579108238">
        <ele>2840.3499999999999</ele>
        <time>2018-07-12T07:57:41Z</time>
      </trkpt>
      <trkpt lat="46.158952759578824" lon="10.457834796980023">
        <ele>2843.2399999999998</ele>
        <time>2018-07-12T07:57:53Z</time>
      </trkpt>
      <trkpt lat="46.158960470929742" lon="10.457881316542625">
        <ele>2843.2399999999998</ele>
        <time>2018-07-12T07:58:05Z</time>
      </trkpt>
      <trkpt lat="46.158973211422563" lon="10.457839909940958">
        <ele>2845.1599999999999</ele>
        <time>2018-07-12T07:58:16Z</time>
      </trkpt>
      <trkpt lat="46.158991903066635" lon="10.45782239176333">
        <ele>2845.6399999999999</ele>
        <time>2018-07-12T07:58:25Z</time>
      </trkpt>
      <trkpt lat="46.159003805369139" lon="10.457850890234113">
        <ele>2846.5999999999999</ele>
        <time>2018-07-12T07:58:37Z</time>
      </trkpt>
      <trkpt lat="46.159008666872978" lon="10.457836138084531">
        <ele>2848.52</ele>
        <time>2018-07-12T07:58:50Z</time>
      </trkpt>
      <trkpt lat="46.159028196707368" lon="10.457831108942628">
        <ele>2849.48</ele>
        <time>2018-07-12T07:59:04Z</time>
      </trkpt>
      <trkpt lat="46.159038506448269" lon="10.45784393325448">
        <ele>2849.9699999999998</ele>
        <time>2018-07-12T07:59:14Z</time>
      </trkpt>
      <trkpt lat="46.159044876694679" lon="10.457840915769339">
        <ele>2850.9299999999998</ele>
        <time>2018-07-12T07:59:22Z</time>
      </trkpt>
      <trkpt lat="46.159055437892675" lon="10.457823146134615">
        <ele>2851.4099999999999</ele>
        <time>2018-07-12T07:59:34Z</time>
      </trkpt>
      <trkpt lat="46.159073375165462" lon="10.457804705947638">
        <ele>2852.8499999999999</ele>
        <time>2018-07-12T07:59:43Z</time>
      </trkpt>
      <trkpt lat="46.159092988818884" lon="10.457803029567003">
        <ele>2854.29</ele>
        <time>2018-07-12T07:59:55Z</time>
      </trkpt>
      <trkpt lat="46.159120062366128" lon="10.457813758403063">
        <ele>2855.73</ele>
        <time>2018-07-12T08:00:07Z</time>
      </trkpt>
      <trkpt lat="46.159108327701688" lon="10.45787519775331">
        <ele>2857.6599999999999</ele>
        <time>2018-07-12T08:00:19Z</time>
      </trkpt>
      <trkpt lat="46.15911235101521" lon="10.457908138632774">
        <ele>2858.6199999999999</ele>
        <time>2018-07-12T08:00:31Z</time>
      </trkpt>
      <trkpt lat="46.159104472026229" lon="10.457905624061823">
        <ele>2858.6199999999999</ele>
        <time>2018-07-12T08:00:49Z</time>
      </trkpt>
      <trkpt lat="46.159129701554775" lon="10.457902522757649">
        <ele>2860.0599999999999</ele>
        <time>2018-07-12T08:00:57Z</time>
      </trkpt>
      <trkpt lat="46.159139005467296" lon="10.457926411181688">
        <ele>2860.54</ele>
        <time>2018-07-12T08:01:04Z</time>
      </trkpt>
      <trkpt lat="46.159144872799516" lon="10.457987515255809">
        <ele>2862.46</ele>
        <time>2018-07-12T08:01:15Z</time>
      </trkpt>
      <trkpt lat="46.159130707383156" lon="10.458025066182017">
        <ele>2862.9400000000001</ele>
        <time>2018-07-12T08:01:22Z</time>
      </trkpt>
      <trkpt lat="46.159137077629566" lon="10.458045518025756">
        <ele>2864.3899999999999</ele>
        <time>2018-07-12T08:01:37Z</time>
      </trkpt>
      <trkpt lat="46.159141352400184" lon="10.458059683442116">
        <ele>2864.8699999999999</ele>
        <time>2018-07-12T08:01:47Z</time>
      </trkpt>
      <trkpt lat="46.159164821729064" lon="10.458046859130263">
        <ele>2867.27</ele>
        <time>2018-07-12T08:01:55Z</time>
      </trkpt>
      <trkpt lat="46.159178065136075" lon="10.458013834431767">
        <ele>2867.27</ele>
        <time>2018-07-12T08:02:03Z</time>
      </trkpt>
      <trkpt lat="46.159193655475974" lon="10.458004362881184">
        <ele>2868.23</ele>
        <time>2018-07-12T08:02:12Z</time>
      </trkpt>
      <trkpt lat="46.159207485616207" lon="10.457985168322921">
        <ele>2868.71</ele>
        <time>2018-07-12T08:02:21Z</time>
      </trkpt>
      <trkpt lat="46.159222656860948" lon="10.457964716479182">
        <ele>2869.6700000000001</ele>
        <time>2018-07-12T08:02:32Z</time>
      </trkpt>
      <trkpt lat="46.159241767600179" lon="10.457946276292205">
        <ele>2870.6300000000001</ele>
        <time>2018-07-12T08:02:41Z</time>
      </trkpt>
      <trkpt lat="46.159259453415871" lon="10.457922387868166">
        <ele>2871.5999999999999</ele>
        <time>2018-07-12T08:02:49Z</time>
      </trkpt>
      <trkpt lat="46.159274540841579" lon="10.457914425060153">
        <ele>2872.0799999999999</ele>
        <time>2018-07-12T08:02:57Z</time>
      </trkpt>
      <trkpt lat="46.159261465072632" lon="10.457909312099218">
        <ele>2872.0799999999999</ele>
        <time>2018-07-12T08:03:11Z</time>
      </trkpt>
      <trkpt lat="46.159282084554434" lon="10.457904534414411">
        <ele>2873.52</ele>
        <time>2018-07-12T08:03:23Z</time>
      </trkpt>
      <trkpt lat="46.159293651580811" lon="10.457887435331941">
        <ele>2874.48</ele>
        <time>2018-07-12T08:03:33Z</time>
      </trkpt>
      <trkpt lat="46.159311253577471" lon="10.457856506109238">
        <ele>2876.4000000000001</ele>
        <time>2018-07-12T08:03:47Z</time>
      </trkpt>
      <trkpt lat="46.15933614782989" lon="10.457821218296885">
        <ele>2877.8400000000001</ele>
        <time>2018-07-12T08:04:01Z</time>
      </trkpt>
      <trkpt lat="46.159346122294664" lon="10.457800012081861">
        <ele>2878.8099999999999</ele>
        <time>2018-07-12T08:04:10Z</time>
      </trkpt>
      <trkpt lat="46.15937227383256" lon="10.457783499732614">
        <ele>2879.77</ele>
        <time>2018-07-12T08:04:20Z</time>
      </trkpt>
      <trkpt lat="46.159380571916699" lon="10.457789534702897">
        <ele>2880.73</ele>
        <time>2018-07-12T08:04:32Z</time>
      </trkpt>
      <trkpt lat="46.159380404278636" lon="10.457764808088541">
        <ele>2880.73</ele>
        <time>2018-07-12T08:04:44Z</time>
      </trkpt>
      <trkpt lat="46.159419883042574" lon="10.457763634622097">
        <ele>2881.6900000000001</ele>
        <time>2018-07-12T08:04:54Z</time>
      </trkpt>
      <trkpt lat="46.159443939104676" lon="10.457770843058825">
        <ele>2882.6500000000001</ele>
        <time>2018-07-12T08:05:09Z</time>
      </trkpt>
      <trkpt lat="46.159458020702004" lon="10.457758102566004">
        <ele>2883.1300000000001</ele>
        <time>2018-07-12T08:05:19Z</time>
      </trkpt>
      <trkpt lat="46.15945240482688" lon="10.457760617136955">
        <ele>2883.1300000000001</ele>
        <time>2018-07-12T08:05:34Z</time>
      </trkpt>
      <trkpt lat="46.159463301301003" lon="10.457731783390045">
        <ele>2883.1300000000001</ele>
        <time>2018-07-12T08:05:47Z</time>
      </trkpt>
      <trkpt lat="46.15948224440217" lon="10.45772566460073">
        <ele>2883.1300000000001</ele>
        <time>2018-07-12T08:05:55Z</time>
      </trkpt>
      <trkpt lat="46.159471515566111" lon="10.457701189443469">
        <ele>2883.6100000000001</ele>
        <time>2018-07-12T08:06:16Z</time>
      </trkpt>
      <trkpt lat="46.159481322392821" lon="10.457658022642136">
        <ele>2883.1300000000001</ele>
        <time>2018-07-12T08:06:27Z</time>
      </trkpt>
      <trkpt lat="46.159522477537394" lon="10.457703704014421">
        <ele>2882.1700000000001</ele>
        <time>2018-07-12T08:06:37Z</time>
      </trkpt>
      <trkpt lat="46.15954477339983" lon="10.457702362909913">
        <ele>2881.21</ele>
        <time>2018-07-12T08:06:47Z</time>
      </trkpt>
      <trkpt lat="46.159541672095656" lon="10.457670595496893">
        <ele>2881.21</ele>
        <time>2018-07-12T08:06:59Z</time>
      </trkpt>
      <trkpt lat="46.159502193331718" lon="10.457699093967676">
        <ele>2881.6900000000001</ele>
        <time>2018-07-12T08:07:09Z</time>
      </trkpt>
      <trkpt lat="46.159488614648581" lon="10.45767922885716">
        <ele>2883.1300000000001</ele>
        <time>2018-07-12T08:07:19Z</time>
      </trkpt>
      <trkpt lat="46.159507809206843" lon="10.457691634073853">
        <ele>2882.6500000000001</ele>
        <time>2018-07-12T08:07:32Z</time>
      </trkpt>
      <trkpt lat="46.159507557749748" lon="10.457683000713587">
        <ele>2882.6500000000001</ele>
        <time>2018-07-12T08:07:43Z</time>
      </trkpt>
      <trkpt lat="46.159517532214522" lon="10.45770806260407">
        <ele>2882.6500000000001</ele>
        <time>2018-07-12T08:08:11Z</time>
      </trkpt>
      <trkpt lat="46.159476796165109" lon="10.457668919116259">
        <ele>2882.6500000000001</ele>
        <time>2018-07-12T08:08:37Z</time>
      </trkpt>
      <trkpt lat="46.159465815871954" lon="10.457675708457828">
        <ele>2882.6500000000001</ele>
        <time>2018-07-12T08:09:02Z</time>
      </trkpt>
      <trkpt lat="46.159488363191485" lon="10.457661794498563">
        <ele>2882.6500000000001</ele>
        <time>2018-07-12T08:09:24Z</time>
      </trkpt>
      <trkpt lat="46.159487525001168" lon="10.457655675709248">
        <ele>2883.1300000000001</ele>
        <time>2018-07-12T08:09:50Z</time>
      </trkpt>
      <trkpt lat="46.15948710590601" lon="10.457663554698229">
        <ele>2882.6500000000001</ele>
        <time>2018-07-12T08:10:22Z</time>
      </trkpt>
      <trkpt lat="46.159485932439566" lon="10.457640588283539">
        <ele>2883.1300000000001</ele>
        <time>2018-07-12T08:10:48Z</time>
      </trkpt>
      <trkpt lat="46.15951644256711" lon="10.45765919610858">
        <ele>2882.6500000000001</ele>
        <time>2018-07-12T08:11:04Z</time>
      </trkpt>
      <trkpt lat="46.159526668488979" lon="10.45764209702611">
        <ele>2882.6500000000001</ele>
        <time>2018-07-12T08:11:31Z</time>
      </trkpt>
      <trkpt lat="46.159518621861935" lon="10.457646371796727">
        <ele>2883.1300000000001</ele>
        <time>2018-07-12T08:11:53Z</time>
      </trkpt>
      <trkpt lat="46.159510742872953" lon="10.457654418423772">
        <ele>2883.1300000000001</ele>
        <time>2018-07-12T08:12:19Z</time>
      </trkpt>
      <trkpt lat="46.159523148089647" lon="10.457665231078863">
        <ele>2883.1300000000001</ele>
        <time>2018-07-12T08:12:50Z</time>
      </trkpt>
      <trkpt lat="46.159517951309681" lon="10.45765777118504">
        <ele>2883.1300000000001</ele>
        <time>2018-07-12T08:13:16Z</time>
      </trkpt>
      <trkpt lat="46.159502109512687" lon="10.457667242735624">
        <ele>2883.1300000000001</ele>
        <time>2018-07-12T08:13:46Z</time>
      </trkpt>
      <trkpt lat="46.159484758973122" lon="10.457674786448479">
        <ele>2883.1300000000001</ele>
        <time>2018-07-12T08:14:13Z</time>
      </trkpt>
      <trkpt lat="46.159488698467612" lon="10.457670763134956">
        <ele>2883.1300000000001</ele>
        <time>2018-07-12T08:14:36Z</time>
      </trkpt>
      <trkpt lat="46.159492805600166" lon="10.457665733993053">
        <ele>2873.52</ele>
        <time>2018-07-12T08:14:47Z</time>
      </trkpt>
      <trkpt lat="46.159493895247579" lon="10.45766606926918">
        <ele>2886.98</ele>
        <time>2018-07-12T08:14:48Z</time>
      </trkpt>
      <trkpt lat="46.159494984894991" lon="10.457669170573354">
        <ele>2883.6100000000001</ele>
        <time>2018-07-12T08:14:49Z</time>
      </trkpt>
      <trkpt lat="46.159497080370784" lon="10.457679396495223">
        <ele>2883.6100000000001</ele>
        <time>2018-07-12T08:15:03Z</time>
      </trkpt>
      <trkpt lat="46.159488447010517" lon="10.457672271877527">
        <ele>2883.6100000000001</ele>
        <time>2018-07-12T08:15:21Z</time>
      </trkpt>
      <trkpt lat="46.159505881369114" lon="10.457695322111249">
        <ele>2883.6100000000001</ele>
        <time>2018-07-12T08:15:34Z</time>
      </trkpt>
      <trkpt lat="46.159518957138062" lon="10.457689119502902">
        <ele>2883.1300000000001</ele>
        <time>2018-07-12T08:15:46Z</time>
      </trkpt>
      <trkpt lat="46.15952817723155" lon="10.45769146643579">
        <ele>2882.6500000000001</ele>
        <time>2018-07-12T08:15:53Z</time>
      </trkpt>
      <trkpt lat="46.159523734822869" lon="10.457677636295557">
        <ele>2881.6900000000001</ele>
        <time>2018-07-12T08:16:06Z</time>
      </trkpt>
      <trkpt lat="46.159558016806841" lon="10.457675792276859">
        <ele>2880.25</ele>
        <time>2018-07-12T08:16:15Z</time>
      </trkpt>
      <trkpt lat="46.159591292962432" lon="10.457630278542638">
        <ele>2878.8099999999999</ele>
        <time>2018-07-12T08:16:26Z</time>
      </trkpt>
      <trkpt lat="46.159630436450243" lon="10.457585016265512">
        <ele>2877.3600000000001</ele>
        <time>2018-07-12T08:16:38Z</time>
      </trkpt>
      <trkpt lat="46.159639656543732" lon="10.457570431753993">
        <ele>2876.4000000000001</ele>
        <time>2018-07-12T08:16:49Z</time>
      </trkpt>
      <trkpt lat="46.159639488905668" lon="10.457575377076864">
        <ele>2873.52</ele>
        <time>2018-07-12T08:16:53Z</time>
      </trkpt>
      <trkpt lat="46.159637812525034" lon="10.457572108134627">
        <ele>2877.8400000000001</ele>
        <time>2018-07-12T08:16:54Z</time>
      </trkpt>
      <trkpt lat="46.159666646271944" lon="10.457555344328284">
        <ele>2875.9200000000001</ele>
        <time>2018-07-12T08:17:04Z</time>
      </trkpt>
      <trkpt lat="46.159697994589806" lon="10.457555931061506">
        <ele>2875.4400000000001</ele>
        <time>2018-07-12T08:17:14Z</time>
      </trkpt>
      <trkpt lat="46.159707717597485" lon="10.457551153376698">
        <ele>2874.96</ele>
        <time>2018-07-12T08:17:27Z</time>
      </trkpt>
      <trkpt lat="46.15971484221518" lon="10.457529360428452">
        <ele>2874.48</ele>
        <time>2018-07-12T08:17:45Z</time>
      </trkpt>
      <trkpt lat="46.159714758396149" lon="10.457551572471857">
        <ele>2873.52</ele>
        <time>2018-07-12T08:17:59Z</time>
      </trkpt>
      <trkpt lat="46.15973093546927" lon="10.457538915798068">
        <ele>2872.0799999999999</ele>
        <time>2018-07-12T08:18:10Z</time>
      </trkpt>
      <trkpt lat="46.159763457253575" lon="10.457546291872859">
        <ele>2871.1100000000001</ele>
        <time>2018-07-12T08:18:22Z</time>
      </trkpt>
      <trkpt lat="46.15977393463254" lon="10.457557272166014">
        <ele>2869.6700000000001</ele>
        <time>2018-07-12T08:18:33Z</time>
      </trkpt>
      <trkpt lat="46.159762451425195" lon="10.457578981295228">
        <ele>2869.6700000000001</ele>
        <time>2018-07-12T08:18:45Z</time>
      </trkpt>
      <trkpt lat="46.159758931025863" lon="10.457608317956328">
        <ele>2869.1900000000001</ele>
        <time>2018-07-12T08:18:57Z</time>
      </trkpt>
      <trkpt lat="46.159773683175445" lon="10.457595912739635">
        <ele>2869.1900000000001</ele>
        <time>2018-07-12T08:19:09Z</time>
      </trkpt>
      <trkpt lat="46.159762116149068" lon="10.457612592726946">
        <ele>2868.71</ele>
        <time>2018-07-12T08:19:19Z</time>
      </trkpt>
      <trkpt lat="46.159763960167766" lon="10.45763430185616">
        <ele>2867.75</ele>
        <time>2018-07-12T08:19:34Z</time>
      </trkpt>
      <trkpt lat="46.159743340685964" lon="10.45765483751893">
        <ele>2866.79</ele>
        <time>2018-07-12T08:19:46Z</time>
      </trkpt>
      <trkpt lat="46.159738143905997" lon="10.457692136988044">
        <ele>2865.3499999999999</ele>
        <time>2018-07-12T08:19:58Z</time>
      </trkpt>
      <trkpt lat="46.159725738689303" lon="10.457701021805406">
        <ele>2864.3899999999999</ele>
        <time>2018-07-12T08:20:07Z</time>
      </trkpt>
      <trkpt lat="46.159698246046901" lon="10.457717785611749">
        <ele>2864.3899999999999</ele>
        <time>2018-07-12T08:20:23Z</time>
      </trkpt>
      <trkpt lat="46.159703526645899" lon="10.45769683085382">
        <ele>2864.3899999999999</ele>
        <time>2018-07-12T08:20:40Z</time>
      </trkpt>
      <trkpt lat="46.159715177491307" lon="10.457684677094221">
        <ele>2863.4200000000001</ele>
        <time>2018-07-12T08:20:52Z</time>
      </trkpt>
      <trkpt lat="46.159715093672276" lon="10.457706972956657">
        <ele>2863.4200000000001</ele>
        <time>2018-07-12T08:21:02Z</time>
      </trkpt>
      <trkpt lat="46.159730767831206" lon="10.457714516669512">
        <ele>2861.98</ele>
        <time>2018-07-12T08:21:14Z</time>
      </trkpt>
      <trkpt lat="46.159730767831206" lon="10.457685766741633">
        <ele>2861.02</ele>
        <time>2018-07-12T08:21:30Z</time>
      </trkpt>
      <trkpt lat="46.159751554951072" lon="10.457677720114589">
        <ele>2860.0599999999999</ele>
        <time>2018-07-12T08:21:44Z</time>
      </trkpt>
      <trkpt lat="46.159790195524693" lon="10.457664225250483">
        <ele>2859.0999999999999</ele>
        <time>2018-07-12T08:21:53Z</time>
      </trkpt>
      <trkpt lat="46.159826405346394" lon="10.457616280764341">
        <ele>2858.1399999999999</ele>
        <time>2018-07-12T08:22:03Z</time>
      </trkpt>
      <trkpt lat="46.159824812784791" lon="10.457626674324274">
        <ele>2858.1399999999999</ele>
        <time>2018-07-12T08:22:16Z</time>
      </trkpt>
      <trkpt lat="46.159837385639548" lon="10.457599684596062">
        <ele>2858.1399999999999</ele>
        <time>2018-07-12T08:22:32Z</time>
      </trkpt>
      <trkpt lat="46.159839816391468" lon="10.457565234974027">
        <ele>2857.6599999999999</ele>
        <time>2018-07-12T08:22:35Z</time>
      </trkpt>
      <trkpt lat="46.159829758107662" lon="10.457475716248155">
        <ele>2858.6199999999999</ele>
        <time>2018-07-12T08:22:45Z</time>
      </trkpt>
      <trkpt lat="46.159860184416175" lon="10.457388209179044">
        <ele>2860.54</ele>
        <time>2018-07-12T08:22:56Z</time>
      </trkpt>
      <trkpt lat="46.15984576754272" lon="10.457358788698912">
        <ele>2861.02</ele>
        <time>2018-07-12T08:23:08Z</time>
      </trkpt>
      <trkpt lat="46.159860352054238" lon="10.4573127720505">
        <ele>2860.0599999999999</ele>
        <time>2018-07-12T08:23:21Z</time>
      </trkpt>
      <trkpt lat="46.159864626824856" lon="10.457296678796411">
        <ele>2859.5799999999999</ele>
        <time>2018-07-12T08:23:32Z</time>
      </trkpt>
      <trkpt lat="46.159876277670264" lon="10.45725904405117">
        <ele>2858.6199999999999</ele>
        <time>2018-07-12T08:23:41Z</time>
      </trkpt>
      <trkpt lat="46.159906536340714" lon="10.45726734213531">
        <ele>2857.6599999999999</ele>
        <time>2018-07-12T08:23:55Z</time>
      </trkpt>
      <trkpt lat="46.159919025376439" lon="10.457251835614443">
        <ele>2856.6900000000001</ele>
        <time>2018-07-12T08:24:08Z</time>
      </trkpt>
      <trkpt lat="46.159920366480947" lon="10.457238759845495">
        <ele>2856.21</ele>
        <time>2018-07-12T08:24:23Z</time>
      </trkpt>
      <trkpt lat="46.159970490261912" lon="10.457222750410438">
        <ele>2854.77</ele>
        <time>2018-07-12T08:24:36Z</time>
      </trkpt>
      <trkpt lat="46.160013573244214" lon="10.457251667976379">
        <ele>2854.77</ele>
        <time>2018-07-12T08:24:49Z</time>
      </trkpt>
      <trkpt lat="46.160053303465247" lon="10.457234568893909">
        <ele>2854.29</ele>
        <time>2018-07-12T08:25:04Z</time>
      </trkpt>
      <trkpt lat="46.15999479778111" lon="10.457243118435144">
        <ele>2853.8099999999999</ele>
        <time>2018-07-12T08:25:15Z</time>
      </trkpt>
      <trkpt lat="46.159993875771761" lon="10.457225600257516">
        <ele>2852.8499999999999</ele>
        <time>2018-07-12T08:25:27Z</time>
      </trkpt>
      <trkpt lat="46.15997870452702" lon="10.457235407084227">
        <ele>2853.8099999999999</ele>
        <time>2018-07-12T08:25:36Z</time>
      </trkpt>
      <trkpt lat="46.159973759204149" lon="10.457209926098585">
        <ele>2851.8899999999999</ele>
        <time>2018-07-12T08:25:44Z</time>
      </trkpt>
      <trkpt lat="46.159978955984116" lon="10.457206070423126">
        <ele>2851.8899999999999</ele>
        <time>2018-07-12T08:26:01Z</time>
      </trkpt>
      <trkpt lat="46.159994546324015" lon="10.457232389599085">
        <ele>2852.3699999999999</ele>
        <time>2018-07-12T08:26:14Z</time>
      </trkpt>
      <trkpt lat="46.159972921013832" lon="10.457237754017115">
        <ele>2852.8499999999999</ele>
        <time>2018-07-12T08:26:24Z</time>
      </trkpt>
      <trkpt lat="46.159959929063916" lon="10.457226522266865">
        <ele>2852.8499999999999</ele>
        <time>2018-07-12T08:26:40Z</time>
      </trkpt>
      <trkpt lat="46.159977028146386" lon="10.45722677372396">
        <ele>2852.8499999999999</ele>
        <time>2018-07-12T08:26:57Z</time>
      </trkpt>
      <trkpt lat="46.160003934055567" lon="10.457205148413777">
        <ele>2852.3699999999999</ele>
        <time>2018-07-12T08:27:09Z</time>
      </trkpt>
      <trkpt lat="46.160026229918003" lon="10.457230880856514">
        <ele>2851.8899999999999</ele>
        <time>2018-07-12T08:27:21Z</time>
      </trkpt>
      <trkpt lat="46.160035030916333" lon="10.457260385155678">
        <ele>2850.9299999999998</ele>
        <time>2018-07-12T08:27:33Z</time>
      </trkpt>
      <trkpt lat="46.160052046179771" lon="10.457237586379051">
        <ele>2849.9699999999998</ele>
        <time>2018-07-12T08:27:45Z</time>
      </trkpt>
      <trkpt lat="46.160070151090622" lon="10.457258373498917">
        <ele>2848.52</ele>
        <time>2018-07-12T08:27:56Z</time>
      </trkpt>
      <trkpt lat="46.16008616052568" lon="10.457278992980719">
        <ele>2847.0799999999999</ele>
        <time>2018-07-12T08:28:05Z</time>
      </trkpt>
      <trkpt lat="46.160080712288618" lon="10.457294331863523">
        <ele>2846.1199999999999</ele>
        <time>2018-07-12T08:28:15Z</time>
      </trkpt>
      <trkpt lat="46.160079371184111" lon="10.457306988537312">
        <ele>2846.5999999999999</ele>
        <time>2018-07-12T08:28:34Z</time>
      </trkpt>
      <trkpt lat="46.160096889361739" lon="10.457304390147328">
        <ele>2845.6399999999999</ele>
        <time>2018-07-12T08:28:50Z</time>
      </trkpt>
      <trkpt lat="46.16010325960815" lon="10.457344958558679">
        <ele>2844.1999999999998</ele>
        <time>2018-07-12T08:29:01Z</time>
      </trkpt>
      <trkpt lat="46.160105355083942" lon="10.457352586090565">
        <ele>2844.1999999999998</ele>
        <time>2018-07-12T08:29:03Z</time>
      </trkpt>
      <trkpt lat="46.160098481923342" lon="10.457374043762684">
        <ele>2843.7199999999998</ele>
        <time>2018-07-12T08:29:11Z</time>
      </trkpt>
      <trkpt lat="46.160110719501972" lon="10.457377731800079">
        <ele>2843.7199999999998</ele>
        <time>2018-07-12T08:29:24Z</time>
      </trkpt>
      <trkpt lat="46.160119352862239" lon="10.457366583868861">
        <ele>2842.7600000000002</ele>
        <time>2018-07-12T08:29:33Z</time>
      </trkpt>
      <trkpt lat="46.16012672893703" lon="10.457418970763683">
        <ele>2841.3099999999999</ele>
        <time>2018-07-12T08:29:45Z</time>
      </trkpt>
      <trkpt lat="46.160115832462907" lon="10.457443194463849">
        <ele>2841.3099999999999</ele>
        <time>2018-07-12T08:29:55Z</time>
      </trkpt>
      <trkpt lat="46.160087250173092" lon="10.457424502819777">
        <ele>2841.79</ele>
        <time>2018-07-12T08:30:07Z</time>
      </trkpt>
      <trkpt lat="46.160070905461907" lon="10.457423496991396">
        <ele>2841.79</ele>
        <time>2018-07-12T08:30:33Z</time>
      </trkpt>
      <trkpt lat="46.160113820806146" lon="10.457444535568357">
        <ele>2840.3499999999999</ele>
        <time>2018-07-12T08:30:43Z</time>
      </trkpt>
      <trkpt lat="46.160108372569084" lon="10.457458700984716">
        <ele>2840.3499999999999</ele>
        <time>2018-07-12T08:30:53Z</time>
      </trkpt>
      <trkpt lat="46.160118347033858" lon="10.457444870844483">
        <ele>2840.8299999999999</ele>
        <time>2018-07-12T08:31:08Z</time>
      </trkpt>
      <trkpt lat="46.16011600010097" lon="10.4574612993747">
        <ele>2840.3499999999999</ele>
        <time>2018-07-12T08:31:19Z</time>
      </trkpt>
      <trkpt lat="46.160099571570754" lon="10.457474961876869">
        <ele>2839.8699999999999</ele>
        <time>2018-07-12T08:31:29Z</time>
      </trkpt>
      <trkpt lat="46.160083059221506" lon="10.457501113414764">
        <ele>2838.4299999999998</ele>
        <time>2018-07-12T08:31:39Z</time>
      </trkpt>
      <trkpt lat="46.160081634297967" lon="10.457520810887218">
        <ele>2837.4699999999998</ele>
        <time>2018-07-12T08:31:47Z</time>
      </trkpt>
      <trkpt lat="46.160089764744043" lon="10.457540424540639">
        <ele>2837.4699999999998</ele>
        <time>2018-07-12T08:31:57Z</time>
      </trkpt>
      <trkpt lat="46.16009253077209" lon="10.457541849464178">
        <ele>2837.4699999999998</ele>
        <time>2018-07-12T08:32:02Z</time>
      </trkpt>
      <trkpt lat="46.160084651783109" lon="10.457570180296898">
        <ele>2836.5100000000002</ele>
        <time>2018-07-12T08:32:14Z</time>
      </trkpt>
      <trkpt lat="46.160108372569084" lon="10.457590548321605">
        <ele>2835.0599999999999</ele>
        <time>2018-07-12T08:32:23Z</time>
      </trkpt>
      <trkpt lat="46.160103594884276" lon="10.457615274935961">
        <ele>2834.0999999999999</ele>
        <time>2018-07-12T08:32:34Z</time>
      </trkpt>
      <trkpt lat="46.160090854391456" lon="10.457609156146646">
        <ele>2834.0999999999999</ele>
        <time>2018-07-12T08:32:42Z</time>
      </trkpt>
      <trkpt lat="46.160084148868918" lon="10.4576201364398">
        <ele>2833.6199999999999</ele>
        <time>2018-07-12T08:32:52Z</time>
      </trkpt>
      <trkpt lat="46.16010669618845" lon="10.457639079540968">
        <ele>2832.1799999999998</ele>
        <time>2018-07-12T08:33:02Z</time>
      </trkpt>
      <trkpt lat="46.160096805542707" lon="10.457661123946309">
        <ele>2831.6999999999998</ele>
        <time>2018-07-12T08:33:10Z</time>
      </trkpt>
      <trkpt lat="46.160113317891955" lon="10.457681659609079">
        <ele>2830.7399999999998</ele>
        <time>2018-07-12T08:33:17Z</time>
      </trkpt>
      <trkpt lat="46.160120693966746" lon="10.457702530547976">
        <ele>2829.3000000000002</ele>
        <time>2018-07-12T08:33:26Z</time>
      </trkpt>
      <trkpt lat="46.160139301791787" lon="10.457730190828443">
        <ele>2827.8499999999999</ele>
        <time>2018-07-12T08:33:37Z</time>
      </trkpt>
      <trkpt lat="46.16015019826591" lon="10.457745529711246">
        <ele>2826.4099999999999</ele>
        <time>2018-07-12T08:33:45Z</time>
      </trkpt>
      <trkpt lat="46.160155395045877" lon="10.457759192213416">
        <ele>2825.4499999999998</ele>
        <time>2018-07-12T08:33:55Z</time>
      </trkpt>
      <trkpt lat="46.160144498571754" lon="10.457793138921261">
        <ele>2824.0100000000002</ele>
        <time>2018-07-12T08:34:04Z</time>
      </trkpt>
      <trkpt lat="46.16014433093369" lon="10.457824990153313">
        <ele>2823.0500000000002</ele>
        <time>2018-07-12T08:34:15Z</time>
      </trkpt>
      <trkpt lat="46.160158915445209" lon="10.457844436168671">
        <ele>2821.6100000000001</ele>
        <time>2018-07-12T08:34:28Z</time>
      </trkpt>
      <trkpt lat="46.160128489136696" lon="10.457834796980023">
        <ele>2821.6100000000001</ele>
        <time>2018-07-12T08:34:36Z</time>
      </trkpt>
      <trkpt lat="46.160115413367748" lon="10.457840412855148">
        <ele>2820.6500000000001</ele>
        <time>2018-07-12T08:34:46Z</time>
      </trkpt>
      <trkpt lat="46.160122454166412" lon="10.457859188318253">
        <ele>2820.1599999999999</ele>
        <time>2018-07-12T08:34:56Z</time>
      </trkpt>
      <trkpt lat="46.160139301791787" lon="10.457886345684528">
        <ele>2819.1999999999998</ele>
        <time>2018-07-12T08:35:07Z</time>
      </trkpt>
      <trkpt lat="46.160143995657563" lon="10.457910485565662">
        <ele>2817.7600000000002</ele>
        <time>2018-07-12T08:35:15Z</time>
      </trkpt>
      <trkpt lat="46.160110216587782" lon="10.457949293777347">
        <ele>2816.8000000000002</ele>
        <time>2018-07-12T08:35:26Z</time>
      </trkpt>
      <trkpt lat="46.16012429818511" lon="10.45795876532793">
        <ele>2816.3200000000002</ele>
        <time>2018-07-12T08:35:35Z</time>
      </trkpt>
      <trkpt lat="46.160127064213157" lon="10.457967231050134">
        <ele>2815.8400000000001</ele>
        <time>2018-07-12T08:35:54Z</time>
      </trkpt>
      <trkpt lat="46.160157155245543" lon="10.457990951836109">
        <ele>2814.4000000000001</ele>
        <time>2018-07-12T08:36:04Z</time>
      </trkpt>
      <trkpt lat="46.160156736150384" lon="10.458003943786025">
        <ele>2813.4400000000001</ele>
        <time>2018-07-12T08:36:11Z</time>
      </trkpt>
      <trkpt lat="46.16016629152" lon="10.458020037040114">
        <ele>2812.96</ele>
        <time>2018-07-12T08:36:20Z</time>
      </trkpt>
      <trkpt lat="46.160182468593121" lon="10.458062868565321">
        <ele>2810.5500000000002</ele>
        <time>2018-07-12T08:36:31Z</time>
      </trkpt>
      <trkpt lat="46.160208787769079" lon="10.458068316802382">
        <ele>2809.5900000000001</ele>
        <time>2018-07-12T08:36:39Z</time>
      </trkpt>
      <trkpt lat="46.160227982327342" lon="10.45809606090188">
        <ele>2808.6300000000001</ele>
        <time>2018-07-12T08:36:49Z</time>
      </trkpt>
      <trkpt lat="46.160233011469245" lon="10.458077704533935">
        <ele>2807.1900000000001</ele>
        <time>2018-07-12T08:36:59Z</time>
      </trkpt>
      <trkpt lat="46.160234687849879" lon="10.458118440583348">
        <ele>2806.71</ele>
        <time>2018-07-12T08:37:09Z</time>
      </trkpt>
      <trkpt lat="46.160236112773418" lon="10.458126403391361">
        <ele>2806.71</ele>
        <time>2018-07-12T08:37:22Z</time>
      </trkpt>
      <trkpt lat="46.160244578495622" lon="10.45815079472959">
        <ele>2806.23</ele>
        <time>2018-07-12T08:37:37Z</time>
      </trkpt>
      <trkpt lat="46.160241393372416" lon="10.458197481930256">
        <ele>2804.3000000000002</ele>
        <time>2018-07-12T08:37:49Z</time>
      </trkpt>
      <trkpt lat="46.160230413079262" lon="10.458228662610054">
        <ele>2803.3400000000001</ele>
        <time>2018-07-12T08:37:59Z</time>
      </trkpt>
      <trkpt lat="46.160221192985773" lon="10.458249449729919">
        <ele>2802.3800000000001</ele>
        <time>2018-07-12T08:38:10Z</time>
      </trkpt>
      <trkpt lat="46.160206273198128" lon="10.458220532163978">
        <ele>2802.3800000000001</ele>
        <time>2018-07-12T08:38:20Z</time>
      </trkpt>
      <trkpt lat="46.160204345360398" lon="10.458221370354295">
        <ele>2802.3800000000001</ele>
        <time>2018-07-12T08:38:34Z</time>
      </trkpt>
      <trkpt lat="46.160206776112318" lon="10.458292281255126">
        <ele>2800.46</ele>
        <time>2018-07-12T08:38:45Z</time>
      </trkpt>
      <trkpt lat="46.160218175500631" lon="10.458334442228079">
        <ele>2799.5</ele>
        <time>2018-07-12T08:38:54Z</time>
      </trkpt>
      <trkpt lat="46.160202585160732" lon="10.458343243226409">
        <ele>2799.02</ele>
        <time>2018-07-12T08:39:05Z</time>
      </trkpt>
      <trkpt lat="46.160212559625506" lon="10.45838288962841">
        <ele>2797.5700000000002</ele>
        <time>2018-07-12T08:39:17Z</time>
      </trkpt>
      <trkpt lat="46.160210883244872" lon="10.458397809416056">
        <ele>2797.5700000000002</ele>
        <time>2018-07-12T08:39:25Z</time>
      </trkpt>
      <trkpt lat="46.160178110003471" lon="10.458415830507874">
        <ele>2797.5700000000002</ele>
        <time>2018-07-12T08:39:34Z</time>
      </trkpt>
      <trkpt lat="46.160174254328012" lon="10.45843661762774">
        <ele>2797.5700000000002</ele>
        <time>2018-07-12T08:39:38Z</time>
      </trkpt>
      <trkpt lat="46.160173835232854" lon="10.458435276523232">
        <ele>2798.0500000000002</ele>
        <time>2018-07-12T08:39:48Z</time>
      </trkpt>
      <trkpt lat="46.160179702565074" lon="10.458458326756954">
        <ele>2797.5700000000002</ele>
        <time>2018-07-12T08:39:57Z</time>
      </trkpt>
      <trkpt lat="46.160172997042537" lon="10.458468468859792">
        <ele>2798.0500000000002</ele>
        <time>2018-07-12T08:40:04Z</time>
      </trkpt>
      <trkpt lat="46.160184564068913" lon="10.458453465253115">
        <ele>2797.5700000000002</ele>
        <time>2018-07-12T08:40:19Z</time>
      </trkpt>
      <trkpt lat="46.160177690908313" lon="10.458453968167305">
        <ele>2797.5700000000002</ele>
        <time>2018-07-12T08:40:38Z</time>
      </trkpt>
      <trkpt lat="46.160172745585442" lon="10.458478359505534">
        <ele>2797.0900000000001</ele>
        <time>2018-07-12T08:40:48Z</time>
      </trkpt>
      <trkpt lat="46.160164531320333" lon="10.458494033664465">
        <ele>2796.6100000000001</ele>
        <time>2018-07-12T08:40:57Z</time>
      </trkpt>
      <trkpt lat="46.160145001485944" lon="10.458516832441092">
        <ele>2795.1700000000001</ele>
        <time>2018-07-12T08:41:06Z</time>
      </trkpt>
      <trkpt lat="46.160168470814824" lon="10.458523286506534">
        <ele>2794.6900000000001</ele>
        <time>2018-07-12T08:41:15Z</time>
      </trkpt>
      <trkpt lat="46.160179115831852" lon="10.45851188711822">
        <ele>2793.25</ele>
        <time>2018-07-12T08:41:23Z</time>
      </trkpt>
      <trkpt lat="46.160194287076592" lon="10.45855388045311">
        <ele>2792.29</ele>
        <time>2018-07-12T08:41:30Z</time>
      </trkpt>
      <trkpt lat="46.160182971507311" lon="10.458603417500854">
        <ele>2791.3299999999999</ele>
        <time>2018-07-12T08:41:40Z</time>
      </trkpt>
      <trkpt lat="46.160191269591451" lon="10.458611128851771">
        <ele>2790.8400000000001</ele>
        <time>2018-07-12T08:41:42Z</time>
      </trkpt>
      <trkpt lat="46.160199819132686" lon="10.458626300096512">
        <ele>2789.8800000000001</ele>
        <time>2018-07-12T08:41:51Z</time>
      </trkpt>
      <trkpt lat="46.160190012305975" lon="10.458627222105861">
        <ele>2789.8800000000001</ele>
        <time>2018-07-12T08:42:02Z</time>
      </trkpt>
      <trkpt lat="46.160197472199798" lon="10.458652870729566">
        <ele>2788.9200000000001</ele>
        <time>2018-07-12T08:42:12Z</time>
      </trkpt>
      <trkpt lat="46.160204596817493" lon="10.458693355321884">
        <ele>2788.4400000000001</ele>
        <time>2018-07-12T08:42:21Z</time>
      </trkpt>
      <trkpt lat="46.160199819132686" lon="10.458712466061115">
        <ele>2787.48</ele>
        <time>2018-07-12T08:42:30Z</time>
      </trkpt>
      <trkpt lat="46.160183558240533" lon="10.45869561843574">
        <ele>2787.48</ele>
        <time>2018-07-12T08:42:41Z</time>
      </trkpt>
      <trkpt lat="46.160217002034187" lon="10.458711292594671">
        <ele>2786.04</ele>
        <time>2018-07-12T08:42:52Z</time>
      </trkpt>
      <trkpt lat="46.160212475806475" lon="10.458739371970296">
        <ele>2785.0799999999999</ele>
        <time>2018-07-12T08:43:01Z</time>
      </trkpt>
      <trkpt lat="46.16022739559412" lon="10.45872000977397">
        <ele>2784.5999999999999</ele>
        <time>2018-07-12T08:43:10Z</time>
      </trkpt>
      <trkpt lat="46.160270646214485" lon="10.458728056401014">
        <ele>2783.1500000000001</ele>
        <time>2018-07-12T08:43:21Z</time>
      </trkpt>
      <trkpt lat="46.160327391698956" lon="10.458688912913203">
        <ele>2783.1500000000001</ele>
        <time>2018-07-12T08:43:30Z</time>
      </trkpt>
      <trkpt lat="46.160328481346369" lon="10.458734845742583">
        <ele>2783.1500000000001</ele>
        <time>2018-07-12T08:43:44Z</time>
      </trkpt>
      <trkpt lat="46.160339126363397" lon="10.458687487989664">
        <ele>2783.1500000000001</ele>
        <time>2018-07-12T08:43:54Z</time>
      </trkpt>
      <trkpt lat="46.16035396233201" lon="10.458725458011031">
        <ele>2781.71</ele>
        <time>2018-07-12T08:44:03Z</time>
      </trkpt>
      <trkpt lat="46.160361170768738" lon="10.458760326728225">
        <ele>2779.79</ele>
        <time>2018-07-12T08:44:13Z</time>
      </trkpt>
      <trkpt lat="46.160379275679588" lon="10.458761835470796">
        <ele>2779.3099999999999</ele>
        <time>2018-07-12T08:44:24Z</time>
      </trkpt>
      <trkpt lat="46.160411043092608" lon="10.458775078877807">
        <ele>2778.3499999999999</ele>
        <time>2018-07-12T08:44:34Z</time>
      </trkpt>
      <trkpt lat="46.160425627604127" lon="10.458787400275469">
        <ele>2777.8699999999999</ele>
        <time>2018-07-12T08:44:42Z</time>
      </trkpt>
      <trkpt lat="46.160437278449535" lon="10.4587806109339">
        <ele>2777.3899999999999</ele>
        <time>2018-07-12T08:44:53Z</time>
      </trkpt>
      <trkpt lat="46.160447085276246" lon="10.458777509629726">
        <ele>2776.9099999999999</ele>
        <time>2018-07-12T08:45:04Z</time>
      </trkpt>
      <trkpt lat="46.160460077226162" lon="10.458816904574633">
        <ele>2776.4200000000001</ele>
        <time>2018-07-12T08:45:18Z</time>
      </trkpt>
      <trkpt lat="46.160464184358716" lon="10.458816653117537">
        <ele>2775.46</ele>
        <time>2018-07-12T08:45:32Z</time>
      </trkpt>
      <trkpt lat="46.160463513806462" lon="10.458826711401343">
        <ele>2774.98</ele>
        <time>2018-07-12T08:45:42Z</time>
      </trkpt>
      <trkpt lat="46.160466531291604" lon="10.458829225972295">
        <ele>2774.02</ele>
        <time>2018-07-12T08:45:44Z</time>
      </trkpt>
      <trkpt lat="46.160486983135343" lon="10.458821011707187">
        <ele>2773.54</ele>
        <time>2018-07-12T08:45:58Z</time>
      </trkpt>
      <trkpt lat="46.160479439422488" lon="10.458837524056435">
        <ele>2773.54</ele>
        <time>2018-07-12T08:46:07Z</time>
      </trkpt>
      <trkpt lat="46.160484049469233" lon="10.458841295912862">
        <ele>2773.0599999999999</ele>
        <time>2018-07-12T08:46:13Z</time>
      </trkpt>
      <trkpt lat="46.160487234592438" lon="10.458849929273129">
        <ele>2772.5799999999999</ele>
        <time>2018-07-12T08:46:20Z</time>
      </trkpt>
      <trkpt lat="46.160492934286594" lon="10.458866944536567">
        <ele>2771.6199999999999</ele>
        <time>2018-07-12T08:46:26Z</time>
      </trkpt>
      <trkpt lat="46.16052009165287" lon="10.458905836567283">
        <ele>2770.1799999999998</ele>
        <time>2018-07-12T08:46:35Z</time>
      </trkpt>
      <trkpt lat="46.160527803003788" lon="10.45892477966845">
        <ele>2769.21</ele>
        <time>2018-07-12T08:46:44Z</time>
      </trkpt>
      <trkpt lat="46.160519169643521" lon="10.458956211805344">
        <ele>2768.25</ele>
        <time>2018-07-12T08:46:55Z</time>
      </trkpt>
      <trkpt lat="46.160527719184756" lon="10.458949422463775">
        <ele>2767.29</ele>
        <time>2018-07-12T08:47:02Z</time>
      </trkpt>
      <trkpt lat="46.16053962148726" lon="10.45896727591753">
        <ele>2766.8099999999999</ele>
        <time>2018-07-12T08:47:09Z</time>
      </trkpt>
      <trkpt lat="46.160552194342017" lon="10.458981692790985">
        <ele>2766.3299999999999</ele>
        <time>2018-07-12T08:47:19Z</time>
      </trkpt>
      <trkpt lat="46.160562336444855" lon="10.458986219018698">
        <ele>2766.3299999999999</ele>
        <time>2018-07-12T08:47:36Z</time>
      </trkpt>
      <trkpt lat="46.160601815208793" lon="10.458981106057763">
        <ele>2764.4099999999999</ele>
        <time>2018-07-12T08:47:46Z</time>
      </trkpt>
      <trkpt lat="46.160600977018476" lon="10.459002647548914">
        <ele>2763.9299999999998</ele>
        <time>2018-07-12T08:47:54Z</time>
      </trkpt>
      <trkpt lat="46.160591002553701" lon="10.459027709439397">
        <ele>2763.4499999999998</ele>
        <time>2018-07-12T08:48:06Z</time>
      </trkpt>
      <trkpt lat="46.160602234303951" lon="10.45901907607913">
        <ele>2762.4899999999998</ele>
        <time>2018-07-12T08:48:18Z</time>
      </trkpt>
      <trkpt lat="46.160602988675237" lon="10.459023099392653">
        <ele>2762.4899999999998</ele>
        <time>2018-07-12T08:48:19Z</time>
      </trkpt>
      <trkpt lat="46.16060072556138" lon="10.45905084349215">
        <ele>2761.52</ele>
        <time>2018-07-12T08:48:26Z</time>
      </trkpt>
      <trkpt lat="46.160588655620813" lon="10.459034498780966">
        <ele>2761.52</ele>
        <time>2018-07-12T08:48:36Z</time>
      </trkpt>
      <trkpt lat="46.160578597337008" lon="10.459027206525207">
        <ele>2761.52</ele>
        <time>2018-07-12T08:48:50Z</time>
      </trkpt>
      <trkpt lat="46.160589158535004" lon="10.459029385820031">
        <ele>2761.52</ele>
        <time>2018-07-12T08:49:01Z</time>
      </trkpt>
      <trkpt lat="46.160605251789093" lon="10.459044557064772">
        <ele>2761.04</ele>
        <time>2018-07-12T08:49:15Z</time>
      </trkpt>
      <trkpt lat="46.16060215048492" lon="10.459140026941895">
        <ele>2759.1199999999999</ele>
        <time>2018-07-12T08:49:24Z</time>
      </trkpt>
      <trkpt lat="46.160602485761046" lon="10.459157461300492">
        <ele>2758.1599999999999</ele>
        <time>2018-07-12T08:49:33Z</time>
      </trkpt>
      <trkpt lat="46.160603407770395" lon="10.459159640595317">
        <ele>2758.6399999999999</ele>
        <time>2018-07-12T08:49:43Z</time>
      </trkpt>
      <trkpt lat="46.160610364750028" lon="10.459175063297153">
        <ele>2756.7199999999998</ele>
        <time>2018-07-12T08:49:53Z</time>
      </trkpt>
      <trkpt lat="46.160631738603115" lon="10.45917640440166">
        <ele>2755.2800000000002</ele>
        <time>2018-07-12T08:50:04Z</time>
      </trkpt>
      <trkpt lat="46.160652777180076" lon="10.459213452413678">
        <ele>2753.3499999999999</ele>
        <time>2018-07-12T08:50:14Z</time>
      </trkpt>
      <trkpt lat="46.160660739988089" lon="10.459215212613344">
        <ele>2752.8699999999999</ele>
        <time>2018-07-12T08:50:17Z</time>
      </trkpt>
      <trkpt lat="46.16065688431263" lon="10.459265587851405">
        <ele>2750.4699999999998</ele>
        <time>2018-07-12T08:50:26Z</time>
      </trkpt>
      <trkpt lat="46.160700805485249" lon="10.459278663620353">
        <ele>2749.9899999999998</ele>
        <time>2018-07-12T08:50:41Z</time>
      </trkpt>
      <trkpt lat="46.160731734707952" lon="10.45928779989481">
        <ele>2749.5100000000002</ele>
        <time>2018-07-12T08:50:50Z</time>
      </trkpt>
      <trkpt lat="46.160722179338336" lon="10.459316382184625">
        <ele>2749.5100000000002</ele>
        <time>2018-07-12T08:50:55Z</time>
      </trkpt>
      <trkpt lat="46.160698123276234" lon="10.459343204274774">
        <ele>2749.0300000000002</ele>
        <time>2018-07-12T08:51:06Z</time>
      </trkpt>
      <trkpt lat="46.160696363076568" lon="10.459330379962921">
        <ele>2749.0300000000002</ele>
        <time>2018-07-12T08:51:22Z</time>
      </trkpt>
      <trkpt lat="46.160694267600775" lon="10.459360387176275">
        <ele>2747.5900000000001</ele>
        <time>2018-07-12T08:51:31Z</time>
      </trkpt>
      <trkpt lat="46.160744307562709" lon="10.459386873990297">
        <ele>2746.6199999999999</ele>
        <time>2018-07-12T08:51:41Z</time>
      </trkpt>
      <trkpt lat="46.16076048463583" lon="10.459419228136539">
        <ele>2745.6599999999999</ele>
        <time>2018-07-12T08:51:47Z</time>
      </trkpt>
      <trkpt lat="46.160764507949352" lon="10.459477650001645">
        <ele>2744.6999999999998</ele>
        <time>2018-07-12T08:51:57Z</time>
      </trkpt>
      <trkpt lat="46.160777416080236" lon="10.459500951692462">
        <ele>2745.1799999999998</ele>
        <time>2018-07-12T08:52:03Z</time>
      </trkpt>
      <trkpt lat="46.160809602588415" lon="10.459465328603983">
        <ele>2745.1799999999998</ele>
        <time>2018-07-12T08:52:14Z</time>
      </trkpt>
      <trkpt lat="46.160825109109282" lon="10.459480667486787">
        <ele>2744.6999999999998</ele>
        <time>2018-07-12T08:52:28Z</time>
      </trkpt>
      <trkpt lat="46.160827539861202" lon="10.459474883973598">
        <ele>2744.2199999999998</ele>
        <time>2018-07-12T08:52:38Z</time>
      </trkpt>
      <trkpt lat="46.160827791318297" lon="10.459462814033031">
        <ele>2744.2199999999998</ele>
        <time>2018-07-12T08:52:49Z</time>
      </trkpt>
      <trkpt lat="46.16081714630127" lon="10.459474297240376">
        <ele>2744.6999999999998</ele>
        <time>2018-07-12T08:53:00Z</time>
      </trkpt>
      <trkpt lat="46.160837346687913" lon="10.459465328603983">
        <ele>2743.7399999999998</ele>
        <time>2018-07-12T08:53:15Z</time>
      </trkpt>
      <trkpt lat="46.160847237333655" lon="10.459458623081446">
        <ele>2743.7399999999998</ele>
        <time>2018-07-12T08:53:38Z</time>
      </trkpt>
      <trkpt lat="46.160854529589415" lon="10.459473710507154">
        <ele>2743.7399999999998</ele>
        <time>2018-07-12T08:53:58Z</time>
      </trkpt>
      <trkpt lat="46.160852937027812" lon="10.459462227299809">
        <ele>2744.2199999999998</ele>
        <time>2018-07-12T08:54:21Z</time>
      </trkpt>
      <trkpt lat="46.160834915935993" lon="10.459490641951561">
        <ele>2744.2199999999998</ele>
        <time>2018-07-12T08:54:33Z</time>
      </trkpt>
      <trkpt lat="46.1608518473804" lon="10.459499023854733">
        <ele>2744.2199999999998</ele>
        <time>2018-07-12T08:54:53Z</time>
      </trkpt>
      <trkpt lat="46.160870119929314" lon="10.459548309445381">
        <ele>2744.2199999999998</ele>
        <time>2018-07-12T08:55:12Z</time>
      </trkpt>
      <trkpt lat="46.160857798531651" lon="10.459581082686782">
        <ele>2744.6999999999998</ele>
        <time>2018-07-12T08:55:38Z</time>
      </trkpt>
      <trkpt lat="46.160854278132319" lon="10.459603713825345">
        <ele>2746.1399999999999</ele>
        <time>2018-07-12T08:55:47Z</time>
      </trkpt>
      <trkpt lat="46.160851595923305" lon="10.45958443544805">
        <ele>2744.6999999999998</ele>
        <time>2018-07-12T08:55:49Z</time>
      </trkpt>
      <trkpt lat="46.160885794088244" lon="10.459657106548548">
        <ele>2744.6999999999998</ele>
        <time>2018-07-12T08:56:15Z</time>
      </trkpt>
      <trkpt lat="46.160916890949011" lon="10.459609497338533">
        <ele>2744.6999999999998</ele>
        <time>2018-07-12T08:56:38Z</time>
      </trkpt>
      <trkpt lat="46.16091588512063" lon="10.45955266803503">
        <ele>2744.6999999999998</ele>
        <time>2018-07-12T08:57:01Z</time>
      </trkpt>
      <trkpt lat="46.160882273688912" lon="10.459546130150557">
        <ele>2745.1799999999998</ele>
        <time>2018-07-12T08:57:25Z</time>
      </trkpt>
      <trkpt lat="46.160899288952351" lon="10.459515620023012">
        <ele>2745.6599999999999</ele>
        <time>2018-07-12T08:57:49Z</time>
      </trkpt>
      <trkpt lat="46.160959051921964" lon="10.45943439938128">
        <ele>2745.1799999999998</ele>
        <time>2018-07-12T08:58:11Z</time>
      </trkpt>
      <trkpt lat="46.160957962274551" lon="10.459476644173265">
        <ele>2745.1799999999998</ele>
        <time>2018-07-12T08:58:32Z</time>
      </trkpt>
      <trkpt lat="46.160981515422463" lon="10.459453677758574">
        <ele>2745.1799999999998</ele>
        <time>2018-07-12T08:58:42Z</time>
      </trkpt>
      <trkpt lat="46.160903479903936" lon="10.459474548697472">
        <ele>2745.6599999999999</ele>
        <time>2018-07-12T08:58:48Z</time>
      </trkpt>
      <trkpt lat="46.160869617015123" lon="10.459468765184283">
        <ele>2746.1399999999999</ele>
        <time>2018-07-12T08:58:58Z</time>
      </trkpt>
      <trkpt lat="46.160871544852853" lon="10.459483433514833">
        <ele>2746.1399999999999</ele>
        <time>2018-07-12T08:59:12Z</time>
      </trkpt>
      <trkpt lat="46.160854529589415" lon="10.459516793489456">
        <ele>2746.1399999999999</ele>
        <time>2018-07-12T08:59:21Z</time>
      </trkpt>
      <trkpt lat="46.160814799368382" lon="10.459515703842044">
        <ele>2746.1399999999999</ele>
        <time>2018-07-12T08:59:36Z</time>
      </trkpt>
      <trkpt lat="46.160832736641169" lon="10.459492905065417">
        <ele>2747.5900000000001</ele>
        <time>2018-07-12T08:59:49Z</time>
      </trkpt>
      <trkpt lat="46.160819241777062" lon="10.459470944479108">
        <ele>2746.1399999999999</ele>
        <time>2018-07-12T09:00:11Z</time>
      </trkpt>
      <trkpt lat="46.160805411636829" lon="10.459450241178274">
        <ele>2746.1399999999999</ele>
        <time>2018-07-12T09:00:23Z</time>
      </trkpt>
      <trkpt lat="46.160799544304609" lon="10.459481338039041">
        <ele>2745.6599999999999</ele>
        <time>2018-07-12T09:00:37Z</time>
      </trkpt>
      <trkpt lat="46.160784540697932" lon="10.459471866488457">
        <ele>2745.6599999999999</ele>
        <time>2018-07-12T09:00:49Z</time>
      </trkpt>
      <trkpt lat="46.160796945914626" lon="10.459471363574266">
        <ele>2745.6599999999999</ele>
        <time>2018-07-12T09:01:07Z</time>
      </trkpt>
      <trkpt lat="46.160809770226479" lon="10.459467088803649">
        <ele>2746.1399999999999</ele>
        <time>2018-07-12T09:01:27Z</time>
      </trkpt>
      <trkpt lat="46.160820163786411" lon="10.459493827074766">
        <ele>2746.1399999999999</ele>
        <time>2018-07-12T09:01:36Z</time>
      </trkpt>
      <trkpt lat="46.160816894844174" lon="10.4594920668751">
        <ele>2746.1399999999999</ele>
        <time>2018-07-12T09:01:46Z</time>
      </trkpt>
      <trkpt lat="46.160822762176394" lon="10.459476141259074">
        <ele>2745.6599999999999</ele>
        <time>2018-07-12T09:02:04Z</time>
      </trkpt>
      <trkpt lat="46.160806333646178" lon="10.45945149846375">
        <ele>2745.6599999999999</ele>
        <time>2018-07-12T09:02:15Z</time>
      </trkpt>
      <trkpt lat="46.160794515162706" lon="10.45947689563036">
        <ele>2745.6599999999999</ele>
        <time>2018-07-12T09:02:25Z</time>
      </trkpt>
      <trkpt lat="46.160877412185073" lon="10.459550237283111">
        <ele>2744.2199999999998</ele>
        <time>2018-07-12T09:02:37Z</time>
      </trkpt>
      <trkpt lat="46.160916136577725" lon="10.459632631391287">
        <ele>2741.3400000000001</ele>
        <time>2018-07-12T09:02:49Z</time>
      </trkpt>
      <trkpt lat="46.160944802686572" lon="10.459694573655725">
        <ele>2738.9299999999998</ele>
        <time>2018-07-12T09:03:01Z</time>
      </trkpt>
      <trkpt lat="46.160977995023131" lon="10.459709074348211">
        <ele>2738.9299999999998</ele>
        <time>2018-07-12T09:03:11Z</time>
      </trkpt>
      <trkpt lat="46.160995345562696" lon="10.459726927801967">
        <ele>2737.9699999999998</ele>
        <time>2018-07-12T09:03:25Z</time>
      </trkpt>
      <trkpt lat="46.161008086055517" lon="10.459711086004972">
        <ele>2737.9699999999998</ele>
        <time>2018-07-12T09:03:33Z</time>
      </trkpt>
      <trkpt lat="46.161028034985065" lon="10.459734806790948">
        <ele>2737.4899999999998</ele>
        <time>2018-07-12T09:03:42Z</time>
      </trkpt>
      <trkpt lat="46.161051001399755" lon="10.459779063239694">
        <ele>2735.5700000000002</ele>
        <time>2018-07-12T09:03:51Z</time>
      </trkpt>
      <trkpt lat="46.161076985299587" lon="10.45978669077158">
        <ele>2734.6100000000001</ele>
        <time>2018-07-12T09:03:55Z</time>
      </trkpt>
      <trkpt lat="46.161127109080553" lon="10.459793480113149">
        <ele>2733.6500000000001</ele>
        <time>2018-07-12T09:04:06Z</time>
      </trkpt>
      <trkpt lat="46.161169018596411" lon="10.459842849522829">
        <ele>2731.7199999999998</ele>
        <time>2018-07-12T09:04:19Z</time>
      </trkpt>
      <trkpt lat="46.16119097918272" lon="10.459837401285768">
        <ele>2730.7600000000002</ele>
        <time>2018-07-12T09:04:29Z</time>
      </trkpt>
      <trkpt lat="46.161227272823453" lon="10.45980965718627">
        <ele>2730.7600000000002</ele>
        <time>2018-07-12T09:04:42Z</time>
      </trkpt>
      <trkpt lat="46.161263147369027" lon="10.459805969148874">
        <ele>2730.2800000000002</ele>
        <time>2018-07-12T09:04:52Z</time>
      </trkpt>
      <trkpt lat="46.161272451281548" lon="10.459798676893115">
        <ele>2730.2800000000002</ele>
        <time>2018-07-12T09:05:01Z</time>
      </trkpt>
      <trkpt lat="46.161254262551665" lon="10.459840251132846">
        <ele>2728.8400000000001</ele>
        <time>2018-07-12T09:05:12Z</time>
      </trkpt>
      <trkpt lat="46.161301033571362" lon="10.45985072851181">
        <ele>2727.8800000000001</ele>
        <time>2018-07-12T09:05:22Z</time>
      </trkpt>
      <trkpt lat="46.161306481808424" lon="10.459874281659722">
        <ele>2727.4000000000001</ele>
        <time>2018-07-12T09:05:36Z</time>
      </trkpt>
      <trkpt lat="46.161324921995401" lon="10.459926081821322">
        <ele>2726.9200000000001</ele>
        <time>2018-07-12T09:05:45Z</time>
      </trkpt>
      <trkpt lat="46.161341853439808" lon="10.459987856447697">
        <ele>2726.4400000000001</ele>
        <time>2018-07-12T09:05:55Z</time>
      </trkpt>
      <trkpt lat="46.161341518163681" lon="10.459991795942187">
        <ele>2725.96</ele>
        <time>2018-07-12T09:06:05Z</time>
      </trkpt>
      <trkpt lat="46.161312097683549" lon="10.460047703236341">
        <ele>2725.96</ele>
        <time>2018-07-12T09:06:17Z</time>
      </trkpt>
      <trkpt lat="46.161341769620776" lon="10.460088271647692">
        <ele>2724.9899999999998</ele>
        <time>2018-07-12T09:06:27Z</time>
      </trkpt>
      <trkpt lat="46.161397341638803" lon="10.460105957463384">
        <ele>2723.0700000000002</ele>
        <time>2018-07-12T09:06:37Z</time>
      </trkpt>
      <trkpt lat="46.161452746018767" lon="10.460132109001279">
        <ele>2720.6700000000001</ele>
        <time>2018-07-12T09:06:50Z</time>
      </trkpt>
      <trkpt lat="46.161466324701905" lon="10.460224477574229">
        <ele>2718.75</ele>
        <time>2018-07-12T09:07:00Z</time>
      </trkpt>
      <trkpt lat="46.161467833444476" lon="10.460323551669717">
        <ele>2717.3000000000002</ele>
        <time>2018-07-12T09:07:09Z</time>
      </trkpt>
      <trkpt lat="46.161436149850488" lon="10.460366634652019">
        <ele>2716.8200000000002</ele>
        <time>2018-07-12T09:07:19Z</time>
      </trkpt>
      <trkpt lat="46.161430533975363" lon="10.460395887494087">
        <ele>2716.3400000000001</ele>
        <time>2018-07-12T09:07:23Z</time>
      </trkpt>
      <trkpt lat="46.16143480874598" lon="10.460464870557189">
        <ele>2714.4200000000001</ele>
        <time>2018-07-12T09:07:34Z</time>
      </trkpt>
      <trkpt lat="46.161450482904911" lon="10.460510887205601">
        <ele>2713.9400000000001</ele>
        <time>2018-07-12T09:07:38Z</time>
      </trkpt>
      <trkpt lat="46.16147973574698" lon="10.460536787286401">
        <ele>2713.46</ele>
        <time>2018-07-12T09:07:41Z</time>
      </trkpt>
      <trkpt lat="46.161517621949315" lon="10.460592610761523">
        <ele>2713.46</ele>
        <time>2018-07-12T09:07:53Z</time>
      </trkpt>
      <trkpt lat="46.161515107378364" lon="10.460571236908436">
        <ele>2712.98</ele>
        <time>2018-07-12T09:08:02Z</time>
      </trkpt>
      <trkpt lat="46.161578977480531" lon="10.460563441738486">
        <ele>2711.54</ele>
        <time>2018-07-12T09:08:11Z</time>
      </trkpt>
      <trkpt lat="46.161600099876523" lon="10.460564866662025">
        <ele>2711.0599999999999</ele>
        <time>2018-07-12T09:08:14Z</time>
      </trkpt>
      <trkpt lat="46.161650475114584" lon="10.460622534155846">
        <ele>2709.1300000000001</ele>
        <time>2018-07-12T09:08:24Z</time>
      </trkpt>
      <trkpt lat="46.161650223657489" lon="10.460635107010603">
        <ele>2708.1700000000001</ele>
        <time>2018-07-12T09:08:35Z</time>
      </trkpt>
      <trkpt lat="46.161707052960992" lon="10.460633346810937">
        <ele>2707.6900000000001</ele>
        <time>2018-07-12T09:08:46Z</time>
      </trkpt>
      <trkpt lat="46.16173529997468" lon="10.460650278255343">
        <ele>2707.21</ele>
        <time>2018-07-12T09:08:55Z</time>
      </trkpt>
      <trkpt lat="46.161757595837116" lon="10.460642063990235">
        <ele>2706.25</ele>
        <time>2018-07-12T09:08:58Z</time>
      </trkpt>
      <trkpt lat="46.161786932498217" lon="10.460629407316446">
        <ele>2706.25</ele>
        <time>2018-07-12T09:09:02Z</time>
      </trkpt>
      <trkpt lat="46.161817777901888" lon="10.460613984614611">
        <ele>2705.77</ele>
        <time>2018-07-12T09:09:07Z</time>
      </trkpt>
      <trkpt lat="46.161884665489197" lon="10.460638208314776">
        <ele>2704.3299999999999</ele>
        <time>2018-07-12T09:09:18Z</time>
      </trkpt>
      <trkpt lat="46.161925317719579" lon="10.460663856938481">
        <ele>2702.4000000000001</ele>
        <time>2018-07-12T09:09:28Z</time>
      </trkpt>
      <trkpt lat="46.161965215578675" lon="10.460702832788229">
        <ele>2700.96</ele>
        <time>2018-07-12T09:09:38Z</time>
      </trkpt>
      <trkpt lat="46.161971585825086" lon="10.460762595757842">
        <ele>2699.52</ele>
        <time>2018-07-12T09:09:46Z</time>
      </trkpt>
      <trkpt lat="46.162006286904216" lon="10.46082847751677">
        <ele>2698.5599999999999</ele>
        <time>2018-07-12T09:09:56Z</time>
      </trkpt>
      <trkpt lat="46.16202699020505" lon="10.460905423387885">
        <ele>2695.6700000000001</ele>
        <time>2018-07-12T09:10:06Z</time>
      </trkpt>
      <trkpt lat="46.162035623565316" lon="10.460921097546816">
        <ele>2694.71</ele>
        <time>2018-07-12T09:10:16Z</time>
      </trkpt>
      <trkpt lat="46.162041742354631" lon="10.460921013727784">
        <ele>2694.23</ele>
        <time>2018-07-12T09:10:28Z</time>
      </trkpt>
      <trkpt lat="46.162067893892527" lon="10.460919756442308">
        <ele>2694.23</ele>
        <time>2018-07-12T09:10:32Z</time>
      </trkpt>
      <trkpt lat="46.162110306322575" lon="10.460911458358169">
        <ele>2694.71</ele>
        <time>2018-07-12T09:10:37Z</time>
      </trkpt>
      <trkpt lat="46.162133021280169" lon="10.46087583526969">
        <ele>2693.75</ele>
        <time>2018-07-12T09:10:42Z</time>
      </trkpt>
      <trkpt lat="46.162203680723906" lon="10.460914392024279">
        <ele>2693.27</ele>
        <time>2018-07-12T09:10:52Z</time>
      </trkpt>
      <trkpt lat="46.162234358489513" lon="10.460928725078702">
        <ele>2693.27</ele>
        <time>2018-07-12T09:10:58Z</time>
      </trkpt>
      <trkpt lat="46.162283811718225" lon="10.461010029539466">
        <ele>2692.3099999999999</ele>
        <time>2018-07-12T09:11:08Z</time>
      </trkpt>
      <trkpt lat="46.162332845851779" lon="10.461029978469014">
        <ele>2690.8699999999999</ele>
        <time>2018-07-12T09:11:16Z</time>
      </trkpt>
      <trkpt lat="46.162384646013379" lon="10.461069708690047">
        <ele>2690.3899999999999</ele>
        <time>2018-07-12T09:11:27Z</time>
      </trkpt>
      <trkpt lat="46.162393698468804" lon="10.461073396727443">
        <ele>2689.9099999999999</ele>
        <time>2018-07-12T09:11:29Z</time>
      </trkpt>
      <trkpt lat="46.162478188052773" lon="10.461101057007909">
        <ele>2688.9400000000001</ele>
        <time>2018-07-12T09:11:40Z</time>
      </trkpt>
      <trkpt lat="46.16252101957798" lon="10.461109690368176">
        <ele>2687.98</ele>
        <time>2018-07-12T09:11:49Z</time>
      </trkpt>
      <trkpt lat="46.162513392046094" lon="10.461148079484701">
        <ele>2687.98</ele>
        <time>2018-07-12T09:12:08Z</time>
      </trkpt>
      <trkpt lat="46.16256108507514" lon="10.461156126111746">
        <ele>2687.02</ele>
        <time>2018-07-12T09:12:16Z</time>
      </trkpt>
      <trkpt lat="46.162620848044753" lon="10.461207171902061">
        <ele>2685.0999999999999</ele>
        <time>2018-07-12T09:12:25Z</time>
      </trkpt>
      <trkpt lat="46.162659907713532" lon="10.461264001205564">
        <ele>2682.6999999999998</ele>
        <time>2018-07-12T09:12:34Z</time>
      </trkpt>
      <trkpt lat="46.162731070071459" lon="10.461298702284694">
        <ele>2681.25</ele>
        <time>2018-07-12T09:12:44Z</time>
      </trkpt>
      <trkpt lat="46.162767447531223" lon="10.461359890177846">
        <ele>2678.8499999999999</ele>
        <time>2018-07-12T09:12:55Z</time>
      </trkpt>
      <trkpt lat="46.162752276286483" lon="10.461355866864324">
        <ele>2678.3699999999999</ele>
        <time>2018-07-12T09:13:06Z</time>
      </trkpt>
      <trkpt lat="46.162764513865113" lon="10.461352346464992">
        <ele>2677.4099999999999</ele>
        <time>2018-07-12T09:13:17Z</time>
      </trkpt>
      <trkpt lat="46.162782367318869" lon="10.461361231282353">
        <ele>2677.4099999999999</ele>
        <time>2018-07-12T09:13:37Z</time>
      </trkpt>
      <trkpt lat="46.162778092548251" lon="10.461348658427596">
        <ele>2677.4099999999999</ele>
        <time>2018-07-12T09:14:01Z</time>
      </trkpt>
      <trkpt lat="46.162762502208352" lon="10.461389226838946">
        <ele>2677.4099999999999</ele>
        <time>2018-07-12T09:14:16Z</time>
      </trkpt>
      <trkpt lat="46.162741798907518" lon="10.461363075301051">
        <ele>2677.8899999999999</ele>
        <time>2018-07-12T09:14:24Z</time>
      </trkpt>
      <trkpt lat="46.16278680972755" lon="10.461356118321419">
        <ele>2677.8899999999999</ele>
        <time>2018-07-12T09:14:39Z</time>
      </trkpt>
      <trkpt lat="46.162814805284142" lon="10.461421748623252">
        <ele>2675.4899999999998</ele>
        <time>2018-07-12T09:14:50Z</time>
      </trkpt>
      <trkpt lat="46.162831988185644" lon="10.46141822822392">
        <ele>2674.04</ele>
        <time>2018-07-12T09:15:03Z</time>
      </trkpt>
      <trkpt lat="46.16287968121469" lon="10.461418312042952">
        <ele>2674.04</ele>
        <time>2018-07-12T09:15:13Z</time>
      </trkpt>
      <trkpt lat="46.162904240190983" lon="10.46146466396749">
        <ele>2672.5999999999999</ele>
        <time>2018-07-12T09:15:22Z</time>
      </trkpt>
      <trkpt lat="46.162939695641398" lon="10.461528701707721">
        <ele>2670.1999999999998</ele>
        <time>2018-07-12T09:15:35Z</time>
      </trkpt>
      <trkpt lat="46.162997530773282" lon="10.461537083610892">
        <ele>2669.2399999999998</ele>
        <time>2018-07-12T09:15:44Z</time>
      </trkpt>
      <trkpt lat="46.163029465824366" lon="10.461590643972158">
        <ele>2668.2800000000002</ele>
        <time>2018-07-12T09:15:55Z</time>
      </trkpt>
      <trkpt lat="46.163031896576285" lon="10.461651915684342">
        <ele>2667.8000000000002</ele>
        <time>2018-07-12T09:16:00Z</time>
      </trkpt>
      <trkpt lat="46.162930224090815" lon="10.461733555421233">
        <ele>2666.8299999999999</ele>
        <time>2018-07-12T09:16:11Z</time>
      </trkpt>
      <trkpt lat="46.162867527455091" lon="10.46181452460587">
        <ele>2665.8699999999999</ele>
        <time>2018-07-12T09:16:21Z</time>
      </trkpt>
      <trkpt lat="46.162805166095495" lon="10.46186875551939">
        <ele>2663.9499999999998</ele>
        <time>2018-07-12T09:16:31Z</time>
      </trkpt>
      <trkpt lat="46.162811703979969" lon="10.46192055568099">
        <ele>2662.0300000000002</ele>
        <time>2018-07-12T09:16:40Z</time>
      </trkpt>
      <trkpt lat="46.162826539948583" lon="10.461973194032907">
        <ele>2660.1100000000001</ele>
        <time>2018-07-12T09:16:50Z</time>
      </trkpt>
      <trkpt lat="46.162814889103174" lon="10.462051564827561">
        <ele>2658.1799999999998</ele>
        <time>2018-07-12T09:17:00Z</time>
      </trkpt>
      <trkpt lat="46.1627824511379" lon="10.462129348888993">
        <ele>2656.7399999999998</ele>
        <time>2018-07-12T09:17:09Z</time>
      </trkpt>
      <trkpt lat="46.162800304591656" lon="10.462191542610526">
        <ele>2655.7800000000002</ele>
        <time>2018-07-12T09:17:18Z</time>
      </trkpt>
      <trkpt lat="46.16280248388648" lon="10.462211659178138">
        <ele>2655.3000000000002</ele>
        <time>2018-07-12T09:17:20Z</time>
      </trkpt>
      <trkpt lat="46.162847159430385" lon="10.462280223146081">
        <ele>2652.9000000000001</ele>
        <time>2018-07-12T09:17:31Z</time>
      </trkpt>
      <trkpt lat="46.162836514413357" lon="10.462360270321369">
        <ele>2651.4499999999998</ele>
        <time>2018-07-12T09:17:40Z</time>
      </trkpt>
      <trkpt lat="46.162840286269784" lon="10.462418356910348">
        <ele>2649.0500000000002</ele>
        <time>2018-07-12T09:17:51Z</time>
      </trkpt>
      <trkpt lat="46.162839280441403" lon="10.462463451549411">
        <ele>2648.0900000000001</ele>
        <time>2018-07-12T09:18:00Z</time>
      </trkpt>
      <trkpt lat="46.162861157208681" lon="10.462536541745067">
        <ele>2644.7199999999998</ele>
        <time>2018-07-12T09:18:12Z</time>
      </trkpt>
      <trkpt lat="46.162861995398998" lon="10.462604854255915">
        <ele>2643.7600000000002</ele>
        <time>2018-07-12T09:18:23Z</time>
      </trkpt>
      <trkpt lat="46.162863420322537" lon="10.462658749893308">
        <ele>2642.3200000000002</ele>
        <time>2018-07-12T09:18:32Z</time>
      </trkpt>
      <trkpt lat="46.162885213270783" lon="10.46271113678813">
        <ele>2641.3600000000001</ele>
        <time>2018-07-12T09:18:43Z</time>
      </trkpt>
      <trkpt lat="46.162947826087475" lon="10.462733013555408">
        <ele>2639.4400000000001</ele>
        <time>2018-07-12T09:18:53Z</time>
      </trkpt>
      <trkpt lat="46.16300624795258" lon="10.462776515632868">
        <ele>2638.96</ele>
        <time>2018-07-12T09:19:03Z</time>
      </trkpt>
      <trkpt lat="46.163038183003664" lon="10.462769558653235">
        <ele>2637.9899999999998</ele>
        <time>2018-07-12T09:19:14Z</time>
      </trkpt>
      <trkpt lat="46.163068190217018" lon="10.462787831202149">
        <ele>2637.0300000000002</ele>
        <time>2018-07-12T09:19:28Z</time>
      </trkpt>
      <trkpt lat="46.163108674809337" lon="10.462805852293968">
        <ele>2634.6300000000001</ele>
        <time>2018-07-12T09:19:38Z</time>
      </trkpt>
      <trkpt lat="46.163135915994644" lon="10.462845833972096">
        <ele>2632.71</ele>
        <time>2018-07-12T09:19:46Z</time>
      </trkpt>
      <trkpt lat="46.163141280412674" lon="10.462860753759742">
        <ele>2632.71</ele>
        <time>2018-07-12T09:19:48Z</time>
      </trkpt>
      <trkpt lat="46.16315234452486" lon="10.462887492030859">
        <ele>2631.75</ele>
        <time>2018-07-12T09:19:51Z</time>
      </trkpt>
      <trkpt lat="46.163165420293808" lon="10.462900819256902">
        <ele>2631.27</ele>
        <time>2018-07-12T09:19:54Z</time>
      </trkpt>
      <trkpt lat="46.163185620680451" lon="10.462942896410823">
        <ele>2628.8600000000001</ele>
        <time>2018-07-12T09:20:04Z</time>
      </trkpt>
      <trkpt lat="46.163248652592301" lon="10.462922276929021">
        <ele>2627.4200000000001</ele>
        <time>2018-07-12T09:20:15Z</time>
      </trkpt>
      <trkpt lat="46.163289975374937" lon="10.462969969958067">
        <ele>2625.98</ele>
        <time>2018-07-12T09:20:27Z</time>
      </trkpt>
      <trkpt lat="46.163348816335201" lon="10.46300140209496">
        <ele>2625.02</ele>
        <time>2018-07-12T09:20:37Z</time>
      </trkpt>
      <trkpt lat="46.163405645638704" lon="10.46304389834404">
        <ele>2623.0900000000001</ele>
        <time>2018-07-12T09:20:49Z</time>
      </trkpt>
      <trkpt lat="46.163419308140874" lon="10.463094441220164">
        <ele>2621.6500000000001</ele>
        <time>2018-07-12T09:21:00Z</time>
      </trkpt>
      <trkpt lat="46.163425259292126" lon="10.463097291067243">
        <ele>2621.1700000000001</ele>
        <time>2018-07-12T09:21:16Z</time>
      </trkpt>
      <trkpt lat="46.163455853238702" lon="10.463104331865907">
        <ele>2620.6900000000001</ele>
        <time>2018-07-12T09:21:31Z</time>
      </trkpt>
      <trkpt lat="46.163503713905811" lon="10.463146409019828">
        <ele>2618.77</ele>
        <time>2018-07-12T09:21:42Z</time>
      </trkpt>
      <trkpt lat="46.163552664220333" lon="10.463155042380095">
        <ele>2616.8499999999999</ele>
        <time>2018-07-12T09:21:52Z</time>
      </trkpt>
      <trkpt lat="46.163601195439696" lon="10.46323299407959">
        <ele>2614.4400000000001</ele>
        <time>2018-07-12T09:22:04Z</time>
      </trkpt>
      <trkpt lat="46.163652911782265" lon="10.463228635489941">
        <ele>2613</ele>
        <time>2018-07-12T09:22:14Z</time>
      </trkpt>
      <trkpt lat="46.163697754964232" lon="10.463211955502629">
        <ele>2612.04</ele>
        <time>2018-07-12T09:22:23Z</time>
      </trkpt>
      <trkpt lat="46.163715608417988" lon="10.463293259963393">
        <ele>2610.5999999999999</ele>
        <time>2018-07-12T09:22:33Z</time>
      </trkpt>
      <trkpt lat="46.163728684186935" lon="10.463348748162389">
        <ele>2608.6700000000001</ele>
        <time>2018-07-12T09:22:44Z</time>
      </trkpt>
      <trkpt lat="46.163750477135181" lon="10.463392585515976">
        <ele>2606.75</ele>
        <time>2018-07-12T09:22:56Z</time>
      </trkpt>
      <trkpt lat="46.163777215406299" lon="10.463447319343686">
        <ele>2604.3499999999999</ele>
        <time>2018-07-12T09:23:06Z</time>
      </trkpt>
      <trkpt lat="46.163818538188934" lon="10.463447822257876">
        <ele>2603.3899999999999</ele>
        <time>2018-07-12T09:23:12Z</time>
      </trkpt>
      <trkpt lat="46.163902273401618" lon="10.463419910520315">
        <ele>2602.4299999999998</ele>
        <time>2018-07-12T09:23:20Z</time>
      </trkpt>
      <trkpt lat="46.163989109918475" lon="10.463440278545022">
        <ele>2601.46</ele>
        <time>2018-07-12T09:23:31Z</time>
      </trkpt>
      <trkpt lat="46.164075024425983" lon="10.463433656841516">
        <ele>2600.02</ele>
        <time>2018-07-12T09:23:40Z</time>
      </trkpt>
      <trkpt lat="46.164141073822975" lon="10.463428879156709">
        <ele>2600.5</ele>
        <time>2018-07-12T09:23:48Z</time>
      </trkpt>
      <trkpt lat="46.164192287251353" lon="10.463460395112634">
        <ele>2600.98</ele>
        <time>2018-07-12T09:23:59Z</time>
      </trkpt>
      <trkpt lat="46.164262108504772" lon="10.463471878319979">
        <ele>2599.54</ele>
        <time>2018-07-12T09:24:12Z</time>
      </trkpt>
      <trkpt lat="46.164321703836322" lon="10.463511943817139">
        <ele>2597.1399999999999</ele>
        <time>2018-07-12T09:24:23Z</time>
      </trkpt>
      <trkpt lat="46.164372246712446" lon="10.463543375954032">
        <ele>2595.2199999999998</ele>
        <time>2018-07-12T09:24:32Z</time>
      </trkpt>
      <trkpt lat="46.164396135136485" lon="10.463551254943013">
        <ele>2594.7399999999998</ele>
        <time>2018-07-12T09:24:43Z</time>
      </trkpt>
      <trkpt lat="46.164437709376216" lon="10.46360682696104">
        <ele>2592.3299999999999</ele>
        <time>2018-07-12T09:24:54Z</time>
      </trkpt>
      <trkpt lat="46.164475763216615" lon="10.463625686243176">
        <ele>2590.4099999999999</ele>
        <time>2018-07-12T09:25:04Z</time>
      </trkpt>
      <trkpt lat="46.164555056020617" lon="10.463618310168386">
        <ele>2589.4499999999998</ele>
        <time>2018-07-12T09:25:14Z</time>
      </trkpt>
      <trkpt lat="46.164615824818611" lon="10.46360288746655">
        <ele>2589.4499999999998</ele>
        <time>2018-07-12T09:25:24Z</time>
      </trkpt>
      <trkpt lat="46.164656728506088" lon="10.463622249662876">
        <ele>2589.4499999999998</ele>
        <time>2018-07-12T09:25:36Z</time>
      </trkpt>
      <trkpt lat="46.164679527282715" lon="10.463639097288251">
        <ele>2588.9699999999998</ele>
        <time>2018-07-12T09:25:52Z</time>
      </trkpt>
      <trkpt lat="46.164691429585218" lon="10.463646557182074">
        <ele>2588.4899999999998</ele>
        <time>2018-07-12T09:25:54Z</time>
      </trkpt>
      <trkpt lat="46.164800394326448" lon="10.463693328201771">
        <ele>2586.0799999999999</ele>
        <time>2018-07-12T09:26:07Z</time>
      </trkpt>
      <trkpt lat="46.16485713981092" lon="10.463712774217129">
        <ele>2583.6799999999998</ele>
        <time>2018-07-12T09:26:17Z</time>
      </trkpt>
      <trkpt lat="46.164921261370182" lon="10.463716713711619">
        <ele>2582.2399999999998</ele>
        <time>2018-07-12T09:26:29Z</time>
      </trkpt>
      <trkpt lat="46.164938695728779" lon="10.463783852756023">
        <ele>2579.8400000000001</ele>
        <time>2018-07-12T09:26:40Z</time>
      </trkpt>
      <trkpt lat="46.165003487840295" lon="10.463822325691581">
        <ele>2577.4299999999998</ele>
        <time>2018-07-12T09:26:51Z</time>
      </trkpt>
      <trkpt lat="46.16503500379622" lon="10.463838586583734">
        <ele>2577.4299999999998</ele>
        <time>2018-07-12T09:27:04Z</time>
      </trkpt>
      <trkpt lat="46.165069956332445" lon="10.463842945173383">
        <ele>2577.4299999999998</ele>
        <time>2018-07-12T09:27:14Z</time>
      </trkpt>
      <trkpt lat="46.165112787857652" lon="10.463901031762362">
        <ele>2576.9499999999998</ele>
        <time>2018-07-12T09:27:21Z</time>
      </trkpt>
      <trkpt lat="46.165127623826265" lon="10.463916789740324">
        <ele>2576.9499999999998</ele>
        <time>2018-07-12T09:27:23Z</time>
      </trkpt>
      <trkpt lat="46.165146818384528" lon="10.463922824710608">
        <ele>2576.4699999999998</ele>
        <time>2018-07-12T09:27:25Z</time>
      </trkpt>
      <trkpt lat="46.165208341553807" lon="10.463950233533978">
        <ele>2575.9899999999998</ele>
        <time>2018-07-12T09:27:32Z</time>
      </trkpt>
      <trkpt lat="46.165275815874338" lon="10.463996082544327">
        <ele>2575.0300000000002</ele>
        <time>2018-07-12T09:27:44Z</time>
      </trkpt>
      <trkpt lat="46.165323927998543" lon="10.464025503024459">
        <ele>2574.5500000000002</ele>
        <time>2018-07-12T09:27:53Z</time>
      </trkpt>
      <trkpt lat="46.165352677926421" lon="10.464061796665192">
        <ele>2574.0700000000002</ele>
        <time>2018-07-12T09:28:04Z</time>
      </trkpt>
      <trkpt lat="46.165426354855299" lon="10.464126588776708">
        <ele>2570.6999999999998</ele>
        <time>2018-07-12T09:28:16Z</time>
      </trkpt>
      <trkpt lat="46.165446555241942" lon="10.464182998985052">
        <ele>2569.2600000000002</ele>
        <time>2018-07-12T09:28:25Z</time>
      </trkpt>
      <trkpt lat="46.165489554405212" lon="10.464204624295235">
        <ele>2568.3000000000002</ele>
        <time>2018-07-12T09:28:34Z</time>
      </trkpt>
      <trkpt lat="46.165524255484343" lon="10.464219879359007">
        <ele>2568.3000000000002</ele>
        <time>2018-07-12T09:28:42Z</time>
      </trkpt>
      <trkpt lat="46.165560381487012" lon="10.464266650378704">
        <ele>2566.8600000000001</ele>
        <time>2018-07-12T09:28:52Z</time>
      </trkpt>
      <trkpt lat="46.165631711483002" lon="10.464306799694896">
        <ele>2566.3800000000001</ele>
        <time>2018-07-12T09:29:02Z</time>
      </trkpt>
      <trkpt lat="46.165655935183167" lon="10.464322473853827">
        <ele>2566.3800000000001</ele>
        <time>2018-07-12T09:29:06Z</time>
      </trkpt>
      <trkpt lat="46.165712177753448" lon="10.464401850476861">
        <ele>2565.4200000000001</ele>
        <time>2018-07-12T09:29:15Z</time>
      </trkpt>
      <trkpt lat="46.165804630145431" lon="10.464455913752317">
        <ele>2563.0100000000002</ele>
        <time>2018-07-12T09:29:27Z</time>
      </trkpt>
      <trkpt lat="46.165861627086997" lon="10.464542163535953">
        <ele>2562.0500000000002</ele>
        <time>2018-07-12T09:29:38Z</time>
      </trkpt>
      <trkpt lat="46.165909487754107" lon="10.464619696140289">
        <ele>2561.0900000000001</ele>
        <time>2018-07-12T09:29:45Z</time>
      </trkpt>
      <trkpt lat="46.165920719504356" lon="10.464665209874511">
        <ele>2559.6500000000001</ele>
        <time>2018-07-12T09:29:49Z</time>
      </trkpt>
      <trkpt lat="46.165957013145089" lon="10.464778617024422">
        <ele>2559.1700000000001</ele>
        <time>2018-07-12T09:30:01Z</time>
      </trkpt>
      <trkpt lat="46.165987439453602" lon="10.464764283969998">
        <ele>2558.21</ele>
        <time>2018-07-12T09:30:07Z</time>
      </trkpt>
      <trkpt lat="46.166066899895668" lon="10.464786412194371">
        <ele>2556.7600000000002</ele>
        <time>2018-07-12T09:30:17Z</time>
      </trkpt>
      <trkpt lat="46.166093805804849" lon="10.464811809360981">
        <ele>2555.8000000000002</ele>
        <time>2018-07-12T09:30:26Z</time>
      </trkpt>
      <trkpt lat="46.166124818846583" lon="10.464809546247125">
        <ele>2554.3600000000001</ele>
        <time>2018-07-12T09:30:36Z</time>
      </trkpt>
      <trkpt lat="46.166161112487316" lon="10.464801080524921">
        <ele>2553.8800000000001</ele>
        <time>2018-07-12T09:30:47Z</time>
      </trkpt>
      <trkpt lat="46.166211739182472" lon="10.464802505448461">
        <ele>2552.4400000000001</ele>
        <time>2018-07-12T09:30:56Z</time>
      </trkpt>
      <trkpt lat="46.166243506595492" lon="10.464832009747624">
        <ele>2551.48</ele>
        <time>2018-07-12T09:31:07Z</time>
      </trkpt>
      <trkpt lat="46.166295055299997" lon="10.464809127151966">
        <ele>2550.5100000000002</ele>
        <time>2018-07-12T09:31:17Z</time>
      </trkpt>
      <trkpt lat="46.166308550164104" lon="10.464833937585354">
        <ele>2550.0300000000002</ele>
        <time>2018-07-12T09:31:26Z</time>
      </trkpt>
      <trkpt lat="46.166336126625538" lon="10.464851371943951">
        <ele>2548.5900000000001</ele>
        <time>2018-07-12T09:31:36Z</time>
      </trkpt>
      <trkpt lat="46.166343502700329" lon="10.464853886514902">
        <ele>2548.5900000000001</ele>
        <time>2018-07-12T09:31:39Z</time>
      </trkpt>
      <trkpt lat="46.166377617046237" lon="10.464871069416404">
        <ele>2548.1100000000001</ele>
        <time>2018-07-12T09:31:49Z</time>
      </trkpt>
      <trkpt lat="46.166381305083632" lon="10.464896131306887">
        <ele>2546.6700000000001</ele>
        <time>2018-07-12T09:32:01Z</time>
      </trkpt>
      <trkpt lat="46.166398236528039" lon="10.464898645877838">
        <ele>2546.1900000000001</ele>
        <time>2018-07-12T09:32:10Z</time>
      </trkpt>
      <trkpt lat="46.166422627866268" lon="10.464890012517571">
        <ele>2544.75</ele>
        <time>2018-07-12T09:32:21Z</time>
      </trkpt>
      <trkpt lat="46.166447186842561" lon="10.464880457147956">
        <ele>2544.27</ele>
        <time>2018-07-12T09:32:35Z</time>
      </trkpt>
      <trkpt lat="46.166465459391475" lon="10.464879870414734">
        <ele>2543.3099999999999</ele>
        <time>2018-07-12T09:32:47Z</time>
      </trkpt>
      <trkpt lat="46.166496640071273" lon="10.464888922870159">
        <ele>2542.8200000000002</ele>
        <time>2018-07-12T09:32:59Z</time>
      </trkpt>
      <trkpt lat="46.166524635627866" lon="10.464913733303547">
        <ele>2542.3400000000001</ele>
        <time>2018-07-12T09:33:07Z</time>
      </trkpt>
      <trkpt lat="46.166540142148733" lon="10.464917169883847">
        <ele>2541.8600000000001</ele>
        <time>2018-07-12T09:33:16Z</time>
      </trkpt>
      <trkpt lat="46.166567634791136" lon="10.464894371107221">
        <ele>2541.8600000000001</ele>
        <time>2018-07-12T09:33:24Z</time>
      </trkpt>
      <trkpt lat="46.166603593155742" lon="10.464913314208388">
        <ele>2540.4200000000001</ele>
        <time>2018-07-12T09:33:34Z</time>
      </trkpt>
      <trkpt lat="46.166650364175439" lon="10.464900489896536">
        <ele>2539.46</ele>
        <time>2018-07-12T09:33:41Z</time>
      </trkpt>
      <trkpt lat="46.166679784655571" lon="10.464937789365649">
        <ele>2538.98</ele>
        <time>2018-07-12T09:33:49Z</time>
      </trkpt>
      <trkpt lat="46.166720939800143" lon="10.464935274794698">
        <ele>2538.98</ele>
        <time>2018-07-12T09:33:58Z</time>
      </trkpt>
      <trkpt lat="46.16678673774004" lon="10.464943069964647">
        <ele>2538.02</ele>
        <time>2018-07-12T09:34:09Z</time>
      </trkpt>
      <trkpt lat="46.16682093590498" lon="10.464995708316565">
        <ele>2536.5799999999999</ele>
        <time>2018-07-12T09:34:19Z</time>
      </trkpt>
      <trkpt lat="46.166839124634862" lon="10.46504189260304">
        <ele>2536.5799999999999</ele>
        <time>2018-07-12T09:34:25Z</time>
      </trkpt>
      <trkpt lat="46.166961416602135" lon="10.465090926736593">
        <ele>2535.6100000000001</ele>
        <time>2018-07-12T09:34:38Z</time>
      </trkpt>
      <trkpt lat="46.167025286704302" lon="10.465084724128246">
        <ele>2535.6100000000001</ele>
        <time>2018-07-12T09:34:48Z</time>
      </trkpt>
      <trkpt lat="46.167083624750376" lon="10.465037869289517">
        <ele>2535.6100000000001</ele>
        <time>2018-07-12T09:34:59Z</time>
      </trkpt>
      <trkpt lat="46.167092677205801" lon="10.46505069360137">
        <ele>2536.0999999999999</ele>
        <time>2018-07-12T09:35:08Z</time>
      </trkpt>
      <trkpt lat="46.167096365243196" lon="10.465065026655793">
        <ele>2535.1300000000001</ele>
        <time>2018-07-12T09:35:20Z</time>
      </trkpt>
      <trkpt lat="46.167099298909307" lon="10.465063350275159">
        <ele>2535.6100000000001</ele>
        <time>2018-07-12T09:35:38Z</time>
      </trkpt>
      <trkpt lat="46.167086055502295" lon="10.465061170980334">
        <ele>2536.0999999999999</ele>
        <time>2018-07-12T09:35:53Z</time>
      </trkpt>
      <trkpt lat="46.167102232575417" lon="10.465052286162972">
        <ele>2538.02</ele>
        <time>2018-07-12T09:36:08Z</time>
      </trkpt>
      <trkpt lat="46.167106172069907" lon="10.465063853189349">
        <ele>2535.6100000000001</ele>
        <time>2018-07-12T09:36:11Z</time>
      </trkpt>
      <trkpt lat="46.167115559801459" lon="10.465060416609049">
        <ele>2535.6100000000001</ele>
        <time>2018-07-12T09:36:27Z</time>
      </trkpt>
      <trkpt lat="46.167141878977418" lon="10.465042311698198">
        <ele>2534.6500000000001</ele>
        <time>2018-07-12T09:36:42Z</time>
      </trkpt>
      <trkpt lat="46.167207844555378" lon="10.465051615610719">
        <ele>2532.73</ele>
        <time>2018-07-12T09:36:53Z</time>
      </trkpt>
      <trkpt lat="46.167241372168064" lon="10.465035019442439">
        <ele>2532.25</ele>
        <time>2018-07-12T09:37:03Z</time>
      </trkpt>
      <trkpt lat="46.167261907830834" lon="10.465069971978664">
        <ele>2531.77</ele>
        <time>2018-07-12T09:37:14Z</time>
      </trkpt>
      <trkpt lat="46.167275737971067" lon="10.465092770755291">
        <ele>2531.29</ele>
        <time>2018-07-12T09:37:19Z</time>
      </trkpt>
      <trkpt lat="46.167325275018811" lon="10.46510593034327">
        <ele>2530.3299999999999</ele>
        <time>2018-07-12T09:37:28Z</time>
      </trkpt>
      <trkpt lat="46.167337261140347" lon="10.465129064396024">
        <ele>2530.3299999999999</ele>
        <time>2018-07-12T09:37:40Z</time>
      </trkpt>
      <trkpt lat="46.167387301102281" lon="10.465167369693518">
        <ele>2528.8899999999999</ele>
        <time>2018-07-12T09:37:53Z</time>
      </trkpt>
      <trkpt lat="46.167435999959707" lon="10.465192934498191">
        <ele>2527.9200000000001</ele>
        <time>2018-07-12T09:38:03Z</time>
      </trkpt>
      <trkpt lat="46.167439101263881" lon="10.465258983895183">
        <ele>2526</ele>
        <time>2018-07-12T09:38:13Z</time>
      </trkpt>
      <trkpt lat="46.167461229488254" lon="10.465301228687167">
        <ele>2525.52</ele>
        <time>2018-07-12T09:38:21Z</time>
      </trkpt>
      <trkpt lat="46.167471371591091" lon="10.465325871482491">
        <ele>2525.04</ele>
        <time>2018-07-12T09:38:30Z</time>
      </trkpt>
      <trkpt lat="46.167506659403443" lon="10.465365517884493">
        <ele>2524.0799999999999</ele>
        <time>2018-07-12T09:38:40Z</time>
      </trkpt>
      <trkpt lat="46.167519483715296" lon="10.46540642157197">
        <ele>2523.5999999999999</ele>
        <time>2018-07-12T09:38:46Z</time>
      </trkpt>
      <trkpt lat="46.16751478984952" lon="10.465452941134572">
        <ele>2523.5999999999999</ele>
        <time>2018-07-12T09:38:59Z</time>
      </trkpt>
      <trkpt lat="46.167514286935329" lon="10.465457467362285">
        <ele>2523.5999999999999</ele>
        <time>2018-07-12T09:39:10Z</time>
      </trkpt>
      <trkpt lat="46.167508419603109" lon="10.465442799031734">
        <ele>2523.1199999999999</ele>
        <time>2018-07-12T09:39:33Z</time>
      </trkpt>
      <trkpt lat="46.167508251965046" lon="10.465412037447095">
        <ele>2523.1199999999999</ele>
        <time>2018-07-12T09:39:38Z</time>
      </trkpt>
      <trkpt lat="46.167520238086581" lon="10.465459143742919">
        <ele>2522.6399999999999</ele>
        <time>2018-07-12T09:39:46Z</time>
      </trkpt>
      <trkpt lat="46.167538845911622" lon="10.465546483173966">
        <ele>2520.71</ele>
        <time>2018-07-12T09:39:57Z</time>
      </trkpt>
      <trkpt lat="46.167566254734993" lon="10.465636420994997">
        <ele>2518.79</ele>
        <time>2018-07-12T09:40:08Z</time>
      </trkpt>
      <trkpt lat="46.16757245734334" lon="10.465680425986648">
        <ele>2517.3499999999999</ele>
        <time>2018-07-12T09:40:13Z</time>
      </trkpt>
      <trkpt lat="46.167576480656862" lon="10.465703308582306">
        <ele>2516.3899999999999</ele>
        <time>2018-07-12T09:40:20Z</time>
      </trkpt>
      <trkpt lat="46.167616797611117" lon="10.465824427083135">
        <ele>2513.5</ele>
        <time>2018-07-12T09:40:31Z</time>
      </trkpt>
      <trkpt lat="46.167626939713955" lon="10.46589408069849">
        <ele>2512.0599999999999</ele>
        <time>2018-07-12T09:40:41Z</time>
      </trkpt>
      <trkpt lat="46.16764915175736" lon="10.465916208922863">
        <ele>2509.6599999999999</ele>
        <time>2018-07-12T09:40:51Z</time>
      </trkpt>
      <trkpt lat="46.167703466489911" lon="10.465961890295148">
        <ele>2507.7399999999998</ele>
        <time>2018-07-12T09:41:02Z</time>
      </trkpt>
      <trkpt lat="46.167748561128974" lon="10.466046715155244">
        <ele>2505.3299999999999</ele>
        <time>2018-07-12T09:41:13Z</time>
      </trkpt>
      <trkpt lat="46.167778568342328" lon="10.466092396527529">
        <ele>2503.8899999999999</ele>
        <time>2018-07-12T09:41:24Z</time>
      </trkpt>
      <trkpt lat="46.167788626626134" lon="10.466122068464756">
        <ele>2502.9299999999998</ele>
        <time>2018-07-12T09:41:33Z</time>
      </trkpt>
      <trkpt lat="46.167805641889572" lon="10.466141682118177">
        <ele>2502.4499999999998</ele>
        <time>2018-07-12T09:41:50Z</time>
      </trkpt>
      <trkpt lat="46.167832966893911" lon="10.466176802292466">
        <ele>2501.0100000000002</ele>
        <time>2018-07-12T09:42:00Z</time>
      </trkpt>
      <trkpt lat="46.167854256927967" lon="10.466191973537207">
        <ele>2501.0100000000002</ele>
        <time>2018-07-12T09:42:09Z</time>
      </trkpt>
      <trkpt lat="46.167890802025795" lon="10.466198092326522">
        <ele>2500.5300000000002</ele>
        <time>2018-07-12T09:42:19Z</time>
      </trkpt>
      <trkpt lat="46.167915109544992" lon="10.466252574697137">
        <ele>2499.5700000000002</ele>
        <time>2018-07-12T09:42:28Z</time>
      </trkpt>
      <trkpt lat="46.167951487004757" lon="10.46630596742034">
        <ele>2498.1199999999999</ele>
        <time>2018-07-12T09:42:38Z</time>
      </trkpt>
      <trkpt lat="46.167951403185725" lon="10.466338908299804">
        <ele>2497.6399999999999</ele>
        <time>2018-07-12T09:42:42Z</time>
      </trkpt>
      <trkpt lat="46.167966155335307" lon="10.466379309073091">
        <ele>2497.1599999999999</ele>
        <time>2018-07-12T09:42:46Z</time>
      </trkpt>
      <trkpt lat="46.168006556108594" lon="10.466445609927177">
        <ele>2496.1999999999998</ele>
        <time>2018-07-12T09:42:56Z</time>
      </trkpt>
      <trkpt lat="46.168002197518945" lon="10.466489112004638">
        <ele>2494.7600000000002</ele>
        <time>2018-07-12T09:43:04Z</time>
      </trkpt>
      <trkpt lat="46.168006975203753" lon="10.466533452272415">
        <ele>2493.3200000000002</ele>
        <time>2018-07-12T09:43:13Z</time>
      </trkpt>
      <trkpt lat="46.167998928576708" lon="10.466588521376252">
        <ele>2491.8699999999999</ele>
        <time>2018-07-12T09:43:24Z</time>
      </trkpt>
      <trkpt lat="46.168014267459512" lon="10.466637723147869">
        <ele>2489.9499999999998</ele>
        <time>2018-07-12T09:43:36Z</time>
      </trkpt>
      <trkpt lat="46.16799172013998" lon="10.466684997081757">
        <ele>2488.0300000000002</ele>
        <time>2018-07-12T09:43:46Z</time>
      </trkpt>
      <trkpt lat="46.16794771514833" lon="10.466727744787931">
        <ele>2486.5900000000001</ele>
        <time>2018-07-12T09:43:56Z</time>
      </trkpt>
      <trkpt lat="46.167936148121953" lon="10.466757416725159">
        <ele>2486.1100000000001</ele>
        <time>2018-07-12T09:44:05Z</time>
      </trkpt>
      <trkpt lat="46.1679198872298" lon="10.466786585748196">
        <ele>2484.6599999999999</ele>
        <time>2018-07-12T09:44:13Z</time>
      </trkpt>
      <trkpt lat="46.167925586923957" lon="10.466821119189262">
        <ele>2483.6999999999998</ele>
        <time>2018-07-12T09:44:21Z</time>
      </trkpt>
      <trkpt lat="46.167917121201754" lon="10.466870572417974">
        <ele>2482.2600000000002</ele>
        <time>2018-07-12T09:44:31Z</time>
      </trkpt>
      <trkpt lat="46.167901698499918" lon="10.466879373416305">
        <ele>2481.3000000000002</ele>
        <time>2018-07-12T09:44:35Z</time>
      </trkpt>
      <trkpt lat="46.167909409850836" lon="10.466924635693431">
        <ele>2480.3400000000001</ele>
        <time>2018-07-12T09:44:43Z</time>
      </trkpt>
      <trkpt lat="46.167893987149" lon="10.466955481097102">
        <ele>2479.3800000000001</ele>
        <time>2018-07-12T09:44:54Z</time>
      </trkpt>
      <trkpt lat="46.167897004634142" lon="10.46698029153049">
        <ele>2478.4200000000001</ele>
        <time>2018-07-12T09:45:07Z</time>
      </trkpt>
      <trkpt lat="46.167900105938315" lon="10.46699546277523">
        <ele>2477.9400000000001</ele>
        <time>2018-07-12T09:45:18Z</time>
      </trkpt>
      <trkpt lat="46.167894825339317" lon="10.46701842918992">
        <ele>2477.4499999999998</ele>
        <time>2018-07-12T09:45:31Z</time>
      </trkpt>
      <trkpt lat="46.167898597195745" lon="10.467012813314795">
        <ele>2477.4499999999998</ele>
        <time>2018-07-12T09:45:43Z</time>
      </trkpt>
      <trkpt lat="46.167900022119284" lon="10.46701792627573">
        <ele>2476.9699999999998</ele>
        <time>2018-07-12T09:45:58Z</time>
      </trkpt>
      <trkpt lat="46.16791008040309" lon="10.467048436403275">
        <ele>2476.0100000000002</ele>
        <time>2018-07-12T09:46:06Z</time>
      </trkpt>
      <trkpt lat="46.167917959392071" lon="10.467076767235994">
        <ele>2475.5300000000002</ele>
        <time>2018-07-12T09:46:15Z</time>
      </trkpt>
      <trkpt lat="46.167940003797412" lon="10.467099398374557">
        <ele>2474.5700000000002</ele>
        <time>2018-07-12T09:46:25Z</time>
      </trkpt>
      <trkpt lat="46.167922485619783" lon="10.467142062261701">
        <ele>2472.6500000000001</ele>
        <time>2018-07-12T09:46:35Z</time>
      </trkpt>
      <trkpt lat="46.167909577488899" lon="10.467177350074053">
        <ele>2470.73</ele>
        <time>2018-07-12T09:46:43Z</time>
      </trkpt>
      <trkpt lat="46.167910164222121" lon="10.467265862971544">
        <ele>2467.3600000000001</ele>
        <time>2018-07-12T09:46:55Z</time>
      </trkpt>
      <trkpt lat="46.167925167828798" lon="10.467339204624295">
        <ele>2465.4400000000001</ele>
        <time>2018-07-12T09:47:05Z</time>
      </trkpt>
      <trkpt lat="46.167912678793073" lon="10.467383461073041">
        <ele>2463.04</ele>
        <time>2018-07-12T09:47:16Z</time>
      </trkpt>
      <trkpt lat="46.167912008240819" lon="10.467412211000919">
        <ele>2462.0700000000002</ele>
        <time>2018-07-12T09:47:27Z</time>
      </trkpt>
      <trkpt lat="46.167874708771706" lon="10.467434674501419">
        <ele>2459.6700000000001</ele>
        <time>2018-07-12T09:47:38Z</time>
      </trkpt>
      <trkpt lat="46.16787931881845" lon="10.467433668673038">
        <ele>2459.6700000000001</ele>
        <time>2018-07-12T09:47:52Z</time>
      </trkpt>
      <trkpt lat="46.167888958007097" lon="10.467478930950165">
        <ele>2458.71</ele>
        <time>2018-07-12T09:48:07Z</time>
      </trkpt>
      <trkpt lat="46.167907565832138" lon="10.467518912628293">
        <ele>2457.75</ele>
        <time>2018-07-12T09:48:17Z</time>
      </trkpt>
      <trkpt lat="46.167923323810101" lon="10.467528970912099">
        <ele>2456.79</ele>
        <time>2018-07-12T09:48:27Z</time>
      </trkpt>
      <trkpt lat="46.167896166443825" lon="10.467550596222281">
        <ele>2455.3400000000001</ele>
        <time>2018-07-12T09:48:35Z</time>
      </trkpt>
      <trkpt lat="46.167910750955343" lon="10.467614214867353">
        <ele>2452.9400000000001</ele>
        <time>2018-07-12T09:48:46Z</time>
      </trkpt>
      <trkpt lat="46.167901614680886" lon="10.467666098847985">
        <ele>2451.02</ele>
        <time>2018-07-12T09:48:57Z</time>
      </trkpt>
      <trkpt lat="46.167883425951004" lon="10.467688981443644">
        <ele>2448.6199999999999</ele>
        <time>2018-07-12T09:49:08Z</time>
      </trkpt>
      <trkpt lat="46.167908906936646" lon="10.467725861817598">
        <ele>2446.6900000000001</ele>
        <time>2018-07-12T09:49:18Z</time>
      </trkpt>
      <trkpt lat="46.167920054867864" lon="10.467750169336796">
        <ele>2445.25</ele>
        <time>2018-07-12T09:49:30Z</time>
      </trkpt>
      <trkpt lat="46.167904213070869" lon="10.467755533754826">
        <ele>2444.77</ele>
        <time>2018-07-12T09:49:47Z</time>
      </trkpt>
      <trkpt lat="46.16789298132062" lon="10.467788893729448">
        <ele>2443.8099999999999</ele>
        <time>2018-07-12T09:50:00Z</time>
      </trkpt>
      <trkpt lat="46.167876720428467" lon="10.467815464362502">
        <ele>2442.8499999999999</ele>
        <time>2018-07-12T09:50:11Z</time>
      </trkpt>
      <trkpt lat="46.167894406244159" lon="10.467825187370181">
        <ele>2441.8899999999999</ele>
        <time>2018-07-12T09:50:20Z</time>
      </trkpt>
      <trkpt lat="46.167920138686895" lon="10.467814709991217">
        <ele>2440.9200000000001</ele>
        <time>2018-07-12T09:50:32Z</time>
      </trkpt>
      <trkpt lat="46.167913265526295" lon="10.467843040823936">
        <ele>2439.96</ele>
        <time>2018-07-12T09:50:39Z</time>
      </trkpt>
      <trkpt lat="46.167914774268866" lon="10.467879250645638">
        <ele>2438.04</ele>
        <time>2018-07-12T09:50:49Z</time>
      </trkpt>
      <trkpt lat="46.167907984927297" lon="10.467894421890378">
        <ele>2437.0799999999999</ele>
        <time>2018-07-12T09:50:54Z</time>
      </trkpt>
      <trkpt lat="46.167869763448834" lon="10.467939600348473">
        <ele>2436.1199999999999</ele>
        <time>2018-07-12T09:51:06Z</time>
      </trkpt>
      <trkpt lat="46.167837660759687" lon="10.467937672510743">
        <ele>2435.6399999999999</ele>
        <time>2018-07-12T09:51:17Z</time>
      </trkpt>
      <trkpt lat="46.167841264978051" lon="10.467986287549138">
        <ele>2433.71</ele>
        <time>2018-07-12T09:51:28Z</time>
      </trkpt>
      <trkpt lat="46.167842354625463" lon="10.468012522906065">
        <ele>2432.27</ele>
        <time>2018-07-12T09:51:40Z</time>
      </trkpt>
      <trkpt lat="46.167810503393412" lon="10.468027777969837">
        <ele>2430.3499999999999</ele>
        <time>2018-07-12T09:51:50Z</time>
      </trkpt>
      <trkpt lat="46.167799523100257" lon="10.468068011105061">
        <ele>2427.9499999999998</ele>
        <time>2018-07-12T09:52:02Z</time>
      </trkpt>
      <trkpt lat="46.167796840891242" lon="10.468101538717747">
        <ele>2426.9899999999998</ele>
        <time>2018-07-12T09:52:12Z</time>
      </trkpt>
      <trkpt lat="46.167774461209774" lon="10.468133389949799">
        <ele>2424.5799999999999</ele>
        <time>2018-07-12T09:52:22Z</time>
      </trkpt>
      <trkpt lat="46.167756943032146" lon="10.468145459890366">
        <ele>2423.1399999999999</ele>
        <time>2018-07-12T09:52:33Z</time>
      </trkpt>
      <trkpt lat="46.16775669157505" lon="10.468186447396874">
        <ele>2421.2199999999998</ele>
        <time>2018-07-12T09:52:45Z</time>
      </trkpt>
      <trkpt lat="46.167758954688907" lon="10.46820773743093">
        <ele>2419.7800000000002</ele>
        <time>2018-07-12T09:52:55Z</time>
      </trkpt>
      <trkpt lat="46.167753674089909" lon="10.468257106840611">
        <ele>2418.3299999999999</ele>
        <time>2018-07-12T09:53:05Z</time>
      </trkpt>
      <trkpt lat="46.167724505066872" lon="10.468304380774498">
        <ele>2415.4499999999998</ele>
        <time>2018-07-12T09:53:15Z</time>
      </trkpt>
      <trkpt lat="46.167757278308272" lon="10.468338578939438">
        <ele>2414.0100000000002</ele>
        <time>2018-07-12T09:53:24Z</time>
      </trkpt>
      <trkpt lat="46.167774964123964" lon="10.468385517597198">
        <ele>2412.0900000000001</ele>
        <time>2018-07-12T09:53:34Z</time>
      </trkpt>
      <trkpt lat="46.167773706838489" lon="10.46844620257616">
        <ele>2409.6799999999998</ele>
        <time>2018-07-12T09:53:45Z</time>
      </trkpt>
      <trkpt lat="46.167743280529976" lon="10.468488028272986">
        <ele>2407.7600000000002</ele>
        <time>2018-07-12T09:53:57Z</time>
      </trkpt>
      <trkpt lat="46.167776808142662" lon="10.468534044921398">
        <ele>2405.8400000000001</ele>
        <time>2018-07-12T09:54:06Z</time>
      </trkpt>
      <trkpt lat="46.167791644111276" lon="10.46858936548233">
        <ele>2403.9099999999999</ele>
        <time>2018-07-12T09:54:15Z</time>
      </trkpt>
      <trkpt lat="46.167777478694916" lon="10.468622390180826">
        <ele>2402.4699999999998</ele>
        <time>2018-07-12T09:54:24Z</time>
      </trkpt>
      <trkpt lat="46.167779406532645" lon="10.46868022531271">
        <ele>2401.0300000000002</ele>
        <time>2018-07-12T09:54:36Z</time>
      </trkpt>
      <trkpt lat="46.167747722938657" lon="10.46872079372406">
        <ele>2399.1100000000001</ele>
        <time>2018-07-12T09:54:45Z</time>
      </trkpt>
      <trkpt lat="46.167754260823131" lon="10.468752309679985">
        <ele>2398.1500000000001</ele>
        <time>2018-07-12T09:54:57Z</time>
      </trkpt>
      <trkpt lat="46.167743783444166" lon="10.468774605542421">
        <ele>2397.1799999999998</ele>
        <time>2018-07-12T09:55:09Z</time>
      </trkpt>
      <trkpt lat="46.167754679918289" lon="10.468804780393839">
        <ele>2395.7399999999998</ele>
        <time>2018-07-12T09:55:16Z</time>
      </trkpt>
      <trkpt lat="46.167775634676218" lon="10.468815928325057">
        <ele>2394.7800000000002</ele>
        <time>2018-07-12T09:55:21Z</time>
      </trkpt>
      <trkpt lat="46.16785048507154" lon="10.468851467594504">
        <ele>2393.8200000000002</ele>
        <time>2018-07-12T09:55:30Z</time>
      </trkpt>
      <trkpt lat="46.167927766218781" lon="10.468887509778142">
        <ele>2393.8200000000002</ele>
        <time>2018-07-12T09:55:42Z</time>
      </trkpt>
      <trkpt lat="46.168039748445153" lon="10.468927910551429">
        <ele>2393.8200000000002</ele>
        <time>2018-07-12T09:55:53Z</time>
      </trkpt>
      <trkpt lat="46.168143851682544" lon="10.468988511711359">
        <ele>2393.3400000000001</ele>
        <time>2018-07-12T09:56:04Z</time>
      </trkpt>
      <trkpt lat="46.168253235518932" lon="10.469025475904346">
        <ele>2393.3400000000001</ele>
        <time>2018-07-12T09:56:17Z</time>
      </trkpt>
      <trkpt lat="46.168306041508913" lon="10.469030840322375">
        <ele>2393.8200000000002</ele>
        <time>2018-07-12T09:56:27Z</time>
      </trkpt>
      <trkpt lat="46.168320877477527" lon="10.469047436490655">
        <ele>2393.8200000000002</ele>
        <time>2018-07-12T09:56:30Z</time>
      </trkpt>
      <trkpt lat="46.168320709839463" lon="10.469240806996822">
        <ele>2393.3400000000001</ele>
        <time>2018-07-12T09:56:44Z</time>
      </trkpt>
      <trkpt lat="46.168290283530951" lon="10.469289422035217">
        <ele>2393.8200000000002</ele>
        <time>2018-07-12T09:56:55Z</time>
      </trkpt>
      <trkpt lat="46.168296737596393" lon="10.469250613823533">
        <ele>2393.3400000000001</ele>
        <time>2018-07-12T09:57:05Z</time>
      </trkpt>
      <trkpt lat="46.168294809758663" lon="10.469310292974114">
        <ele>2393.3400000000001</ele>
        <time>2018-07-12T09:57:16Z</time>
      </trkpt>
      <trkpt lat="46.168286427855492" lon="10.469386065378785">
        <ele>2392.8600000000001</ele>
        <time>2018-07-12T09:57:24Z</time>
      </trkpt>
      <trkpt lat="46.168253654614091" lon="10.469547919929028">
        <ele>2393.3400000000001</ele>
        <time>2018-07-12T09:57:36Z</time>
      </trkpt>
      <trkpt lat="46.168227670714259" lon="10.469693010672927">
        <ele>2393.3400000000001</ele>
        <time>2018-07-12T09:57:47Z</time>
      </trkpt>
      <trkpt lat="46.168216774240136" lon="10.469761407002807">
        <ele>2393.3400000000001</ele>
        <time>2018-07-12T09:57:53Z</time>
      </trkpt>
      <trkpt lat="46.168184671550989" lon="10.469918986782432">
        <ele>2393.3400000000001</ele>
        <time>2018-07-12T09:58:06Z</time>
      </trkpt>
      <trkpt lat="46.168182408437133" lon="10.469911778345704">
        <ele>2393.3400000000001</ele>
        <time>2018-07-12T09:58:16Z</time>
      </trkpt>
      <trkpt lat="46.168186096474528" lon="10.469894763082266">
        <ele>2393.3400000000001</ele>
        <time>2018-07-12T09:58:32Z</time>
      </trkpt>
      <trkpt lat="46.16818861104548" lon="10.469929631799459">
        <ele>2392.8600000000001</ele>
        <time>2018-07-12T09:58:42Z</time>
      </trkpt>
      <trkpt lat="46.168198082596064" lon="10.469947652891278">
        <ele>2392.8600000000001</ele>
        <time>2018-07-12T09:59:02Z</time>
      </trkpt>
      <trkpt lat="46.168184084817767" lon="10.469930553808808">
        <ele>2393.3400000000001</ele>
        <time>2018-07-12T09:59:14Z</time>
      </trkpt>
      <trkpt lat="46.168173858895898" lon="10.469934660941362">
        <ele>2392.8600000000001</ele>
        <time>2018-07-12T09:59:32Z</time>
      </trkpt>
      <trkpt lat="46.168185593560338" lon="10.46994237229228">
        <ele>2393.3400000000001</ele>
        <time>2018-07-12T09:59:48Z</time>
      </trkpt>
      <trkpt lat="46.168158352375031" lon="10.469926279038191">
        <ele>2392.8600000000001</ele>
        <time>2018-07-12T10:00:13Z</time>
      </trkpt>
      <trkpt lat="46.168180732056499" lon="10.469957627356052">
        <ele>2392.8600000000001</ele>
        <time>2018-07-12T10:00:30Z</time>
      </trkpt>
      <trkpt lat="46.168179223313928" lon="10.469944132491946">
        <ele>2392.8600000000001</ele>
        <time>2018-07-12T10:00:42Z</time>
      </trkpt>
      <trkpt lat="46.168186767026782" lon="10.469940612092614">
        <ele>2392.8600000000001</ele>
        <time>2018-07-12T10:01:02Z</time>
      </trkpt>
      <trkpt lat="46.16821987554431" lon="10.469940025359392">
        <ele>2392.8600000000001</ele>
        <time>2018-07-12T10:01:25Z</time>
      </trkpt>
      <trkpt lat="46.168197328224778" lon="10.469961063936353">
        <ele>2392.8600000000001</ele>
        <time>2018-07-12T10:01:38Z</time>
      </trkpt>
      <trkpt lat="46.16817838512361" lon="10.469969613477588">
        <ele>2392.8600000000001</ele>
        <time>2018-07-12T10:01:53Z</time>
      </trkpt>
      <trkpt lat="46.168148461729288" lon="10.470111519098282">
        <ele>2392.8600000000001</ele>
        <time>2018-07-12T10:02:04Z</time>
      </trkpt>
      <trkpt lat="46.168111497536302" lon="10.47027756460011">
        <ele>2392.8600000000001</ele>
        <time>2018-07-12T10:02:16Z</time>
      </trkpt>
      <trkpt lat="46.168104372918606" lon="10.470334812998772">
        <ele>2392.8600000000001</ele>
        <time>2018-07-12T10:02:24Z</time>
      </trkpt>
      <trkpt lat="46.168075455352664" lon="10.470363898202777">
        <ele>2392.8600000000001</ele>
        <time>2018-07-12T10:02:33Z</time>
      </trkpt>
      <trkpt lat="46.16806891746819" lon="10.470468671992421">
        <ele>2392.8600000000001</ele>
        <time>2018-07-12T10:02:41Z</time>
      </trkpt>
      <trkpt lat="46.168061709031463" lon="10.47057076357305">
        <ele>2392.8600000000001</ele>
        <time>2018-07-12T10:02:51Z</time>
      </trkpt>
      <trkpt lat="46.168040251359344" lon="10.470722392201424">
        <ele>2392.3800000000001</ele>
        <time>2018-07-12T10:03:04Z</time>
      </trkpt>
      <trkpt lat="46.16800487972796" lon="10.470814425498247">
        <ele>2392.8600000000001</ele>
        <time>2018-07-12T10:03:15Z</time>
      </trkpt>
      <trkpt lat="46.16796774789691" lon="10.470801936462522">
        <ele>2392.8600000000001</ele>
        <time>2018-07-12T10:03:32Z</time>
      </trkpt>
      <trkpt lat="46.167977973818779" lon="10.470867063850164">
        <ele>2392.3800000000001</ele>
        <time>2018-07-12T10:03:40Z</time>
      </trkpt>
      <trkpt lat="46.167961293831468" lon="10.471006790176034">
        <ele>2392.3800000000001</ele>
        <time>2018-07-12T10:03:51Z</time>
      </trkpt>
      <trkpt lat="46.167949642986059" lon="10.471148192882538">
        <ele>2391.9000000000001</ele>
        <time>2018-07-12T10:04:04Z</time>
      </trkpt>
      <trkpt lat="46.167960371822119" lon="10.471159173175693">
        <ele>2392.3800000000001</ele>
        <time>2018-07-12T10:04:15Z</time>
      </trkpt>
      <trkpt lat="46.167950229719281" lon="10.471146600320935">
        <ele>2392.3800000000001</ele>
        <time>2018-07-12T10:04:34Z</time>
      </trkpt>
      <trkpt lat="46.167949559167027" lon="10.471173925325274">
        <ele>2392.3800000000001</ele>
        <time>2018-07-12T10:04:55Z</time>
      </trkpt>
      <trkpt lat="46.16792768239975" lon="10.471239471808076">
        <ele>2392.3800000000001</ele>
        <time>2018-07-12T10:05:16Z</time>
      </trkpt>
      <trkpt lat="46.167915444821119" lon="10.471320608630776">
        <ele>2392.3800000000001</ele>
        <time>2018-07-12T10:05:28Z</time>
      </trkpt>
      <trkpt lat="46.167905470356345" lon="10.471309460699558">
        <ele>2391.9000000000001</ele>
        <time>2018-07-12T10:05:48Z</time>
      </trkpt>
      <trkpt lat="46.16790865547955" lon="10.471382383257151">
        <ele>2391.9000000000001</ele>
        <time>2018-07-12T10:06:00Z</time>
      </trkpt>
      <trkpt lat="46.167901949957013" lon="10.471405601128936">
        <ele>2392.3800000000001</ele>
        <time>2018-07-12T10:06:13Z</time>
      </trkpt>
      <trkpt lat="46.167909158393741" lon="10.471394704654813">
        <ele>2391.9000000000001</ele>
        <time>2018-07-12T10:06:35Z</time>
      </trkpt>
      <trkpt lat="46.167897591367364" lon="10.471402499824762">
        <ele>2391.9000000000001</ele>
        <time>2018-07-12T10:07:00Z</time>
      </trkpt>
      <trkpt lat="46.167896753177047" lon="10.471410378813744">
        <ele>2391.9000000000001</ele>
        <time>2018-07-12T10:07:21Z</time>
      </trkpt>
      <trkpt lat="46.1679164506495" lon="10.4714092053473">
        <ele>2391.9000000000001</ele>
        <time>2018-07-12T10:07:42Z</time>
      </trkpt>
      <trkpt lat="46.167914355173707" lon="10.471408367156982">
        <ele>2391.9000000000001</ele>
        <time>2018-07-12T10:08:01Z</time>
      </trkpt>
      <trkpt lat="46.16791058331728" lon="10.471400488168001">
        <ele>2391.9000000000001</ele>
        <time>2018-07-12T10:08:20Z</time>
      </trkpt>
      <trkpt lat="46.167905051261187" lon="10.471414402127266">
        <ele>2391.9000000000001</ele>
        <time>2018-07-12T10:08:51Z</time>
      </trkpt>
      <trkpt lat="46.167889796197414" lon="10.471412725746632">
        <ele>2391.9000000000001</ele>
        <time>2018-07-12T10:09:10Z</time>
      </trkpt>
      <trkpt lat="46.167898178100586" lon="10.471411049365997">
        <ele>2391.9000000000001</ele>
        <time>2018-07-12T10:09:35Z</time>
      </trkpt>
      <trkpt lat="46.167906140908599" lon="10.471439715474844">
        <ele>2391.9000000000001</ele>
        <time>2018-07-12T10:09:49Z</time>
      </trkpt>
      <trkpt lat="46.167898932471871" lon="10.471471818163991">
        <ele>2391.9000000000001</ele>
        <time>2018-07-12T10:10:08Z</time>
      </trkpt>
      <trkpt lat="46.167910415679216" lon="10.471490090712905">
        <ele>2391.9000000000001</ele>
        <time>2018-07-12T10:10:17Z</time>
      </trkpt>
      <trkpt lat="46.167901279404759" lon="10.471480786800385">
        <ele>2391.9000000000001</ele>
        <time>2018-07-12T10:10:33Z</time>
      </trkpt>
      <trkpt lat="46.167882923036814" lon="10.471514817327261">
        <ele>2391.9000000000001</ele>
        <time>2018-07-12T10:10:43Z</time>
      </trkpt>
      <trkpt lat="46.167878899723291" lon="10.471559576690197">
        <ele>2391.9000000000001</ele>
        <time>2018-07-12T10:10:56Z</time>
      </trkpt>
      <trkpt lat="46.167879905551672" lon="10.471569802612066">
        <ele>2391.9000000000001</ele>
        <time>2018-07-12T10:11:08Z</time>
      </trkpt>
      <trkpt lat="46.167845958843827" lon="10.471694357693195">
        <ele>2391.9000000000001</ele>
        <time>2018-07-12T10:11:19Z</time>
      </trkpt>
      <trkpt lat="46.16780698299408" lon="10.471899127587676">
        <ele>2391.9000000000001</ele>
        <time>2018-07-12T10:11:34Z</time>
      </trkpt>
      <trkpt lat="46.16777672432363" lon="10.472057042643428">
        <ele>2391.9000000000001</ele>
        <time>2018-07-12T10:11:46Z</time>
      </trkpt>
      <trkpt lat="46.167748644948006" lon="10.472219483926892">
        <ele>2391.9000000000001</ele>
        <time>2018-07-12T10:11:58Z</time>
      </trkpt>
      <trkpt lat="46.167751327157021" lon="10.472283605486155">
        <ele>2391.9000000000001</ele>
        <time>2018-07-12T10:12:10Z</time>
      </trkpt>
      <trkpt lat="46.167743112891912" lon="10.472318306565285">
        <ele>2391.9000000000001</ele>
        <time>2018-07-12T10:12:23Z</time>
      </trkpt>
      <trkpt lat="46.167711094021797" lon="10.472438922151923">
        <ele>2391.9000000000001</ele>
        <time>2018-07-12T10:12:32Z</time>
      </trkpt>
      <trkpt lat="46.167682763189077" lon="10.472569512203336">
        <ele>2391.9000000000001</ele>
        <time>2018-07-12T10:12:42Z</time>
      </trkpt>
      <trkpt lat="46.167637165635824" lon="10.472790878266096">
        <ele>2391.9000000000001</ele>
        <time>2018-07-12T10:12:56Z</time>
      </trkpt>
      <trkpt lat="46.167602799832821" lon="10.472987601533532">
        <ele>2391.9000000000001</ele>
        <time>2018-07-12T10:13:09Z</time>
      </trkpt>
      <trkpt lat="46.167558962479234" lon="10.473216008394957">
        <ele>2391.9000000000001</ele>
        <time>2018-07-12T10:13:23Z</time>
      </trkpt>
      <trkpt lat="46.167531469836831" lon="10.473418682813644">
        <ele>2391.9000000000001</ele>
        <time>2018-07-12T10:13:35Z</time>
      </trkpt>
      <trkpt lat="46.167510934174061" lon="10.473576933145523">
        <ele>2391.9000000000001</ele>
        <time>2018-07-12T10:13:46Z</time>
      </trkpt>
      <trkpt lat="46.167494505643845" lon="10.473642060533166">
        <ele>2391.9000000000001</ele>
        <time>2018-07-12T10:13:55Z</time>
      </trkpt>
      <trkpt lat="46.167463408783078" lon="10.473787235096097">
        <ele>2391.9000000000001</ele>
        <time>2018-07-12T10:14:05Z</time>
      </trkpt>
      <trkpt lat="46.167404484003782" lon="10.473950849846005">
        <ele>2391.9000000000001</ele>
        <time>2018-07-12T10:14:18Z</time>
      </trkpt>
      <trkpt lat="46.167337847873569" lon="10.473887147381902">
        <ele>2393.3400000000001</ele>
        <time>2018-07-12T10:14:28Z</time>
      </trkpt>
      <trkpt lat="46.167338686063886" lon="10.473818248137832">
        <ele>2391.9000000000001</ele>
        <time>2018-07-12T10:14:40Z</time>
      </trkpt>
      <trkpt lat="46.167326616123319" lon="10.473791426047683">
        <ele>2390.46</ele>
        <time>2018-07-12T10:14:50Z</time>
      </trkpt>
      <trkpt lat="46.16734966635704" lon="10.473766699433327">
        <ele>2390.46</ele>
        <time>2018-07-12T10:15:06Z</time>
      </trkpt>
      <trkpt lat="46.167336422950029" lon="10.473734848201275">
        <ele>2390.46</ele>
        <time>2018-07-12T10:15:26Z</time>
      </trkpt>
      <trkpt lat="46.167289903387427" lon="10.473621105775237">
        <ele>2390.9400000000001</ele>
        <time>2018-07-12T10:15:47Z</time>
      </trkpt>
      <trkpt lat="46.167283281683922" lon="10.473604258149862">
        <ele>2390.9400000000001</ele>
        <time>2018-07-12T10:16:09Z</time>
      </trkpt>
      <trkpt lat="46.16732862778008" lon="10.473709870129824">
        <ele>2390.9400000000001</ele>
        <time>2018-07-12T10:16:28Z</time>
      </trkpt>
      <trkpt lat="46.167313288897276" lon="10.47363786958158">
        <ele>2390.9400000000001</ele>
        <time>2018-07-12T10:16:45Z</time>
      </trkpt>
      <trkpt lat="46.167301554232836" lon="10.473633091896772">
        <ele>2390.9400000000001</ele>
        <time>2018-07-12T10:17:03Z</time>
      </trkpt>
      <trkpt lat="46.167296357452869" lon="10.473723616451025">
        <ele>2390.9400000000001</ele>
        <time>2018-07-12T10:17:23Z</time>
      </trkpt>
      <trkpt lat="46.167267439886928" lon="10.473699057474732">
        <ele>2391.4200000000001</ele>
        <time>2018-07-12T10:17:44Z</time>
      </trkpt>
      <trkpt lat="46.16727196611464" lon="10.473706517368555">
        <ele>2390.9400000000001</ele>
        <time>2018-07-12T10:18:02Z</time>
      </trkpt>
      <trkpt lat="46.167284203693271" lon="10.473690675571561">
        <ele>2391.4200000000001</ele>
        <time>2018-07-12T10:18:24Z</time>
      </trkpt>
      <trkpt lat="46.167307673022151" lon="10.473726382479072">
        <ele>2391.4200000000001</ele>
        <time>2018-07-12T10:18:41Z</time>
      </trkpt>
      <trkpt lat="46.167329465970397" lon="10.473686316981912">
        <ele>2391.4200000000001</ele>
        <time>2018-07-12T10:19:00Z</time>
      </trkpt>
      <trkpt lat="46.167345223948359" lon="10.473783044144511">
        <ele>2391.4200000000001</ele>
        <time>2018-07-12T10:19:25Z</time>
      </trkpt>
      <trkpt lat="46.167304404079914" lon="10.473746750503778">
        <ele>2391.4200000000001</ele>
        <time>2018-07-12T10:19:43Z</time>
      </trkpt>
      <trkpt lat="46.167307505384088" lon="10.473734680563211">
        <ele>2391.4200000000001</ele>
        <time>2018-07-12T10:20:05Z</time>
      </trkpt>
      <trkpt lat="46.16730909794569" lon="10.473808441311121">
        <ele>2391.4200000000001</ele>
        <time>2018-07-12T10:20:31Z</time>
      </trkpt>
      <trkpt lat="46.167279006913304" lon="10.473798550665379">
        <ele>2391.4200000000001</ele>
        <time>2018-07-12T10:20:54Z</time>
      </trkpt>
      <trkpt lat="46.167252603918314" lon="10.473675169050694">
        <ele>2391.4200000000001</ele>
        <time>2018-07-12T10:21:15Z</time>
      </trkpt>
      <trkpt lat="46.167280683293939" lon="10.473647508770227">
        <ele>2391.4200000000001</ele>
        <time>2018-07-12T10:21:38Z</time>
      </trkpt>
      <trkpt lat="46.167304068803787" lon="10.473716743290424">
        <ele>2391.4200000000001</ele>
        <time>2018-07-12T10:22:02Z</time>
      </trkpt>
      <trkpt lat="46.167301051318645" lon="10.473725041374564">
        <ele>2391.4200000000001</ele>
        <time>2018-07-12T10:22:22Z</time>
      </trkpt>
      <trkpt lat="46.167285544797778" lon="10.473730489611626">
        <ele>2391.4200000000001</ele>
        <time>2018-07-12T10:22:46Z</time>
      </trkpt>
      <trkpt lat="46.167285880073905" lon="10.47384993173182">
        <ele>2391.4200000000001</ele>
        <time>2018-07-12T10:23:05Z</time>
      </trkpt>
      <trkpt lat="46.167282275855541" lon="10.473840292543173">
        <ele>2391.9000000000001</ele>
        <time>2018-07-12T10:23:31Z</time>
      </trkpt>
      <trkpt lat="46.167279342189431" lon="10.473795365542173">
        <ele>2391.9000000000001</ele>
        <time>2018-07-12T10:23:54Z</time>
      </trkpt>
      <trkpt lat="46.167280348017812" lon="10.473790755495429">
        <ele>2391.4200000000001</ele>
        <time>2018-07-12T10:24:15Z</time>
      </trkpt>
      <trkpt lat="46.16731102578342" lon="10.473801735788584">
        <ele>2391.4200000000001</ele>
        <time>2018-07-12T10:24:39Z</time>
      </trkpt>
      <trkpt lat="46.167282946407795" lon="10.473760664463043">
        <ele>2391.9000000000001</ele>
        <time>2018-07-12T10:24:59Z</time>
      </trkpt>
      <trkpt lat="46.167275235056877" lon="10.473749181255698">
        <ele>2391.4200000000001</ele>
        <time>2018-07-12T10:25:23Z</time>
      </trkpt>
      <trkpt lat="46.167291663587093" lon="10.473788492381573">
        <ele>2391.4200000000001</ele>
        <time>2018-07-12T10:25:48Z</time>
      </trkpt>
      <trkpt lat="46.167304655537009" lon="10.47374146990478">
        <ele>2391.4200000000001</ele>
        <time>2018-07-12T10:26:12Z</time>
      </trkpt>
      <trkpt lat="46.167297950014472" lon="10.473694028332829">
        <ele>2392.8600000000001</ele>
        <time>2018-07-12T10:26:36Z</time>
      </trkpt>
      <trkpt lat="46.167310606688261" lon="10.473690675571561">
        <ele>2391.4200000000001</ele>
        <time>2018-07-12T10:26:52Z</time>
      </trkpt>
      <trkpt lat="46.167340027168393" lon="10.473787486553192">
        <ele>2391.4200000000001</ele>
        <time>2018-07-12T10:27:11Z</time>
      </trkpt>
      <trkpt lat="46.167299458757043" lon="10.473772566765547">
        <ele>2391.4200000000001</ele>
        <time>2018-07-12T10:27:29Z</time>
      </trkpt>
      <trkpt lat="46.167304320260882" lon="10.473784971982241">
        <ele>2391.4200000000001</ele>
        <time>2018-07-12T10:27:52Z</time>
      </trkpt>
      <trkpt lat="46.167303565889597" lon="10.47380349598825">
        <ele>2391.4200000000001</ele>
        <time>2018-07-12T10:28:07Z</time>
      </trkpt>
      <trkpt lat="46.167324855923653" lon="10.473821265622973">
        <ele>2391.4200000000001</ele>
        <time>2018-07-12T10:28:25Z</time>
      </trkpt>
      <trkpt lat="46.167361652478576" lon="10.473819924518466">
        <ele>2391.4200000000001</ele>
        <time>2018-07-12T10:28:43Z</time>
      </trkpt>
      <trkpt lat="46.167316557839513" lon="10.47379033640027">
        <ele>2391.4200000000001</ele>
        <time>2018-07-12T10:29:05Z</time>
      </trkpt>
      <trkpt lat="46.167347487062216" lon="10.473777512088418">
        <ele>2391.4200000000001</ele>
        <time>2018-07-12T10:29:22Z</time>
      </trkpt>
      <trkpt lat="46.167390570044518" lon="10.473783882334828">
        <ele>2391.4200000000001</ele>
        <time>2018-07-12T10:29:45Z</time>
      </trkpt>
      <trkpt lat="46.167395180091262" lon="10.473745577037334">
        <ele>2391.4200000000001</ele>
        <time>2018-07-12T10:30:04Z</time>
      </trkpt>
      <trkpt lat="46.167358970269561" lon="10.473791509866714">
        <ele>2391.4200000000001</ele>
        <time>2018-07-12T10:30:29Z</time>
      </trkpt>
      <trkpt lat="46.167364586144686" lon="10.473771058022976">
        <ele>2391.4200000000001</ele>
        <time>2018-07-12T10:30:52Z</time>
      </trkpt>
      <trkpt lat="46.167353019118309" lon="10.473710205405951">
        <ele>2391.4200000000001</ele>
        <time>2018-07-12T10:31:16Z</time>
      </trkpt>
      <trkpt lat="46.167326113209128" lon="10.473764603957534">
        <ele>2391.4200000000001</ele>
        <time>2018-07-12T10:31:31Z</time>
      </trkpt>
      <trkpt lat="46.167310187593102" lon="10.473829982802272">
        <ele>2391.4200000000001</ele>
        <time>2018-07-12T10:31:54Z</time>
      </trkpt>
      <trkpt lat="46.167296022176743" lon="10.473797880113125">
        <ele>2392.3800000000001</ele>
        <time>2018-07-12T10:32:14Z</time>
      </trkpt>
      <trkpt lat="46.16733985953033" lon="10.473827887326479">
        <ele>2392.3800000000001</ele>
        <time>2018-07-12T10:32:38Z</time>
      </trkpt>
      <trkpt lat="46.167354192584753" lon="10.473833922296762">
        <ele>2391.4200000000001</ele>
        <time>2018-07-12T10:32:56Z</time>
      </trkpt>
      <trkpt lat="46.167298201471567" lon="10.473800059407949">
        <ele>2391.4200000000001</ele>
        <time>2018-07-12T10:33:13Z</time>
      </trkpt>
      <trkpt lat="46.167308175936341" lon="10.473837275058031">
        <ele>2391.4200000000001</ele>
        <time>2018-07-12T10:33:38Z</time>
      </trkpt>
      <trkpt lat="46.167324269190431" lon="10.473817745223641">
        <ele>2390.9400000000001</ele>
        <time>2018-07-12T10:33:59Z</time>
      </trkpt>
      <trkpt lat="46.167317815124989" lon="10.473835514858365">
        <ele>2390.9400000000001</ele>
        <time>2018-07-12T10:34:16Z</time>
      </trkpt>
      <trkpt lat="46.167321419343352" lon="10.473742391914129">
        <ele>2390.9400000000001</ele>
        <time>2018-07-12T10:34:43Z</time>
      </trkpt>
      <trkpt lat="46.167327873408794" lon="10.473763681948185">
        <ele>2390.9400000000001</ele>
        <time>2018-07-12T10:35:08Z</time>
      </trkpt>
      <trkpt lat="46.167328711599112" lon="10.473786229267716">
        <ele>2390.9400000000001</ele>
        <time>2018-07-12T10:35:33Z</time>
      </trkpt>
      <trkpt lat="46.167348492890596" lon="10.473744235932827">
        <ele>2390.9400000000001</ele>
        <time>2018-07-12T10:35:55Z</time>
      </trkpt>
      <trkpt lat="46.167342038825154" lon="10.473760580644011">
        <ele>2391.4200000000001</ele>
        <time>2018-07-12T10:36:20Z</time>
      </trkpt>
      <trkpt lat="46.16732376627624" lon="10.47377030365169">
        <ele>2391.4200000000001</ele>
        <time>2018-07-12T10:36:44Z</time>
      </trkpt>
      <trkpt lat="46.167310774326324" lon="10.473721101880074">
        <ele>2391.4200000000001</ele>
        <time>2018-07-12T10:37:06Z</time>
      </trkpt>
      <trkpt lat="46.167322341352701" lon="10.473805675283074">
        <ele>2391.4200000000001</ele>
        <time>2018-07-12T10:37:34Z</time>
      </trkpt>
      <trkpt lat="46.167324772104621" lon="10.473825372755527">
        <ele>2391.4200000000001</ele>
        <time>2018-07-12T10:38:04Z</time>
      </trkpt>
      <trkpt lat="46.167347570881248" lon="10.473833084106445">
        <ele>2391.9000000000001</ele>
        <time>2018-07-12T10:38:27Z</time>
      </trkpt>
      <trkpt lat="46.167355114594102" lon="10.473797544836998">
        <ele>2391.9000000000001</ele>
        <time>2018-07-12T10:38:51Z</time>
      </trkpt>
      <trkpt lat="46.167338350787759" lon="10.473754461854696">
        <ele>2391.9000000000001</ele>
        <time>2018-07-12T10:39:16Z</time>
      </trkpt>
      <trkpt lat="46.167318234220147" lon="10.473725711926818">
        <ele>2391.9000000000001</ele>
        <time>2018-07-12T10:39:39Z</time>
      </trkpt>
      <trkpt lat="46.167333489283919" lon="10.473675839602947">
        <ele>2392.3800000000001</ele>
        <time>2018-07-12T10:40:09Z</time>
      </trkpt>
      <trkpt lat="46.16734036244452" lon="10.473738955333829">
        <ele>2392.3800000000001</ele>
        <time>2018-07-12T10:40:31Z</time>
      </trkpt>
      <trkpt lat="46.167339356616139" lon="10.473780697211623">
        <ele>2392.3800000000001</ele>
        <time>2018-07-12T10:40:55Z</time>
      </trkpt>
      <trkpt lat="46.167341619729996" lon="10.473816320300102">
        <ele>2392.8600000000001</ele>
        <time>2018-07-12T10:41:16Z</time>
      </trkpt>
      <trkpt lat="46.167302057147026" lon="10.473684892058372">
        <ele>2392.8600000000001</ele>
        <time>2018-07-12T10:41:36Z</time>
      </trkpt>
      <trkpt lat="46.167317731305957" lon="10.473760245367885">
        <ele>2392.8600000000001</ele>
        <time>2018-07-12T10:42:01Z</time>
      </trkpt>
      <trkpt lat="46.167303901165724" lon="10.473772399127483">
        <ele>2394.3000000000002</ele>
        <time>2018-07-12T10:42:19Z</time>
      </trkpt>
      <trkpt lat="46.167311947792768" lon="10.473808106034994">
        <ele>2394.3000000000002</ele>
        <time>2018-07-12T10:42:27Z</time>
      </trkpt>
      <trkpt lat="46.16732276044786" lon="10.473857559263706">
        <ele>2393.8200000000002</ele>
        <time>2018-07-12T10:42:40Z</time>
      </trkpt>
      <trkpt lat="46.167305745184422" lon="10.473820930346847">
        <ele>2394.3000000000002</ele>
        <time>2018-07-12T10:42:52Z</time>
      </trkpt>
      <trkpt lat="46.167321838438511" lon="10.473829647526145">
        <ele>2394.3000000000002</ele>
        <time>2018-07-12T10:43:07Z</time>
      </trkpt>
      <trkpt lat="46.167321670800447" lon="10.473840041086078">
        <ele>2394.3000000000002</ele>
        <time>2018-07-12T10:43:20Z</time>
      </trkpt>
      <trkpt lat="46.167373973876238" lon="10.473917992785573">
        <ele>2394.3000000000002</ele>
        <time>2018-07-12T10:43:29Z</time>
      </trkpt>
      <trkpt lat="46.167422337457538" lon="10.473921177908778">
        <ele>2394.3000000000002</ele>
        <time>2018-07-12T10:43:40Z</time>
      </trkpt>
      <trkpt lat="46.167431389912963" lon="10.473932074382901">
        <ele>2393.8200000000002</ele>
        <time>2018-07-12T10:43:51Z</time>
      </trkpt>
      <trkpt lat="46.167404484003782" lon="10.473920507356524">
        <ele>2394.3000000000002</ele>
        <time>2018-07-12T10:44:10Z</time>
      </trkpt>
      <trkpt lat="46.167403561994433" lon="10.473950179293752">
        <ele>2394.3000000000002</ele>
        <time>2018-07-12T10:44:22Z</time>
      </trkpt>
      <trkpt lat="46.167412027716637" lon="10.47399309463799">
        <ele>2394.3000000000002</ele>
        <time>2018-07-12T10:44:31Z</time>
      </trkpt>
      <trkpt lat="46.167402388527989" lon="10.473995106294751">
        <ele>2394.3000000000002</ele>
        <time>2018-07-12T10:44:40Z</time>
      </trkpt>
      <trkpt lat="46.167399622499943" lon="10.474028466269374">
        <ele>2394.3000000000002</ele>
        <time>2018-07-12T10:45:03Z</time>
      </trkpt>
      <trkpt lat="46.16747765801847" lon="10.47409669496119">
        <ele>2394.3000000000002</ele>
        <time>2018-07-12T10:45:14Z</time>
      </trkpt>
      <trkpt lat="46.167567344382405" lon="10.474140280857682">
        <ele>2394.3000000000002</ele>
        <time>2018-07-12T10:45:27Z</time>
      </trkpt>
      <trkpt lat="46.167573882266879" lon="10.474138604477048">
        <ele>2394.3000000000002</ele>
        <time>2018-07-12T10:45:39Z</time>
      </trkpt>
      <trkpt lat="46.167558459565043" lon="10.474117314442992">
        <ele>2394.3000000000002</ele>
        <time>2018-07-12T10:45:56Z</time>
      </trkpt>
      <trkpt lat="46.167568098753691" lon="10.474151261150837">
        <ele>2394.3000000000002</ele>
        <time>2018-07-12T10:46:11Z</time>
      </trkpt>
      <trkpt lat="46.16758368909359" lon="10.474146567285061">
        <ele>2393.8200000000002</ele>
        <time>2018-07-12T10:46:33Z</time>
      </trkpt>
      <trkpt lat="46.167578995227814" lon="10.474207922816277">
        <ele>2393.8200000000002</ele>
        <time>2018-07-12T10:46:53Z</time>
      </trkpt>
      <trkpt lat="46.167620401829481" lon="10.474297106266022">
        <ele>2393.8200000000002</ele>
        <time>2018-07-12T10:47:03Z</time>
      </trkpt>
      <trkpt lat="46.167665412649512" lon="10.474371369928122">
        <ele>2394.3000000000002</ele>
        <time>2018-07-12T10:47:13Z</time>
      </trkpt>
      <trkpt lat="46.167757865041494" lon="10.474451752379537">
        <ele>2393.8200000000002</ele>
        <time>2018-07-12T10:47:25Z</time>
      </trkpt>
      <trkpt lat="46.167805893346667" lon="10.474519394338131">
        <ele>2393.8200000000002</ele>
        <time>2018-07-12T10:47:32Z</time>
      </trkpt>
      <trkpt lat="46.167821064591408" lon="10.474533811211586">
        <ele>2393.8200000000002</ele>
        <time>2018-07-12T10:47:34Z</time>
      </trkpt>
      <trkpt lat="46.167852580547333" lon="10.474581671878695">
        <ele>2393.8200000000002</ele>
        <time>2018-07-12T10:47:39Z</time>
      </trkpt>
      <trkpt lat="46.167934304103255" lon="10.474665155634284">
        <ele>2393.8200000000002</ele>
        <time>2018-07-12T10:47:50Z</time>
      </trkpt>
      <trkpt lat="46.167966490611434" lon="10.474709076806903">
        <ele>2393.8200000000002</ele>
        <time>2018-07-12T10:47:54Z</time>
      </trkpt>
      <trkpt lat="46.168050142005086" lon="10.474785268306732">
        <ele>2393.8200000000002</ele>
        <time>2018-07-12T10:48:05Z</time>
      </trkpt>
      <trkpt lat="46.168089285492897" lon="10.474817790091038">
        <ele>2393.8200000000002</ele>
        <time>2018-07-12T10:48:11Z</time>
      </trkpt>
      <trkpt lat="46.168192718178034" lon="10.474882498383522">
        <ele>2394.3000000000002</ele>
        <time>2018-07-12T10:48:22Z</time>
      </trkpt>
      <trkpt lat="46.168251056224108" lon="10.474995486438274">
        <ele>2393.8200000000002</ele>
        <time>2018-07-12T10:48:34Z</time>
      </trkpt>
      <trkpt lat="46.168257091194391" lon="10.475001018494368">
        <ele>2393.8200000000002</ele>
        <time>2018-07-12T10:48:35Z</time>
      </trkpt>
      <trkpt lat="46.168294474482536" lon="10.475030019879341">
        <ele>2394.3000000000002</ele>
        <time>2018-07-12T10:48:45Z</time>
      </trkpt>
      <trkpt lat="46.168335042893887" lon="10.475146863609552">
        <ele>2396.2199999999998</ele>
        <time>2018-07-12T10:49:00Z</time>
      </trkpt>
      <trkpt lat="46.168376617133617" lon="10.475203776732087">
        <ele>2397.6700000000001</ele>
        <time>2018-07-12T10:49:11Z</time>
      </trkpt>
      <trkpt lat="46.168397152796388" lon="10.475259097293019">
        <ele>2397.6700000000001</ele>
        <time>2018-07-12T10:49:23Z</time>
      </trkpt>
      <trkpt lat="46.168386591598392" lon="10.475325984880328">
        <ele>2398.6300000000001</ele>
        <time>2018-07-12T10:49:33Z</time>
      </trkpt>
      <trkpt lat="46.168382065370679" lon="10.475367978215218">
        <ele>2399.5900000000001</ele>
        <time>2018-07-12T10:49:45Z</time>
      </trkpt>
      <trkpt lat="46.168387932702899" lon="10.475407037883997">
        <ele>2401.0300000000002</ele>
        <time>2018-07-12T10:49:57Z</time>
      </trkpt>
      <trkpt lat="46.168382568284869" lon="10.475464453920722">
        <ele>2402.4699999999998</ele>
        <time>2018-07-12T10:50:09Z</time>
      </trkpt>
      <trkpt lat="46.16841584444046" lon="10.475524049252272">
        <ele>2403.4299999999998</ele>
        <time>2018-07-12T10:50:21Z</time>
      </trkpt>
      <trkpt lat="46.168429590761662" lon="10.475592026486993">
        <ele>2404.3899999999999</ele>
        <time>2018-07-12T10:50:32Z</time>
      </trkpt>
      <trkpt lat="46.16846663877368" lon="10.475632678717375">
        <ele>2405.3600000000001</ele>
        <time>2018-07-12T10:50:42Z</time>
      </trkpt>
      <trkpt lat="46.168518103659153" lon="10.47564416192472">
        <ele>2406.3200000000002</ele>
        <time>2018-07-12T10:50:52Z</time>
      </trkpt>
      <trkpt lat="46.168564455583692" lon="10.475680204108357">
        <ele>2406.8000000000002</ele>
        <time>2018-07-12T10:51:03Z</time>
      </trkpt>
      <trkpt lat="46.168603850528598" lon="10.475743822753429">
        <ele>2408.2399999999998</ele>
        <time>2018-07-12T10:51:15Z</time>
      </trkpt>
      <trkpt lat="46.168642994016409" lon="10.475790174677968">
        <ele>2409.1999999999998</ele>
        <time>2018-07-12T10:51:26Z</time>
      </trkpt>
      <trkpt lat="46.168655818328261" lon="10.475846501067281">
        <ele>2411.1199999999999</ele>
        <time>2018-07-12T10:51:37Z</time>
      </trkpt>
      <trkpt lat="46.16867040283978" lon="10.475898217409849">
        <ele>2412.0900000000001</ele>
        <time>2018-07-12T10:51:48Z</time>
      </trkpt>
      <trkpt lat="46.168699488043785" lon="10.475918501615524">
        <ele>2414.0100000000002</ele>
        <time>2018-07-12T10:51:59Z</time>
      </trkpt>
      <trkpt lat="46.168730584904552" lon="10.475912047550082">
        <ele>2414.4899999999998</ele>
        <time>2018-07-12T10:52:08Z</time>
      </trkpt>
      <trkpt lat="46.168783390894532" lon="10.475939624011517">
        <ele>2415.4499999999998</ele>
        <time>2018-07-12T10:52:19Z</time>
      </trkpt>
      <trkpt lat="46.168841142207384" lon="10.475956136360765">
        <ele>2416.4099999999999</ele>
        <time>2018-07-12T10:52:29Z</time>
      </trkpt>
      <trkpt lat="46.168863102793694" lon="10.476004919037223">
        <ele>2417.8499999999999</ele>
        <time>2018-07-12T10:52:39Z</time>
      </trkpt>
      <trkpt lat="46.168878022581339" lon="10.476039871573448">
        <ele>2418.8099999999999</ele>
        <time>2018-07-12T10:52:49Z</time>
      </trkpt>
      <trkpt lat="46.168899815529585" lon="10.476081194356084">
        <ele>2420.2600000000002</ele>
        <time>2018-07-12T10:53:00Z</time>
      </trkpt>
      <trkpt lat="46.16892890073359" lon="10.476123690605164">
        <ele>2420.7399999999998</ele>
        <time>2018-07-12T10:53:09Z</time>
      </trkpt>
      <trkpt lat="46.168942311778665" lon="10.476173227652907">
        <ele>2421.2199999999998</ele>
        <time>2018-07-12T10:53:20Z</time>
      </trkpt>
      <trkpt lat="46.168953627347946" lon="10.476235589012504">
        <ele>2422.6599999999999</ele>
        <time>2018-07-12T10:53:32Z</time>
      </trkpt>
      <trkpt lat="46.16897969506681" lon="10.476236343383789">
        <ele>2424.0999999999999</ele>
        <time>2018-07-12T10:53:42Z</time>
      </trkpt>
      <trkpt lat="46.168991094455123" lon="10.476276911795139">
        <ele>2425.54</ele>
        <time>2018-07-12T10:53:52Z</time>
      </trkpt>
      <trkpt lat="46.168974665924907" lon="10.476327706128359">
        <ele>2426.9899999999998</ele>
        <time>2018-07-12T10:54:02Z</time>
      </trkpt>
      <trkpt lat="46.168971480801702" lon="10.476368190720677">
        <ele>2428.4299999999998</ele>
        <time>2018-07-12T10:54:12Z</time>
      </trkpt>
      <trkpt lat="46.168976929038763" lon="10.476424936205149">
        <ele>2430.3499999999999</ele>
        <time>2018-07-12T10:54:26Z</time>
      </trkpt>
      <trkpt lat="46.168991345912218" lon="10.476403897628188">
        <ele>2431.79</ele>
        <time>2018-07-12T10:54:36Z</time>
      </trkpt>
      <trkpt lat="46.169020934030414" lon="10.476429127156734">
        <ele>2432.75</ele>
        <time>2018-07-12T10:54:46Z</time>
      </trkpt>
      <trkpt lat="46.169008612632751" lon="10.476477323099971">
        <ele>2434.1999999999998</ele>
        <time>2018-07-12T10:54:57Z</time>
      </trkpt>
      <trkpt lat="46.168981706723571" lon="10.476495008915663">
        <ele>2435.1599999999999</ele>
        <time>2018-07-12T10:55:08Z</time>
      </trkpt>
      <trkpt lat="46.169009786099195" lon="10.476513700559735">
        <ele>2435.1599999999999</ele>
        <time>2018-07-12T10:55:17Z</time>
      </trkpt>
      <trkpt lat="46.169016491621733" lon="10.476584024727345">
        <ele>2435.6399999999999</ele>
        <time>2018-07-12T10:55:28Z</time>
      </trkpt>
      <trkpt lat="46.169046079739928" lon="10.476616462692618">
        <ele>2436.5999999999999</ele>
        <time>2018-07-12T10:55:38Z</time>
      </trkpt>
      <trkpt lat="46.169082121923566" lon="10.476625598967075">
        <ele>2437.0799999999999</ele>
        <time>2018-07-12T10:55:46Z</time>
      </trkpt>
      <trkpt lat="46.169133670628071" lon="10.476698940619826">
        <ele>2436.5999999999999</ele>
        <time>2018-07-12T10:55:57Z</time>
      </trkpt>
      <trkpt lat="46.169143561273813" lon="10.476734647527337">
        <ele>2437.0799999999999</ele>
        <time>2018-07-12T10:56:06Z</time>
      </trkpt>
      <trkpt lat="46.169106177985668" lon="10.476769432425499">
        <ele>2438.04</ele>
        <time>2018-07-12T10:56:23Z</time>
      </trkpt>
      <trkpt lat="46.169152026996017" lon="10.476807318627834">
        <ele>2438.52</ele>
        <time>2018-07-12T10:56:33Z</time>
      </trkpt>
      <trkpt lat="46.169163091108203" lon="10.476836655288935">
        <ele>2437.5599999999999</ele>
        <time>2018-07-12T10:56:37Z</time>
      </trkpt>
      <trkpt lat="46.169211873784661" lon="10.476894909515977">
        <ele>2436.5999999999999</ele>
        <time>2018-07-12T10:56:45Z</time>
      </trkpt>
      <trkpt lat="46.16927775554359" lon="10.476970011368394">
        <ele>2436.1199999999999</ele>
        <time>2018-07-12T10:56:56Z</time>
      </trkpt>
      <trkpt lat="46.169308349490166" lon="10.477038156241179">
        <ele>2436.1199999999999</ele>
        <time>2018-07-12T10:57:06Z</time>
      </trkpt>
      <trkpt lat="46.169335590675473" lon="10.477113341912627">
        <ele>2437.5599999999999</ele>
        <time>2018-07-12T10:57:17Z</time>
      </trkpt>
      <trkpt lat="46.169337518513203" lon="10.477124406024814">
        <ele>2437.5599999999999</ele>
        <time>2018-07-12T10:57:18Z</time>
      </trkpt>
      <trkpt lat="46.169356964528561" lon="10.477220630273223">
        <ele>2438.04</ele>
        <time>2018-07-12T10:57:29Z</time>
      </trkpt>
      <trkpt lat="46.169383618980646" lon="10.47733043320477">
        <ele>2437.5599999999999</ele>
        <time>2018-07-12T10:57:41Z</time>
      </trkpt>
      <trkpt lat="46.169400718063116" lon="10.477357003837824">
        <ele>2437.5599999999999</ele>
        <time>2018-07-12T10:57:56Z</time>
      </trkpt>
      <trkpt lat="46.169407591223717" lon="10.477428836748004">
        <ele>2439</ele>
        <time>2018-07-12T10:58:06Z</time>
      </trkpt>
      <trkpt lat="46.169388564303517" lon="10.477501424029469">
        <ele>2440.4400000000001</ele>
        <time>2018-07-12T10:58:17Z</time>
      </trkpt>
      <trkpt lat="46.169397365301847" lon="10.477563450112939">
        <ele>2442.3699999999999</ele>
        <time>2018-07-12T10:58:27Z</time>
      </trkpt>
      <trkpt lat="46.169409183785319" lon="10.477626146748662">
        <ele>2441.8899999999999</ele>
        <time>2018-07-12T10:58:37Z</time>
      </trkpt>
      <trkpt lat="46.169455368071795" lon="10.477707702666521">
        <ele>2441.8899999999999</ele>
        <time>2018-07-12T10:58:48Z</time>
      </trkpt>
      <trkpt lat="46.169477412477136" lon="10.477731004357338">
        <ele>2442.3699999999999</ele>
        <time>2018-07-12T10:58:52Z</time>
      </trkpt>
      <trkpt lat="46.169546730816364" lon="10.477767130360007">
        <ele>2440.9200000000001</ele>
        <time>2018-07-12T10:59:04Z</time>
      </trkpt>
      <trkpt lat="46.169602135196328" lon="10.477844746783376">
        <ele>2440.4400000000001</ele>
        <time>2018-07-12T10:59:15Z</time>
      </trkpt>
      <trkpt lat="46.169660808518529" lon="10.477868467569351">
        <ele>2440.4400000000001</ele>
        <time>2018-07-12T10:59:25Z</time>
      </trkpt>
      <trkpt lat="46.169700538739562" lon="10.477907191962004">
        <ele>2439.48</ele>
        <time>2018-07-12T10:59:31Z</time>
      </trkpt>
      <trkpt lat="46.169766336679459" lon="10.477996291592717">
        <ele>2437.5599999999999</ele>
        <time>2018-07-12T10:59:41Z</time>
      </trkpt>
      <trkpt lat="46.169784944504499" lon="10.478024538606405">
        <ele>2437.5599999999999</ele>
        <time>2018-07-12T10:59:44Z</time>
      </trkpt>
      <trkpt lat="46.16979961283505" lon="10.478074494749308">
        <ele>2438.04</ele>
        <time>2018-07-12T10:59:50Z</time>
      </trkpt>
      <trkpt lat="46.169832134619355" lon="10.478087738156319">
        <ele>2437.5599999999999</ele>
        <time>2018-07-12T10:59:54Z</time>
      </trkpt>
      <trkpt lat="46.169877983629704" lon="10.478192679584026">
        <ele>2438.04</ele>
        <time>2018-07-12T11:00:05Z</time>
      </trkpt>
      <trkpt lat="46.169915953651071" lon="10.47826568596065">
        <ele>2439</ele>
        <time>2018-07-12T11:00:16Z</time>
      </trkpt>
      <trkpt lat="46.169933723285794" lon="10.478346990421414">
        <ele>2440.9200000000001</ele>
        <time>2018-07-12T11:00:27Z</time>
      </trkpt>
      <trkpt lat="46.169953169301152" lon="10.478442460298538">
        <ele>2441.8899999999999</ele>
        <time>2018-07-12T11:00:37Z</time>
      </trkpt>
      <trkpt lat="46.169966831803322" lon="10.478533655405045">
        <ele>2442.3699999999999</ele>
        <time>2018-07-12T11:00:47Z</time>
      </trkpt>
      <trkpt lat="46.169979656115174" lon="10.478555699810386">
        <ele>2442.3699999999999</ele>
        <time>2018-07-12T11:00:50Z</time>
      </trkpt>
      <trkpt lat="46.170042688027024" lon="10.478614205494523">
        <ele>2441.8899999999999</ele>
        <time>2018-07-12T11:01:02Z</time>
      </trkpt>
      <trkpt lat="46.170113598927855" lon="10.478663993999362">
        <ele>2441.4099999999999</ele>
        <time>2018-07-12T11:01:14Z</time>
      </trkpt>
      <trkpt lat="46.170165902003646" lon="10.478735994547606">
        <ele>2439.96</ele>
        <time>2018-07-12T11:01:23Z</time>
      </trkpt>
      <trkpt lat="46.170190963894129" lon="10.478816879913211">
        <ele>2441.4099999999999</ele>
        <time>2018-07-12T11:01:34Z</time>
      </trkpt>
      <trkpt lat="46.170195238664746" lon="10.478882929310203">
        <ele>2441.4099999999999</ele>
        <time>2018-07-12T11:01:43Z</time>
      </trkpt>
      <trkpt lat="46.170196160674095" lon="10.478982422500849">
        <ele>2442.3699999999999</ele>
        <time>2018-07-12T11:01:54Z</time>
      </trkpt>
      <trkpt lat="46.170202028006315" lon="10.479062888771296">
        <ele>2443.3299999999999</ele>
        <time>2018-07-12T11:02:04Z</time>
      </trkpt>
      <trkpt lat="46.170205296948552" lon="10.479126423597336">
        <ele>2443.8099999999999</ele>
        <time>2018-07-12T11:02:11Z</time>
      </trkpt>
      <trkpt lat="46.170238154008985" lon="10.479183839634061">
        <ele>2445.25</ele>
        <time>2018-07-12T11:02:22Z</time>
      </trkpt>
      <trkpt lat="46.170254666358232" lon="10.479251062497497">
        <ele>2446.6900000000001</ele>
        <time>2018-07-12T11:02:33Z</time>
      </trkpt>
      <trkpt lat="46.17030143737793" lon="10.479302946478128">
        <ele>2447.1700000000001</ele>
        <time>2018-07-12T11:02:43Z</time>
      </trkpt>
      <trkpt lat="46.170340832322836" lon="10.479369917884469">
        <ele>2447.6500000000001</ele>
        <time>2018-07-12T11:02:50Z</time>
      </trkpt>
      <trkpt lat="46.170379975810647" lon="10.479449713602662">
        <ele>2447.6500000000001</ele>
        <time>2018-07-12T11:03:01Z</time>
      </trkpt>
      <trkpt lat="46.170392464846373" lon="10.479472931474447">
        <ele>2447.6500000000001</ele>
        <time>2018-07-12T11:03:04Z</time>
      </trkpt>
      <trkpt lat="46.170445187017322" lon="10.479546692222357">
        <ele>2447.6500000000001</ele>
        <time>2018-07-12T11:03:15Z</time>
      </trkpt>
      <trkpt lat="46.17045926861465" lon="10.479554487392306">
        <ele>2448.1300000000001</ele>
        <time>2018-07-12T11:03:17Z</time>
      </trkpt>
      <trkpt lat="46.170542920008302" lon="10.479639060795307">
        <ele>2447.6500000000001</ele>
        <time>2018-07-12T11:03:29Z</time>
      </trkpt>
      <trkpt lat="46.170593043789268" lon="10.479682227596641">
        <ele>2446.6900000000001</ele>
        <time>2018-07-12T11:03:38Z</time>
      </trkpt>
      <trkpt lat="46.170625481754541" lon="10.479717347770929">
        <ele>2447.1700000000001</ele>
        <time>2018-07-12T11:03:44Z</time>
      </trkpt>
      <trkpt lat="46.170691950246692" lon="10.479770405218005">
        <ele>2447.1700000000001</ele>
        <time>2018-07-12T11:03:54Z</time>
      </trkpt>
      <trkpt lat="46.170702008530498" lon="10.479800831526518">
        <ele>2447.1700000000001</ele>
        <time>2018-07-12T11:03:56Z</time>
      </trkpt>
      <trkpt lat="46.170741403475404" lon="10.479924883693457">
        <ele>2446.21</ele>
        <time>2018-07-12T11:04:09Z</time>
      </trkpt>
      <trkpt lat="46.170767387375236" lon="10.479949275031686">
        <ele>2446.21</ele>
        <time>2018-07-12T11:04:17Z</time>
      </trkpt>
      <trkpt lat="46.17080133408308" lon="10.479993028566241">
        <ele>2445.25</ele>
        <time>2018-07-12T11:04:25Z</time>
      </trkpt>
      <trkpt lat="46.170852044597268" lon="10.480062430724502">
        <ele>2444.77</ele>
        <time>2018-07-12T11:04:35Z</time>
      </trkpt>
      <trkpt lat="46.170903593301773" lon="10.480099897831678">
        <ele>2444.77</ele>
        <time>2018-07-12T11:04:44Z</time>
      </trkpt>
      <trkpt lat="46.170948855578899" lon="10.480137364938855">
        <ele>2444.77</ele>
        <time>2018-07-12T11:04:52Z</time>
      </trkpt>
      <trkpt lat="46.171016078442335" lon="10.480176424607635">
        <ele>2443.8099999999999</ele>
        <time>2018-07-12T11:05:04Z</time>
      </trkpt>
      <trkpt lat="46.171048684045672" lon="10.480258818715811">
        <ele>2443.3299999999999</ele>
        <time>2018-07-12T11:05:13Z</time>
      </trkpt>
      <trkpt lat="46.171104842796922" lon="10.480342889204621">
        <ele>2445.25</ele>
        <time>2018-07-12T11:05:25Z</time>
      </trkpt>
      <trkpt lat="46.171125965192914" lon="10.480411620810628">
        <ele>2446.6900000000001</ele>
        <time>2018-07-12T11:05:35Z</time>
      </trkpt>
      <trkpt lat="46.171132419258356" lon="10.480469288304448">
        <ele>2447.6500000000001</ele>
        <time>2018-07-12T11:05:43Z</time>
      </trkpt>
      <trkpt lat="46.171143818646669" lon="10.480550676584244">
        <ele>2449.0999999999999</ele>
        <time>2018-07-12T11:05:53Z</time>
      </trkpt>
      <trkpt lat="46.171172400936484" lon="10.480602812021971">
        <ele>2449.5799999999999</ele>
        <time>2018-07-12T11:06:02Z</time>
      </trkpt>
      <trkpt lat="46.171197462826967" lon="10.480642709881067">
        <ele>2450.0599999999999</ele>
        <time>2018-07-12T11:06:08Z</time>
      </trkpt>
      <trkpt lat="46.171216908842325" lon="10.480715297162533">
        <ele>2451.02</ele>
        <time>2018-07-12T11:06:17Z</time>
      </trkpt>
      <trkpt lat="46.171216070652008" lon="10.480741113424301">
        <ele>2451.02</ele>
        <time>2018-07-12T11:06:28Z</time>
      </trkpt>
      <trkpt lat="46.171233169734478" lon="10.480788554996252">
        <ele>2450.54</ele>
        <time>2018-07-12T11:06:38Z</time>
      </trkpt>
      <trkpt lat="46.171238701790571" lon="10.480825519189239">
        <ele>2449.0999999999999</ele>
        <time>2018-07-12T11:06:46Z</time>
      </trkpt>
      <trkpt lat="46.171269211918116" lon="10.480870865285397">
        <ele>2447.1700000000001</ele>
        <time>2018-07-12T11:06:55Z</time>
      </trkpt>
      <trkpt lat="46.171252951025963" lon="10.48098050057888">
        <ele>2447.6500000000001</ele>
        <time>2018-07-12T11:07:05Z</time>
      </trkpt>
      <trkpt lat="46.171255130320787" lon="10.481002880260348">
        <ele>2447.6500000000001</ele>
        <time>2018-07-12T11:07:08Z</time>
      </trkpt>
      <trkpt lat="46.171283544972539" lon="10.481026852503419">
        <ele>2447.1700000000001</ele>
        <time>2018-07-12T11:07:12Z</time>
      </trkpt>
      <trkpt lat="46.1712855566293" lon="10.481079490855336">
        <ele>2446.6900000000001</ele>
        <time>2018-07-12T11:07:16Z</time>
      </trkpt>
      <trkpt lat="46.17128798738122" lon="10.481148390099406">
        <ele>2446.6900000000001</ele>
        <time>2018-07-12T11:07:21Z</time>
      </trkpt>
      <trkpt lat="46.17130558937788" lon="10.48124972730875">
        <ele>2447.1700000000001</ele>
        <time>2018-07-12T11:07:32Z</time>
      </trkpt>
      <trkpt lat="46.171309864148498" lon="10.481262132525444">
        <ele>2447.1700000000001</ele>
        <time>2018-07-12T11:07:33Z</time>
      </trkpt>
      <trkpt lat="46.171307852491736" lon="10.481293564662337">
        <ele>2447.1700000000001</ele>
        <time>2018-07-12T11:07:35Z</time>
      </trkpt>
      <trkpt lat="46.171286646276712" lon="10.481379982084036">
        <ele>2448.1300000000001</ele>
        <time>2018-07-12T11:07:45Z</time>
      </trkpt>
      <trkpt lat="46.171250520274043" lon="10.48140169121325">
        <ele>2449.0999999999999</ele>
        <time>2018-07-12T11:07:53Z</time>
      </trkpt>
      <trkpt lat="46.171234678477049" lon="10.481465980410576">
        <ele>2451.02</ele>
        <time>2018-07-12T11:08:03Z</time>
      </trkpt>
      <trkpt lat="46.171197043731809" lon="10.481492383405566">
        <ele>2451.98</ele>
        <time>2018-07-12T11:08:14Z</time>
      </trkpt>
      <trkpt lat="46.171209029853344" lon="10.481588859111071">
        <ele>2453.4200000000001</ele>
        <time>2018-07-12T11:08:25Z</time>
      </trkpt>
      <trkpt lat="46.171197295188904" lon="10.481651723384857">
        <ele>2454.3800000000001</ele>
        <time>2018-07-12T11:08:34Z</time>
      </trkpt>
      <trkpt lat="46.171211041510105" lon="10.481708133593202">
        <ele>2455.3400000000001</ele>
        <time>2018-07-12T11:08:44Z</time>
      </trkpt>
      <trkpt lat="46.171215819194913" lon="10.481718694791198">
        <ele>2455.3400000000001</ele>
        <time>2018-07-12T11:08:45Z</time>
      </trkpt>
      <trkpt lat="46.171235013753176" lon="10.481833778321743">
        <ele>2455.8200000000002</ele>
        <time>2018-07-12T11:08:57Z</time>
      </trkpt>
      <trkpt lat="46.171223865821958" lon="10.481937462463975">
        <ele>2456.3099999999999</ele>
        <time>2018-07-12T11:09:06Z</time>
      </trkpt>
      <trkpt lat="46.171206850558519" lon="10.482025723904371">
        <ele>2456.3099999999999</ele>
        <time>2018-07-12T11:09:18Z</time>
      </trkpt>
      <trkpt lat="46.171215567737818" lon="10.482083726674318">
        <ele>2455.8200000000002</ele>
        <time>2018-07-12T11:09:28Z</time>
      </trkpt>
      <trkpt lat="46.171216908842325" lon="10.482134018093348">
        <ele>2456.79</ele>
        <time>2018-07-12T11:09:36Z</time>
      </trkpt>
      <trkpt lat="46.171221854165196" lon="10.48216343857348">
        <ele>2456.79</ele>
        <time>2018-07-12T11:09:38Z</time>
      </trkpt>
      <trkpt lat="46.171240881085396" lon="10.482199313119054">
        <ele>2456.79</ele>
        <time>2018-07-12T11:09:42Z</time>
      </trkpt>
      <trkpt lat="46.171248760074377" lon="10.482225883752108">
        <ele>2456.3099999999999</ele>
        <time>2018-07-12T11:09:44Z</time>
      </trkpt>
      <trkpt lat="46.171272145584226" lon="10.482315067201853">
        <ele>2456.3099999999999</ele>
        <time>2018-07-12T11:09:54Z</time>
      </trkpt>
      <trkpt lat="46.171286311000586" lon="10.482401568442583">
        <ele>2455.8200000000002</ele>
        <time>2018-07-12T11:10:04Z</time>
      </trkpt>
      <trkpt lat="46.171295614913106" lon="10.482456386089325">
        <ele>2456.79</ele>
        <time>2018-07-12T11:10:12Z</time>
      </trkpt>
      <trkpt lat="46.17129628546536" lon="10.482532326132059">
        <ele>2457.75</ele>
        <time>2018-07-12T11:10:22Z</time>
      </trkpt>
      <trkpt lat="46.171301817521453" lon="10.482621844857931">
        <ele>2458.71</ele>
        <time>2018-07-12T11:10:32Z</time>
      </trkpt>
      <trkpt lat="46.17130558937788" lon="10.482709184288979">
        <ele>2459.6700000000001</ele>
        <time>2018-07-12T11:10:44Z</time>
      </trkpt>
      <trkpt lat="46.171327633783221" lon="10.482779005542397">
        <ele>2460.1500000000001</ele>
        <time>2018-07-12T11:10:52Z</time>
      </trkpt>
      <trkpt lat="46.171334339305758" lon="10.48286659643054">
        <ele>2460.6300000000001</ele>
        <time>2018-07-12T11:11:03Z</time>
      </trkpt>
      <trkpt lat="46.171323526650667" lon="10.482939016073942">
        <ele>2461.5900000000001</ele>
        <time>2018-07-12T11:11:13Z</time>
      </trkpt>
      <trkpt lat="46.171324029564857" lon="10.482991989701986">
        <ele>2462.0700000000002</ele>
        <time>2018-07-12T11:11:20Z</time>
      </trkpt>
      <trkpt lat="46.171317072585225" lon="10.483123585581779">
        <ele>2463.04</ele>
        <time>2018-07-12T11:11:33Z</time>
      </trkpt>
      <trkpt lat="46.171315480023623" lon="10.483187371864915">
        <ele>2464</ele>
        <time>2018-07-12T11:11:41Z</time>
      </trkpt>
      <trkpt lat="46.171316485852003" lon="10.483272029086947">
        <ele>2464.96</ele>
        <time>2018-07-12T11:11:51Z</time>
      </trkpt>
      <trkpt lat="46.171308942139149" lon="10.483352830633521">
        <ele>2464.96</ele>
        <time>2018-07-12T11:12:01Z</time>
      </trkpt>
      <trkpt lat="46.171309780329466" lon="10.483363391831517">
        <ele>2464.96</ele>
        <time>2018-07-12T11:12:02Z</time>
      </trkpt>
      <trkpt lat="46.171317575499415" lon="10.483476128429174">
        <ele>2464.96</ele>
        <time>2018-07-12T11:12:12Z</time>
      </trkpt>
      <trkpt lat="46.171324113383889" lon="10.483543602749705">
        <ele>2464.96</ele>
        <time>2018-07-12T11:12:19Z</time>
      </trkpt>
      <trkpt lat="46.17133492603898" lon="10.483571430668235">
        <ele>2465.4400000000001</ele>
        <time>2018-07-12T11:12:25Z</time>
      </trkpt>
      <trkpt lat="46.171338865533471" lon="10.483599929139018">
        <ele>2464.96</ele>
        <time>2018-07-12T11:12:36Z</time>
      </trkpt>
      <trkpt lat="46.171346912160516" lon="10.48360537737608">
        <ele>2464.96</ele>
        <time>2018-07-12T11:12:53Z</time>
      </trkpt>
      <trkpt lat="46.171364514157176" lon="10.483597917482257">
        <ele>2466.8800000000001</ele>
        <time>2018-07-12T11:13:03Z</time>
      </trkpt>
      <trkpt lat="46.171419750899076" lon="10.483679221943021">
        <ele>2465.9200000000001</ele>
        <time>2018-07-12T11:13:13Z</time>
      </trkpt>
      <trkpt lat="46.171423858031631" lon="10.483759772032499">
        <ele>2467.8400000000001</ele>
        <time>2018-07-12T11:13:25Z</time>
      </trkpt>
      <trkpt lat="46.171431485563517" lon="10.483804363757372">
        <ele>2469.2800000000002</ele>
        <time>2018-07-12T11:13:35Z</time>
      </trkpt>
      <trkpt lat="46.171457134187222" lon="10.483844513073564">
        <ele>2470.2399999999998</ele>
        <time>2018-07-12T11:13:45Z</time>
      </trkpt>
      <trkpt lat="46.171500803902745" lon="10.483927242457867">
        <ele>2471.6900000000001</ele>
        <time>2018-07-12T11:13:57Z</time>
      </trkpt>
      <trkpt lat="46.171454451978207" lon="10.483970995992422">
        <ele>2473.1300000000001</ele>
        <time>2018-07-12T11:14:09Z</time>
      </trkpt>
      <trkpt lat="46.171419499441981" lon="10.484001757577062">
        <ele>2474.5700000000002</ele>
        <time>2018-07-12T11:14:21Z</time>
      </trkpt>
      <trkpt lat="46.171453446149826" lon="10.484037380665541">
        <ele>2476.0100000000002</ele>
        <time>2018-07-12T11:14:31Z</time>
      </trkpt>
      <trkpt lat="46.171456547454" lon="10.484052719548345">
        <ele>2476.0100000000002</ele>
        <time>2018-07-12T11:14:33Z</time>
      </trkpt>
      <trkpt lat="46.171471551060677" lon="10.484106028452516">
        <ele>2476.4899999999998</ele>
        <time>2018-07-12T11:14:44Z</time>
      </trkpt>
      <trkpt lat="46.171456379815936" lon="10.484105609357357">
        <ele>2476.0100000000002</ele>
        <time>2018-07-12T11:14:52Z</time>
      </trkpt>
      <trkpt lat="46.171473143622279" lon="10.48416587524116">
        <ele>2477.4499999999998</ele>
        <time>2018-07-12T11:15:00Z</time>
      </trkpt>
      <trkpt lat="46.171494014561176" lon="10.484216585755348">
        <ele>2478.9000000000001</ele>
        <time>2018-07-12T11:15:12Z</time>
      </trkpt>
      <trkpt lat="46.171468198299408" lon="10.484258495271206">
        <ele>2480.8200000000002</ele>
        <time>2018-07-12T11:15:24Z</time>
      </trkpt>
      <trkpt lat="46.171467360109091" lon="10.484288753941655">
        <ele>2481.3000000000002</ele>
        <time>2018-07-12T11:15:36Z</time>
      </trkpt>
      <trkpt lat="46.17147515527904" lon="10.484318761155009">
        <ele>2483.2199999999998</ele>
        <time>2018-07-12T11:15:45Z</time>
      </trkpt>
      <trkpt lat="46.171475574374199" lon="10.484350025653839">
        <ele>2484.1799999999998</ele>
        <time>2018-07-12T11:15:54Z</time>
      </trkpt>
      <trkpt lat="46.171459145843983" lon="10.484385313466191">
        <ele>2485.6300000000001</ele>
        <time>2018-07-12T11:16:04Z</time>
      </trkpt>
      <trkpt lat="46.171438777819276" lon="10.48442043364048">
        <ele>2487.0700000000002</ele>
        <time>2018-07-12T11:16:12Z</time>
      </trkpt>
      <trkpt lat="46.171410782262683" lon="10.48444340005517">
        <ele>2488.5100000000002</ele>
        <time>2018-07-12T11:16:22Z</time>
      </trkpt>
      <trkpt lat="46.171395359560847" lon="10.484436023980379">
        <ele>2488.9899999999998</ele>
        <time>2018-07-12T11:16:32Z</time>
      </trkpt>
      <trkpt lat="46.171367447823286" lon="10.484434850513935">
        <ele>2490.4299999999998</ele>
        <time>2018-07-12T11:16:41Z</time>
      </trkpt>
      <trkpt lat="46.171357640996575" lon="10.484434682875872">
        <ele>2489.9499999999998</ele>
        <time>2018-07-12T11:16:56Z</time>
      </trkpt>
      <trkpt lat="46.171341380104423" lon="10.484427809715271">
        <ele>2490.9099999999999</ele>
        <time>2018-07-12T11:17:09Z</time>
      </trkpt>
      <trkpt lat="46.171314138919115" lon="10.48446879722178">
        <ele>2492.8400000000001</ele>
        <time>2018-07-12T11:17:20Z</time>
      </trkpt>
      <trkpt lat="46.171352779492736" lon="10.484520429745317">
        <ele>2494.2800000000002</ele>
        <time>2018-07-12T11:17:32Z</time>
      </trkpt>
      <trkpt lat="46.17135395295918" lon="10.484579438343644">
        <ele>2495.7199999999998</ele>
        <time>2018-07-12T11:17:41Z</time>
      </trkpt>
      <trkpt lat="46.171325705945492" lon="10.484618078917265">
        <ele>2497.1599999999999</ele>
        <time>2018-07-12T11:17:52Z</time>
      </trkpt>
      <trkpt lat="46.171325538307428" lon="10.484640626236796">
        <ele>2498.5999999999999</ele>
        <time>2018-07-12T11:18:01Z</time>
      </trkpt>
      <trkpt lat="46.171299638226628" lon="10.484664179384708">
        <ele>2499.5700000000002</ele>
        <time>2018-07-12T11:18:10Z</time>
      </trkpt>
      <trkpt lat="46.171287065371871" lon="10.484696198254824">
        <ele>2500.5300000000002</ele>
        <time>2018-07-12T11:18:20Z</time>
      </trkpt>
      <trkpt lat="46.171275163069367" lon="10.484703239053488">
        <ele>2500.5300000000002</ele>
        <time>2018-07-12T11:18:41Z</time>
      </trkpt>
      <trkpt lat="46.171223279088736" lon="10.484719667583704">
        <ele>2501.4899999999998</ele>
        <time>2018-07-12T11:18:51Z</time>
      </trkpt>
      <trkpt lat="46.171240797266364" lon="10.484779430553317">
        <ele>2503.8899999999999</ele>
        <time>2018-07-12T11:19:03Z</time>
      </trkpt>
      <trkpt lat="46.171219255775213" lon="10.484838774427772">
        <ele>2505.8099999999999</ele>
        <time>2018-07-12T11:19:16Z</time>
      </trkpt>
      <trkpt lat="46.171195786446333" lon="10.484874481335282">
        <ele>2507.2600000000002</ele>
        <time>2018-07-12T11:19:25Z</time>
      </trkpt>
      <trkpt lat="46.171185476705432" lon="10.484921336174011">
        <ele>2508.2199999999998</ele>
        <time>2018-07-12T11:19:35Z</time>
      </trkpt>
      <trkpt lat="46.171146668493748" lon="10.484940698370337">
        <ele>2509.6599999999999</ele>
        <time>2018-07-12T11:19:45Z</time>
      </trkpt>
      <trkpt lat="46.171105094254017" lon="10.484975231811404">
        <ele>2511.5799999999999</ele>
        <time>2018-07-12T11:19:56Z</time>
      </trkpt>
      <trkpt lat="46.171118002384901" lon="10.4849789198488">
        <ele>2512.54</ele>
        <time>2018-07-12T11:20:08Z</time>
      </trkpt>
      <trkpt lat="46.17115412838757" lon="10.484981015324593">
        <ele>2513.5</ele>
        <time>2018-07-12T11:20:17Z</time>
      </trkpt>
      <trkpt lat="46.171132670715451" lon="10.485019572079182">
        <ele>2514.9499999999998</ele>
        <time>2018-07-12T11:20:27Z</time>
      </trkpt>
      <trkpt lat="46.171106686815619" lon="10.485045220702887">
        <ele>2515.9099999999999</ele>
        <time>2018-07-12T11:20:36Z</time>
      </trkpt>
      <trkpt lat="46.171134430915117" lon="10.48507765866816">
        <ele>2516.8699999999999</ele>
        <time>2018-07-12T11:20:45Z</time>
      </trkpt>
      <trkpt lat="46.171157984063029" lon="10.485129961743951">
        <ele>2518.79</ele>
        <time>2018-07-12T11:20:57Z</time>
      </trkpt>
      <trkpt lat="46.171214394271374" lon="10.485200705006719">
        <ele>2520.23</ele>
        <time>2018-07-12T11:21:08Z</time>
      </trkpt>
      <trkpt lat="46.171235600486398" lon="10.485260300338268">
        <ele>2520.23</ele>
        <time>2018-07-12T11:21:18Z</time>
      </trkpt>
      <trkpt lat="46.171267619356513" lon="10.485286870971322">
        <ele>2520.71</ele>
        <time>2018-07-12T11:21:27Z</time>
      </trkpt>
      <trkpt lat="46.171283209696412" lon="10.48533515073359">
        <ele>2521.6799999999998</ele>
        <time>2018-07-12T11:21:38Z</time>
      </trkpt>
      <trkpt lat="46.171232750639319" lon="10.485327942296863">
        <ele>2522.6399999999999</ele>
        <time>2018-07-12T11:21:47Z</time>
      </trkpt>
      <trkpt lat="46.17119612172246" lon="10.485356189310551">
        <ele>2524.0799999999999</ele>
        <time>2018-07-12T11:21:56Z</time>
      </trkpt>
      <trkpt lat="46.171167204156518" lon="10.48537177965045">
        <ele>2525.04</ele>
        <time>2018-07-12T11:22:05Z</time>
      </trkpt>
      <trkpt lat="46.171170556917787" lon="10.485373204573989">
        <ele>2526</ele>
        <time>2018-07-12T11:22:18Z</time>
      </trkpt>
      <trkpt lat="46.171158738434315" lon="10.485333977267146">
        <ele>2524.5599999999999</ele>
        <time>2018-07-12T11:22:30Z</time>
      </trkpt>
      <trkpt lat="46.171135939657688" lon="10.485307406634092">
        <ele>2524.5599999999999</ele>
        <time>2018-07-12T11:22:49Z</time>
      </trkpt>
      <trkpt lat="46.171156642958522" lon="10.485341185703874">
        <ele>2526.48</ele>
        <time>2018-07-12T11:23:09Z</time>
      </trkpt>
      <trkpt lat="46.171162007376552" lon="10.485327607020736">
        <ele>2525.04</ele>
        <time>2018-07-12T11:23:32Z</time>
      </trkpt>
      <trkpt lat="46.171147841960192" lon="10.485348226502538">
        <ele>2526</ele>
        <time>2018-07-12T11:23:42Z</time>
      </trkpt>
      <trkpt lat="46.171161839738488" lon="10.485334983095527">
        <ele>2525.52</ele>
        <time>2018-07-12T11:23:50Z</time>
      </trkpt>
      <trkpt lat="46.171163516119123" lon="10.485324673354626">
        <ele>2526</ele>
        <time>2018-07-12T11:24:04Z</time>
      </trkpt>
      <trkpt lat="46.171157732605934" lon="10.485329953953624">
        <ele>2526</ele>
        <time>2018-07-12T11:24:28Z</time>
      </trkpt>
      <trkpt lat="46.17115119472146" lon="10.485324421897531">
        <ele>2526.48</ele>
        <time>2018-07-12T11:24:46Z</time>
      </trkpt>
      <trkpt lat="46.171165611594915" lon="10.485367253422737">
        <ele>2526</ele>
        <time>2018-07-12T11:24:57Z</time>
      </trkpt>
      <trkpt lat="46.171159660443664" lon="10.485428776592016">
        <ele>2528.8899999999999</ele>
        <time>2018-07-12T11:25:08Z</time>
      </trkpt>
      <trkpt lat="46.171110793948174" lon="10.485412264242768">
        <ele>2530.3299999999999</ele>
        <time>2018-07-12T11:25:19Z</time>
      </trkpt>
      <trkpt lat="46.171110877767205" lon="10.485444869846106">
        <ele>2531.77</ele>
        <time>2018-07-12T11:25:32Z</time>
      </trkpt>
      <trkpt lat="46.171129820868373" lon="10.485485941171646">
        <ele>2532.25</ele>
        <time>2018-07-12T11:25:44Z</time>
      </trkpt>
      <trkpt lat="46.171161336824298" lon="10.485530281439424">
        <ele>2533.21</ele>
        <time>2018-07-12T11:25:55Z</time>
      </trkpt>
      <trkpt lat="46.171171478927135" lon="10.485573196783662">
        <ele>2534.1700000000001</ele>
        <time>2018-07-12T11:26:05Z</time>
      </trkpt>
      <trkpt lat="46.171213891357183" lon="10.485605970025063">
        <ele>2534.6500000000001</ele>
        <time>2018-07-12T11:26:14Z</time>
      </trkpt>
      <trkpt lat="46.171198636293411" lon="10.485648717731237">
        <ele>2536.0999999999999</ele>
        <time>2018-07-12T11:26:25Z</time>
      </trkpt>
      <trkpt lat="46.171211209148169" lon="10.485680652782321">
        <ele>2537.0599999999999</ele>
        <time>2018-07-12T11:26:34Z</time>
      </trkpt>
      <trkpt lat="46.171265440061688" lon="10.485714850947261">
        <ele>2537.54</ele>
        <time>2018-07-12T11:26:45Z</time>
      </trkpt>
      <trkpt lat="46.171249682083726" lon="10.485771931707859">
        <ele>2538.98</ele>
        <time>2018-07-12T11:26:55Z</time>
      </trkpt>
      <trkpt lat="46.171212298795581" lon="10.485803615301847">
        <ele>2540.4200000000001</ele>
        <time>2018-07-12T11:27:05Z</time>
      </trkpt>
      <trkpt lat="46.171169383451343" lon="10.485776206478477">
        <ele>2540.9000000000001</ele>
        <time>2018-07-12T11:27:16Z</time>
      </trkpt>
      <trkpt lat="46.171147674322128" lon="10.485794227570295">
        <ele>2541.8600000000001</ele>
        <time>2018-07-12T11:27:27Z</time>
      </trkpt>
      <trkpt lat="46.171108614653349" lon="10.485820462927222">
        <ele>2543.3099999999999</ele>
        <time>2018-07-12T11:27:38Z</time>
      </trkpt>
      <trkpt lat="46.171140549704432" lon="10.485841333866119">
        <ele>2544.75</ele>
        <time>2018-07-12T11:27:48Z</time>
      </trkpt>
      <trkpt lat="46.171136107295752" lon="10.48586044460535">
        <ele>2543.3099999999999</ele>
        <time>2018-07-12T11:27:54Z</time>
      </trkpt>
      <trkpt lat="46.171143064275384" lon="10.485898917540908">
        <ele>2545.23</ele>
        <time>2018-07-12T11:28:10Z</time>
      </trkpt>
      <trkpt lat="46.171109117567539" lon="10.485942335799336">
        <ele>2547.1500000000001</ele>
        <time>2018-07-12T11:28:20Z</time>
      </trkpt>
      <trkpt lat="46.171135436743498" lon="10.486007127910852">
        <ele>2548.5900000000001</ele>
        <time>2018-07-12T11:28:31Z</time>
      </trkpt>
      <trkpt lat="46.171086737886071" lon="10.486035626381636">
        <ele>2550.0300000000002</ele>
        <time>2018-07-12T11:28:41Z</time>
      </trkpt>
      <trkpt lat="46.171037368476391" lon="10.486054820939898">
        <ele>2551</ele>
        <time>2018-07-12T11:28:50Z</time>
      </trkpt>
      <trkpt lat="46.171051366254687" lon="10.486091198399663">
        <ele>2551.96</ele>
        <time>2018-07-12T11:29:00Z</time>
      </trkpt>
      <trkpt lat="46.171064525842667" lon="10.486142244189978">
        <ele>2553.8800000000001</ele>
        <time>2018-07-12T11:29:12Z</time>
      </trkpt>
      <trkpt lat="46.171081373468041" lon="10.486213155090809">
        <ele>2554.8400000000001</ele>
        <time>2018-07-12T11:29:24Z</time>
      </trkpt>
      <trkpt lat="46.171090342104435" lon="10.486263614147902">
        <ele>2555.3200000000002</ele>
        <time>2018-07-12T11:29:32Z</time>
      </trkpt>
      <trkpt lat="46.17110819555819" lon="10.486286161467433">
        <ele>2556.2800000000002</ele>
        <time>2018-07-12T11:29:42Z</time>
      </trkpt>
      <trkpt lat="46.171118337661028" lon="10.486355815082788">
        <ele>2557.73</ele>
        <time>2018-07-12T11:29:54Z</time>
      </trkpt>
      <trkpt lat="46.171135352924466" lon="10.486359000205994">
        <ele>2558.6900000000001</ele>
        <time>2018-07-12T11:30:04Z</time>
      </trkpt>
      <trkpt lat="46.171123115345836" lon="10.486377105116844">
        <ele>2560.6100000000001</ele>
        <time>2018-07-12T11:30:13Z</time>
      </trkpt>
      <trkpt lat="46.171155134215951" lon="10.486412309110165">
        <ele>2562.0500000000002</ele>
        <time>2018-07-12T11:30:25Z</time>
      </trkpt>
      <trkpt lat="46.171189835295081" lon="10.486489506438375">
        <ele>2563.0100000000002</ele>
        <time>2018-07-12T11:30:37Z</time>
      </trkpt>
      <trkpt lat="46.171203833073378" lon="10.486511550843716">
        <ele>2564.9299999999998</ele>
        <time>2018-07-12T11:30:48Z</time>
      </trkpt>
      <trkpt lat="46.171206850558519" lon="10.486561926081777">
        <ele>2565.4200000000001</ele>
        <time>2018-07-12T11:30:59Z</time>
      </trkpt>
      <trkpt lat="46.171214813366532" lon="10.486580450087786">
        <ele>2566.8600000000001</ele>
        <time>2018-07-12T11:31:09Z</time>
      </trkpt>
      <trkpt lat="46.17122202180326" lon="10.48665588721633">
        <ele>2568.3000000000002</ele>
        <time>2018-07-12T11:31:20Z</time>
      </trkpt>
      <trkpt lat="46.171255968511105" lon="10.486692097038031">
        <ele>2569.7399999999998</ele>
        <time>2018-07-12T11:31:31Z</time>
      </trkpt>
      <trkpt lat="46.171264182776213" lon="10.486695785075426">
        <ele>2570.6999999999998</ele>
        <time>2018-07-12T11:31:41Z</time>
      </trkpt>
      <trkpt lat="46.171272899955511" lon="10.486690336838365">
        <ele>2570.2199999999998</ele>
        <time>2018-07-12T11:31:54Z</time>
      </trkpt>
      <trkpt lat="46.171240042895079" lon="10.486673656851053">
        <ele>2570.2199999999998</ele>
        <time>2018-07-12T11:32:05Z</time>
      </trkpt>
      <trkpt lat="46.171244652941823" lon="10.486645828932524">
        <ele>2570.6999999999998</ele>
        <time>2018-07-12T11:32:16Z</time>
      </trkpt>
      <trkpt lat="46.171256471425295" lon="10.486658988520503">
        <ele>2571.6599999999999</ele>
        <time>2018-07-12T11:32:24Z</time>
      </trkpt>
      <trkpt lat="46.171275330707431" lon="10.486662006005645">
        <ele>2573.1100000000001</ele>
        <time>2018-07-12T11:32:37Z</time>
      </trkpt>
      <trkpt lat="46.171290166676044" lon="10.486707519739866">
        <ele>2574.5500000000002</ele>
        <time>2018-07-12T11:32:47Z</time>
      </trkpt>
      <trkpt lat="46.171319335699081" lon="10.486726630479097">
        <ele>2576.4699999999998</ele>
        <time>2018-07-12T11:32:59Z</time>
      </trkpt>
      <trkpt lat="46.171365100890398" lon="10.48674289137125">
        <ele>2577.9099999999999</ele>
        <time>2018-07-12T11:33:11Z</time>
      </trkpt>
      <trkpt lat="46.171349259093404" lon="10.486804665997624">
        <ele>2578.8699999999999</ele>
        <time>2018-07-12T11:33:21Z</time>
      </trkpt>
      <trkpt lat="46.171321934089065" lon="10.48684548586607">
        <ele>2580.3200000000002</ele>
        <time>2018-07-12T11:33:31Z</time>
      </trkpt>
      <trkpt lat="46.171346073970199" lon="10.486825620755553">
        <ele>2582.7199999999998</ele>
        <time>2018-07-12T11:33:44Z</time>
      </trkpt>
      <trkpt lat="46.171301566064358" lon="10.48685965128243">
        <ele>2584.1599999999999</ele>
        <time>2018-07-12T11:33:55Z</time>
      </trkpt>
      <trkpt lat="46.171306008473039" lon="10.48686652444303">
        <ele>2585.1199999999999</ele>
        <time>2018-07-12T11:34:05Z</time>
      </trkpt>
      <trkpt lat="46.171338446438313" lon="10.486878007650375">
        <ele>2586.5599999999999</ele>
        <time>2018-07-12T11:34:16Z</time>
      </trkpt>
      <trkpt lat="46.171378260478377" lon="10.486920168623328">
        <ele>2588.0100000000002</ele>
        <time>2018-07-12T11:34:26Z</time>
      </trkpt>
      <trkpt lat="46.171398544684052" lon="10.486973561346531">
        <ele>2588.9699999999998</ele>
        <time>2018-07-12T11:34:36Z</time>
      </trkpt>
      <trkpt lat="46.171385049819946" lon="10.487024690955877">
        <ele>2590.4099999999999</ele>
        <time>2018-07-12T11:34:46Z</time>
      </trkpt>
      <trkpt lat="46.171368872746825" lon="10.487065007910132">
        <ele>2591.3699999999999</ele>
        <time>2018-07-12T11:34:55Z</time>
      </trkpt>
      <trkpt lat="46.171371471136808" lon="10.487095266580582">
        <ele>2592.3299999999999</ele>
        <time>2018-07-12T11:35:04Z</time>
      </trkpt>
      <trkpt lat="46.171328471973538" lon="10.487104570493102">
        <ele>2593.77</ele>
        <time>2018-07-12T11:35:15Z</time>
      </trkpt>
      <trkpt lat="46.171352192759514" lon="10.487094596028328">
        <ele>2595.2199999999998</ele>
        <time>2018-07-12T11:35:24Z</time>
      </trkpt>
      <trkpt lat="46.171326460316777" lon="10.487140361219645">
        <ele>2596.6599999999999</ele>
        <time>2018-07-12T11:35:34Z</time>
      </trkpt>
      <trkpt lat="46.171351270750165" lon="10.48712644726038">
        <ele>2598.0999999999999</ele>
        <time>2018-07-12T11:35:45Z</time>
      </trkpt>
      <trkpt lat="46.171354288235307" lon="10.487157963216305">
        <ele>2599.54</ele>
        <time>2018-07-12T11:35:54Z</time>
      </trkpt>
      <trkpt lat="46.171320006251335" lon="10.487191658467054">
        <ele>2600.98</ele>
        <time>2018-07-12T11:36:02Z</time>
      </trkpt>
      <trkpt lat="46.171348253265023" lon="10.487201465293765">
        <ele>2602.4299999999998</ele>
        <time>2018-07-12T11:36:12Z</time>
      </trkpt>
      <trkpt lat="46.171324448660016" lon="10.487239519134164">
        <ele>2603.8699999999999</ele>
        <time>2018-07-12T11:36:21Z</time>
      </trkpt>
      <trkpt lat="46.171329980716109" lon="10.48725544475019">
        <ele>2604.8299999999999</ele>
        <time>2018-07-12T11:36:30Z</time>
      </trkpt>
      <trkpt lat="46.171322101727128" lon="10.487280255183578">
        <ele>2605.79</ele>
        <time>2018-07-12T11:36:39Z</time>
      </trkpt>
      <trkpt lat="46.171278599649668" lon="10.487265586853027">
        <ele>2606.75</ele>
        <time>2018-07-12T11:36:55Z</time>
      </trkpt>
      <trkpt lat="46.171320090070367" lon="10.487270867452025">
        <ele>2607.71</ele>
        <time>2018-07-12T11:37:05Z</time>
      </trkpt>
      <trkpt lat="46.171343391761184" lon="10.487317219376564">
        <ele>2609.1599999999999</ele>
        <time>2018-07-12T11:37:13Z</time>
      </trkpt>
      <trkpt lat="46.171312043443322" lon="10.487339347600937">
        <ele>2610.5999999999999</ele>
        <time>2018-07-12T11:37:22Z</time>
      </trkpt>
      <trkpt lat="46.171333668753505" lon="10.487396260723472">
        <ele>2612.52</ele>
        <time>2018-07-12T11:37:33Z</time>
      </trkpt>
      <trkpt lat="46.171332076191902" lon="10.487389974296093">
        <ele>2613.96</ele>
        <time>2018-07-12T11:37:43Z</time>
      </trkpt>
      <trkpt lat="46.171312713995576" lon="10.487403552979231">
        <ele>2615.8800000000001</ele>
        <time>2018-07-12T11:37:54Z</time>
      </trkpt>
      <trkpt lat="46.171284718438983" lon="10.487379161641002">
        <ele>2616.3699999999999</ele>
        <time>2018-07-12T11:38:04Z</time>
      </trkpt>
      <trkpt lat="46.171294106170535" lon="10.487370612099767">
        <ele>2617.3299999999999</ele>
        <time>2018-07-12T11:38:15Z</time>
      </trkpt>
      <trkpt lat="46.171270133927464" lon="10.487390561029315">
        <ele>2618.77</ele>
        <time>2018-07-12T11:38:26Z</time>
      </trkpt>
      <trkpt lat="46.171263009309769" lon="10.487409252673388">
        <ele>2619.73</ele>
        <time>2018-07-12T11:38:33Z</time>
      </trkpt>
      <trkpt lat="46.171276923269033" lon="10.487414700910449">
        <ele>2620.6900000000001</ele>
        <time>2018-07-12T11:38:42Z</time>
      </trkpt>
      <trkpt lat="46.171253705397248" lon="10.487446803599596">
        <ele>2622.6100000000001</ele>
        <time>2018-07-12T11:38:52Z</time>
      </trkpt>
      <trkpt lat="46.171220513060689" lon="10.48745434731245">
        <ele>2623.5799999999999</ele>
        <time>2018-07-12T11:39:02Z</time>
      </trkpt>
      <trkpt lat="46.171213388442993" lon="10.487454934045672">
        <ele>2625.5</ele>
        <time>2018-07-12T11:39:13Z</time>
      </trkpt>
      <trkpt lat="46.171231241896749" lon="10.487467003986239">
        <ele>2625.98</ele>
        <time>2018-07-12T11:39:23Z</time>
      </trkpt>
      <trkpt lat="46.171237695962191" lon="10.487478319555521">
        <ele>2627.9000000000001</ele>
        <time>2018-07-12T11:39:35Z</time>
      </trkpt>
      <trkpt lat="46.171225206926465" lon="10.487535484135151">
        <ele>2628.8600000000001</ele>
        <time>2018-07-12T11:39:45Z</time>
      </trkpt>
      <trkpt lat="46.171250268816948" lon="10.487576555460691">
        <ele>2630.3000000000002</ele>
        <time>2018-07-12T11:39:55Z</time>
      </trkpt>
      <trkpt lat="46.171260746195912" lon="10.487585607916117">
        <ele>2631.27</ele>
        <time>2018-07-12T11:40:05Z</time>
      </trkpt>
      <trkpt lat="46.171238450333476" lon="10.487630115821958">
        <ele>2633.1900000000001</ele>
        <time>2018-07-12T11:40:18Z</time>
      </trkpt>
      <trkpt lat="46.17120542563498" lon="10.487635983154178">
        <ele>2634.6300000000001</ele>
        <time>2018-07-12T11:40:28Z</time>
      </trkpt>
      <trkpt lat="46.171169718727469" lon="10.487629361450672">
        <ele>2635.5900000000001</ele>
        <time>2018-07-12T11:40:37Z</time>
      </trkpt>
      <trkpt lat="46.171187488362193" lon="10.487653333693743">
        <ele>2636.0700000000002</ele>
        <time>2018-07-12T11:40:46Z</time>
      </trkpt>
      <trkpt lat="46.171210622414947" lon="10.487672360613942">
        <ele>2637.9899999999998</ele>
        <time>2018-07-12T11:40:57Z</time>
      </trkpt>
      <trkpt lat="46.171195534989238" lon="10.487682251259685">
        <ele>2638.96</ele>
        <time>2018-07-12T11:41:06Z</time>
      </trkpt>
      <trkpt lat="46.17120542563498" lon="10.487736146897078">
        <ele>2639.9200000000001</ele>
        <time>2018-07-12T11:41:20Z</time>
      </trkpt>
      <trkpt lat="46.17120542563498" lon="10.487799178808928">
        <ele>2641.3600000000001</ele>
        <time>2018-07-12T11:41:30Z</time>
      </trkpt>
      <trkpt lat="46.171195451170206" lon="10.487813763320446">
        <ele>2641.8400000000001</ele>
        <time>2018-07-12T11:41:47Z</time>
      </trkpt>
      <trkpt lat="46.17118782363832" lon="10.487843099981546">
        <ele>2641.8400000000001</ele>
        <time>2018-07-12T11:41:57Z</time>
      </trkpt>
      <trkpt lat="46.171172317117453" lon="10.487905628979206">
        <ele>2640.4000000000001</ele>
        <time>2018-07-12T11:42:10Z</time>
      </trkpt>
      <trkpt lat="46.171189248561859" lon="10.487909317016602">
        <ele>2639.4400000000001</ele>
        <time>2018-07-12T11:42:20Z</time>
      </trkpt>
      <trkpt lat="46.171210454776883" lon="10.487928930670023">
        <ele>2638.48</ele>
        <time>2018-07-12T11:42:31Z</time>
      </trkpt>
      <trkpt lat="46.171206599101424" lon="10.487966816872358">
        <ele>2637.5100000000002</ele>
        <time>2018-07-12T11:42:44Z</time>
      </trkpt>
      <trkpt lat="46.171227050945163" lon="10.48800646327436">
        <ele>2637.0300000000002</ele>
        <time>2018-07-12T11:42:53Z</time>
      </trkpt>
      <trkpt lat="46.171236773952842" lon="10.488036219030619">
        <ele>2634.6300000000001</ele>
        <time>2018-07-12T11:43:03Z</time>
      </trkpt>
      <trkpt lat="46.171265104785562" lon="10.488071842119098">
        <ele>2633.1900000000001</ele>
        <time>2018-07-12T11:43:13Z</time>
      </trkpt>
      <trkpt lat="46.171259321272373" lon="10.488096904009581">
        <ele>2631.75</ele>
        <time>2018-07-12T11:43:24Z</time>
      </trkpt>
      <trkpt lat="46.171257393434644" lon="10.48812129534781">
        <ele>2631.27</ele>
        <time>2018-07-12T11:43:37Z</time>
      </trkpt>
      <trkpt lat="46.171256387606263" lon="10.488125821575522">
        <ele>2631.27</ele>
        <time>2018-07-12T11:43:54Z</time>
      </trkpt>
      <trkpt lat="46.171277426183224" lon="10.488145016133785">
        <ele>2630.3000000000002</ele>
        <time>2018-07-12T11:44:03Z</time>
      </trkpt>
      <trkpt lat="46.171288238838315" lon="10.488160522654653">
        <ele>2628.8600000000001</ele>
        <time>2018-07-12T11:44:15Z</time>
      </trkpt>
      <trkpt lat="46.171303661540151" lon="10.488204276189208">
        <ele>2626.9400000000001</ele>
        <time>2018-07-12T11:44:28Z</time>
      </trkpt>
      <trkpt lat="46.171326376497746" lon="10.488222045823932">
        <ele>2625.98</ele>
        <time>2018-07-12T11:44:40Z</time>
      </trkpt>
      <trkpt lat="46.171236773952842" lon="10.488246856257319">
        <ele>2625.02</ele>
        <time>2018-07-12T11:44:52Z</time>
      </trkpt>
      <trkpt lat="46.171186733990908" lon="10.488248448818922">
        <ele>2624.54</ele>
        <time>2018-07-12T11:45:09Z</time>
      </trkpt>
      <trkpt lat="46.171203749254346" lon="10.488239144906402">
        <ele>2623.5799999999999</ele>
        <time>2018-07-12T11:45:21Z</time>
      </trkpt>
      <trkpt lat="46.171148093417287" lon="10.488268984481692">
        <ele>2623.5799999999999</ele>
        <time>2018-07-12T11:45:37Z</time>
      </trkpt>
      <trkpt lat="46.171048851683736" lon="10.488303350284696">
        <ele>2623.5799999999999</ele>
        <time>2018-07-12T11:45:54Z</time>
      </trkpt>
      <trkpt lat="46.170998979359865" lon="10.488344756886363">
        <ele>2623.0900000000001</ele>
        <time>2018-07-12T11:46:10Z</time>
      </trkpt>
      <trkpt lat="46.171069303527474" lon="10.488316090777516">
        <ele>2622.6100000000001</ele>
        <time>2018-07-12T11:46:20Z</time>
      </trkpt>
      <trkpt lat="46.171123115345836" lon="10.488316090777516">
        <ele>2622.1300000000001</ele>
        <time>2018-07-12T11:46:32Z</time>
      </trkpt>
      <trkpt lat="46.171012809500098" lon="10.488362107425928">
        <ele>2621.6500000000001</ele>
        <time>2018-07-12T11:46:46Z</time>
      </trkpt>
      <trkpt lat="46.170723969116807" lon="10.488441567867994">
        <ele>2621.6500000000001</ele>
        <time>2018-07-12T11:47:06Z</time>
      </trkpt>
      <trkpt lat="46.171033931896091" lon="10.488356743007898">
        <ele>2621.1700000000001</ele>
        <time>2018-07-12T11:47:18Z</time>
      </trkpt>
      <trkpt lat="46.171139208599925" lon="10.488385995849967">
        <ele>2619.25</ele>
        <time>2018-07-12T11:47:32Z</time>
      </trkpt>
      <trkpt lat="46.171252112835646" lon="10.488373506814241">
        <ele>2618.77</ele>
        <time>2018-07-12T11:47:45Z</time>
      </trkpt>
      <trkpt lat="46.171295782551169" lon="10.488358419388533">
        <ele>2617.8099999999999</ele>
        <time>2018-07-12T11:47:51Z</time>
      </trkpt>
      <trkpt lat="46.171318497508764" lon="10.488397646695375">
        <ele>2616.3699999999999</ele>
        <time>2018-07-12T11:48:00Z</time>
      </trkpt>
      <trkpt lat="46.17129435762763" lon="10.488417344167829">
        <ele>2616.3699999999999</ele>
        <time>2018-07-12T11:48:10Z</time>
      </trkpt>
      <trkpt lat="46.171316485852003" lon="10.488452380523086">
        <ele>2615.8800000000001</ele>
        <time>2018-07-12T11:48:19Z</time>
      </trkpt>
      <trkpt lat="46.171337859705091" lon="10.488474676385522">
        <ele>2614.9200000000001</ele>
        <time>2018-07-12T11:48:32Z</time>
      </trkpt>
      <trkpt lat="46.171289663761854" lon="10.488537875935435">
        <ele>2613.48</ele>
        <time>2018-07-12T11:48:43Z</time>
      </trkpt>
      <trkpt lat="46.171265104785562" lon="10.488586323335767">
        <ele>2612.52</ele>
        <time>2018-07-12T11:48:54Z</time>
      </trkpt>
      <trkpt lat="46.171264098957181" lon="10.488653378561139">
        <ele>2611.0799999999999</ele>
        <time>2018-07-12T11:49:04Z</time>
      </trkpt>
      <trkpt lat="46.17124306038022" lon="10.488668298348784">
        <ele>2611.0799999999999</ele>
        <time>2018-07-12T11:49:14Z</time>
      </trkpt>
      <trkpt lat="46.1712044198066" lon="10.488679278641939">
        <ele>2610.5999999999999</ele>
        <time>2018-07-12T11:49:30Z</time>
      </trkpt>
      <trkpt lat="46.171177010983229" lon="10.488687492907047">
        <ele>2610.5999999999999</ele>
        <time>2018-07-12T11:49:42Z</time>
      </trkpt>
      <trkpt lat="46.171188745647669" lon="10.488691013306379">
        <ele>2610.1199999999999</ele>
        <time>2018-07-12T11:50:00Z</time>
      </trkpt>
      <trkpt lat="46.171207185834646" lon="10.488684978336096">
        <ele>2610.5999999999999</ele>
        <time>2018-07-12T11:50:20Z</time>
      </trkpt>
      <trkpt lat="46.171143315732479" lon="10.488624880090356">
        <ele>2610.1199999999999</ele>
        <time>2018-07-12T11:50:44Z</time>
      </trkpt>
      <trkpt lat="46.171082127839327" lon="10.488616246730089">
        <ele>2610.1199999999999</ele>
        <time>2018-07-12T11:51:02Z</time>
      </trkpt>
      <trkpt lat="46.17108816280961" lon="10.48862311989069">
        <ele>2610.1199999999999</ele>
        <time>2018-07-12T11:51:22Z</time>
      </trkpt>
      <trkpt lat="46.171126719564199" lon="10.488623203709722">
        <ele>2610.5999999999999</ele>
        <time>2018-07-12T11:51:38Z</time>
      </trkpt>
      <trkpt lat="46.171152535825968" lon="10.488606104627252">
        <ele>2610.5999999999999</ele>
        <time>2018-07-12T11:51:58Z</time>
      </trkpt>
      <trkpt lat="46.171202659606934" lon="10.48868372105062">
        <ele>2610.5999999999999</ele>
        <time>2018-07-12T11:52:21Z</time>
      </trkpt>
      <trkpt lat="46.171213975176215" lon="10.488724038004875">
        <ele>2610.5999999999999</ele>
        <time>2018-07-12T11:52:47Z</time>
      </trkpt>
      <trkpt lat="46.171208107843995" lon="10.488685229793191">
        <ele>2610.5999999999999</ele>
        <time>2018-07-12T11:53:07Z</time>
      </trkpt>
      <trkpt lat="46.171223446726799" lon="10.488679278641939">
        <ele>2611.0799999999999</ele>
        <time>2018-07-12T11:53:24Z</time>
      </trkpt>
      <trkpt lat="46.171218082308769" lon="10.488676680251956">
        <ele>2610.1199999999999</ele>
        <time>2018-07-12T11:53:37Z</time>
      </trkpt>
      <trkpt lat="46.171209532767534" lon="10.488682212308049">
        <ele>2610.5999999999999</ele>
        <time>2018-07-12T11:53:54Z</time>
      </trkpt>
      <trkpt lat="46.171206934377551" lon="10.488674836233258">
        <ele>2610.5999999999999</ele>
        <time>2018-07-12T11:54:09Z</time>
      </trkpt>
      <trkpt lat="46.17120735347271" lon="10.488697718828917">
        <ele>2610.5999999999999</ele>
        <time>2018-07-12T11:54:35Z</time>
      </trkpt>
      <trkpt lat="46.171178184449673" lon="10.48874138854444">
        <ele>2611.0799999999999</ele>
        <time>2018-07-12T11:54:44Z</time>
      </trkpt>
      <trkpt lat="46.171144740656018" lon="10.488782376050949">
        <ele>2611.5599999999999</ele>
        <time>2018-07-12T11:54:54Z</time>
      </trkpt>
      <trkpt lat="46.171141723170877" lon="10.488835601136088">
        <ele>2610.5999999999999</ele>
        <time>2018-07-12T11:55:04Z</time>
      </trkpt>
      <trkpt lat="46.171145914122462" lon="10.488864937797189">
        <ele>2610.5999999999999</ele>
        <time>2018-07-12T11:55:14Z</time>
      </trkpt>
      <trkpt lat="46.171152871102095" lon="10.488904081285">
        <ele>2609.6399999999999</ele>
        <time>2018-07-12T11:55:25Z</time>
      </trkpt>
      <trkpt lat="46.171150607988238" lon="10.488914893940091">
        <ele>2609.6399999999999</ele>
        <time>2018-07-12T11:55:27Z</time>
      </trkpt>
      <trkpt lat="46.171141555532813" lon="10.48891925252974">
        <ele>2608.6700000000001</ele>
        <time>2018-07-12T11:55:37Z</time>
      </trkpt>
      <trkpt lat="46.171157397329807" lon="10.488872481510043">
        <ele>2607.71</ele>
        <time>2018-07-12T11:55:49Z</time>
      </trkpt>
      <trkpt lat="46.171179944649339" lon="10.488920761272311">
        <ele>2606.75</ele>
        <time>2018-07-12T11:56:00Z</time>
      </trkpt>
      <trkpt lat="46.171180112287402" lon="10.488898465409875">
        <ele>2605.79</ele>
        <time>2018-07-12T11:56:11Z</time>
      </trkpt>
      <trkpt lat="46.171211628243327" lon="10.488867117092013">
        <ele>2604.3499999999999</ele>
        <time>2018-07-12T11:56:20Z</time>
      </trkpt>
      <trkpt lat="46.17124549113214" lon="10.488927969709039">
        <ele>2602.9099999999999</ele>
        <time>2018-07-12T11:56:30Z</time>
      </trkpt>
      <trkpt lat="46.171256639063358" lon="10.488913888111711">
        <ele>2602.4299999999998</ele>
        <time>2018-07-12T11:56:41Z</time>
      </trkpt>
      <trkpt lat="46.171262338757515" lon="10.488935597240925">
        <ele>2601.9499999999998</ele>
        <time>2018-07-12T11:56:43Z</time>
      </trkpt>
      <trkpt lat="46.171277593821287" lon="10.488982703536749">
        <ele>2601.9499999999998</ele>
        <time>2018-07-12T11:56:47Z</time>
      </trkpt>
      <trkpt lat="46.171284886077046" lon="10.488996282219887">
        <ele>2602.4299999999998</ele>
        <time>2018-07-12T11:56:59Z</time>
      </trkpt>
      <trkpt lat="46.171281952410936" lon="10.489007262513041">
        <ele>2602.4299999999998</ele>
        <time>2018-07-12T11:57:10Z</time>
      </trkpt>
      <trkpt lat="46.171258147805929" lon="10.489027798175812">
        <ele>2602.4299999999998</ele>
        <time>2018-07-12T11:57:24Z</time>
      </trkpt>
      <trkpt lat="46.171237863600254" lon="10.489008435979486">
        <ele>2602.4299999999998</ele>
        <time>2018-07-12T11:57:35Z</time>
      </trkpt>
      <trkpt lat="46.171228978782892" lon="10.488996198400855">
        <ele>2602.4299999999998</ele>
        <time>2018-07-12T11:58:07Z</time>
      </trkpt>
      <trkpt lat="46.171268541365862" lon="10.488988738507032">
        <ele>2602.4299999999998</ele>
        <time>2018-07-12T11:58:17Z</time>
      </trkpt>
      <trkpt lat="46.171295279636979" lon="10.488969460129738">
        <ele>2602.4299999999998</ele>
        <time>2018-07-12T11:58:24Z</time>
      </trkpt>
      <trkpt lat="46.171364095062017" lon="10.489069707691669">
        <ele>2601.46</ele>
        <time>2018-07-12T11:58:35Z</time>
      </trkpt>
      <trkpt lat="46.17140332236886" lon="10.489129889756441">
        <ele>2601.46</ele>
        <time>2018-07-12T11:58:45Z</time>
      </trkpt>
      <trkpt lat="46.171401226893067" lon="10.489213205873966">
        <ele>2601.46</ele>
        <time>2018-07-12T11:58:55Z</time>
      </trkpt>
      <trkpt lat="46.171402148902416" lon="10.489270370453596">
        <ele>2600.5</ele>
        <time>2018-07-12T11:59:04Z</time>
      </trkpt>
      <trkpt lat="46.171399131417274" lon="10.489280512556434">
        <ele>2600.98</ele>
        <time>2018-07-12T11:59:05Z</time>
      </trkpt>
      <trkpt lat="46.171385804191232" lon="10.489347903057933">
        <ele>2601.46</ele>
        <time>2018-07-12T11:59:14Z</time>
      </trkpt>
      <trkpt lat="46.171416314318776" lon="10.48937120474875">
        <ele>2600.5</ele>
        <time>2018-07-12T11:59:24Z</time>
      </trkpt>
      <trkpt lat="46.171440370380878" lon="10.489453850314021">
        <ele>2599.0599999999999</ele>
        <time>2018-07-12T11:59:34Z</time>
      </trkpt>
      <trkpt lat="46.171448584645987" lon="10.489470362663269">
        <ele>2599.0599999999999</ele>
        <time>2018-07-12T11:59:44Z</time>
      </trkpt>
      <trkpt lat="46.171461660414934" lon="10.489534568041563">
        <ele>2598.0999999999999</ele>
        <time>2018-07-12T11:59:53Z</time>
      </trkpt>
      <trkpt lat="46.171467946842313" lon="10.489628864452243">
        <ele>2596.6599999999999</ele>
        <time>2018-07-12T12:00:04Z</time>
      </trkpt>
      <trkpt lat="46.171477502211928" lon="10.489669516682625">
        <ele>2597.1399999999999</ele>
        <time>2018-07-12T12:00:12Z</time>
      </trkpt>
      <trkpt lat="46.1714893206954" lon="10.489675216376781">
        <ele>2596.6599999999999</ele>
        <time>2018-07-12T12:00:23Z</time>
      </trkpt>
      <trkpt lat="46.171496277675033" lon="10.489779738709331">
        <ele>2595.6999999999998</ele>
        <time>2018-07-12T12:00:34Z</time>
      </trkpt>
      <trkpt lat="46.171441208571196" lon="10.489852409809828">
        <ele>2597.1399999999999</ele>
        <time>2018-07-12T12:00:44Z</time>
      </trkpt>
      <trkpt lat="46.171385888010263" lon="10.489940419793129">
        <ele>2598.0999999999999</ele>
        <time>2018-07-12T12:00:55Z</time>
      </trkpt>
      <trkpt lat="46.171385552734137" lon="10.490045445039868">
        <ele>2597.6199999999999</ele>
        <time>2018-07-12T12:01:07Z</time>
      </trkpt>
      <trkpt lat="46.171362502500415" lon="10.490140076726675">
        <ele>2598.0999999999999</ele>
        <time>2018-07-12T12:01:18Z</time>
      </trkpt>
      <trkpt lat="46.171339116990566" lon="10.490195648744702">
        <ele>2598.5799999999999</ele>
        <time>2018-07-12T12:01:26Z</time>
      </trkpt>
      <trkpt lat="46.171358563005924" lon="10.490238228812814">
        <ele>2598.0999999999999</ele>
        <time>2018-07-12T12:01:32Z</time>
      </trkpt>
      <trkpt lat="46.171361748129129" lon="10.490290950983763">
        <ele>2597.6199999999999</ele>
        <time>2018-07-12T12:01:40Z</time>
      </trkpt>
      <trkpt lat="46.171412877738476" lon="10.490323305130005">
        <ele>2596.6599999999999</ele>
        <time>2018-07-12T12:01:49Z</time>
      </trkpt>
      <trkpt lat="46.171427294611931" lon="10.490402095019817">
        <ele>2596.6599999999999</ele>
        <time>2018-07-12T12:01:59Z</time>
      </trkpt>
      <trkpt lat="46.171438442543149" lon="10.490444507449865">
        <ele>2596.6599999999999</ele>
        <time>2018-07-12T12:02:10Z</time>
      </trkpt>
      <trkpt lat="46.171498540788889" lon="10.490436879917979">
        <ele>2596.1799999999998</ele>
        <time>2018-07-12T12:02:19Z</time>
      </trkpt>
      <trkpt lat="46.171522764489055" lon="10.490443082526326">
        <ele>2596.1799999999998</ele>
        <time>2018-07-12T12:02:22Z</time>
      </trkpt>
      <trkpt lat="46.171539528295398" lon="10.490462612360716">
        <ele>2596.1799999999998</ele>
        <time>2018-07-12T12:02:24Z</time>
      </trkpt>
      <trkpt lat="46.171566098928452" lon="10.490577360615134">
        <ele>2597.1399999999999</ele>
        <time>2018-07-12T12:02:36Z</time>
      </trkpt>
      <trkpt lat="46.171564171090722" lon="10.49054785631597">
        <ele>2597.1399999999999</ele>
        <time>2018-07-12T12:02:52Z</time>
      </trkpt>
      <trkpt lat="46.171562075614929" lon="10.490530589595437">
        <ele>2596.6599999999999</ele>
        <time>2018-07-12T12:03:10Z</time>
      </trkpt>
      <trkpt lat="46.171593256294727" lon="10.49063527956605">
        <ele>2596.6599999999999</ele>
        <time>2018-07-12T12:03:27Z</time>
      </trkpt>
      <trkpt lat="46.171570625156164" lon="10.49072127789259">
        <ele>2598.0999999999999</ele>
        <time>2018-07-12T12:03:37Z</time>
      </trkpt>
      <trkpt lat="46.171555705368519" lon="10.490754721686244">
        <ele>2598.5799999999999</ele>
        <time>2018-07-12T12:03:47Z</time>
      </trkpt>
      <trkpt lat="46.171543886885047" lon="10.490804007276893">
        <ele>2599.0599999999999</ele>
        <time>2018-07-12T12:03:57Z</time>
      </trkpt>
      <trkpt lat="46.171539109200239" lon="10.490833763033152">
        <ele>2599.0599999999999</ele>
        <time>2018-07-12T12:04:12Z</time>
      </trkpt>
      <trkpt lat="46.171534163877368" lon="10.490804594010115">
        <ele>2599.0599999999999</ele>
        <time>2018-07-12T12:04:34Z</time>
      </trkpt>
      <trkpt lat="46.171548329293728" lon="10.49079897813499">
        <ele>2599.0599999999999</ele>
        <time>2018-07-12T12:04:43Z</time>
      </trkpt>
      <trkpt lat="46.171554615721107" lon="10.490826973691583">
        <ele>2599.0599999999999</ele>
        <time>2018-07-12T12:05:04Z</time>
      </trkpt>
      <trkpt lat="46.171557381749153" lon="10.490823034197092">
        <ele>2599.0599999999999</ele>
        <time>2018-07-12T12:05:15Z</time>
      </trkpt>
      <trkpt lat="46.171588394790888" lon="10.490778861567378">
        <ele>2599.0599999999999</ele>
        <time>2018-07-12T12:05:24Z</time>
      </trkpt>
      <trkpt lat="46.171609181910753" lon="10.490734688937664">
        <ele>2598.0999999999999</ele>
        <time>2018-07-12T12:05:30Z</time>
      </trkpt>
      <trkpt lat="46.171668358147144" lon="10.490733850747347">
        <ele>2597.6199999999999</ele>
        <time>2018-07-12T12:05:39Z</time>
      </trkpt>
      <trkpt lat="46.171707920730114" lon="10.490797217935324">
        <ele>2598.0999999999999</ele>
        <time>2018-07-12T12:05:49Z</time>
      </trkpt>
      <trkpt lat="46.171717224642634" lon="10.490817753598094">
        <ele>2599.0599999999999</ele>
        <time>2018-07-12T12:06:00Z</time>
      </trkpt>
      <trkpt lat="46.171723427250981" lon="10.49081364646554">
        <ele>2599.54</ele>
        <time>2018-07-12T12:06:15Z</time>
      </trkpt>
      <trkpt lat="46.171732563525438" lon="10.49081020988524">
        <ele>2599.54</ele>
        <time>2018-07-12T12:06:31Z</time>
      </trkpt>
      <trkpt lat="46.171745723113418" lon="10.490763690322638">
        <ele>2598.5799999999999</ele>
        <time>2018-07-12T12:06:41Z</time>
      </trkpt>
      <trkpt lat="46.171796349808574" lon="10.490770982578397">
        <ele>2597.6199999999999</ele>
        <time>2018-07-12T12:06:49Z</time>
      </trkpt>
      <trkpt lat="46.171827195212245" lon="10.490774670615792">
        <ele>2597.1399999999999</ele>
        <time>2018-07-12T12:06:54Z</time>
      </trkpt>
      <trkpt lat="46.171900033950806" lon="10.490773664787412">
        <ele>2595.6999999999998</ele>
        <time>2018-07-12T12:07:06Z</time>
      </trkpt>
      <trkpt lat="46.171967759728432" lon="10.490796715021133">
        <ele>2594.25</ele>
        <time>2018-07-12T12:07:16Z</time>
      </trkpt>
      <trkpt lat="46.172044957056642" lon="10.490799816325307">
        <ele>2593.29</ele>
        <time>2018-07-12T12:07:27Z</time>
      </trkpt>
      <trkpt lat="46.172110084444284" lon="10.490821860730648">
        <ele>2591.3699999999999</ele>
        <time>2018-07-12T12:07:38Z</time>
      </trkpt>
      <trkpt lat="46.172155262902379" lon="10.490855136886239">
        <ele>2590.4099999999999</ele>
        <time>2018-07-12T12:07:47Z</time>
      </trkpt>
      <trkpt lat="46.172205470502377" lon="10.490942560136318">
        <ele>2590.4099999999999</ele>
        <time>2018-07-12T12:07:57Z</time>
      </trkpt>
      <trkpt lat="46.172236148267984" lon="10.490929568186402">
        <ele>2589.4499999999998</ele>
        <time>2018-07-12T12:08:06Z</time>
      </trkpt>
      <trkpt lat="46.172258947044611" lon="10.490968963131309">
        <ele>2588.9699999999998</ele>
        <time>2018-07-12T12:08:14Z</time>
      </trkpt>
      <trkpt lat="46.172272274270654" lon="10.491007436066866">
        <ele>2588.4899999999998</ele>
        <time>2018-07-12T12:08:17Z</time>
      </trkpt>
      <trkpt lat="46.17230923846364" lon="10.491049261763692">
        <ele>2587.5300000000002</ele>
        <time>2018-07-12T12:08:26Z</time>
      </trkpt>
      <trkpt lat="46.172313345596194" lon="10.49105697311461">
        <ele>2587.5300000000002</ele>
        <time>2018-07-12T12:08:27Z</time>
      </trkpt>
      <trkpt lat="46.172353578731418" lon="10.491164932027459">
        <ele>2586.0799999999999</ele>
        <time>2018-07-12T12:08:37Z</time>
      </trkpt>
      <trkpt lat="46.172391884028912" lon="10.491203991696239">
        <ele>2585.1199999999999</ele>
        <time>2018-07-12T12:08:46Z</time>
      </trkpt>
      <trkpt lat="46.172394985333085" lon="10.491216313093901">
        <ele>2584.6399999999999</ele>
        <time>2018-07-12T12:08:56Z</time>
      </trkpt>
      <trkpt lat="46.17240697145462" lon="10.491205248981714">
        <ele>2584.6399999999999</ele>
        <time>2018-07-12T12:09:02Z</time>
      </trkpt>
      <trkpt lat="46.172490455210209" lon="10.491261910647154">
        <ele>2583.1999999999998</ele>
        <time>2018-07-12T12:09:12Z</time>
      </trkpt>
      <trkpt lat="46.172552481293678" lon="10.491283787414432">
        <ele>2581.2800000000002</ele>
        <time>2018-07-12T12:09:23Z</time>
      </trkpt>
      <trkpt lat="46.172592546790838" lon="10.491276746615767">
        <ele>2579.8400000000001</ele>
        <time>2018-07-12T12:09:34Z</time>
      </trkpt>
      <trkpt lat="46.172593971714377" lon="10.49126660451293">
        <ele>2579.8400000000001</ele>
        <time>2018-07-12T12:09:50Z</time>
      </trkpt>
      <trkpt lat="46.172665134072304" lon="10.491226790472865">
        <ele>2577.9099999999999</ele>
        <time>2018-07-12T12:10:01Z</time>
      </trkpt>
      <trkpt lat="46.172682568430901" lon="10.491225114092231">
        <ele>2577.4299999999998</ele>
        <time>2018-07-12T12:10:05Z</time>
      </trkpt>
      <trkpt lat="46.172710983082652" lon="10.491196867078543">
        <ele>2576.9499999999998</ele>
        <time>2018-07-12T12:10:09Z</time>
      </trkpt>
      <trkpt lat="46.172752808779478" lon="10.491148168221116">
        <ele>2575.9899999999998</ele>
        <time>2018-07-12T12:10:15Z</time>
      </trkpt>
      <trkpt lat="46.172798071056604" lon="10.491081867367029">
        <ele>2575.5100000000002</ele>
        <time>2018-07-12T12:10:23Z</time>
      </trkpt>
      <trkpt lat="46.172838136553764" lon="10.491022439673543">
        <ele>2574.5500000000002</ele>
        <time>2018-07-12T12:10:29Z</time>
      </trkpt>
      <trkpt lat="46.172910640016198" lon="10.490970639511943">
        <ele>2572.6300000000001</ele>
        <time>2018-07-12T12:10:41Z</time>
      </trkpt>
      <trkpt lat="46.172955315560102" lon="10.491031827405095">
        <ele>2570.6999999999998</ele>
        <time>2018-07-12T12:10:51Z</time>
      </trkpt>
      <trkpt lat="46.172983311116695" lon="10.491068959236145">
        <ele>2569.7399999999998</ele>
        <time>2018-07-12T12:11:01Z</time>
      </trkpt>
      <trkpt lat="46.173014407977462" lon="10.49107457511127">
        <ele>2568.7800000000002</ele>
        <time>2018-07-12T12:11:10Z</time>
      </trkpt>
      <trkpt lat="46.173046343028545" lon="10.491093685850501">
        <ele>2567.3400000000001</ele>
        <time>2018-07-12T12:11:18Z</time>
      </trkpt>
      <trkpt lat="46.173059418797493" lon="10.491155460476875">
        <ele>2565.9000000000001</ele>
        <time>2018-07-12T12:11:29Z</time>
      </trkpt>
      <trkpt lat="46.173100741580129" lon="10.491131655871868">
        <ele>2564.4499999999998</ele>
        <time>2018-07-12T12:11:39Z</time>
      </trkpt>
      <trkpt lat="46.173124713823199" lon="10.491157472133636">
        <ele>2563.9699999999998</ele>
        <time>2018-07-12T12:11:49Z</time>
      </trkpt>
      <trkpt lat="46.173118846490979" lon="10.491229137405753">
        <ele>2561.5700000000002</ele>
        <time>2018-07-12T12:12:00Z</time>
      </trkpt>
      <trkpt lat="46.173123540356755" lon="10.491297030821443">
        <ele>2560.1300000000001</ele>
        <time>2018-07-12T12:12:09Z</time>
      </trkpt>
      <trkpt lat="46.17314524948597" lon="10.491337850689888">
        <ele>2559.1700000000001</ele>
        <time>2018-07-12T12:12:20Z</time>
      </trkpt>
      <trkpt lat="46.173092359676957" lon="10.491404822096229">
        <ele>2560.6100000000001</ele>
        <time>2018-07-12T12:12:30Z</time>
      </trkpt>
      <trkpt lat="46.1730832234025" lon="10.491495598107576">
        <ele>2561.5700000000002</ele>
        <time>2018-07-12T12:12:42Z</time>
      </trkpt>
      <trkpt lat="46.17309688590467" lon="10.491562988609076">
        <ele>2561.5700000000002</ele>
        <time>2018-07-12T12:12:52Z</time>
      </trkpt>
      <trkpt lat="46.17314038798213" lon="10.491595426574349">
        <ele>2561.0900000000001</ele>
        <time>2018-07-12T12:12:59Z</time>
      </trkpt>
      <trkpt lat="46.173183303326368" lon="10.491623003035784">
        <ele>2560.6100000000001</ele>
        <time>2018-07-12T12:13:05Z</time>
      </trkpt>
      <trkpt lat="46.173247592523694" lon="10.491619482636452">
        <ele>2562.0500000000002</ele>
        <time>2018-07-12T12:13:15Z</time>
      </trkpt>
      <trkpt lat="46.173282042145729" lon="10.491573214530945">
        <ele>2561.0900000000001</ele>
        <time>2018-07-12T12:13:26Z</time>
      </trkpt>
      <trkpt lat="46.173275085166097" lon="10.49156759865582">
        <ele>2560.6100000000001</ele>
        <time>2018-07-12T12:13:28Z</time>
      </trkpt>
      <trkpt lat="46.173292016610503" lon="10.491509595885873">
        <ele>2559.6500000000001</ele>
        <time>2018-07-12T12:13:37Z</time>
      </trkpt>
      <trkpt lat="46.173330489546061" lon="10.491476990282536">
        <ele>2559.1700000000001</ele>
        <time>2018-07-12T12:13:45Z</time>
      </trkpt>
      <trkpt lat="46.173350773751736" lon="10.491368696093559">
        <ele>2558.21</ele>
        <time>2018-07-12T12:13:56Z</time>
      </trkpt>
      <trkpt lat="46.173397460952401" lon="10.491303065791726">
        <ele>2557.73</ele>
        <time>2018-07-12T12:14:07Z</time>
      </trkpt>
      <trkpt lat="46.173397125676274" lon="10.491296108812094">
        <ele>2557.73</ele>
        <time>2018-07-12T12:14:17Z</time>
      </trkpt>
      <trkpt lat="46.17341791279614" lon="10.491307089105248">
        <ele>2558.21</ele>
        <time>2018-07-12T12:14:31Z</time>
      </trkpt>
      <trkpt lat="46.173427551984787" lon="10.491311699151993">
        <ele>2558.21</ele>
        <time>2018-07-12T12:14:44Z</time>
      </trkpt>
      <trkpt lat="46.173447417095304" lon="10.491293258965015">
        <ele>2557.73</ele>
        <time>2018-07-12T12:14:54Z</time>
      </trkpt>
      <trkpt lat="46.173511454835534" lon="10.491223940625787">
        <ele>2557.73</ele>
        <time>2018-07-12T12:15:06Z</time>
      </trkpt>
      <trkpt lat="46.173544647172093" lon="10.491211200132966">
        <ele>2557.73</ele>
        <time>2018-07-12T12:15:11Z</time>
      </trkpt>
      <trkpt lat="46.173613546416163" lon="10.491206841543317">
        <ele>2557.73</ele>
        <time>2018-07-12T12:15:19Z</time>
      </trkpt>
      <trkpt lat="46.173602314665914" lon="10.491171386092901">
        <ele>2557.2399999999998</ele>
        <time>2018-07-12T12:15:22Z</time>
      </trkpt>
      <trkpt lat="46.173674482852221" lon="10.491144061088562">
        <ele>2556.2800000000002</ele>
        <time>2018-07-12T12:15:31Z</time>
      </trkpt>
      <trkpt lat="46.17377313785255" lon="10.491107180714607">
        <ele>2555.3200000000002</ele>
        <time>2018-07-12T12:15:41Z</time>
      </trkpt>
      <trkpt lat="46.173851592466235" lon="10.491142887622118">
        <ele>2554.8400000000001</ele>
        <time>2018-07-12T12:15:50Z</time>
      </trkpt>
      <trkpt lat="46.173955192789435" lon="10.491152694448829">
        <ele>2553.4000000000001</ele>
        <time>2018-07-12T12:16:02Z</time>
      </trkpt>
      <trkpt lat="46.174007747322321" lon="10.491161579266191">
        <ele>2552.9200000000001</ele>
        <time>2018-07-12T12:16:08Z</time>
      </trkpt>
      <trkpt lat="46.174118388444185" lon="10.491185300052166">
        <ele>2552.4400000000001</ele>
        <time>2018-07-12T12:16:20Z</time>
      </trkpt>
      <trkpt lat="46.174185695126653" lon="10.491206087172031">
        <ele>2551</ele>
        <time>2018-07-12T12:16:28Z</time>
      </trkpt>
      <trkpt lat="46.174264317378402" lon="10.49131790176034">
        <ele>2551</ele>
        <time>2018-07-12T12:16:40Z</time>
      </trkpt>
      <trkpt lat="46.174271944910288" lon="10.491322763264179">
        <ele>2550.5100000000002</ele>
        <time>2018-07-12T12:16:41Z</time>
      </trkpt>
      <trkpt lat="46.174325589090586" lon="10.491318823769689">
        <ele>2550.0300000000002</ele>
        <time>2018-07-12T12:16:46Z</time>
      </trkpt>
      <trkpt lat="46.174414101988077" lon="10.491281943395734">
        <ele>2550.0300000000002</ele>
        <time>2018-07-12T12:16:56Z</time>
      </trkpt>
      <trkpt lat="46.174492221325636" lon="10.49130717292428">
        <ele>2550.5100000000002</ele>
        <time>2018-07-12T12:17:06Z</time>
      </trkpt>
      <trkpt lat="46.174549218267202" lon="10.491421166807413">
        <ele>2551.48</ele>
        <time>2018-07-12T12:17:18Z</time>
      </trkpt>
      <trkpt lat="46.174620799720287" lon="10.49148503690958">
        <ele>2551.96</ele>
        <time>2018-07-12T12:17:31Z</time>
      </trkpt>
      <trkpt lat="46.174627337604761" lon="10.491500794887543">
        <ele>2552.4400000000001</ele>
        <time>2018-07-12T12:17:42Z</time>
      </trkpt>
      <trkpt lat="46.174620380625129" lon="10.491584362462163">
        <ele>2554.3600000000001</ele>
        <time>2018-07-12T12:17:55Z</time>
      </trkpt>
      <trkpt lat="46.174595570191741" lon="10.491641191765666">
        <ele>2556.2800000000002</ele>
        <time>2018-07-12T12:18:06Z</time>
      </trkpt>
      <trkpt lat="46.174633121117949" lon="10.49169760197401">
        <ele>2557.73</ele>
        <time>2018-07-12T12:18:16Z</time>
      </trkpt>
      <trkpt lat="46.174672180786729" lon="10.491728447377682">
        <ele>2559.1700000000001</ele>
        <time>2018-07-12T12:18:26Z</time>
      </trkpt>
      <trkpt lat="46.174685675650835" lon="10.491721490398049">
        <ele>2559.1700000000001</ele>
        <time>2018-07-12T12:18:42Z</time>
      </trkpt>
      <trkpt lat="46.174745187163353" lon="10.491696931421757">
        <ele>2559.6500000000001</ele>
        <time>2018-07-12T12:18:52Z</time>
      </trkpt>
      <trkpt lat="46.174771254882216" lon="10.491674719378352">
        <ele>2560.1300000000001</ele>
        <time>2018-07-12T12:19:02Z</time>
      </trkpt>
      <trkpt lat="46.174807548522949" lon="10.491643622517586">
        <ele>2560.6100000000001</ele>
        <time>2018-07-12T12:19:10Z</time>
      </trkpt>
      <trkpt lat="46.174874603748322" lon="10.491565922275186">
        <ele>2560.6100000000001</ele>
        <time>2018-07-12T12:19:21Z</time>
      </trkpt>
      <trkpt lat="46.174928834661841" lon="10.491515714675188">
        <ele>2562.0500000000002</ele>
        <time>2018-07-12T12:19:31Z</time>
      </trkpt>
      <trkpt lat="46.17495808750391" lon="10.491475397720933">
        <ele>2562.5300000000002</ele>
        <time>2018-07-12T12:19:38Z</time>
      </trkpt>
      <trkpt lat="46.175038889050484" lon="10.491404486820102">
        <ele>2564.4499999999998</ele>
        <time>2018-07-12T12:19:51Z</time>
      </trkpt>
      <trkpt lat="46.1751105543226" lon="10.491365427151322">
        <ele>2565.9000000000001</ele>
        <time>2018-07-12T12:20:05Z</time>
      </trkpt>
      <trkpt lat="46.175154224038124" lon="10.491364588961005">
        <ele>2567.3400000000001</ele>
        <time>2018-07-12T12:20:14Z</time>
      </trkpt>
      <trkpt lat="46.175198396667838" lon="10.49133257009089">
        <ele>2569.2600000000002</ele>
        <time>2018-07-12T12:20:26Z</time>
      </trkpt>
      <trkpt lat="46.175231253728271" lon="10.491292253136635">
        <ele>2570.6999999999998</ele>
        <time>2018-07-12T12:20:37Z</time>
      </trkpt>
      <trkpt lat="46.175232343375683" lon="10.491278255358338">
        <ele>2571.1799999999998</ele>
        <time>2018-07-12T12:20:39Z</time>
      </trkpt>
      <trkpt lat="46.175254220142961" lon="10.491237686946988">
        <ele>2570.2199999999998</ele>
        <time>2018-07-12T12:20:43Z</time>
      </trkpt>
      <trkpt lat="46.17529621347785" lon="10.491147916764021">
        <ele>2570.6999999999998</ele>
        <time>2018-07-12T12:20:53Z</time>
      </trkpt>
      <trkpt lat="46.175344996154308" lon="10.491098463535309">
        <ele>2571.6599999999999</ele>
        <time>2018-07-12T12:21:03Z</time>
      </trkpt>
      <trkpt lat="46.17539101280272" lon="10.4910799395293">
        <ele>2573.1100000000001</ele>
        <time>2018-07-12T12:21:12Z</time>
      </trkpt>
      <trkpt lat="46.175411799922585" lon="10.491037694737315">
        <ele>2575.0300000000002</ele>
        <time>2018-07-12T12:21:24Z</time>
      </trkpt>
      <trkpt lat="46.175503581762314" lon="10.491057392209768">
        <ele>2576.4699999999998</ele>
        <time>2018-07-12T12:21:38Z</time>
      </trkpt>
      <trkpt lat="46.175547083839774" lon="10.491111455485225">
        <ele>2577.9099999999999</ele>
        <time>2018-07-12T12:21:49Z</time>
      </trkpt>
      <trkpt lat="46.175563596189022" lon="10.491121094673872">
        <ele>2577.4299999999998</ele>
        <time>2018-07-12T12:21:51Z</time>
      </trkpt>
      <trkpt lat="46.175581114366651" lon="10.491130901500583">
        <ele>2577.4299999999998</ele>
        <time>2018-07-12T12:21:53Z</time>
      </trkpt>
      <trkpt lat="46.175604416057467" lon="10.491224694997072">
        <ele>2578.8699999999999</ele>
        <time>2018-07-12T12:22:03Z</time>
      </trkpt>
      <trkpt lat="46.175652779638767" lon="10.491288229823112">
        <ele>2579.3499999999999</ele>
        <time>2018-07-12T12:22:14Z</time>
      </trkpt>
      <trkpt lat="46.175723355263472" lon="10.491295522078872">
        <ele>2577.4299999999998</ele>
        <time>2018-07-12T12:22:25Z</time>
      </trkpt>
      <trkpt lat="46.175757385790348" lon="10.491309938952327">
        <ele>2576.4699999999998</ele>
        <time>2018-07-12T12:22:30Z</time>
      </trkpt>
      <trkpt lat="46.175853945314884" lon="10.491386717185378">
        <ele>2575.0300000000002</ele>
        <time>2018-07-12T12:22:42Z</time>
      </trkpt>
      <trkpt lat="46.175897950306535" lon="10.49139216542244">
        <ele>2573.1100000000001</ele>
        <time>2018-07-12T12:22:49Z</time>
      </trkpt>
      <trkpt lat="46.175990402698517" lon="10.491431057453156">
        <ele>2571.1799999999998</ele>
        <time>2018-07-12T12:23:01Z</time>
      </trkpt>
      <trkpt lat="46.175994593650103" lon="10.4914322309196">
        <ele>2571.1799999999998</ele>
        <time>2018-07-12T12:23:02Z</time>
      </trkpt>
      <trkpt lat="46.17602527141571" lon="10.491418652236462">
        <ele>2569.2600000000002</ele>
        <time>2018-07-12T12:23:11Z</time>
      </trkpt>
      <trkpt lat="46.176059385761619" lon="10.491427285596728">
        <ele>2568.3000000000002</ele>
        <time>2018-07-12T12:23:27Z</time>
      </trkpt>
      <trkpt lat="46.176128620281816" lon="10.491467854008079">
        <ele>2565.9000000000001</ele>
        <time>2018-07-12T12:23:38Z</time>
      </trkpt>
      <trkpt lat="46.176176900044084" lon="10.491522923111916">
        <ele>2563.9699999999998</ele>
        <time>2018-07-12T12:23:48Z</time>
      </trkpt>
      <trkpt lat="46.176219144836068" lon="10.491593582555652">
        <ele>2563.4899999999998</ele>
        <time>2018-07-12T12:23:58Z</time>
      </trkpt>
      <trkpt lat="46.176282092928886" lon="10.491606155410409">
        <ele>2561.5700000000002</ele>
        <time>2018-07-12T12:24:10Z</time>
      </trkpt>
      <trkpt lat="46.176326517015696" lon="10.491514541208744">
        <ele>2559.6500000000001</ele>
        <time>2018-07-12T12:24:20Z</time>
      </trkpt>
      <trkpt lat="46.176344370469451" lon="10.491500711068511">
        <ele>2558.6900000000001</ele>
        <time>2018-07-12T12:24:22Z</time>
      </trkpt>
      <trkpt lat="46.176363648846745" lon="10.491497190669179">
        <ele>2558.21</ele>
        <time>2018-07-12T12:24:24Z</time>
      </trkpt>
      <trkpt lat="46.176418298855424" lon="10.491476906463504">
        <ele>2557.73</ele>
        <time>2018-07-12T12:24:31Z</time>
      </trkpt>
      <trkpt lat="46.176481079310179" lon="10.491481935605407">
        <ele>2557.2399999999998</ele>
        <time>2018-07-12T12:24:38Z</time>
      </trkpt>
      <trkpt lat="46.17654025554657" lon="10.491530802100897">
        <ele>2556.7600000000002</ele>
        <time>2018-07-12T12:24:43Z</time>
      </trkpt>
      <trkpt lat="46.176617285236716" lon="10.491549829021096">
        <ele>2554.8400000000001</ele>
        <time>2018-07-12T12:24:54Z</time>
      </trkpt>
      <trkpt lat="46.176696075126529" lon="10.491509092971683">
        <ele>2553.4000000000001</ele>
        <time>2018-07-12T12:25:04Z</time>
      </trkpt>
      <trkpt lat="46.176708731800318" lon="10.49166290089488">
        <ele>2552.4400000000001</ele>
        <time>2018-07-12T12:25:08Z</time>
      </trkpt>
      <trkpt lat="46.176754496991634" lon="10.4916653316468">
        <ele>2551.48</ele>
        <time>2018-07-12T12:25:13Z</time>
      </trkpt>
      <trkpt lat="46.176865892484784" lon="10.491657368838787">
        <ele>2551.48</ele>
        <time>2018-07-12T12:25:26Z</time>
      </trkpt>
      <trkpt lat="46.176869161427021" lon="10.491702044382691">
        <ele>2551.48</ele>
        <time>2018-07-12T12:25:35Z</time>
      </trkpt>
      <trkpt lat="46.176859270781279" lon="10.49165359698236">
        <ele>2551.48</ele>
        <time>2018-07-12T12:25:48Z</time>
      </trkpt>
      <trkpt lat="46.176922721788287" lon="10.491627110168338">
        <ele>2550.0300000000002</ele>
        <time>2018-07-12T12:25:56Z</time>
      </trkpt>
      <trkpt lat="46.177027244120836" lon="10.491623338311911">
        <ele>2550.5100000000002</ele>
        <time>2018-07-12T12:26:07Z</time>
      </trkpt>
      <trkpt lat="46.177037721499801" lon="10.491621997207403">
        <ele>2550.5100000000002</ele>
        <time>2018-07-12T12:26:18Z</time>
      </trkpt>
      <trkpt lat="46.177049959078431" lon="10.491627361625433">
        <ele>2550.5100000000002</ele>
        <time>2018-07-12T12:26:35Z</time>
      </trkpt>
      <trkpt lat="46.17706211283803" lon="10.491599282249808">
        <ele>2550.5100000000002</ele>
        <time>2018-07-12T12:26:49Z</time>
      </trkpt>
      <trkpt lat="46.17712170816958" lon="10.491613950580359">
        <ele>2550.5100000000002</ele>
        <time>2018-07-12T12:26:59Z</time>
      </trkpt>
      <trkpt lat="46.17722530849278" lon="10.491571119055152">
        <ele>2550.5100000000002</ele>
        <time>2018-07-12T12:27:09Z</time>
      </trkpt>
      <trkpt lat="46.177344247698784" lon="10.49154119566083">
        <ele>2550.5100000000002</ele>
        <time>2018-07-12T12:27:20Z</time>
      </trkpt>
      <trkpt lat="46.177388587966561" lon="10.491536166518927">
        <ele>2550.5100000000002</ele>
        <time>2018-07-12T12:27:30Z</time>
      </trkpt>
      <trkpt lat="46.177396466955543" lon="10.491526108235121">
        <ele>2550.5100000000002</ele>
        <time>2018-07-12T12:27:41Z</time>
      </trkpt>
      <trkpt lat="46.177460923790932" lon="10.491506075486541">
        <ele>2550.5100000000002</ele>
        <time>2018-07-12T12:27:55Z</time>
      </trkpt>
      <trkpt lat="46.177490344271064" lon="10.491486042737961">
        <ele>2550.5100000000002</ele>
        <time>2018-07-12T12:28:04Z</time>
      </trkpt>
      <trkpt lat="46.17757910862565" lon="10.49148453399539">
        <ele>2550.5100000000002</ele>
        <time>2018-07-12T12:28:15Z</time>
      </trkpt>
      <trkpt lat="46.177636859938502" lon="10.491477493196726">
        <ele>2550.5100000000002</ele>
        <time>2018-07-12T12:28:25Z</time>
      </trkpt>
      <trkpt lat="46.177728557959199" lon="10.49146793782711">
        <ele>2550.5100000000002</ele>
        <time>2018-07-12T12:28:35Z</time>
      </trkpt>
      <trkpt lat="46.177843892946839" lon="10.491457795724273">
        <ele>2550.5100000000002</ele>
        <time>2018-07-12T12:28:46Z</time>
      </trkpt>
      <trkpt lat="46.177946906536818" lon="10.491456035524607">
        <ele>2550.5100000000002</ele>
        <time>2018-07-12T12:28:58Z</time>
      </trkpt>
      <trkpt lat="46.178002394735813" lon="10.491428626701236">
        <ele>2551</ele>
        <time>2018-07-12T12:29:10Z</time>
      </trkpt>
      <trkpt lat="46.17808579467237" lon="10.491410521790385">
        <ele>2550.5100000000002</ele>
        <time>2018-07-12T12:29:22Z</time>
      </trkpt>
      <trkpt lat="46.178241614252329" lon="10.491393925622106">
        <ele>2550.5100000000002</ele>
        <time>2018-07-12T12:29:36Z</time>
      </trkpt>
      <trkpt lat="46.178352506831288" lon="10.491489730775356">
        <ele>2550.0300000000002</ele>
        <time>2018-07-12T12:29:48Z</time>
      </trkpt>
      <trkpt lat="46.178405396640301" lon="10.491554941982031">
        <ele>2550.5100000000002</ele>
        <time>2018-07-12T12:29:55Z</time>
      </trkpt>
      <trkpt lat="46.178469434380531" lon="10.491772368550301">
        <ele>2550.0300000000002</ele>
        <time>2018-07-12T12:30:09Z</time>
      </trkpt>
      <trkpt lat="46.178482007235289" lon="10.491862474009395">
        <ele>2550.5100000000002</ele>
        <time>2018-07-12T12:30:20Z</time>
      </trkpt>
      <trkpt lat="46.178535651415586" lon="10.492041930556297">
        <ele>2550.0300000000002</ele>
        <time>2018-07-12T12:30:33Z</time>
      </trkpt>
      <trkpt lat="46.178579740226269" lon="10.492188949137926">
        <ele>2550.0300000000002</ele>
        <time>2018-07-12T12:30:43Z</time>
      </trkpt>
      <trkpt lat="46.178617123514414" lon="10.492350803688169">
        <ele>2550.5100000000002</ele>
        <time>2018-07-12T12:30:54Z</time>
      </trkpt>
      <trkpt lat="46.178669091314077" lon="10.492566218599677">
        <ele>2550.5100000000002</ele>
        <time>2018-07-12T12:31:08Z</time>
      </trkpt>
      <trkpt lat="46.178748467937112" lon="10.492733772844076">
        <ele>2550.0300000000002</ele>
        <time>2018-07-12T12:31:21Z</time>
      </trkpt>
      <trkpt lat="46.178865395486355" lon="10.492838378995657">
        <ele>2550.0300000000002</ele>
        <time>2018-07-12T12:31:34Z</time>
      </trkpt>
      <trkpt lat="46.178904706612229" lon="10.492855142802">
        <ele>2550.0300000000002</ele>
        <time>2018-07-12T12:31:38Z</time>
      </trkpt>
      <trkpt lat="46.178944855928421" lon="10.492875343188643">
        <ele>2550.5100000000002</ele>
        <time>2018-07-12T12:31:42Z</time>
      </trkpt>
      <trkpt lat="46.179080726578832" lon="10.492958575487137">
        <ele>2550.5100000000002</ele>
        <time>2018-07-12T12:31:55Z</time>
      </trkpt>
      <trkpt lat="46.179171251133084" lon="10.493027893826365">
        <ele>2550.0300000000002</ele>
        <time>2018-07-12T12:32:04Z</time>
      </trkpt>
      <trkpt lat="46.179312318563461" lon="10.493120597675443">
        <ele>2550.5100000000002</ele>
        <time>2018-07-12T12:32:18Z</time>
      </trkpt>
      <trkpt lat="46.179355904459953" lon="10.493151862174273">
        <ele>2550.5100000000002</ele>
        <time>2018-07-12T12:32:23Z</time>
      </trkpt>
      <trkpt lat="46.179391192272305" lon="10.493198297917843">
        <ele>2550.0300000000002</ele>
        <time>2018-07-12T12:32:34Z</time>
      </trkpt>
      <trkpt lat="46.17941097356379" lon="10.493182204663754">
        <ele>2550.5100000000002</ele>
        <time>2018-07-12T12:32:47Z</time>
      </trkpt>
      <trkpt lat="46.179431341588497" lon="10.493190418928862">
        <ele>2550.5100000000002</ele>
        <time>2018-07-12T12:32:57Z</time>
      </trkpt>
      <trkpt lat="46.179503845050931" lon="10.493190586566925">
        <ele>2552.9200000000001</ele>
        <time>2018-07-12T12:33:07Z</time>
      </trkpt>
      <trkpt lat="46.179574504494667" lon="10.493200896307826">
        <ele>2553.4000000000001</ele>
        <time>2018-07-12T12:33:19Z</time>
      </trkpt>
      <trkpt lat="46.179610043764114" lon="10.493203829973936">
        <ele>2554.8400000000001</ele>
        <time>2018-07-12T12:33:31Z</time>
      </trkpt>
      <trkpt lat="46.179664023220539" lon="10.493295947089791">
        <ele>2555.3200000000002</ele>
        <time>2018-07-12T12:33:43Z</time>
      </trkpt>
      <trkpt lat="46.179670142009854" lon="10.493270717561245">
        <ele>2555.3200000000002</ele>
        <time>2018-07-12T12:33:51Z</time>
      </trkpt>
      <trkpt lat="46.179683469235897" lon="10.493279602378607">
        <ele>2555.3200000000002</ele>
        <time>2018-07-12T12:34:00Z</time>
      </trkpt>
      <trkpt lat="46.179667124524713" lon="10.493279350921512">
        <ele>2555.3200000000002</ele>
        <time>2018-07-12T12:34:10Z</time>
      </trkpt>
      <trkpt lat="46.179669471457601" lon="10.493300389498472">
        <ele>2554.8400000000001</ele>
        <time>2018-07-12T12:34:15Z</time>
      </trkpt>
      <trkpt lat="46.179677350446582" lon="10.493332156911492">
        <ele>2555.3200000000002</ele>
        <time>2018-07-12T12:34:18Z</time>
      </trkpt>
      <trkpt lat="46.179671650752425" lon="10.493465596809983">
        <ele>2555.8000000000002</ele>
        <time>2018-07-12T12:34:29Z</time>
      </trkpt>
      <trkpt lat="46.179668633267283" lon="10.493517648428679">
        <ele>2555.8000000000002</ele>
        <time>2018-07-12T12:34:33Z</time>
      </trkpt>
      <trkpt lat="46.1796660348773" lon="10.493634743615985">
        <ele>2556.2800000000002</ele>
        <time>2018-07-12T12:34:42Z</time>
      </trkpt>
      <trkpt lat="46.179685899987817" lon="10.493783270940185">
        <ele>2557.2399999999998</ele>
        <time>2018-07-12T12:34:54Z</time>
      </trkpt>
      <trkpt lat="46.179746584966779" lon="10.493882847949862">
        <ele>2558.6900000000001</ele>
        <time>2018-07-12T12:35:06Z</time>
      </trkpt>
      <trkpt lat="46.179775586351752" lon="10.493969852104783">
        <ele>2560.1300000000001</ele>
        <time>2018-07-12T12:35:17Z</time>
      </trkpt>
      <trkpt lat="46.179723870009184" lon="10.494074877351522">
        <ele>2560.1300000000001</ele>
        <time>2018-07-12T12:35:25Z</time>
      </trkpt>
      <trkpt lat="46.179607696831226" lon="10.49418174661696">
        <ele>2560.1300000000001</ele>
        <time>2018-07-12T12:35:37Z</time>
      </trkpt>
      <trkpt lat="46.17958297021687" lon="10.494212340563536">
        <ele>2560.1300000000001</ele>
        <time>2018-07-12T12:35:40Z</time>
      </trkpt>
      <trkpt lat="46.17955170571804" lon="10.494321389123797">
        <ele>2560.1300000000001</ele>
        <time>2018-07-12T12:35:53Z</time>
      </trkpt>
      <trkpt lat="46.179519603028893" lon="10.494506964460015">
        <ele>2559.6500000000001</ele>
        <time>2018-07-12T12:36:05Z</time>
      </trkpt>
      <trkpt lat="46.179469395428896" lon="10.494707459583879">
        <ele>2559.6500000000001</ele>
        <time>2018-07-12T12:36:18Z</time>
      </trkpt>
      <trkpt lat="46.179384738206863" lon="10.494881132617593">
        <ele>2559.6500000000001</ele>
        <time>2018-07-12T12:36:32Z</time>
      </trkpt>
      <trkpt lat="46.179317431524396" lon="10.49500216729939">
        <ele>2559.6500000000001</ele>
        <time>2018-07-12T12:36:44Z</time>
      </trkpt>
      <trkpt lat="46.179276946932077" lon="10.495025971904397">
        <ele>2559.6500000000001</ele>
        <time>2018-07-12T12:36:53Z</time>
      </trkpt>
      <trkpt lat="46.179305026307702" lon="10.495001748204231">
        <ele>2559.6500000000001</ele>
        <time>2018-07-12T12:37:01Z</time>
      </trkpt>
      <trkpt lat="46.179295387119055" lon="10.495032342150807">
        <ele>2559.1700000000001</ele>
        <time>2018-07-12T12:37:11Z</time>
      </trkpt>
      <trkpt lat="46.179298320785165" lon="10.495020775124431">
        <ele>2558.6900000000001</ele>
        <time>2018-07-12T12:37:35Z</time>
      </trkpt>
      <trkpt lat="46.179299661889672" lon="10.495014740154147">
        <ele>2558.6900000000001</ele>
        <time>2018-07-12T12:37:56Z</time>
      </trkpt>
      <trkpt lat="46.179301254451275" lon="10.495026810094714">
        <ele>2558.6900000000001</ele>
        <time>2018-07-12T12:38:19Z</time>
      </trkpt>
      <trkpt lat="46.179287927225232" lon="10.495051452890038">
        <ele>2558.6900000000001</ele>
        <time>2018-07-12T12:38:41Z</time>
      </trkpt>
      <trkpt lat="46.179283736273646" lon="10.495028989389539">
        <ele>2558.6900000000001</ele>
        <time>2018-07-12T12:39:07Z</time>
      </trkpt>
      <trkpt lat="46.17928734049201" lon="10.495025552809238">
        <ele>2558.6900000000001</ele>
        <time>2018-07-12T12:39:34Z</time>
      </trkpt>
      <trkpt lat="46.179284071549773" lon="10.495045753195882">
        <ele>2558.6900000000001</ele>
        <time>2018-07-12T12:40:02Z</time>
      </trkpt>
      <trkpt lat="46.179320113733411" lon="10.495025971904397">
        <ele>2559.1700000000001</ele>
        <time>2018-07-12T12:40:22Z</time>
      </trkpt>
      <trkpt lat="46.179347354918718" lon="10.495035862550139">
        <ele>2559.1700000000001</ele>
        <time>2018-07-12T12:40:39Z</time>
      </trkpt>
      <trkpt lat="46.179333105683327" lon="10.495018344372511">
        <ele>2559.1700000000001</ele>
        <time>2018-07-12T12:40:53Z</time>
      </trkpt>
      <trkpt lat="46.179320868104696" lon="10.495024127885699">
        <ele>2558.6900000000001</ele>
        <time>2018-07-12T12:41:10Z</time>
      </trkpt>
      <trkpt lat="46.179328579455614" lon="10.495019434019923">
        <ele>2558.6900000000001</ele>
        <time>2018-07-12T12:41:25Z</time>
      </trkpt>
    </trkseg>
  </trk>

  <trk>
    <name>7adamello2018-07-13</name>
    <extensions>
      <gpxx:TrackExtension>
        <gpxx:DisplayColor>Yellow</gpxx:DisplayColor>
      </gpxx:TrackExtension>
    </extensions>
    <trkseg>
      <trkpt lat="46.17943829856813" lon="10.494752889499068">
        <ele>2513.5</ele>
        <time>2018-07-13T05:59:08Z</time>
      </trkpt>
      <trkpt lat="46.17943829856813" lon="10.494754984974861">
        <ele>2513.5</ele>
        <time>2018-07-13T05:59:09Z</time>
      </trkpt>
      <trkpt lat="46.179439136758447" lon="10.4947564098984">
        <ele>2557.2399999999998</ele>
        <time>2018-07-13T05:59:13Z</time>
      </trkpt>
      <trkpt lat="46.179438885301352" lon="10.494756158441305">
        <ele>2557.2399999999998</ele>
        <time>2018-07-13T05:59:14Z</time>
      </trkpt>
      <trkpt lat="46.179451541975141" lon="10.494740149006248">
        <ele>2555.8000000000002</ele>
        <time>2018-07-13T05:59:27Z</time>
      </trkpt>
      <trkpt lat="46.179485404863954" lon="10.494714584201574">
        <ele>2557.2399999999998</ele>
        <time>2018-07-13T05:59:32Z</time>
      </trkpt>
      <trkpt lat="46.179518261924386" lon="10.494562033563852">
        <ele>2557.2399999999998</ele>
        <time>2018-07-13T05:59:42Z</time>
      </trkpt>
      <trkpt lat="46.179521447047591" lon="10.494470084086061">
        <ele>2557.73</ele>
        <time>2018-07-13T05:59:48Z</time>
      </trkpt>
      <trkpt lat="46.179534941911697" lon="10.494406297802925">
        <ele>2557.73</ele>
        <time>2018-07-13T05:59:52Z</time>
      </trkpt>
      <trkpt lat="46.17954877205193" lon="10.494247376918793">
        <ele>2557.73</ele>
        <time>2018-07-13T06:00:04Z</time>
      </trkpt>
      <trkpt lat="46.179563440382481" lon="10.494201192632318">
        <ele>2557.73</ele>
        <time>2018-07-13T06:00:14Z</time>
      </trkpt>
      <trkpt lat="46.179673913866282" lon="10.494125839322805">
        <ele>2558.21</ele>
        <time>2018-07-13T06:00:25Z</time>
      </trkpt>
      <trkpt lat="46.179726468399167" lon="10.494084013625979">
        <ele>2558.21</ele>
        <time>2018-07-13T06:00:30Z</time>
      </trkpt>
      <trkpt lat="46.179762594401836" lon="10.493941521272063">
        <ele>2557.73</ele>
        <time>2018-07-13T06:00:40Z</time>
      </trkpt>
      <trkpt lat="46.17966846562922" lon="10.493774553760886">
        <ele>2555.3200000000002</ele>
        <time>2018-07-13T06:00:54Z</time>
      </trkpt>
      <trkpt lat="46.179650276899338" lon="10.493558971211314">
        <ele>2553.8800000000001</ele>
        <time>2018-07-13T06:01:06Z</time>
      </trkpt>
      <trkpt lat="46.179673913866282" lon="10.493340287357569">
        <ele>2553.4000000000001</ele>
        <time>2018-07-13T06:01:19Z</time>
      </trkpt>
      <trkpt lat="46.179669303819537" lon="10.493308771401644">
        <ele>2552.9200000000001</ele>
        <time>2018-07-13T06:01:28Z</time>
      </trkpt>
      <trkpt lat="46.179662346839905" lon="10.493200477212667">
        <ele>2552.4400000000001</ele>
        <time>2018-07-13T06:01:34Z</time>
      </trkpt>
      <trkpt lat="46.179691851139069" lon="10.493015320971608">
        <ele>2551.96</ele>
        <time>2018-07-13T06:01:46Z</time>
      </trkpt>
      <trkpt lat="46.179733760654926" lon="10.492805102840066">
        <ele>2550.5100000000002</ele>
        <time>2018-07-13T06:02:00Z</time>
      </trkpt>
      <trkpt lat="46.179769467562437" lon="10.492637380957603">
        <ele>2549.5500000000002</ele>
        <time>2018-07-13T06:02:13Z</time>
      </trkpt>
      <trkpt lat="46.179812718182802" lon="10.49247452057898">
        <ele>2548.1100000000001</ele>
        <time>2018-07-13T06:02:24Z</time>
      </trkpt>
      <trkpt lat="46.179811377078295" lon="10.492287771776319">
        <ele>2546.6700000000001</ele>
        <time>2018-07-13T06:02:36Z</time>
      </trkpt>
      <trkpt lat="46.17976519279182" lon="10.492213675752282">
        <ele>2545.23</ele>
        <time>2018-07-13T06:02:44Z</time>
      </trkpt>
      <trkpt lat="46.179685313254595" lon="10.492082918062806">
        <ele>2542.8200000000002</ele>
        <time>2018-07-13T06:02:56Z</time>
      </trkpt>
      <trkpt lat="46.179595459252596" lon="10.491930618882179">
        <ele>2540.9000000000001</ele>
        <time>2018-07-13T06:03:08Z</time>
      </trkpt>
      <trkpt lat="46.179491020739079" lon="10.491738254204392">
        <ele>2538.98</ele>
        <time>2018-07-13T06:03:22Z</time>
      </trkpt>
      <trkpt lat="46.179412817582488" lon="10.491581931710243">
        <ele>2537.54</ele>
        <time>2018-07-13T06:03:33Z</time>
      </trkpt>
      <trkpt lat="46.17933570407331" lon="10.491382274776697">
        <ele>2535.6100000000001</ele>
        <time>2018-07-13T06:03:46Z</time>
      </trkpt>
      <trkpt lat="46.179294297471642" lon="10.491301221773028">
        <ele>2535.1300000000001</ele>
        <time>2018-07-13T06:03:53Z</time>
      </trkpt>
      <trkpt lat="46.179273594170809" lon="10.49128076992929">
        <ele>2534.6500000000001</ele>
        <time>2018-07-13T06:04:01Z</time>
      </trkpt>
      <trkpt lat="46.179274264723063" lon="10.491281440481544">
        <ele>2534.6500000000001</ele>
        <time>2018-07-13T06:04:04Z</time>
      </trkpt>
      <trkpt lat="46.179251130670309" lon="10.491232573986053">
        <ele>2534.6500000000001</ele>
        <time>2018-07-13T06:04:08Z</time>
      </trkpt>
      <trkpt lat="46.179238222539425" lon="10.491204997524619">
        <ele>2534.1700000000001</ele>
        <time>2018-07-13T06:04:10Z</time>
      </trkpt>
      <trkpt lat="46.179239982739091" lon="10.491107348352671">
        <ele>2533.6900000000001</ele>
        <time>2018-07-13T06:04:20Z</time>
      </trkpt>
      <trkpt lat="46.179244006052613" lon="10.491092260926962">
        <ele>2533.21</ele>
        <time>2018-07-13T06:04:26Z</time>
      </trkpt>
      <trkpt lat="46.179332602769136" lon="10.490905344486237">
        <ele>2531.77</ele>
        <time>2018-07-13T06:04:39Z</time>
      </trkpt>
      <trkpt lat="46.179385660216212" lon="10.49081020988524">
        <ele>2531.77</ele>
        <time>2018-07-13T06:04:48Z</time>
      </trkpt>
      <trkpt lat="46.179395047947764" lon="10.490778526291251">
        <ele>2531.29</ele>
        <time>2018-07-13T06:04:51Z</time>
      </trkpt>
      <trkpt lat="46.17945690639317" lon="10.490697389468551">
        <ele>2530.8099999999999</ele>
        <time>2018-07-13T06:05:01Z</time>
      </trkpt>
      <trkpt lat="46.179497642442584" lon="10.490643829107285">
        <ele>2530.8099999999999</ele>
        <time>2018-07-13T06:05:09Z</time>
      </trkpt>
      <trkpt lat="46.17953117005527" lon="10.49060108140111">
        <ele>2530.3299999999999</ele>
        <time>2018-07-13T06:05:15Z</time>
      </trkpt>
      <trkpt lat="46.179604595527053" lon="10.490523716434836">
        <ele>2530.8099999999999</ele>
        <time>2018-07-13T06:05:26Z</time>
      </trkpt>
      <trkpt lat="46.179624292999506" lon="10.490434030070901">
        <ele>2531.77</ele>
        <time>2018-07-13T06:05:35Z</time>
      </trkpt>
      <trkpt lat="46.17965966463089" lon="10.49037778750062">
        <ele>2531.29</ele>
        <time>2018-07-13T06:05:44Z</time>
      </trkpt>
      <trkpt lat="46.179713476449251" lon="10.490353899076581">
        <ele>2529.8499999999999</ele>
        <time>2018-07-13T06:05:53Z</time>
      </trkpt>
      <trkpt lat="46.179722612723708" lon="10.490339985117316">
        <ele>2529.3699999999999</ele>
        <time>2018-07-13T06:05:55Z</time>
      </trkpt>
      <trkpt lat="46.179747674614191" lon="10.490239402279258">
        <ele>2527.4400000000001</ele>
        <time>2018-07-13T06:06:05Z</time>
      </trkpt>
      <trkpt lat="46.179765947163105" lon="10.49020386300981">
        <ele>2527.4400000000001</ele>
        <time>2018-07-13T06:06:08Z</time>
      </trkpt>
      <trkpt lat="46.179827051237226" lon="10.49013345502317">
        <ele>2526.96</ele>
        <time>2018-07-13T06:06:16Z</time>
      </trkpt>
      <trkpt lat="46.179854040965438" lon="10.490088947117329">
        <ele>2526.48</ele>
        <time>2018-07-13T06:06:20Z</time>
      </trkpt>
      <trkpt lat="46.179903158918023" lon="10.490035638213158">
        <ele>2525.52</ele>
        <time>2018-07-13T06:06:27Z</time>
      </trkpt>
      <trkpt lat="46.179934591054916" lon="10.489995069801807">
        <ele>2525.52</ele>
        <time>2018-07-13T06:06:32Z</time>
      </trkpt>
      <trkpt lat="46.179985133931041" lon="10.489863138645887">
        <ele>2524.5599999999999</ele>
        <time>2018-07-13T06:06:42Z</time>
      </trkpt>
      <trkpt lat="46.180013129487634" lon="10.489765824750066">
        <ele>2523.1199999999999</ele>
        <time>2018-07-13T06:06:52Z</time>
      </trkpt>
      <trkpt lat="46.18003249168396" lon="10.489701200276613">
        <ele>2522.6399999999999</ele>
        <time>2018-07-13T06:07:00Z</time>
      </trkpt>
      <trkpt lat="46.180091081187129" lon="10.489603718742728">
        <ele>2521.6799999999998</ele>
        <time>2018-07-13T06:07:10Z</time>
      </trkpt>
      <trkpt lat="46.180098205804825" lon="10.489556025713682">
        <ele>2520.71</ele>
        <time>2018-07-13T06:07:19Z</time>
      </trkpt>
      <trkpt lat="46.180093176662922" lon="10.489533143118024">
        <ele>2520.23</ele>
        <time>2018-07-13T06:07:34Z</time>
      </trkpt>
      <trkpt lat="46.180111197754741" lon="10.489512104541063">
        <ele>2519.75</ele>
        <time>2018-07-13T06:07:37Z</time>
      </trkpt>
      <trkpt lat="46.180201638489962" lon="10.489484611898661">
        <ele>2518.79</ele>
        <time>2018-07-13T06:07:47Z</time>
      </trkpt>
      <trkpt lat="46.180233238264918" lon="10.489484779536724">
        <ele>2518.3099999999999</ele>
        <time>2018-07-13T06:07:51Z</time>
      </trkpt>
      <trkpt lat="46.180271292105317" lon="10.489418311044574">
        <ele>2517.3499999999999</ele>
        <time>2018-07-13T06:08:00Z</time>
      </trkpt>
      <trkpt lat="46.1802670173347" lon="10.489353938028216">
        <ele>2515.4299999999998</ele>
        <time>2018-07-13T06:08:11Z</time>
      </trkpt>
      <trkpt lat="46.180226113647223" lon="10.489297192543745">
        <ele>2513.98</ele>
        <time>2018-07-13T06:08:20Z</time>
      </trkpt>
      <trkpt lat="46.180183617398143" lon="10.489224437624216">
        <ele>2512.0599999999999</ele>
        <time>2018-07-13T06:08:30Z</time>
      </trkpt>
      <trkpt lat="46.180155873298645" lon="10.489154532551765">
        <ele>2511.0999999999999</ele>
        <time>2018-07-13T06:08:39Z</time>
      </trkpt>
      <trkpt lat="46.18013022467494" lon="10.489060487598181">
        <ele>2508.6999999999998</ele>
        <time>2018-07-13T06:08:51Z</time>
      </trkpt>
      <trkpt lat="46.180074149742723" lon="10.489023691043258">
        <ele>2507.7399999999998</ele>
        <time>2018-07-13T06:08:58Z</time>
      </trkpt>
      <trkpt lat="46.180041460320354" lon="10.488903746008873">
        <ele>2504.8499999999999</ele>
        <time>2018-07-13T06:09:10Z</time>
      </trkpt>
      <trkpt lat="46.1799924261868" lon="10.488816322758794">
        <ele>2502.9299999999998</ele>
        <time>2018-07-13T06:09:22Z</time>
      </trkpt>
      <trkpt lat="46.179984044283628" lon="10.488703837618232">
        <ele>2501.4899999999998</ele>
        <time>2018-07-13T06:09:32Z</time>
      </trkpt>
      <trkpt lat="46.179950851947069" lon="10.488599566742778">
        <ele>2498.5999999999999</ele>
        <time>2018-07-13T06:09:43Z</time>
      </trkpt>
      <trkpt lat="46.179924951866269" lon="10.488592442125082">
        <ele>2498.1199999999999</ele>
        <time>2018-07-13T06:09:46Z</time>
      </trkpt>
      <trkpt lat="46.179855465888977" lon="10.48850828781724">
        <ele>2496.1999999999998</ele>
        <time>2018-07-13T06:09:58Z</time>
      </trkpt>
      <trkpt lat="46.179785812273622" lon="10.488521866500378">
        <ele>2493.8000000000002</ele>
        <time>2018-07-13T06:10:10Z</time>
      </trkpt>
      <trkpt lat="46.179766952991486" lon="10.48847216181457">
        <ele>2492.8400000000001</ele>
        <time>2018-07-13T06:10:18Z</time>
      </trkpt>
      <trkpt lat="46.179779358208179" lon="10.488410890102386">
        <ele>2492.8400000000001</ele>
        <time>2018-07-13T06:10:22Z</time>
      </trkpt>
      <trkpt lat="46.179802156984806" lon="10.488290609791875">
        <ele>2490.9099999999999</ele>
        <time>2018-07-13T06:10:33Z</time>
      </trkpt>
      <trkpt lat="46.179856471717358" lon="10.488200252875686">
        <ele>2488.5100000000002</ele>
        <time>2018-07-13T06:10:45Z</time>
      </trkpt>
      <trkpt lat="46.1799147259444" lon="10.488158510997891">
        <ele>2488.0300000000002</ele>
        <time>2018-07-13T06:10:54Z</time>
      </trkpt>
      <trkpt lat="46.179964682087302" lon="10.488110817968845">
        <ele>2485.6300000000001</ele>
        <time>2018-07-13T06:11:03Z</time>
      </trkpt>
      <trkpt lat="46.179962251335382" lon="10.488079804927111">
        <ele>2484.1799999999998</ele>
        <time>2018-07-13T06:11:13Z</time>
      </trkpt>
      <trkpt lat="46.179958814755082" lon="10.487985089421272">
        <ele>2481.7800000000002</ele>
        <time>2018-07-13T06:11:24Z</time>
      </trkpt>
      <trkpt lat="46.180000053718686" lon="10.487910406664014">
        <ele>2478.9000000000001</ele>
        <time>2018-07-13T06:11:36Z</time>
      </trkpt>
      <trkpt lat="46.180024361237884" lon="10.487853744998574">
        <ele>2477.4499999999998</ele>
        <time>2018-07-13T06:11:45Z</time>
      </trkpt>
      <trkpt lat="46.179982619360089" lon="10.487811919301748">
        <ele>2475.5300000000002</ele>
        <time>2018-07-13T06:11:55Z</time>
      </trkpt>
      <trkpt lat="46.17997289635241" lon="10.487801106646657">
        <ele>2475.5300000000002</ele>
        <time>2018-07-13T06:11:57Z</time>
      </trkpt>
      <trkpt lat="46.179988486692309" lon="10.487748133018613">
        <ele>2474.5700000000002</ele>
        <time>2018-07-13T06:12:02Z</time>
      </trkpt>
      <trkpt lat="46.180050848051906" lon="10.487676551565528">
        <ele>2473.1300000000001</ele>
        <time>2018-07-13T06:12:11Z</time>
      </trkpt>
      <trkpt lat="46.180024864152074" lon="10.48765417188406">
        <ele>2471.21</ele>
        <time>2018-07-13T06:12:17Z</time>
      </trkpt>
      <trkpt lat="46.179956719279289" lon="10.487616788595915">
        <ele>2469.7600000000002</ele>
        <time>2018-07-13T06:12:27Z</time>
      </trkpt>
      <trkpt lat="46.17990349419415" lon="10.487587535753846">
        <ele>2468.8000000000002</ele>
        <time>2018-07-13T06:12:36Z</time>
      </trkpt>
      <trkpt lat="46.179859656840563" lon="10.48748167231679">
        <ele>2466.4000000000001</ele>
        <time>2018-07-13T06:12:48Z</time>
      </trkpt>
      <trkpt lat="46.179816070944071" lon="10.487401038408279">
        <ele>2464</ele>
        <time>2018-07-13T06:12:59Z</time>
      </trkpt>
      <trkpt lat="46.1797852255404" lon="10.487315794453025">
        <ele>2462.0700000000002</ele>
        <time>2018-07-13T06:13:10Z</time>
      </trkpt>
      <trkpt lat="46.179828979074955" lon="10.487237339839339">
        <ele>2460.6300000000001</ele>
        <time>2018-07-13T06:13:19Z</time>
      </trkpt>
      <trkpt lat="46.179861668497324" lon="10.487175565212965">
        <ele>2458.71</ele>
        <time>2018-07-13T06:13:29Z</time>
      </trkpt>
      <trkpt lat="46.179799642413855" lon="10.487160729244351">
        <ele>2456.79</ele>
        <time>2018-07-13T06:13:38Z</time>
      </trkpt>
      <trkpt lat="46.179759241640568" lon="10.48714404925704">
        <ele>2455.8200000000002</ele>
        <time>2018-07-13T06:13:44Z</time>
      </trkpt>
      <trkpt lat="46.179679278284311" lon="10.487085040658712">
        <ele>2453.4200000000001</ele>
        <time>2018-07-13T06:13:55Z</time>
      </trkpt>
      <trkpt lat="46.179626723751426" lon="10.487092165276408">
        <ele>2451.98</ele>
        <time>2018-07-13T06:14:03Z</time>
      </trkpt>
      <trkpt lat="46.179554639384151" lon="10.487101301550865">
        <ele>2450.54</ele>
        <time>2018-07-13T06:14:14Z</time>
      </trkpt>
      <trkpt lat="46.17956779897213" lon="10.487024271860719">
        <ele>2449.5799999999999</ele>
        <time>2018-07-13T06:14:19Z</time>
      </trkpt>
      <trkpt lat="46.179581880569458" lon="10.486991917714477">
        <ele>2449.5799999999999</ele>
        <time>2018-07-13T06:14:21Z</time>
      </trkpt>
      <trkpt lat="46.179589424282312" lon="10.486965514719486">
        <ele>2449.0999999999999</ele>
        <time>2018-07-13T06:14:23Z</time>
      </trkpt>
      <trkpt lat="46.179654970765114" lon="10.48686065711081">
        <ele>2447.6500000000001</ele>
        <time>2018-07-13T06:14:34Z</time>
      </trkpt>
      <trkpt lat="46.179622951894999" lon="10.486826794221997">
        <ele>2445.73</ele>
        <time>2018-07-13T06:14:44Z</time>
      </trkpt>
      <trkpt lat="46.179584646597505" lon="10.486785471439362">
        <ele>2443.8099999999999</ele>
        <time>2018-07-13T06:14:53Z</time>
      </trkpt>
      <trkpt lat="46.179626723751426" lon="10.486712129786611">
        <ele>2441.8899999999999</ele>
        <time>2018-07-13T06:15:03Z</time>
      </trkpt>
      <trkpt lat="46.179630663245916" lon="10.486662592738867">
        <ele>2439.96</ele>
        <time>2018-07-13T06:15:14Z</time>
      </trkpt>
      <trkpt lat="46.17958783172071" lon="10.486608613282442">
        <ele>2439.48</ele>
        <time>2018-07-13T06:15:24Z</time>
      </trkpt>
      <trkpt lat="46.179647594690323" lon="10.486582713201642">
        <ele>2438.04</ele>
        <time>2018-07-13T06:15:36Z</time>
      </trkpt>
      <trkpt lat="46.179636530578136" lon="10.486535942181945">
        <ele>2436.5999999999999</ele>
        <time>2018-07-13T06:15:44Z</time>
      </trkpt>
      <trkpt lat="46.179586071521044" lon="10.48643846064806">
        <ele>2434.6799999999998</ele>
        <time>2018-07-13T06:15:55Z</time>
      </trkpt>
      <trkpt lat="46.179660502821207" lon="10.486412476748228">
        <ele>2433.23</ele>
        <time>2018-07-13T06:16:04Z</time>
      </trkpt>
      <trkpt lat="46.17966896854341" lon="10.486412392929196">
        <ele>2432.75</ele>
        <time>2018-07-13T06:16:05Z</time>
      </trkpt>
      <trkpt lat="46.179675925523043" lon="10.48635053448379">
        <ele>2430.8299999999999</ele>
        <time>2018-07-13T06:16:16Z</time>
      </trkpt>
      <trkpt lat="46.17962596938014" lon="10.486314408481121">
        <ele>2429.8699999999999</ele>
        <time>2018-07-13T06:16:22Z</time>
      </trkpt>
      <trkpt lat="46.179652623832226" lon="10.48624743707478">
        <ele>2427.9499999999998</ele>
        <time>2018-07-13T06:16:29Z</time>
      </trkpt>
      <trkpt lat="46.179698640480638" lon="10.486192116513848">
        <ele>2426.5</ele>
        <time>2018-07-13T06:16:39Z</time>
      </trkpt>
      <trkpt lat="46.179727306589484" lon="10.486107040196657">
        <ele>2425.0599999999999</ele>
        <time>2018-07-13T06:16:48Z</time>
      </trkpt>
      <trkpt lat="46.179740466177464" lon="10.486060436815023">
        <ele>2424.0999999999999</ele>
        <time>2018-07-13T06:16:53Z</time>
      </trkpt>
      <trkpt lat="46.179776424542069" lon="10.48593420535326">
        <ele>2422.1799999999998</ele>
        <time>2018-07-13T06:17:05Z</time>
      </trkpt>
      <trkpt lat="46.179782040417194" lon="10.485913082957268">
        <ele>2421.6999999999998</ele>
        <time>2018-07-13T06:17:07Z</time>
      </trkpt>
      <trkpt lat="46.179805342108011" lon="10.485799927264452">
        <ele>2419.3000000000002</ele>
        <time>2018-07-13T06:17:18Z</time>
      </trkpt>
      <trkpt lat="46.179802324622869" lon="10.485786851495504">
        <ele>2418.8099999999999</ele>
        <time>2018-07-13T06:17:20Z</time>
      </trkpt>
      <trkpt lat="46.179754128679633" lon="10.485772518441081">
        <ele>2417.3699999999999</ele>
        <time>2018-07-13T06:17:26Z</time>
      </trkpt>
      <trkpt lat="46.179641475901008" lon="10.485831024125218">
        <ele>2416.4099999999999</ele>
        <time>2018-07-13T06:17:37Z</time>
      </trkpt>
      <trkpt lat="46.179594285786152" lon="10.485829766839743">
        <ele>2416.4099999999999</ele>
        <time>2018-07-13T06:17:42Z</time>
      </trkpt>
      <trkpt lat="46.179596800357103" lon="10.485726166516542">
        <ele>2414.4899999999998</ele>
        <time>2018-07-13T06:17:52Z</time>
      </trkpt>
      <trkpt lat="46.179597219452262" lon="10.485685849562287">
        <ele>2413.0500000000002</ele>
        <time>2018-07-13T06:17:58Z</time>
      </trkpt>
      <trkpt lat="46.179517172276974" lon="10.485619213432074">
        <ele>2410.6399999999999</ele>
        <time>2018-07-13T06:18:10Z</time>
      </trkpt>
      <trkpt lat="46.179443662986159" lon="10.485551152378321">
        <ele>2409.1999999999998</ele>
        <time>2018-07-13T06:18:20Z</time>
      </trkpt>
      <trkpt lat="46.179395969957113" lon="10.485496418550611">
        <ele>2407.2800000000002</ele>
        <time>2018-07-13T06:18:30Z</time>
      </trkpt>
      <trkpt lat="46.179384738206863" lon="10.485443361103535">
        <ele>2405.8400000000001</ele>
        <time>2018-07-13T06:18:40Z</time>
      </trkpt>
      <trkpt lat="46.179376356303692" lon="10.48544461838901">
        <ele>2405.3600000000001</ele>
        <time>2018-07-13T06:18:49Z</time>
      </trkpt>
      <trkpt lat="46.179382223635912" lon="10.485433219000697">
        <ele>2404.3899999999999</ele>
        <time>2018-07-13T06:19:05Z</time>
      </trkpt>
      <trkpt lat="46.179402088746428" lon="10.48542307689786">
        <ele>2404.3899999999999</ele>
        <time>2018-07-13T06:19:26Z</time>
      </trkpt>
      <trkpt lat="46.179402759298682" lon="10.485433638095856">
        <ele>2404.8800000000001</ele>
        <time>2018-07-13T06:19:52Z</time>
      </trkpt>
      <trkpt lat="46.179404687136412" lon="10.48543531447649">
        <ele>2405.3600000000001</ele>
        <time>2018-07-13T06:20:01Z</time>
      </trkpt>
      <trkpt lat="46.179404016584158" lon="10.485452748835087">
        <ele>2405.3600000000001</ele>
        <time>2018-07-13T06:20:12Z</time>
      </trkpt>
      <trkpt lat="46.179381385445595" lon="10.485458699986339">
        <ele>2405.3600000000001</ele>
        <time>2018-07-13T06:20:21Z</time>
      </trkpt>
      <trkpt lat="46.179327322170138" lon="10.485407989472151">
        <ele>2404.3899999999999</ele>
        <time>2018-07-13T06:20:32Z</time>
      </trkpt>
      <trkpt lat="46.179277533665299" lon="10.485375383868814">
        <ele>2401.9899999999998</ele>
        <time>2018-07-13T06:20:43Z</time>
      </trkpt>
      <trkpt lat="46.179287591949105" lon="10.485269017517567">
        <ele>2400.0700000000002</ele>
        <time>2018-07-13T06:20:54Z</time>
      </trkpt>
      <trkpt lat="46.179269151762128" lon="10.485254181548953">
        <ele>2400.0700000000002</ele>
        <time>2018-07-13T06:20:59Z</time>
      </trkpt>
      <trkpt lat="46.179236210882664" lon="10.485262563452125">
        <ele>2398.6300000000001</ele>
        <time>2018-07-13T06:21:02Z</time>
      </trkpt>
      <trkpt lat="46.179156582802534" lon="10.485379826277494">
        <ele>2396.6999999999998</ele>
        <time>2018-07-13T06:21:16Z</time>
      </trkpt>
      <trkpt lat="46.17915247566998" lon="10.485388543456793">
        <ele>2396.6999999999998</ele>
        <time>2018-07-13T06:21:17Z</time>
      </trkpt>
      <trkpt lat="46.179133029654622" lon="10.485407738015056">
        <ele>2396.2199999999998</ele>
        <time>2018-07-13T06:21:19Z</time>
      </trkpt>
      <trkpt lat="46.179045438766479" lon="10.485520642250776">
        <ele>2395.7399999999998</ele>
        <time>2018-07-13T06:21:32Z</time>
      </trkpt>
      <trkpt lat="46.17903177626431" lon="10.485541597008705">
        <ele>2395.2600000000002</ele>
        <time>2018-07-13T06:21:35Z</time>
      </trkpt>
      <trkpt lat="46.178981652483344" lon="10.485645616427064">
        <ele>2393.3400000000001</ele>
        <time>2018-07-13T06:21:46Z</time>
      </trkpt>
      <trkpt lat="46.178917363286018" lon="10.485651986673474">
        <ele>2391.4200000000001</ele>
        <time>2018-07-13T06:21:55Z</time>
      </trkpt>
      <trkpt lat="46.17888618260622" lon="10.485587529838085">
        <ele>2389.9699999999998</ele>
        <time>2018-07-13T06:22:04Z</time>
      </trkpt>
      <trkpt lat="46.178819546476007" lon="10.485660703852773">
        <ele>2388.0500000000002</ele>
        <time>2018-07-13T06:22:15Z</time>
      </trkpt>
      <trkpt lat="46.178780402988195" lon="10.485634468495846">
        <ele>2386.1300000000001</ele>
        <time>2018-07-13T06:22:23Z</time>
      </trkpt>
      <trkpt lat="46.178768249228597" lon="10.485660955309868">
        <ele>2385.6500000000001</ele>
        <time>2018-07-13T06:22:26Z</time>
      </trkpt>
      <trkpt lat="46.178743103519082" lon="10.485734380781651">
        <ele>2385.1700000000001</ele>
        <time>2018-07-13T06:22:32Z</time>
      </trkpt>
      <trkpt lat="46.178698847070336" lon="10.485798334702849">
        <ele>2386.1300000000001</ele>
        <time>2018-07-13T06:22:39Z</time>
      </trkpt>
      <trkpt lat="46.178662553429604" lon="10.485872095450759">
        <ele>2387.0900000000001</ele>
        <time>2018-07-13T06:22:48Z</time>
      </trkpt>
      <trkpt lat="46.178598683327436" lon="10.48590486869216">
        <ele>2387.0900000000001</ele>
        <time>2018-07-13T06:22:57Z</time>
      </trkpt>
      <trkpt lat="46.178577644750476" lon="10.485979383811355">
        <ele>2386.6100000000001</ele>
        <time>2018-07-13T06:23:07Z</time>
      </trkpt>
      <trkpt lat="46.178532969206572" lon="10.485974438488483">
        <ele>2384.21</ele>
        <time>2018-07-13T06:23:18Z</time>
      </trkpt>
      <trkpt lat="46.178502626717091" lon="10.486013917252421">
        <ele>2381.8000000000002</ele>
        <time>2018-07-13T06:23:29Z</time>
      </trkpt>
      <trkpt lat="46.178468260914087" lon="10.48608030192554">
        <ele>2380.3600000000001</ele>
        <time>2018-07-13T06:23:40Z</time>
      </trkpt>
      <trkpt lat="46.178419645875692" lon="10.486105279996991">
        <ele>2378.4400000000001</ele>
        <time>2018-07-13T06:23:50Z</time>
      </trkpt>
      <trkpt lat="46.178370360285044" lon="10.486119780689478">
        <ele>2376.52</ele>
        <time>2018-07-13T06:23:59Z</time>
      </trkpt>
      <trkpt lat="46.178342700004578" lon="10.486149117350578">
        <ele>2375.5500000000002</ele>
        <time>2018-07-13T06:24:08Z</time>
      </trkpt>
      <trkpt lat="46.178285367786884" lon="10.486189350485802">
        <ele>2372.6700000000001</ele>
        <time>2018-07-13T06:24:19Z</time>
      </trkpt>
      <trkpt lat="46.178250582888722" lon="10.486260261386633">
        <ele>2370.75</ele>
        <time>2018-07-13T06:24:27Z</time>
      </trkpt>
      <trkpt lat="46.178211020305753" lon="10.486295716837049">
        <ele>2369.79</ele>
        <time>2018-07-13T06:24:32Z</time>
      </trkpt>
      <trkpt lat="46.178152766078711" lon="10.48637643456459">
        <ele>2368.3499999999999</ele>
        <time>2018-07-13T06:24:43Z</time>
      </trkpt>
      <trkpt lat="46.178093841299415" lon="10.486433012410998">
        <ele>2366.4200000000001</ele>
        <time>2018-07-13T06:24:52Z</time>
      </trkpt>
      <trkpt lat="46.178045645356178" lon="10.486551281064749">
        <ele>2364.98</ele>
        <time>2018-07-13T06:25:05Z</time>
      </trkpt>
      <trkpt lat="46.178005747497082" lon="10.48648783005774">
        <ele>2363.54</ele>
        <time>2018-07-13T06:25:14Z</time>
      </trkpt>
      <trkpt lat="46.17801496759057" lon="10.486402669921517">
        <ele>2362.0999999999999</ele>
        <time>2018-07-13T06:25:23Z</time>
      </trkpt>
      <trkpt lat="46.178008932620287" lon="10.486338967457414">
        <ele>2360.1700000000001</ele>
        <time>2018-07-13T06:25:33Z</time>
      </trkpt>
      <trkpt lat="46.177958892658353" lon="10.486419936642051">
        <ele>2357.77</ele>
        <time>2018-07-13T06:25:44Z</time>
      </trkpt>
      <trkpt lat="46.177929891273379" lon="10.486382972449064">
        <ele>2356.3299999999999</ele>
        <time>2018-07-13T06:25:54Z</time>
      </trkpt>
      <trkpt lat="46.177914133295417" lon="10.486303344368935">
        <ele>2354.8899999999999</ele>
        <time>2018-07-13T06:26:04Z</time>
      </trkpt>
      <trkpt lat="46.177906254306436" lon="10.486235450953245">
        <ele>2352.48</ele>
        <time>2018-07-13T06:26:15Z</time>
      </trkpt>
      <trkpt lat="46.177894352003932" lon="10.486164456233382">
        <ele>2350.5599999999999</ele>
        <time>2018-07-13T06:26:27Z</time>
      </trkpt>
      <trkpt lat="46.177843054756522" lon="10.486237714067101">
        <ele>2349.1199999999999</ele>
        <time>2018-07-13T06:26:36Z</time>
      </trkpt>
      <trkpt lat="46.177832577377558" lon="10.486241318285465">
        <ele>2348.6399999999999</ele>
        <time>2018-07-13T06:26:38Z</time>
      </trkpt>
      <trkpt lat="46.177797708660364" lon="10.48620049841702">
        <ele>2348.1599999999999</ele>
        <time>2018-07-13T06:26:44Z</time>
      </trkpt>
      <trkpt lat="46.177786644548178" lon="10.486159175634384">
        <ele>2346.23</ele>
        <time>2018-07-13T06:26:53Z</time>
      </trkpt>
      <trkpt lat="46.177761163562536" lon="10.486066220328212">
        <ele>2344.3099999999999</ele>
        <time>2018-07-13T06:27:04Z</time>
      </trkpt>
      <trkpt lat="46.177762420848012" lon="10.485959267243743">
        <ele>2341.4299999999998</ele>
        <time>2018-07-13T06:27:17Z</time>
      </trkpt>
      <trkpt lat="46.177756804972887" lon="10.4859390668571">
        <ele>2340.9499999999998</ele>
        <time>2018-07-13T06:27:19Z</time>
      </trkpt>
      <trkpt lat="46.1777423042804" lon="10.485882069915533">
        <ele>2339.02</ele>
        <time>2018-07-13T06:27:30Z</time>
      </trkpt>
      <trkpt lat="46.177738616243005" lon="10.485880812630057">
        <ele>2338.54</ele>
        <time>2018-07-13T06:27:31Z</time>
      </trkpt>
      <trkpt lat="46.177698969841003" lon="10.485857678577304">
        <ele>2337.0999999999999</ele>
        <time>2018-07-13T06:27:40Z</time>
      </trkpt>
      <trkpt lat="46.177684888243675" lon="10.485817110165954">
        <ele>2334.6999999999998</ele>
        <time>2018-07-13T06:27:47Z</time>
      </trkpt>
      <trkpt lat="46.177647337317467" lon="10.485739074647427">
        <ele>2333.7399999999998</ele>
        <time>2018-07-13T06:27:57Z</time>
      </trkpt>
      <trkpt lat="46.177648678421974" lon="10.485732536762953">
        <ele>2333.2600000000002</ele>
        <time>2018-07-13T06:27:58Z</time>
      </trkpt>
      <trkpt lat="46.177680026739836" lon="10.485652154311538">
        <ele>2332.3000000000002</ele>
        <time>2018-07-13T06:28:08Z</time>
      </trkpt>
      <trkpt lat="46.177694275975227" lon="10.485588787123561">
        <ele>2330.3699999999999</ele>
        <time>2018-07-13T06:28:18Z</time>
      </trkpt>
      <trkpt lat="46.177668292075396" lon="10.485588619485497">
        <ele>2329.4099999999999</ele>
        <time>2018-07-13T06:28:25Z</time>
      </trkpt>
      <trkpt lat="46.177624370902777" lon="10.485590463504195">
        <ele>2327.9699999999998</ele>
        <time>2018-07-13T06:28:34Z</time>
      </trkpt>
      <trkpt lat="46.177564775571227" lon="10.485606640577316">
        <ele>2325.5700000000002</ele>
        <time>2018-07-13T06:28:45Z</time>
      </trkpt>
      <trkpt lat="46.177569720894098" lon="10.485512260347605">
        <ele>2323.6399999999999</ele>
        <time>2018-07-13T06:28:55Z</time>
      </trkpt>
      <trkpt lat="46.177576677873731" lon="10.48541477881372">
        <ele>2321.7199999999998</ele>
        <time>2018-07-13T06:29:06Z</time>
      </trkpt>
      <trkpt lat="46.177586568519473" lon="10.485399188473821">
        <ele>2321.2399999999998</ele>
        <time>2018-07-13T06:29:07Z</time>
      </trkpt>
      <trkpt lat="46.1776093672961" lon="10.485364990308881">
        <ele>2320.7600000000002</ele>
        <time>2018-07-13T06:29:11Z</time>
      </trkpt>
      <trkpt lat="46.17764507420361" lon="10.485252505168319">
        <ele>2318.8400000000001</ele>
        <time>2018-07-13T06:29:23Z</time>
      </trkpt>
      <trkpt lat="46.177661251276731" lon="10.485152341425419">
        <ele>2316.4299999999998</ele>
        <time>2018-07-13T06:29:34Z</time>
      </trkpt>
      <trkpt lat="46.177670387551188" lon="10.485087381675839">
        <ele>2314.5100000000002</ele>
        <time>2018-07-13T06:29:43Z</time>
      </trkpt>
      <trkpt lat="46.177665190771222" lon="10.485008005052805">
        <ele>2312.1100000000001</ele>
        <time>2018-07-13T06:29:54Z</time>
      </trkpt>
      <trkpt lat="46.177663514390588" lon="10.484956372529268">
        <ele>2310.1900000000001</ele>
        <time>2018-07-13T06:30:03Z</time>
      </trkpt>
      <trkpt lat="46.177672566846013" lon="10.484860902652144">
        <ele>2307.7800000000002</ele>
        <time>2018-07-13T06:30:14Z</time>
      </trkpt>
      <trkpt lat="46.17769536562264" lon="10.484740789979696">
        <ele>2305.3800000000001</ele>
        <time>2018-07-13T06:30:25Z</time>
      </trkpt>
      <trkpt lat="46.177714224904776" lon="10.484634423628449">
        <ele>2302.98</ele>
        <time>2018-07-13T06:30:37Z</time>
      </trkpt>
      <trkpt lat="46.177757559344172" lon="10.484558902680874">
        <ele>2301.5300000000002</ele>
        <time>2018-07-13T06:30:46Z</time>
      </trkpt>
      <trkpt lat="46.177777592092752" lon="10.484476005658507">
        <ele>2299.1300000000001</ele>
        <time>2018-07-13T06:30:57Z</time>
      </trkpt>
      <trkpt lat="46.177707519382238" lon="10.484479609876871">
        <ele>2296.73</ele>
        <time>2018-07-13T06:31:08Z</time>
      </trkpt>
      <trkpt lat="46.177746495231986" lon="10.484376344829798">
        <ele>2294.8000000000002</ele>
        <time>2018-07-13T06:31:19Z</time>
      </trkpt>
      <trkpt lat="46.177775831893086" lon="10.484288586303592">
        <ele>2292.8800000000001</ele>
        <time>2018-07-13T06:31:30Z</time>
      </trkpt>
      <trkpt lat="46.177756637334824" lon="10.484276600182056">
        <ele>2291.4400000000001</ele>
        <time>2018-07-13T06:31:39Z</time>
      </trkpt>
      <trkpt lat="46.177727300673723" lon="10.484245587140322">
        <ele>2290.48</ele>
        <time>2018-07-13T06:31:48Z</time>
      </trkpt>
      <trkpt lat="46.177756804972887" lon="10.484176352620125">
        <ele>2288.5599999999999</ele>
        <time>2018-07-13T06:31:57Z</time>
      </trkpt>
      <trkpt lat="46.177782285958529" lon="10.484101586043835">
        <ele>2286.1500000000001</ele>
        <time>2018-07-13T06:32:08Z</time>
      </trkpt>
      <trkpt lat="46.177821261808276" lon="10.483992705121636">
        <ele>2283.75</ele>
        <time>2018-07-13T06:32:20Z</time>
      </trkpt>
      <trkpt lat="46.177833750844002" lon="10.483935540542006">
        <ele>2282.3099999999999</ele>
        <time>2018-07-13T06:32:31Z</time>
      </trkpt>
      <trkpt lat="46.177826542407274" lon="10.483933361247182">
        <ele>2282.3099999999999</ele>
        <time>2018-07-13T06:32:32Z</time>
      </trkpt>
      <trkpt lat="46.177829308435321" lon="10.483905114233494">
        <ele>2281.3499999999999</ele>
        <time>2018-07-13T06:32:34Z</time>
      </trkpt>
      <trkpt lat="46.177859818562865" lon="10.48383504152298">
        <ele>2279.4200000000001</ele>
        <time>2018-07-13T06:32:46Z</time>
      </trkpt>
      <trkpt lat="46.177846994251013" lon="10.483756000176072">
        <ele>2277.5</ele>
        <time>2018-07-13T06:32:56Z</time>
      </trkpt>
      <trkpt lat="46.177835091948509" lon="10.483765639364719">
        <ele>2277.02</ele>
        <time>2018-07-13T06:32:59Z</time>
      </trkpt>
      <trkpt lat="46.177782118320465" lon="10.483762957155704">
        <ele>2275.5799999999999</ele>
        <time>2018-07-13T06:33:09Z</time>
      </trkpt>
      <trkpt lat="46.17780726402998" lon="10.483707636594772">
        <ele>2274.1399999999999</ele>
        <time>2018-07-13T06:33:20Z</time>
      </trkpt>
      <trkpt lat="46.177781280130148" lon="10.483680311590433">
        <ele>2272.21</ele>
        <time>2018-07-13T06:33:30Z</time>
      </trkpt>
      <trkpt lat="46.177707267925143" lon="10.483692549169064">
        <ele>2270.29</ele>
        <time>2018-07-13T06:33:40Z</time>
      </trkpt>
      <trkpt lat="46.177684050053358" lon="10.483636977151036">
        <ele>2269.3299999999999</ele>
        <time>2018-07-13T06:33:50Z</time>
      </trkpt>
      <trkpt lat="46.177680445834994" lon="10.483619458973408">
        <ele>2268.3699999999999</ele>
        <time>2018-07-13T06:33:53Z</time>
      </trkpt>
      <trkpt lat="46.177720846608281" lon="10.483575453981757">
        <ele>2267.8899999999999</ele>
        <time>2018-07-13T06:33:58Z</time>
      </trkpt>
      <trkpt lat="46.177764097228646" lon="10.483510494232178">
        <ele>2265.48</ele>
        <time>2018-07-13T06:34:08Z</time>
      </trkpt>
      <trkpt lat="46.177776250988245" lon="10.483455928042531">
        <ele>2263.5599999999999</ele>
        <time>2018-07-13T06:34:18Z</time>
      </trkpt>
      <trkpt lat="46.177711794152856" lon="10.483452575281262">
        <ele>2261.6399999999999</ele>
        <time>2018-07-13T06:34:28Z</time>
      </trkpt>
      <trkpt lat="46.17773350328207" lon="10.483399853110313">
        <ele>2260.1999999999998</ele>
        <time>2018-07-13T06:34:37Z</time>
      </trkpt>
      <trkpt lat="46.177721600979567" lon="10.483387028798461">
        <ele>2258.75</ele>
        <time>2018-07-13T06:34:47Z</time>
      </trkpt>
      <trkpt lat="46.177669130265713" lon="10.483391219750047">
        <ele>2257.3099999999999</ele>
        <time>2018-07-13T06:34:57Z</time>
      </trkpt>
      <trkpt lat="46.177623029798269" lon="10.48337378539145">
        <ele>2256.3499999999999</ele>
        <time>2018-07-13T06:35:08Z</time>
      </trkpt>
      <trkpt lat="46.17761816829443" lon="10.483359284698963">
        <ele>2255.3899999999999</ele>
        <time>2018-07-13T06:35:09Z</time>
      </trkpt>
      <trkpt lat="46.177656808868051" lon="10.483319470658898">
        <ele>2255.3899999999999</ele>
        <time>2018-07-13T06:35:12Z</time>
      </trkpt>
      <trkpt lat="46.177709866315126" lon="10.483291056007147">
        <ele>2255.3899999999999</ele>
        <time>2018-07-13T06:35:17Z</time>
      </trkpt>
      <trkpt lat="46.177761917933822" lon="10.483254175633192">
        <ele>2254.9099999999999</ele>
        <time>2018-07-13T06:35:22Z</time>
      </trkpt>
      <trkpt lat="46.177803156897426" lon="10.483160382136703">
        <ele>2253.4699999999998</ele>
        <time>2018-07-13T06:35:34Z</time>
      </trkpt>
      <trkpt lat="46.177849341183901" lon="10.48311872407794">
        <ele>2252.0300000000002</ele>
        <time>2018-07-13T06:35:42Z</time>
      </trkpt>
      <trkpt lat="46.177856717258692" lon="10.483079077675939">
        <ele>2249.6199999999999</ele>
        <time>2018-07-13T06:35:54Z</time>
      </trkpt>
      <trkpt lat="46.177780441939831" lon="10.483081759884953">
        <ele>2247.6999999999998</ele>
        <time>2018-07-13T06:36:04Z</time>
      </trkpt>
      <trkpt lat="46.177820675075054" lon="10.482997354120016">
        <ele>2246.2600000000002</ele>
        <time>2018-07-13T06:36:13Z</time>
      </trkpt>
      <trkpt lat="46.177833583205938" lon="10.482935747131705">
        <ele>2244.8200000000002</ele>
        <time>2018-07-13T06:36:23Z</time>
      </trkpt>
      <trkpt lat="46.17787909694016" lon="10.48289299942553">
        <ele>2243.8499999999999</ele>
        <time>2018-07-13T06:36:32Z</time>
      </trkpt>
      <trkpt lat="46.177919581532478" lon="10.482829213142395">
        <ele>2241.4499999999998</ele>
        <time>2018-07-13T06:36:42Z</time>
      </trkpt>
      <trkpt lat="46.177899297326803" lon="10.482785040512681">
        <ele>2240.0100000000002</ele>
        <time>2018-07-13T06:36:50Z</time>
      </trkpt>
      <trkpt lat="46.177937099710107" lon="10.48267649486661">
        <ele>2237.1300000000001</ele>
        <time>2018-07-13T06:37:04Z</time>
      </trkpt>
      <trkpt lat="46.177961742505431" lon="10.482618659734726">
        <ele>2236.1599999999999</ele>
        <time>2018-07-13T06:37:09Z</time>
      </trkpt>
      <trkpt lat="46.178015135228634" lon="10.482548754662275">
        <ele>2233.7600000000002</ele>
        <time>2018-07-13T06:37:19Z</time>
      </trkpt>
      <trkpt lat="46.178040951490402" lon="10.482462085783482">
        <ele>2231.8400000000001</ele>
        <time>2018-07-13T06:37:28Z</time>
      </trkpt>
      <trkpt lat="46.178089901804924" lon="10.482386145740747">
        <ele>2230.4000000000001</ele>
        <time>2018-07-13T06:37:38Z</time>
      </trkpt>
      <trkpt lat="46.178109515458345" lon="10.482324790209532">
        <ele>2227.9899999999998</ele>
        <time>2018-07-13T06:37:49Z</time>
      </trkpt>
      <trkpt lat="46.17804866284132" lon="10.482316492125392">
        <ele>2226.5500000000002</ele>
        <time>2018-07-13T06:37:58Z</time>
      </trkpt>
      <trkpt lat="46.1779650952667" lon="10.482274079695344">
        <ele>2224.6300000000001</ele>
        <time>2018-07-13T06:38:08Z</time>
      </trkpt>
      <trkpt lat="46.17788840085268" lon="10.482266368344426">
        <ele>2222.2199999999998</ele>
        <time>2018-07-13T06:38:20Z</time>
      </trkpt>
      <trkpt lat="46.17781849578023" lon="10.482214065268636">
        <ele>2219.8200000000002</ele>
        <time>2018-07-13T06:38:30Z</time>
      </trkpt>
      <trkpt lat="46.177899297326803" lon="10.482159834355116">
        <ele>2217.9000000000001</ele>
        <time>2018-07-13T06:38:42Z</time>
      </trkpt>
      <trkpt lat="46.177952187135816" lon="10.48207744024694">
        <ele>2215.5</ele>
        <time>2018-07-13T06:38:53Z</time>
      </trkpt>
      <trkpt lat="46.178017649799585" lon="10.481979036703706">
        <ele>2214.0500000000002</ele>
        <time>2018-07-13T06:39:04Z</time>
      </trkpt>
      <trkpt lat="46.178080849349499" lon="10.481895133852959">
        <ele>2212.6100000000001</ele>
        <time>2018-07-13T06:39:14Z</time>
      </trkpt>
      <trkpt lat="46.178161902353168" lon="10.481790946796536">
        <ele>2210.6900000000001</ele>
        <time>2018-07-13T06:39:27Z</time>
      </trkpt>
      <trkpt lat="46.178236501291394" lon="10.481678294017911">
        <ele>2209.73</ele>
        <time>2018-07-13T06:39:38Z</time>
      </trkpt>
      <trkpt lat="46.178290648385882" lon="10.481553906574845">
        <ele>2208.29</ele>
        <time>2018-07-13T06:39:50Z</time>
      </trkpt>
      <trkpt lat="46.178341275081038" lon="10.481465645134449">
        <ele>2206.8400000000001</ele>
        <time>2018-07-13T06:39:59Z</time>
      </trkpt>
      <trkpt lat="46.178409922868013" lon="10.481325499713421">
        <ele>2205.4000000000001</ele>
        <time>2018-07-13T06:40:11Z</time>
      </trkpt>
      <trkpt lat="46.178478067740798" lon="10.481184348464012">
        <ele>2203.96</ele>
        <time>2018-07-13T06:40:21Z</time>
      </trkpt>
      <trkpt lat="46.178537327796221" lon="10.481043364852667">
        <ele>2203.48</ele>
        <time>2018-07-13T06:40:31Z</time>
      </trkpt>
      <trkpt lat="46.178609579801559" lon="10.480866674333811">
        <ele>2202.52</ele>
        <time>2018-07-13T06:40:44Z</time>
      </trkpt>
      <trkpt lat="46.178643107414246" lon="10.480780843645334">
        <ele>2202.04</ele>
        <time>2018-07-13T06:40:53Z</time>
      </trkpt>
      <trkpt lat="46.178681245073676" lon="10.480671543627977">
        <ele>2201.5599999999999</ele>
        <time>2018-07-13T06:41:00Z</time>
      </trkpt>
      <trkpt lat="46.178727094084024" lon="10.480512203648686">
        <ele>2203</ele>
        <time>2018-07-13T06:41:11Z</time>
      </trkpt>
      <trkpt lat="46.178748132660985" lon="10.480467528104782">
        <ele>2201.5599999999999</ele>
        <time>2018-07-13T06:41:14Z</time>
      </trkpt>
      <trkpt lat="46.178784761577845" lon="10.48030273988843">
        <ele>2200.5900000000001</ele>
        <time>2018-07-13T06:41:26Z</time>
      </trkpt>
      <trkpt lat="46.178836561739445" lon="10.480136778205633">
        <ele>2199.6300000000001</ele>
        <time>2018-07-13T06:41:39Z</time>
      </trkpt>
      <trkpt lat="46.178836561739445" lon="10.480138706043363">
        <ele>2199.6300000000001</ele>
        <time>2018-07-13T06:41:48Z</time>
      </trkpt>
      <trkpt lat="46.178847122937441" lon="10.480068465694785">
        <ele>2199.6300000000001</ele>
        <time>2018-07-13T06:42:10Z</time>
      </trkpt>
      <trkpt lat="46.178922643885016" lon="10.479865204542875">
        <ele>2198.1900000000001</ele>
        <time>2018-07-13T06:42:23Z</time>
      </trkpt>
      <trkpt lat="46.178992381319404" lon="10.479650627821684">
        <ele>2196.75</ele>
        <time>2018-07-13T06:42:37Z</time>
      </trkpt>
      <trkpt lat="46.179075613617897" lon="10.479441080242395">
        <ele>2195.3099999999999</ele>
        <time>2018-07-13T06:42:51Z</time>
      </trkpt>
      <trkpt lat="46.179147195070982" lon="10.479259947314858">
        <ele>2193.8699999999999</ele>
        <time>2018-07-13T06:43:03Z</time>
      </trkpt>
      <trkpt lat="46.179174771532416" lon="10.479183588176966">
        <ele>2192.9000000000001</ele>
        <time>2018-07-13T06:43:08Z</time>
      </trkpt>
      <trkpt lat="46.179244257509708" lon="10.479005891829729">
        <ele>2191.46</ele>
        <time>2018-07-13T06:43:20Z</time>
      </trkpt>
      <trkpt lat="46.179314749315381" lon="10.478838589042425">
        <ele>2189.54</ele>
        <time>2018-07-13T06:43:32Z</time>
      </trkpt>
      <trkpt lat="46.179363783448935" lon="10.478694085031748">
        <ele>2188.5799999999999</ele>
        <time>2018-07-13T06:43:44Z</time>
      </trkpt>
      <trkpt lat="46.179405944421887" lon="10.478599285706878">
        <ele>2188.5799999999999</ele>
        <time>2018-07-13T06:43:53Z</time>
      </trkpt>
      <trkpt lat="46.179468892514706" lon="10.478548659011722">
        <ele>2188.5799999999999</ele>
        <time>2018-07-13T06:44:02Z</time>
      </trkpt>
      <trkpt lat="46.179558914154768" lon="10.478495433926582">
        <ele>2188.5799999999999</ele>
        <time>2018-07-13T06:44:12Z</time>
      </trkpt>
      <trkpt lat="46.179615743458271" lon="10.478413291275501">
        <ele>2188.0999999999999</ele>
        <time>2018-07-13T06:44:20Z</time>
      </trkpt>
      <trkpt lat="46.179610379040241" lon="10.478375488892198">
        <ele>2187.6199999999999</ele>
        <time>2018-07-13T06:44:23Z</time>
      </trkpt>
      <trkpt lat="46.179672237485647" lon="10.478241043165326">
        <ele>2187.1399999999999</ele>
        <time>2018-07-13T06:44:35Z</time>
      </trkpt>
      <trkpt lat="46.179689336568117" lon="10.478170048445463">
        <ele>2186.6599999999999</ele>
        <time>2018-07-13T06:44:44Z</time>
      </trkpt>
      <trkpt lat="46.179723534733057" lon="10.478146662935615">
        <ele>2186.6599999999999</ele>
        <time>2018-07-13T06:44:48Z</time>
      </trkpt>
      <trkpt lat="46.179794780910015" lon="10.478028981015086">
        <ele>2185.6900000000001</ele>
        <time>2018-07-13T06:44:58Z</time>
      </trkpt>
      <trkpt lat="46.17986585944891" lon="10.477909119799733">
        <ele>2184.73</ele>
        <time>2018-07-13T06:45:09Z</time>
      </trkpt>
      <trkpt lat="46.179978847503662" lon="10.477771572768688">
        <ele>2184.73</ele>
        <time>2018-07-13T06:45:23Z</time>
      </trkpt>
      <trkpt lat="46.179993683472276" lon="10.477738548070192">
        <ele>2184.25</ele>
        <time>2018-07-13T06:45:26Z</time>
      </trkpt>
      <trkpt lat="46.180076077580452" lon="10.477579711005092">
        <ele>2184.25</ele>
        <time>2018-07-13T06:45:39Z</time>
      </trkpt>
      <trkpt lat="46.180082615464926" lon="10.477498071268201">
        <ele>2183.77</ele>
        <time>2018-07-13T06:45:50Z</time>
      </trkpt>
      <trkpt lat="46.180076496675611" lon="10.477497903630137">
        <ele>2183.29</ele>
        <time>2018-07-13T06:46:02Z</time>
      </trkpt>
      <trkpt lat="46.180084627121687" lon="10.47748189419508">
        <ele>2183.29</ele>
        <time>2018-07-13T06:46:17Z</time>
      </trkpt>
      <trkpt lat="46.180077837780118" lon="10.477473260834813">
        <ele>2183.29</ele>
        <time>2018-07-13T06:46:48Z</time>
      </trkpt>
      <trkpt lat="46.180086387321353" lon="10.477452725172043">
        <ele>2182.8099999999999</ele>
        <time>2018-07-13T06:47:13Z</time>
      </trkpt>
      <trkpt lat="46.180083286017179" lon="10.477474182844162">
        <ele>2183.29</ele>
        <time>2018-07-13T06:47:20Z</time>
      </trkpt>
      <trkpt lat="46.180082447826862" lon="10.477484073489904">
        <ele>2183.29</ele>
        <time>2018-07-13T06:47:35Z</time>
      </trkpt>
      <trkpt lat="46.180088231340051" lon="10.477468986064196">
        <ele>2183.29</ele>
        <time>2018-07-13T06:47:44Z</time>
      </trkpt>
      <trkpt lat="46.180185377597809" lon="10.477369911968708">
        <ele>2182.8099999999999</ele>
        <time>2018-07-13T06:47:57Z</time>
      </trkpt>
      <trkpt lat="46.180199710652232" lon="10.477334288880229">
        <ele>2182.3299999999999</ele>
        <time>2018-07-13T06:48:00Z</time>
      </trkpt>
      <trkpt lat="46.180252684280276" lon="10.47728206962347">
        <ele>2182.8099999999999</ele>
        <time>2018-07-13T06:48:06Z</time>
      </trkpt>
      <trkpt lat="46.180269615724683" lon="10.477233035489917">
        <ele>2182.3299999999999</ele>
        <time>2018-07-13T06:48:10Z</time>
      </trkpt>
      <trkpt lat="46.180316554382443" lon="10.477017369121313">
        <ele>2181.8499999999999</ele>
        <time>2018-07-13T06:48:24Z</time>
      </trkpt>
      <trkpt lat="46.180344801396132" lon="10.476874122396111">
        <ele>2180.8899999999999</ele>
        <time>2018-07-13T06:48:33Z</time>
      </trkpt>
      <trkpt lat="46.180380005389452" lon="10.47661847434938">
        <ele>2179.4499999999998</ele>
        <time>2018-07-13T06:48:48Z</time>
      </trkpt>
      <trkpt lat="46.180416299030185" lon="10.476401299238205">
        <ele>2178</ele>
        <time>2018-07-13T06:49:01Z</time>
      </trkpt>
      <trkpt lat="46.18045468814671" lon="10.476229721680284">
        <ele>2177.04</ele>
        <time>2018-07-13T06:49:13Z</time>
      </trkpt>
      <trkpt lat="46.180495340377092" lon="10.476038949564099">
        <ele>2175.5999999999999</ele>
        <time>2018-07-13T06:49:26Z</time>
      </trkpt>
      <trkpt lat="46.180514870211482" lon="10.475971642881632">
        <ele>2175.5999999999999</ele>
        <time>2018-07-13T06:49:31Z</time>
      </trkpt>
      <trkpt lat="46.180568346753716" lon="10.475824205204844">
        <ele>2174.6399999999999</ele>
        <time>2018-07-13T06:49:42Z</time>
      </trkpt>
      <trkpt lat="46.180634815245867" lon="10.475602587684989">
        <ele>2174.1599999999999</ele>
        <time>2018-07-13T06:49:57Z</time>
      </trkpt>
      <trkpt lat="46.180682675912976" lon="10.475489515811205">
        <ele>2173.6799999999998</ele>
        <time>2018-07-13T06:50:05Z</time>
      </trkpt>
      <trkpt lat="46.180741852149367" lon="10.475306957960129">
        <ele>2173.1999999999998</ele>
        <time>2018-07-13T06:50:18Z</time>
      </trkpt>
      <trkpt lat="46.180773787200451" lon="10.475122388452291">
        <ele>2173.1999999999998</ele>
        <time>2018-07-13T06:50:30Z</time>
      </trkpt>
      <trkpt lat="46.180802034214139" lon="10.474946284666657">
        <ele>2173.1999999999998</ele>
        <time>2018-07-13T06:50:42Z</time>
      </trkpt>
      <trkpt lat="46.180840590968728" lon="10.474792392924428">
        <ele>2173.1999999999998</ele>
        <time>2018-07-13T06:50:55Z</time>
      </trkpt>
      <trkpt lat="46.180831035599113" lon="10.474770264700055">
        <ele>2172.7199999999998</ele>
        <time>2018-07-13T06:50:58Z</time>
      </trkpt>
      <trkpt lat="46.180806811898947" lon="10.474744280800223">
        <ele>2172.2399999999998</ele>
        <time>2018-07-13T06:51:07Z</time>
      </trkpt>
      <trkpt lat="46.180805722251534" lon="10.474735898897052">
        <ele>2171.7600000000002</ele>
        <time>2018-07-13T06:51:17Z</time>
      </trkpt>
      <trkpt lat="46.180797759443521" lon="10.474737910553813">
        <ele>2171.27</ele>
        <time>2018-07-13T06:51:33Z</time>
      </trkpt>
      <trkpt lat="46.180799854919314" lon="10.474684853106737">
        <ele>2171.27</ele>
        <time>2018-07-13T06:51:45Z</time>
      </trkpt>
      <trkpt lat="46.18081284686923" lon="10.474674962460995">
        <ele>2171.27</ele>
        <time>2018-07-13T06:51:59Z</time>
      </trkpt>
      <trkpt lat="46.180811757221818" lon="10.474673118442297">
        <ele>2170.79</ele>
        <time>2018-07-13T06:52:13Z</time>
      </trkpt>
      <trkpt lat="46.180825671181083" lon="10.474714189767838">
        <ele>2171.27</ele>
        <time>2018-07-13T06:52:27Z</time>
      </trkpt>
      <trkpt lat="46.180788958445191" lon="10.4747299477458">
        <ele>2170.79</ele>
        <time>2018-07-13T06:52:38Z</time>
      </trkpt>
      <trkpt lat="46.180748390033841" lon="10.474788034334779">
        <ele>2169.8299999999999</ele>
        <time>2018-07-13T06:52:45Z</time>
      </trkpt>
      <trkpt lat="46.180671863257885" lon="10.474913427606225">
        <ele>2167.9099999999999</ele>
        <time>2018-07-13T06:52:57Z</time>
      </trkpt>
      <trkpt lat="46.1806227453053" lon="10.474861627444625">
        <ele>2165.9899999999998</ele>
        <time>2018-07-13T06:53:06Z</time>
      </trkpt>
      <trkpt lat="46.180612184107304" lon="10.474753919988871">
        <ele>2163.5799999999999</ele>
        <time>2018-07-13T06:53:17Z</time>
      </trkpt>
      <trkpt lat="46.180609334260225" lon="10.474742939695716">
        <ele>2163.0999999999999</ele>
        <time>2018-07-13T06:53:19Z</time>
      </trkpt>
      <trkpt lat="46.180601036176085" lon="10.47464931383729">
        <ele>2160.6999999999998</ele>
        <time>2018-07-13T06:53:28Z</time>
      </trkpt>
      <trkpt lat="46.180604891851544" lon="10.47454328276217">
        <ele>2158.7800000000002</ele>
        <time>2018-07-13T06:53:37Z</time>
      </trkpt>
      <trkpt lat="46.180608663707972" lon="10.474516795948148">
        <ele>2157.8200000000002</ele>
        <time>2018-07-13T06:53:40Z</time>
      </trkpt>
      <trkpt lat="46.1805519182235" lon="10.474451333284378">
        <ele>2155.8899999999999</ele>
        <time>2018-07-13T06:53:51Z</time>
      </trkpt>
      <trkpt lat="46.180507075041533" lon="10.47453448176384">
        <ele>2154.4499999999998</ele>
        <time>2018-07-13T06:54:00Z</time>
      </trkpt>
      <trkpt lat="46.180451083928347" lon="10.474576056003571">
        <ele>2153.0100000000002</ele>
        <time>2018-07-13T06:54:09Z</time>
      </trkpt>
      <trkpt lat="46.180452508851886" lon="10.474480083212256">
        <ele>2151.5700000000002</ele>
        <time>2018-07-13T06:54:18Z</time>
      </trkpt>
      <trkpt lat="46.180444629862905" lon="10.474387798458338">
        <ele>2149.1599999999999</ele>
        <time>2018-07-13T06:54:29Z</time>
      </trkpt>
      <trkpt lat="46.180464997887611" lon="10.474249664694071">
        <ele>2146.7600000000002</ele>
        <time>2018-07-13T06:54:40Z</time>
      </trkpt>
      <trkpt lat="46.180429542437196" lon="10.474184537306428">
        <ele>2143.8800000000001</ele>
        <time>2018-07-13T06:54:51Z</time>
      </trkpt>
      <trkpt lat="46.180394170805812" lon="10.474276402965188">
        <ele>2141.4699999999998</ele>
        <time>2018-07-13T06:55:03Z</time>
      </trkpt>
      <trkpt lat="46.180371036753058" lon="10.474169366061687">
        <ele>2139.5500000000002</ele>
        <time>2018-07-13T06:55:13Z</time>
      </trkpt>
      <trkpt lat="46.180378329008818" lon="10.474116057157516">
        <ele>2140.0300000000002</ele>
        <time>2018-07-13T06:55:17Z</time>
      </trkpt>
      <trkpt lat="46.180388303473592" lon="10.47403265722096">
        <ele>2138.5900000000001</ele>
        <time>2018-07-13T06:55:23Z</time>
      </trkpt>
      <trkpt lat="46.180426357313991" lon="10.473894523456693">
        <ele>2137.6300000000001</ele>
        <time>2018-07-13T06:55:34Z</time>
      </trkpt>
      <trkpt lat="46.180447060614824" lon="10.473778266459703">
        <ele>2135.23</ele>
        <time>2018-07-13T06:55:45Z</time>
      </trkpt>
      <trkpt lat="46.180467093363404" lon="10.47365689650178">
        <ele>2132.8200000000002</ele>
        <time>2018-07-13T06:55:57Z</time>
      </trkpt>
      <trkpt lat="46.180461812764406" lon="10.473631834611297">
        <ele>2132.3400000000001</ele>
        <time>2018-07-13T06:55:59Z</time>
      </trkpt>
      <trkpt lat="46.180478325113654" lon="10.473550697788596">
        <ele>2130.9000000000001</ele>
        <time>2018-07-13T06:56:07Z</time>
      </trkpt>
      <trkpt lat="46.180523671209812" lon="10.473412647843361">
        <ele>2128.5</ele>
        <time>2018-07-13T06:56:19Z</time>
      </trkpt>
      <trkpt lat="46.180538423359394" lon="10.473316088318825">
        <ele>2127.5300000000002</ele>
        <time>2018-07-13T06:56:28Z</time>
      </trkpt>
      <trkpt lat="46.180551163852215" lon="10.473188934847713">
        <ele>2126.0900000000001</ele>
        <time>2018-07-13T06:56:39Z</time>
      </trkpt>
      <trkpt lat="46.180565413087606" lon="10.473083155229688">
        <ele>2123.6900000000001</ele>
        <time>2018-07-13T06:56:50Z</time>
      </trkpt>
      <trkpt lat="46.180602461099625" lon="10.472977207973599">
        <ele>2122.25</ele>
        <time>2018-07-13T06:57:00Z</time>
      </trkpt>
      <trkpt lat="46.180619224905968" lon="10.472865980118513">
        <ele>2120.3200000000002</ele>
        <time>2018-07-13T06:57:10Z</time>
      </trkpt>
      <trkpt lat="46.180587792769074" lon="10.472873859107494">
        <ele>2117.9200000000001</ele>
        <time>2018-07-13T06:57:20Z</time>
      </trkpt>
      <trkpt lat="46.180530125275254" lon="10.47287805005908">
        <ele>2116.48</ele>
        <time>2018-07-13T06:57:29Z</time>
      </trkpt>
      <trkpt lat="46.180516546592116" lon="10.472870254889131">
        <ele>2115.04</ele>
        <time>2018-07-13T06:57:32Z</time>
      </trkpt>
      <trkpt lat="46.180501542985439" lon="10.47276271507144">
        <ele>2113.5999999999999</ele>
        <time>2018-07-13T06:57:45Z</time>
      </trkpt>
      <trkpt lat="46.180478492751718" lon="10.472626341506839">
        <ele>2111.6700000000001</ele>
        <time>2018-07-13T06:57:57Z</time>
      </trkpt>
      <trkpt lat="46.180413365364075" lon="10.472657941281796">
        <ele>2110.71</ele>
        <time>2018-07-13T06:58:07Z</time>
      </trkpt>
      <trkpt lat="46.180363912135363" lon="10.472713932394981">
        <ele>2108.79</ele>
        <time>2018-07-13T06:58:20Z</time>
      </trkpt>
      <trkpt lat="46.180291073396802" lon="10.472770594060421">
        <ele>2105.9099999999999</ele>
        <time>2018-07-13T06:58:31Z</time>
      </trkpt>
      <trkpt lat="46.180214295163751" lon="10.472848378121853">
        <ele>2103.02</ele>
        <time>2018-07-13T06:58:43Z</time>
      </trkpt>
      <trkpt lat="46.180163836106658" lon="10.472931526601315">
        <ele>2101.5799999999999</ele>
        <time>2018-07-13T06:58:54Z</time>
      </trkpt>
      <trkpt lat="46.180105330422521" lon="10.47297528013587">
        <ele>2099.6599999999999</ele>
        <time>2018-07-13T06:59:04Z</time>
      </trkpt>
      <trkpt lat="46.180090578272939" lon="10.472994558513165">
        <ele>2099.1799999999998</ele>
        <time>2018-07-13T06:59:07Z</time>
      </trkpt>
      <trkpt lat="46.180036934092641" lon="10.473100254312158">
        <ele>2097.25</ele>
        <time>2018-07-13T06:59:18Z</time>
      </trkpt>
      <trkpt lat="46.179951941594481" lon="10.473208883777261">
        <ele>2095.8099999999999</ele>
        <time>2018-07-13T06:59:29Z</time>
      </trkpt>
      <trkpt lat="46.179872481152415" lon="10.473270239308476">
        <ele>2095.3299999999999</ele>
        <time>2018-07-13T06:59:40Z</time>
      </trkpt>
      <trkpt lat="46.179786315187812" lon="10.473199496045709">
        <ele>2093.4099999999999</ele>
        <time>2018-07-13T06:59:51Z</time>
      </trkpt>
      <trkpt lat="46.179720684885979" lon="10.473108300939202">
        <ele>2091.9699999999998</ele>
        <time>2018-07-13T07:00:03Z</time>
      </trkpt>
      <trkpt lat="46.179633177816868" lon="10.473038060590625">
        <ele>2091.4899999999998</ele>
        <time>2018-07-13T07:00:15Z</time>
      </trkpt>
      <trkpt lat="46.179600488394499" lon="10.472967987880111">
        <ele>2091.4899999999998</ele>
        <time>2018-07-13T07:00:21Z</time>
      </trkpt>
      <trkpt lat="46.179571319371462" lon="10.47291275113821">
        <ele>2091.4899999999998</ele>
        <time>2018-07-13T07:00:32Z</time>
      </trkpt>
      <trkpt lat="46.179586658254266" lon="10.472884587943554">
        <ele>2091</ele>
        <time>2018-07-13T07:00:41Z</time>
      </trkpt>
      <trkpt lat="46.179641308262944" lon="10.472756596282125">
        <ele>2090.52</ele>
        <time>2018-07-13T07:00:50Z</time>
      </trkpt>
      <trkpt lat="46.179689168930054" lon="10.472645536065102">
        <ele>2089.5599999999999</ele>
        <time>2018-07-13T07:00:59Z</time>
      </trkpt>
      <trkpt lat="46.179705681279302" lon="10.472500445321202">
        <ele>2087.6399999999999</ele>
        <time>2018-07-13T07:01:11Z</time>
      </trkpt>
      <trkpt lat="46.179735269397497" lon="10.472347643226385">
        <ele>2084.7600000000002</ele>
        <time>2018-07-13T07:01:23Z</time>
      </trkpt>
      <trkpt lat="46.179752200841904" lon="10.472261141985655">
        <ele>2083.79</ele>
        <time>2018-07-13T07:01:31Z</time>
      </trkpt>
      <trkpt lat="46.179812550544739" lon="10.472166929394007">
        <ele>2081.8699999999999</ele>
        <time>2018-07-13T07:01:43Z</time>
      </trkpt>
      <trkpt lat="46.179844234138727" lon="10.472087636590004">
        <ele>2079.9499999999998</ele>
        <time>2018-07-13T07:01:53Z</time>
      </trkpt>
      <trkpt lat="46.179852951318026" lon="10.471993926912546">
        <ele>2078.0300000000002</ele>
        <time>2018-07-13T07:02:04Z</time>
      </trkpt>
      <trkpt lat="46.179867200553417" lon="10.471936427056789">
        <ele>2076.5900000000001</ele>
        <time>2018-07-13T07:02:15Z</time>
      </trkpt>
      <trkpt lat="46.179871140047908" lon="10.471927206963301">
        <ele>2076.5900000000001</ele>
        <time>2018-07-13T07:02:17Z</time>
      </trkpt>
      <trkpt lat="46.179841971024871" lon="10.471883788704872">
        <ele>2075.1399999999999</ele>
        <time>2018-07-13T07:02:25Z</time>
      </trkpt>
      <trkpt lat="46.17981992661953" lon="10.471780272200704">
        <ele>2073.2199999999998</ele>
        <time>2018-07-13T07:02:36Z</time>
      </trkpt>
      <trkpt lat="46.179821770638227" lon="10.471665188670158">
        <ele>2071.3000000000002</ele>
        <time>2018-07-13T07:02:49Z</time>
      </trkpt>
      <trkpt lat="46.179863847792149" lon="10.471614310517907">
        <ele>2069.8600000000001</ele>
        <time>2018-07-13T07:02:58Z</time>
      </trkpt>
      <trkpt lat="46.179878264665604" lon="10.471596037968993">
        <ele>2068.8899999999999</ele>
        <time>2018-07-13T07:03:04Z</time>
      </trkpt>
      <trkpt lat="46.179847083985806" lon="10.471523199230433">
        <ele>2066.9699999999998</ele>
        <time>2018-07-13T07:03:14Z</time>
      </trkpt>
      <trkpt lat="46.179846078157425" lon="10.471419515088201">
        <ele>2065.0500000000002</ele>
        <time>2018-07-13T07:03:27Z</time>
      </trkpt>
      <trkpt lat="46.179830152541399" lon="10.471389424055815">
        <ele>2064.0900000000001</ele>
        <time>2018-07-13T07:03:30Z</time>
      </trkpt>
      <trkpt lat="46.179741807281971" lon="10.471325973048806">
        <ele>2063.6100000000001</ele>
        <time>2018-07-13T07:03:41Z</time>
      </trkpt>
      <trkpt lat="46.179735604673624" lon="10.471304096281528">
        <ele>2064.0900000000001</ele>
        <time>2018-07-13T07:03:46Z</time>
      </trkpt>
      <trkpt lat="46.179717751219869" lon="10.471265036612749">
        <ele>2063.6100000000001</ele>
        <time>2018-07-13T07:03:56Z</time>
      </trkpt>
      <trkpt lat="46.179697383195162" lon="10.471291020512581">
        <ele>2064.0900000000001</ele>
        <time>2018-07-13T07:03:59Z</time>
      </trkpt>
      <trkpt lat="46.179576767608523" lon="10.471208123490214">
        <ele>2064.0900000000001</ele>
        <time>2018-07-13T07:04:12Z</time>
      </trkpt>
      <trkpt lat="46.179518261924386" lon="10.471132602542639">
        <ele>2063.6100000000001</ele>
        <time>2018-07-13T07:04:19Z</time>
      </trkpt>
      <trkpt lat="46.179580288007855" lon="10.470929509028792">
        <ele>2062.6500000000001</ele>
        <time>2018-07-13T07:04:32Z</time>
      </trkpt>
      <trkpt lat="46.179605601355433" lon="10.470907045528293">
        <ele>2062.6500000000001</ele>
        <time>2018-07-13T07:04:44Z</time>
      </trkpt>
      <trkpt lat="46.179584311321378" lon="10.470934957265854">
        <ele>2062.1700000000001</ele>
        <time>2018-07-13T07:04:57Z</time>
      </trkpt>
      <trkpt lat="46.17956486530602" lon="10.470949374139309">
        <ele>2062.1700000000001</ele>
        <time>2018-07-13T07:05:21Z</time>
      </trkpt>
      <trkpt lat="46.179574504494667" lon="10.470964377745986">
        <ele>2062.1700000000001</ele>
        <time>2018-07-13T07:05:37Z</time>
      </trkpt>
      <trkpt lat="46.17957609705627" lon="10.470952978357673">
        <ele>2062.1700000000001</ele>
        <time>2018-07-13T07:05:49Z</time>
      </trkpt>
      <trkpt lat="46.179575594142079" lon="10.47092791646719">
        <ele>2062.6500000000001</ele>
        <time>2018-07-13T07:06:03Z</time>
      </trkpt>
      <trkpt lat="46.179571067914367" lon="10.470926491543651">
        <ele>2062.6500000000001</ele>
        <time>2018-07-13T07:06:20Z</time>
      </trkpt>
      <trkpt lat="46.179574504494667" lon="10.470856754109263">
        <ele>2062.6500000000001</ele>
        <time>2018-07-13T07:06:29Z</time>
      </trkpt>
      <trkpt lat="46.179572828114033" lon="10.470832362771034">
        <ele>2062.1700000000001</ele>
        <time>2018-07-13T07:06:31Z</time>
      </trkpt>
      <trkpt lat="46.179597303271294" lon="10.470874607563019">
        <ele>2062.1700000000001</ele>
        <time>2018-07-13T07:06:41Z</time>
      </trkpt>
      <trkpt lat="46.179621107876301" lon="10.470884414389729">
        <ele>2062.1700000000001</ele>
        <time>2018-07-13T07:06:57Z</time>
      </trkpt>
      <trkpt lat="46.179629154503345" lon="10.470888605341315">
        <ele>2062.1700000000001</ele>
        <time>2018-07-13T07:07:19Z</time>
      </trkpt>
      <trkpt lat="46.179641811177135" lon="10.470880977809429">
        <ele>2061.6799999999998</ele>
        <time>2018-07-13T07:07:34Z</time>
      </trkpt>
      <trkpt lat="46.179611133411527" lon="10.470915427431464">
        <ele>2062.1700000000001</ele>
        <time>2018-07-13T07:07:51Z</time>
      </trkpt>
      <trkpt lat="46.179617252200842" lon="10.470921965315938">
        <ele>2062.1700000000001</ele>
        <time>2018-07-13T07:08:02Z</time>
      </trkpt>
      <trkpt lat="46.179626388475299" lon="10.470952475443482">
        <ele>2062.1700000000001</ele>
        <time>2018-07-13T07:08:30Z</time>
      </trkpt>
      <trkpt lat="46.179613480344415" lon="10.470908302813768">
        <ele>2062.1700000000001</ele>
        <time>2018-07-13T07:08:55Z</time>
      </trkpt>
      <trkpt lat="46.179594537243247" lon="10.470876200124621">
        <ele>2062.1700000000001</ele>
        <time>2018-07-13T07:09:13Z</time>
      </trkpt>
      <trkpt lat="46.17963619530201" lon="10.470693223178387">
        <ele>2061.6799999999998</ele>
        <time>2018-07-13T07:09:26Z</time>
      </trkpt>
      <trkpt lat="46.179680787026882" lon="10.47046959400177">
        <ele>2060.7199999999998</ele>
        <time>2018-07-13T07:09:40Z</time>
      </trkpt>
      <trkpt lat="46.179716242477298" lon="10.470347050577402">
        <ele>2060.2399999999998</ele>
        <time>2018-07-13T07:09:48Z</time>
      </trkpt>
      <trkpt lat="46.179778603836894" lon="10.470189051702619">
        <ele>2060.2399999999998</ele>
        <time>2018-07-13T07:10:00Z</time>
      </trkpt>
      <trkpt lat="46.179838785901666" lon="10.470049828290939">
        <ele>2059.2800000000002</ele>
        <time>2018-07-13T07:10:12Z</time>
      </trkpt>
      <trkpt lat="46.179844401776791" lon="10.46995410695672">
        <ele>2058.3200000000002</ele>
        <time>2018-07-13T07:10:19Z</time>
      </trkpt>
      <trkpt lat="46.179803246632218" lon="10.469855535775423">
        <ele>2058.8000000000002</ele>
        <time>2018-07-13T07:10:28Z</time>
      </trkpt>
      <trkpt lat="46.179813472554088" lon="10.469826785847545">
        <ele>2058.3200000000002</ele>
        <time>2018-07-13T07:10:39Z</time>
      </trkpt>
      <trkpt lat="46.179824369028211" lon="10.469809519127011">
        <ele>2057.8400000000001</ele>
        <time>2018-07-13T07:10:48Z</time>
      </trkpt>
      <trkpt lat="46.179801318794489" lon="10.46978697180748">
        <ele>2057.3600000000001</ele>
        <time>2018-07-13T07:11:18Z</time>
      </trkpt>
      <trkpt lat="46.179801234975457" lon="10.469779847189784">
        <ele>2057.3600000000001</ele>
        <time>2018-07-13T07:11:53Z</time>
      </trkpt>
      <trkpt lat="46.179788326844573" lon="10.469774147495627">
        <ele>2057.3600000000001</ele>
        <time>2018-07-13T07:12:24Z</time>
      </trkpt>
      <trkpt lat="46.1797852255404" lon="10.469778589904308">
        <ele>2057.3600000000001</ele>
        <time>2018-07-13T07:12:55Z</time>
      </trkpt>
      <trkpt lat="46.179784387350082" lon="10.469784457236528">
        <ele>2057.3600000000001</ele>
        <time>2018-07-13T07:13:20Z</time>
      </trkpt>
      <trkpt lat="46.17979159578681" lon="10.469783367589116">
        <ele>2057.8400000000001</ele>
        <time>2018-07-13T07:13:41Z</time>
      </trkpt>
      <trkpt lat="46.179786650463939" lon="10.46978797763586">
        <ele>2057.3600000000001</ele>
        <time>2018-07-13T07:14:06Z</time>
      </trkpt>
      <trkpt lat="46.179788997396827" lon="10.469786133617163">
        <ele>2057.3600000000001</ele>
        <time>2018-07-13T07:14:34Z</time>
      </trkpt>
      <trkpt lat="46.179793942719698" lon="10.469779595732689">
        <ele>2057.3600000000001</ele>
        <time>2018-07-13T07:15:08Z</time>
      </trkpt>
      <trkpt lat="46.179778855293989" lon="10.469780685380101">
        <ele>2057.3600000000001</ele>
        <time>2018-07-13T07:15:38Z</time>
      </trkpt>
      <trkpt lat="46.179789919406176" lon="10.469783619046211">
        <ele>2057.3600000000001</ele>
        <time>2018-07-13T07:16:06Z</time>
      </trkpt>
      <trkpt lat="46.1797852255404" lon="10.469781942665577">
        <ele>2057.3600000000001</ele>
        <time>2018-07-13T07:16:28Z</time>
      </trkpt>
      <trkpt lat="46.179793523624539" lon="10.469773728400469">
        <ele>2057.3600000000001</ele>
        <time>2018-07-13T07:16:59Z</time>
      </trkpt>
      <trkpt lat="46.179799726232886" lon="10.469823181629181">
        <ele>2057.8400000000001</ele>
        <time>2018-07-13T07:17:25Z</time>
      </trkpt>
      <trkpt lat="46.179806683212519" lon="10.469825444743037">
        <ele>2057.3600000000001</ele>
        <time>2018-07-13T07:17:35Z</time>
      </trkpt>
      <trkpt lat="46.179815316572785" lon="10.469812955707312">
        <ele>2057.8400000000001</ele>
        <time>2018-07-13T07:17:48Z</time>
      </trkpt>
      <trkpt lat="46.179794780910015" lon="10.469783032312989">
        <ele>2057.8400000000001</ele>
        <time>2018-07-13T07:18:01Z</time>
      </trkpt>
      <trkpt lat="46.179792182520032" lon="10.469762915745378">
        <ele>2057.8400000000001</ele>
        <time>2018-07-13T07:18:03Z</time>
      </trkpt>
      <trkpt lat="46.179802911356091" lon="10.469727544113994">
        <ele>2057.8400000000001</ele>
        <time>2018-07-13T07:18:06Z</time>
      </trkpt>
      <trkpt lat="46.17980819195509" lon="10.469674486666918">
        <ele>2057.3600000000001</ele>
        <time>2018-07-13T07:18:09Z</time>
      </trkpt>
      <trkpt lat="46.179818334057927" lon="10.4696184117347">
        <ele>2057.3600000000001</ele>
        <time>2018-07-13T07:18:14Z</time>
      </trkpt>
      <trkpt lat="46.179855884984136" lon="10.46958714723587">
        <ele>2057.3600000000001</ele>
        <time>2018-07-13T07:18:23Z</time>
      </trkpt>
      <trkpt lat="46.179848089814186" lon="10.469597959890962">
        <ele>2056.8800000000001</ele>
        <time>2018-07-13T07:18:30Z</time>
      </trkpt>
      <trkpt lat="46.179837025702" lon="10.469626290723681">
        <ele>2056.8800000000001</ele>
        <time>2018-07-13T07:18:39Z</time>
      </trkpt>
      <trkpt lat="46.17984582670033" lon="10.469625368714333">
        <ele>2056.8800000000001</ele>
        <time>2018-07-13T07:18:59Z</time>
      </trkpt>
      <trkpt lat="46.179847251623869" lon="10.469618663191795">
        <ele>2056.8800000000001</ele>
        <time>2018-07-13T07:19:10Z</time>
      </trkpt>
      <trkpt lat="46.179819675162435" lon="10.469691753387451">
        <ele>2056.8800000000001</ele>
        <time>2018-07-13T07:19:18Z</time>
      </trkpt>
      <trkpt lat="46.179824704304338" lon="10.469703488051891">
        <ele>2056.8800000000001</ele>
        <time>2018-07-13T07:19:19Z</time>
      </trkpt>
      <trkpt lat="46.179902656003833" lon="10.469806753098965">
        <ele>2057.3600000000001</ele>
        <time>2018-07-13T07:19:30Z</time>
      </trkpt>
      <trkpt lat="46.179921934381127" lon="10.469820583239198">
        <ele>2057.3600000000001</ele>
        <time>2018-07-13T07:19:32Z</time>
      </trkpt>
      <trkpt lat="46.179999718442559" lon="10.46982116997242">
        <ele>2056.8800000000001</ele>
        <time>2018-07-13T07:19:40Z</time>
      </trkpt>
      <trkpt lat="46.180054536089301" lon="10.469848830252886">
        <ele>2056.8800000000001</ele>
        <time>2018-07-13T07:19:46Z</time>
      </trkpt>
      <trkpt lat="46.180069204419851" lon="10.469814548268914">
        <ele>2056.4000000000001</ele>
        <time>2018-07-13T07:19:56Z</time>
      </trkpt>
      <trkpt lat="46.180055290460587" lon="10.469802729785442">
        <ele>2056.4000000000001</ele>
        <time>2018-07-13T07:20:05Z</time>
      </trkpt>
      <trkpt lat="46.180074149742723" lon="10.469777919352055">
        <ele>2056.4000000000001</ele>
        <time>2018-07-13T07:20:12Z</time>
      </trkpt>
      <trkpt lat="46.180076915770769" lon="10.469746487215161">
        <ele>2056.4000000000001</ele>
        <time>2018-07-13T07:20:14Z</time>
      </trkpt>
      <trkpt lat="46.180115472525358" lon="10.469677420333028">
        <ele>2055.9200000000001</ele>
        <time>2018-07-13T07:20:23Z</time>
      </trkpt>
      <trkpt lat="46.180117316544056" lon="10.469605671241879">
        <ele>2055.9200000000001</ele>
        <time>2018-07-13T07:20:30Z</time>
      </trkpt>
      <trkpt lat="46.180147575214505" lon="10.469548925757408">
        <ele>2055.4400000000001</ele>
        <time>2018-07-13T07:20:35Z</time>
      </trkpt>
      <trkpt lat="46.180230304598808" lon="10.469509614631534">
        <ele>2053.9899999999998</ele>
        <time>2018-07-13T07:20:46Z</time>
      </trkpt>
      <trkpt lat="46.180238099768758" lon="10.469457479193807">
        <ele>2053.5100000000002</ele>
        <time>2018-07-13T07:20:50Z</time>
      </trkpt>
      <trkpt lat="46.180265257135034" lon="10.469427891075611">
        <ele>2053.5100000000002</ele>
        <time>2018-07-13T07:20:53Z</time>
      </trkpt>
      <trkpt lat="46.180276488885283" lon="10.469329487532377">
        <ele>2053.5100000000002</ele>
        <time>2018-07-13T07:21:01Z</time>
      </trkpt>
      <trkpt lat="46.18027875199914" lon="10.469301994889975">
        <ele>2053.5100000000002</ele>
        <time>2018-07-13T07:21:03Z</time>
      </trkpt>
      <trkpt lat="46.180286463350058" lon="10.469275256618857">
        <ele>2053.5100000000002</ele>
        <time>2018-07-13T07:21:05Z</time>
      </trkpt>
      <trkpt lat="46.180317560210824" lon="10.469244075939059">
        <ele>2053.5100000000002</ele>
        <time>2018-07-13T07:21:14Z</time>
      </trkpt>
      <trkpt lat="46.180337592959404" lon="10.469228904694319">
        <ele>2053.0300000000002</ele>
        <time>2018-07-13T07:21:16Z</time>
      </trkpt>
      <trkpt lat="46.180426860228181" lon="10.469169477000833">
        <ele>2053.0300000000002</ele>
        <time>2018-07-13T07:21:25Z</time>
      </trkpt>
      <trkpt lat="46.180517552420497" lon="10.469083646312356">
        <ele>2053.0300000000002</ele>
        <time>2018-07-13T07:21:36Z</time>
      </trkpt>
      <trkpt lat="46.180604053661227" lon="10.469047017395496">
        <ele>2053.0300000000002</ele>
        <time>2018-07-13T07:21:46Z</time>
      </trkpt>
      <trkpt lat="46.180701032280922" lon="10.468941908329725">
        <ele>2051.5900000000001</ele>
        <time>2018-07-13T07:21:59Z</time>
      </trkpt>
      <trkpt lat="46.180719472467899" lon="10.468917936086655">
        <ele>2051.5900000000001</ele>
        <time>2018-07-13T07:22:02Z</time>
      </trkpt>
      <trkpt lat="46.180757777765393" lon="10.468817269429564">
        <ele>2051.1100000000001</ele>
        <time>2018-07-13T07:22:12Z</time>
      </trkpt>
      <trkpt lat="46.180755598470569" lon="10.468800170347095">
        <ele>2051.5900000000001</ele>
        <time>2018-07-13T07:22:23Z</time>
      </trkpt>
      <trkpt lat="46.180766159668565" lon="10.468782149255276">
        <ele>2051.5900000000001</ele>
        <time>2018-07-13T07:22:33Z</time>
      </trkpt>
      <trkpt lat="46.180838076397777" lon="10.468746358528733">
        <ele>2050.1500000000001</ele>
        <time>2018-07-13T07:22:44Z</time>
      </trkpt>
      <trkpt lat="46.180926254019141" lon="10.468725319951773">
        <ele>2048.71</ele>
        <time>2018-07-13T07:22:55Z</time>
      </trkpt>
      <trkpt lat="46.181004289537668" lon="10.468660360202193">
        <ele>2048.23</ele>
        <time>2018-07-13T07:23:05Z</time>
      </trkpt>
      <trkpt lat="46.181132281199098" lon="10.468574780970812">
        <ele>2046.78</ele>
        <time>2018-07-13T07:23:19Z</time>
      </trkpt>
      <trkpt lat="46.181160444393754" lon="10.468515604734421">
        <ele>2047.75</ele>
        <time>2018-07-13T07:23:26Z</time>
      </trkpt>
      <trkpt lat="46.181186763569713" lon="10.468481071293354">
        <ele>2047.75</ele>
        <time>2018-07-13T07:23:30Z</time>
      </trkpt>
      <trkpt lat="46.181220291182399" lon="10.46843932941556">
        <ele>2048.23</ele>
        <time>2018-07-13T07:23:35Z</time>
      </trkpt>
      <trkpt lat="46.181292878463864" lon="10.468293903395534">
        <ele>2047.26</ele>
        <time>2018-07-13T07:23:47Z</time>
      </trkpt>
      <trkpt lat="46.181362112984061" lon="10.468145795166492">
        <ele>2046.3</ele>
        <time>2018-07-13T07:23:59Z</time>
      </trkpt>
      <trkpt lat="46.181405950337648" lon="10.468066167086363">
        <ele>2044.8599999999999</ele>
        <time>2018-07-13T07:24:09Z</time>
      </trkpt>
      <trkpt lat="46.181423049420118" lon="10.468030208721757">
        <ele>2044.3800000000001</ele>
        <time>2018-07-13T07:24:15Z</time>
      </trkpt>
      <trkpt lat="46.181428749114275" lon="10.467937421053648">
        <ele>2043.4200000000001</ele>
        <time>2018-07-13T07:24:25Z</time>
      </trkpt>
      <trkpt lat="46.181470323354006" lon="10.467930966988206">
        <ele>2043.4200000000001</ele>
        <time>2018-07-13T07:24:29Z</time>
      </trkpt>
      <trkpt lat="46.181501923128963" lon="10.467926608398557">
        <ele>2042.9400000000001</ele>
        <time>2018-07-13T07:24:32Z</time>
      </trkpt>
      <trkpt lat="46.181524973362684" lon="10.4678656719625">
        <ele>2041.98</ele>
        <time>2018-07-13T07:24:38Z</time>
      </trkpt>
      <trkpt lat="46.181553471833467" lon="10.467745894566178">
        <ele>2041.5</ele>
        <time>2018-07-13T07:24:48Z</time>
      </trkpt>
      <trkpt lat="46.181560596451163" lon="10.467741535976529">
        <ele>2041.5</ele>
        <time>2018-07-13T07:24:49Z</time>
      </trkpt>
      <trkpt lat="46.181610384956002" lon="10.467667104676366">
        <ele>2040.54</ele>
        <time>2018-07-13T07:25:00Z</time>
      </trkpt>
      <trkpt lat="46.181681798771024" lon="10.467588230967522">
        <ele>2039.5699999999999</ele>
        <time>2018-07-13T07:25:11Z</time>
      </trkpt>
      <trkpt lat="46.181744327768683" lon="10.46753291040659">
        <ele>2039.0899999999999</ele>
        <time>2018-07-13T07:25:21Z</time>
      </trkpt>
      <trkpt lat="46.181780034676194" lon="10.467478176578879">
        <ele>2037.6500000000001</ele>
        <time>2018-07-13T07:25:31Z</time>
      </trkpt>
      <trkpt lat="46.181848095729947" lon="10.467485636472702">
        <ele>2034.77</ele>
        <time>2018-07-13T07:25:43Z</time>
      </trkpt>
      <trkpt lat="46.18187609128654" lon="10.467453030869365">
        <ele>2032.8399999999999</ele>
        <time>2018-07-13T07:25:53Z</time>
      </trkpt>
      <trkpt lat="46.181909618899226" lon="10.467432411387563">
        <ele>2031.4000000000001</ele>
        <time>2018-07-13T07:26:03Z</time>
      </trkpt>
      <trkpt lat="46.181937195360661" lon="10.467438446357846">
        <ele>2030.9200000000001</ele>
        <time>2018-07-13T07:26:16Z</time>
      </trkpt>
      <trkpt lat="46.181941721588373" lon="10.467469124123454">
        <ele>2030.4400000000001</ele>
        <time>2018-07-13T07:26:28Z</time>
      </trkpt>
      <trkpt lat="46.181937698274851" lon="10.467511704191566">
        <ele>2028.52</ele>
        <time>2018-07-13T07:26:37Z</time>
      </trkpt>
      <trkpt lat="46.181958485394716" lon="10.467469040304422">
        <ele>2026.5999999999999</ele>
        <time>2018-07-13T07:26:48Z</time>
      </trkpt>
      <trkpt lat="46.181978518143296" lon="10.46740248799324">
        <ele>2024.1900000000001</ele>
        <time>2018-07-13T07:27:02Z</time>
      </trkpt>
      <trkpt lat="46.181996371597052" lon="10.467358566820621">
        <ele>2023.23</ele>
        <time>2018-07-13T07:27:09Z</time>
      </trkpt>
      <trkpt lat="46.182042136788368" lon="10.46725345775485">
        <ele>2020.8299999999999</ele>
        <time>2018-07-13T07:27:20Z</time>
      </trkpt>
      <trkpt lat="46.182114975526929" lon="10.467246333137155">
        <ele>2019.3900000000001</ele>
        <time>2018-07-13T07:27:30Z</time>
      </trkpt>
      <trkpt lat="46.182139031589031" lon="10.467210374772549">
        <ele>2017.9400000000001</ele>
        <time>2018-07-13T07:27:39Z</time>
      </trkpt>
      <trkpt lat="46.182111706584692" lon="10.4671351891011">
        <ele>2015.54</ele>
        <time>2018-07-13T07:27:49Z</time>
      </trkpt>
      <trkpt lat="46.182146910578012" lon="10.46703988686204">
        <ele>2014.5799999999999</ele>
        <time>2018-07-13T07:27:57Z</time>
      </trkpt>
      <trkpt lat="46.182161159813404" lon="10.466965539380908">
        <ele>2014.0999999999999</ele>
        <time>2018-07-13T07:28:07Z</time>
      </trkpt>
      <trkpt lat="46.18217951618135" lon="10.466892449185252">
        <ele>2013.1400000000001</ele>
        <time>2018-07-13T07:28:17Z</time>
      </trkpt>
      <trkpt lat="46.182232238352299" lon="10.466832183301449">
        <ele>2011.7</ele>
        <time>2018-07-13T07:28:28Z</time>
      </trkpt>
      <trkpt lat="46.182208182290196" lon="10.466783903539181">
        <ele>2010.25</ele>
        <time>2018-07-13T07:28:39Z</time>
      </trkpt>
      <trkpt lat="46.182191083207726" lon="10.466779377311468">
        <ele>2010.25</ele>
        <time>2018-07-13T07:28:53Z</time>
      </trkpt>
      <trkpt lat="46.182234082370996" lon="10.466758422553539">
        <ele>2009.77</ele>
        <time>2018-07-13T07:29:05Z</time>
      </trkpt>
      <trkpt lat="46.182278674095869" lon="10.466714166104794">
        <ele>2007.8499999999999</ele>
        <time>2018-07-13T07:29:18Z</time>
      </trkpt>
      <trkpt lat="46.182361235842109" lon="10.466671921312809">
        <ele>2005.9300000000001</ele>
        <time>2018-07-13T07:29:31Z</time>
      </trkpt>
      <trkpt lat="46.182358050718904" lon="10.466716345399618">
        <ele>2004.49</ele>
        <time>2018-07-13T07:29:40Z</time>
      </trkpt>
      <trkpt lat="46.182367438450456" lon="10.466726822778583">
        <ele>2003.52</ele>
        <time>2018-07-13T07:29:50Z</time>
      </trkpt>
      <trkpt lat="46.182408761233091" lon="10.466712657362223">
        <ele>2001.5999999999999</ele>
        <time>2018-07-13T07:30:00Z</time>
      </trkpt>
      <trkpt lat="46.182420663535595" lon="10.466788429766893">
        <ele>1999.6800000000001</ele>
        <time>2018-07-13T07:30:10Z</time>
      </trkpt>
      <trkpt lat="46.182417729869485" lon="10.466908374801278">
        <ele>1997.28</ele>
        <time>2018-07-13T07:30:23Z</time>
      </trkpt>
      <trkpt lat="46.182429380714893" lon="10.466993618756533">
        <ele>1995.3499999999999</ele>
        <time>2018-07-13T07:30:35Z</time>
      </trkpt>
      <trkpt lat="46.182462070137262" lon="10.466954475268722">
        <ele>1993.4300000000001</ele>
        <time>2018-07-13T07:30:46Z</time>
      </trkpt>
      <trkpt lat="46.182507751509547" lon="10.466929245740175">
        <ele>1992.47</ele>
        <time>2018-07-13T07:30:57Z</time>
      </trkpt>
      <trkpt lat="46.182526862248778" lon="10.466946512460709">
        <ele>1991.51</ele>
        <time>2018-07-13T07:31:07Z</time>
      </trkpt>
      <trkpt lat="46.18253624998033" lon="10.467053717002273">
        <ele>1989.0999999999999</ele>
        <time>2018-07-13T07:31:18Z</time>
      </trkpt>
      <trkpt lat="46.182522419840097" lon="10.467150695621967">
        <ele>1987.1800000000001</ele>
        <time>2018-07-13T07:31:29Z</time>
      </trkpt>
      <trkpt lat="46.18255184032023" lon="10.467140972614288">
        <ele>1985.74</ele>
        <time>2018-07-13T07:31:38Z</time>
      </trkpt>
      <trkpt lat="46.182583356276155" lon="10.467180199921131">
        <ele>1983.8199999999999</ele>
        <time>2018-07-13T07:31:50Z</time>
      </trkpt>
      <trkpt lat="46.182621410116553" lon="10.467124124988914">
        <ele>1981.9000000000001</ele>
        <time>2018-07-13T07:32:01Z</time>
      </trkpt>
      <trkpt lat="46.182654937729239" lon="10.467060925439">
        <ele>1979.97</ele>
        <time>2018-07-13T07:32:11Z</time>
      </trkpt>
      <trkpt lat="46.182718137279153" lon="10.466935699805617">
        <ele>1979.01</ele>
        <time>2018-07-13T07:32:25Z</time>
      </trkpt>
      <trkpt lat="46.182755017653108" lon="10.466849114745855">
        <ele>1978.05</ele>
        <time>2018-07-13T07:32:35Z</time>
      </trkpt>
      <trkpt lat="46.182814529165626" lon="10.466762194409966">
        <ele>1976.6099999999999</ele>
        <time>2018-07-13T07:32:49Z</time>
      </trkpt>
      <trkpt lat="46.182856438681483" lon="10.466722631826997">
        <ele>1975.1700000000001</ele>
        <time>2018-07-13T07:32:56Z</time>
      </trkpt>
      <trkpt lat="46.182917961850762" lon="10.466684326529503">
        <ele>1974.6900000000001</ele>
        <time>2018-07-13T07:33:07Z</time>
      </trkpt>
      <trkpt lat="46.182981245219707" lon="10.466629508882761">
        <ele>1973.24</ele>
        <time>2018-07-13T07:33:17Z</time>
      </trkpt>
      <trkpt lat="46.183055592700839" lon="10.466581815853715">
        <ele>1971.8</ele>
        <time>2018-07-13T07:33:30Z</time>
      </trkpt>
      <trkpt lat="46.18314553052187" lon="10.466587180271745">
        <ele>1970.3599999999999</ele>
        <time>2018-07-13T07:33:42Z</time>
      </trkpt>
      <trkpt lat="46.183223063126206" lon="10.466595478355885">
        <ele>1968.4400000000001</ele>
        <time>2018-07-13T07:33:53Z</time>
      </trkpt>
      <trkpt lat="46.183234294876456" lon="10.466591706499457">
        <ele>1967.96</ele>
        <time>2018-07-13T07:33:56Z</time>
      </trkpt>
      <trkpt lat="46.183310821652412" lon="10.466551305726171">
        <ele>1966.51</ele>
        <time>2018-07-13T07:34:07Z</time>
      </trkpt>
      <trkpt lat="46.183415679261088" lon="10.466518281027675">
        <ele>1965.55</ele>
        <time>2018-07-13T07:34:19Z</time>
      </trkpt>
      <trkpt lat="46.183524308726192" lon="10.466570751741529">
        <ele>1964.1099999999999</ele>
        <time>2018-07-13T07:34:30Z</time>
      </trkpt>
      <trkpt lat="46.183590274304152" lon="10.466615511104465">
        <ele>1962.6700000000001</ele>
        <time>2018-07-13T07:34:40Z</time>
      </trkpt>
      <trkpt lat="46.183688342571259" lon="10.466682985424995">
        <ele>1960.75</ele>
        <time>2018-07-13T07:34:52Z</time>
      </trkpt>
      <trkpt lat="46.183737544342875" lon="10.466689774766564">
        <ele>1960.75</ele>
        <time>2018-07-13T07:34:57Z</time>
      </trkpt>
      <trkpt lat="46.183853382244706" lon="10.466710394248366">
        <ele>1960.75</ele>
        <time>2018-07-13T07:35:10Z</time>
      </trkpt>
      <trkpt lat="46.183987157419324" lon="10.466714920476079">
        <ele>1960.27</ele>
        <time>2018-07-13T07:35:22Z</time>
      </trkpt>
      <trkpt lat="46.184106934815645" lon="10.466729421168566">
        <ele>1960.75</ele>
        <time>2018-07-13T07:35:33Z</time>
      </trkpt>
      <trkpt lat="46.184234339743853" lon="10.466720117256045">
        <ele>1960.27</ele>
        <time>2018-07-13T07:35:47Z</time>
      </trkpt>
      <trkpt lat="46.184328300878406" lon="10.466713244095445">
        <ele>1960.27</ele>
        <time>2018-07-13T07:35:57Z</time>
      </trkpt>
      <trkpt lat="46.184403235092759" lon="10.4667276609689">
        <ele>1960.27</ele>
        <time>2018-07-13T07:36:08Z</time>
      </trkpt>
      <trkpt lat="46.184552852064371" lon="10.46672229655087">
        <ele>1959.78</ele>
        <time>2018-07-13T07:36:22Z</time>
      </trkpt>
      <trkpt lat="46.184645891189575" lon="10.466730343177915">
        <ele>1959.78</ele>
        <time>2018-07-13T07:36:32Z</time>
      </trkpt>
      <trkpt lat="46.184761561453342" lon="10.466743251308799">
        <ele>1959.78</ele>
        <time>2018-07-13T07:36:44Z</time>
      </trkpt>
      <trkpt lat="46.184881841763854" lon="10.466743167489767">
        <ele>1959.78</ele>
        <time>2018-07-13T07:36:57Z</time>
      </trkpt>
      <trkpt lat="46.185014946386218" lon="10.466730007901788">
        <ele>1959.3</ele>
        <time>2018-07-13T07:37:10Z</time>
      </trkpt>
      <trkpt lat="46.185127263888717" lon="10.466728582978249">
        <ele>1959.3</ele>
        <time>2018-07-13T07:37:22Z</time>
      </trkpt>
      <trkpt lat="46.18524419143796" lon="10.466703353449702">
        <ele>1959.3</ele>
        <time>2018-07-13T07:37:35Z</time>
      </trkpt>
      <trkpt lat="46.185258524492383" lon="10.466734701767564">
        <ele>1959.3</ele>
        <time>2018-07-13T07:37:44Z</time>
      </trkpt>
      <trkpt lat="46.185256596654654" lon="10.466732354834676">
        <ele>1959.3</ele>
        <time>2018-07-13T07:37:47Z</time>
      </trkpt>
      <trkpt lat="46.185306133702397" lon="10.466693881899118">
        <ele>1959.3</ele>
        <time>2018-07-13T07:37:56Z</time>
      </trkpt>
      <trkpt lat="46.185411410406232" lon="10.466679632663727">
        <ele>1959.3</ele>
        <time>2018-07-13T07:38:08Z</time>
      </trkpt>
      <trkpt lat="46.185450470075011" lon="10.466649206355214">
        <ele>1958.8199999999999</ele>
        <time>2018-07-13T07:38:13Z</time>
      </trkpt>
      <trkpt lat="46.185563039034605" lon="10.466603189706802">
        <ele>1958.8199999999999</ele>
        <time>2018-07-13T07:38:25Z</time>
      </trkpt>
      <trkpt lat="46.185715589672327" lon="10.466557005420327">
        <ele>1959.3</ele>
        <time>2018-07-13T07:38:39Z</time>
      </trkpt>
      <trkpt lat="46.185803348198533" lon="10.466532194986939">
        <ele>1958.8199999999999</ele>
        <time>2018-07-13T07:38:47Z</time>
      </trkpt>
      <trkpt lat="46.185900494456291" lon="10.466421972960234">
        <ele>1959.3</ele>
        <time>2018-07-13T07:38:59Z</time>
      </trkpt>
      <trkpt lat="46.185968052595854" lon="10.466315690428019">
        <ele>1959.78</ele>
        <time>2018-07-13T07:39:09Z</time>
      </trkpt>
      <trkpt lat="46.186055894941092" lon="10.466217622160912">
        <ele>1958.8199999999999</ele>
        <time>2018-07-13T07:39:20Z</time>
      </trkpt>
      <trkpt lat="46.186212804168463" lon="10.466142855584621">
        <ele>1958.8199999999999</ele>
        <time>2018-07-13T07:39:34Z</time>
      </trkpt>
      <trkpt lat="46.186353620141745" lon="10.46607973985374">
        <ele>1959.3</ele>
        <time>2018-07-13T07:39:47Z</time>
      </trkpt>
      <trkpt lat="46.186467781662941" lon="10.466030202805996">
        <ele>1958.8199999999999</ele>
        <time>2018-07-13T07:39:58Z</time>
      </trkpt>
      <trkpt lat="46.186617482453585" lon="10.465976977720857">
        <ele>1958.8199999999999</ele>
        <time>2018-07-13T07:40:11Z</time>
      </trkpt>
      <trkpt lat="46.18675846606493" lon="10.465895170345902">
        <ele>1958.8199999999999</ele>
        <time>2018-07-13T07:40:26Z</time>
      </trkpt>
      <trkpt lat="46.186843123286963" lon="10.465876394882798">
        <ele>1958.8199999999999</ele>
        <time>2018-07-13T07:40:33Z</time>
      </trkpt>
      <trkpt lat="46.186941778287292" lon="10.465820822864771">
        <ele>1958.8199999999999</ele>
        <time>2018-07-13T07:40:42Z</time>
      </trkpt>
      <trkpt lat="46.187094999477267" lon="10.465807663276792">
        <ele>1958.8199999999999</ele>
        <time>2018-07-13T07:40:55Z</time>
      </trkpt>
      <trkpt lat="46.187254004180431" lon="10.465795760974288">
        <ele>1958.8199999999999</ele>
        <time>2018-07-13T07:41:09Z</time>
      </trkpt>
      <trkpt lat="46.18735265918076" lon="10.465756617486477">
        <ele>1958.8199999999999</ele>
        <time>2018-07-13T07:41:19Z</time>
      </trkpt>
      <trkpt lat="46.187493307515979" lon="10.465688304975629">
        <ele>1958.8199999999999</ele>
        <time>2018-07-13T07:41:33Z</time>
      </trkpt>
      <trkpt lat="46.187625741586089" lon="10.465633235871792">
        <ele>1958.3399999999999</ele>
        <time>2018-07-13T07:41:45Z</time>
      </trkpt>
      <trkpt lat="46.187748033553362" lon="10.465588644146919">
        <ele>1958.8199999999999</ele>
        <time>2018-07-13T07:41:56Z</time>
      </trkpt>
      <trkpt lat="46.187870660796762" lon="10.465583279728889">
        <ele>1958.3399999999999</ele>
        <time>2018-07-13T07:42:07Z</time>
      </trkpt>
      <trkpt lat="46.187986666336656" lon="10.465590488165617">
        <ele>1958.8199999999999</ele>
        <time>2018-07-13T07:42:18Z</time>
      </trkpt>
      <trkpt lat="46.188115160912275" lon="10.465584201738238">
        <ele>1958.3399999999999</ele>
        <time>2018-07-13T07:42:30Z</time>
      </trkpt>
      <trkpt lat="46.188251869753003" lon="10.465660225600004">
        <ele>1958.3399999999999</ele>
        <time>2018-07-13T07:42:43Z</time>
      </trkpt>
      <trkpt lat="46.18836997076869" lon="10.465767262503505">
        <ele>1958.3399999999999</ele>
        <time>2018-07-13T07:42:55Z</time>
      </trkpt>
      <trkpt lat="46.188482875004411" lon="10.465859044343233">
        <ele>1958.3399999999999</ele>
        <time>2018-07-13T07:43:07Z</time>
      </trkpt>
      <trkpt lat="46.188599048182368" lon="10.465992400422692">
        <ele>1958.3399999999999</ele>
        <time>2018-07-13T07:43:21Z</time>
      </trkpt>
      <trkpt lat="46.188667863607407" lon="10.466151991859078">
        <ele>1957.8599999999999</ele>
        <time>2018-07-13T07:43:33Z</time>
      </trkpt>
      <trkpt lat="46.188732488080859" lon="10.46625810675323">
        <ele>1958.3399999999999</ele>
        <time>2018-07-13T07:43:45Z</time>
      </trkpt>
      <trkpt lat="46.188724944368005" lon="10.466258944943547">
        <ele>1957.8599999999999</ele>
        <time>2018-07-13T07:43:58Z</time>
      </trkpt>
      <trkpt lat="46.188723770901561" lon="10.466290293261409">
        <ele>1957.8599999999999</ele>
        <time>2018-07-13T07:44:09Z</time>
      </trkpt>
      <trkpt lat="46.188727123662829" lon="10.466292891651392">
        <ele>1959.3</ele>
        <time>2018-07-13T07:44:12Z</time>
      </trkpt>
      <trkpt lat="46.18873936124146" lon="10.466303369030356">
        <ele>1957.8599999999999</ele>
        <time>2018-07-13T07:44:26Z</time>
      </trkpt>
      <trkpt lat="46.188689237460494" lon="10.466269422322512">
        <ele>1957.8599999999999</ele>
        <time>2018-07-13T07:44:38Z</time>
      </trkpt>
      <trkpt lat="46.188620422035456" lon="10.466175293549895">
        <ele>1957.8599999999999</ele>
        <time>2018-07-13T07:44:47Z</time>
      </trkpt>
      <trkpt lat="46.188624361529946" lon="10.466111842542887">
        <ele>1957.8599999999999</ele>
        <time>2018-07-13T07:44:58Z</time>
      </trkpt>
      <trkpt lat="46.188620086759329" lon="10.46609147451818">
        <ele>1957.8599999999999</ele>
        <time>2018-07-13T07:45:10Z</time>
      </trkpt>
      <trkpt lat="46.188575327396393" lon="10.466170432046056">
        <ele>1957.3800000000001</ele>
        <time>2018-07-13T07:45:34Z</time>
      </trkpt>
      <trkpt lat="46.188629139214754" lon="10.466152159497142">
        <ele>1957.3800000000001</ele>
        <time>2018-07-13T07:45:51Z</time>
      </trkpt>
      <trkpt lat="46.18864456191659" lon="10.466162553057075">
        <ele>1957.8599999999999</ele>
        <time>2018-07-13T07:46:02Z</time>
      </trkpt>
      <trkpt lat="46.188669288530946" lon="10.466207899153233">
        <ele>1957.3800000000001</ele>
        <time>2018-07-13T07:46:24Z</time>
      </trkpt>
      <trkpt lat="46.188674317672849" lon="10.466173281893134">
        <ele>1957.8599999999999</ele>
        <time>2018-07-13T07:46:33Z</time>
      </trkpt>
      <trkpt lat="46.188702983781695" lon="10.466210162267089">
        <ele>1957.8599999999999</ele>
        <time>2018-07-13T07:46:46Z</time>
      </trkpt>
      <trkpt lat="46.188727207481861" lon="10.466265399008989">
        <ele>1957.3800000000001</ele>
        <time>2018-07-13T07:46:58Z</time>
      </trkpt>
      <trkpt lat="46.188756292685866" lon="10.466314516961575">
        <ele>1957.3800000000001</ele>
        <time>2018-07-13T07:47:07Z</time>
      </trkpt>
      <trkpt lat="46.188776073977351" lon="10.466343434527516">
        <ele>1957.3800000000001</ele>
        <time>2018-07-13T07:47:11Z</time>
      </trkpt>
      <trkpt lat="46.188861820846796" lon="10.466432450339198">
        <ele>1957.3800000000001</ele>
        <time>2018-07-13T07:47:23Z</time>
      </trkpt>
      <trkpt lat="46.188831310719252" lon="10.466448878869414">
        <ele>1957.3800000000001</ele>
        <time>2018-07-13T07:47:33Z</time>
      </trkpt>
      <trkpt lat="46.188800549134612" lon="10.466425241902471">
        <ele>1957.3800000000001</ele>
        <time>2018-07-13T07:47:37Z</time>
      </trkpt>
      <trkpt lat="46.188715053722262" lon="10.466340500861406">
        <ele>1957.3800000000001</ele>
        <time>2018-07-13T07:47:49Z</time>
      </trkpt>
      <trkpt lat="46.188725531101227" lon="10.466274032369256">
        <ele>1957.8599999999999</ele>
        <time>2018-07-13T07:47:59Z</time>
      </trkpt>
      <trkpt lat="46.188794430345297" lon="10.466258022934198">
        <ele>1959.78</ele>
        <time>2018-07-13T07:48:10Z</time>
      </trkpt>
      <trkpt lat="46.188838938251138" lon="10.466205133125186">
        <ele>1959.78</ele>
        <time>2018-07-13T07:48:21Z</time>
      </trkpt>
      <trkpt lat="46.188849164173007" lon="10.466192560270429">
        <ele>1961.71</ele>
        <time>2018-07-13T07:48:27Z</time>
      </trkpt>
      <trkpt lat="46.188872382044792" lon="10.466151824221015">
        <ele>1963.6300000000001</ele>
        <time>2018-07-13T07:48:39Z</time>
      </trkpt>
      <trkpt lat="46.188886631280184" lon="10.466076554730535">
        <ele>1964.5899999999999</ele>
        <time>2018-07-13T07:48:51Z</time>
      </trkpt>
      <trkpt lat="46.18887179531157" lon="10.466028861701488">
        <ele>1965.55</ele>
        <time>2018-07-13T07:49:01Z</time>
      </trkpt>
      <trkpt lat="46.188886044546962" lon="10.465946216136217">
        <ele>1966.99</ele>
        <time>2018-07-13T07:49:11Z</time>
      </trkpt>
      <trkpt lat="46.188903478905559" lon="10.465872455388308">
        <ele>1968.4400000000001</ele>
        <time>2018-07-13T07:49:23Z</time>
      </trkpt>
      <trkpt lat="46.188945723697543" lon="10.465806070715189">
        <ele>1969.8800000000001</ele>
        <time>2018-07-13T07:49:35Z</time>
      </trkpt>
      <trkpt lat="46.18896609172225" lon="10.465754773467779">
        <ele>1970.3599999999999</ele>
        <time>2018-07-13T07:49:44Z</time>
      </trkpt>
      <trkpt lat="46.188979251310229" lon="10.465708756819367">
        <ele>1972.28</ele>
        <time>2018-07-13T07:49:55Z</time>
      </trkpt>
      <trkpt lat="46.18902132846415" lon="10.465664500370622">
        <ele>1973.24</ele>
        <time>2018-07-13T07:50:07Z</time>
      </trkpt>
      <trkpt lat="46.189080839976668" lon="10.46564974822104">
        <ele>1974.6900000000001</ele>
        <time>2018-07-13T07:50:17Z</time>
      </trkpt>
      <trkpt lat="46.189149487763643" lon="10.465658130124211">
        <ele>1975.6500000000001</ele>
        <time>2018-07-13T07:50:28Z</time>
      </trkpt>
      <trkpt lat="46.189141441136599" lon="10.465602725744247">
        <ele>1977.0899999999999</ele>
        <time>2018-07-13T07:50:39Z</time>
      </trkpt>
      <trkpt lat="46.189172454178333" lon="10.465553356334567">
        <ele>1978.05</ele>
        <time>2018-07-13T07:50:49Z</time>
      </trkpt>
      <trkpt lat="46.189195839688182" lon="10.465521924197674">
        <ele>1979.49</ele>
        <time>2018-07-13T07:50:59Z</time>
      </trkpt>
      <trkpt lat="46.189209502190351" lon="10.465489737689495">
        <ele>1980.45</ele>
        <time>2018-07-13T07:51:10Z</time>
      </trkpt>
      <trkpt lat="46.189240850508213" lon="10.465430645272136">
        <ele>1982.3800000000001</ele>
        <time>2018-07-13T07:51:22Z</time>
      </trkpt>
      <trkpt lat="46.189255435019732" lon="10.465385802090168">
        <ele>1983.3399999999999</ele>
        <time>2018-07-13T07:51:32Z</time>
      </trkpt>
      <trkpt lat="46.189275970682502" lon="10.46533115208149">
        <ele>1984.78</ele>
        <time>2018-07-13T07:51:44Z</time>
      </trkpt>
      <trkpt lat="46.189270606264472" lon="10.465276837348938">
        <ele>1986.22</ele>
        <time>2018-07-13T07:51:56Z</time>
      </trkpt>
      <trkpt lat="46.189294494688511" lon="10.465219588950276">
        <ele>1988.1400000000001</ele>
        <time>2018-07-13T07:52:08Z</time>
      </trkpt>
      <trkpt lat="46.189317712560296" lon="10.465165609493852">
        <ele>1989.0999999999999</ele>
        <time>2018-07-13T07:52:17Z</time>
      </trkpt>
      <trkpt lat="46.1893296148628" lon="10.465100482106209">
        <ele>1990.0699999999999</ele>
        <time>2018-07-13T07:52:27Z</time>
      </trkpt>
      <trkpt lat="46.189367836341262" lon="10.465045496821404">
        <ele>1991.51</ele>
        <time>2018-07-13T07:52:39Z</time>
      </trkpt>
      <trkpt lat="46.189390886574984" lon="10.465001240372658">
        <ele>1992.47</ele>
        <time>2018-07-13T07:52:50Z</time>
      </trkpt>
      <trkpt lat="46.18937948718667" lon="10.464948350563645">
        <ele>1994.3900000000001</ele>
        <time>2018-07-13T07:53:02Z</time>
      </trkpt>
      <trkpt lat="46.189365908503532" lon="10.464867800474167">
        <ele>1996.3199999999999</ele>
        <time>2018-07-13T07:53:17Z</time>
      </trkpt>
      <trkpt lat="46.189358616247773" lon="10.464803595095873">
        <ele>1997.28</ele>
        <time>2018-07-13T07:53:27Z</time>
      </trkpt>
      <trkpt lat="46.189346462488174" lon="10.464738551527262">
        <ele>1998.72</ele>
        <time>2018-07-13T07:53:37Z</time>
      </trkpt>
      <trkpt lat="46.18933841586113" lon="10.464678034186363">
        <ele>2000.1600000000001</ele>
        <time>2018-07-13T07:53:48Z</time>
      </trkpt>
      <trkpt lat="46.189353251829743" lon="10.464636208489537">
        <ele>2001.1199999999999</ele>
        <time>2018-07-13T07:53:58Z</time>
      </trkpt>
      <trkpt lat="46.189353419467807" lon="10.464593041688204">
        <ele>2002.0799999999999</ele>
        <time>2018-07-13T07:54:09Z</time>
      </trkpt>
      <trkpt lat="46.189362304285169" lon="10.464539313688874">
        <ele>2004.01</ele>
        <time>2018-07-13T07:54:22Z</time>
      </trkpt>
      <trkpt lat="46.1893330514431" lon="10.464499332010746">
        <ele>2005.45</ele>
        <time>2018-07-13T07:54:32Z</time>
      </trkpt>
      <trkpt lat="46.189351743087173" lon="10.464437054470181">
        <ele>2006.8900000000001</ele>
        <time>2018-07-13T07:54:43Z</time>
      </trkpt>
      <trkpt lat="46.189322657883167" lon="10.464432276785374">
        <ele>2008.8099999999999</ele>
        <time>2018-07-13T07:54:53Z</time>
      </trkpt>
      <trkpt lat="46.189314443618059" lon="10.464369328692555">
        <ele>2008.8099999999999</ele>
        <time>2018-07-13T07:55:05Z</time>
      </trkpt>
      <trkpt lat="46.189321735873818" lon="10.464324988424778">
        <ele>2010.25</ele>
        <time>2018-07-13T07:55:15Z</time>
      </trkpt>
      <trkpt lat="46.189320227131248" lon="10.464275199919939">
        <ele>2011.7</ele>
        <time>2018-07-13T07:55:27Z</time>
      </trkpt>
      <trkpt lat="46.189339673146605" lon="10.464218622073531">
        <ele>2012.1800000000001</ele>
        <time>2018-07-13T07:55:38Z</time>
      </trkpt>
      <trkpt lat="46.189346965402365" lon="10.464178221300244">
        <ele>2014.0999999999999</ele>
        <time>2018-07-13T07:55:49Z</time>
      </trkpt>
      <trkpt lat="46.189335063099861" lon="10.464149974286556">
        <ele>2015.0599999999999</ele>
        <time>2018-07-13T07:55:58Z</time>
      </trkpt>
      <trkpt lat="46.189339756965637" lon="10.464087193831801">
        <ele>2016.5</ele>
        <time>2018-07-13T07:56:08Z</time>
      </trkpt>
      <trkpt lat="46.189370267093182" lon="10.464058527722955">
        <ele>2017.46</ele>
        <time>2018-07-13T07:56:19Z</time>
      </trkpt>
      <trkpt lat="46.189371524378657" lon="10.46401628293097">
        <ele>2018.4300000000001</ele>
        <time>2018-07-13T07:56:30Z</time>
      </trkpt>
      <trkpt lat="46.18937261402607" lon="10.463971942663193">
        <ele>2019.8699999999999</ele>
        <time>2018-07-13T07:56:41Z</time>
      </trkpt>
      <trkpt lat="46.189381582662463" lon="10.463931709527969">
        <ele>2020.8299999999999</ele>
        <time>2018-07-13T07:56:51Z</time>
      </trkpt>
      <trkpt lat="46.189413517713547" lon="10.463887033984065">
        <ele>2022.27</ele>
        <time>2018-07-13T07:56:59Z</time>
      </trkpt>
      <trkpt lat="46.189416032284498" lon="10.463867420330644">
        <ele>2023.23</ele>
        <time>2018-07-13T07:57:08Z</time>
      </trkpt>
      <trkpt lat="46.189421731978655" lon="10.463838670402765">
        <ele>2024.6700000000001</ele>
        <time>2018-07-13T07:57:18Z</time>
      </trkpt>
      <trkpt lat="46.189404465258121" lon="10.463794833049178">
        <ele>2026.1199999999999</ele>
        <time>2018-07-13T07:57:29Z</time>
      </trkpt>
      <trkpt lat="46.189420726150274" lon="10.463735489174724">
        <ele>2027.0799999999999</ele>
        <time>2018-07-13T07:57:43Z</time>
      </trkpt>
      <trkpt lat="46.18942441418767" lon="10.463681509718299">
        <ele>2029</ele>
        <time>2018-07-13T07:57:53Z</time>
      </trkpt>
      <trkpt lat="46.189436567947268" lon="10.46364588662982">
        <ele>2029.96</ele>
        <time>2018-07-13T07:58:01Z</time>
      </trkpt>
      <trkpt lat="46.18944151327014" lon="10.463633816689253">
        <ele>2030.9200000000001</ele>
        <time>2018-07-13T07:58:10Z</time>
      </trkpt>
      <trkpt lat="46.189458444714546" lon="10.463603977113962">
        <ele>2031.8800000000001</ele>
        <time>2018-07-13T07:58:20Z</time>
      </trkpt>
      <trkpt lat="46.18945425376296" lon="10.463562570512295">
        <ele>2033.3299999999999</ele>
        <time>2018-07-13T07:58:32Z</time>
      </trkpt>
      <trkpt lat="46.189445704221725" lon="10.463545471429825">
        <ele>2034.77</ele>
        <time>2018-07-13T07:58:42Z</time>
      </trkpt>
      <trkpt lat="46.189440255984664" lon="10.463516721501946">
        <ele>2035.73</ele>
        <time>2018-07-13T07:58:49Z</time>
      </trkpt>
      <trkpt lat="46.189465988427401" lon="10.46345436014235">
        <ele>2037.1700000000001</ele>
        <time>2018-07-13T07:59:01Z</time>
      </trkpt>
      <trkpt lat="46.189481914043427" lon="10.463379258289933">
        <ele>2038.6099999999999</ele>
        <time>2018-07-13T07:59:11Z</time>
      </trkpt>
      <trkpt lat="46.189524494111538" lon="10.463349251076579">
        <ele>2039.5699999999999</ele>
        <time>2018-07-13T07:59:21Z</time>
      </trkpt>
      <trkpt lat="46.189576964825392" lon="10.463369702920318">
        <ele>2040.54</ele>
        <time>2018-07-13T07:59:31Z</time>
      </trkpt>
      <trkpt lat="46.189622478559613" lon="10.463411277160048">
        <ele>2041.02</ele>
        <time>2018-07-13T07:59:41Z</time>
      </trkpt>
      <trkpt lat="46.18965215049684" lon="10.463444385677576">
        <ele>2041.5</ele>
        <time>2018-07-13T07:59:51Z</time>
      </trkpt>
      <trkpt lat="46.189672602340579" lon="10.463468274101615">
        <ele>2041.98</ele>
        <time>2018-07-13T07:59:59Z</time>
      </trkpt>
      <trkpt lat="46.189679810777307" lon="10.463509596884251">
        <ele>2043.4200000000001</ele>
        <time>2018-07-13T08:00:10Z</time>
      </trkpt>
      <trkpt lat="46.189697412773967" lon="10.463494090363383">
        <ele>2044.3800000000001</ele>
        <time>2018-07-13T08:00:19Z</time>
      </trkpt>
      <trkpt lat="46.189706297591329" lon="10.463459305465221">
        <ele>2045.8199999999999</ele>
        <time>2018-07-13T08:00:31Z</time>
      </trkpt>
      <trkpt lat="46.189709482714534" lon="10.463475314900279">
        <ele>2046.78</ele>
        <time>2018-07-13T08:00:40Z</time>
      </trkpt>
      <trkpt lat="46.189699005335569" lon="10.463490067049861">
        <ele>2047.26</ele>
        <time>2018-07-13T08:00:58Z</time>
      </trkpt>
      <trkpt lat="46.189692635089159" lon="10.463484283536673">
        <ele>2047.26</ele>
        <time>2018-07-13T08:01:14Z</time>
      </trkpt>
      <trkpt lat="46.189704202115536" lon="10.463484786450863">
        <ele>2048.23</ele>
        <time>2018-07-13T08:01:26Z</time>
      </trkpt>
      <trkpt lat="46.189754828810692" lon="10.463465675711632">
        <ele>2050.1500000000001</ele>
        <time>2018-07-13T08:01:34Z</time>
      </trkpt>
      <trkpt lat="46.189797073602676" lon="10.463485708460212">
        <ele>2051.1100000000001</ele>
        <time>2018-07-13T08:01:42Z</time>
      </trkpt>
      <trkpt lat="46.189839234575629" lon="10.463492749258876">
        <ele>2053.0300000000002</ele>
        <time>2018-07-13T08:01:55Z</time>
      </trkpt>
      <trkpt lat="46.189875947311521" lon="10.463457545265555">
        <ele>2054.4699999999998</ele>
        <time>2018-07-13T08:02:03Z</time>
      </trkpt>
      <trkpt lat="46.189895560964942" lon="10.463438434526324">
        <ele>2055.9200000000001</ele>
        <time>2018-07-13T08:02:13Z</time>
      </trkpt>
      <trkpt lat="46.18993311189115" lon="10.46343189664185">
        <ele>2056.8800000000001</ele>
        <time>2018-07-13T08:02:23Z</time>
      </trkpt>
      <trkpt lat="46.189987594261765" lon="10.463460478931665">
        <ele>2058.8000000000002</ele>
        <time>2018-07-13T08:02:34Z</time>
      </trkpt>
      <trkpt lat="46.19002640247345" lon="10.463475482538342">
        <ele>2059.7600000000002</ele>
        <time>2018-07-13T08:02:44Z</time>
      </trkpt>
      <trkpt lat="46.190065126866102" lon="10.463488809764385">
        <ele>2061.1999999999998</ele>
        <time>2018-07-13T08:02:55Z</time>
      </trkpt>
      <trkpt lat="46.19010946713388" lon="10.463504316285253">
        <ele>2062.1700000000001</ele>
        <time>2018-07-13T08:03:04Z</time>
      </trkpt>
      <trkpt lat="46.190164536237717" lon="10.463533233851194">
        <ele>2063.1300000000001</ele>
        <time>2018-07-13T08:03:17Z</time>
      </trkpt>
      <trkpt lat="46.190204350277781" lon="10.463505405932665">
        <ele>2065.0500000000002</ele>
        <time>2018-07-13T08:03:28Z</time>
      </trkpt>
      <trkpt lat="46.190204517915845" lon="10.463504735380411">
        <ele>2066.4899999999998</ele>
        <time>2018-07-13T08:03:38Z</time>
      </trkpt>
      <trkpt lat="46.190212480723858" lon="10.463471375405788">
        <ele>2068.4099999999999</ele>
        <time>2018-07-13T08:03:50Z</time>
      </trkpt>
      <trkpt lat="46.190186580643058" lon="10.463417395949364">
        <ele>2069.3800000000001</ele>
        <time>2018-07-13T08:04:01Z</time>
      </trkpt>
      <trkpt lat="46.190183395519853" lon="10.463371798396111">
        <ele>2070.8200000000002</ele>
        <time>2018-07-13T08:04:12Z</time>
      </trkpt>
      <trkpt lat="46.190199572592974" lon="10.463328380137682">
        <ele>2072.2600000000002</ele>
        <time>2018-07-13T08:04:23Z</time>
      </trkpt>
      <trkpt lat="46.190215833485126" lon="10.463286722078919">
        <ele>2073.2199999999998</ele>
        <time>2018-07-13T08:04:32Z</time>
      </trkpt>
      <trkpt lat="46.190222706645727" lon="10.463244477286935">
        <ele>2075.1399999999999</ele>
        <time>2018-07-13T08:04:44Z</time>
      </trkpt>
      <trkpt lat="46.190211307257414" lon="10.463201645761728">
        <ele>2076.0999999999999</ele>
        <time>2018-07-13T08:04:54Z</time>
      </trkpt>
      <trkpt lat="46.190204350277781" lon="10.463187647983432">
        <ele>2077.5500000000002</ele>
        <time>2018-07-13T08:04:57Z</time>
      </trkpt>
      <trkpt lat="46.190188843756914" lon="10.463154371827841">
        <ele>2078.5100000000002</ele>
        <time>2018-07-13T08:05:08Z</time>
      </trkpt>
      <trkpt lat="46.190194291993976" lon="10.463114893063903">
        <ele>2079.4699999999998</ele>
        <time>2018-07-13T08:05:17Z</time>
      </trkpt>
      <trkpt lat="46.190269058570266" lon="10.463093183934689">
        <ele>2080.9099999999999</ele>
        <time>2018-07-13T08:05:30Z</time>
      </trkpt>
      <trkpt lat="46.190284481272101" lon="10.463055297732353">
        <ele>2082.8299999999999</ele>
        <time>2018-07-13T08:05:40Z</time>
      </trkpt>
      <trkpt lat="46.190269058570266" lon="10.463022859767079">
        <ele>2083.79</ele>
        <time>2018-07-13T08:05:50Z</time>
      </trkpt>
      <trkpt lat="46.190270986407995" lon="10.462968377396464">
        <ele>2084.7600000000002</ele>
        <time>2018-07-13T08:06:06Z</time>
      </trkpt>
      <trkpt lat="46.190299736335874" lon="10.462895790114999">
        <ele>2086.6799999999998</ele>
        <time>2018-07-13T08:06:17Z</time>
      </trkpt>
      <trkpt lat="46.190312057733536" lon="10.462819263339043">
        <ele>2088.5999999999999</ele>
        <time>2018-07-13T08:06:28Z</time>
      </trkpt>
      <trkpt lat="46.190355392172933" lon="10.462827142328024">
        <ele>2089.5599999999999</ele>
        <time>2018-07-13T08:06:37Z</time>
      </trkpt>
      <trkpt lat="46.190366456285119" lon="10.462852120399475">
        <ele>2090.04</ele>
        <time>2018-07-13T08:06:40Z</time>
      </trkpt>
      <trkpt lat="46.190436528995633" lon="10.462860502302647">
        <ele>2091.4899999999998</ele>
        <time>2018-07-13T08:06:53Z</time>
      </trkpt>
      <trkpt lat="46.190446671098471" lon="10.462862681597471">
        <ele>2093.4099999999999</ele>
        <time>2018-07-13T08:06:58Z</time>
      </trkpt>
      <trkpt lat="46.190497213974595" lon="10.462881457060575">
        <ele>2093.8899999999999</ele>
        <time>2018-07-13T08:07:10Z</time>
      </trkpt>
      <trkpt lat="46.190544571727514" lon="10.462835440412164">
        <ele>2095.8099999999999</ele>
        <time>2018-07-13T08:07:21Z</time>
      </trkpt>
      <trkpt lat="46.190575920045376" lon="10.462845666334033">
        <ele>2097.25</ele>
        <time>2018-07-13T08:07:32Z</time>
      </trkpt>
      <trkpt lat="46.19055463001132" lon="10.462807193398476">
        <ele>2098.21</ele>
        <time>2018-07-13T08:07:42Z</time>
      </trkpt>
      <trkpt lat="46.190546751022339" lon="10.462754890322685">
        <ele>2100.1399999999999</ele>
        <time>2018-07-13T08:07:53Z</time>
      </trkpt>
      <trkpt lat="46.190555971115828" lon="10.462713316082954">
        <ele>2102.0599999999999</ele>
        <time>2018-07-13T08:08:06Z</time>
      </trkpt>
      <trkpt lat="46.190583631396294" lon="10.462759751826525">
        <ele>2103.02</ele>
        <time>2018-07-13T08:08:19Z</time>
      </trkpt>
      <trkpt lat="46.190601149573922" lon="10.462730247527361">
        <ele>2104.46</ele>
        <time>2018-07-13T08:08:29Z</time>
      </trkpt>
      <trkpt lat="46.190619338303804" lon="10.462669394910336">
        <ele>2105.4200000000001</ele>
        <time>2018-07-13T08:08:39Z</time>
      </trkpt>
      <trkpt lat="46.19061715900898" lon="10.462625473737717">
        <ele>2107.3499999999999</ele>
        <time>2018-07-13T08:08:49Z</time>
      </trkpt>
      <trkpt lat="46.190600981935859" lon="10.462618013843894">
        <ele>2109.75</ele>
        <time>2018-07-13T08:08:59Z</time>
      </trkpt>
      <trkpt lat="46.190638365224004" lon="10.462602842599154">
        <ele>2109.75</ele>
        <time>2018-07-13T08:09:12Z</time>
      </trkpt>
      <trkpt lat="46.190629983320832" lon="10.462565291672945">
        <ele>2111.1900000000001</ele>
        <time>2018-07-13T08:09:21Z</time>
      </trkpt>
      <trkpt lat="46.190626211464405" lon="10.462524890899658">
        <ele>2112.6300000000001</ele>
        <time>2018-07-13T08:09:32Z</time>
      </trkpt>
      <trkpt lat="46.190652195364237" lon="10.462470408529043">
        <ele>2113.5999999999999</ele>
        <time>2018-07-13T08:09:40Z</time>
      </trkpt>
      <trkpt lat="46.190684465691447" lon="10.462419781833887">
        <ele>2115.04</ele>
        <time>2018-07-13T08:09:51Z</time>
      </trkpt>
      <trkpt lat="46.190675245597959" lon="10.462389104068279">
        <ele>2116.48</ele>
        <time>2018-07-13T08:10:02Z</time>
      </trkpt>
      <trkpt lat="46.190700475126505" lon="10.462349960580468">
        <ele>2118.4000000000001</ele>
        <time>2018-07-13T08:10:15Z</time>
      </trkpt>
      <trkpt lat="46.190723106265068" lon="10.462332023307681">
        <ele>2119.8400000000001</ele>
        <time>2018-07-13T08:10:27Z</time>
      </trkpt>
      <trkpt lat="46.190707935020328" lon="10.462290532886982">
        <ele>2121.29</ele>
        <time>2018-07-13T08:10:37Z</time>
      </trkpt>
      <trkpt lat="46.190708857029676" lon="10.462244851514697">
        <ele>2122.25</ele>
        <time>2018-07-13T08:10:47Z</time>
      </trkpt>
      <trkpt lat="46.190717658028007" lon="10.462191374972463">
        <ele>2123.21</ele>
        <time>2018-07-13T08:10:57Z</time>
      </trkpt>
      <trkpt lat="46.190726375207305" lon="10.462168492376804">
        <ele>2125.1300000000001</ele>
        <time>2018-07-13T08:11:00Z</time>
      </trkpt>
      <trkpt lat="46.190787982195616" lon="10.462161870673299">
        <ele>2125.1300000000001</ele>
        <time>2018-07-13T08:11:10Z</time>
      </trkpt>
      <trkpt lat="46.190822599455714" lon="10.462152566760778">
        <ele>2126.0900000000001</ele>
        <time>2018-07-13T08:11:19Z</time>
      </trkpt>
      <trkpt lat="46.190808769315481" lon="10.462147705256939">
        <ele>2127.0500000000002</ele>
        <time>2018-07-13T08:11:29Z</time>
      </trkpt>
      <trkpt lat="46.190829556435347" lon="10.462116692215204">
        <ele>2128.02</ele>
        <time>2018-07-13T08:11:40Z</time>
      </trkpt>
      <trkpt lat="46.190848415717483" lon="10.462114261463284">
        <ele>2129.46</ele>
        <time>2018-07-13T08:11:49Z</time>
      </trkpt>
      <trkpt lat="46.190878758206964" lon="10.462121637538075">
        <ele>2130.9000000000001</ele>
        <time>2018-07-13T08:12:00Z</time>
      </trkpt>
      <trkpt lat="46.190882278606296" lon="10.462086852639914">
        <ele>2132.3400000000001</ele>
        <time>2018-07-13T08:12:08Z</time>
      </trkpt>
      <trkpt lat="46.190896360203624" lon="10.462055001407862">
        <ele>2132.8200000000002</ele>
        <time>2018-07-13T08:12:19Z</time>
      </trkpt>
      <trkpt lat="46.190896527841687" lon="10.462083667516708">
        <ele>2132.8200000000002</ele>
        <time>2018-07-13T08:12:32Z</time>
      </trkpt>
      <trkpt lat="46.190888565033674" lon="10.462068160995841">
        <ele>2134.2600000000002</ele>
        <time>2018-07-13T08:12:42Z</time>
      </trkpt>
      <trkpt lat="46.190874986350536" lon="10.462037064135075">
        <ele>2135.71</ele>
        <time>2018-07-13T08:12:53Z</time>
      </trkpt>
      <trkpt lat="46.190878506749868" lon="10.461983503773808">
        <ele>2138.1100000000001</ele>
        <time>2018-07-13T08:13:01Z</time>
      </trkpt>
      <trkpt lat="46.190890073776245" lon="10.461928267031908">
        <ele>2139.0700000000002</ele>
        <time>2018-07-13T08:13:13Z</time>
      </trkpt>
      <trkpt lat="46.190910274162889" lon="10.461893482133746">
        <ele>2140.5100000000002</ele>
        <time>2018-07-13T08:13:23Z</time>
      </trkpt>
      <trkpt lat="46.190913794562221" lon="10.461840508505702">
        <ele>2141.4699999999998</ele>
        <time>2018-07-13T08:13:33Z</time>
      </trkpt>
      <trkpt lat="46.190928798168898" lon="10.461830450221896">
        <ele>2142.9200000000001</ele>
        <time>2018-07-13T08:13:42Z</time>
      </trkpt>
      <trkpt lat="46.190928295254707" lon="10.461755599826574">
        <ele>2144.3600000000001</ele>
        <time>2018-07-13T08:13:53Z</time>
      </trkpt>
      <trkpt lat="46.190947657451034" lon="10.461713774129748">
        <ele>2145.8000000000002</ele>
        <time>2018-07-13T08:14:04Z</time>
      </trkpt>
      <trkpt lat="46.190938772633672" lon="10.461699524894357">
        <ele>2146.7600000000002</ele>
        <time>2018-07-13T08:14:13Z</time>
      </trkpt>
      <trkpt lat="46.190946148708463" lon="10.461660716682673">
        <ele>2148.1999999999998</ele>
        <time>2018-07-13T08:14:23Z</time>
      </trkpt>
      <trkpt lat="46.190943466499448" lon="10.461622579023242">
        <ele>2149.6500000000001</ele>
        <time>2018-07-13T08:14:32Z</time>
      </trkpt>
      <trkpt lat="46.190963499248028" lon="10.461602378636599">
        <ele>2150.6100000000001</ele>
        <time>2018-07-13T08:14:42Z</time>
      </trkpt>
      <trkpt lat="46.190896695479751" lon="10.461732046678662">
        <ele>2152.0500000000002</ele>
        <time>2018-07-13T08:14:51Z</time>
      </trkpt>
      <trkpt lat="46.190725201740861" lon="10.46196648851037">
        <ele>2152.5300000000002</ele>
        <time>2018-07-13T08:15:00Z</time>
      </trkpt>
      <trkpt lat="46.190712545067072" lon="10.461939331144094">
        <ele>2153.9699999999998</ele>
        <time>2018-07-13T08:15:12Z</time>
      </trkpt>
      <trkpt lat="46.190690081566572" lon="10.461926674470305">
        <ele>2155.4099999999999</ele>
        <time>2018-07-13T08:15:24Z</time>
      </trkpt>
      <trkpt lat="46.190700810402632" lon="10.461899852380157">
        <ele>2155.8899999999999</ele>
        <time>2018-07-13T08:15:34Z</time>
      </trkpt>
      <trkpt lat="46.190704917535186" lon="10.461863055825233">
        <ele>2157.8200000000002</ele>
        <time>2018-07-13T08:15:44Z</time>
      </trkpt>
      <trkpt lat="46.190688656643033" lon="10.46184285543859">
        <ele>2158.7800000000002</ele>
        <time>2018-07-13T08:15:55Z</time>
      </trkpt>
      <trkpt lat="46.19066652841866" lon="10.461838245391846">
        <ele>2159.7399999999998</ele>
        <time>2018-07-13T08:16:06Z</time>
      </trkpt>
      <trkpt lat="46.190666193142533" lon="10.461814273148775">
        <ele>2160.6999999999998</ele>
        <time>2018-07-13T08:16:18Z</time>
      </trkpt>
      <trkpt lat="46.190696787089109" lon="10.461817709729075">
        <ele>2162.1399999999999</ele>
        <time>2018-07-13T08:16:28Z</time>
      </trkpt>
      <trkpt lat="46.190702989697456" lon="10.461793905124068">
        <ele>2163.0999999999999</ele>
        <time>2018-07-13T08:16:37Z</time>
      </trkpt>
      <trkpt lat="46.190697038546205" lon="10.461785942316055">
        <ele>2163.5799999999999</ele>
        <time>2018-07-13T08:16:48Z</time>
      </trkpt>
      <trkpt lat="46.190707599744201" lon="10.46174461953342">
        <ele>2165.0300000000002</ele>
        <time>2018-07-13T08:17:00Z</time>
      </trkpt>
      <trkpt lat="46.190726542845368" lon="10.461742440238595">
        <ele>2166.4699999999998</ele>
        <time>2018-07-13T08:17:11Z</time>
      </trkpt>
      <trkpt lat="46.190757052972913" lon="10.461725424975157">
        <ele>2167.9099999999999</ele>
        <time>2018-07-13T08:17:21Z</time>
      </trkpt>
      <trkpt lat="46.190765518695116" lon="10.461680581793189">
        <ele>2169.3499999999999</ele>
        <time>2018-07-13T08:17:31Z</time>
      </trkpt>
      <trkpt lat="46.190767362713814" lon="10.461651077494025">
        <ele>2170.3099999999999</ele>
        <time>2018-07-13T08:17:40Z</time>
      </trkpt>
      <trkpt lat="46.190743977203965" lon="10.461599193513393">
        <ele>2171.27</ele>
        <time>2018-07-13T08:17:52Z</time>
      </trkpt>
      <trkpt lat="46.190750012174249" lon="10.461556781083345">
        <ele>2172.7199999999998</ele>
        <time>2018-07-13T08:18:01Z</time>
      </trkpt>
      <trkpt lat="46.190777504816651" lon="10.461492575705051">
        <ele>2173.6799999999998</ele>
        <time>2018-07-13T08:18:12Z</time>
      </trkpt>
      <trkpt lat="46.190801979973912" lon="10.461464496329427">
        <ele>2174.6399999999999</ele>
        <time>2018-07-13T08:18:22Z</time>
      </trkpt>
      <trkpt lat="46.190814133733511" lon="10.461387047544122">
        <ele>2176.0799999999999</ele>
        <time>2018-07-13T08:18:34Z</time>
      </trkpt>
      <trkpt lat="46.190813798457384" lon="10.461329044774175">
        <ele>2177.04</ele>
        <time>2018-07-13T08:18:46Z</time>
      </trkpt>
      <trkpt lat="46.190837770700455" lon="10.461258720606565">
        <ele>2178.48</ele>
        <time>2018-07-13T08:18:56Z</time>
      </trkpt>
      <trkpt lat="46.190852858126163" lon="10.461182193830609">
        <ele>2179.9299999999998</ele>
        <time>2018-07-13T08:19:10Z</time>
      </trkpt>
      <trkpt lat="46.190852103754878" lon="10.461108852177858">
        <ele>2180.8899999999999</ele>
        <time>2018-07-13T08:19:20Z</time>
      </trkpt>
      <trkpt lat="46.190851097926497" lon="10.461059901863337">
        <ele>2182.8099999999999</ele>
        <time>2018-07-13T08:19:30Z</time>
      </trkpt>
      <trkpt lat="46.190857468172908" lon="10.461016986519098">
        <ele>2183.77</ele>
        <time>2018-07-13T08:19:40Z</time>
      </trkpt>
      <trkpt lat="46.190868280827999" lon="10.460992176085711">
        <ele>2184.73</ele>
        <time>2018-07-13T08:19:49Z</time>
      </trkpt>
      <trkpt lat="46.190872890874743" lon="10.460960073396564">
        <ele>2186.1799999999998</ele>
        <time>2018-07-13T08:20:02Z</time>
      </trkpt>
      <trkpt lat="46.190861910581589" lon="10.460982033982873">
        <ele>2186.6599999999999</ele>
        <time>2018-07-13T08:20:12Z</time>
      </trkpt>
      <trkpt lat="46.190853109583259" lon="10.460948925465345">
        <ele>2187.6199999999999</ele>
        <time>2018-07-13T08:20:22Z</time>
      </trkpt>
      <trkpt lat="46.190852606669068" lon="10.460919253528118">
        <ele>2188.5799999999999</ele>
        <time>2018-07-13T08:20:32Z</time>
      </trkpt>
      <trkpt lat="46.190854031592607" lon="10.460909279063344">
        <ele>2189.54</ele>
        <time>2018-07-13T08:20:47Z</time>
      </trkpt>
      <trkpt lat="46.190853780135512" lon="10.460875248536468">
        <ele>2190.5</ele>
        <time>2018-07-13T08:20:57Z</time>
      </trkpt>
      <trkpt lat="46.190875908359885" lon="10.460846414789557">
        <ele>2191.9400000000001</ele>
        <time>2018-07-13T08:21:09Z</time>
      </trkpt>
      <trkpt lat="46.190879931673408" lon="10.460830489173532">
        <ele>2192.4200000000001</ele>
        <time>2018-07-13T08:21:21Z</time>
      </trkpt>
      <trkpt lat="46.190871046856046" lon="10.460821017622948">
        <ele>2194.3499999999999</ele>
        <time>2018-07-13T08:21:31Z</time>
      </trkpt>
      <trkpt lat="46.190872052684426" lon="10.460765110328794">
        <ele>2196.27</ele>
        <time>2018-07-13T08:21:42Z</time>
      </trkpt>
      <trkpt lat="46.190919326618314" lon="10.460769971832633">
        <ele>2197.23</ele>
        <time>2018-07-13T08:21:51Z</time>
      </trkpt>
      <trkpt lat="46.190946651622653" lon="10.460770390927792">
        <ele>2198.1900000000001</ele>
        <time>2018-07-13T08:22:00Z</time>
      </trkpt>
      <trkpt lat="46.190928379073739" lon="10.460734935477376">
        <ele>2199.6300000000001</ele>
        <time>2018-07-13T08:22:10Z</time>
      </trkpt>
      <trkpt lat="46.190960817039013" lon="10.46072973869741">
        <ele>2200.5900000000001</ele>
        <time>2018-07-13T08:22:20Z</time>
      </trkpt>
      <trkpt lat="46.190980933606625" lon="10.460705179721117">
        <ele>2202.04</ele>
        <time>2018-07-13T08:22:29Z</time>
      </trkpt>
      <trkpt lat="46.191011192277074" lon="10.460687158629298">
        <ele>2203.48</ele>
        <time>2018-07-13T08:22:40Z</time>
      </trkpt>
      <trkpt lat="46.191029967740178" lon="10.460663102567196">
        <ele>2204.4400000000001</ele>
        <time>2018-07-13T08:22:49Z</time>
      </trkpt>
      <trkpt lat="46.191043965518475" lon="10.460641561076045">
        <ele>2205.8800000000001</ele>
        <time>2018-07-13T08:22:59Z</time>
      </trkpt>
      <trkpt lat="46.191030805930495" lon="10.460618594661355">
        <ele>2206.3600000000001</ele>
        <time>2018-07-13T08:23:08Z</time>
      </trkpt>
      <trkpt lat="46.191021837294102" lon="10.460587665438652">
        <ele>2207.8099999999999</ele>
        <time>2018-07-13T08:23:18Z</time>
      </trkpt>
      <trkpt lat="46.191023094579577" lon="10.460550785064697">
        <ele>2208.77</ele>
        <time>2018-07-13T08:23:30Z</time>
      </trkpt>
      <trkpt lat="46.1910305544734" lon="10.460517089813948">
        <ele>2209.25</ele>
        <time>2018-07-13T08:23:40Z</time>
      </trkpt>
      <trkpt lat="46.19101588614285" lon="10.460522118955851">
        <ele>2209.73</ele>
        <time>2018-07-13T08:23:51Z</time>
      </trkpt>
      <trkpt lat="46.191013203933835" lon="10.460515413433313">
        <ele>2210.6900000000001</ele>
        <time>2018-07-13T08:24:03Z</time>
      </trkpt>
      <trkpt lat="46.191017478704453" lon="10.460511473938823">
        <ele>2210.6900000000001</ele>
        <time>2018-07-13T08:24:05Z</time>
      </trkpt>
      <trkpt lat="46.191053856164217" lon="10.460454141721129">
        <ele>2211.6500000000001</ele>
        <time>2018-07-13T08:24:15Z</time>
      </trkpt>
      <trkpt lat="46.191052012145519" lon="10.460485573858023">
        <ele>2212.1300000000001</ele>
        <time>2018-07-13T08:24:36Z</time>
      </trkpt>
      <trkpt lat="46.191060477867723" lon="10.460468055680394">
        <ele>2210.6900000000001</ele>
        <time>2018-07-13T08:24:48Z</time>
      </trkpt>
      <trkpt lat="46.191086377948523" lon="10.46046051196754">
        <ele>2210.21</ele>
        <time>2018-07-13T08:25:05Z</time>
      </trkpt>
      <trkpt lat="46.191117390990257" lon="10.460460176691413">
        <ele>2210.6900000000001</ele>
        <time>2018-07-13T08:25:28Z</time>
      </trkpt>
      <trkpt lat="46.191092664375901" lon="10.460457829758525">
        <ele>2210.6900000000001</ele>
        <time>2018-07-13T08:25:53Z</time>
      </trkpt>
      <trkpt lat="46.191066009923816" lon="10.460442071780562">
        <ele>2210.6900000000001</ele>
        <time>2018-07-13T08:26:17Z</time>
      </trkpt>
      <trkpt lat="46.191111691296101" lon="10.460459673777223">
        <ele>2211.1700000000001</ele>
        <time>2018-07-13T08:26:41Z</time>
      </trkpt>
      <trkpt lat="46.191101549193263" lon="10.460460344329476">
        <ele>2211.1700000000001</ele>
        <time>2018-07-13T08:27:15Z</time>
      </trkpt>
      <trkpt lat="46.191107667982578" lon="10.460452549159527">
        <ele>2211.6500000000001</ele>
        <time>2018-07-13T08:27:42Z</time>
      </trkpt>
      <trkpt lat="46.191123928874731" lon="10.46048741787672">
        <ele>2211.6500000000001</ele>
        <time>2018-07-13T08:27:55Z</time>
      </trkpt>
      <trkpt lat="46.191174471750855" lon="10.460489597171545">
        <ele>2211.6500000000001</ele>
        <time>2018-07-13T08:28:23Z</time>
      </trkpt>
      <trkpt lat="46.191129712387919" lon="10.460475264117122">
        <ele>2212.1300000000001</ele>
        <time>2018-07-13T08:28:51Z</time>
      </trkpt>
      <trkpt lat="46.191101968288422" lon="10.460486244410276">
        <ele>2212.1300000000001</ele>
        <time>2018-07-13T08:29:05Z</time>
      </trkpt>
      <trkpt lat="46.191100375726819" lon="10.460475264117122">
        <ele>2212.6100000000001</ele>
        <time>2018-07-13T08:29:30Z</time>
      </trkpt>
      <trkpt lat="46.191073972731829" lon="10.460460847243667">
        <ele>2212.1300000000001</ele>
        <time>2018-07-13T08:29:56Z</time>
      </trkpt>
      <trkpt lat="46.191095849499106" lon="10.460470570251346">
        <ele>2212.6100000000001</ele>
        <time>2018-07-13T08:30:30Z</time>
      </trkpt>
      <trkpt lat="46.191096184775233" lon="10.460473168641329">
        <ele>2212.6100000000001</ele>
        <time>2018-07-13T08:31:04Z</time>
      </trkpt>
      <trkpt lat="46.191087802872062" lon="10.460449364036322">
        <ele>2212.6100000000001</ele>
        <time>2018-07-13T08:31:28Z</time>
      </trkpt>
      <trkpt lat="46.191134657710791" lon="10.460472917184234">
        <ele>2213.0900000000001</ele>
        <time>2018-07-13T08:32:03Z</time>
      </trkpt>
      <trkpt lat="46.191113786771894" lon="10.460452632978559">
        <ele>2213.0900000000001</ele>
        <time>2018-07-13T08:32:31Z</time>
      </trkpt>
      <trkpt lat="46.191086545586586" lon="10.460435030981898">
        <ele>2213.0900000000001</ele>
        <time>2018-07-13T08:32:54Z</time>
      </trkpt>
      <trkpt lat="46.191077660769224" lon="10.460429834201932">
        <ele>2213.5700000000002</ele>
        <time>2018-07-13T08:33:18Z</time>
      </trkpt>
      <trkpt lat="46.191074224188924" lon="10.460437210276723">
        <ele>2213.0900000000001</ele>
        <time>2018-07-13T08:33:42Z</time>
      </trkpt>
      <trkpt lat="46.191094005480409" lon="10.460430085659027">
        <ele>2213.0900000000001</ele>
        <time>2018-07-13T08:34:10Z</time>
      </trkpt>
      <trkpt lat="46.191077325493097" lon="10.460444670170546">
        <ele>2213.0900000000001</ele>
        <time>2018-07-13T08:34:30Z</time>
      </trkpt>
      <trkpt lat="46.191081013530493" lon="10.460450788959861">
        <ele>2213.0900000000001</ele>
        <time>2018-07-13T08:34:48Z</time>
      </trkpt>
      <trkpt lat="46.191064585000277" lon="10.460466714575887">
        <ele>2213.0900000000001</ele>
        <time>2018-07-13T08:35:13Z</time>
      </trkpt>
      <trkpt lat="46.191066512838006" lon="10.46047031879425">
        <ele>2213.0900000000001</ele>
        <time>2018-07-13T08:35:40Z</time>
      </trkpt>
      <trkpt lat="46.191082522273064" lon="10.460469983518124">
        <ele>2213.5700000000002</ele>
        <time>2018-07-13T08:36:06Z</time>
      </trkpt>
      <trkpt lat="46.191057795658708" lon="10.460469732061028">
        <ele>2213.5700000000002</ele>
        <time>2018-07-13T08:36:22Z</time>
      </trkpt>
      <trkpt lat="46.191025776788592" lon="10.460485406219959">
        <ele>2213.5700000000002</ele>
        <time>2018-07-13T08:36:42Z</time>
      </trkpt>
      <trkpt lat="46.191023597493768" lon="10.460484903305769">
        <ele>2214.0500000000002</ele>
        <time>2018-07-13T08:36:55Z</time>
      </trkpt>
      <trkpt lat="46.191043211147189" lon="10.460475347936153">
        <ele>2214.5300000000002</ele>
        <time>2018-07-13T08:37:02Z</time>
      </trkpt>
      <trkpt lat="46.191060394048691" lon="10.46048691496253">
        <ele>2214.0500000000002</ele>
        <time>2018-07-13T08:37:15Z</time>
      </trkpt>
      <trkpt lat="46.191058047115803" lon="10.460508121177554">
        <ele>2214.5300000000002</ele>
        <time>2018-07-13T08:37:25Z</time>
      </trkpt>
      <trkpt lat="46.191085875034332" lon="10.460532428696752">
        <ele>2214.5300000000002</ele>
        <time>2018-07-13T08:37:42Z</time>
      </trkpt>
      <trkpt lat="46.191071458160877" lon="10.460544498637319">
        <ele>2214.5300000000002</ele>
        <time>2018-07-13T08:38:01Z</time>
      </trkpt>
      <trkpt lat="46.191042875871062" lon="10.460553048178554">
        <ele>2214.5300000000002</ele>
        <time>2018-07-13T08:38:19Z</time>
      </trkpt>
      <trkpt lat="46.191031979396939" lon="10.460564699023962">
        <ele>2214.5300000000002</ele>
        <time>2018-07-13T08:38:33Z</time>
      </trkpt>
      <trkpt lat="46.190997613593936" lon="10.460551958531141">
        <ele>2215.0100000000002</ele>
        <time>2018-07-13T08:38:46Z</time>
      </trkpt>
      <trkpt lat="46.190938437357545" lon="10.460514994338155">
        <ele>2215.0100000000002</ele>
        <time>2018-07-13T08:38:57Z</time>
      </trkpt>
      <trkpt lat="46.19091865606606" lon="10.460477443411946">
        <ele>2217.4200000000001</ele>
        <time>2018-07-13T08:39:10Z</time>
      </trkpt>
      <trkpt lat="46.190875237807631" lon="10.460500326007605">
        <ele>2216.9400000000001</ele>
        <time>2018-07-13T08:39:18Z</time>
      </trkpt>
      <trkpt lat="46.190833328291774" lon="10.460518095642328">
        <ele>2217.9000000000001</ele>
        <time>2018-07-13T08:39:27Z</time>
      </trkpt>
      <trkpt lat="46.19081312790513" lon="10.460510468110442">
        <ele>2218.3800000000001</ele>
        <time>2018-07-13T08:39:36Z</time>
      </trkpt>
      <trkpt lat="46.190783120691776" lon="10.460528237745166">
        <ele>2219.8200000000002</ele>
        <time>2018-07-13T08:39:48Z</time>
      </trkpt>
      <trkpt lat="46.190752862021327" lon="10.460558077320457">
        <ele>2220.7800000000002</ele>
        <time>2018-07-13T08:39:57Z</time>
      </trkpt>
      <trkpt lat="46.1907300632447" lon="10.460561010986567">
        <ele>2222.2199999999998</ele>
        <time>2018-07-13T08:40:07Z</time>
      </trkpt>
      <trkpt lat="46.190695613622665" lon="10.460577439516783">
        <ele>2223.6700000000001</ele>
        <time>2018-07-13T08:40:16Z</time>
      </trkpt>
      <trkpt lat="46.190661750733852" lon="10.460588671267033">
        <ele>2224.6300000000001</ele>
        <time>2018-07-13T08:40:26Z</time>
      </trkpt>
      <trkpt lat="46.190604334697127" lon="10.460605770349503">
        <ele>2226.0700000000002</ele>
        <time>2018-07-13T08:40:38Z</time>
      </trkpt>
      <trkpt lat="46.19056636467576" lon="10.460620941594243">
        <ele>2227.5100000000002</ele>
        <time>2018-07-13T08:40:49Z</time>
      </trkpt>
      <trkpt lat="46.19053996168077" lon="10.460638543590903">
        <ele>2227.9899999999998</ele>
        <time>2018-07-13T08:40:58Z</time>
      </trkpt>
      <trkpt lat="46.190520264208317" lon="10.460654050111771">
        <ele>2227.9899999999998</ele>
        <time>2018-07-13T08:41:01Z</time>
      </trkpt>
      <trkpt lat="46.190460417419672" lon="10.46062764711678">
        <ele>2228.4699999999998</ele>
        <time>2018-07-13T08:41:11Z</time>
      </trkpt>
      <trkpt lat="46.190428147092462" lon="10.460589760914445">
        <ele>2229.9200000000001</ele>
        <time>2018-07-13T08:41:21Z</time>
      </trkpt>
      <trkpt lat="46.190391853451729" lon="10.460615744814277">
        <ele>2229.9200000000001</ele>
        <time>2018-07-13T08:41:31Z</time>
      </trkpt>
      <trkpt lat="46.190365198999643" lon="10.460587916895747">
        <ele>2230.8800000000001</ele>
        <time>2018-07-13T08:41:42Z</time>
      </trkpt>
      <trkpt lat="46.19035379961133" lon="10.460532680153847">
        <ele>2232.3200000000002</ele>
        <time>2018-07-13T08:41:51Z</time>
      </trkpt>
      <trkpt lat="46.190333180129528" lon="10.46048741787672">
        <ele>2232.8000000000002</ele>
        <time>2018-07-13T08:42:01Z</time>
      </trkpt>
      <trkpt lat="46.190284648910165" lon="10.460482640191913">
        <ele>2233.7600000000002</ele>
        <time>2018-07-13T08:42:10Z</time>
      </trkpt>
      <trkpt lat="46.190223544836044" lon="10.460485406219959">
        <ele>2234.2399999999998</ele>
        <time>2018-07-13T08:42:18Z</time>
      </trkpt>
      <trkpt lat="46.190183060243726" lon="10.460478449240327">
        <ele>2235.1999999999998</ele>
        <time>2018-07-13T08:42:29Z</time>
      </trkpt>
      <trkpt lat="46.190168811008334" lon="10.460450705140829">
        <ele>2235.1999999999998</ele>
        <time>2018-07-13T08:42:40Z</time>
      </trkpt>
      <trkpt lat="46.190192447975278" lon="10.460425391793251">
        <ele>2235.6799999999998</ele>
        <time>2018-07-13T08:42:55Z</time>
      </trkpt>
      <trkpt lat="46.19017300195992" lon="10.460425475612283">
        <ele>2236.1599999999999</ele>
        <time>2018-07-13T08:43:07Z</time>
      </trkpt>
      <trkpt lat="46.19015590287745" lon="10.460375687107444">
        <ele>2238.0900000000001</ele>
        <time>2018-07-13T08:43:16Z</time>
      </trkpt>
      <trkpt lat="46.190127907320857" lon="10.46035448089242">
        <ele>2239.5300000000002</ele>
        <time>2018-07-13T08:43:25Z</time>
      </trkpt>
      <trkpt lat="46.190181048586965" lon="10.460313158109784">
        <ele>2240.4899999999998</ele>
        <time>2018-07-13T08:43:35Z</time>
      </trkpt>
      <trkpt lat="46.190191023051739" lon="10.460281893610954">
        <ele>2241.4499999999998</ele>
        <time>2018-07-13T08:43:45Z</time>
      </trkpt>
      <trkpt lat="46.19016956537962" lon="10.460272589698434">
        <ele>2242.8899999999999</ele>
        <time>2018-07-13T08:43:56Z</time>
      </trkpt>
      <trkpt lat="46.190167553722858" lon="10.460223974660039">
        <ele>2243.8499999999999</ele>
        <time>2018-07-13T08:44:07Z</time>
      </trkpt>
      <trkpt lat="46.1901636980474" lon="10.460193213075399">
        <ele>2245.7800000000002</ele>
        <time>2018-07-13T08:44:20Z</time>
      </trkpt>
      <trkpt lat="46.190124722197652" lon="10.46021131798625">
        <ele>2247.6999999999998</ele>
        <time>2018-07-13T08:44:30Z</time>
      </trkpt>
      <trkpt lat="46.190097983926535" lon="10.460192542523146">
        <ele>2248.6599999999999</ele>
        <time>2018-07-13T08:44:40Z</time>
      </trkpt>
      <trkpt lat="46.190054146572948" lon="10.460207546129823">
        <ele>2249.6199999999999</ele>
        <time>2018-07-13T08:44:49Z</time>
      </trkpt>
      <trkpt lat="46.19002154096961" lon="10.460223304107785">
        <ele>2249.1399999999999</ele>
        <time>2018-07-13T08:44:58Z</time>
      </trkpt>
      <trkpt lat="46.189991449937224" lon="10.46020058915019">
        <ele>2249.6199999999999</ele>
        <time>2018-07-13T08:45:08Z</time>
      </trkpt>
      <trkpt lat="46.190000837668777" lon="10.460149459540844">
        <ele>2249.6199999999999</ele>
        <time>2018-07-13T08:45:25Z</time>
      </trkpt>
      <trkpt lat="46.190008884295821" lon="10.460152393206954">
        <ele>2250.0999999999999</ele>
        <time>2018-07-13T08:45:41Z</time>
      </trkpt>
      <trkpt lat="46.190013159066439" lon="10.46016488224268">
        <ele>2250.0999999999999</ele>
        <time>2018-07-13T08:45:56Z</time>
      </trkpt>
      <trkpt lat="46.190013494342566" lon="10.460170079022646">
        <ele>2250.5799999999999</ele>
        <time>2018-07-13T08:46:09Z</time>
      </trkpt>
      <trkpt lat="46.18998340331018" lon="10.460234368219972">
        <ele>2251.0599999999999</ele>
        <time>2018-07-13T08:46:21Z</time>
      </trkpt>
      <trkpt lat="46.189954401925206" lon="10.460193548351526">
        <ele>2252.5100000000002</ele>
        <time>2018-07-13T08:46:31Z</time>
      </trkpt>
      <trkpt lat="46.189931267872453" lon="10.460187932476401">
        <ele>2253.9499999999998</ele>
        <time>2018-07-13T08:46:42Z</time>
      </trkpt>
      <trkpt lat="46.189910983666778" lon="10.460147112607956">
        <ele>2255.3899999999999</ele>
        <time>2018-07-13T08:46:54Z</time>
      </trkpt>
      <trkpt lat="46.189893130213022" lon="10.460133785381913">
        <ele>2256.8299999999999</ele>
        <time>2018-07-13T08:47:06Z</time>
      </trkpt>
      <trkpt lat="46.189868152141571" lon="10.460156919434667">
        <ele>2258.27</ele>
        <time>2018-07-13T08:47:16Z</time>
      </trkpt>
      <trkpt lat="46.189832864329219" lon="10.460172425955534">
        <ele>2259.2399999999998</ele>
        <time>2018-07-13T08:47:25Z</time>
      </trkpt>
      <trkpt lat="46.189817609265447" lon="10.460095731541514">
        <ele>2260.6799999999998</ele>
        <time>2018-07-13T08:47:36Z</time>
      </trkpt>
      <trkpt lat="46.189781734719872" lon="10.460058683529496">
        <ele>2261.1599999999999</ele>
        <time>2018-07-13T08:47:47Z</time>
      </trkpt>
      <trkpt lat="46.189810149371624" lon="10.459998669102788">
        <ele>2263.0799999999999</ele>
        <time>2018-07-13T08:47:58Z</time>
      </trkpt>
      <trkpt lat="46.18980604223907" lon="10.459966566413641">
        <ele>2264.04</ele>
        <time>2018-07-13T08:48:08Z</time>
      </trkpt>
      <trkpt lat="46.189773604273796" lon="10.459953071549535">
        <ele>2265.48</ele>
        <time>2018-07-13T08:48:18Z</time>
      </trkpt>
      <trkpt lat="46.189753487706184" lon="10.459909485653043">
        <ele>2266.4499999999998</ele>
        <time>2018-07-13T08:48:28Z</time>
      </trkpt>
      <trkpt lat="46.189763797447085" lon="10.459871683269739">
        <ele>2267.8899999999999</ele>
        <time>2018-07-13T08:48:38Z</time>
      </trkpt>
      <trkpt lat="46.189761953428388" lon="10.459823571145535">
        <ele>2268.3699999999999</ele>
        <time>2018-07-13T08:48:47Z</time>
      </trkpt>
      <trkpt lat="46.189777459949255" lon="10.459770848974586">
        <ele>2269.8099999999999</ele>
        <time>2018-07-13T08:48:58Z</time>
      </trkpt>
      <trkpt lat="46.189784752205014" lon="10.459738578647375">
        <ele>2270.77</ele>
        <time>2018-07-13T08:49:05Z</time>
      </trkpt>
      <trkpt lat="46.189795061945915" lon="10.459706475958228">
        <ele>2271.73</ele>
        <time>2018-07-13T08:49:13Z</time>
      </trkpt>
      <trkpt lat="46.189820375293493" lon="10.459688790142536">
        <ele>2272.6900000000001</ele>
        <time>2018-07-13T08:49:21Z</time>
      </trkpt>
      <trkpt lat="46.189822722226381" lon="10.459660543128848">
        <ele>2273.6599999999999</ele>
        <time>2018-07-13T08:49:30Z</time>
      </trkpt>
      <trkpt lat="46.189807299524546" lon="10.459622154012322">
        <ele>2275.0999999999999</ele>
        <time>2018-07-13T08:49:40Z</time>
      </trkpt>
      <trkpt lat="46.189850047230721" lon="10.459612850099802">
        <ele>2275.5799999999999</ele>
        <time>2018-07-13T08:49:50Z</time>
      </trkpt>
      <trkpt lat="46.189879635348916" lon="10.459582842886448">
        <ele>2276.0599999999999</ele>
        <time>2018-07-13T08:49:59Z</time>
      </trkpt>
      <trkpt lat="46.189916264265776" lon="10.45956146903336">
        <ele>2276.0599999999999</ele>
        <time>2018-07-13T08:50:09Z</time>
      </trkpt>
      <trkpt lat="46.189913665875793" lon="10.45953556895256">
        <ele>2277.5</ele>
        <time>2018-07-13T08:50:19Z</time>
      </trkpt>
      <trkpt lat="46.189912492409348" lon="10.459501622244716">
        <ele>2278.46</ele>
        <time>2018-07-13T08:50:27Z</time>
      </trkpt>
      <trkpt lat="46.189930932596326" lon="10.459487205371261">
        <ele>2279.4200000000001</ele>
        <time>2018-07-13T08:50:39Z</time>
      </trkpt>
      <trkpt lat="46.189960353076458" lon="10.459472453221679">
        <ele>2280.3800000000001</ele>
        <time>2018-07-13T08:50:48Z</time>
      </trkpt>
      <trkpt lat="46.189972255378962" lon="10.459450408816338">
        <ele>2281.8299999999999</ele>
        <time>2018-07-13T08:50:56Z</time>
      </trkpt>
      <trkpt lat="46.189998826012015" lon="10.459446217864752">
        <ele>2282.79</ele>
        <time>2018-07-13T08:51:05Z</time>
      </trkpt>
      <trkpt lat="46.190012572333217" lon="10.459410175681114">
        <ele>2284.23</ele>
        <time>2018-07-13T08:51:14Z</time>
      </trkpt>
      <trkpt lat="46.190032521262765" lon="10.459398021921515">
        <ele>2285.1900000000001</ele>
        <time>2018-07-13T08:51:22Z</time>
      </trkpt>
      <trkpt lat="46.190051883459091" lon="10.459384191781282">
        <ele>2286.1500000000001</ele>
        <time>2018-07-13T08:51:29Z</time>
      </trkpt>
      <trkpt lat="46.190089685842395" lon="10.459372792392969">
        <ele>2286.6300000000001</ele>
        <time>2018-07-13T08:51:39Z</time>
      </trkpt>
      <trkpt lat="46.190112987533212" lon="10.459355190396309">
        <ele>2288.5599999999999</ele>
        <time>2018-07-13T08:51:50Z</time>
      </trkpt>
      <trkpt lat="46.19013587012887" lon="10.45935376547277">
        <ele>2289.52</ele>
        <time>2018-07-13T08:51:58Z</time>
      </trkpt>
      <trkpt lat="46.190160429105163" lon="10.459354855120182">
        <ele>2290.48</ele>
        <time>2018-07-13T08:52:08Z</time>
      </trkpt>
      <trkpt lat="46.190171157941222" lon="10.459360722452402">
        <ele>2291.4400000000001</ele>
        <time>2018-07-13T08:52:17Z</time>
      </trkpt>
      <trkpt lat="46.190213318914175" lon="10.459345551207662">
        <ele>2292.8800000000001</ele>
        <time>2018-07-13T08:52:26Z</time>
      </trkpt>
      <trkpt lat="46.190242068842053" lon="10.459336582571268">
        <ele>2293.8400000000001</ele>
        <time>2018-07-13T08:52:35Z</time>
      </trkpt>
      <trkpt lat="46.190269729122519" lon="10.459308670833707">
        <ele>2295.2800000000002</ele>
        <time>2018-07-13T08:52:45Z</time>
      </trkpt>
      <trkpt lat="46.190286241471767" lon="10.459286123514175">
        <ele>2296.25</ele>
        <time>2018-07-13T08:52:56Z</time>
      </trkpt>
      <trkpt lat="46.190292276442051" lon="10.459270868450403">
        <ele>2297.21</ele>
        <time>2018-07-13T08:53:01Z</time>
      </trkpt>
      <trkpt lat="46.19031080044806" lon="10.459225354716182">
        <ele>2298.1700000000001</ele>
        <time>2018-07-13T08:53:10Z</time>
      </trkpt>
      <trkpt lat="46.190367043018341" lon="10.459203394129872">
        <ele>2299.6100000000001</ele>
        <time>2018-07-13T08:53:21Z</time>
      </trkpt>
      <trkpt lat="46.190411299467087" lon="10.459185289219022">
        <ele>2300.5700000000002</ele>
        <time>2018-07-13T08:53:32Z</time>
      </trkpt>
      <trkpt lat="46.190434265881777" lon="10.459177410230041">
        <ele>2301.5300000000002</ele>
        <time>2018-07-13T08:53:41Z</time>
      </trkpt>
      <trkpt lat="46.190444407984614" lon="10.459186043590307">
        <ele>2302.0100000000002</ele>
        <time>2018-07-13T08:53:51Z</time>
      </trkpt>
      <trkpt lat="46.190468212589622" lon="10.459194425493479">
        <ele>2302.0100000000002</ele>
        <time>2018-07-13T08:54:03Z</time>
      </trkpt>
      <trkpt lat="46.190476678311825" lon="10.459146732464433">
        <ele>2302.4899999999998</ele>
        <time>2018-07-13T08:54:13Z</time>
      </trkpt>
      <trkpt lat="46.190488245338202" lon="10.459098955616355">
        <ele>2304.4200000000001</ele>
        <time>2018-07-13T08:54:24Z</time>
      </trkpt>
      <trkpt lat="46.190500315278769" lon="10.459053190425038">
        <ele>2305.8600000000001</ele>
        <time>2018-07-13T08:54:33Z</time>
      </trkpt>
      <trkpt lat="46.190507272258401" lon="10.459016729146242">
        <ele>2306.3400000000001</ele>
        <time>2018-07-13T08:54:41Z</time>
      </trkpt>
      <trkpt lat="46.190516659989953" lon="10.458992002531886">
        <ele>2307.7800000000002</ele>
        <time>2018-07-13T08:54:50Z</time>
      </trkpt>
      <trkpt lat="46.19052043184638" lon="10.458961492404342">
        <ele>2309.2199999999998</ele>
        <time>2018-07-13T08:55:00Z</time>
      </trkpt>
      <trkpt lat="46.190524371340871" lon="10.458925198763609">
        <ele>2310.6700000000001</ele>
        <time>2018-07-13T08:55:08Z</time>
      </trkpt>
      <trkpt lat="46.19051992893219" lon="10.458900304511189">
        <ele>2311.6300000000001</ele>
        <time>2018-07-13T08:55:16Z</time>
      </trkpt>
      <trkpt lat="46.190533675253391" lon="10.458875494077802">
        <ele>2312.5900000000001</ele>
        <time>2018-07-13T08:55:25Z</time>
      </trkpt>
      <trkpt lat="46.19056242518127" lon="10.458844229578972">
        <ele>2313.5500000000002</ele>
        <time>2018-07-13T08:55:34Z</time>
      </trkpt>
      <trkpt lat="46.19057709351182" lon="10.458806175738573">
        <ele>2314.9899999999998</ele>
        <time>2018-07-13T08:55:42Z</time>
      </trkpt>
      <trkpt lat="46.190576171502471" lon="10.458776336163282">
        <ele>2315.9499999999998</ele>
        <time>2018-07-13T08:55:50Z</time>
      </trkpt>
      <trkpt lat="46.190569968894124" lon="10.458787232637405">
        <ele>2316.9099999999999</ele>
        <time>2018-07-13T08:56:01Z</time>
      </trkpt>
      <trkpt lat="46.190553288906813" lon="10.458785220980644">
        <ele>2317.8800000000001</ele>
        <time>2018-07-13T08:56:15Z</time>
      </trkpt>
      <trkpt lat="46.190562341362238" lon="10.458766613155603">
        <ele>2318.8400000000001</ele>
        <time>2018-07-13T08:56:32Z</time>
      </trkpt>
      <trkpt lat="46.19053652510047" lon="10.458735348656774">
        <ele>2320.2800000000002</ele>
        <time>2018-07-13T08:56:40Z</time>
      </trkpt>
      <trkpt lat="46.190510205924511" lon="10.458740126341581">
        <ele>2321.7199999999998</ele>
        <time>2018-07-13T08:56:51Z</time>
      </trkpt>
      <trkpt lat="46.190471649169922" lon="10.458697210997343">
        <ele>2323.1599999999999</ele>
        <time>2018-07-13T08:57:00Z</time>
      </trkpt>
      <trkpt lat="46.190466620028019" lon="10.458637280389667">
        <ele>2324.6100000000001</ele>
        <time>2018-07-13T08:57:09Z</time>
      </trkpt>
      <trkpt lat="46.190488245338202" lon="10.458604171872139">
        <ele>2326.0500000000002</ele>
        <time>2018-07-13T08:57:18Z</time>
      </trkpt>
      <trkpt lat="46.190507439896464" lon="10.458576511591673">
        <ele>2327.0100000000002</ele>
        <time>2018-07-13T08:57:28Z</time>
      </trkpt>
      <trkpt lat="46.190513642504811" lon="10.458540050312877">
        <ele>2328.4499999999998</ele>
        <time>2018-07-13T08:57:36Z</time>
      </trkpt>
      <trkpt lat="46.190519006922841" lon="10.458527561277151">
        <ele>2329.4099999999999</ele>
        <time>2018-07-13T08:57:45Z</time>
      </trkpt>
      <trkpt lat="46.190514480695128" lon="10.458497973158956">
        <ele>2330.3699999999999</ele>
        <time>2018-07-13T08:57:53Z</time>
      </trkpt>
      <trkpt lat="46.190488832071424" lon="10.458482215180993">
        <ele>2331.3299999999999</ele>
        <time>2018-07-13T08:58:02Z</time>
      </trkpt>
      <trkpt lat="46.190480282530189" lon="10.458470312878489">
        <ele>2332.3000000000002</ele>
        <time>2018-07-13T08:58:08Z</time>
      </trkpt>
      <trkpt lat="46.190469386056066" lon="10.458466792479157">
        <ele>2332.7800000000002</ele>
        <time>2018-07-13T08:58:18Z</time>
      </trkpt>
      <trkpt lat="46.190442312508821" lon="10.4584507830441">
        <ele>2332.7800000000002</ele>
        <time>2018-07-13T08:58:28Z</time>
      </trkpt>
      <trkpt lat="46.190433343872428" lon="10.458366796374321">
        <ele>2333.7399999999998</ele>
        <time>2018-07-13T08:58:39Z</time>
      </trkpt>
      <trkpt lat="46.190421190112829" lon="10.458302339538932">
        <ele>2335.1799999999998</ele>
        <time>2018-07-13T08:58:50Z</time>
      </trkpt>
      <trkpt lat="46.190415741875768" lon="10.458252634853125">
        <ele>2336.1399999999999</ele>
        <time>2018-07-13T08:59:00Z</time>
      </trkpt>
      <trkpt lat="46.190418340265751" lon="10.458234529942274">
        <ele>2336.6199999999999</ele>
        <time>2018-07-13T08:59:08Z</time>
      </trkpt>
      <trkpt lat="46.190466620028019" lon="10.458196559920907">
        <ele>2337.5799999999999</ele>
        <time>2018-07-13T08:59:18Z</time>
      </trkpt>
      <trkpt lat="46.190514732152224" lon="10.45815808698535">
        <ele>2338.0599999999999</ele>
        <time>2018-07-13T08:59:27Z</time>
      </trkpt>
      <trkpt lat="46.190539291128516" lon="10.458144089207053">
        <ele>2339.02</ele>
        <time>2018-07-13T08:59:35Z</time>
      </trkpt>
      <trkpt lat="46.190515318885446" lon="10.458106035366654">
        <ele>2340.4699999999998</ele>
        <time>2018-07-13T08:59:44Z</time>
      </trkpt>
      <trkpt lat="46.190538117662072" lon="10.458072675392032">
        <ele>2341.4299999999998</ele>
        <time>2018-07-13T08:59:53Z</time>
      </trkpt>
      <trkpt lat="46.190536189824343" lon="10.458056163042784">
        <ele>2342.3899999999999</ele>
        <time>2018-07-13T09:00:00Z</time>
      </trkpt>
      <trkpt lat="46.190533088520169" lon="10.458043674007058">
        <ele>2342.8699999999999</ele>
        <time>2018-07-13T09:00:07Z</time>
      </trkpt>
      <trkpt lat="46.190501488745213" lon="10.458025652915239">
        <ele>2344.79</ele>
        <time>2018-07-13T09:00:17Z</time>
      </trkpt>
      <trkpt lat="46.190513810142875" lon="10.457982402294874">
        <ele>2345.27</ele>
        <time>2018-07-13T09:00:25Z</time>
      </trkpt>
      <trkpt lat="46.190501656383276" lon="10.457915179431438">
        <ele>2346.23</ele>
        <time>2018-07-13T09:00:35Z</time>
      </trkpt>
      <trkpt lat="46.190506434068084" lon="10.457871006801724">
        <ele>2346.7199999999998</ele>
        <time>2018-07-13T09:00:46Z</time>
      </trkpt>
      <trkpt lat="46.190499644726515" lon="10.457833204418421">
        <ele>2347.1999999999998</ele>
        <time>2018-07-13T09:00:56Z</time>
      </trkpt>
      <trkpt lat="46.190501740202308" lon="10.457746703177691">
        <ele>2348.1599999999999</ele>
        <time>2018-07-13T09:01:06Z</time>
      </trkpt>
      <trkpt lat="46.190465027466416" lon="10.457738237455487">
        <ele>2349.5999999999999</ele>
        <time>2018-07-13T09:01:16Z</time>
      </trkpt>
      <trkpt lat="46.190423620864749" lon="10.457759695127606">
        <ele>2351.04</ele>
        <time>2018-07-13T09:01:24Z</time>
      </trkpt>
      <trkpt lat="46.19038313627243" lon="10.457774112001061">
        <ele>2352.96</ele>
        <time>2018-07-13T09:01:34Z</time>
      </trkpt>
      <trkpt lat="46.190372323617339" lon="10.457705715671182">
        <ele>2353.9299999999998</ele>
        <time>2018-07-13T09:01:43Z</time>
      </trkpt>
      <trkpt lat="46.190408365800977" lon="10.457621142268181">
        <ele>2354.8899999999999</ele>
        <time>2018-07-13T09:01:54Z</time>
      </trkpt>
      <trkpt lat="46.190438540652394" lon="10.457567414268851">
        <ele>2356.3299999999999</ele>
        <time>2018-07-13T09:02:05Z</time>
      </trkpt>
      <trkpt lat="46.190452622249722" lon="10.457514859735966">
        <ele>2357.29</ele>
        <time>2018-07-13T09:02:17Z</time>
      </trkpt>
      <trkpt lat="46.190455472096801" lon="10.457410253584385">
        <ele>2358.73</ele>
        <time>2018-07-13T09:02:30Z</time>
      </trkpt>
      <trkpt lat="46.190499057993293" lon="10.457351580262184">
        <ele>2359.21</ele>
        <time>2018-07-13T09:02:40Z</time>
      </trkpt>
      <trkpt lat="46.190528897568583" lon="10.457302294671535">
        <ele>2360.6500000000001</ele>
        <time>2018-07-13T09:02:51Z</time>
      </trkpt>
      <trkpt lat="46.190586816519499" lon="10.457275724038482">
        <ele>2362.0999999999999</ele>
        <time>2018-07-13T09:03:02Z</time>
      </trkpt>
      <trkpt lat="46.19059176184237" lon="10.457231551408768">
        <ele>2363.54</ele>
        <time>2018-07-13T09:03:11Z</time>
      </trkpt>
      <trkpt lat="46.190591007471085" lon="10.457192407920957">
        <ele>2364.02</ele>
        <time>2018-07-13T09:03:17Z</time>
      </trkpt>
      <trkpt lat="46.190601820126176" lon="10.457127531990409">
        <ele>2364.98</ele>
        <time>2018-07-13T09:03:27Z</time>
      </trkpt>
      <trkpt lat="46.190617913380265" lon="10.457116886973381">
        <ele>2364.98</ele>
        <time>2018-07-13T09:03:29Z</time>
      </trkpt>
      <trkpt lat="46.190656805410981" lon="10.457066930830479">
        <ele>2365.46</ele>
        <time>2018-07-13T09:03:40Z</time>
      </trkpt>
      <trkpt lat="46.190698966383934" lon="10.456982189789414">
        <ele>2366.4200000000001</ele>
        <time>2018-07-13T09:03:52Z</time>
      </trkpt>
      <trkpt lat="46.190769374370575" lon="10.45692577958107">
        <ele>2366.4200000000001</ele>
        <time>2018-07-13T09:04:05Z</time>
      </trkpt>
      <trkpt lat="46.190788820385933" lon="10.45687347650528">
        <ele>2367.8600000000001</ele>
        <time>2018-07-13T09:04:15Z</time>
      </trkpt>
      <trkpt lat="46.190824024379253" lon="10.456823771819472">
        <ele>2368.8299999999999</ele>
        <time>2018-07-13T09:04:25Z</time>
      </trkpt>
      <trkpt lat="46.190855707973242" lon="10.456787729635835">
        <ele>2370.27</ele>
        <time>2018-07-13T09:04:36Z</time>
      </trkpt>
      <trkpt lat="46.190888397395611" lon="10.456757387146354">
        <ele>2371.71</ele>
        <time>2018-07-13T09:04:46Z</time>
      </trkpt>
      <trkpt lat="46.190960900858045" lon="10.45675135217607">
        <ele>2372.6700000000001</ele>
        <time>2018-07-13T09:04:56Z</time>
      </trkpt>
      <trkpt lat="46.190996188670397" lon="10.456733079627156">
        <ele>2373.6300000000001</ele>
        <time>2018-07-13T09:05:06Z</time>
      </trkpt>
      <trkpt lat="46.191015131771564" lon="10.45670441351831">
        <ele>2375.0700000000002</ele>
        <time>2018-07-13T09:05:16Z</time>
      </trkpt>
      <trkpt lat="46.191029045730829" lon="10.456665186211467">
        <ele>2376.04</ele>
        <time>2018-07-13T09:05:26Z</time>
      </trkpt>
      <trkpt lat="46.191011192277074" lon="10.456650350242853">
        <ele>2377</ele>
        <time>2018-07-13T09:05:35Z</time>
      </trkpt>
      <trkpt lat="46.191020915284753" lon="10.456610955297947">
        <ele>2378.4400000000001</ele>
        <time>2018-07-13T09:05:44Z</time>
      </trkpt>
      <trkpt lat="46.191026028245687" lon="10.456580948084593">
        <ele>2379.4000000000001</ele>
        <time>2018-07-13T09:05:55Z</time>
      </trkpt>
      <trkpt lat="46.191042456775904" lon="10.456563765183091">
        <ele>2380.3600000000001</ele>
        <time>2018-07-13T09:06:04Z</time>
      </trkpt>
      <trkpt lat="46.19106718339026" lon="10.456513725221157">
        <ele>2381.3200000000002</ele>
        <time>2018-07-13T09:06:15Z</time>
      </trkpt>
      <trkpt lat="46.1910564545542" lon="10.45651632361114">
        <ele>2381.3200000000002</ele>
        <time>2018-07-13T09:06:26Z</time>
      </trkpt>
      <trkpt lat="46.191029045730829" lon="10.45648162253201">
        <ele>2383.25</ele>
        <time>2018-07-13T09:06:36Z</time>
      </trkpt>
      <trkpt lat="46.190990405157208" lon="10.456447759643197">
        <ele>2385.1700000000001</ele>
        <time>2018-07-13T09:06:46Z</time>
      </trkpt>
      <trkpt lat="46.190926870331168" lon="10.456442395225167">
        <ele>2386.6100000000001</ele>
        <time>2018-07-13T09:06:59Z</time>
      </trkpt>
      <trkpt lat="46.190894348546863" lon="10.456387493759394">
        <ele>2388.5300000000002</ele>
        <time>2018-07-13T09:07:13Z</time>
      </trkpt>
      <trkpt lat="46.190915387123823" lon="10.456319767981768">
        <ele>2389.9699999999998</ele>
        <time>2018-07-13T09:07:25Z</time>
      </trkpt>
      <trkpt lat="46.190904658287764" lon="10.456290766596794">
        <ele>2391.4200000000001</ele>
        <time>2018-07-13T09:07:36Z</time>
      </trkpt>
      <trkpt lat="46.190901305526495" lon="10.456243492662907">
        <ele>2392.8600000000001</ele>
        <time>2018-07-13T09:07:47Z</time>
      </trkpt>
      <trkpt lat="46.190869705751538" lon="10.456235194578767">
        <ele>2393.3400000000001</ele>
        <time>2018-07-13T09:07:56Z</time>
      </trkpt>
      <trkpt lat="46.19088395498693" lon="10.456186914816499">
        <ele>2394.3000000000002</ele>
        <time>2018-07-13T09:08:06Z</time>
      </trkpt>
      <trkpt lat="46.19088152423501" lon="10.456137210130692">
        <ele>2396.2199999999998</ele>
        <time>2018-07-13T09:08:16Z</time>
      </trkpt>
      <trkpt lat="46.190895605832338" lon="10.456071076914668">
        <ele>2397.6700000000001</ele>
        <time>2018-07-13T09:08:27Z</time>
      </trkpt>
      <trkpt lat="46.190903903916478" lon="10.456036627292633">
        <ele>2398.1500000000001</ele>
        <time>2018-07-13T09:08:38Z</time>
      </trkpt>
      <trkpt lat="46.190897533670068" lon="10.455972673371434">
        <ele>2399.1100000000001</ele>
        <time>2018-07-13T09:08:50Z</time>
      </trkpt>
      <trkpt lat="46.190927792340517" lon="10.455908970907331">
        <ele>2400.0700000000002</ele>
        <time>2018-07-13T09:09:01Z</time>
      </trkpt>
      <trkpt lat="46.190962577238679" lon="10.455827750265598">
        <ele>2401.0300000000002</ele>
        <time>2018-07-13T09:09:11Z</time>
      </trkpt>
      <trkpt lat="46.191047485917807" lon="10.455788355320692">
        <ele>2401.9899999999998</ele>
        <time>2018-07-13T09:09:23Z</time>
      </trkpt>
      <trkpt lat="46.191096184775233" lon="10.455764466896653">
        <ele>2402.9499999999998</ele>
        <time>2018-07-13T09:09:34Z</time>
      </trkpt>
      <trkpt lat="46.191141027957201" lon="10.455766562372446">
        <ele>2402.9499999999998</ele>
        <time>2018-07-13T09:09:44Z</time>
      </trkpt>
      <trkpt lat="46.191171957179904" lon="10.455750552937388">
        <ele>2404.3899999999999</ele>
        <time>2018-07-13T09:09:55Z</time>
      </trkpt>
      <trkpt lat="46.191203976050019" lon="10.455699255689979">
        <ele>2405.8400000000001</ele>
        <time>2018-07-13T09:10:06Z</time>
      </trkpt>
      <trkpt lat="46.191213363781571" lon="10.455654161050916">
        <ele>2406.8000000000002</ele>
        <time>2018-07-13T09:10:16Z</time>
      </trkpt>
      <trkpt lat="46.191223254427314" lon="10.455622980371118">
        <ele>2408.2399999999998</ele>
        <time>2018-07-13T09:10:26Z</time>
      </trkpt>
      <trkpt lat="46.191219985485077" lon="10.455585010349751">
        <ele>2409.6799999999998</ele>
        <time>2018-07-13T09:10:37Z</time>
      </trkpt>
      <trkpt lat="46.191195091232657" lon="10.455569755285978">
        <ele>2411.1199999999999</ele>
        <time>2018-07-13T09:10:47Z</time>
      </trkpt>
      <trkpt lat="46.19116541929543" lon="10.455547878518701">
        <ele>2412.5700000000002</ele>
        <time>2018-07-13T09:10:58Z</time>
      </trkpt>
      <trkpt lat="46.191172460094094" lon="10.455497670918703">
        <ele>2413.5300000000002</ele>
        <time>2018-07-13T09:11:07Z</time>
      </trkpt>
      <trkpt lat="46.191196767613292" lon="10.455462886020541">
        <ele>2414.0100000000002</ele>
        <time>2018-07-13T09:11:17Z</time>
      </trkpt>
      <trkpt lat="46.191189391538501" lon="10.455448888242245">
        <ele>2414.9699999999998</ele>
        <time>2018-07-13T09:11:26Z</time>
      </trkpt>
      <trkpt lat="46.191177992150187" lon="10.455377390608191">
        <ele>2416.8899999999999</ele>
        <time>2018-07-13T09:11:40Z</time>
      </trkpt>
      <trkpt lat="46.191185787320137" lon="10.455345455557108">
        <ele>2417.8499999999999</ele>
        <time>2018-07-13T09:11:47Z</time>
      </trkpt>
      <trkpt lat="46.191212693229318" lon="10.455305138602853">
        <ele>2419.3000000000002</ele>
        <time>2018-07-13T09:11:57Z</time>
      </trkpt>
      <trkpt lat="46.191196516156197" lon="10.455287871882319">
        <ele>2420.2600000000002</ele>
        <time>2018-07-13T09:12:06Z</time>
      </trkpt>
      <trkpt lat="46.191181764006615" lon="10.455265659838915">
        <ele>2420.2600000000002</ele>
        <time>2018-07-13T09:12:10Z</time>
      </trkpt>
      <trkpt lat="46.191164162009954" lon="10.455223582684994">
        <ele>2419.3000000000002</ele>
        <time>2018-07-13T09:12:22Z</time>
      </trkpt>
      <trkpt lat="46.191160976886749" lon="10.455222073942423">
        <ele>2419.7800000000002</ele>
        <time>2018-07-13T09:12:37Z</time>
      </trkpt>
      <trkpt lat="46.191134573891759" lon="10.455178655683994">
        <ele>2419.7800000000002</ele>
        <time>2018-07-13T09:12:45Z</time>
      </trkpt>
      <trkpt lat="46.191108673810959" lon="10.455103637650609">
        <ele>2420.2600000000002</ele>
        <time>2018-07-13T09:12:57Z</time>
      </trkpt>
      <trkpt lat="46.191138597205281" lon="10.455047730356455">
        <ele>2420.7399999999998</ele>
        <time>2018-07-13T09:13:07Z</time>
      </trkpt>
      <trkpt lat="46.191153936088085" lon="10.455093747004867">
        <ele>2419.7800000000002</ele>
        <time>2018-07-13T09:13:19Z</time>
      </trkpt>
      <trkpt lat="46.191145721822977" lon="10.455103805288672">
        <ele>2419.7800000000002</ele>
        <time>2018-07-13T09:13:36Z</time>
      </trkpt>
      <trkpt lat="46.191138932481408" lon="10.455110762268305">
        <ele>2420.2600000000002</ele>
        <time>2018-07-13T09:14:03Z</time>
      </trkpt>
      <trkpt lat="46.191141866147518" lon="10.455107325688004">
        <ele>2420.2600000000002</ele>
        <time>2018-07-13T09:14:31Z</time>
      </trkpt>
      <trkpt lat="46.191153516992927" lon="10.455091400071979">
        <ele>2420.2600000000002</ele>
        <time>2018-07-13T09:15:01Z</time>
      </trkpt>
      <trkpt lat="46.191161898896098" lon="10.455083604902029">
        <ele>2420.2600000000002</ele>
        <time>2018-07-13T09:15:33Z</time>
      </trkpt>
      <trkpt lat="46.191157288849354" lon="10.455077905207872">
        <ele>2419.7800000000002</ele>
        <time>2018-07-13T09:15:49Z</time>
      </trkpt>
      <trkpt lat="46.191153852269053" lon="10.455102883279324">
        <ele>2420.2600000000002</ele>
        <time>2018-07-13T09:16:18Z</time>
      </trkpt>
      <trkpt lat="46.19115024805069" lon="10.455108331516385">
        <ele>2420.2600000000002</ele>
        <time>2018-07-13T09:16:55Z</time>
      </trkpt>
      <trkpt lat="46.191145554184914" lon="10.45511394739151">
        <ele>2420.2600000000002</ele>
        <time>2018-07-13T09:17:23Z</time>
      </trkpt>
      <trkpt lat="46.191139854490757" lon="10.455125011503696">
        <ele>2420.2600000000002</ele>
        <time>2018-07-13T09:17:50Z</time>
      </trkpt>
      <trkpt lat="46.191149074584246" lon="10.455113612115383">
        <ele>2420.2600000000002</ele>
        <time>2018-07-13T09:18:17Z</time>
      </trkpt>
      <trkpt lat="46.19114832021296" lon="10.455117803066969">
        <ele>2420.7399999999998</ele>
        <time>2018-07-13T09:18:41Z</time>
      </trkpt>
      <trkpt lat="46.191147733479738" lon="10.455116797238588">
        <ele>2420.7399999999998</ele>
        <time>2018-07-13T09:19:06Z</time>
      </trkpt>
      <trkpt lat="46.191142536699772" lon="10.455119144171476">
        <ele>2420.7399999999998</ele>
        <time>2018-07-13T09:19:41Z</time>
      </trkpt>
      <trkpt lat="46.191144548356533" lon="10.455142864957452">
        <ele>2420.7399999999998</ele>
        <time>2018-07-13T09:20:18Z</time>
      </trkpt>
      <trkpt lat="46.191144632175565" lon="10.455129202455282">
        <ele>2420.7399999999998</ele>
        <time>2018-07-13T09:20:37Z</time>
      </trkpt>
      <trkpt lat="46.191143123432994" lon="10.455138506367803">
        <ele>2420.7399999999998</ele>
        <time>2018-07-13T09:21:04Z</time>
      </trkpt>
      <trkpt lat="46.191135998815298" lon="10.45512911863625">
        <ele>2420.2600000000002</ele>
        <time>2018-07-13T09:21:36Z</time>
      </trkpt>
      <trkpt lat="46.191136920824647" lon="10.455131884664297">
        <ele>2420.7399999999998</ele>
        <time>2018-07-13T09:22:09Z</time>
      </trkpt>
      <trkpt lat="46.191138932481408" lon="10.45513104647398">
        <ele>2420.2600000000002</ele>
        <time>2018-07-13T09:22:37Z</time>
      </trkpt>
      <trkpt lat="46.191145470365882" lon="10.455120485275984">
        <ele>2420.7399999999998</ele>
        <time>2018-07-13T09:22:58Z</time>
      </trkpt>
      <trkpt lat="46.191146392375231" lon="10.455118222162127">
        <ele>2420.2600000000002</ele>
        <time>2018-07-13T09:23:23Z</time>
      </trkpt>
      <trkpt lat="46.191136920824647" lon="10.455101877450943">
        <ele>2420.7399999999998</ele>
        <time>2018-07-13T09:23:47Z</time>
      </trkpt>
      <trkpt lat="46.191147733479738" lon="10.455114282667637">
        <ele>2420.7399999999998</ele>
        <time>2018-07-13T09:24:09Z</time>
      </trkpt>
      <trkpt lat="46.191140189766884" lon="10.455112857744098">
        <ele>2420.7399999999998</ele>
        <time>2018-07-13T09:24:33Z</time>
      </trkpt>
      <trkpt lat="46.191150080412626" lon="10.455113863572478">
        <ele>2420.2600000000002</ele>
        <time>2018-07-13T09:24:58Z</time>
      </trkpt>
      <trkpt lat="46.191162737086415" lon="10.455116042867303">
        <ele>2420.2600000000002</ele>
        <time>2018-07-13T09:25:26Z</time>
      </trkpt>
      <trkpt lat="46.191160557791591" lon="10.455084778368473">
        <ele>2420.2600000000002</ele>
        <time>2018-07-13T09:25:54Z</time>
      </trkpt>
      <trkpt lat="46.191157205030322" lon="10.455079162493348">
        <ele>2420.2600000000002</ele>
        <time>2018-07-13T09:26:02Z</time>
      </trkpt>
      <trkpt lat="46.191155863925815" lon="10.455085197463632">
        <ele>2420.2600000000002</ele>
        <time>2018-07-13T09:26:22Z</time>
      </trkpt>
      <trkpt lat="46.191169023513794" lon="10.455073043704033">
        <ele>2419.7800000000002</ele>
        <time>2018-07-13T09:26:38Z</time>
      </trkpt>
      <trkpt lat="46.191157791763544" lon="10.455057872459292">
        <ele>2419.7800000000002</ele>
        <time>2018-07-13T09:27:00Z</time>
      </trkpt>
      <trkpt lat="46.191169358789921" lon="10.455074803903699">
        <ele>2419.7800000000002</ele>
        <time>2018-07-13T09:27:24Z</time>
      </trkpt>
      <trkpt lat="46.191134406253695" lon="10.455113025382161">
        <ele>2420.2600000000002</ele>
        <time>2018-07-13T09:27:51Z</time>
      </trkpt>
      <trkpt lat="46.191152511164546" lon="10.455063320696354">
        <ele>2420.7399999999998</ele>
        <time>2018-07-13T09:28:20Z</time>
      </trkpt>
      <trkpt lat="46.191167682409286" lon="10.455057956278324">
        <ele>2420.7399999999998</ele>
        <time>2018-07-13T09:28:45Z</time>
      </trkpt>
      <trkpt lat="46.191129544749856" lon="10.45505728572607">
        <ele>2420.2600000000002</ele>
        <time>2018-07-13T09:29:14Z</time>
      </trkpt>
      <trkpt lat="46.191106494516134" lon="10.455045634880662">
        <ele>2420.2600000000002</ele>
        <time>2018-07-13T09:29:49Z</time>
      </trkpt>
      <trkpt lat="46.191126191988587" lon="10.455093830823898">
        <ele>2420.2600000000002</ele>
        <time>2018-07-13T09:30:27Z</time>
      </trkpt>
      <trkpt lat="46.191071039065719" lon="10.455112354829907">
        <ele>2420.2600000000002</ele>
        <time>2018-07-13T09:31:06Z</time>
      </trkpt>
      <trkpt lat="46.191134322434664" lon="10.45507145114243">
        <ele>2420.2600000000002</ele>
        <time>2018-07-13T09:31:16Z</time>
      </trkpt>
      <trkpt lat="46.191140357404947" lon="10.455067679286003">
        <ele>2421.6999999999998</ele>
        <time>2018-07-13T09:31:23Z</time>
      </trkpt>
      <trkpt lat="46.191137339919806" lon="10.45507438480854">
        <ele>2420.7399999999998</ele>
        <time>2018-07-13T09:31:38Z</time>
      </trkpt>
      <trkpt lat="46.191131640225649" lon="10.455060638487339">
        <ele>2421.2199999999998</ele>
        <time>2018-07-13T09:31:50Z</time>
      </trkpt>
      <trkpt lat="46.191135076805949" lon="10.455086370930076">
        <ele>2421.2199999999998</ele>
        <time>2018-07-13T09:32:03Z</time>
      </trkpt>
      <trkpt lat="46.191163323819637" lon="10.455091651529074">
        <ele>2421.2199999999998</ele>
        <time>2018-07-13T09:32:29Z</time>
      </trkpt>
      <trkpt lat="46.191137759014964" lon="10.455138171091676">
        <ele>2420.7399999999998</ele>
        <time>2018-07-13T09:32:40Z</time>
      </trkpt>
      <trkpt lat="46.191118564456701" lon="10.455103889107704">
        <ele>2420.7399999999998</ele>
        <time>2018-07-13T09:32:52Z</time>
      </trkpt>
      <trkpt lat="46.191105656325817" lon="10.455072373151779">
        <ele>2420.7399999999998</ele>
        <time>2018-07-13T09:33:10Z</time>
      </trkpt>
      <trkpt lat="46.19109702296555" lon="10.455046137794852">
        <ele>2420.7399999999998</ele>
        <time>2018-07-13T09:33:21Z</time>
      </trkpt>
      <trkpt lat="46.191109092906117" lon="10.455029457807541">
        <ele>2421.6999999999998</ele>
        <time>2018-07-13T09:33:35Z</time>
      </trkpt>
      <trkpt lat="46.191107500344515" lon="10.454991068691015">
        <ele>2421.2199999999998</ele>
        <time>2018-07-13T09:33:51Z</time>
      </trkpt>
      <trkpt lat="46.191099118441343" lon="10.454955277964473">
        <ele>2422.6599999999999</ele>
        <time>2018-07-13T09:34:01Z</time>
      </trkpt>
      <trkpt lat="46.191086964681745" lon="10.454921331256628">
        <ele>2424.0999999999999</ele>
        <time>2018-07-13T09:34:11Z</time>
      </trkpt>
      <trkpt lat="46.191098280251026" lon="10.454882439225912">
        <ele>2425.54</ele>
        <time>2018-07-13T09:34:21Z</time>
      </trkpt>
      <trkpt lat="46.191133735701442" lon="10.454842625185847">
        <ele>2427.4699999999998</ele>
        <time>2018-07-13T09:34:34Z</time>
      </trkpt>
      <trkpt lat="46.191140608862042" lon="10.454817144200206">
        <ele>2428.9099999999999</ele>
        <time>2018-07-13T09:34:44Z</time>
      </trkpt>
      <trkpt lat="46.19114245288074" lon="10.454797949641943">
        <ele>2429.8699999999999</ele>
        <time>2018-07-13T09:34:52Z</time>
      </trkpt>
      <trkpt lat="46.191152594983578" lon="10.4547587223351">
        <ele>2431.3099999999999</ele>
        <time>2018-07-13T09:35:03Z</time>
      </trkpt>
      <trkpt lat="46.19116592220962" lon="10.454761572182178">
        <ele>2432.27</ele>
        <time>2018-07-13T09:35:15Z</time>
      </trkpt>
      <trkpt lat="46.191174807026982" lon="10.454741371795535">
        <ele>2432.75</ele>
        <time>2018-07-13T09:35:27Z</time>
      </trkpt>
      <trkpt lat="46.191198611631989" lon="10.454720249399543">
        <ele>2434.6799999999998</ele>
        <time>2018-07-13T09:35:38Z</time>
      </trkpt>
      <trkpt lat="46.19120892137289" lon="10.454704407602549">
        <ele>2435.6399999999999</ele>
        <time>2018-07-13T09:35:50Z</time>
      </trkpt>
      <trkpt lat="46.191246807575226" lon="10.454687308520079">
        <ele>2437.5599999999999</ele>
        <time>2018-07-13T09:36:01Z</time>
      </trkpt>
      <trkpt lat="46.1912602186203" lon="10.454699127003551">
        <ele>2438.52</ele>
        <time>2018-07-13T09:36:13Z</time>
      </trkpt>
      <trkpt lat="46.191271785646677" lon="10.454687979072332">
        <ele>2439.48</ele>
        <time>2018-07-13T09:36:24Z</time>
      </trkpt>
      <trkpt lat="46.191300451755524" lon="10.454674316570163">
        <ele>2440.9200000000001</ele>
        <time>2018-07-13T09:36:35Z</time>
      </trkpt>
      <trkpt lat="46.191326938569546" lon="10.454654451459646">
        <ele>2442.3699999999999</ele>
        <time>2018-07-13T09:36:43Z</time>
      </trkpt>
      <trkpt lat="46.191369267180562" lon="10.454648500308394">
        <ele>2443.8099999999999</ele>
        <time>2018-07-13T09:36:54Z</time>
      </trkpt>
      <trkpt lat="46.191411931067705" lon="10.454617822542787">
        <ele>2445.25</ele>
        <time>2018-07-13T09:37:04Z</time>
      </trkpt>
      <trkpt lat="46.191432885825634" lon="10.454599130898714">
        <ele>2446.21</ele>
        <time>2018-07-13T09:37:14Z</time>
      </trkpt>
      <trkpt lat="46.191475465893745" lon="10.454582870006561">
        <ele>2448.1300000000001</ele>
        <time>2018-07-13T09:37:25Z</time>
      </trkpt>
      <trkpt lat="46.19150404818356" lon="10.454529980197549">
        <ele>2450.0599999999999</ele>
        <time>2018-07-13T09:37:38Z</time>
      </trkpt>
      <trkpt lat="46.191536486148834" lon="10.454476922750473">
        <ele>2451.02</ele>
        <time>2018-07-13T09:37:47Z</time>
      </trkpt>
      <trkpt lat="46.191575126722455" lon="10.454452699050307">
        <ele>2451.5</ele>
        <time>2018-07-13T09:37:56Z</time>
      </trkpt>
      <trkpt lat="46.191618544980884" lon="10.454438952729106">
        <ele>2452.9400000000001</ele>
        <time>2018-07-13T09:38:06Z</time>
      </trkpt>
      <trkpt lat="46.191642936319113" lon="10.454436270520091">
        <ele>2453.9000000000001</ele>
        <time>2018-07-13T09:38:17Z</time>
      </trkpt>
      <trkpt lat="46.191646959632635" lon="10.454386649653316">
        <ele>2455.3400000000001</ele>
        <time>2018-07-13T09:38:27Z</time>
      </trkpt>
      <trkpt lat="46.1916608735919" lon="10.454313810914755">
        <ele>2457.27</ele>
        <time>2018-07-13T09:38:37Z</time>
      </trkpt>
      <trkpt lat="46.191717619076371" lon="10.454282881692052">
        <ele>2457.75</ele>
        <time>2018-07-13T09:38:48Z</time>
      </trkpt>
      <trkpt lat="46.191742764785886" lon="10.454268716275692">
        <ele>2459.1900000000001</ele>
        <time>2018-07-13T09:38:56Z</time>
      </trkpt>
      <trkpt lat="46.191782578825951" lon="10.454233344644308">
        <ele>2460.1500000000001</ele>
        <time>2018-07-13T09:39:06Z</time>
      </trkpt>
      <trkpt lat="46.191795570775867" lon="10.454238709062338">
        <ele>2460.6300000000001</ele>
        <time>2018-07-13T09:39:16Z</time>
      </trkpt>
      <trkpt lat="46.191796325147152" lon="10.454243235290051">
        <ele>2460.6300000000001</ele>
        <time>2018-07-13T09:39:33Z</time>
      </trkpt>
      <trkpt lat="46.191803365945816" lon="10.454237535595894">
        <ele>2460.6300000000001</ele>
        <time>2018-07-13T09:39:45Z</time>
      </trkpt>
      <trkpt lat="46.191844269633293" lon="10.45421440154314">
        <ele>2462.0700000000002</ele>
        <time>2018-07-13T09:40:00Z</time>
      </trkpt>
      <trkpt lat="46.191896321251988" lon="10.45419336296618">
        <ele>2463.04</ele>
        <time>2018-07-13T09:40:09Z</time>
      </trkpt>
      <trkpt lat="46.191935883834958" lon="10.454122954979539">
        <ele>2464.48</ele>
        <time>2018-07-13T09:40:20Z</time>
      </trkpt>
      <trkpt lat="46.191990450024605" lon="10.454046092927456">
        <ele>2465.4400000000001</ele>
        <time>2018-07-13T09:40:30Z</time>
      </trkpt>
      <trkpt lat="46.192030599340796" lon="10.453981719911098">
        <ele>2466.4000000000001</ele>
        <time>2018-07-13T09:40:40Z</time>
      </trkpt>
      <trkpt lat="46.192085584625602" lon="10.453907959163189">
        <ele>2466.4000000000001</ele>
        <time>2018-07-13T09:40:50Z</time>
      </trkpt>
      <trkpt lat="46.192135624587536" lon="10.453910222277045">
        <ele>2467.8400000000001</ele>
        <time>2018-07-13T09:40:59Z</time>
      </trkpt>
      <trkpt lat="46.192144090309739" lon="10.453905360773206">
        <ele>2468.3200000000002</ele>
        <time>2018-07-13T09:41:00Z</time>
      </trkpt>
      <trkpt lat="46.192223131656647" lon="10.453862864524126">
        <ele>2469.2800000000002</ele>
        <time>2018-07-13T09:41:11Z</time>
      </trkpt>
      <trkpt lat="46.192273842170835" lon="10.453818943351507">
        <ele>2469.7600000000002</ele>
        <time>2018-07-13T09:41:22Z</time>
      </trkpt>
      <trkpt lat="46.192297646775842" lon="10.453801425173879">
        <ele>2469.7600000000002</ele>
        <time>2018-07-13T09:41:25Z</time>
      </trkpt>
      <trkpt lat="46.192391607910395" lon="10.453814081847668">
        <ele>2470.2399999999998</ele>
        <time>2018-07-13T09:41:36Z</time>
      </trkpt>
      <trkpt lat="46.192417507991195" lon="10.453810393810272">
        <ele>2471.21</ele>
        <time>2018-07-13T09:41:45Z</time>
      </trkpt>
      <trkpt lat="46.192482300102711" lon="10.453800251707435">
        <ele>2471.6900000000001</ele>
        <time>2018-07-13T09:41:55Z</time>
      </trkpt>
      <trkpt lat="46.192513396963477" lon="10.453744847327471">
        <ele>2473.6100000000001</ele>
        <time>2018-07-13T09:42:05Z</time>
      </trkpt>
      <trkpt lat="46.192539548501372" lon="10.453712409362197">
        <ele>2475.5300000000002</ele>
        <time>2018-07-13T09:42:16Z</time>
      </trkpt>
      <trkpt lat="46.192564275115728" lon="10.453648287802935">
        <ele>2477.4499999999998</ele>
        <time>2018-07-13T09:42:27Z</time>
      </trkpt>
      <trkpt lat="46.192568298429251" lon="10.453545274212956">
        <ele>2479.3800000000001</ele>
        <time>2018-07-13T09:42:41Z</time>
      </trkpt>
      <trkpt lat="46.192549606785178" lon="10.453493893146515">
        <ele>2482.2600000000002</ele>
        <time>2018-07-13T09:42:51Z</time>
      </trkpt>
      <trkpt lat="46.192544242367148" lon="10.453460030257702">
        <ele>2482.7399999999998</ele>
        <time>2018-07-13T09:43:02Z</time>
      </trkpt>
      <trkpt lat="46.192532172426581" lon="10.453419042751193">
        <ele>2484.6599999999999</ele>
        <time>2018-07-13T09:43:15Z</time>
      </trkpt>
      <trkpt lat="46.192554133012891" lon="10.453326506540179">
        <ele>2486.1100000000001</ele>
        <time>2018-07-13T09:43:27Z</time>
      </trkpt>
      <trkpt lat="46.192606100812554" lon="10.453261630609632">
        <ele>2486.5900000000001</ele>
        <time>2018-07-13T09:43:38Z</time>
      </trkpt>
      <trkpt lat="46.192619847133756" lon="10.453242938965559">
        <ele>2486.5900000000001</ele>
        <time>2018-07-13T09:43:40Z</time>
      </trkpt>
      <trkpt lat="46.192643316462636" lon="10.453166663646698">
        <ele>2487.0700000000002</ele>
        <time>2018-07-13T09:43:51Z</time>
      </trkpt>
      <trkpt lat="46.192653207108378" lon="10.453069852665067">
        <ele>2487.0700000000002</ele>
        <time>2018-07-13T09:44:00Z</time>
      </trkpt>
      <trkpt lat="46.192666115239263" lon="10.453003635630012">
        <ele>2487.5500000000002</ele>
        <time>2018-07-13T09:44:07Z</time>
      </trkpt>
      <trkpt lat="46.192761920392513" lon="10.452925516292453">
        <ele>2487.5500000000002</ele>
        <time>2018-07-13T09:44:20Z</time>
      </trkpt>
      <trkpt lat="46.192794274538755" lon="10.452912105247378">
        <ele>2488.0300000000002</ele>
        <time>2018-07-13T09:44:31Z</time>
      </trkpt>
      <trkpt lat="46.19283115491271" lon="10.452890815213323">
        <ele>2489.4699999999998</ele>
        <time>2018-07-13T09:44:43Z</time>
      </trkpt>
      <trkpt lat="46.192869963124394" lon="10.452847229316831">
        <ele>2489.4699999999998</ele>
        <time>2018-07-13T09:44:54Z</time>
      </trkpt>
      <trkpt lat="46.192914387211204" lon="10.452825436368585">
        <ele>2490.9099999999999</ele>
        <time>2018-07-13T09:45:05Z</time>
      </trkpt>
      <trkpt lat="46.192941796034575" lon="10.452815210446715">
        <ele>2492.3600000000001</ele>
        <time>2018-07-13T09:45:16Z</time>
      </trkpt>
      <trkpt lat="46.192993344739079" lon="10.45280079357326">
        <ele>2493.3200000000002</ele>
        <time>2018-07-13T09:45:29Z</time>
      </trkpt>
      <trkpt lat="46.193043887615204" lon="10.452773300930858">
        <ele>2493.3200000000002</ele>
        <time>2018-07-13T09:45:39Z</time>
      </trkpt>
      <trkpt lat="46.193100800737739" lon="10.452774222940207">
        <ele>2494.7600000000002</ele>
        <time>2018-07-13T09:45:51Z</time>
      </trkpt>
      <trkpt lat="46.193120582029223" lon="10.452739186584949">
        <ele>2496.1999999999998</ele>
        <time>2018-07-13T09:46:02Z</time>
      </trkpt>
      <trkpt lat="46.193149667233229" lon="10.452732983976603">
        <ele>2497.1599999999999</ele>
        <time>2018-07-13T09:46:13Z</time>
      </trkpt>
      <trkpt lat="46.193168945610523" lon="10.452715298160911">
        <ele>2498.5999999999999</ele>
        <time>2018-07-13T09:46:22Z</time>
      </trkpt>
      <trkpt lat="46.193190822377801" lon="10.452681938186288">
        <ele>2500.0500000000002</ele>
        <time>2018-07-13T09:46:34Z</time>
      </trkpt>
      <trkpt lat="46.193201718851924" lon="10.452649332582951">
        <ele>2501.4899999999998</ele>
        <time>2018-07-13T09:46:46Z</time>
      </trkpt>
      <trkpt lat="46.1932064127177" lon="10.452614966779947">
        <ele>2502.9299999999998</ele>
        <time>2018-07-13T09:46:58Z</time>
      </trkpt>
      <trkpt lat="46.193236755207181" lon="10.452569704502821">
        <ele>2504.3699999999999</ele>
        <time>2018-07-13T09:47:09Z</time>
      </trkpt>
      <trkpt lat="46.193251926451921" lon="10.452545983716846">
        <ele>2505.8099999999999</ele>
        <time>2018-07-13T09:47:19Z</time>
      </trkpt>
      <trkpt lat="46.193267181515694" lon="10.452546151354909">
        <ele>2506.77</ele>
        <time>2018-07-13T09:47:29Z</time>
      </trkpt>
      <trkpt lat="46.19326458312571" lon="10.452459566295147">
        <ele>2508.2199999999998</ele>
        <time>2018-07-13T09:47:41Z</time>
      </trkpt>
      <trkpt lat="46.193248238414526" lon="10.45243333093822">
        <ele>2509.1799999999998</ele>
        <time>2018-07-13T09:47:52Z</time>
      </trkpt>
      <trkpt lat="46.193280844017863" lon="10.452402401715517">
        <ele>2510.6199999999999</ele>
        <time>2018-07-13T09:48:03Z</time>
      </trkpt>
      <trkpt lat="46.193292494863272" lon="10.452349008992314">
        <ele>2512.0599999999999</ele>
        <time>2018-07-13T09:48:14Z</time>
      </trkpt>
      <trkpt lat="46.193289645016193" lon="10.452301232144237">
        <ele>2513.02</ele>
        <time>2018-07-13T09:48:24Z</time>
      </trkpt>
      <trkpt lat="46.193311605602503" lon="10.452234679833055">
        <ele>2514.9499999999998</ele>
        <time>2018-07-13T09:48:34Z</time>
      </trkpt>
      <trkpt lat="46.193353850394487" lon="10.45216946862638">
        <ele>2515.4299999999998</ele>
        <time>2018-07-13T09:48:46Z</time>
      </trkpt>
      <trkpt lat="46.193367009982467" lon="10.452064527198672">
        <ele>2516.3899999999999</ele>
        <time>2018-07-13T09:48:59Z</time>
      </trkpt>
      <trkpt lat="46.193360975012183" lon="10.45203116722405">
        <ele>2516.8699999999999</ele>
        <time>2018-07-13T09:49:12Z</time>
      </trkpt>
      <trkpt lat="46.193358041346073" lon="10.452011721208692">
        <ele>2517.8299999999999</ele>
        <time>2018-07-13T09:49:23Z</time>
      </trkpt>
      <trkpt lat="46.193348318338394" lon="10.451996633782983">
        <ele>2519.27</ele>
        <time>2018-07-13T09:49:33Z</time>
      </trkpt>
      <trkpt lat="46.193334069103003" lon="10.451967129483819">
        <ele>2520.71</ele>
        <time>2018-07-13T09:49:44Z</time>
      </trkpt>
      <trkpt lat="46.193301631137729" lon="10.451913150027394">
        <ele>2522.1599999999999</ele>
        <time>2018-07-13T09:49:56Z</time>
      </trkpt>
      <trkpt lat="46.193282436579466" lon="10.451880544424057">
        <ele>2523.1199999999999</ele>
        <time>2018-07-13T09:50:07Z</time>
      </trkpt>
      <trkpt lat="46.193256704136729" lon="10.451847771182656">
        <ele>2524.0799999999999</ele>
        <time>2018-07-13T09:50:17Z</time>
      </trkpt>
      <trkpt lat="46.193240275606513" lon="10.451808040961623">
        <ele>2525.52</ele>
        <time>2018-07-13T09:50:27Z</time>
      </trkpt>
      <trkpt lat="46.19322988204658" lon="10.451779626309872">
        <ele>2526.96</ele>
        <time>2018-07-13T09:50:37Z</time>
      </trkpt>
      <trkpt lat="46.193242706358433" lon="10.451752133667469">
        <ele>2527.4400000000001</ele>
        <time>2018-07-13T09:50:49Z</time>
      </trkpt>
      <trkpt lat="46.193243628367782" lon="10.451736794784665">
        <ele>2528.4000000000001</ele>
        <time>2018-07-13T09:50:59Z</time>
      </trkpt>
      <trkpt lat="46.193230971693993" lon="10.451721120625734">
        <ele>2528.8899999999999</ele>
        <time>2018-07-13T09:51:08Z</time>
      </trkpt>
      <trkpt lat="46.193237761035562" lon="10.451652808114886">
        <ele>2530.3299999999999</ele>
        <time>2018-07-13T09:51:19Z</time>
      </trkpt>
      <trkpt lat="46.193228121846914" lon="10.451607797294855">
        <ele>2531.77</ele>
        <time>2018-07-13T09:51:30Z</time>
      </trkpt>
      <trkpt lat="46.193237928673625" lon="10.451566809788346">
        <ele>2532.73</ele>
        <time>2018-07-13T09:51:41Z</time>
      </trkpt>
      <trkpt lat="46.193244550377131" lon="10.451511153951287">
        <ele>2534.6500000000001</ele>
        <time>2018-07-13T09:51:53Z</time>
      </trkpt>
      <trkpt lat="46.193254021927714" lon="10.451473854482174">
        <ele>2536.5799999999999</ele>
        <time>2018-07-13T09:52:05Z</time>
      </trkpt>
      <trkpt lat="46.193260308355093" lon="10.451393974944949">
        <ele>2538.5</ele>
        <time>2018-07-13T09:52:17Z</time>
      </trkpt>
      <trkpt lat="46.193272797390819" lon="10.451366314664483">
        <ele>2539.9400000000001</ele>
        <time>2018-07-13T09:52:28Z</time>
      </trkpt>
      <trkpt lat="46.19328017346561" lon="10.451316274702549">
        <ele>2542.3400000000001</ele>
        <time>2018-07-13T09:52:39Z</time>
      </trkpt>
      <trkpt lat="46.193291153758764" lon="10.451235556975007">
        <ele>2544.27</ele>
        <time>2018-07-13T09:52:52Z</time>
      </trkpt>
      <trkpt lat="46.193306660279632" lon="10.451183337718248">
        <ele>2545.23</ele>
        <time>2018-07-13T09:53:01Z</time>
      </trkpt>
      <trkpt lat="46.19329878129065" lon="10.451107565313578">
        <ele>2546.6700000000001</ele>
        <time>2018-07-13T09:53:14Z</time>
      </trkpt>
      <trkpt lat="46.19331831112504" lon="10.451023411005735">
        <ele>2548.1100000000001</ele>
        <time>2018-07-13T09:53:26Z</time>
      </trkpt>
      <trkpt lat="46.193365752696991" lon="10.451003713533282">
        <ele>2549.5500000000002</ele>
        <time>2018-07-13T09:53:36Z</time>
      </trkpt>
      <trkpt lat="46.193403890356421" lon="10.450960630550981">
        <ele>2551</ele>
        <time>2018-07-13T09:53:49Z</time>
      </trkpt>
      <trkpt lat="46.193425767123699" lon="10.450947722420096">
        <ele>2551</ele>
        <time>2018-07-13T09:53:54Z</time>
      </trkpt>
      <trkpt lat="46.193491648882627" lon="10.450936406850815">
        <ele>2552.4400000000001</ele>
        <time>2018-07-13T09:54:04Z</time>
      </trkpt>
      <trkpt lat="46.193560380488634" lon="10.450926180928946">
        <ele>2552.4400000000001</ele>
        <time>2018-07-13T09:54:15Z</time>
      </trkpt>
      <trkpt lat="46.193603798747063" lon="10.450899694114923">
        <ele>2552.9200000000001</ele>
        <time>2018-07-13T09:54:26Z</time>
      </trkpt>
      <trkpt lat="46.193626765161753" lon="10.450866920873523">
        <ele>2555.3200000000002</ele>
        <time>2018-07-13T09:54:36Z</time>
      </trkpt>
      <trkpt lat="46.193620814010501" lon="10.450815875083208">
        <ele>2556.7600000000002</ele>
        <time>2018-07-13T09:54:48Z</time>
      </trkpt>
      <trkpt lat="46.193660628050566" lon="10.450774049386382">
        <ele>2558.21</ele>
        <time>2018-07-13T09:54:58Z</time>
      </trkpt>
      <trkpt lat="46.193693233653903" lon="10.450711185112596">
        <ele>2559.1700000000001</ele>
        <time>2018-07-13T09:55:11Z</time>
      </trkpt>
      <trkpt lat="46.193735729902983" lon="10.450659720227122">
        <ele>2560.6100000000001</ele>
        <time>2018-07-13T09:55:21Z</time>
      </trkpt>
      <trkpt lat="46.193737909197807" lon="10.450652176514268">
        <ele>2561.0900000000001</ele>
        <time>2018-07-13T09:55:24Z</time>
      </trkpt>
      <trkpt lat="46.193766240030527" lon="10.450615379959345">
        <ele>2562.0500000000002</ele>
        <time>2018-07-13T09:55:33Z</time>
      </trkpt>
      <trkpt lat="46.193819548934698" lon="10.450577661395073">
        <ele>2563.4899999999998</ele>
        <time>2018-07-13T09:55:44Z</time>
      </trkpt>
      <trkpt lat="46.193880066275597" lon="10.450520748272538">
        <ele>2564.4499999999998</ele>
        <time>2018-07-13T09:55:55Z</time>
      </trkpt>
      <trkpt lat="46.193907726556063" lon="10.450496692210436">
        <ele>2565.4200000000001</ele>
        <time>2018-07-13T09:56:05Z</time>
      </trkpt>
      <trkpt lat="46.193938069045544" lon="10.450500547885895">
        <ele>2566.8600000000001</ele>
        <time>2018-07-13T09:56:15Z</time>
      </trkpt>
      <trkpt lat="46.193974614143372" lon="10.450465762987733">
        <ele>2568.3000000000002</ele>
        <time>2018-07-13T09:56:26Z</time>
      </trkpt>
      <trkpt lat="46.194037478417158" lon="10.450429217889905">
        <ele>2569.2600000000002</ele>
        <time>2018-07-13T09:56:37Z</time>
      </trkpt>
      <trkpt lat="46.194082740694284" lon="10.45042896643281">
        <ele>2570.2199999999998</ele>
        <time>2018-07-13T09:56:47Z</time>
      </trkpt>
      <trkpt lat="46.19413529522717" lon="10.4504001326859">
        <ele>2571.1799999999998</ele>
        <time>2018-07-13T09:56:57Z</time>
      </trkpt>
      <trkpt lat="46.194183072075248" lon="10.450384542346001">
        <ele>2572.1399999999999</ele>
        <time>2018-07-13T09:57:08Z</time>
      </trkpt>
      <trkpt lat="46.194225903600454" lon="10.450411448255181">
        <ele>2572.6300000000001</ele>
        <time>2018-07-13T09:57:19Z</time>
      </trkpt>
      <trkpt lat="46.194243002682924" lon="10.450417147949338">
        <ele>2573.5900000000001</ele>
        <time>2018-07-13T09:57:30Z</time>
      </trkpt>
      <trkpt lat="46.19426722638309" lon="10.450406419113278">
        <ele>2573.5900000000001</ele>
        <time>2018-07-13T09:57:42Z</time>
      </trkpt>
      <trkpt lat="46.194285666570067" lon="10.45039527118206">
        <ele>2574.0700000000002</ele>
        <time>2018-07-13T09:57:51Z</time>
      </trkpt>
      <trkpt lat="46.194329420104623" lon="10.450367862358689">
        <ele>2575.5100000000002</ele>
        <time>2018-07-13T09:58:03Z</time>
      </trkpt>
      <trkpt lat="46.194355906918645" lon="10.450367610901594">
        <ele>2577.4299999999998</ele>
        <time>2018-07-13T09:58:14Z</time>
      </trkpt>
      <trkpt lat="46.194370659068227" lon="10.450328551232815">
        <ele>2578.3899999999999</ele>
        <time>2018-07-13T09:58:26Z</time>
      </trkpt>
      <trkpt lat="46.194392703473568" lon="10.450282031670213">
        <ele>2580.3200000000002</ele>
        <time>2018-07-13T09:58:38Z</time>
      </trkpt>
      <trkpt lat="46.194401504471898" lon="10.45024867169559">
        <ele>2581.7600000000002</ele>
        <time>2018-07-13T09:58:50Z</time>
      </trkpt>
      <trkpt lat="46.194414580240846" lon="10.450195781886578">
        <ele>2582.2399999999998</ele>
        <time>2018-07-13T09:59:01Z</time>
      </trkpt>
      <trkpt lat="46.194423213601112" lon="10.450172899290919">
        <ele>2583.6799999999998</ele>
        <time>2018-07-13T09:59:10Z</time>
      </trkpt>
      <trkpt lat="46.19443092495203" lon="10.450158147141337">
        <ele>2584.6399999999999</ele>
        <time>2018-07-13T09:59:18Z</time>
      </trkpt>
      <trkpt lat="46.194438301026821" lon="10.450130989775062">
        <ele>2586.0799999999999</ele>
        <time>2018-07-13T09:59:27Z</time>
      </trkpt>
      <trkpt lat="46.1944480240345" lon="10.450104922056198">
        <ele>2587.04</ele>
        <time>2018-07-13T09:59:36Z</time>
      </trkpt>
      <trkpt lat="46.194452298805118" lon="10.450075333938003">
        <ele>2588.4899999999998</ele>
        <time>2018-07-13T09:59:47Z</time>
      </trkpt>
      <trkpt lat="46.194464955478907" lon="10.45004490762949">
        <ele>2589.9299999999998</ele>
        <time>2018-07-13T09:59:57Z</time>
      </trkpt>
      <trkpt lat="46.194467972964048" lon="10.450024707242846">
        <ele>2590.8899999999999</ele>
        <time>2018-07-13T10:00:06Z</time>
      </trkpt>
      <trkpt lat="46.194478031247854" lon="10.44999411329627">
        <ele>2592.3299999999999</ele>
        <time>2018-07-13T10:00:15Z</time>
      </trkpt>
      <trkpt lat="46.194517007097602" lon="10.450003584846854">
        <ele>2593.29</ele>
        <time>2018-07-13T10:00:24Z</time>
      </trkpt>
      <trkpt lat="46.194518934935331" lon="10.44996134005487">
        <ele>2595.6999999999998</ele>
        <time>2018-07-13T10:00:35Z</time>
      </trkpt>
      <trkpt lat="46.194518934935331" lon="10.449909120798111">
        <ele>2597.1399999999999</ele>
        <time>2018-07-13T10:00:45Z</time>
      </trkpt>
      <trkpt lat="46.194523461163044" lon="10.449903085827827">
        <ele>2597.6199999999999</ele>
        <time>2018-07-13T10:00:57Z</time>
      </trkpt>
      <trkpt lat="46.194536704570055" lon="10.449840221554041">
        <ele>2598.5799999999999</ele>
        <time>2018-07-13T10:01:13Z</time>
      </trkpt>
      <trkpt lat="46.194581044837832" lon="10.449832258746028">
        <ele>2600.02</ele>
        <time>2018-07-13T10:01:24Z</time>
      </trkpt>
      <trkpt lat="46.194601580500603" lon="10.449792696163058">
        <ele>2601.46</ele>
        <time>2018-07-13T10:01:36Z</time>
      </trkpt>
      <trkpt lat="46.194623289629817" lon="10.449765454977751">
        <ele>2601.9499999999998</ele>
        <time>2018-07-13T10:01:48Z</time>
      </trkpt>
      <trkpt lat="46.19463125243783" lon="10.449766293168068">
        <ele>2602.9099999999999</ele>
        <time>2018-07-13T10:01:59Z</time>
      </trkpt>
      <trkpt lat="46.194653548300266" lon="10.44975615106523">
        <ele>2603.8699999999999</ele>
        <time>2018-07-13T10:02:11Z</time>
      </trkpt>
      <trkpt lat="46.194688752293587" lon="10.449783811345696">
        <ele>2605.3099999999999</ele>
        <time>2018-07-13T10:02:22Z</time>
      </trkpt>
      <trkpt lat="46.194701744243503" lon="10.449785487726331">
        <ele>2605.3099999999999</ele>
        <time>2018-07-13T10:02:34Z</time>
      </trkpt>
      <trkpt lat="46.194715825840831" lon="10.449756402522326">
        <ele>2606.75</ele>
        <time>2018-07-13T10:02:45Z</time>
      </trkpt>
      <trkpt lat="46.194745413959026" lon="10.449759922921658">
        <ele>2607.71</ele>
        <time>2018-07-13T10:02:54Z</time>
      </trkpt>
      <trkpt lat="46.194778606295586" lon="10.449769897386432">
        <ele>2609.1599999999999</ele>
        <time>2018-07-13T10:03:06Z</time>
      </trkpt>
      <trkpt lat="46.194849936291575" lon="10.449776686728001">
        <ele>2610.1199999999999</ele>
        <time>2018-07-13T10:03:20Z</time>
      </trkpt>
      <trkpt lat="46.194898886606097" lon="10.449810717254877">
        <ele>2609.6399999999999</ele>
        <time>2018-07-13T10:03:29Z</time>
      </trkpt>
      <trkpt lat="46.194958230480552" lon="10.449801497161388">
        <ele>2609.6399999999999</ele>
        <time>2018-07-13T10:03:40Z</time>
      </trkpt>
      <trkpt lat="46.194995529949665" lon="10.449759671464562">
        <ele>2611.0799999999999</ele>
        <time>2018-07-13T10:03:54Z</time>
      </trkpt>
      <trkpt lat="46.195002654567361" lon="10.449725808575749">
        <ele>2613</ele>
        <time>2018-07-13T10:04:03Z</time>
      </trkpt>
      <trkpt lat="46.195053532719612" lon="10.449712062254548">
        <ele>2613</ele>
        <time>2018-07-13T10:04:13Z</time>
      </trkpt>
      <trkpt lat="46.195089742541313" lon="10.449695214629173">
        <ele>2614.4400000000001</ele>
        <time>2018-07-13T10:04:23Z</time>
      </trkpt>
      <trkpt lat="46.195118073374033" lon="10.449687838554382">
        <ele>2615.4000000000001</ele>
        <time>2018-07-13T10:04:33Z</time>
      </trkpt>
      <trkpt lat="46.195172974839807" lon="10.449731424450874">
        <ele>2615.4000000000001</ele>
        <time>2018-07-13T10:04:44Z</time>
      </trkpt>
      <trkpt lat="46.195232067257166" lon="10.449741818010807">
        <ele>2616.3699999999999</ele>
        <time>2018-07-13T10:04:55Z</time>
      </trkpt>
      <trkpt lat="46.195285711437464" lon="10.449784146621823">
        <ele>2616.8499999999999</ele>
        <time>2018-07-13T10:05:06Z</time>
      </trkpt>
      <trkpt lat="46.195322759449482" lon="10.449810214340687">
        <ele>2617.3299999999999</ele>
        <time>2018-07-13T10:05:15Z</time>
      </trkpt>
      <trkpt lat="46.195367099717259" lon="10.449807532131672">
        <ele>2618.29</ele>
        <time>2018-07-13T10:05:25Z</time>
      </trkpt>
      <trkpt lat="46.195406997576356" lon="10.449779368937016">
        <ele>2619.73</ele>
        <time>2018-07-13T10:05:36Z</time>
      </trkpt>
      <trkpt lat="46.195434993132949" lon="10.449775932356715">
        <ele>2621.1700000000001</ele>
        <time>2018-07-13T10:05:46Z</time>
      </trkpt>
      <trkpt lat="46.195488134399056" lon="10.449792696163058">
        <ele>2621.1700000000001</ele>
        <time>2018-07-13T10:05:56Z</time>
      </trkpt>
      <trkpt lat="46.195516129955649" lon="10.449781380593777">
        <ele>2622.6100000000001</ele>
        <time>2018-07-13T10:06:06Z</time>
      </trkpt>
      <trkpt lat="46.195532390847802" lon="10.449759420007467">
        <ele>2623.0900000000001</ele>
        <time>2018-07-13T10:06:15Z</time>
      </trkpt>
      <trkpt lat="46.195563906803727" lon="10.449724216014147">
        <ele>2624.0599999999999</ele>
        <time>2018-07-13T10:06:26Z</time>
      </trkpt>
      <trkpt lat="46.195612605661154" lon="10.449722455814481">
        <ele>2625.5</ele>
        <time>2018-07-13T10:06:38Z</time>
      </trkpt>
      <trkpt lat="46.195647055283189" lon="10.449710721150041">
        <ele>2626.9400000000001</ele>
        <time>2018-07-13T10:06:48Z</time>
      </trkpt>
      <trkpt lat="46.195647055283189" lon="10.449679121375084">
        <ele>2629.3400000000001</ele>
        <time>2018-07-13T10:07:01Z</time>
      </trkpt>
      <trkpt lat="46.195690892636776" lon="10.449658669531345">
        <ele>2631.27</ele>
        <time>2018-07-13T10:07:13Z</time>
      </trkpt>
      <trkpt lat="46.195734310895205" lon="10.44965498149395">
        <ele>2632.23</ele>
        <time>2018-07-13T10:07:24Z</time>
      </trkpt>
      <trkpt lat="46.195753924548626" lon="10.449632434174418">
        <ele>2633.1900000000001</ele>
        <time>2018-07-13T10:07:33Z</time>
      </trkpt>
      <trkpt lat="46.195775801315904" lon="10.44959781691432">
        <ele>2635.5900000000001</ele>
        <time>2018-07-13T10:07:44Z</time>
      </trkpt>
      <trkpt lat="46.195790553465486" lon="10.449572000652552">
        <ele>2636.0700000000002</ele>
        <time>2018-07-13T10:07:54Z</time>
      </trkpt>
      <trkpt lat="46.195817543193698" lon="10.449546184390783">
        <ele>2637.0300000000002</ele>
        <time>2018-07-13T10:08:04Z</time>
      </trkpt>
      <trkpt lat="46.195825422182679" lon="10.449515674263239">
        <ele>2638.48</ele>
        <time>2018-07-13T10:08:14Z</time>
      </trkpt>
      <trkpt lat="46.195807568728924" lon="10.449493378400803">
        <ele>2638.96</ele>
        <time>2018-07-13T10:08:31Z</time>
      </trkpt>
      <trkpt lat="46.195863224565983" lon="10.449513997882605">
        <ele>2639.4400000000001</ele>
        <time>2018-07-13T10:08:39Z</time>
      </trkpt>
      <trkpt lat="46.195883424952626" lon="10.449435040354729">
        <ele>2641.3600000000001</ele>
        <time>2018-07-13T10:08:52Z</time>
      </trkpt>
      <trkpt lat="46.195924328640103" lon="10.449421377852559">
        <ele>2643.2800000000002</ele>
        <time>2018-07-13T10:09:03Z</time>
      </trkpt>
      <trkpt lat="46.195967243984342" lon="10.449395310133696">
        <ele>2645.21</ele>
        <time>2018-07-13T10:09:14Z</time>
      </trkpt>
      <trkpt lat="46.19596959091723" lon="10.449410816654563">
        <ele>2645.6900000000001</ele>
        <time>2018-07-13T10:09:25Z</time>
      </trkpt>
      <trkpt lat="46.196028431877494" lon="10.449375277385116">
        <ele>2647.1300000000001</ele>
        <time>2018-07-13T10:09:35Z</time>
      </trkpt>
      <trkpt lat="46.196039998903871" lon="10.449339486658573">
        <ele>2649.5300000000002</ele>
        <time>2018-07-13T10:09:45Z</time>
      </trkpt>
      <trkpt lat="46.196071179583669" lon="10.449298750609159">
        <ele>2649.5300000000002</ele>
        <time>2018-07-13T10:09:55Z</time>
      </trkpt>
      <trkpt lat="46.196106467396021" lon="10.449288189411163">
        <ele>2651.4499999999998</ele>
        <time>2018-07-13T10:10:05Z</time>
      </trkpt>
      <trkpt lat="46.19613278657198" lon="10.449285926297307">
        <ele>2652.4200000000001</ele>
        <time>2018-07-13T10:10:14Z</time>
      </trkpt>
      <trkpt lat="46.196177126839757" lon="10.449275029823184">
        <ele>2653.3800000000001</ele>
        <time>2018-07-13T10:10:24Z</time>
      </trkpt>
      <trkpt lat="46.196223059669137" lon="10.449246782809496">
        <ele>2654.3400000000001</ele>
        <time>2018-07-13T10:10:35Z</time>
      </trkpt>
      <trkpt lat="46.196236722171307" lon="10.44921618886292">
        <ele>2654.8200000000002</ele>
        <time>2018-07-13T10:10:45Z</time>
      </trkpt>
      <trkpt lat="46.196244601160288" lon="10.449253739789128">
        <ele>2654.8200000000002</ele>
        <time>2018-07-13T10:11:01Z</time>
      </trkpt>
      <trkpt lat="46.196267567574978" lon="10.449214931577444">
        <ele>2655.3000000000002</ele>
        <time>2018-07-13T10:11:13Z</time>
      </trkpt>
      <trkpt lat="46.19629162363708" lon="10.449208058416843">
        <ele>2654.8200000000002</ele>
        <time>2018-07-13T10:11:23Z</time>
      </trkpt>
      <trkpt lat="46.196283660829067" lon="10.449207723140717">
        <ele>2654.3400000000001</ele>
        <time>2018-07-13T10:11:33Z</time>
      </trkpt>
      <trkpt lat="46.196300340816379" lon="10.449187522754073">
        <ele>2654.3400000000001</ele>
        <time>2018-07-13T10:11:52Z</time>
      </trkpt>
      <trkpt lat="46.19628575630486" lon="10.449192551895976">
        <ele>2654.8200000000002</ele>
        <time>2018-07-13T10:12:07Z</time>
      </trkpt>
      <trkpt lat="46.196268238127232" lon="10.449222810566425">
        <ele>2654.3400000000001</ele>
        <time>2018-07-13T10:12:16Z</time>
      </trkpt>
      <trkpt lat="46.196267399936914" lon="10.449221050366759">
        <ele>2654.3400000000001</ele>
        <time>2018-07-13T10:12:36Z</time>
      </trkpt>
      <trkpt lat="46.196255832910538" lon="10.449196742847562">
        <ele>2654.3400000000001</ele>
        <time>2018-07-13T10:13:00Z</time>
      </trkpt>
      <trkpt lat="46.196256000548601" lon="10.449229013174772">
        <ele>2654.8200000000002</ele>
        <time>2018-07-13T10:13:25Z</time>
      </trkpt>
      <trkpt lat="46.196293802931905" lon="10.449235634878278">
        <ele>2654.8200000000002</ele>
        <time>2018-07-13T10:13:56Z</time>
      </trkpt>
      <trkpt lat="46.196278044953942" lon="10.449209902435541">
        <ele>2655.3000000000002</ele>
        <time>2018-07-13T10:14:20Z</time>
      </trkpt>
      <trkpt lat="46.196262538433075" lon="10.449205292388797">
        <ele>2655.3000000000002</ele>
        <time>2018-07-13T10:14:44Z</time>
      </trkpt>
      <trkpt lat="46.196260694414377" lon="10.449203532189131">
        <ele>2655.3000000000002</ele>
        <time>2018-07-13T10:15:06Z</time>
      </trkpt>
      <trkpt lat="46.196279469877481" lon="10.449203783646226">
        <ele>2655.3000000000002</ele>
        <time>2018-07-13T10:15:35Z</time>
      </trkpt>
      <trkpt lat="46.196261197328568" lon="10.449167154729366">
        <ele>2655.7800000000002</ele>
        <time>2018-07-13T10:16:02Z</time>
      </trkpt>
      <trkpt lat="46.196271423250437" lon="10.449211243540049">
        <ele>2656.2600000000002</ele>
        <time>2018-07-13T10:16:30Z</time>
      </trkpt>
      <trkpt lat="46.196259688585997" lon="10.449236473068595">
        <ele>2656.2600000000002</ele>
        <time>2018-07-13T10:16:57Z</time>
      </trkpt>
      <trkpt lat="46.196281565353274" lon="10.449219206348062">
        <ele>2656.2600000000002</ele>
        <time>2018-07-13T10:17:25Z</time>
      </trkpt>
      <trkpt lat="46.196280140429735" lon="10.449253907427192">
        <ele>2656.2600000000002</ele>
        <time>2018-07-13T10:17:46Z</time>
      </trkpt>
      <trkpt lat="46.196247031912208" lon="10.44921082444489">
        <ele>2656.2600000000002</ele>
        <time>2018-07-13T10:18:14Z</time>
      </trkpt>
      <trkpt lat="46.196252144873142" lon="10.449202274903655">
        <ele>2656.7399999999998</ele>
        <time>2018-07-13T10:18:40Z</time>
      </trkpt>
      <trkpt lat="46.196297574788332" lon="10.449196742847562">
        <ele>2656.2600000000002</ele>
        <time>2018-07-13T10:19:02Z</time>
      </trkpt>
      <trkpt lat="46.196242589503527" lon="10.449187187477946">
        <ele>2657.2199999999998</ele>
        <time>2018-07-13T10:19:31Z</time>
      </trkpt>
      <trkpt lat="46.196259688585997" lon="10.449199173599482">
        <ele>2657.6999999999998</ele>
        <time>2018-07-13T10:19:53Z</time>
      </trkpt>
      <trkpt lat="46.196247367188334" lon="10.449181403964758">
        <ele>2657.6999999999998</ele>
        <time>2018-07-13T10:20:17Z</time>
      </trkpt>
      <trkpt lat="46.196291539818048" lon="10.449241502210498">
        <ele>2658.1799999999998</ele>
        <time>2018-07-13T10:20:31Z</time>
      </trkpt>
      <trkpt lat="46.196287013590336" lon="10.449241166934371">
        <ele>2658.1799999999998</ele>
        <time>2018-07-13T10:20:41Z</time>
      </trkpt>
      <trkpt lat="46.196294305846095" lon="10.449234712868929">
        <ele>2658.1799999999998</ele>
        <time>2018-07-13T10:20:52Z</time>
      </trkpt>
      <trkpt lat="46.196327330544591" lon="10.449229767546058">
        <ele>2658.1799999999998</ele>
        <time>2018-07-13T10:21:07Z</time>
      </trkpt>
      <trkpt lat="46.196346860378981" lon="10.449255164712667">
        <ele>2660.1100000000001</ele>
        <time>2018-07-13T10:21:16Z</time>
      </trkpt>
      <trkpt lat="46.196406707167625" lon="10.449244268238544">
        <ele>2661.0700000000002</ele>
        <time>2018-07-13T10:21:27Z</time>
      </trkpt>
      <trkpt lat="46.196451634168625" lon="10.449274107813835">
        <ele>2660.5900000000001</ele>
        <time>2018-07-13T10:21:37Z</time>
      </trkpt>
      <trkpt lat="46.196513408794999" lon="10.449238736182451">
        <ele>2661.0700000000002</ele>
        <time>2018-07-13T10:21:48Z</time>
      </trkpt>
      <trkpt lat="46.196539895609021" lon="10.449186265468597">
        <ele>2662.9899999999998</ele>
        <time>2018-07-13T10:21:58Z</time>
      </trkpt>
      <trkpt lat="46.196597898378968" lon="10.449134549126029">
        <ele>2664.4299999999998</ele>
        <time>2018-07-13T10:22:09Z</time>
      </trkpt>
      <trkpt lat="46.196625307202339" lon="10.449056010693312">
        <ele>2664.4299999999998</ele>
        <time>2018-07-13T10:22:19Z</time>
      </trkpt>
      <trkpt lat="46.196629833430052" lon="10.448986105620861">
        <ele>2665.3899999999999</ele>
        <time>2018-07-13T10:22:30Z</time>
      </trkpt>
      <trkpt lat="46.196644082665443" lon="10.44892156496644">
        <ele>2665.8699999999999</ele>
        <time>2018-07-13T10:22:40Z</time>
      </trkpt>
      <trkpt lat="46.19664047844708" lon="10.448888456448913">
        <ele>2665.3899999999999</ele>
        <time>2018-07-13T10:22:51Z</time>
      </trkpt>
      <trkpt lat="46.196633605286479" lon="10.448832800611854">
        <ele>2665.3899999999999</ele>
        <time>2018-07-13T10:23:00Z</time>
      </trkpt>
      <trkpt lat="46.1966756824404" lon="10.448796087875962">
        <ele>2667.3099999999999</ele>
        <time>2018-07-13T10:23:11Z</time>
      </trkpt>
      <trkpt lat="46.196713736280799" lon="10.448736827820539">
        <ele>2668.7600000000002</ele>
        <time>2018-07-13T10:23:23Z</time>
      </trkpt>
      <trkpt lat="46.196722788736224" lon="10.448693325743079">
        <ele>2670.6799999999998</ele>
        <time>2018-07-13T10:23:34Z</time>
      </trkpt>
      <trkpt lat="46.196744162589312" lon="10.448647141456604">
        <ele>2672.5999999999999</ele>
        <time>2018-07-13T10:23:46Z</time>
      </trkpt>
      <trkpt lat="46.196766709908843" lon="10.448611099272966">
        <ele>2674.04</ele>
        <time>2018-07-13T10:23:55Z</time>
      </trkpt>
      <trkpt lat="46.196797387674451" lon="10.44857363216579">
        <ele>2675.4899999999998</ele>
        <time>2018-07-13T10:24:06Z</time>
      </trkpt>
      <trkpt lat="46.196807781234384" lon="10.448521664366126">
        <ele>2676.9299999999998</ele>
        <time>2018-07-13T10:24:17Z</time>
      </trkpt>
      <trkpt lat="46.196820773184299" lon="10.448442958295345">
        <ele>2677.8899999999999</ele>
        <time>2018-07-13T10:24:27Z</time>
      </trkpt>
      <trkpt lat="46.196852037683129" lon="10.448388559743762">
        <ele>2679.3299999999999</ele>
        <time>2018-07-13T10:24:37Z</time>
      </trkpt>
      <trkpt lat="46.196864191442728" lon="10.448363414034247">
        <ele>2680.29</ele>
        <time>2018-07-13T10:24:46Z</time>
      </trkpt>
      <trkpt lat="46.196887996047735" lon="10.448317816480994">
        <ele>2681.25</ele>
        <time>2018-07-13T10:24:56Z</time>
      </trkpt>
      <trkpt lat="46.19692194275558" lon="10.448307255282998">
        <ele>2682.6999999999998</ele>
        <time>2018-07-13T10:25:05Z</time>
      </trkpt>
      <trkpt lat="46.196944573894143" lon="10.448271296918392">
        <ele>2685.0999999999999</ele>
        <time>2018-07-13T10:25:16Z</time>
      </trkpt>
      <trkpt lat="46.196958655491471" lon="10.44818957336247">
        <ele>2686.54</ele>
        <time>2018-07-13T10:25:27Z</time>
      </trkpt>
      <trkpt lat="46.196991512551904" lon="10.448139533400536">
        <ele>2688.46</ele>
        <time>2018-07-13T10:25:39Z</time>
      </trkpt>
      <trkpt lat="46.197009868919849" lon="10.448103407397866">
        <ele>2688.46</ele>
        <time>2018-07-13T10:25:44Z</time>
      </trkpt>
      <trkpt lat="46.197039373219013" lon="10.448050936684012">
        <ele>2689.4299999999998</ele>
        <time>2018-07-13T10:25:53Z</time>
      </trkpt>
      <trkpt lat="46.197058651596308" lon="10.447994694113731">
        <ele>2687.5</ele>
        <time>2018-07-13T10:26:01Z</time>
      </trkpt>
      <trkpt lat="46.197092263028026" lon="10.447956891730428">
        <ele>2687.02</ele>
        <time>2018-07-13T10:26:10Z</time>
      </trkpt>
      <trkpt lat="46.197115564718843" lon="10.447922693565488">
        <ele>2687.98</ele>
        <time>2018-07-13T10:26:21Z</time>
      </trkpt>
      <trkpt lat="46.197106596082449" lon="10.447892434895039">
        <ele>2687.5</ele>
        <time>2018-07-13T10:26:26Z</time>
      </trkpt>
      <trkpt lat="46.197126377373934" lon="10.447829905897379">
        <ele>2687.98</ele>
        <time>2018-07-13T10:26:36Z</time>
      </trkpt>
      <trkpt lat="46.197139536961913" lon="10.447782296687365">
        <ele>2687.98</ele>
        <time>2018-07-13T10:26:48Z</time>
      </trkpt>
      <trkpt lat="46.197155881673098" lon="10.447738207876682">
        <ele>2688.9400000000001</ele>
        <time>2018-07-13T10:27:01Z</time>
      </trkpt>
      <trkpt lat="46.197169460356236" lon="10.447649443522096">
        <ele>2690.3899999999999</ele>
        <time>2018-07-13T10:27:11Z</time>
      </trkpt>
      <trkpt lat="46.19718924164772" lon="10.447630081325769">
        <ele>2692.3099999999999</ele>
        <time>2018-07-13T10:27:22Z</time>
      </trkpt>
      <trkpt lat="46.197204496711493" lon="10.447561182081699">
        <ele>2693.27</ele>
        <time>2018-07-13T10:27:33Z</time>
      </trkpt>
      <trkpt lat="46.197233330458403" lon="10.44745565392077">
        <ele>2692.79</ele>
        <time>2018-07-13T10:27:44Z</time>
      </trkpt>
      <trkpt lat="46.197244226932526" lon="10.447422964498401">
        <ele>2693.75</ele>
        <time>2018-07-13T10:27:53Z</time>
      </trkpt>
      <trkpt lat="46.197264930233359" lon="10.44744249433279">
        <ele>2694.71</ele>
        <time>2018-07-13T10:28:07Z</time>
      </trkpt>
      <trkpt lat="46.197302481159568" lon="10.447446685284376">
        <ele>2696.6399999999999</ele>
        <time>2018-07-13T10:28:17Z</time>
      </trkpt>
      <trkpt lat="46.19731530547142" lon="10.447401171550155">
        <ele>2698.5599999999999</ele>
        <time>2018-07-13T10:28:26Z</time>
      </trkpt>
      <trkpt lat="46.197321591898799" lon="10.447326069697738">
        <ele>2699.04</ele>
        <time>2018-07-13T10:28:36Z</time>
      </trkpt>
      <trkpt lat="46.197341876104474" lon="10.447285333648324">
        <ele>2699.52</ele>
        <time>2018-07-13T10:28:45Z</time>
      </trkpt>
      <trkpt lat="46.197356209158897" lon="10.447237053886056">
        <ele>2700.48</ele>
        <time>2018-07-13T10:28:54Z</time>
      </trkpt>
      <trkpt lat="46.197361489757895" lon="10.447188774123788">
        <ele>2700.48</ele>
        <time>2018-07-13T10:29:02Z</time>
      </trkpt>
      <trkpt lat="46.19736903347075" lon="10.447143763303757">
        <ele>2700.96</ele>
        <time>2018-07-13T10:29:12Z</time>
      </trkpt>
      <trkpt lat="46.197369284927845" lon="10.447110068053007">
        <ele>2700.96</ele>
        <time>2018-07-13T10:29:20Z</time>
      </trkpt>
      <trkpt lat="46.197379007935524" lon="10.447079222649336">
        <ele>2701.4400000000001</ele>
        <time>2018-07-13T10:29:29Z</time>
      </trkpt>
      <trkpt lat="46.197380851954222" lon="10.447030188515782">
        <ele>2701.9200000000001</ele>
        <time>2018-07-13T10:29:38Z</time>
      </trkpt>
      <trkpt lat="46.197372134774923" lon="10.446995152160525">
        <ele>2701.9200000000001</ele>
        <time>2018-07-13T10:29:49Z</time>
      </trkpt>
      <trkpt lat="46.197373894974589" lon="10.446958942338824">
        <ele>2703.3600000000001</ele>
        <time>2018-07-13T10:29:57Z</time>
      </trkpt>
      <trkpt lat="46.197384539991617" lon="10.446920720860362">
        <ele>2703.3600000000001</ele>
        <time>2018-07-13T10:30:06Z</time>
      </trkpt>
      <trkpt lat="46.197411362081766" lon="10.446888785809278">
        <ele>2706.25</ele>
        <time>2018-07-13T10:30:18Z</time>
      </trkpt>
      <trkpt lat="46.197445560246706" lon="10.446859616786242">
        <ele>2706.73</ele>
        <time>2018-07-13T10:30:28Z</time>
      </trkpt>
      <trkpt lat="46.197472382336855" lon="10.44683170504868">
        <ele>2707.6900000000001</ele>
        <time>2018-07-13T10:30:37Z</time>
      </trkpt>
      <trkpt lat="46.197483614087105" lon="10.446804044768214">
        <ele>2709.1300000000001</ele>
        <time>2018-07-13T10:30:46Z</time>
      </trkpt>
      <trkpt lat="46.197502473369241" lon="10.446764063090086">
        <ele>2710.0900000000001</ele>
        <time>2018-07-13T10:30:56Z</time>
      </trkpt>
      <trkpt lat="46.197496438398957" lon="10.446719471365213">
        <ele>2710.5700000000002</ele>
        <time>2018-07-13T10:31:05Z</time>
      </trkpt>
      <trkpt lat="46.197501132264733" lon="10.44666557572782">
        <ele>2712.02</ele>
        <time>2018-07-13T10:31:18Z</time>
      </trkpt>
      <trkpt lat="46.197520243003964" lon="10.446657612919807">
        <ele>2712.5</ele>
        <time>2018-07-13T10:31:35Z</time>
      </trkpt>
      <trkpt lat="46.197526697069407" lon="10.446625845506787">
        <ele>2712.5</ele>
        <time>2018-07-13T10:31:41Z</time>
      </trkpt>
      <trkpt lat="46.197535498067737" lon="10.446610422804952">
        <ele>2712.02</ele>
        <time>2018-07-13T10:31:43Z</time>
      </trkpt>
      <trkpt lat="46.197549914941192" lon="10.446557281538844">
        <ele>2711.54</ele>
        <time>2018-07-13T10:31:52Z</time>
      </trkpt>
      <trkpt lat="46.197545640170574" lon="10.446475809440017">
        <ele>2711.54</ele>
        <time>2018-07-13T10:32:02Z</time>
      </trkpt>
      <trkpt lat="46.197547316551208" lon="10.446439683437347">
        <ele>2711.54</ele>
        <time>2018-07-13T10:32:13Z</time>
      </trkpt>
      <trkpt lat="46.19755033403635" lon="10.446384195238352">
        <ele>2712.98</ele>
        <time>2018-07-13T10:32:22Z</time>
      </trkpt>
      <trkpt lat="46.197561398148537" lon="10.446342453360558">
        <ele>2713.9400000000001</ele>
        <time>2018-07-13T10:32:31Z</time>
      </trkpt>
      <trkpt lat="46.197580760344863" lon="10.446319822221994">
        <ele>2714.9000000000001</ele>
        <time>2018-07-13T10:32:40Z</time>
      </trkpt>
      <trkpt lat="46.197603307664394" lon="10.446289647370577">
        <ele>2716.3400000000001</ele>
        <time>2018-07-13T10:32:49Z</time>
      </trkpt>
      <trkpt lat="46.197620574384928" lon="10.446267267689109">
        <ele>2717.3000000000002</ele>
        <time>2018-07-13T10:32:57Z</time>
      </trkpt>
      <trkpt lat="46.197611438110471" lon="10.446225190535188">
        <ele>2718.75</ele>
        <time>2018-07-13T10:33:08Z</time>
      </trkpt>
      <trkpt lat="46.197607833892107" lon="10.446187220513821">
        <ele>2719.71</ele>
        <time>2018-07-13T10:33:18Z</time>
      </trkpt>
      <trkpt lat="46.197626106441021" lon="10.446162996813655">
        <ele>2719.71</ele>
        <time>2018-07-13T10:33:30Z</time>
      </trkpt>
      <trkpt lat="46.197623424232006" lon="10.446119913831353">
        <ele>2720.1900000000001</ele>
        <time>2018-07-13T10:33:39Z</time>
      </trkpt>
      <trkpt lat="46.197638511657715" lon="10.446074400097132">
        <ele>2720.6700000000001</ele>
        <time>2018-07-13T10:33:47Z</time>
      </trkpt>
      <trkpt lat="46.197636416181922" lon="10.44602888636291">
        <ele>2721.1500000000001</ele>
        <time>2018-07-13T10:33:58Z</time>
      </trkpt>
      <trkpt lat="46.197632476687431" lon="10.446003656834364">
        <ele>2722.1100000000001</ele>
        <time>2018-07-13T10:34:09Z</time>
      </trkpt>
      <trkpt lat="46.197624932974577" lon="10.445981193333864">
        <ele>2722.5900000000001</ele>
        <time>2018-07-13T10:34:22Z</time>
      </trkpt>
      <trkpt lat="46.197625352069736" lon="10.445947581902146">
        <ele>2724.0300000000002</ele>
        <time>2018-07-13T10:34:31Z</time>
      </trkpt>
      <trkpt lat="46.197646809741855" lon="10.44591992162168">
        <ele>2724.9899999999998</ele>
        <time>2018-07-13T10:34:42Z</time>
      </trkpt>
      <trkpt lat="46.197671871632338" lon="10.445897374302149">
        <ele>2726.9200000000001</ele>
        <time>2018-07-13T10:34:54Z</time>
      </trkpt>
      <trkpt lat="46.197694502770901" lon="10.445896703749895">
        <ele>2727.4000000000001</ele>
        <time>2018-07-13T10:35:03Z</time>
      </trkpt>
      <trkpt lat="46.197683354839683" lon="10.445852614939213">
        <ele>2729.3200000000002</ele>
        <time>2018-07-13T10:35:13Z</time>
      </trkpt>
      <trkpt lat="46.197704896330833" lon="10.445841550827026">
        <ele>2730.2800000000002</ele>
        <time>2018-07-13T10:35:24Z</time>
      </trkpt>
      <trkpt lat="46.197702633216977" lon="10.445811627432704">
        <ele>2732.1999999999998</ele>
        <time>2018-07-13T10:35:38Z</time>
      </trkpt>
      <trkpt lat="46.197697268798947" lon="10.445773405954242">
        <ele>2733.6500000000001</ele>
        <time>2018-07-13T10:35:49Z</time>
      </trkpt>
      <trkpt lat="46.197709338739514" lon="10.445739459246397">
        <ele>2734.6100000000001</ele>
        <time>2018-07-13T10:35:59Z</time>
      </trkpt>
      <trkpt lat="46.197734987363219" lon="10.445713056251407">
        <ele>2735.5700000000002</ele>
        <time>2018-07-13T10:36:10Z</time>
      </trkpt>
      <trkpt lat="46.197754265740514" lon="10.445705093443394">
        <ele>2737.4899999999998</ele>
        <time>2018-07-13T10:36:20Z</time>
      </trkpt>
      <trkpt lat="46.197745632380247" lon="10.445661339908838">
        <ele>2739.4099999999999</ele>
        <time>2018-07-13T10:36:30Z</time>
      </trkpt>
      <trkpt lat="46.197735155001283" lon="10.445660334080458">
        <ele>2739.4099999999999</ele>
        <time>2018-07-13T10:36:42Z</time>
      </trkpt>
      <trkpt lat="46.197745632380247" lon="10.445611048489809">
        <ele>2739.8899999999999</ele>
        <time>2018-07-13T10:36:51Z</time>
      </trkpt>
      <trkpt lat="46.19777019135654" lon="10.44558615423739">
        <ele>2740.8600000000001</ele>
        <time>2018-07-13T10:37:03Z</time>
      </trkpt>
      <trkpt lat="46.197757953777909" lon="10.44554173015058">
        <ele>2741.3400000000001</ele>
        <time>2018-07-13T10:37:12Z</time>
      </trkpt>
      <trkpt lat="46.197782848030329" lon="10.44547869823873">
        <ele>2741.3400000000001</ele>
        <time>2018-07-13T10:37:22Z</time>
      </trkpt>
      <trkpt lat="46.197777986526489" lon="10.445465203374624">
        <ele>2740.8600000000001</ele>
        <time>2018-07-13T10:37:34Z</time>
      </trkpt>
      <trkpt lat="46.197781087830663" lon="10.445450115948915">
        <ele>2741.3400000000001</ele>
        <time>2018-07-13T10:37:43Z</time>
      </trkpt>
      <trkpt lat="46.197793828323483" lon="10.445393454283476">
        <ele>2741.8200000000002</ele>
        <time>2018-07-13T10:37:54Z</time>
      </trkpt>
      <trkpt lat="46.197791313752532" lon="10.445361351594329">
        <ele>2741.8200000000002</ele>
        <time>2018-07-13T10:38:04Z</time>
      </trkpt>
      <trkpt lat="46.197800952941179" lon="10.44530376791954">
        <ele>2742.3000000000002</ele>
        <time>2018-07-13T10:38:15Z</time>
      </trkpt>
      <trkpt lat="46.197807155549526" lon="10.445287674665451">
        <ele>2742.7800000000002</ele>
        <time>2018-07-13T10:38:24Z</time>
      </trkpt>
      <trkpt lat="46.197793325409293" lon="10.445252722129226">
        <ele>2741.8200000000002</ele>
        <time>2018-07-13T10:38:34Z</time>
      </trkpt>
      <trkpt lat="46.197795504704118" lon="10.445211818441749">
        <ele>2743.2600000000002</ele>
        <time>2018-07-13T10:38:46Z</time>
      </trkpt>
      <trkpt lat="46.197806065902114" lon="10.445168148726225">
        <ele>2742.7800000000002</ele>
        <time>2018-07-13T10:38:59Z</time>
      </trkpt>
      <trkpt lat="46.197818722575903" lon="10.445129759609699">
        <ele>2743.7399999999998</ele>
        <time>2018-07-13T10:39:10Z</time>
      </trkpt>
      <trkpt lat="46.197817381471395" lon="10.445092124864459">
        <ele>2743.7399999999998</ele>
        <time>2018-07-13T10:39:21Z</time>
      </trkpt>
      <trkpt lat="46.197819644585252" lon="10.445081731304526">
        <ele>2744.6999999999998</ele>
        <time>2018-07-13T10:39:32Z</time>
      </trkpt>
      <trkpt lat="46.197827104479074" lon="10.445039486512542">
        <ele>2745.6599999999999</ele>
        <time>2018-07-13T10:39:43Z</time>
      </trkpt>
      <trkpt lat="46.197829954326153" lon="10.445000007748604">
        <ele>2745.1799999999998</ele>
        <time>2018-07-13T10:39:53Z</time>
      </trkpt>
      <trkpt lat="46.19781319051981" lon="10.444979052990675">
        <ele>2746.1399999999999</ele>
        <time>2018-07-13T10:40:04Z</time>
      </trkpt>
      <trkpt lat="46.197803802788258" lon="10.444920966401696">
        <ele>2746.6199999999999</ele>
        <time>2018-07-13T10:40:15Z</time>
      </trkpt>
      <trkpt lat="46.197792235761881" lon="10.444879559800029">
        <ele>2747.0999999999999</ele>
        <time>2018-07-13T10:40:29Z</time>
      </trkpt>
      <trkpt lat="46.197791146114469" lon="10.444826418533921">
        <ele>2747.5900000000001</ele>
        <time>2018-07-13T10:40:40Z</time>
      </trkpt>
      <trkpt lat="46.197787709534168" lon="10.444776378571987">
        <ele>2747.5900000000001</ele>
        <time>2018-07-13T10:40:49Z</time>
      </trkpt>
      <trkpt lat="46.197791816666722" lon="10.444734301418066">
        <ele>2748.0700000000002</ele>
        <time>2018-07-13T10:40:57Z</time>
      </trkpt>
      <trkpt lat="46.197792151942849" lon="10.444716196507215">
        <ele>2748.0700000000002</ele>
        <time>2018-07-13T10:41:06Z</time>
      </trkpt>
      <trkpt lat="46.197786871343851" lon="10.444688117131591">
        <ele>2747.5900000000001</ele>
        <time>2018-07-13T10:41:16Z</time>
      </trkpt>
      <trkpt lat="46.197788128629327" lon="10.444666910916567">
        <ele>2748.5500000000002</ele>
        <time>2018-07-13T10:41:26Z</time>
      </trkpt>
      <trkpt lat="46.197773292660713" lon="10.444624833762646">
        <ele>2749.5100000000002</ele>
        <time>2018-07-13T10:41:40Z</time>
      </trkpt>
      <trkpt lat="46.197769856080413" lon="10.44459231197834">
        <ele>2750.4699999999998</ele>
        <time>2018-07-13T10:41:49Z</time>
      </trkpt>
      <trkpt lat="46.197774717584252" lon="10.444552917033434">
        <ele>2750.9499999999998</ele>
        <time>2018-07-13T10:42:00Z</time>
      </trkpt>
      <trkpt lat="46.197776226326823" lon="10.444509666413069">
        <ele>2750.9499999999998</ele>
        <time>2018-07-13T10:42:12Z</time>
      </trkpt>
      <trkpt lat="46.197776226326823" lon="10.444486197084188">
        <ele>2751.4299999999998</ele>
        <time>2018-07-13T10:42:23Z</time>
      </trkpt>
      <trkpt lat="46.197767844423652" lon="10.444439761340618">
        <ele>2751.9099999999999</ele>
        <time>2018-07-13T10:42:32Z</time>
      </trkpt>
      <trkpt lat="46.197780249640346" lon="10.444417297840118">
        <ele>2753.3499999999999</ele>
        <time>2018-07-13T10:42:42Z</time>
      </trkpt>
      <trkpt lat="46.197783015668392" lon="10.444370191544294">
        <ele>2753.8299999999999</ele>
        <time>2018-07-13T10:42:51Z</time>
      </trkpt>
      <trkpt lat="46.197783518582582" lon="10.44433674775064">
        <ele>2754.8000000000002</ele>
        <time>2018-07-13T10:43:02Z</time>
      </trkpt>
      <trkpt lat="46.197785530239344" lon="10.444305399432778">
        <ele>2754.8000000000002</ele>
        <time>2018-07-13T10:43:13Z</time>
      </trkpt>
      <trkpt lat="46.197779159992933" lon="10.444271620362997">
        <ele>2755.2800000000002</ele>
        <time>2018-07-13T10:43:23Z</time>
      </trkpt>
      <trkpt lat="46.197775639593601" lon="10.44422434642911">
        <ele>2755.7600000000002</ele>
        <time>2018-07-13T10:43:33Z</time>
      </trkpt>
      <trkpt lat="46.197797600179911" lon="10.444200374186039">
        <ele>2756.7199999999998</ele>
        <time>2018-07-13T10:43:43Z</time>
      </trkpt>
      <trkpt lat="46.197781506925821" lon="10.44416525401175">
        <ele>2755.7600000000002</ele>
        <time>2018-07-13T10:43:54Z</time>
      </trkpt>
      <trkpt lat="46.197779830545187" lon="10.444125356152654">
        <ele>2758.1599999999999</ele>
        <time>2018-07-13T10:44:05Z</time>
      </trkpt>
      <trkpt lat="46.197779076173902" lon="10.444091912358999">
        <ele>2757.1999999999998</ele>
        <time>2018-07-13T10:44:17Z</time>
      </trkpt>
      <trkpt lat="46.197761474177241" lon="10.444049248471856">
        <ele>2758.1599999999999</ele>
        <time>2018-07-13T10:44:29Z</time>
      </trkpt>
      <trkpt lat="46.197796510532498" lon="10.444042878225446">
        <ele>2759.1199999999999</ele>
        <time>2018-07-13T10:44:41Z</time>
      </trkpt>
      <trkpt lat="46.197814280167222" lon="10.444008177146316">
        <ele>2760.0799999999999</ele>
        <time>2018-07-13T10:44:51Z</time>
      </trkpt>
      <trkpt lat="46.19782148860395" lon="10.443966770544648">
        <ele>2761.52</ele>
        <time>2018-07-13T10:45:03Z</time>
      </trkpt>
      <trkpt lat="46.197815537452698" lon="10.44393802061677">
        <ele>2761.52</ele>
        <time>2018-07-13T10:45:12Z</time>
      </trkpt>
      <trkpt lat="46.197807239368558" lon="10.443907761946321">
        <ele>2762</ele>
        <time>2018-07-13T10:45:22Z</time>
      </trkpt>
      <trkpt lat="46.197791816666722" lon="10.443881107494235">
        <ele>2761.52</ele>
        <time>2018-07-13T10:45:29Z</time>
      </trkpt>
      <trkpt lat="46.197786368429661" lon="10.443856464698911">
        <ele>2762</ele>
        <time>2018-07-13T10:45:38Z</time>
      </trkpt>
      <trkpt lat="46.197779243811965" lon="10.443828972056508">
        <ele>2763.4499999999998</ele>
        <time>2018-07-13T10:45:49Z</time>
      </trkpt>
      <trkpt lat="46.197789888828993" lon="10.443781949579716">
        <ele>2763.9299999999998</ele>
        <time>2018-07-13T10:46:00Z</time>
      </trkpt>
      <trkpt lat="46.197776310145855" lon="10.443777926266193">
        <ele>2764.4099999999999</ele>
        <time>2018-07-13T10:46:09Z</time>
      </trkpt>
      <trkpt lat="46.197770107537508" lon="10.443762252107263">
        <ele>2764.8899999999999</ele>
        <time>2018-07-13T10:46:20Z</time>
      </trkpt>
      <trkpt lat="46.197781171649694" lon="10.443719923496246">
        <ele>2764.8899999999999</ele>
        <time>2018-07-13T10:46:29Z</time>
      </trkpt>
      <trkpt lat="46.197769939899445" lon="10.443682204931974">
        <ele>2765.8499999999999</ele>
        <time>2018-07-13T10:46:40Z</time>
      </trkpt>
      <trkpt lat="46.197765748947859" lon="10.44362923130393">
        <ele>2766.3299999999999</ele>
        <time>2018-07-13T10:46:53Z</time>
      </trkpt>
      <trkpt lat="46.197755271568894" lon="10.443596206605434">
        <ele>2766.8099999999999</ele>
        <time>2018-07-13T10:47:03Z</time>
      </trkpt>
      <trkpt lat="46.197743201628327" lon="10.443583130836487">
        <ele>2767.77</ele>
        <time>2018-07-13T10:47:11Z</time>
      </trkpt>
      <trkpt lat="46.197734819725156" lon="10.443543987348676">
        <ele>2768.25</ele>
        <time>2018-07-13T10:47:22Z</time>
      </trkpt>
      <trkpt lat="46.19771646335721" lon="10.443543903529644">
        <ele>2768.73</ele>
        <time>2018-07-13T10:47:29Z</time>
      </trkpt>
      <trkpt lat="46.197692407295108" lon="10.443471651524305">
        <ele>2768.73</ele>
        <time>2018-07-13T10:47:39Z</time>
      </trkpt>
      <trkpt lat="46.197685366496444" lon="10.443418091163039">
        <ele>2769.21</ele>
        <time>2018-07-13T10:47:49Z</time>
      </trkpt>
      <trkpt lat="46.197669692337513" lon="10.443383054807782">
        <ele>2769.6999999999998</ele>
        <time>2018-07-13T10:48:00Z</time>
      </trkpt>
      <trkpt lat="46.197653096169233" lon="10.443352377042174">
        <ele>2770.1799999999998</ele>
        <time>2018-07-13T10:48:10Z</time>
      </trkpt>
      <trkpt lat="46.197647480294108" lon="10.443344749510288">
        <ele>2770.6599999999999</ele>
        <time>2018-07-13T10:48:22Z</time>
      </trkpt>
      <trkpt lat="46.197630129754543" lon="10.443306863307953">
        <ele>2770.6599999999999</ele>
        <time>2018-07-13T10:48:33Z</time>
      </trkpt>
      <trkpt lat="46.197645803913474" lon="10.443283226341009">
        <ele>2770.6599999999999</ele>
        <time>2018-07-13T10:48:48Z</time>
      </trkpt>
      <trkpt lat="46.197635158896446" lon="10.443275766447186">
        <ele>2770.6599999999999</ele>
        <time>2018-07-13T10:49:04Z</time>
      </trkpt>
      <trkpt lat="46.19762216694653" lon="10.443293368443847">
        <ele>2770.6599999999999</ele>
        <time>2018-07-13T10:49:19Z</time>
      </trkpt>
      <trkpt lat="46.197628285735846" lon="10.443298816680908">
        <ele>2771.1399999999999</ele>
        <time>2018-07-13T10:49:30Z</time>
      </trkpt>
      <trkpt lat="46.197616551071405" lon="10.443280627951026">
        <ele>2772.0999999999999</ele>
        <time>2018-07-13T10:49:42Z</time>
      </trkpt>
      <trkpt lat="46.197594003751874" lon="10.443260930478573">
        <ele>2772.0999999999999</ele>
        <time>2018-07-13T10:49:51Z</time>
      </trkpt>
      <trkpt lat="46.197595596313477" lon="10.443225810304284">
        <ele>2772.5799999999999</ele>
        <time>2018-07-13T10:50:03Z</time>
      </trkpt>
      <trkpt lat="46.197584951296449" lon="10.443241903558373">
        <ele>2772.5799999999999</ele>
        <time>2018-07-13T10:50:10Z</time>
      </trkpt>
      <trkpt lat="46.197581011801958" lon="10.443187253549695">
        <ele>2772.5799999999999</ele>
        <time>2018-07-13T10:50:20Z</time>
      </trkpt>
      <trkpt lat="46.197549244388938" lon="10.443181805312634">
        <ele>2773.0599999999999</ele>
        <time>2018-07-13T10:50:28Z</time>
      </trkpt>
      <trkpt lat="46.197542455047369" lon="10.4431611020118">
        <ele>2774.02</ele>
        <time>2018-07-13T10:50:38Z</time>
      </trkpt>
      <trkpt lat="46.197530804201961" lon="10.443141991272569">
        <ele>2773.0599999999999</ele>
        <time>2018-07-13T10:50:48Z</time>
      </trkpt>
      <trkpt lat="46.197517141699791" lon="10.443120282143354">
        <ele>2772.5799999999999</ele>
        <time>2018-07-13T10:51:02Z</time>
      </trkpt>
      <trkpt lat="46.19749316945672" lon="10.44309563934803">
        <ele>2772.0999999999999</ele>
        <time>2018-07-13T10:51:10Z</time>
      </trkpt>
      <trkpt lat="46.19748193770647" lon="10.443066637963057">
        <ele>2773.0599999999999</ele>
        <time>2018-07-13T10:51:20Z</time>
      </trkpt>
      <trkpt lat="46.1974614020437" lon="10.44304333627224">
        <ele>2773.0599999999999</ele>
        <time>2018-07-13T10:51:30Z</time>
      </trkpt>
      <trkpt lat="46.197456540539861" lon="10.443056663498282">
        <ele>2773.54</ele>
        <time>2018-07-13T10:51:37Z</time>
      </trkpt>
      <trkpt lat="46.197432819753885" lon="10.443040654063225">
        <ele>2773.0599999999999</ele>
        <time>2018-07-13T10:51:48Z</time>
      </trkpt>
      <trkpt lat="46.19745017029345" lon="10.443001259118319">
        <ele>2773.0599999999999</ele>
        <time>2018-07-13T10:51:58Z</time>
      </trkpt>
      <trkpt lat="46.197411445900798" lon="10.443009724840522">
        <ele>2773.54</ele>
        <time>2018-07-13T10:52:09Z</time>
      </trkpt>
      <trkpt lat="46.197402225807309" lon="10.442995894700289">
        <ele>2773.54</ele>
        <time>2018-07-13T10:52:15Z</time>
      </trkpt>
      <trkpt lat="46.197371548041701" lon="10.442978292703629">
        <ele>2773.54</ele>
        <time>2018-07-13T10:52:23Z</time>
      </trkpt>
      <trkpt lat="46.197354113683105" lon="10.442994888871908">
        <ele>2773.54</ele>
        <time>2018-07-13T10:52:33Z</time>
      </trkpt>
      <trkpt lat="46.197351766750216" lon="10.442940322682261">
        <ele>2774.5</ele>
        <time>2018-07-13T10:52:42Z</time>
      </trkpt>
      <trkpt lat="46.197381941601634" lon="10.44291827827692">
        <ele>2774.98</ele>
        <time>2018-07-13T10:52:53Z</time>
      </trkpt>
      <trkpt lat="46.197384623810649" lon="10.442872177809477">
        <ele>2775.9400000000001</ele>
        <time>2018-07-13T10:53:05Z</time>
      </trkpt>
      <trkpt lat="46.197355706244707" lon="10.442861700430512">
        <ele>2776.9099999999999</ele>
        <time>2018-07-13T10:53:15Z</time>
      </trkpt>
      <trkpt lat="46.197348330169916" lon="10.442821383476257">
        <ele>2777.8699999999999</ele>
        <time>2018-07-13T10:53:23Z</time>
      </trkpt>
      <trkpt lat="46.197325196117163" lon="10.442790621891618">
        <ele>2778.8299999999999</ele>
        <time>2018-07-13T10:53:34Z</time>
      </trkpt>
      <trkpt lat="46.197331650182605" lon="10.442736726254225">
        <ele>2780.27</ele>
        <time>2018-07-13T10:53:45Z</time>
      </trkpt>
      <trkpt lat="46.197332236915827" lon="10.442718286067247">
        <ele>2781.23</ele>
        <time>2018-07-13T10:53:55Z</time>
      </trkpt>
      <trkpt lat="46.197322178632021" lon="10.442709652706981">
        <ele>2782.1900000000001</ele>
        <time>2018-07-13T10:54:05Z</time>
      </trkpt>
      <trkpt lat="46.197326704859734" lon="10.442681824788451">
        <ele>2783.6300000000001</ele>
        <time>2018-07-13T10:54:16Z</time>
      </trkpt>
      <trkpt lat="46.197297871112823" lon="10.44267687946558">
        <ele>2784.5999999999999</ele>
        <time>2018-07-13T10:54:25Z</time>
      </trkpt>
      <trkpt lat="46.197287812829018" lon="10.442673023790121">
        <ele>2785.0799999999999</ele>
        <time>2018-07-13T10:54:34Z</time>
      </trkpt>
      <trkpt lat="46.197289153933525" lon="10.442624911665916">
        <ele>2786.04</ele>
        <time>2018-07-13T10:54:44Z</time>
      </trkpt>
      <trkpt lat="46.197278928011656" lon="10.442587612196803">
        <ele>2787</ele>
        <time>2018-07-13T10:54:56Z</time>
      </trkpt>
      <trkpt lat="46.197272809222341" lon="10.442584762349725">
        <ele>2787.96</ele>
        <time>2018-07-13T10:55:08Z</time>
      </trkpt>
      <trkpt lat="46.197299966588616" lon="10.442523909732699">
        <ele>2788.9200000000001</ele>
        <time>2018-07-13T10:55:19Z</time>
      </trkpt>
      <trkpt lat="46.19728253223002" lon="10.442503374069929">
        <ele>2790.8400000000001</ele>
        <time>2018-07-13T10:55:29Z</time>
      </trkpt>
      <trkpt lat="46.197274988517165" lon="10.442452244460583">
        <ele>2791.8099999999999</ele>
        <time>2018-07-13T10:55:41Z</time>
      </trkpt>
      <trkpt lat="46.197296446189284" lon="10.442429194226861">
        <ele>2792.77</ele>
        <time>2018-07-13T10:55:51Z</time>
      </trkpt>
      <trkpt lat="46.197283286601305" lon="10.442404970526695">
        <ele>2793.25</ele>
        <time>2018-07-13T10:56:02Z</time>
      </trkpt>
      <trkpt lat="46.197285717353225" lon="10.442386362701654">
        <ele>2794.6900000000001</ele>
        <time>2018-07-13T10:56:11Z</time>
      </trkpt>
      <trkpt lat="46.197307510301471" lon="10.442355265840888">
        <ele>2796.1300000000001</ele>
        <time>2018-07-13T10:56:21Z</time>
      </trkpt>
      <trkpt lat="46.197330141440034" lon="10.442331545054913">
        <ele>2797.0900000000001</ele>
        <time>2018-07-13T10:56:31Z</time>
      </trkpt>
      <trkpt lat="46.197348413988948" lon="10.442322073504329">
        <ele>2798.54</ele>
        <time>2018-07-13T10:56:42Z</time>
      </trkpt>
      <trkpt lat="46.1973837018013" lon="10.442285193130374">
        <ele>2799.5</ele>
        <time>2018-07-13T10:56:54Z</time>
      </trkpt>
      <trkpt lat="46.197409685701132" lon="10.442265663295984">
        <ele>2800.9400000000001</ele>
        <time>2018-07-13T10:57:07Z</time>
      </trkpt>
      <trkpt lat="46.197428125888109" lon="10.442240601405501">
        <ele>2802.3800000000001</ele>
        <time>2018-07-13T10:57:19Z</time>
      </trkpt>
      <trkpt lat="46.197434160858393" lon="10.442214785143733">
        <ele>2802.8600000000001</ele>
        <time>2018-07-13T10:57:31Z</time>
      </trkpt>
      <trkpt lat="46.197454947978258" lon="10.442203553393483">
        <ele>2804.3000000000002</ele>
        <time>2018-07-13T10:57:41Z</time>
      </trkpt>
      <trkpt lat="46.197448745369911" lon="10.442141946405172">
        <ele>2806.23</ele>
        <time>2018-07-13T10:57:51Z</time>
      </trkpt>
      <trkpt lat="46.197420498356223" lon="10.442134570330381">
        <ele>2807.1900000000001</ele>
        <time>2018-07-13T10:58:03Z</time>
      </trkpt>
      <trkpt lat="46.197416055947542" lon="10.442148149013519">
        <ele>2806.71</ele>
        <time>2018-07-13T10:58:18Z</time>
      </trkpt>
      <trkpt lat="46.19743307121098" lon="10.442123422399163">
        <ele>2806.71</ele>
        <time>2018-07-13T10:58:30Z</time>
      </trkpt>
      <trkpt lat="46.19743307121098" lon="10.442084530368447">
        <ele>2807.6700000000001</ele>
        <time>2018-07-13T10:58:41Z</time>
      </trkpt>
      <trkpt lat="46.19744966737926" lon="10.442085200920701">
        <ele>2807.1900000000001</ele>
        <time>2018-07-13T10:58:55Z</time>
      </trkpt>
      <trkpt lat="46.197455618530512" lon="10.442153597250581">
        <ele>2807.1900000000001</ele>
        <time>2018-07-13T10:59:10Z</time>
      </trkpt>
      <trkpt lat="46.197470622137189" lon="10.442155357450247">
        <ele>2806.23</ele>
        <time>2018-07-13T10:59:33Z</time>
      </trkpt>
      <trkpt lat="46.197481518611312" lon="10.442154938355088">
        <ele>2807.1900000000001</ele>
        <time>2018-07-13T10:59:45Z</time>
      </trkpt>
      <trkpt lat="46.197467437013984" lon="10.442143706604838">
        <ele>2806.71</ele>
        <time>2018-07-13T10:59:57Z</time>
      </trkpt>
      <trkpt lat="46.197458803653717" lon="10.442141275852919">
        <ele>2806.71</ele>
        <time>2018-07-13T11:00:14Z</time>
      </trkpt>
      <trkpt lat="46.197451930493116" lon="10.442140186205506">
        <ele>2807.1900000000001</ele>
        <time>2018-07-13T11:00:32Z</time>
      </trkpt>
      <trkpt lat="46.197486212477088" lon="10.442161979153752">
        <ele>2806.23</ele>
        <time>2018-07-13T11:00:55Z</time>
      </trkpt>
      <trkpt lat="46.197522841393948" lon="10.442212605848908">
        <ele>2807.1900000000001</ele>
        <time>2018-07-13T11:01:20Z</time>
      </trkpt>
      <trkpt lat="46.197499623522162" lon="10.442178072407842">
        <ele>2806.71</ele>
        <time>2018-07-13T11:01:51Z</time>
      </trkpt>
      <trkpt lat="46.197446985170245" lon="10.442130714654922">
        <ele>2807.1900000000001</ele>
        <time>2018-07-13T11:02:17Z</time>
      </trkpt>
      <trkpt lat="46.197492331266403" lon="10.442164661362767">
        <ele>2807.1900000000001</ele>
        <time>2018-07-13T11:02:52Z</time>
      </trkpt>
      <trkpt lat="46.197479423135519" lon="10.442152256146073">
        <ele>2807.1900000000001</ele>
        <time>2018-07-13T11:03:27Z</time>
      </trkpt>
      <trkpt lat="46.197473639622331" lon="10.442170947790146">
        <ele>2807.1900000000001</ele>
        <time>2018-07-13T11:03:55Z</time>
      </trkpt>
      <trkpt lat="46.197474477812648" lon="10.442177066579461">
        <ele>2807.6700000000001</ele>
        <time>2018-07-13T11:04:19Z</time>
      </trkpt>
      <trkpt lat="46.197453439235687" lon="10.442169774323702">
        <ele>2808.1500000000001</ele>
        <time>2018-07-13T11:04:52Z</time>
      </trkpt>
      <trkpt lat="46.197450086474419" lon="10.442188633605838">
        <ele>2807.6700000000001</ele>
        <time>2018-07-13T11:05:19Z</time>
      </trkpt>
      <trkpt lat="46.1974579654634" lon="10.442152423784137">
        <ele>2807.6700000000001</ele>
        <time>2018-07-13T11:05:41Z</time>
      </trkpt>
      <trkpt lat="46.197450254112482" lon="10.442227693274617">
        <ele>2807.6700000000001</ele>
        <time>2018-07-13T11:06:12Z</time>
      </trkpt>
      <trkpt lat="46.19746919721365" lon="10.442176563665271">
        <ele>2807.6700000000001</ele>
        <time>2018-07-13T11:06:43Z</time>
      </trkpt>
      <trkpt lat="46.197472466155887" lon="10.442154016345739">
        <ele>2807.6700000000001</ele>
        <time>2018-07-13T11:07:09Z</time>
      </trkpt>
      <trkpt lat="46.197469113394618" lon="10.442148400470614">
        <ele>2808.1500000000001</ele>
        <time>2018-07-13T11:07:38Z</time>
      </trkpt>
      <trkpt lat="46.197467101737857" lon="10.442160218954086">
        <ele>2807.6700000000001</ele>
        <time>2018-07-13T11:08:08Z</time>
      </trkpt>
      <trkpt lat="46.19748093187809" lon="10.442170444875956">
        <ele>2807.6700000000001</ele>
        <time>2018-07-13T11:08:38Z</time>
      </trkpt>
      <trkpt lat="46.197481853887439" lon="10.442181257531047">
        <ele>2807.6700000000001</ele>
        <time>2018-07-13T11:09:09Z</time>
      </trkpt>
      <trkpt lat="46.197465844452381" lon="10.442200535908341">
        <ele>2807.6700000000001</ele>
        <time>2018-07-13T11:09:35Z</time>
      </trkpt>
      <trkpt lat="46.197470957413316" lon="10.442162817344069">
        <ele>2807.6700000000001</ele>
        <time>2018-07-13T11:10:02Z</time>
      </trkpt>
      <trkpt lat="46.197444051504135" lon="10.44214085675776">
        <ele>2808.1500000000001</ele>
        <time>2018-07-13T11:10:29Z</time>
      </trkpt>
      <trkpt lat="46.197415133938193" lon="10.44214135967195">
        <ele>2808.1500000000001</ele>
        <time>2018-07-13T11:11:03Z</time>
      </trkpt>
      <trkpt lat="46.197440195828676" lon="10.442182766273618">
        <ele>2808.1500000000001</ele>
        <time>2018-07-13T11:11:39Z</time>
      </trkpt>
      <trkpt lat="46.197424856945872" lon="10.442172540351748">
        <ele>2809.1100000000001</ele>
        <time>2018-07-13T11:12:12Z</time>
      </trkpt>
      <trkpt lat="46.197420749813318" lon="10.442129205912352">
        <ele>2809.1100000000001</ele>
        <time>2018-07-13T11:12:38Z</time>
      </trkpt>
      <trkpt lat="46.197396526113153" lon="10.442095259204507">
        <ele>2808.6300000000001</ele>
        <time>2018-07-13T11:13:11Z</time>
      </trkpt>
      <trkpt lat="46.197395268827677" lon="10.442087883129716">
        <ele>2808.6300000000001</ele>
        <time>2018-07-13T11:13:45Z</time>
      </trkpt>
      <trkpt lat="46.197369871661067" lon="10.442061144858599">
        <ele>2809.1100000000001</ele>
        <time>2018-07-13T11:14:17Z</time>
      </trkpt>
      <trkpt lat="46.197399711236358" lon="10.4421042278409">
        <ele>2808.6300000000001</ele>
        <time>2018-07-13T11:14:45Z</time>
      </trkpt>
      <trkpt lat="46.197416894137859" lon="10.442134737968445">
        <ele>2808.6300000000001</ele>
        <time>2018-07-13T11:15:15Z</time>
      </trkpt>
      <trkpt lat="46.197427036240697" lon="10.442162817344069">
        <ele>2807.6700000000001</ele>
        <time>2018-07-13T11:15:40Z</time>
      </trkpt>
      <trkpt lat="46.197432903572917" lon="10.44218142516911">
        <ele>2807.1900000000001</ele>
        <time>2018-07-13T11:16:03Z</time>
      </trkpt>
      <trkpt lat="46.197435921058059" lon="10.442208917811513">
        <ele>2807.1900000000001</ele>
        <time>2018-07-13T11:16:29Z</time>
      </trkpt>
      <trkpt lat="46.197524266317487" lon="10.442243702709675">
        <ele>2807.1900000000001</ele>
        <time>2018-07-13T11:16:53Z</time>
      </trkpt>
      <trkpt lat="46.197484787553549" lon="10.442217634990811">
        <ele>2807.1900000000001</ele>
        <time>2018-07-13T11:17:26Z</time>
      </trkpt>
      <trkpt lat="46.197449583560228" lon="10.442176563665271">
        <ele>2807.1900000000001</ele>
        <time>2018-07-13T11:17:54Z</time>
      </trkpt>
      <trkpt lat="46.197479255497456" lon="10.442192070186138">
        <ele>2807.1900000000001</ele>
        <time>2018-07-13T11:18:22Z</time>
      </trkpt>
      <trkpt lat="46.197490822523832" lon="10.442218640819192">
        <ele>2807.1900000000001</ele>
        <time>2018-07-13T11:18:44Z</time>
      </trkpt>
      <trkpt lat="46.197513956576586" lon="10.442267004400492">
        <ele>2807.6700000000001</ele>
        <time>2018-07-13T11:19:14Z</time>
      </trkpt>
      <trkpt lat="46.197504568845034" lon="10.442215790972114">
        <ele>2807.6700000000001</ele>
        <time>2018-07-13T11:19:40Z</time>
      </trkpt>
      <trkpt lat="46.19746676646173" lon="10.442155944183469">
        <ele>2807.6700000000001</ele>
        <time>2018-07-13T11:20:16Z</time>
      </trkpt>
      <trkpt lat="46.197456540539861" lon="10.442171031609178">
        <ele>2807.6700000000001</ele>
        <time>2018-07-13T11:20:37Z</time>
      </trkpt>
      <trkpt lat="46.19745503179729" lon="10.442157620564103">
        <ele>2808.1500000000001</ele>
        <time>2018-07-13T11:20:42Z</time>
      </trkpt>
      <trkpt lat="46.197473304346204" lon="10.442154435440898">
        <ele>2809.5900000000001</ele>
        <time>2018-07-13T11:20:51Z</time>
      </trkpt>
      <trkpt lat="46.197471879422665" lon="10.442124595865607">
        <ele>2808.1500000000001</ele>
        <time>2018-07-13T11:21:07Z</time>
      </trkpt>
      <trkpt lat="46.197471292689443" lon="10.442124092951417">
        <ele>2808.1500000000001</ele>
        <time>2018-07-13T11:21:19Z</time>
      </trkpt>
      <trkpt lat="46.197458049282432" lon="10.442132810130715">
        <ele>2808.6300000000001</ele>
        <time>2018-07-13T11:21:33Z</time>
      </trkpt>
      <trkpt lat="46.197444805875421" lon="10.442129205912352">
        <ele>2809.1100000000001</ele>
        <time>2018-07-13T11:21:45Z</time>
      </trkpt>
      <trkpt lat="46.19744673371315" lon="10.442192992195487">
        <ele>2809.1100000000001</ele>
        <time>2018-07-13T11:22:00Z</time>
      </trkpt>
      <trkpt lat="46.197414631024003" lon="10.442179245874286">
        <ele>2807.6700000000001</ele>
        <time>2018-07-13T11:22:09Z</time>
      </trkpt>
      <trkpt lat="46.197409769520164" lon="10.442123925313354">
        <ele>2808.1500000000001</ele>
        <time>2018-07-13T11:22:26Z</time>
      </trkpt>
      <trkpt lat="46.197434663772583" lon="10.442089391872287">
        <ele>2806.71</ele>
        <time>2018-07-13T11:22:42Z</time>
      </trkpt>
      <trkpt lat="46.197408344596624" lon="10.442062821239233">
        <ele>2804.7800000000002</ele>
        <time>2018-07-13T11:22:55Z</time>
      </trkpt>
      <trkpt lat="46.197408344596624" lon="10.442053768783808">
        <ele>2804.7800000000002</ele>
        <time>2018-07-13T11:22:56Z</time>
      </trkpt>
      <trkpt lat="46.197428042069077" lon="10.442024851217866">
        <ele>2803.8200000000002</ele>
        <time>2018-07-13T11:23:07Z</time>
      </trkpt>
      <trkpt lat="46.197467437013984" lon="10.442036669701338">
        <ele>2804.3000000000002</ele>
        <time>2018-07-13T11:23:18Z</time>
      </trkpt>
      <trkpt lat="46.197453020140529" lon="10.44198545627296">
        <ele>2803.8200000000002</ele>
        <time>2018-07-13T11:23:29Z</time>
      </trkpt>
      <trkpt lat="46.19742619805038" lon="10.441977074369788">
        <ele>2802.3800000000001</ele>
        <time>2018-07-13T11:23:39Z</time>
      </trkpt>
      <trkpt lat="46.197410607710481" lon="10.441943965852261">
        <ele>2800.9400000000001</ele>
        <time>2018-07-13T11:23:50Z</time>
      </trkpt>
      <trkpt lat="46.197425946593285" lon="10.441991742700338">
        <ele>2802.3800000000001</ele>
        <time>2018-07-13T11:24:08Z</time>
      </trkpt>
      <trkpt lat="46.197452517226338" lon="10.442028539255261">
        <ele>2804.3000000000002</ele>
        <time>2018-07-13T11:24:18Z</time>
      </trkpt>
      <trkpt lat="46.197434328496456" lon="10.442028539255261">
        <ele>2805.2600000000002</ele>
        <time>2018-07-13T11:24:29Z</time>
      </trkpt>
      <trkpt lat="46.197443632408977" lon="10.442032646387815">
        <ele>2805.2600000000002</ele>
        <time>2018-07-13T11:24:46Z</time>
      </trkpt>
      <trkpt lat="46.197442458942533" lon="10.442055277526379">
        <ele>2805.75</ele>
        <time>2018-07-13T11:25:00Z</time>
      </trkpt>
      <trkpt lat="46.19744966737926" lon="10.442047314718366">
        <ele>2806.71</ele>
        <time>2018-07-13T11:25:15Z</time>
      </trkpt>
      <trkpt lat="46.197452517226338" lon="10.442048236727715">
        <ele>2805.2600000000002</ele>
        <time>2018-07-13T11:25:18Z</time>
      </trkpt>
      <trkpt lat="46.197467856109142" lon="10.442059887573123">
        <ele>2806.71</ele>
        <time>2018-07-13T11:25:30Z</time>
      </trkpt>
      <trkpt lat="46.197483949363232" lon="10.442070700228214">
        <ele>2806.71</ele>
        <time>2018-07-13T11:25:49Z</time>
      </trkpt>
      <trkpt lat="46.197466934099793" lon="10.442040609195828">
        <ele>2804.7800000000002</ele>
        <time>2018-07-13T11:25:53Z</time>
      </trkpt>
      <trkpt lat="46.19747456163168" lon="10.442008674144745">
        <ele>2805.2600000000002</ele>
        <time>2018-07-13T11:26:06Z</time>
      </trkpt>
      <trkpt lat="46.197435921058059" lon="10.441995346918702">
        <ele>2803.8200000000002</ele>
        <time>2018-07-13T11:26:21Z</time>
      </trkpt>
      <trkpt lat="46.197428964078426" lon="10.441966094076633">
        <ele>2804.7800000000002</ele>
        <time>2018-07-13T11:26:39Z</time>
      </trkpt>
      <trkpt lat="46.197439190000296" lon="10.442016301676631">
        <ele>2804.7800000000002</ele>
        <time>2018-07-13T11:26:50Z</time>
      </trkpt>
      <trkpt lat="46.197419995442033" lon="10.442004315555096">
        <ele>2803.8200000000002</ele>
        <time>2018-07-13T11:27:00Z</time>
      </trkpt>
      <trkpt lat="46.197387557476759" lon="10.441996520385146">
        <ele>2801.4200000000001</ele>
        <time>2018-07-13T11:27:13Z</time>
      </trkpt>
      <trkpt lat="46.197405746206641" lon="10.441892668604851">
        <ele>2799.5</ele>
        <time>2018-07-13T11:27:24Z</time>
      </trkpt>
      <trkpt lat="46.197445727884769" lon="10.441897865384817">
        <ele>2799.98</ele>
        <time>2018-07-13T11:27:34Z</time>
      </trkpt>
      <trkpt lat="46.197442207485437" lon="10.441895266994834">
        <ele>2799.02</ele>
        <time>2018-07-13T11:27:52Z</time>
      </trkpt>
      <trkpt lat="46.197456205263734" lon="10.441837599501014">
        <ele>2797.0900000000001</ele>
        <time>2018-07-13T11:28:03Z</time>
      </trkpt>
      <trkpt lat="46.197462072595954" lon="10.441838940605521">
        <ele>2796.6100000000001</ele>
        <time>2018-07-13T11:28:14Z</time>
      </trkpt>
      <trkpt lat="46.197447990998626" lon="10.441795270889997">
        <ele>2795.1700000000001</ele>
        <time>2018-07-13T11:28:25Z</time>
      </trkpt>
      <trkpt lat="46.197419660165906" lon="10.441758055239916">
        <ele>2793.73</ele>
        <time>2018-07-13T11:28:37Z</time>
      </trkpt>
      <trkpt lat="46.197417145594954" lon="10.441827289760113">
        <ele>2793.25</ele>
        <time>2018-07-13T11:28:48Z</time>
      </trkpt>
      <trkpt lat="46.197409937158227" lon="10.441736010834575">
        <ele>2790.8400000000001</ele>
        <time>2018-07-13T11:28:59Z</time>
      </trkpt>
      <trkpt lat="46.197416307404637" lon="10.441749170422554">
        <ele>2790.8400000000001</ele>
        <time>2018-07-13T11:29:09Z</time>
      </trkpt>
      <trkpt lat="46.197410775348544" lon="10.441720420494676">
        <ele>2788.9200000000001</ele>
        <time>2018-07-13T11:29:14Z</time>
      </trkpt>
      <trkpt lat="46.197386467829347" lon="10.441673062741756">
        <ele>2787.96</ele>
        <time>2018-07-13T11:29:24Z</time>
      </trkpt>
      <trkpt lat="46.197382360696793" lon="10.441636433824897">
        <ele>2787</ele>
        <time>2018-07-13T11:29:37Z</time>
      </trkpt>
      <trkpt lat="46.197361825034022" lon="10.441560661420226">
        <ele>2785.0799999999999</ele>
        <time>2018-07-13T11:29:49Z</time>
      </trkpt>
      <trkpt lat="46.197363333776593" lon="10.441534174606204">
        <ele>2784.1199999999999</ele>
        <time>2018-07-13T11:30:01Z</time>
      </trkpt>
      <trkpt lat="46.197373140603304" lon="10.441506430506706">
        <ele>2782.6700000000001</ele>
        <time>2018-07-13T11:30:12Z</time>
      </trkpt>
      <trkpt lat="46.197390574961901" lon="10.441497629508376">
        <ele>2781.71</ele>
        <time>2018-07-13T11:30:23Z</time>
      </trkpt>
      <trkpt lat="46.197397783398628" lon="10.441552866250277">
        <ele>2781.23</ele>
        <time>2018-07-13T11:30:32Z</time>
      </trkpt>
      <trkpt lat="46.197436843067408" lon="10.441572731360793">
        <ele>2781.71</ele>
        <time>2018-07-13T11:30:49Z</time>
      </trkpt>
      <trkpt lat="46.197423851117492" lon="10.441597290337086">
        <ele>2782.1900000000001</ele>
        <time>2018-07-13T11:31:03Z</time>
      </trkpt>
      <trkpt lat="46.197436591610312" lon="10.44156476855278">
        <ele>2781.71</ele>
        <time>2018-07-13T11:31:22Z</time>
      </trkpt>
      <trkpt lat="46.197415133938193" lon="10.44154423289001">
        <ele>2781.71</ele>
        <time>2018-07-13T11:31:37Z</time>
      </trkpt>
      <trkpt lat="46.197422090917826" lon="10.441529732197523">
        <ele>2781.23</ele>
        <time>2018-07-13T11:31:49Z</time>
      </trkpt>
      <trkpt lat="46.197411445900798" lon="10.441450523212552">
        <ele>2780.75</ele>
        <time>2018-07-13T11:31:59Z</time>
      </trkpt>
      <trkpt lat="46.197402644902468" lon="10.441406266763806">
        <ele>2780.27</ele>
        <time>2018-07-13T11:32:09Z</time>
      </trkpt>
      <trkpt lat="46.197433406487107" lon="10.441366787999868">
        <ele>2778.8299999999999</ele>
        <time>2018-07-13T11:32:20Z</time>
      </trkpt>
      <trkpt lat="46.197441872209311" lon="10.441323705017567">
        <ele>2776.9099999999999</ele>
        <time>2018-07-13T11:32:32Z</time>
      </trkpt>
      <trkpt lat="46.197468191385269" lon="10.441270647570491">
        <ele>2776.4200000000001</ele>
        <time>2018-07-13T11:32:43Z</time>
      </trkpt>
      <trkpt lat="46.197488810867071" lon="10.441285315901041">
        <ele>2775.9400000000001</ele>
        <time>2018-07-13T11:32:54Z</time>
      </trkpt>
      <trkpt lat="46.197485877200961" lon="10.441204011440277">
        <ele>2774.98</ele>
        <time>2018-07-13T11:33:04Z</time>
      </trkpt>
      <trkpt lat="46.197501551359892" lon="10.441130585968494">
        <ele>2773.54</ele>
        <time>2018-07-13T11:33:15Z</time>
      </trkpt>
      <trkpt lat="46.197496354579926" lon="10.441080797463655">
        <ele>2773.0599999999999</ele>
        <time>2018-07-13T11:33:24Z</time>
      </trkpt>
      <trkpt lat="46.197503730654716" lon="10.441031092777848">
        <ele>2772.0999999999999</ele>
        <time>2018-07-13T11:33:31Z</time>
      </trkpt>
      <trkpt lat="46.197511190548539" lon="10.441002929583192">
        <ele>2771.1399999999999</ele>
        <time>2018-07-13T11:33:41Z</time>
      </trkpt>
      <trkpt lat="46.197481853887439" lon="10.440952721983194">
        <ele>2769.21</ele>
        <time>2018-07-13T11:33:54Z</time>
      </trkpt>
      <trkpt lat="46.19744623079896" lon="10.440949704498053">
        <ele>2768.25</ele>
        <time>2018-07-13T11:34:05Z</time>
      </trkpt>
      <trkpt lat="46.197478249669075" lon="10.440897066146135">
        <ele>2766.3299999999999</ele>
        <time>2018-07-13T11:34:17Z</time>
      </trkpt>
      <trkpt lat="46.197513705119491" lon="10.440827161073685">
        <ele>2764.8899999999999</ele>
        <time>2018-07-13T11:34:29Z</time>
      </trkpt>
      <trkpt lat="46.197508256882429" lon="10.440777456387877">
        <ele>2762.9699999999998</ele>
        <time>2018-07-13T11:34:39Z</time>
      </trkpt>
      <trkpt lat="46.197506245225668" lon="10.440740743651986">
        <ele>2762.4899999999998</ele>
        <time>2018-07-13T11:34:52Z</time>
      </trkpt>
      <trkpt lat="46.197517225518823" lon="10.440684333443642">
        <ele>2760.5599999999999</ele>
        <time>2018-07-13T11:35:03Z</time>
      </trkpt>
      <trkpt lat="46.197500880807638" lon="10.440641669556499">
        <ele>2760.0799999999999</ele>
        <time>2018-07-13T11:35:12Z</time>
      </trkpt>
      <trkpt lat="46.197508508339524" lon="10.440580146387219">
        <ele>2758.6399999999999</ele>
        <time>2018-07-13T11:35:23Z</time>
      </trkpt>
      <trkpt lat="46.197522589936852" lon="10.440540248528123">
        <ele>2756.7199999999998</ele>
        <time>2018-07-13T11:35:33Z</time>
      </trkpt>
      <trkpt lat="46.197542957961559" lon="10.440451735630631">
        <ele>2755.7600000000002</ele>
        <time>2018-07-13T11:35:43Z</time>
      </trkpt>
      <trkpt lat="46.197563242167234" lon="10.440368670970201">
        <ele>2753.8299999999999</ele>
        <time>2018-07-13T11:35:54Z</time>
      </trkpt>
      <trkpt lat="46.197585118934512" lon="10.440281331539154">
        <ele>2752.8699999999999</ele>
        <time>2018-07-13T11:36:04Z</time>
      </trkpt>
      <trkpt lat="46.19760163128376" lon="10.440248474478722">
        <ele>2751.9099999999999</ele>
        <time>2018-07-13T11:36:12Z</time>
      </trkpt>
      <trkpt lat="46.19763339869678" lon="10.44018829241395">
        <ele>2750.4699999999998</ele>
        <time>2018-07-13T11:36:23Z</time>
      </trkpt>
      <trkpt lat="46.19764949195087" lon="10.440146466717124">
        <ele>2749.5100000000002</ele>
        <time>2018-07-13T11:36:31Z</time>
      </trkpt>
      <trkpt lat="46.197653263807297" lon="10.440159793943167">
        <ele>2748.5500000000002</ele>
        <time>2018-07-13T11:36:39Z</time>
      </trkpt>
      <trkpt lat="46.197677906602621" lon="10.440166248008609">
        <ele>2749.0300000000002</ele>
        <time>2018-07-13T11:36:49Z</time>
      </trkpt>
      <trkpt lat="46.197693580761552" lon="10.440136156976223">
        <ele>2749.0300000000002</ele>
        <time>2018-07-13T11:36:57Z</time>
      </trkpt>
      <trkpt lat="46.197713362053037" lon="10.440066922456026">
        <ele>2747.5900000000001</ele>
        <time>2018-07-13T11:37:08Z</time>
      </trkpt>
      <trkpt lat="46.19773305952549" lon="10.440042531117797">
        <ele>2747.0999999999999</ele>
        <time>2018-07-13T11:37:16Z</time>
      </trkpt>
      <trkpt lat="46.197747644037008" lon="10.440002214163542">
        <ele>2746.1399999999999</ele>
        <time>2018-07-13T11:37:26Z</time>
      </trkpt>
      <trkpt lat="46.197762480005622" lon="10.440011853352189">
        <ele>2746.1399999999999</ele>
        <time>2018-07-13T11:37:37Z</time>
      </trkpt>
      <trkpt lat="46.19777555577457" lon="10.440014787018299">
        <ele>2745.6599999999999</ele>
        <time>2018-07-13T11:37:49Z</time>
      </trkpt>
      <trkpt lat="46.19777362793684" lon="10.44003389775753">
        <ele>2745.1799999999998</ele>
        <time>2018-07-13T11:38:02Z</time>
      </trkpt>
      <trkpt lat="46.197834899649024" lon="10.44006273150444">
        <ele>2745.6599999999999</ele>
        <time>2018-07-13T11:38:20Z</time>
      </trkpt>
      <trkpt lat="46.197842610999942" lon="10.440041190013289">
        <ele>2745.1799999999998</ele>
        <time>2018-07-13T11:38:36Z</time>
      </trkpt>
      <trkpt lat="46.197860883548856" lon="10.440017469227314">
        <ele>2745.1799999999998</ele>
        <time>2018-07-13T11:38:46Z</time>
      </trkpt>
      <trkpt lat="46.19784596376121" lon="10.440004812553525">
        <ele>2744.6999999999998</ele>
        <time>2018-07-13T11:38:57Z</time>
      </trkpt>
      <trkpt lat="46.197845879942179" lon="10.440001543611288">
        <ele>2744.2199999999998</ele>
        <time>2018-07-13T11:38:58Z</time>
      </trkpt>
      <trkpt lat="46.197848478332162" lon="10.439989222213626">
        <ele>2743.7399999999998</ele>
        <time>2018-07-13T11:39:03Z</time>
      </trkpt>
      <trkpt lat="46.197870103642344" lon="10.439969357103109">
        <ele>2743.2600000000002</ele>
        <time>2018-07-13T11:39:12Z</time>
      </trkpt>
      <trkpt lat="46.197905139997602" lon="10.439965752884746">
        <ele>2743.2600000000002</ele>
        <time>2018-07-13T11:39:20Z</time>
      </trkpt>
      <trkpt lat="46.197894075885415" lon="10.439936500042677">
        <ele>2743.2600000000002</ele>
        <time>2018-07-13T11:39:29Z</time>
      </trkpt>
      <trkpt lat="46.197912432253361" lon="10.43991956859827">
        <ele>2742.7800000000002</ele>
        <time>2018-07-13T11:39:38Z</time>
      </trkpt>
      <trkpt lat="46.197922909632325" lon="10.439886376261711">
        <ele>2742.3000000000002</ele>
        <time>2018-07-13T11:39:49Z</time>
      </trkpt>
      <trkpt lat="46.197925927117467" lon="10.439876401796937">
        <ele>2741.8200000000002</ele>
        <time>2018-07-13T11:39:59Z</time>
      </trkpt>
      <trkpt lat="46.197947636246681" lon="10.439853183925152">
        <ele>2741.3400000000001</ele>
        <time>2018-07-13T11:40:05Z</time>
      </trkpt>
      <trkpt lat="46.197954341769218" lon="10.439844718202949">
        <ele>2741.3400000000001</ele>
        <time>2018-07-13T11:40:14Z</time>
      </trkpt>
      <trkpt lat="46.197964148595929" lon="10.4398178961128">
        <ele>2740.3800000000001</ele>
        <time>2018-07-13T11:40:23Z</time>
      </trkpt>
      <trkpt lat="46.197966746985912" lon="10.439820159226656">
        <ele>2739.4099999999999</ele>
        <time>2018-07-13T11:40:34Z</time>
      </trkpt>
      <trkpt lat="46.197977056726813" lon="10.439822254702449">
        <ele>2738.9299999999998</ele>
        <time>2018-07-13T11:40:42Z</time>
      </trkpt>
      <trkpt lat="46.198006058111787" lon="10.439830301329494">
        <ele>2737.9699999999998</ele>
        <time>2018-07-13T11:40:52Z</time>
      </trkpt>
      <trkpt lat="46.19801796041429" lon="10.439799623563886">
        <ele>2737.4899999999998</ele>
        <time>2018-07-13T11:41:02Z</time>
      </trkpt>
      <trkpt lat="46.198017792776227" lon="10.43977347202599">
        <ele>2736.0500000000002</ele>
        <time>2018-07-13T11:41:11Z</time>
      </trkpt>
      <trkpt lat="46.198015278205276" lon="10.439794259145856">
        <ele>2736.0500000000002</ele>
        <time>2018-07-13T11:41:20Z</time>
      </trkpt>
      <trkpt lat="46.198014942929149" lon="10.439762156456709">
        <ele>2735.0900000000001</ele>
        <time>2018-07-13T11:41:30Z</time>
      </trkpt>
      <trkpt lat="46.198033383116126" lon="10.439733238890767">
        <ele>2734.6100000000001</ele>
        <time>2018-07-13T11:41:38Z</time>
      </trkpt>
      <trkpt lat="46.198048386722803" lon="10.439684791490436">
        <ele>2733.6500000000001</ele>
        <time>2018-07-13T11:41:49Z</time>
      </trkpt>
      <trkpt lat="46.198038244619966" lon="10.439653526991606">
        <ele>2733.1700000000001</ele>
        <time>2018-07-13T11:41:58Z</time>
      </trkpt>
      <trkpt lat="46.198008572682738" lon="10.439659059047699">
        <ele>2732.6799999999998</ele>
        <time>2018-07-13T11:42:07Z</time>
      </trkpt>
      <trkpt lat="46.198030449450016" lon="10.439627040177584">
        <ele>2732.1999999999998</ele>
        <time>2018-07-13T11:42:16Z</time>
      </trkpt>
      <trkpt lat="46.198043692857027" lon="10.439639026299119">
        <ele>2731.7199999999998</ele>
        <time>2018-07-13T11:42:24Z</time>
      </trkpt>
      <trkpt lat="46.198054421693087" lon="10.439629135653377">
        <ele>2730.2800000000002</ele>
        <time>2018-07-13T11:42:33Z</time>
      </trkpt>
      <trkpt lat="46.198058864101768" lon="10.439611114561558">
        <ele>2729.3200000000002</ele>
        <time>2018-07-13T11:42:42Z</time>
      </trkpt>
      <trkpt lat="46.198054840788245" lon="10.439572557806969">
        <ele>2727.8800000000001</ele>
        <time>2018-07-13T11:42:54Z</time>
      </trkpt>
      <trkpt lat="46.198061713948846" lon="10.439562750980258">
        <ele>2726.9200000000001</ele>
        <time>2018-07-13T11:43:05Z</time>
      </trkpt>
      <trkpt lat="46.198088703677058" lon="10.439523188397288">
        <ele>2725.96</ele>
        <time>2018-07-13T11:43:14Z</time>
      </trkpt>
      <trkpt lat="46.19808048941195" lon="10.439500557258725">
        <ele>2724.0300000000002</ele>
        <time>2018-07-13T11:43:23Z</time>
      </trkpt>
      <trkpt lat="46.198102114722133" lon="10.439466526731849">
        <ele>2722.5900000000001</ele>
        <time>2018-07-13T11:43:34Z</time>
      </trkpt>
      <trkpt lat="46.19808929041028" lon="10.439444147050381">
        <ele>2722.1100000000001</ele>
        <time>2018-07-13T11:43:43Z</time>
      </trkpt>
      <trkpt lat="46.19807755574584" lon="10.439424701035023">
        <ele>2721.1500000000001</ele>
        <time>2018-07-13T11:43:54Z</time>
      </trkpt>
      <trkpt lat="46.198057355359197" lon="10.439432999119163">
        <ele>2721.6300000000001</ele>
        <time>2018-07-13T11:44:09Z</time>
      </trkpt>
      <trkpt lat="46.198087865486741" lon="10.439427550882101">
        <ele>2720.6700000000001</ele>
        <time>2018-07-13T11:44:23Z</time>
      </trkpt>
      <trkpt lat="46.198090128600597" lon="10.439394023269415">
        <ele>2719.23</ele>
        <time>2018-07-13T11:44:33Z</time>
      </trkpt>
      <trkpt lat="46.198110664263368" lon="10.439354293048382">
        <ele>2717.7800000000002</ele>
        <time>2018-07-13T11:44:43Z</time>
      </trkpt>
      <trkpt lat="46.198117705062032" lon="10.439328895881772">
        <ele>2717.7800000000002</ele>
        <time>2018-07-13T11:44:50Z</time>
      </trkpt>
      <trkpt lat="46.198119297623634" lon="10.439312886446714">
        <ele>2716.8200000000002</ele>
        <time>2018-07-13T11:44:57Z</time>
      </trkpt>
      <trkpt lat="46.19813815690577" lon="10.439300313591957">
        <ele>2714.9000000000001</ele>
        <time>2018-07-13T11:45:06Z</time>
      </trkpt>
      <trkpt lat="46.198154836893082" lon="10.439276089891791">
        <ele>2714.4200000000001</ele>
        <time>2018-07-13T11:45:15Z</time>
      </trkpt>
      <trkpt lat="46.198148215189576" lon="10.439276844263077">
        <ele>2713.46</ele>
        <time>2018-07-13T11:45:26Z</time>
      </trkpt>
      <trkpt lat="46.198143688961864" lon="10.439252117648721">
        <ele>2712.98</ele>
        <time>2018-07-13T11:45:34Z</time>
      </trkpt>
      <trkpt lat="46.198131619021297" lon="10.439206603914499">
        <ele>2711.0599999999999</ele>
        <time>2018-07-13T11:45:44Z</time>
      </trkpt>
      <trkpt lat="46.198139749467373" lon="10.439209202304482">
        <ele>2710.0900000000001</ele>
        <time>2018-07-13T11:45:54Z</time>
      </trkpt>
      <trkpt lat="46.19814595207572" lon="10.439164191484451">
        <ele>2709.1300000000001</ele>
        <time>2018-07-13T11:46:03Z</time>
      </trkpt>
      <trkpt lat="46.198149556294084" lon="10.43914457783103">
        <ele>2708.1700000000001</ele>
        <time>2018-07-13T11:46:12Z</time>
      </trkpt>
      <trkpt lat="46.19817185215652" lon="10.439124628901482">
        <ele>2707.6900000000001</ele>
        <time>2018-07-13T11:46:20Z</time>
      </trkpt>
      <trkpt lat="46.198176629841328" lon="10.43908104300499">
        <ele>2706.25</ele>
        <time>2018-07-13T11:46:31Z</time>
      </trkpt>
      <trkpt lat="46.198195237666368" lon="10.439033517614007">
        <ele>2705.29</ele>
        <time>2018-07-13T11:46:39Z</time>
      </trkpt>
      <trkpt lat="46.198175456374884" lon="10.439004264771938">
        <ele>2704.8099999999999</ele>
        <time>2018-07-13T11:46:49Z</time>
      </trkpt>
      <trkpt lat="46.198178641498089" lon="10.438979621976614">
        <ele>2704.3299999999999</ele>
        <time>2018-07-13T11:46:59Z</time>
      </trkpt>
      <trkpt lat="46.198153411969543" lon="10.438949950039387">
        <ele>2702.4000000000001</ele>
        <time>2018-07-13T11:47:09Z</time>
      </trkpt>
      <trkpt lat="46.198158441111445" lon="10.438919775187969">
        <ele>2701.9200000000001</ele>
        <time>2018-07-13T11:47:18Z</time>
      </trkpt>
      <trkpt lat="46.198139749467373" lon="10.438898485153913">
        <ele>2701.4400000000001</ele>
        <time>2018-07-13T11:47:27Z</time>
      </trkpt>
      <trkpt lat="46.198134133592248" lon="10.438828328624368">
        <ele>2700.96</ele>
        <time>2018-07-13T11:47:42Z</time>
      </trkpt>
      <trkpt lat="46.19810295291245" lon="10.438847690820694">
        <ele>2700.48</ele>
        <time>2018-07-13T11:47:53Z</time>
      </trkpt>
      <trkpt lat="46.198120974004269" lon="10.438794298097491">
        <ele>2699.04</ele>
        <time>2018-07-13T11:48:03Z</time>
      </trkpt>
      <trkpt lat="46.198116112500429" lon="10.438698073849082">
        <ele>2696.6399999999999</ele>
        <time>2018-07-13T11:48:15Z</time>
      </trkpt>
      <trkpt lat="46.19812005199492" lon="10.4386574216187">
        <ele>2695.6700000000001</ele>
        <time>2018-07-13T11:48:27Z</time>
      </trkpt>
      <trkpt lat="46.198116950690746" lon="10.438576620072126">
        <ele>2694.23</ele>
        <time>2018-07-13T11:48:39Z</time>
      </trkpt>
      <trkpt lat="46.198138911277056" lon="10.438512582331896">
        <ele>2693.75</ele>
        <time>2018-07-13T11:48:46Z</time>
      </trkpt>
      <trkpt lat="46.198138659819961" lon="10.438425410538912">
        <ele>2691.8299999999999</ele>
        <time>2018-07-13T11:48:56Z</time>
      </trkpt>
      <trkpt lat="46.198153411969543" lon="10.43835299089551">
        <ele>2689.4299999999998</ele>
        <time>2018-07-13T11:49:07Z</time>
      </trkpt>
      <trkpt lat="46.198175624012947" lon="10.438273698091507">
        <ele>2687.98</ele>
        <time>2018-07-13T11:49:17Z</time>
      </trkpt>
      <trkpt lat="46.198191298171878" lon="10.438186023384333">
        <ele>2686.0599999999999</ele>
        <time>2018-07-13T11:49:28Z</time>
      </trkpt>
      <trkpt lat="46.198220048099756" lon="10.438097929582">
        <ele>2683.6599999999999</ele>
        <time>2018-07-13T11:49:40Z</time>
      </trkpt>
      <trkpt lat="46.19822901673615" lon="10.438033808022738">
        <ele>2682.6999999999998</ele>
        <time>2018-07-13T11:49:52Z</time>
      </trkpt>
      <trkpt lat="46.198242008686066" lon="10.437972033396363">
        <ele>2681.73</ele>
        <time>2018-07-13T11:50:03Z</time>
      </trkpt>
      <trkpt lat="46.198272854089737" lon="10.437953257933259">
        <ele>2682.2199999999998</ele>
        <time>2018-07-13T11:50:15Z</time>
      </trkpt>
      <trkpt lat="46.198280481621623" lon="10.437924759462476">
        <ele>2681.25</ele>
        <time>2018-07-13T11:50:26Z</time>
      </trkpt>
      <trkpt lat="46.198295401409268" lon="10.437888046726584">
        <ele>2680.77</ele>
        <time>2018-07-13T11:50:37Z</time>
      </trkpt>
      <trkpt lat="46.198293389752507" lon="10.437877234071493">
        <ele>2680.77</ele>
        <time>2018-07-13T11:50:45Z</time>
      </trkpt>
      <trkpt lat="46.198294647037983" lon="10.437875557690859">
        <ele>2679.3299999999999</ele>
        <time>2018-07-13T11:50:58Z</time>
      </trkpt>
      <trkpt lat="46.198319038376212" lon="10.43786927126348">
        <ele>2678.3699999999999</ele>
        <time>2018-07-13T11:51:09Z</time>
      </trkpt>
      <trkpt lat="46.198305878788233" lon="10.437845969572663">
        <ele>2677.4099999999999</ele>
        <time>2018-07-13T11:51:22Z</time>
      </trkpt>
      <trkpt lat="46.198307387530804" lon="10.437812190502882">
        <ele>2677.4099999999999</ele>
        <time>2018-07-13T11:51:32Z</time>
      </trkpt>
      <trkpt lat="46.198314176872373" lon="10.437736669555306">
        <ele>2675.4899999999998</ele>
        <time>2018-07-13T11:51:42Z</time>
      </trkpt>
      <trkpt lat="46.198323480784893" lon="10.437681684270501">
        <ele>2674.04</ele>
        <time>2018-07-13T11:51:51Z</time>
      </trkpt>
      <trkpt lat="46.198314679786563" lon="10.437643881887197">
        <ele>2673.5599999999999</ele>
        <time>2018-07-13T11:52:00Z</time>
      </trkpt>
      <trkpt lat="46.198312500491738" lon="10.437635583803058">
        <ele>2672.5999999999999</ele>
        <time>2018-07-13T11:52:11Z</time>
      </trkpt>
      <trkpt lat="46.198313338682055" lon="10.437620747834444">
        <ele>2672.5999999999999</ele>
        <time>2018-07-13T11:52:27Z</time>
      </trkpt>
      <trkpt lat="46.198285678401589" lon="10.437626279890537">
        <ele>2672.5999999999999</ele>
        <time>2018-07-13T11:52:42Z</time>
      </trkpt>
      <trkpt lat="46.19831551797688" lon="10.437578251585364">
        <ele>2672.5999999999999</ele>
        <time>2018-07-13T11:52:54Z</time>
      </trkpt>
      <trkpt lat="46.198337730020285" lon="10.437551429495215">
        <ele>2671.6399999999999</ele>
        <time>2018-07-13T11:53:03Z</time>
      </trkpt>
      <trkpt lat="46.198343597352505" lon="10.437517734244466">
        <ele>2670.6799999999998</ele>
        <time>2018-07-13T11:53:11Z</time>
      </trkpt>
      <trkpt lat="46.198365222662687" lon="10.437529804185033">
        <ele>2670.1999999999998</ele>
        <time>2018-07-13T11:53:20Z</time>
      </trkpt>
      <trkpt lat="46.198379807174206" lon="10.437492337077856">
        <ele>2669.7199999999998</ele>
        <time>2018-07-13T11:53:28Z</time>
      </trkpt>
      <trkpt lat="46.19838391430676" lon="10.437473813071847">
        <ele>2668.7600000000002</ele>
        <time>2018-07-13T11:53:38Z</time>
      </trkpt>
      <trkpt lat="46.198370000347495" lon="10.437496025115252">
        <ele>2668.2800000000002</ele>
        <time>2018-07-13T11:53:50Z</time>
      </trkpt>
      <trkpt lat="46.198380393907428" lon="10.437516225501895">
        <ele>2668.2800000000002</ele>
        <time>2018-07-13T11:54:03Z</time>
      </trkpt>
      <trkpt lat="46.19840495288372" lon="10.437435423955321">
        <ele>2667.3099999999999</ele>
        <time>2018-07-13T11:54:12Z</time>
      </trkpt>
      <trkpt lat="46.198418531566858" lon="10.437362836673856">
        <ele>2665.8699999999999</ele>
        <time>2018-07-13T11:54:22Z</time>
      </trkpt>
      <trkpt lat="46.198450801894069" lon="10.437299720942974">
        <ele>2664.4299999999998</ele>
        <time>2018-07-13T11:54:34Z</time>
      </trkpt>
      <trkpt lat="46.198460524901748" lon="10.437231827527285">
        <ele>2663.4699999999998</ele>
        <time>2018-07-13T11:54:46Z</time>
      </trkpt>
      <trkpt lat="46.198462452739477" lon="10.437185307964683">
        <ele>2662.5100000000002</ele>
        <time>2018-07-13T11:54:55Z</time>
      </trkpt>
      <trkpt lat="46.19848944246769" lon="10.437107356265187">
        <ele>2661.0700000000002</ele>
        <time>2018-07-13T11:55:06Z</time>
      </trkpt>
      <trkpt lat="46.198498578742146" lon="10.437005683779716">
        <ele>2658.6599999999999</ele>
        <time>2018-07-13T11:55:18Z</time>
      </trkpt>
      <trkpt lat="46.198510648682714" lon="10.4369149915874">
        <ele>2656.7399999999998</ele>
        <time>2018-07-13T11:55:29Z</time>
      </trkpt>
      <trkpt lat="46.198527496308088" lon="10.436849948018789">
        <ele>2655.3000000000002</ele>
        <time>2018-07-13T11:55:40Z</time>
      </trkpt>
      <trkpt lat="46.198530262336135" lon="10.436807116493583">
        <ele>2654.3400000000001</ele>
        <time>2018-07-13T11:55:51Z</time>
      </trkpt>
      <trkpt lat="46.198539985343814" lon="10.436790771782398">
        <ele>2653.3800000000001</ele>
        <time>2018-07-13T11:56:02Z</time>
      </trkpt>
      <trkpt lat="46.198566136881709" lon="10.436734277755022">
        <ele>2652.4200000000001</ele>
        <time>2018-07-13T11:56:11Z</time>
      </trkpt>
      <trkpt lat="46.198585331439972" lon="10.436703516170382">
        <ele>2651.9299999999998</ele>
        <time>2018-07-13T11:56:19Z</time>
      </trkpt>
      <trkpt lat="46.198615506291389" lon="10.436662612482905">
        <ele>2650.4899999999998</ele>
        <time>2018-07-13T11:56:30Z</time>
      </trkpt>
      <trkpt lat="46.198616763576865" lon="10.436644842848182">
        <ele>2650.0100000000002</ele>
        <time>2018-07-13T11:56:32Z</time>
      </trkpt>
      <trkpt lat="46.198612991720438" lon="10.43660813011229">
        <ele>2649.0500000000002</ele>
        <time>2018-07-13T11:56:36Z</time>
      </trkpt>
      <trkpt lat="46.198630342260003" lon="10.436540823429823">
        <ele>2647.6100000000001</ele>
        <time>2018-07-13T11:56:45Z</time>
      </trkpt>
      <trkpt lat="46.198630593717098" lon="10.436496064066887">
        <ele>2645.21</ele>
        <time>2018-07-13T11:56:55Z</time>
      </trkpt>
      <trkpt lat="46.198641825467348" lon="10.436433115974069">
        <ele>2643.2800000000002</ele>
        <time>2018-07-13T11:57:04Z</time>
      </trkpt>
      <trkpt lat="46.198643753305078" lon="10.436352482065558">
        <ele>2642.8000000000002</ele>
        <time>2018-07-13T11:57:11Z</time>
      </trkpt>
      <trkpt lat="46.198643501847982" lon="10.436328006908298">
        <ele>2642.3200000000002</ele>
        <time>2018-07-13T11:57:13Z</time>
      </trkpt>
      <trkpt lat="46.198632102459669" lon="10.436217030510306">
        <ele>2640.4000000000001</ele>
        <time>2018-07-13T11:57:24Z</time>
      </trkpt>
      <trkpt lat="46.198629587888718" lon="10.436200182884932">
        <ele>2639.9200000000001</ele>
        <time>2018-07-13T11:57:33Z</time>
      </trkpt>
      <trkpt lat="46.1986287496984" lon="10.436172354966402">
        <ele>2638.96</ele>
        <time>2018-07-13T11:57:37Z</time>
      </trkpt>
      <trkpt lat="46.198654817417264" lon="10.436138911172748">
        <ele>2638.96</ele>
        <time>2018-07-13T11:57:47Z</time>
      </trkpt>
      <trkpt lat="46.19868490844965" lon="10.436181323602796">
        <ele>2638.48</ele>
        <time>2018-07-13T11:57:55Z</time>
      </trkpt>
      <trkpt lat="46.198707120493054" lon="10.436247372999787">
        <ele>2638.48</ele>
        <time>2018-07-13T11:58:12Z</time>
      </trkpt>
      <trkpt lat="46.19870888069272" lon="10.43642196804285">
        <ele>2637.9899999999998</ele>
        <time>2018-07-13T11:58:33Z</time>
      </trkpt>
      <trkpt lat="46.198686668649316" lon="10.4364004265517">
        <ele>2638.48</ele>
        <time>2018-07-13T11:58:55Z</time>
      </trkpt>
      <trkpt lat="46.198676358908415" lon="10.436404868960381">
        <ele>2637.9899999999998</ele>
        <time>2018-07-13T11:59:15Z</time>
      </trkpt>
      <trkpt lat="46.198645178228617" lon="10.436392547562718">
        <ele>2638.48</ele>
        <time>2018-07-13T11:59:37Z</time>
      </trkpt>
      <trkpt lat="46.198668060824275" lon="10.436419956386089">
        <ele>2637.9899999999998</ele>
        <time>2018-07-13T11:59:51Z</time>
      </trkpt>
      <trkpt lat="46.198655404150486" lon="10.436388105154037">
        <ele>2638.96</ele>
        <time>2018-07-13T12:00:03Z</time>
      </trkpt>
      <trkpt lat="46.198662528768182" lon="10.436418866738677">
        <ele>2638.48</ele>
        <time>2018-07-13T12:00:13Z</time>
      </trkpt>
      <trkpt lat="46.198635287582874" lon="10.436404701322317">
        <ele>2637.0300000000002</ele>
        <time>2018-07-13T12:00:27Z</time>
      </trkpt>
      <trkpt lat="46.198639394715428" lon="10.436337981373072">
        <ele>2638.48</ele>
        <time>2018-07-13T12:00:45Z</time>
      </trkpt>
      <trkpt lat="46.198627492412925" lon="10.436320547014475">
        <ele>2638.48</ele>
        <time>2018-07-13T12:01:02Z</time>
      </trkpt>
      <trkpt lat="46.19860771112144" lon="10.436311159282923">
        <ele>2638.48</ele>
        <time>2018-07-13T12:01:20Z</time>
      </trkpt>
      <trkpt lat="46.198607878759503" lon="10.436282074078918">
        <ele>2637.9899999999998</ele>
        <time>2018-07-13T12:01:35Z</time>
      </trkpt>
      <trkpt lat="46.198610225692391" lon="10.436273692175746">
        <ele>2638.48</ele>
        <time>2018-07-13T12:01:51Z</time>
      </trkpt>
      <trkpt lat="46.198625983670354" lon="10.436300011351705">
        <ele>2638.48</ele>
        <time>2018-07-13T12:02:11Z</time>
      </trkpt>
      <trkpt lat="46.198627995327115" lon="10.436371257528663">
        <ele>2638.48</ele>
        <time>2018-07-13T12:02:26Z</time>
      </trkpt>
      <trkpt lat="46.198623217642307" lon="10.43634032830596">
        <ele>2637.9899999999998</ele>
        <time>2018-07-13T12:02:41Z</time>
      </trkpt>
      <trkpt lat="46.1986184399575" lon="10.436271596699953">
        <ele>2637.5100000000002</ele>
        <time>2018-07-13T12:02:55Z</time>
      </trkpt>
      <trkpt lat="46.198594467714429" lon="10.436265394091606">
        <ele>2636.5500000000002</ele>
        <time>2018-07-13T12:03:10Z</time>
      </trkpt>
      <trkpt lat="46.198575776070356" lon="10.436258185654879">
        <ele>2634.6300000000001</ele>
        <time>2018-07-13T12:03:21Z</time>
      </trkpt>
      <trkpt lat="46.198580972850323" lon="10.436167409643531">
        <ele>2632.71</ele>
        <time>2018-07-13T12:03:32Z</time>
      </trkpt>
      <trkpt lat="46.198584660887718" lon="10.436133379116654">
        <ele>2630.79</ele>
        <time>2018-07-13T12:03:42Z</time>
      </trkpt>
      <trkpt lat="46.198590695858002" lon="10.436145784333348">
        <ele>2630.3000000000002</ele>
        <time>2018-07-13T12:03:56Z</time>
      </trkpt>
      <trkpt lat="46.198577620089054" lon="10.436124745756388">
        <ele>2628.8600000000001</ele>
        <time>2018-07-13T12:04:06Z</time>
      </trkpt>
      <trkpt lat="46.198583235964179" lon="10.436056097969413">
        <ele>2626.9400000000001</ele>
        <time>2018-07-13T12:04:18Z</time>
      </trkpt>
      <trkpt lat="46.198609722778201" lon="10.435995832085609">
        <ele>2624.54</ele>
        <time>2018-07-13T12:04:29Z</time>
      </trkpt>
      <trkpt lat="46.198623720556498" lon="10.435965741053224">
        <ele>2623.0900000000001</ele>
        <time>2018-07-13T12:04:38Z</time>
      </trkpt>
      <trkpt lat="46.19859304279089" lon="10.435961131006479">
        <ele>2621.6500000000001</ele>
        <time>2018-07-13T12:04:46Z</time>
      </trkpt>
      <trkpt lat="46.198562029749155" lon="10.435942942276597">
        <ele>2619.73</ele>
        <time>2018-07-13T12:04:56Z</time>
      </trkpt>
      <trkpt lat="46.198578290641308" lon="10.435899188742042">
        <ele>2618.29</ele>
        <time>2018-07-13T12:05:06Z</time>
      </trkpt>
      <trkpt lat="46.198578709736466" lon="10.435864487662911">
        <ele>2618.29</ele>
        <time>2018-07-13T12:05:15Z</time>
      </trkpt>
      <trkpt lat="46.198559096083045" lon="10.435839593410492">
        <ele>2614.9200000000001</ele>
        <time>2018-07-13T12:05:23Z</time>
      </trkpt>
      <trkpt lat="46.198565717786551" lon="10.43580137193203">
        <ele>2613.96</ele>
        <time>2018-07-13T12:05:36Z</time>
      </trkpt>
      <trkpt lat="46.198558593168855" lon="10.435762228444219">
        <ele>2612.52</ele>
        <time>2018-07-13T12:05:46Z</time>
      </trkpt>
      <trkpt lat="46.198561694473028" lon="10.435720151290298">
        <ele>2610.1199999999999</ele>
        <time>2018-07-13T12:05:55Z</time>
      </trkpt>
      <trkpt lat="46.198589354753494" lon="10.435650078579783">
        <ele>2607.71</ele>
        <time>2018-07-13T12:06:06Z</time>
      </trkpt>
      <trkpt lat="46.198587510734797" lon="10.435612527653575">
        <ele>2606.75</ele>
        <time>2018-07-13T12:06:16Z</time>
      </trkpt>
      <trkpt lat="46.198580553755164" lon="10.43561914935708">
        <ele>2604.8299999999999</ele>
        <time>2018-07-13T12:06:27Z</time>
      </trkpt>
      <trkpt lat="46.198596060276031" lon="10.435537090525031">
        <ele>2602.9099999999999</ele>
        <time>2018-07-13T12:06:39Z</time>
      </trkpt>
      <trkpt lat="46.198631599545479" lon="10.435476405546069">
        <ele>2600.5</ele>
        <time>2018-07-13T12:06:48Z</time>
      </trkpt>
      <trkpt lat="46.198639394715428" lon="10.435428963974118">
        <ele>2599.0599999999999</ele>
        <time>2018-07-13T12:06:59Z</time>
      </trkpt>
      <trkpt lat="46.198673089966178" lon="10.435378085821867">
        <ele>2596.6599999999999</ele>
        <time>2018-07-13T12:07:08Z</time>
      </trkpt>
      <trkpt lat="46.198663534596562" lon="10.435360902920365">
        <ele>2595.6999999999998</ele>
        <time>2018-07-13T12:07:19Z</time>
      </trkpt>
      <trkpt lat="46.198669988662004" lon="10.435303235426545">
        <ele>2594.25</ele>
        <time>2018-07-13T12:07:30Z</time>
      </trkpt>
      <trkpt lat="46.198673089966178" lon="10.435332907363772">
        <ele>2593.29</ele>
        <time>2018-07-13T12:07:45Z</time>
      </trkpt>
      <trkpt lat="46.198682142421603" lon="10.435288650915027">
        <ele>2591.8499999999999</ele>
        <time>2018-07-13T12:07:55Z</time>
      </trkpt>
      <trkpt lat="46.198676191270351" lon="10.435301642864943">
        <ele>2591.3699999999999</ele>
        <time>2018-07-13T12:08:07Z</time>
      </trkpt>
      <trkpt lat="46.19864291511476" lon="10.435311114415526">
        <ele>2589.4499999999998</ele>
        <time>2018-07-13T12:08:20Z</time>
      </trkpt>
      <trkpt lat="46.198609806597233" lon="10.435289070010185">
        <ele>2588.0100000000002</ele>
        <time>2018-07-13T12:08:30Z</time>
      </trkpt>
      <trkpt lat="46.198604190722108" lon="10.435249507427216">
        <ele>2586.5599999999999</ele>
        <time>2018-07-13T12:08:38Z</time>
      </trkpt>
      <trkpt lat="46.198573932051659" lon="10.435206592082977">
        <ele>2585.5999999999999</ele>
        <time>2018-07-13T12:08:48Z</time>
      </trkpt>
      <trkpt lat="46.198556832969189" lon="10.435119839385152">
        <ele>2583.6799999999998</ele>
        <time>2018-07-13T12:08:59Z</time>
      </trkpt>
      <trkpt lat="46.198550881817937" lon="10.435054879635572">
        <ele>2581.2800000000002</ele>
        <time>2018-07-13T12:09:09Z</time>
      </trkpt>
      <trkpt lat="46.198517354205251" lon="10.434988159686327">
        <ele>2579.3499999999999</ele>
        <time>2018-07-13T12:09:20Z</time>
      </trkpt>
      <trkpt lat="46.198517773300409" lon="10.434945160523057">
        <ele>2577.9099999999999</ele>
        <time>2018-07-13T12:09:28Z</time>
      </trkpt>
      <trkpt lat="46.198552474379539" lon="10.434925798326731">
        <ele>2575.9899999999998</ele>
        <time>2018-07-13T12:09:37Z</time>
      </trkpt>
      <trkpt lat="46.198577033355832" lon="10.434913896024227">
        <ele>2575.0300000000002</ele>
        <time>2018-07-13T12:09:46Z</time>
      </trkpt>
      <trkpt lat="46.198576027527452" lon="10.434916997328401">
        <ele>2574.0700000000002</ele>
        <time>2018-07-13T12:09:57Z</time>
      </trkpt>
      <trkpt lat="46.198560521006584" lon="10.434902748093009">
        <ele>2574.5500000000002</ele>
        <time>2018-07-13T12:10:11Z</time>
      </trkpt>
      <trkpt lat="46.198594383895397" lon="10.434863939881325">
        <ele>2572.1399999999999</ele>
        <time>2018-07-13T12:10:20Z</time>
      </trkpt>
      <trkpt lat="46.198605615645647" lon="10.434828903526068">
        <ele>2570.2199999999998</ele>
        <time>2018-07-13T12:10:29Z</time>
      </trkpt>
      <trkpt lat="46.19863310828805" lon="10.434828568249941">
        <ele>2569.2600000000002</ele>
        <time>2018-07-13T12:10:39Z</time>
      </trkpt>
      <trkpt lat="46.198656326159835" lon="10.434829406440258">
        <ele>2567.8200000000002</ele>
        <time>2018-07-13T12:10:43Z</time>
      </trkpt>
      <trkpt lat="46.198714412748814" lon="10.434840135276318">
        <ele>2565.9000000000001</ele>
        <time>2018-07-13T12:10:54Z</time>
      </trkpt>
      <trkpt lat="46.198728326708078" lon="10.434794286265969">
        <ele>2563.4899999999998</ele>
        <time>2018-07-13T12:11:05Z</time>
      </trkpt>
      <trkpt lat="46.19878901168704" lon="10.434777187183499">
        <ele>2561.0900000000001</ele>
        <time>2018-07-13T12:11:17Z</time>
      </trkpt>
      <trkpt lat="46.198796220123768" lon="10.434804344549775">
        <ele>2560.6100000000001</ele>
        <time>2018-07-13T12:11:21Z</time>
      </trkpt>
      <trkpt lat="46.198813235387206" lon="10.434811804443598">
        <ele>2559.1700000000001</ele>
        <time>2018-07-13T12:11:29Z</time>
      </trkpt>
      <trkpt lat="46.198845924809575" lon="10.434810211881995">
        <ele>2558.21</ele>
        <time>2018-07-13T12:11:40Z</time>
      </trkpt>
      <trkpt lat="46.198873333632946" lon="10.434808954596519">
        <ele>2557.2399999999998</ele>
        <time>2018-07-13T12:11:52Z</time>
      </trkpt>
      <trkpt lat="46.198884397745132" lon="10.434800069779158">
        <ele>2555.8000000000002</ele>
        <time>2018-07-13T12:12:01Z</time>
      </trkpt>
      <trkpt lat="46.198929911479354" lon="10.434790682047606">
        <ele>2553.8800000000001</ele>
        <time>2018-07-13T12:12:10Z</time>
      </trkpt>
      <trkpt lat="46.198983807116747" lon="10.434741983190179">
        <ele>2552.9200000000001</ele>
        <time>2018-07-13T12:12:21Z</time>
      </trkpt>
      <trkpt lat="46.199026219546795" lon="10.43473326601088">
        <ele>2552.4400000000001</ele>
        <time>2018-07-13T12:12:32Z</time>
      </trkpt>
      <trkpt lat="46.199052538722754" lon="10.434702588245273">
        <ele>2550.0300000000002</ele>
        <time>2018-07-13T12:12:42Z</time>
      </trkpt>
      <trkpt lat="46.199058489874005" lon="10.434683309867978">
        <ele>2548.5900000000001</ele>
        <time>2018-07-13T12:12:53Z</time>
      </trkpt>
      <trkpt lat="46.199056226760149" lon="10.434638634324074">
        <ele>2545.23</ele>
        <time>2018-07-13T12:13:06Z</time>
      </trkpt>
      <trkpt lat="46.199075588956475" lon="10.434598568826914">
        <ele>2543.3099999999999</ele>
        <time>2018-07-13T12:13:15Z</time>
      </trkpt>
      <trkpt lat="46.199099058285356" lon="10.434562610462308">
        <ele>2541.8600000000001</ele>
        <time>2018-07-13T12:13:26Z</time>
      </trkpt>
      <trkpt lat="46.199093861505389" lon="10.434510810300708">
        <ele>2539.46</ele>
        <time>2018-07-13T12:13:37Z</time>
      </trkpt>
      <trkpt lat="46.199119510129094" lon="10.434509972110391">
        <ele>2538.5</ele>
        <time>2018-07-13T12:13:48Z</time>
      </trkpt>
      <trkpt lat="46.199116325005889" lon="10.434463871642947">
        <ele>2536.0999999999999</ele>
        <time>2018-07-13T12:13:58Z</time>
      </trkpt>
      <trkpt lat="46.199084306135774" lon="10.434421459212899">
        <ele>2534.1700000000001</ele>
        <time>2018-07-13T12:14:11Z</time>
      </trkpt>
      <trkpt lat="46.199118085205555" lon="10.434381645172834">
        <ele>2532.25</ele>
        <time>2018-07-13T12:14:22Z</time>
      </trkpt>
      <trkpt lat="46.19916426949203" lon="10.434377705678344">
        <ele>2529.8499999999999</ele>
        <time>2018-07-13T12:14:32Z</time>
      </trkpt>
      <trkpt lat="46.199175836518407" lon="10.434348452836275">
        <ele>2528.4000000000001</ele>
        <time>2018-07-13T12:14:42Z</time>
      </trkpt>
      <trkpt lat="46.199215147644281" lon="10.434355577453971">
        <ele>2526.96</ele>
        <time>2018-07-13T12:14:53Z</time>
      </trkpt>
      <trkpt lat="46.199216656386852" lon="10.434340992942452">
        <ele>2525.52</ele>
        <time>2018-07-13T12:15:08Z</time>
      </trkpt>
      <trkpt lat="46.199234090745449" lon="10.434309225529432">
        <ele>2524.0799999999999</ele>
        <time>2018-07-13T12:15:18Z</time>
      </trkpt>
      <trkpt lat="46.199270049110055" lon="10.434332191944122">
        <ele>2523.5999999999999</ele>
        <time>2018-07-13T12:15:27Z</time>
      </trkpt>
      <trkpt lat="46.199293937534094" lon="10.434319032356143">
        <ele>2523.1199999999999</ele>
        <time>2018-07-13T12:15:36Z</time>
      </trkpt>
      <trkpt lat="46.199321346357465" lon="10.434282654896379">
        <ele>2522.1599999999999</ele>
        <time>2018-07-13T12:15:47Z</time>
      </trkpt>
      <trkpt lat="46.199336601421237" lon="10.434232782572508">
        <ele>2521.1900000000001</ele>
        <time>2018-07-13T12:15:57Z</time>
      </trkpt>
      <trkpt lat="46.199365938082337" lon="10.43421140871942">
        <ele>2520.23</ele>
        <time>2018-07-13T12:16:08Z</time>
      </trkpt>
      <trkpt lat="46.199380606412888" lon="10.434194393455982">
        <ele>2519.75</ele>
        <time>2018-07-13T12:16:16Z</time>
      </trkpt>
      <trkpt lat="46.199407428503036" lon="10.434181485325098">
        <ele>2518.79</ele>
        <time>2018-07-13T12:16:26Z</time>
      </trkpt>
      <trkpt lat="46.199459228664637" lon="10.43417377397418">
        <ele>2517.8299999999999</ele>
        <time>2018-07-13T12:16:36Z</time>
      </trkpt>
      <trkpt lat="46.199472723528743" lon="10.43414494022727">
        <ele>2516.8699999999999</ele>
        <time>2018-07-13T12:16:44Z</time>
      </trkpt>
      <trkpt lat="46.199494851753116" lon="10.434161620214581">
        <ele>2515.9099999999999</ele>
        <time>2018-07-13T12:16:55Z</time>
      </trkpt>
      <trkpt lat="46.199498791247606" lon="10.434169331565499">
        <ele>2516.3899999999999</ele>
        <time>2018-07-13T12:17:00Z</time>
      </trkpt>
      <trkpt lat="46.199535001069307" lon="10.434161620214581">
        <ele>2515.9099999999999</ele>
        <time>2018-07-13T12:17:11Z</time>
      </trkpt>
      <trkpt lat="46.199531480669975" lon="10.434122057631612">
        <ele>2516.3899999999999</ele>
        <time>2018-07-13T12:17:21Z</time>
      </trkpt>
      <trkpt lat="46.199531145393848" lon="10.434086434543133">
        <ele>2515.4299999999998</ele>
        <time>2018-07-13T12:17:30Z</time>
      </trkpt>
      <trkpt lat="46.199555117636919" lon="10.434064641594887">
        <ele>2514.9499999999998</ele>
        <time>2018-07-13T12:17:39Z</time>
      </trkpt>
      <trkpt lat="46.199571881443262" lon="10.43400420807302">
        <ele>2513.02</ele>
        <time>2018-07-13T12:17:49Z</time>
      </trkpt>
      <trkpt lat="46.199588058516383" lon="10.433954671025276">
        <ele>2511.5799999999999</ele>
        <time>2018-07-13T12:18:03Z</time>
      </trkpt>
      <trkpt lat="46.199631141498685" lon="10.43390303850174">
        <ele>2508.6999999999998</ele>
        <time>2018-07-13T12:18:15Z</time>
      </trkpt>
      <trkpt lat="46.199656873941422" lon="10.433827852830291">
        <ele>2506.29</ele>
        <time>2018-07-13T12:18:28Z</time>
      </trkpt>
      <trkpt lat="46.199685791507363" lon="10.433751912787557">
        <ele>2504.3699999999999</ele>
        <time>2018-07-13T12:18:40Z</time>
      </trkpt>
      <trkpt lat="46.199723174795508" lon="10.433711344376206">
        <ele>2501.9699999999998</ele>
        <time>2018-07-13T12:18:52Z</time>
      </trkpt>
      <trkpt lat="46.199716804549098" lon="10.433680331334472">
        <ele>2500.5300000000002</ele>
        <time>2018-07-13T12:19:02Z</time>
      </trkpt>
      <trkpt lat="46.19974278844893" lon="10.43366314843297">
        <ele>2499.0799999999999</ele>
        <time>2018-07-13T12:19:13Z</time>
      </trkpt>
      <trkpt lat="46.199745554476976" lon="10.433644708245993">
        <ele>2499.0799999999999</ele>
        <time>2018-07-13T12:19:23Z</time>
      </trkpt>
      <trkpt lat="46.199750667437911" lon="10.433595925569534">
        <ele>2496.6799999999998</ele>
        <time>2018-07-13T12:19:36Z</time>
      </trkpt>
      <trkpt lat="46.199762150645256" lon="10.433585196733475">
        <ele>2496.1999999999998</ele>
        <time>2018-07-13T12:19:46Z</time>
      </trkpt>
      <trkpt lat="46.199767347425222" lon="10.433557033538818">
        <ele>2495.7199999999998</ele>
        <time>2018-07-13T12:19:57Z</time>
      </trkpt>
      <trkpt lat="46.199787547811866" lon="10.433537336066365">
        <ele>2495.2399999999998</ele>
        <time>2018-07-13T12:20:11Z</time>
      </trkpt>
      <trkpt lat="46.199792828410864" lon="10.433513280004263">
        <ele>2493.3200000000002</ele>
        <time>2018-07-13T12:20:20Z</time>
      </trkpt>
      <trkpt lat="46.199795762076974" lon="10.433475812897086">
        <ele>2492.3600000000001</ele>
        <time>2018-07-13T12:20:33Z</time>
      </trkpt>
      <trkpt lat="46.199795426800847" lon="10.433450164273381">
        <ele>2490.9099999999999</ele>
        <time>2018-07-13T12:20:45Z</time>
      </trkpt>
      <trkpt lat="46.19982979260385" lon="10.433437172323465">
        <ele>2490.4299999999998</ele>
        <time>2018-07-13T12:20:57Z</time>
      </trkpt>
      <trkpt lat="46.199821243062615" lon="10.433403896167874">
        <ele>2488.9899999999998</ele>
        <time>2018-07-13T12:21:08Z</time>
      </trkpt>
      <trkpt lat="46.199828283861279" lon="10.433385958895087">
        <ele>2488.0300000000002</ele>
        <time>2018-07-13T12:21:17Z</time>
      </trkpt>
      <trkpt lat="46.199831133708358" lon="10.433404063805938">
        <ele>2488.0300000000002</ele>
        <time>2018-07-13T12:21:27Z</time>
      </trkpt>
      <trkpt lat="46.199843790382147" lon="10.433403728529811">
        <ele>2487.5500000000002</ele>
        <time>2018-07-13T12:21:39Z</time>
      </trkpt>
      <trkpt lat="46.199827026575804" lon="10.433425521478057">
        <ele>2487.0700000000002</ele>
        <time>2018-07-13T12:21:52Z</time>
      </trkpt>
      <trkpt lat="46.199810178950429" lon="10.43338855728507">
        <ele>2486.1100000000001</ele>
        <time>2018-07-13T12:22:06Z</time>
      </trkpt>
      <trkpt lat="46.199793415144086" lon="10.43336751870811">
        <ele>2484.1799999999998</ele>
        <time>2018-07-13T12:22:17Z</time>
      </trkpt>
      <trkpt lat="46.19980582036078" lon="10.433315383270383">
        <ele>2482.7399999999998</ele>
        <time>2018-07-13T12:22:26Z</time>
      </trkpt>
      <trkpt lat="46.199824176728725" lon="10.433284286409616">
        <ele>2480.8200000000002</ele>
        <time>2018-07-13T12:22:36Z</time>
      </trkpt>
      <trkpt lat="46.199829960241914" lon="10.433248328045011">
        <ele>2478.9000000000001</ele>
        <time>2018-07-13T12:22:45Z</time>
      </trkpt>
      <trkpt lat="46.199828954413533" lon="10.433218153193593">
        <ele>2476.9699999999998</ele>
        <time>2018-07-13T12:22:55Z</time>
      </trkpt>
      <trkpt lat="46.199862398207188" lon="10.433170292526484">
        <ele>2474.5700000000002</ele>
        <time>2018-07-13T12:23:06Z</time>
      </trkpt>
      <trkpt lat="46.199867846444249" lon="10.433107512071729">
        <ele>2472.6500000000001</ele>
        <time>2018-07-13T12:23:17Z</time>
      </trkpt>
      <trkpt lat="46.199862482026219" lon="10.433088317513466">
        <ele>2471.21</ele>
        <time>2018-07-13T12:23:27Z</time>
      </trkpt>
      <trkpt lat="46.199857704341412" lon="10.433089658617973">
        <ele>2470.73</ele>
        <time>2018-07-13T12:23:28Z</time>
      </trkpt>
      <trkpt lat="46.19983859360218" lon="10.433085970580578">
        <ele>2468.8000000000002</ele>
        <time>2018-07-13T12:23:39Z</time>
      </trkpt>
      <trkpt lat="46.199842868372798" lon="10.433016149327159">
        <ele>2466.8800000000001</ele>
        <time>2018-07-13T12:23:50Z</time>
      </trkpt>
      <trkpt lat="46.199855105951428" lon="10.432979017496109">
        <ele>2464.96</ele>
        <time>2018-07-13T12:24:00Z</time>
      </trkpt>
      <trkpt lat="46.199864912778139" lon="10.432950602844357">
        <ele>2463.04</ele>
        <time>2018-07-13T12:24:08Z</time>
      </trkpt>
      <trkpt lat="46.199886705726385" lon="10.432901987805963">
        <ele>2461.5900000000001</ele>
        <time>2018-07-13T12:24:18Z</time>
      </trkpt>
      <trkpt lat="46.199857033789158" lon="10.432915650308132">
        <ele>2459.6700000000001</ele>
        <time>2018-07-13T12:24:27Z</time>
      </trkpt>
      <trkpt lat="46.199880838394165" lon="10.432820850983262">
        <ele>2457.27</ele>
        <time>2018-07-13T12:24:36Z</time>
      </trkpt>
      <trkpt lat="46.199905900284648" lon="10.432797549292445">
        <ele>2456.79</ele>
        <time>2018-07-13T12:24:46Z</time>
      </trkpt>
      <trkpt lat="46.199919814243913" lon="10.432744575664401">
        <ele>2454.8600000000001</ele>
        <time>2018-07-13T12:24:56Z</time>
      </trkpt>
      <trkpt lat="46.199929788708687" lon="10.432721441611648">
        <ele>2453.4200000000001</ele>
        <time>2018-07-13T12:25:05Z</time>
      </trkpt>
      <trkpt lat="46.199931968003511" lon="10.43270886875689">
        <ele>2452.9400000000001</ele>
        <time>2018-07-13T12:25:14Z</time>
      </trkpt>
      <trkpt lat="46.199928699061275" lon="10.432669389992952">
        <ele>2451.02</ele>
        <time>2018-07-13T12:25:24Z</time>
      </trkpt>
      <trkpt lat="46.199944373220205" lon="10.432619350031018">
        <ele>2450.0599999999999</ele>
        <time>2018-07-13T12:25:33Z</time>
      </trkpt>
      <trkpt lat="46.199928866699338" lon="10.43260526843369">
        <ele>2448.6199999999999</ele>
        <time>2018-07-13T12:25:44Z</time>
      </trkpt>
      <trkpt lat="46.199941104277968" lon="10.432569142431021">
        <ele>2447.1700000000001</ele>
        <time>2018-07-13T12:25:55Z</time>
      </trkpt>
      <trkpt lat="46.199925681576133" lon="10.432595461606979">
        <ele>2446.21</ele>
        <time>2018-07-13T12:26:04Z</time>
      </trkpt>
      <trkpt lat="46.199909755960107" lon="10.432589091360569">
        <ele>2443.8099999999999</ele>
        <time>2018-07-13T12:26:14Z</time>
      </trkpt>
      <trkpt lat="46.199889471754432" lon="10.432553300634027">
        <ele>2443.3299999999999</ele>
        <time>2018-07-13T12:26:27Z</time>
      </trkpt>
      <trkpt lat="46.199885113164783" lon="10.432484820485115">
        <ele>2441.4099999999999</ele>
        <time>2018-07-13T12:26:38Z</time>
      </trkpt>
      <trkpt lat="46.199887963011861" lon="10.43246160261333">
        <ele>2439.48</ele>
        <time>2018-07-13T12:26:48Z</time>
      </trkpt>
      <trkpt lat="46.199913946911693" lon="10.432463781908154">
        <ele>2439.48</ele>
        <time>2018-07-13T12:27:01Z</time>
      </trkpt>
      <trkpt lat="46.199902798980474" lon="10.43240980245173">
        <ele>2438.52</ele>
        <time>2018-07-13T12:27:09Z</time>
      </trkpt>
      <trkpt lat="46.199898859485984" lon="10.432364540174603">
        <ele>2436.5999999999999</ele>
        <time>2018-07-13T12:27:20Z</time>
      </trkpt>
      <trkpt lat="46.19990162551403" lon="10.432291198521852">
        <ele>2433.23</ele>
        <time>2018-07-13T12:27:31Z</time>
      </trkpt>
      <trkpt lat="46.199896680191159" lon="10.432225149124861">
        <ele>2431.3099999999999</ele>
        <time>2018-07-13T12:27:42Z</time>
      </trkpt>
      <trkpt lat="46.1999152880162" lon="10.432162117213011">
        <ele>2429.8699999999999</ele>
        <time>2018-07-13T12:27:52Z</time>
      </trkpt>
      <trkpt lat="46.199925933033228" lon="10.432123141363263">
        <ele>2427.9499999999998</ele>
        <time>2018-07-13T12:28:03Z</time>
      </trkpt>
      <trkpt lat="46.199943786486983" lon="10.432033287361264">
        <ele>2426.02</ele>
        <time>2018-07-13T12:28:15Z</time>
      </trkpt>
      <trkpt lat="46.199942696839571" lon="10.431975368410349">
        <ele>2423.6199999999999</ele>
        <time>2018-07-13T12:28:26Z</time>
      </trkpt>
      <trkpt lat="46.199941271916032" lon="10.431922981515527">
        <ele>2421.6999999999998</ele>
        <time>2018-07-13T12:28:37Z</time>
      </trkpt>
      <trkpt lat="46.199945630505681" lon="10.431891968473792">
        <ele>2420.2600000000002</ele>
        <time>2018-07-13T12:28:49Z</time>
      </trkpt>
      <trkpt lat="46.199939092621207" lon="10.431881910189986">
        <ele>2419.7800000000002</ele>
        <time>2018-07-13T12:28:59Z</time>
      </trkpt>
      <trkpt lat="46.199915455654263" lon="10.431921556591988">
        <ele>2417.8499999999999</ele>
        <time>2018-07-13T12:29:09Z</time>
      </trkpt>
      <trkpt lat="46.199908079579473" lon="10.431863637641072">
        <ele>2415.9299999999998</ele>
        <time>2018-07-13T12:29:17Z</time>
      </trkpt>
      <trkpt lat="46.199906738474965" lon="10.431793732568622">
        <ele>2414.4899999999998</ele>
        <time>2018-07-13T12:29:28Z</time>
      </trkpt>
      <trkpt lat="46.199873043224216" lon="10.431765988469124">
        <ele>2413.5300000000002</ele>
        <time>2018-07-13T12:29:40Z</time>
      </trkpt>
      <trkpt lat="46.199869271367788" lon="10.431718965992332">
        <ele>2410.6399999999999</ele>
        <time>2018-07-13T12:29:46Z</time>
      </trkpt>
      <trkpt lat="46.199871869757771" lon="10.431701699271798">
        <ele>2409.6799999999998</ele>
        <time>2018-07-13T12:29:48Z</time>
      </trkpt>
      <trkpt lat="46.199861895292997" lon="10.431651407852769">
        <ele>2408.2399999999998</ele>
        <time>2018-07-13T12:29:57Z</time>
      </trkpt>
      <trkpt lat="46.199845299124718" lon="10.431575803086162">
        <ele>2406.3200000000002</ele>
        <time>2018-07-13T12:30:08Z</time>
      </trkpt>
      <trkpt lat="46.199836665764451" lon="10.431547304615378">
        <ele>2403.9099999999999</ele>
        <time>2018-07-13T12:30:17Z</time>
      </trkpt>
      <trkpt lat="46.199825936928391" lon="10.431537833064795">
        <ele>2402.9499999999998</ele>
        <time>2018-07-13T12:30:28Z</time>
      </trkpt>
      <trkpt lat="46.199808418750763" lon="10.4314701911062">
        <ele>2399.5900000000001</ele>
        <time>2018-07-13T12:30:39Z</time>
      </trkpt>
      <trkpt lat="46.199792241677642" lon="10.431399447843432">
        <ele>2397.1799999999998</ele>
        <time>2018-07-13T12:30:50Z</time>
      </trkpt>
      <trkpt lat="46.199772376567125" lon="10.431343372911215">
        <ele>2395.2600000000002</ele>
        <time>2018-07-13T12:31:02Z</time>
      </trkpt>
      <trkpt lat="46.199759300798178" lon="10.431307498365641">
        <ele>2393.8200000000002</ele>
        <time>2018-07-13T12:31:11Z</time>
      </trkpt>
      <trkpt lat="46.199747063219547" lon="10.431219236925244">
        <ele>2390.9400000000001</ele>
        <time>2018-07-13T12:31:22Z</time>
      </trkpt>
      <trkpt lat="46.199752511456609" lon="10.431158551946282">
        <ele>2389.4899999999998</ele>
        <time>2018-07-13T12:31:33Z</time>
      </trkpt>
      <trkpt lat="46.199758881703019" lon="10.431145979091525">
        <ele>2389.0100000000002</ele>
        <time>2018-07-13T12:31:44Z</time>
      </trkpt>
      <trkpt lat="46.199740525335073" lon="10.43115402571857">
        <ele>2387.5700000000002</ele>
        <time>2018-07-13T12:31:54Z</time>
      </trkpt>
      <trkpt lat="46.199736753478646" lon="10.4311628267169">
        <ele>2387.0900000000001</ele>
        <time>2018-07-13T12:32:03Z</time>
      </trkpt>
      <trkpt lat="46.199722168967128" lon="10.431140698492527">
        <ele>2386.6100000000001</ele>
        <time>2018-07-13T12:32:13Z</time>
      </trkpt>
      <trkpt lat="46.199689228087664" lon="10.431154863908887">
        <ele>2384.21</ele>
        <time>2018-07-13T12:32:23Z</time>
      </trkpt>
      <trkpt lat="46.1996631603688" lon="10.431147571653128">
        <ele>2383.73</ele>
        <time>2018-07-13T12:32:34Z</time>
      </trkpt>
      <trkpt lat="46.199630806222558" lon="10.431163748726249">
        <ele>2380.8400000000001</ele>
        <time>2018-07-13T12:32:45Z</time>
      </trkpt>
      <trkpt lat="46.199623430147767" lon="10.431075738742948">
        <ele>2377.96</ele>
        <time>2018-07-13T12:32:56Z</time>
      </trkpt>
      <trkpt lat="46.199575234204531" lon="10.431083701550961">
        <ele>2375.0700000000002</ele>
        <time>2018-07-13T12:33:08Z</time>
      </trkpt>
      <trkpt lat="46.199561906978488" lon="10.431014383211732">
        <ele>2372.1900000000001</ele>
        <time>2018-07-13T12:33:20Z</time>
      </trkpt>
      <trkpt lat="46.19957079179585" lon="10.430948417633772">
        <ele>2370.27</ele>
        <time>2018-07-13T12:33:29Z</time>
      </trkpt>
      <trkpt lat="46.19956593029201" lon="10.430926708504558">
        <ele>2369.3099999999999</ele>
        <time>2018-07-13T12:33:34Z</time>
      </trkpt>
      <trkpt lat="46.199533408507705" lon="10.430901311337948">
        <ele>2366.9000000000001</ele>
        <time>2018-07-13T12:33:45Z</time>
      </trkpt>
      <trkpt lat="46.199547154828906" lon="10.430829646065831">
        <ele>2364.5</ele>
        <time>2018-07-13T12:33:55Z</time>
      </trkpt>
      <trkpt lat="46.199564756825566" lon="10.430769380182028">
        <ele>2363.0599999999999</ele>
        <time>2018-07-13T12:34:07Z</time>
      </trkpt>
      <trkpt lat="46.199566433206201" lon="10.430731074884534">
        <ele>2361.1399999999999</ele>
        <time>2018-07-13T12:34:20Z</time>
      </trkpt>
      <trkpt lat="46.199560901150107" lon="10.430670557543635">
        <ele>2358.25</ele>
        <time>2018-07-13T12:34:31Z</time>
      </trkpt>
      <trkpt lat="46.199576910585165" lon="10.430611548945308">
        <ele>2355.8499999999999</ele>
        <time>2018-07-13T12:34:41Z</time>
      </trkpt>
      <trkpt lat="46.199576323851943" lon="10.430570980533957">
        <ele>2353.9299999999998</ele>
        <time>2018-07-13T12:34:50Z</time>
      </trkpt>
      <trkpt lat="46.199543215334415" lon="10.430570729076862">
        <ele>2352</ele>
        <time>2018-07-13T12:35:00Z</time>
      </trkpt>
      <trkpt lat="46.199514465406537" lon="10.430530998855829">
        <ele>2350.5599999999999</ele>
        <time>2018-07-13T12:35:11Z</time>
      </trkpt>
      <trkpt lat="46.199505580589175" lon="10.430464195087552">
        <ele>2348.6399999999999</ele>
        <time>2018-07-13T12:35:22Z</time>
      </trkpt>
      <trkpt lat="46.199535336345434" lon="10.430297395214438">
        <ele>2322.72265625</ele>
      </trkpt>
      <trkpt lat="46.199557799845934" lon="10.430088266730309">
        <ele>2315.75</ele>
      </trkpt>
      <trkpt lat="46.199629632756114" lon="10.429861200973392">
        <ele>2311.015625</ele>
      </trkpt>
      <trkpt lat="46.199652096256614" lon="10.429616281762719">
        <ele>2305.7421875</ele>
      </trkpt>
      <trkpt lat="46.199697023257613" lon="10.429353341460228">
        <ele>2302.09765625</ele>
      </trkpt>
      <trkpt lat="46.199719486758113" lon="10.428935084491968">
        <ele>2294.5625</ele>
      </trkpt>
      <trkpt lat="46.1997374240309" lon="10.428630402311683">
        <ele>2291.3984375</ele>
      </trkpt>
      <trkpt lat="46.199746476486325" lon="10.42828381061554">
        <ele>2284.0625</ele>
      </trkpt>
      <trkpt lat="46.199755445122719" lon="10.427919365465641">
        <ele>2269.609375</ele>
      </trkpt>
      <trkpt lat="46.199710434302688" lon="10.427704285830259">
        <ele>2257.11328125</ele>
      </trkpt>
      <trkpt lat="46.199643043801188" lon="10.427459282800555">
        <ele>2247.60546875</ele>
      </trkpt>
      <trkpt lat="46.199589148163795" lon="10.427303966134787">
        <ele>2242.7421875</ele>
      </trkpt>
      <trkpt lat="46.199535252526402" lon="10.427178489044309">
        <ele>2238.91796875</ele>
      </trkpt>
      <trkpt lat="46.199490325525403" lon="10.427023088559508">
        <ele>2234.96484375</ele>
      </trkpt>
      <trkpt lat="46.19945889338851" lon="10.426927534863353">
        <ele>2232.85546875</ele>
      </trkpt>
      <trkpt lat="46.199396029114723" lon="10.426813960075378">
        <ele>2230.69921875</ele>
      </trkpt>
      <trkpt lat="46.199324112385511" lon="10.426706420257688">
        <ele>2228.96484375</ele>
      </trkpt>
      <trkpt lat="46.199243310838938" lon="10.4266107827425">
        <ele>2227.02734375</ele>
      </trkpt>
      <trkpt lat="46.199180446565151" lon="10.426574992015958">
        <ele>2226.03125</ele>
      </trkpt>
      <trkpt lat="46.19908606633544" lon="10.426545068621635">
        <ele>2224.9765625</ele>
      </trkpt>
      <trkpt lat="46.199023202061653" lon="10.426551103591919">
        <ele>2224.5390625</ele>
      </trkpt>
      <trkpt lat="46.199018675833941" lon="10.426353877410293">
        <ele>2218.06640625</ele>
      </trkpt>
      <trkpt lat="46.199050191789865" lon="10.426216498017311">
        <ele>2214.61328125</ele>
      </trkpt>
      <trkpt lat="46.199090592563152" lon="10.42616268619895">
        <ele>2213.796875</ele>
      </trkpt>
      <trkpt lat="46.199130993336439" lon="10.425917683169246">
        <ele>2207.671875</ele>
      </trkpt>
      <trkpt lat="46.199180446565151" lon="10.425720540806651">
        <ele>2197.078125</ele>
      </trkpt>
      <trkpt lat="46.199220847338438" lon="10.425565224140882">
        <ele>2182.97265625</ele>
      </trkpt>
      <trkpt lat="46.19931966997683" lon="10.425481572747231">
        <ele>2172.63671875</ele>
      </trkpt>
      <trkpt lat="46.199396029114723" lon="10.425373949110508">
        <ele>2163.125</ele>
      </trkpt>
      <trkpt lat="46.199472388252616" lon="10.425278395414352">
        <ele>2157.6953125</ele>
      </trkpt>
      <trkpt lat="46.199404997751117" lon="10.425188792869449">
        <ele>2152.7578125</ele>
      </trkpt>
      <trkpt lat="46.199396029114723" lon="10.425003552809358">
        <ele>2143.43359375</ele>
      </trkpt>
      <trkpt lat="46.19943642988801" lon="10.424872124567628">
        <ele>2136.1953125</ele>
      </trkpt>
      <trkpt lat="46.199526283890009" lon="10.424710772931576">
        <ele>2125.85546875</ele>
      </trkpt>
      <trkpt lat="46.199598116800189" lon="10.424597198143601">
        <ele>2121.1328125</ele>
      </trkpt>
      <trkpt lat="46.199665507301688" lon="10.424519581720233">
        <ele>2118.54296875</ele>
      </trkpt>
      <trkpt lat="46.199737340211868" lon="10.424471721053123">
        <ele>2117.8359375</ele>
      </trkpt>
      <trkpt lat="46.199827194213867" lon="10.424370216205716">
        <ele>2117.15234375</ele>
      </trkpt>
      <trkpt lat="46.19990355335176" lon="10.424244739115238">
        <ele>2115.51171875</ele>
      </trkpt>
      <trkpt lat="46.199970943853259" lon="10.424155052751303">
        <ele>2115.69140625</ele>
      </trkpt>
      <trkpt lat="46.200020313262939" lon="10.424071401357651">
        <ele>2116.28125</ele>
      </trkpt>
      <trkpt lat="46.199984438717365" lon="10.423850370571017">
        <ele>2107.71484375</ele>
      </trkpt>
      <trkpt lat="46.199917048215866" lon="10.423575527966022">
        <ele>2098.015625</ele>
      </trkpt>
      <trkpt lat="46.199917048215866" lon="10.423450050875545">
        <ele>2094.30859375</ele>
      </trkpt>
      <trkpt lat="46.199880838394165" lon="10.423270678147674">
        <ele>2087.2421875</ele>
      </trkpt>
      <trkpt lat="46.199853848665953" lon="10.423085438087583">
        <ele>2079.3125</ele>
      </trkpt>
      <trkpt lat="46.199817890301347" lon="10.422846470028162">
        <ele>2068.734375</ele>
      </trkpt>
      <trkpt lat="46.199826942756772" lon="10.422691153362393">
        <ele>2062.48828125</ele>
      </trkpt>
      <trkpt lat="46.19989424943924" lon="10.422541704028845">
        <ele>2058.5859375</ele>
      </trkpt>
      <trkpt lat="46.199930207803845" lon="10.422320673242211">
        <ele>2052.92578125</ele>
      </trkpt>
      <trkpt lat="46.199979661032557" lon="10.422093607485294">
        <ele>2047.69140625</ele>
      </trkpt>
      <trkpt lat="46.200006566941738" lon="10.421968130394816">
        <ele>2046.21484375</ele>
      </trkpt>
      <trkpt lat="46.200006566941738" lon="10.421735113486648">
        <ele>2042.05078125</ele>
      </trkpt>
      <trkpt lat="46.200011093169451" lon="10.421561859548092">
        <ele>2037.875</ele>
      </trkpt>
      <trkpt lat="46.20003355666995" lon="10.421376619488001">
        <ele>2033.21875</ele>
      </trkpt>
      <trkpt lat="46.20005602017045" lon="10.421179477125406">
        <ele>2027.90234375</ele>
      </trkpt>
      <trkpt lat="46.200029030442238" lon="10.420976299792528">
        <ele>2018.39453125</ele>
      </trkpt>
      <trkpt lat="46.199993072077632" lon="10.420797010883689">
        <ele>2011.46484375</ele>
      </trkpt>
      <trkpt lat="46.199970608577132" lon="10.420743282884359">
        <ele>2009.04296875</ele>
      </trkpt>
      <trkpt lat="46.19989424943924" lon="10.42077312245965">
        <ele>2007.28515625</ele>
      </trkpt>
      <trkpt lat="46.19979995302856" lon="10.420814948156476">
        <ele>2005.28515625</ele>
      </trkpt>
      <trkpt lat="46.199687635526061" lon="10.420862725004554">
        <ele>2004.09765625</ele>
      </trkpt>
      <trkpt lat="46.199561906978488" lon="10.420916536822915">
        <ele>2004.28515625</ele>
      </trkpt>
      <trkpt lat="46.199445147067308" lon="10.42071939446032">
        <ele>2000.63671875</ele>
      </trkpt>
      <trkpt lat="46.199350766837597" lon="10.420546056702733">
        <ele>2002.01953125</ele>
      </trkpt>
      <trkpt lat="46.19923853315413" lon="10.420462405309081">
        <ele>2004.58984375</ele>
      </trkpt>
      <trkpt lat="46.199112720787525" lon="10.420342963188887">
        <ele>2007.890625</ele>
      </trkpt>
      <trkpt lat="46.198969054967165" lon="10.420163674280047">
        <ele>2011.890625</ele>
      </trkpt>
      <trkpt lat="46.198897138237953" lon="10.420008357614279">
        <ele>2011.68359375</ele>
      </trkpt>
      <trkpt lat="46.19881633669138" lon="10.41993660852313">
        <ele>2013.23828125</ele>
      </trkpt>
      <trkpt lat="46.198735451325774" lon="10.419793194159865">
        <ele>2012.36328125</ele>
      </trkpt>
      <trkpt lat="46.198614416643977" lon="10.419518435373902">
        <ele>2014.2421875</ele>
      </trkpt>
      <trkpt lat="46.198502099141479" lon="10.419267481192946">
        <ele>2019.71484375</ele>
      </trkpt>
      <trkpt lat="46.198389865458012" lon="10.419022561982274">
        <ele>2017.26171875</ele>
      </trkpt>
      <trkpt lat="46.198282074183226" lon="10.418753670528531">
        <ele>2018.42578125</ele>
      </trkpt>
      <trkpt lat="46.198205715045333" lon="10.418592318892479">
        <ele>2019.58203125</ele>
      </trkpt>
      <trkpt lat="46.198115861043334" lon="10.418377239257097">
        <ele>2020.19921875</ele>
      </trkpt>
      <trkpt lat="46.198039501905441" lon="10.418108347803354">
        <ele>2007.6015625</ele>
      </trkpt>
      <trkpt lat="46.197976637631655" lon="10.41794104501605">
        <ele>2000.2890625</ele>
      </trkpt>
      <trkpt lat="46.197913689538836" lon="10.417803581804037">
        <ele>1994.48828125</ele>
      </trkpt>
      <trkpt lat="46.19782836176455" lon="10.417666202411056">
        <ele>1993.59375</ele>
      </trkpt>
      <trkpt lat="46.197743033990264" lon="10.417534774169326">
        <ele>1996.5</ele>
      </trkpt>
      <trkpt lat="46.197617305442691" lon="10.417367471382022">
        <ele>2002.83984375</ele>
      </trkpt>
      <trkpt lat="46.197513956576586" lon="10.417259931564331">
        <ele>2006.4609375</ele>
      </trkpt>
      <trkpt lat="46.197446566075087" lon="10.417200168594718">
        <ele>2007.1328125</ele>
      </trkpt>
      <trkpt lat="46.197370206937194" lon="10.417008977383375">
        <ele>2001.984375</ele>
      </trkpt>
      <trkpt lat="46.197302816435695" lon="10.416787778958678">
        <ele>1992.0078125</ele>
      </trkpt>
      <trkpt lat="46.197289321571589" lon="10.416494999080896">
        <ele>1982.6328125</ele>
      </trkpt>
      <trkpt lat="46.197271384298801" lon="10.416130553930998">
        <ele>1974.05078125</ele>
      </trkpt>
      <trkpt lat="46.197217488661408" lon="10.415891502052546">
        <ele>1971.04296875</ele>
      </trkpt>
      <trkpt lat="46.197141129523516" lon="10.415706261992455">
        <ele>1969.484375</ele>
      </trkpt>
      <trkpt lat="46.197051275521517" lon="10.415556896477938">
        <ele>1969.98828125</ele>
      </trkpt>
      <trkpt lat="46.19698841124773" lon="10.415467293933034">
        <ele>1971.3515625</ele>
      </trkpt>
      <trkpt lat="46.196858156472445" lon="10.415282053872943">
        <ele>1975.2109375</ele>
      </trkpt>
      <trkpt lat="46.196745838969946" lon="10.415180465206504">
        <ele>1981.734375</ele>
      </trkpt>
      <trkpt lat="46.196696469560266" lon="10.415114751085639">
        <ele>1982.8671875</ele>
      </trkpt>
      <trkpt lat="46.196804260835052" lon="10.414983322843909">
        <ele>1974.28125</ele>
      </trkpt>
      <trkpt lat="46.197024285793304" lon="10.414989273995161">
        <ele>1962.3359375</ele>
      </trkpt>
      <trkpt lat="46.197226457297802" lon="10.414929511025548">
        <ele>1952.52734375</ele>
      </trkpt>
      <trkpt lat="46.197392670437694" lon="10.41488173417747">
        <ele>1943.546875</ele>
      </trkpt>
      <trkpt lat="46.197442039847374" lon="10.414845859631896">
        <ele>1940.69921875</ele>
      </trkpt>
      <trkpt lat="46.197542203590274" lon="10.41473756544292">
        <ele>1929.5</ele>
        <time>2018-07-13T14:32:18Z</time>
      </trkpt>
      <trkpt lat="46.197506748139858" lon="10.414782324805856">
        <ele>1933.3499999999999</ele>
        <time>2018-07-13T14:32:36Z</time>
      </trkpt>
      <trkpt lat="46.197505993768573" lon="10.414784755557775">
        <ele>1936.23</ele>
        <time>2018-07-13T14:32:55Z</time>
      </trkpt>
      <trkpt lat="46.197503311559558" lon="10.414808811619878">
        <ele>1939.1199999999999</ele>
        <time>2018-07-13T14:33:24Z</time>
      </trkpt>
      <trkpt lat="46.197497863322496" lon="10.414823060855269">
        <ele>1939.1199999999999</ele>
        <time>2018-07-13T14:33:48Z</time>
      </trkpt>
      <trkpt lat="46.197488307952881" lon="10.414782492443919">
        <ele>1941.52</ele>
        <time>2018-07-13T14:34:01Z</time>
      </trkpt>
      <trkpt lat="46.197480261325836" lon="10.414840159937739">
        <ele>1937.6700000000001</ele>
        <time>2018-07-13T14:34:08Z</time>
      </trkpt>
      <trkpt lat="46.19750339537859" lon="10.414807302877307">
        <ele>1939.1199999999999</ele>
        <time>2018-07-13T14:34:21Z</time>
      </trkpt>
      <trkpt lat="46.197528792545199" lon="10.4148093983531">
        <ele>1939.1199999999999</ele>
        <time>2018-07-13T14:34:44Z</time>
      </trkpt>
      <trkpt lat="46.197503814473748" lon="10.414806716144085">
        <ele>1939.5999999999999</ele>
        <time>2018-07-13T14:35:22Z</time>
      </trkpt>
      <trkpt lat="46.197494929656386" lon="10.414794813841581">
        <ele>1939.5999999999999</ele>
        <time>2018-07-13T14:35:43Z</time>
      </trkpt>
      <trkpt lat="46.197501299902797" lon="10.414803279563785">
        <ele>1939.5999999999999</ele>
        <time>2018-07-13T14:35:57Z</time>
      </trkpt>
      <trkpt lat="46.197496186941862" lon="10.414786012843251">
        <ele>1939.1199999999999</ele>
        <time>2018-07-13T14:36:26Z</time>
      </trkpt>
      <trkpt lat="46.197496019303799" lon="10.41477469727397">
        <ele>1939.5999999999999</ele>
        <time>2018-07-13T14:36:48Z</time>
      </trkpt>
      <trkpt lat="46.197487385943532" lon="10.414790790528059">
        <ele>1938.6400000000001</ele>
        <time>2018-07-13T14:37:16Z</time>
      </trkpt>
      <trkpt lat="46.197493756189942" lon="10.414781235158443">
        <ele>1939.1199999999999</ele>
        <time>2018-07-13T14:37:33Z</time>
      </trkpt>
    </trkseg>
  </trk>

  <trk>
    <name>8adamello2018-07-14 001</name>
    <extensions>
      <gpxx:TrackExtension>
        <gpxx:DisplayColor>Yellow</gpxx:DisplayColor>
      </gpxx:TrackExtension>
    </extensions>
    <trkseg>
      <trkpt lat="46.197440112009645" lon="10.414729434996843">
        <ele>1938.6400000000001</ele>
        <time>2018-07-14T05:30:24Z</time>
      </trkpt>
      <trkpt lat="46.197442375123501" lon="10.414728512987494">
        <ele>1938.6400000000001</ele>
        <time>2018-07-14T05:30:25Z</time>
      </trkpt>
      <trkpt lat="46.197417229413986" lon="10.41470630094409">
        <ele>1939.5999999999999</ele>
        <time>2018-07-14T05:30:36Z</time>
      </trkpt>
      <trkpt lat="46.197398956865072" lon="10.414686603471637">
        <ele>1939.5999999999999</ele>
        <time>2018-07-14T05:30:39Z</time>
      </trkpt>
      <trkpt lat="46.197328045964241" lon="10.414627762511373">
        <ele>1940.5599999999999</ele>
        <time>2018-07-14T05:30:50Z</time>
      </trkpt>
      <trkpt lat="46.19725126773119" lon="10.414576968178153">
        <ele>1942</ele>
        <time>2018-07-14T05:31:02Z</time>
      </trkpt>
      <trkpt lat="46.197189744561911" lon="10.414531286805868">
        <ele>1942</ele>
        <time>2018-07-14T05:31:12Z</time>
      </trkpt>
      <trkpt lat="46.19712034240365" lon="10.414470937103033">
        <ele>1942</ele>
        <time>2018-07-14T05:31:23Z</time>
      </trkpt>
      <trkpt lat="46.197058651596308" lon="10.41437890380621">
        <ele>1942.48</ele>
        <time>2018-07-14T05:31:34Z</time>
      </trkpt>
      <trkpt lat="46.197012970224023" lon="10.414301119744778">
        <ele>1943.4400000000001</ele>
        <time>2018-07-14T05:31:45Z</time>
      </trkpt>
      <trkpt lat="46.196970976889133" lon="10.414240518584847">
        <ele>1944.4000000000001</ele>
        <time>2018-07-14T05:31:54Z</time>
      </trkpt>
      <trkpt lat="46.196905765682459" lon="10.414162231609225">
        <ele>1945.8499999999999</ele>
        <time>2018-07-14T05:32:05Z</time>
      </trkpt>
      <trkpt lat="46.196833262220025" lon="10.414112778380513">
        <ele>1946.3299999999999</ele>
        <time>2018-07-14T05:32:16Z</time>
      </trkpt>
      <trkpt lat="46.196814654394984" lon="10.414103977382183">
        <ele>1945.8499999999999</ele>
        <time>2018-07-14T05:32:19Z</time>
      </trkpt>
      <trkpt lat="46.196788251399994" lon="10.414078831672668">
        <ele>1945.3599999999999</ele>
        <time>2018-07-14T05:32:22Z</time>
      </trkpt>
      <trkpt lat="46.196689261123538" lon="10.414085453376174">
        <ele>1944.8800000000001</ele>
        <time>2018-07-14T05:32:33Z</time>
      </trkpt>
      <trkpt lat="46.196576692163944" lon="10.414116885513067">
        <ele>1944.8800000000001</ele>
        <time>2018-07-14T05:32:45Z</time>
      </trkpt>
      <trkpt lat="46.196529837325215" lon="10.414082268252969">
        <ele>1944.8800000000001</ele>
        <time>2018-07-14T05:32:55Z</time>
      </trkpt>
      <trkpt lat="46.196487760171294" lon="10.414100624620914">
        <ele>1944.8800000000001</ele>
        <time>2018-07-14T05:33:05Z</time>
      </trkpt>
      <trkpt lat="46.196443168446422" lon="10.414054607972503">
        <ele>1945.3599999999999</ele>
        <time>2018-07-14T05:33:15Z</time>
      </trkpt>
      <trkpt lat="46.196357002481818" lon="10.413997611030936">
        <ele>1946.3299999999999</ele>
        <time>2018-07-14T05:33:26Z</time>
      </trkpt>
      <trkpt lat="46.196323139593005" lon="10.414026109501719">
        <ele>1946.8099999999999</ele>
        <time>2018-07-14T05:33:32Z</time>
      </trkpt>
      <trkpt lat="46.196239572018385" lon="10.414105067029595">
        <ele>1946.8099999999999</ele>
        <time>2018-07-14T05:33:45Z</time>
      </trkpt>
      <trkpt lat="46.196233872324228" lon="10.414138427004218">
        <ele>1947.29</ele>
        <time>2018-07-14T05:33:58Z</time>
      </trkpt>
      <trkpt lat="46.196176204830408" lon="10.41418394073844">
        <ele>1947.77</ele>
        <time>2018-07-14T05:34:11Z</time>
      </trkpt>
      <trkpt lat="46.196123817935586" lon="10.41425283998251">
        <ele>1949.21</ele>
        <time>2018-07-14T05:34:19Z</time>
      </trkpt>
      <trkpt lat="46.196042094379663" lon="10.414274549111724">
        <ele>1949.21</ele>
        <time>2018-07-14T05:34:29Z</time>
      </trkpt>
      <trkpt lat="46.196010243147612" lon="10.414293073117733">
        <ele>1948.73</ele>
        <time>2018-07-14T05:34:38Z</time>
      </trkpt>
      <trkpt lat="46.195982163771987" lon="10.414306819438934">
        <ele>1948.73</ele>
        <time>2018-07-14T05:34:47Z</time>
      </trkpt>
      <trkpt lat="46.195944445207715" lon="10.414326684549451">
        <ele>1948.73</ele>
        <time>2018-07-14T05:34:58Z</time>
      </trkpt>
      <trkpt lat="46.195895159617066" lon="10.414376305416226">
        <ele>1948.25</ele>
        <time>2018-07-14T05:35:08Z</time>
      </trkpt>
      <trkpt lat="46.195820225402713" lon="10.414401283487678">
        <ele>1947.77</ele>
        <time>2018-07-14T05:35:20Z</time>
      </trkpt>
      <trkpt lat="46.195752583444118" lon="10.414403295144439">
        <ele>1948.25</ele>
        <time>2018-07-14T05:35:29Z</time>
      </trkpt>
      <trkpt lat="46.195682007819414" lon="10.414419053122401">
        <ele>1947.77</ele>
        <time>2018-07-14T05:35:38Z</time>
      </trkpt>
      <trkpt lat="46.19565149769187" lon="10.414439672604203">
        <ele>1947.77</ele>
        <time>2018-07-14T05:35:42Z</time>
      </trkpt>
      <trkpt lat="46.195603804662824" lon="10.414419723674655">
        <ele>1948.25</ele>
        <time>2018-07-14T05:35:52Z</time>
      </trkpt>
      <trkpt lat="46.195542784407735" lon="10.414416287094355">
        <ele>1948.25</ele>
        <time>2018-07-14T05:36:01Z</time>
      </trkpt>
      <trkpt lat="46.195493917912245" lon="10.414429027587175">
        <ele>1948.73</ele>
        <time>2018-07-14T05:36:11Z</time>
      </trkpt>
      <trkpt lat="46.195441614836454" lon="10.414440426975489">
        <ele>1949.6900000000001</ele>
        <time>2018-07-14T05:36:20Z</time>
      </trkpt>
      <trkpt lat="46.19537103921175" lon="10.414433386176825">
        <ele>1950.6500000000001</ele>
        <time>2018-07-14T05:36:32Z</time>
      </trkpt>
      <trkpt lat="46.195316053926945" lon="10.414417376741767">
        <ele>1952.5699999999999</ele>
        <time>2018-07-14T05:36:44Z</time>
      </trkpt>
      <trkpt lat="46.195247992873192" lon="10.414395583793521">
        <ele>1953.54</ele>
        <time>2018-07-14T05:36:54Z</time>
      </trkpt>
      <trkpt lat="46.195187559351325" lon="10.414421735331416">
        <ele>1954.02</ele>
        <time>2018-07-14T05:37:03Z</time>
      </trkpt>
      <trkpt lat="46.195113211870193" lon="10.414441013708711">
        <ele>1954.5</ele>
        <time>2018-07-14T05:37:13Z</time>
      </trkpt>
      <trkpt lat="46.195042552426457" lon="10.414444701746106">
        <ele>1954.5</ele>
        <time>2018-07-14T05:37:21Z</time>
      </trkpt>
      <trkpt lat="46.194937443360686" lon="10.414430033415556">
        <ele>1954.5</ele>
        <time>2018-07-14T05:37:33Z</time>
      </trkpt>
      <trkpt lat="46.194905508309603" lon="10.414411006495357">
        <ele>1954.02</ele>
        <time>2018-07-14T05:37:42Z</time>
      </trkpt>
      <trkpt lat="46.194855300709605" lon="10.414381250739098">
        <ele>1952.5699999999999</ele>
        <time>2018-07-14T05:37:52Z</time>
      </trkpt>
      <trkpt lat="46.194814061746001" lon="10.414390387013555">
        <ele>1952.5699999999999</ele>
        <time>2018-07-14T05:38:00Z</time>
      </trkpt>
      <trkpt lat="46.194758573547006" lon="10.414418717846274">
        <ele>1953.0599999999999</ele>
        <time>2018-07-14T05:38:11Z</time>
      </trkpt>
      <trkpt lat="46.194728650152683" lon="10.414489042013884">
        <ele>1952.0899999999999</ele>
        <time>2018-07-14T05:38:20Z</time>
      </trkpt>
      <trkpt lat="46.19463904760778" lon="10.41454260237515">
        <ele>1951.6099999999999</ele>
        <time>2018-07-14T05:38:30Z</time>
      </trkpt>
      <trkpt lat="46.194549193605781" lon="10.414569843560457">
        <ele>1953.0599999999999</ele>
        <time>2018-07-14T05:38:41Z</time>
      </trkpt>
      <trkpt lat="46.194506026804447" lon="10.414555091410875">
        <ele>1954.02</ele>
        <time>2018-07-14T05:38:48Z</time>
      </trkpt>
      <trkpt lat="46.194440396502614" lon="10.414550984278321">
        <ele>1954.5</ele>
        <time>2018-07-14T05:38:59Z</time>
      </trkpt>
      <trkpt lat="46.194390188902617" lon="10.414593564346433">
        <ele>1954.5</ele>
        <time>2018-07-14T05:39:07Z</time>
      </trkpt>
      <trkpt lat="46.194313494488597" lon="10.414669336751103">
        <ele>1955.46</ele>
        <time>2018-07-14T05:39:18Z</time>
      </trkpt>
      <trkpt lat="46.194255407899618" lon="10.414675874635577">
        <ele>1954.98</ele>
        <time>2018-07-14T05:39:28Z</time>
      </trkpt>
      <trkpt lat="46.194201847538352" lon="10.414738738909364">
        <ele>1954.02</ele>
        <time>2018-07-14T05:39:44Z</time>
      </trkpt>
      <trkpt lat="46.194105204194784" lon="10.414767656475306">
        <ele>1952.5699999999999</ele>
        <time>2018-07-14T05:39:55Z</time>
      </trkpt>
      <trkpt lat="46.194040914997458" lon="10.414779474958777">
        <ele>1951.6099999999999</ele>
        <time>2018-07-14T05:40:05Z</time>
      </trkpt>
      <trkpt lat="46.19402876123786" lon="10.414796322584152">
        <ele>1951.1300000000001</ele>
        <time>2018-07-14T05:40:08Z</time>
      </trkpt>
      <trkpt lat="46.193989031016827" lon="10.414886092767119">
        <ele>1950.6500000000001</ele>
        <time>2018-07-14T05:40:18Z</time>
      </trkpt>
      <trkpt lat="46.19394863024354" lon="10.414958763867617">
        <ele>1949.6900000000001</ele>
        <time>2018-07-14T05:40:28Z</time>
      </trkpt>
      <trkpt lat="46.193902865052223" lon="10.414995644241571">
        <ele>1949.6900000000001</ele>
        <time>2018-07-14T05:40:34Z</time>
      </trkpt>
      <trkpt lat="46.193845281377435" lon="10.415089521557093">
        <ele>1950.1700000000001</ele>
        <time>2018-07-14T05:40:45Z</time>
      </trkpt>
      <trkpt lat="46.193791888654232" lon="10.415162444114685">
        <ele>1950.1700000000001</ele>
        <time>2018-07-14T05:40:55Z</time>
      </trkpt>
      <trkpt lat="46.193734807893634" lon="10.415253136307001">
        <ele>1949.21</ele>
        <time>2018-07-14T05:41:06Z</time>
      </trkpt>
      <trkpt lat="46.193721480667591" lon="10.415269313380122">
        <ele>1949.21</ele>
        <time>2018-07-14T05:41:09Z</time>
      </trkpt>
      <trkpt lat="46.19364520534873" lon="10.41531222872436">
        <ele>1947.77</ele>
        <time>2018-07-14T05:41:18Z</time>
      </trkpt>
      <trkpt lat="46.193542359396815" lon="10.415328405797482">
        <ele>1947.77</ele>
        <time>2018-07-14T05:41:27Z</time>
      </trkpt>
      <trkpt lat="46.193437920883298" lon="10.415356317535043">
        <ele>1947.29</ele>
        <time>2018-07-14T05:41:38Z</time>
      </trkpt>
      <trkpt lat="46.193402213975787" lon="10.415349025279284">
        <ele>1947.77</ele>
        <time>2018-07-14T05:41:47Z</time>
      </trkpt>
      <trkpt lat="46.193302050232887" lon="10.415396299213171">
        <ele>1948.25</ele>
        <time>2018-07-14T05:41:56Z</time>
      </trkpt>
      <trkpt lat="46.193260475993156" lon="10.415387162938714">
        <ele>1949.6900000000001</ele>
        <time>2018-07-14T05:42:06Z</time>
      </trkpt>
      <trkpt lat="46.193193672224879" lon="10.415401663631201">
        <ele>1950.6500000000001</ele>
        <time>2018-07-14T05:42:15Z</time>
      </trkpt>
      <trkpt lat="46.193130640313029" lon="10.415406441316009">
        <ele>1951.6099999999999</ele>
        <time>2018-07-14T05:42:24Z</time>
      </trkpt>
      <trkpt lat="46.193070625886321" lon="10.415415996685624">
        <ele>1952.5699999999999</ele>
        <time>2018-07-14T05:42:31Z</time>
      </trkpt>
      <trkpt lat="46.192986890673637" lon="10.415309714153409">
        <ele>1952.5699999999999</ele>
        <time>2018-07-14T05:42:42Z</time>
      </trkpt>
      <trkpt lat="46.192949758842587" lon="10.415286496281624">
        <ele>1952.5699999999999</ele>
        <time>2018-07-14T05:42:46Z</time>
      </trkpt>
      <trkpt lat="46.192901814356446" lon="10.415296386927366">
        <ele>1952.5699999999999</ele>
        <time>2018-07-14T05:42:51Z</time>
      </trkpt>
      <trkpt lat="46.192809445783496" lon="10.415232852101326">
        <ele>1953.0599999999999</ele>
        <time>2018-07-14T05:43:01Z</time>
      </trkpt>
      <trkpt lat="46.192761501297355" lon="10.415212903171778">
        <ele>1953.0599999999999</ele>
        <time>2018-07-14T05:43:07Z</time>
      </trkpt>
      <trkpt lat="46.192696625366807" lon="10.415227571502328">
        <ele>1953.0599999999999</ele>
        <time>2018-07-14T05:43:14Z</time>
      </trkpt>
      <trkpt lat="46.192666785791516" lon="10.415230924263597">
        <ele>1953.0599999999999</ele>
        <time>2018-07-14T05:43:17Z</time>
      </trkpt>
      <trkpt lat="46.192643232643604" lon="10.415256740525365">
        <ele>1953.0599999999999</ele>
        <time>2018-07-14T05:43:20Z</time>
      </trkpt>
      <trkpt lat="46.192594030871987" lon="10.415310300886631">
        <ele>1953.0599999999999</ele>
        <time>2018-07-14T05:43:31Z</time>
      </trkpt>
      <trkpt lat="46.19256092235446" lon="10.415335865691304">
        <ele>1953.0599999999999</ele>
        <time>2018-07-14T05:43:35Z</time>
      </trkpt>
      <trkpt lat="46.19253309443593" lon="10.415339721366763">
        <ele>1953.0599999999999</ele>
        <time>2018-07-14T05:43:38Z</time>
      </trkpt>
      <trkpt lat="46.192400576546788" lon="10.415312899276614">
        <ele>1954.02</ele>
        <time>2018-07-14T05:43:52Z</time>
      </trkpt>
      <trkpt lat="46.192360846325755" lon="10.415290435776114">
        <ele>1954.02</ele>
        <time>2018-07-14T05:44:00Z</time>
      </trkpt>
      <trkpt lat="46.192322624847293" lon="10.415297728031874">
        <ele>1954.02</ele>
        <time>2018-07-14T05:44:10Z</time>
      </trkpt>
      <trkpt lat="46.192255401983857" lon="10.41529655456543">
        <ele>1953.54</ele>
        <time>2018-07-14T05:44:20Z</time>
      </trkpt>
      <trkpt lat="46.192166553810239" lon="10.415285741910338">
        <ele>1953.0599999999999</ele>
        <time>2018-07-14T05:44:30Z</time>
      </trkpt>
      <trkpt lat="46.192103605717421" lon="10.415256321430206">
        <ele>1953.54</ele>
        <time>2018-07-14T05:44:40Z</time>
      </trkpt>
      <trkpt lat="46.192100001499057" lon="10.415263781324029">
        <ele>1953.54</ele>
        <time>2018-07-14T05:44:41Z</time>
      </trkpt>
      <trkpt lat="46.1920684017241" lon="10.415283646434546">
        <ele>1953.0599999999999</ele>
        <time>2018-07-14T05:44:44Z</time>
      </trkpt>
      <trkpt lat="46.191985756158829" lon="10.415280126035213">
        <ele>1953.54</ele>
        <time>2018-07-14T05:44:53Z</time>
      </trkpt>
      <trkpt lat="46.191875617951155" lon="10.415295213460922">
        <ele>1954.5</ele>
        <time>2018-07-14T05:45:04Z</time>
      </trkpt>
      <trkpt lat="46.191796492785215" lon="10.415304098278284">
        <ele>1953.0599999999999</ele>
        <time>2018-07-14T05:45:17Z</time>
      </trkpt>
      <trkpt lat="46.191734131425619" lon="10.415297979488969">
        <ele>1953.54</ele>
        <time>2018-07-14T05:45:25Z</time>
      </trkpt>
      <trkpt lat="46.191649809479713" lon="10.415349444374442">
        <ele>1953.54</ele>
        <time>2018-07-14T05:45:34Z</time>
      </trkpt>
      <trkpt lat="46.19161494076252" lon="10.41537182405591">
        <ele>1953.0599999999999</ele>
        <time>2018-07-14T05:45:38Z</time>
      </trkpt>
      <trkpt lat="46.191584933549166" lon="10.415515573695302">
        <ele>1953.0599999999999</ele>
        <time>2018-07-14T05:45:50Z</time>
      </trkpt>
      <trkpt lat="46.19152843952179" lon="10.415641469880939">
        <ele>1953.0599999999999</ele>
        <time>2018-07-14T05:46:02Z</time>
      </trkpt>
      <trkpt lat="46.191470855847001" lon="10.415717661380768">
        <ele>1953.0599999999999</ele>
        <time>2018-07-14T05:46:13Z</time>
      </trkpt>
      <trkpt lat="46.191425677388906" lon="10.415799804031849">
        <ele>1953.54</ele>
        <time>2018-07-14T05:46:26Z</time>
      </trkpt>
      <trkpt lat="46.191396256908774" lon="10.415820507332683">
        <ele>1953.54</ele>
        <time>2018-07-14T05:46:30Z</time>
      </trkpt>
      <trkpt lat="46.191368428990245" lon="10.415820088237524">
        <ele>1953.54</ele>
        <time>2018-07-14T05:46:33Z</time>
      </trkpt>
      <trkpt lat="46.191346300765872" lon="10.415830062702298">
        <ele>1953.54</ele>
        <time>2018-07-14T05:46:36Z</time>
      </trkpt>
      <trkpt lat="46.191262900829315" lon="10.415913043543696">
        <ele>1953.54</ele>
        <time>2018-07-14T05:46:47Z</time>
      </trkpt>
      <trkpt lat="46.191165167838335" lon="10.415998958051205">
        <ele>1953.54</ele>
        <time>2018-07-14T05:47:01Z</time>
      </trkpt>
      <trkpt lat="46.191073302179575" lon="10.416010860353708">
        <ele>1954.02</ele>
        <time>2018-07-14T05:47:12Z</time>
      </trkpt>
      <trkpt lat="46.19103642180562" lon="10.416055619716644">
        <ele>1954.02</ele>
        <time>2018-07-14T05:47:22Z</time>
      </trkpt>
      <trkpt lat="46.19101881980896" lon="10.416072886437178">
        <ele>1954.5</ele>
        <time>2018-07-14T05:47:27Z</time>
      </trkpt>
      <trkpt lat="46.191005073487759" lon="10.41609157808125">
        <ele>1954.98</ele>
        <time>2018-07-14T05:47:29Z</time>
      </trkpt>
      <trkpt lat="46.190965678542852" lon="10.416196435689926">
        <ele>1954.98</ele>
        <time>2018-07-14T05:47:38Z</time>
      </trkpt>
      <trkpt lat="46.190924691036344" lon="10.416292827576399">
        <ele>1954.98</ele>
        <time>2018-07-14T05:47:49Z</time>
      </trkpt>
      <trkpt lat="46.190877333283424" lon="10.416303891688585">
        <ele>1955.9400000000001</ele>
        <time>2018-07-14T05:47:58Z</time>
      </trkpt>
      <trkpt lat="46.190850846469402" lon="10.416312776505947">
        <ele>1955.9400000000001</ele>
        <time>2018-07-14T05:48:11Z</time>
      </trkpt>
      <trkpt lat="46.190851349383593" lon="10.416308417916298">
        <ele>1956.4200000000001</ele>
        <time>2018-07-14T05:48:23Z</time>
      </trkpt>
      <trkpt lat="46.190830981358886" lon="10.416305819526315">
        <ele>1956.4200000000001</ele>
        <time>2018-07-14T05:48:35Z</time>
      </trkpt>
      <trkpt lat="46.190804578363895" lon="10.416335742920637">
        <ele>1956.4200000000001</ele>
        <time>2018-07-14T05:48:45Z</time>
      </trkpt>
      <trkpt lat="46.190781863406301" lon="10.416310261934996">
        <ele>1955.9400000000001</ele>
        <time>2018-07-14T05:48:56Z</time>
      </trkpt>
      <trkpt lat="46.190763674676418" lon="10.416304226964712">
        <ele>1955.9400000000001</ele>
        <time>2018-07-14T05:48:59Z</time>
      </trkpt>
      <trkpt lat="46.190673317760229" lon="10.416247984394431">
        <ele>1956.4200000000001</ele>
        <time>2018-07-14T05:49:10Z</time>
      </trkpt>
      <trkpt lat="46.190594611689448" lon="10.416196770966053">
        <ele>1956.4200000000001</ele>
        <time>2018-07-14T05:49:21Z</time>
      </trkpt>
      <trkpt lat="46.190509954467416" lon="10.416163997724652">
        <ele>1956.9000000000001</ele>
        <time>2018-07-14T05:49:30Z</time>
      </trkpt>
      <trkpt lat="46.190468547865748" lon="10.416128290817142">
        <ele>1956.9000000000001</ele>
        <time>2018-07-14T05:49:37Z</time>
      </trkpt>
      <trkpt lat="46.190448515117168" lon="10.416137175634503">
        <ele>1956.9000000000001</ele>
        <time>2018-07-14T05:49:39Z</time>
      </trkpt>
      <trkpt lat="46.190391015261412" lon="10.416158130392432">
        <ele>1956.9000000000001</ele>
        <time>2018-07-14T05:49:48Z</time>
      </trkpt>
      <trkpt lat="46.190325301140547" lon="10.416261311620474">
        <ele>1956.4200000000001</ele>
        <time>2018-07-14T05:49:59Z</time>
      </trkpt>
      <trkpt lat="46.190244751051068" lon="10.416401792317629">
        <ele>1956.4200000000001</ele>
        <time>2018-07-14T05:50:11Z</time>
      </trkpt>
      <trkpt lat="46.19020770303905" lon="10.416489886119962">
        <ele>1956.4200000000001</ele>
        <time>2018-07-14T05:50:18Z</time>
      </trkpt>
      <trkpt lat="46.190167302265763" lon="10.416529281064868">
        <ele>1956.9000000000001</ele>
        <time>2018-07-14T05:50:23Z</time>
      </trkpt>
      <trkpt lat="46.190105779096484" lon="10.41660949587822">
        <ele>1957.8599999999999</ele>
        <time>2018-07-14T05:50:33Z</time>
      </trkpt>
      <trkpt lat="46.189982732757926" lon="10.416721813380718">
        <ele>1958.3399999999999</ele>
        <time>2018-07-14T05:50:47Z</time>
      </trkpt>
      <trkpt lat="46.189865805208683" lon="10.416785599663854">
        <ele>1958.8199999999999</ele>
        <time>2018-07-14T05:50:58Z</time>
      </trkpt>
      <trkpt lat="46.189738735556602" lon="10.416861874982715">
        <ele>1958.8199999999999</ele>
        <time>2018-07-14T05:51:10Z</time>
      </trkpt>
      <trkpt lat="46.189714344218373" lon="10.416871933266521">
        <ele>1958.8199999999999</ele>
        <time>2018-07-14T05:51:12Z</time>
      </trkpt>
      <trkpt lat="46.189607307314873" lon="10.416991207748652">
        <ele>1958.8199999999999</ele>
        <time>2018-07-14T05:51:27Z</time>
      </trkpt>
      <trkpt lat="46.189576126635075" lon="10.417129509150982">
        <ele>1958.8199999999999</ele>
        <time>2018-07-14T05:51:37Z</time>
      </trkpt>
      <trkpt lat="46.189523572102189" lon="10.417327154427767">
        <ele>1958.8199999999999</ele>
        <time>2018-07-14T05:51:51Z</time>
      </trkpt>
      <trkpt lat="46.189479399472475" lon="10.417504431679845">
        <ele>1959.3</ele>
        <time>2018-07-14T05:52:04Z</time>
      </trkpt>
      <trkpt lat="46.189418379217386" lon="10.41764248162508">
        <ele>1960.27</ele>
        <time>2018-07-14T05:52:16Z</time>
      </trkpt>
      <trkpt lat="46.189378229901195" lon="10.417707525193691">
        <ele>1960.27</ele>
        <time>2018-07-14T05:52:22Z</time>
      </trkpt>
      <trkpt lat="46.189358783885837" lon="10.417763767763972">
        <ele>1960.75</ele>
        <time>2018-07-14T05:52:27Z</time>
      </trkpt>
      <trkpt lat="46.189347552135587" lon="10.417803749442101">
        <ele>1961.23</ele>
        <time>2018-07-14T05:52:39Z</time>
      </trkpt>
      <trkpt lat="46.189332967624068" lon="10.417824285104871">
        <ele>1961.23</ele>
        <time>2018-07-14T05:52:52Z</time>
      </trkpt>
      <trkpt lat="46.18933841586113" lon="10.417815148830414">
        <ele>1961.23</ele>
        <time>2018-07-14T05:53:06Z</time>
      </trkpt>
      <trkpt lat="46.189345708116889" lon="10.417828224599361">
        <ele>1961.23</ele>
        <time>2018-07-14T05:53:26Z</time>
      </trkpt>
      <trkpt lat="46.189330872148275" lon="10.417864853516221">
        <ele>1961.71</ele>
        <time>2018-07-14T05:53:39Z</time>
      </trkpt>
      <trkpt lat="46.189323915168643" lon="10.41785647161305">
        <ele>1961.71</ele>
        <time>2018-07-14T05:53:55Z</time>
      </trkpt>
      <trkpt lat="46.189316706731915" lon="10.417897291481495">
        <ele>1961.71</ele>
        <time>2018-07-14T05:54:05Z</time>
      </trkpt>
      <trkpt lat="46.18931645527482" lon="10.417904248461127">
        <ele>1961.71</ele>
        <time>2018-07-14T05:54:06Z</time>
      </trkpt>
      <trkpt lat="46.189311677590013" lon="10.417950935661793">
        <ele>1961.71</ele>
        <time>2018-07-14T05:54:11Z</time>
      </trkpt>
      <trkpt lat="46.189271528273821" lon="10.418116226792336">
        <ele>1962.1900000000001</ele>
        <time>2018-07-14T05:54:24Z</time>
      </trkpt>
      <trkpt lat="46.189231462776661" lon="10.418268023058772">
        <ele>1962.6700000000001</ele>
        <time>2018-07-14T05:54:36Z</time>
      </trkpt>
      <trkpt lat="46.189194666221738" lon="10.418400960043073">
        <ele>1963.1500000000001</ele>
        <time>2018-07-14T05:54:47Z</time>
      </trkpt>
      <trkpt lat="46.18916155770421" lon="10.418490394949913">
        <ele>1964.1099999999999</ele>
        <time>2018-07-14T05:54:58Z</time>
      </trkpt>
      <trkpt lat="46.189186032861471" lon="10.418556109070778">
        <ele>1966.03</ele>
        <time>2018-07-14T05:55:08Z</time>
      </trkpt>
      <trkpt lat="46.189178321510553" lon="10.418594582006335">
        <ele>1964.5899999999999</ele>
        <time>2018-07-14T05:55:20Z</time>
      </trkpt>
      <trkpt lat="46.189176812767982" lon="10.418606484308839">
        <ele>1964.5899999999999</ele>
        <time>2018-07-14T05:55:36Z</time>
      </trkpt>
      <trkpt lat="46.189078912138939" lon="10.418650824576616">
        <ele>1965.0699999999999</ele>
        <time>2018-07-14T05:55:46Z</time>
      </trkpt>
      <trkpt lat="46.188994003459811" lon="10.418630205094814">
        <ele>1965.0699999999999</ele>
        <time>2018-07-14T05:55:57Z</time>
      </trkpt>
      <trkpt lat="46.189002804458141" lon="10.418623751029372">
        <ele>1965.55</ele>
        <time>2018-07-14T05:56:11Z</time>
      </trkpt>
      <trkpt lat="46.189017808064818" lon="10.41860899887979">
        <ele>1965.0699999999999</ele>
        <time>2018-07-14T05:56:24Z</time>
      </trkpt>
      <trkpt lat="46.189048234373331" lon="10.418597348034382">
        <ele>1965.0699999999999</ele>
        <time>2018-07-14T05:56:40Z</time>
      </trkpt>
      <trkpt lat="46.188997440040112" lon="10.418579746037722">
        <ele>1965.0699999999999</ele>
        <time>2018-07-14T05:56:56Z</time>
      </trkpt>
      <trkpt lat="46.188992075622082" lon="10.418606819584966">
        <ele>1965.0699999999999</ele>
        <time>2018-07-14T05:57:06Z</time>
      </trkpt>
      <trkpt lat="46.1889773234725" lon="10.418635401874781">
        <ele>1965.0699999999999</ele>
        <time>2018-07-14T05:57:23Z</time>
      </trkpt>
      <trkpt lat="46.189013700932264" lon="10.418623415753245">
        <ele>1965.0699999999999</ele>
        <time>2018-07-14T05:57:30Z</time>
      </trkpt>
      <trkpt lat="46.189078912138939" lon="10.41859332472086">
        <ele>1964.5899999999999</ele>
        <time>2018-07-14T05:57:38Z</time>
      </trkpt>
      <trkpt lat="46.189152505248785" lon="10.418522078543901">
        <ele>1964.1099999999999</ele>
        <time>2018-07-14T05:57:49Z</time>
      </trkpt>
      <trkpt lat="46.189141860231757" lon="10.418475726619363">
        <ele>1963.6300000000001</ele>
        <time>2018-07-14T05:57:53Z</time>
      </trkpt>
      <trkpt lat="46.189182261005044" lon="10.418341364711523">
        <ele>1962.6700000000001</ele>
        <time>2018-07-14T05:58:04Z</time>
      </trkpt>
      <trkpt lat="46.18920648470521" lon="10.418291324749589">
        <ele>1962.1900000000001</ele>
        <time>2018-07-14T05:58:08Z</time>
      </trkpt>
      <trkpt lat="46.18922458961606" lon="10.418210858479142">
        <ele>1962.1900000000001</ele>
        <time>2018-07-14T05:58:13Z</time>
      </trkpt>
      <trkpt lat="46.189225260168314" lon="10.418180264532566">
        <ele>1961.71</ele>
        <time>2018-07-14T05:58:15Z</time>
      </trkpt>
      <trkpt lat="46.18926364928484" lon="10.418021092191339">
        <ele>1961.23</ele>
        <time>2018-07-14T05:58:27Z</time>
      </trkpt>
      <trkpt lat="46.189282340928912" lon="10.41794984601438">
        <ele>1960.75</ele>
        <time>2018-07-14T05:58:38Z</time>
      </trkpt>
      <trkpt lat="46.189289130270481" lon="10.417915731668472">
        <ele>1960.75</ele>
        <time>2018-07-14T05:58:51Z</time>
      </trkpt>
      <trkpt lat="46.189277898520231" lon="10.417865356430411">
        <ele>1960.75</ele>
        <time>2018-07-14T05:59:01Z</time>
      </trkpt>
      <trkpt lat="46.189230959862471" lon="10.417898464947939">
        <ele>1961.71</ele>
        <time>2018-07-14T05:59:10Z</time>
      </trkpt>
      <trkpt lat="46.18914982303977" lon="10.417941380292177">
        <ele>1961.23</ele>
        <time>2018-07-14T05:59:22Z</time>
      </trkpt>
      <trkpt lat="46.189101794734597" lon="10.417937524616718">
        <ele>1962.1900000000001</ele>
        <time>2018-07-14T05:59:33Z</time>
      </trkpt>
      <trkpt lat="46.189059382304549" lon="10.417937692254782">
        <ele>1962.6700000000001</ele>
        <time>2018-07-14T05:59:44Z</time>
      </trkpt>
      <trkpt lat="46.189030297100544" lon="10.417937692254782">
        <ele>1963.1500000000001</ele>
        <time>2018-07-14T05:59:53Z</time>
      </trkpt>
      <trkpt lat="46.188976652920246" lon="10.417947834357619">
        <ele>1963.1500000000001</ele>
        <time>2018-07-14T06:00:01Z</time>
      </trkpt>
      <trkpt lat="46.188912782818079" lon="10.417934590950608">
        <ele>1964.1099999999999</ele>
        <time>2018-07-14T06:00:13Z</time>
      </trkpt>
      <trkpt lat="46.188894426450133" lon="10.417947331443429">
        <ele>1964.1099999999999</ele>
        <time>2018-07-14T06:00:15Z</time>
      </trkpt>
      <trkpt lat="46.188828209415078" lon="10.418036179617047">
        <ele>1964.5899999999999</ele>
        <time>2018-07-14T06:00:26Z</time>
      </trkpt>
      <trkpt lat="46.188735170289874" lon="10.417998628690839">
        <ele>1965.55</ele>
        <time>2018-07-14T06:00:39Z</time>
      </trkpt>
      <trkpt lat="46.188670545816422" lon="10.417989240959287">
        <ele>1966.03</ele>
        <time>2018-07-14T06:00:49Z</time>
      </trkpt>
      <trkpt lat="46.188617153093219" lon="10.417999466881156">
        <ele>1966.51</ele>
        <time>2018-07-14T06:00:58Z</time>
      </trkpt>
      <trkpt lat="46.18858203291893" lon="10.417975662276149">
        <ele>1967.96</ele>
        <time>2018-07-14T06:01:07Z</time>
      </trkpt>
      <trkpt lat="46.188515815883875" lon="10.417935764417052">
        <ele>1969.4000000000001</ele>
        <time>2018-07-14T06:01:17Z</time>
      </trkpt>
      <trkpt lat="46.188466614112258" lon="10.417929058894515">
        <ele>1969.8800000000001</ele>
        <time>2018-07-14T06:01:26Z</time>
      </trkpt>
      <trkpt lat="46.188434427604079" lon="10.417919922620058">
        <ele>1970.3599999999999</ele>
        <time>2018-07-14T06:01:34Z</time>
      </trkpt>
      <trkpt lat="46.188358403742313" lon="10.41795521043241">
        <ele>1971.3199999999999</ele>
        <time>2018-07-14T06:01:45Z</time>
      </trkpt>
      <trkpt lat="46.188294617459178" lon="10.417925789952278">
        <ele>1972.28</ele>
        <time>2018-07-14T06:01:54Z</time>
      </trkpt>
      <trkpt lat="46.188197806477547" lon="10.417876671999693">
        <ele>1972.76</ele>
        <time>2018-07-14T06:02:05Z</time>
      </trkpt>
      <trkpt lat="46.188107868656516" lon="10.417818920686841">
        <ele>1973.24</ele>
        <time>2018-07-14T06:02:16Z</time>
      </trkpt>
      <trkpt lat="46.188044920563698" lon="10.41780324652791">
        <ele>1973.72</ele>
        <time>2018-07-14T06:02:26Z</time>
      </trkpt>
      <trkpt lat="46.188025306910276" lon="10.417794864624739">
        <ele>1973.72</ele>
        <time>2018-07-14T06:02:29Z</time>
      </trkpt>
      <trkpt lat="46.187960430979729" lon="10.417722361162305">
        <ele>1974.6900000000001</ele>
        <time>2018-07-14T06:02:40Z</time>
      </trkpt>
      <trkpt lat="46.187903936952353" lon="10.417707022279501">
        <ele>1975.1700000000001</ele>
        <time>2018-07-14T06:02:48Z</time>
      </trkpt>
      <trkpt lat="46.187824560329318" lon="10.417701741680503">
        <ele>1975.1700000000001</ele>
        <time>2018-07-14T06:03:00Z</time>
      </trkpt>
      <trkpt lat="46.187775861471891" lon="10.417701490223408">
        <ele>1975.6500000000001</ele>
        <time>2018-07-14T06:03:08Z</time>
      </trkpt>
      <trkpt lat="46.18775331415236" lon="10.417697969824076">
        <ele>1975.6500000000001</ele>
        <time>2018-07-14T06:03:14Z</time>
      </trkpt>
      <trkpt lat="46.187715763226151" lon="10.417720936238766">
        <ele>1976.6099999999999</ele>
        <time>2018-07-14T06:03:24Z</time>
      </trkpt>
      <trkpt lat="46.187704699113965" lon="10.417727557942271">
        <ele>1976.6099999999999</ele>
        <time>2018-07-14T06:03:26Z</time>
      </trkpt>
      <trkpt lat="46.187639236450195" lon="10.417786817997694">
        <ele>1977.0899999999999</ele>
        <time>2018-07-14T06:03:35Z</time>
      </trkpt>
      <trkpt lat="46.187580060213804" lon="10.417792517691851">
        <ele>1977.0899999999999</ele>
        <time>2018-07-14T06:03:40Z</time>
      </trkpt>
      <trkpt lat="46.187463719397783" lon="10.417821099981666">
        <ele>1978.05</ele>
        <time>2018-07-14T06:03:52Z</time>
      </trkpt>
      <trkpt lat="46.18744351901114" lon="10.417815400287509">
        <ele>1978.05</ele>
        <time>2018-07-14T06:03:55Z</time>
      </trkpt>
      <trkpt lat="46.1873609572649" lon="10.417808443307877">
        <ele>1978.53</ele>
        <time>2018-07-14T06:04:07Z</time>
      </trkpt>
      <trkpt lat="46.187383756041527" lon="10.417787823826075">
        <ele>1977.5699999999999</ele>
        <time>2018-07-14T06:04:17Z</time>
      </trkpt>
      <trkpt lat="46.187361879274249" lon="10.417810035869479">
        <ele>1977.5699999999999</ele>
        <time>2018-07-14T06:04:36Z</time>
      </trkpt>
      <trkpt lat="46.187368165701628" lon="10.417782794684172">
        <ele>1977.5699999999999</ele>
        <time>2018-07-14T06:04:42Z</time>
      </trkpt>
      <trkpt lat="46.187373362481594" lon="10.417790841311216">
        <ele>1978.53</ele>
        <time>2018-07-14T06:04:48Z</time>
      </trkpt>
      <trkpt lat="46.187371853739023" lon="10.417802575975657">
        <ele>1978.53</ele>
        <time>2018-07-14T06:05:03Z</time>
      </trkpt>
      <trkpt lat="46.187383085489273" lon="10.417829984799027">
        <ele>1978.53</ele>
        <time>2018-07-14T06:05:18Z</time>
      </trkpt>
      <trkpt lat="46.187365315854549" lon="10.417832583189011">
        <ele>1978.53</ele>
        <time>2018-07-14T06:05:31Z</time>
      </trkpt>
      <trkpt lat="46.18730379268527" lon="10.417757229879498">
        <ele>1979.01</ele>
        <time>2018-07-14T06:05:41Z</time>
      </trkpt>
      <trkpt lat="46.187268840149045" lon="10.417776172980666">
        <ele>1979.01</ele>
        <time>2018-07-14T06:05:46Z</time>
      </trkpt>
      <trkpt lat="46.187205472961068" lon="10.417841468006372">
        <ele>1979.49</ele>
        <time>2018-07-14T06:05:53Z</time>
      </trkpt>
      <trkpt lat="46.187152750790119" lon="10.417847754433751">
        <ele>1979.97</ele>
        <time>2018-07-14T06:06:00Z</time>
      </trkpt>
      <trkpt lat="46.187081420794129" lon="10.417799139395356">
        <ele>1980.45</ele>
        <time>2018-07-14T06:06:11Z</time>
      </trkpt>
      <trkpt lat="46.187022412195802" lon="10.417813556268811">
        <ele>1980.9300000000001</ele>
        <time>2018-07-14T06:06:19Z</time>
      </trkpt>
      <trkpt lat="46.186925936490297" lon="10.41785404086113">
        <ele>1980.9300000000001</ele>
        <time>2018-07-14T06:06:31Z</time>
      </trkpt>
      <trkpt lat="46.18686156347394" lon="10.417881701141596">
        <ele>1980.9300000000001</ele>
        <time>2018-07-14T06:06:41Z</time>
      </trkpt>
      <trkpt lat="46.186797358095646" lon="10.417876420542598">
        <ele>1981.4100000000001</ele>
        <time>2018-07-14T06:06:49Z</time>
      </trkpt>
      <trkpt lat="46.186713539063931" lon="10.417855130508542">
        <ele>1981.4100000000001</ele>
        <time>2018-07-14T06:07:00Z</time>
      </trkpt>
      <trkpt lat="46.18658990599215" lon="10.417813304811716">
        <ele>1982.3800000000001</ele>
        <time>2018-07-14T06:07:13Z</time>
      </trkpt>
      <trkpt lat="46.186482198536396" lon="10.41779737919569">
        <ele>1982.8599999999999</ele>
        <time>2018-07-14T06:07:25Z</time>
      </trkpt>
      <trkpt lat="46.18641740642488" lon="10.417845575138927">
        <ele>1983.3399999999999</ele>
        <time>2018-07-14T06:07:37Z</time>
      </trkpt>
      <trkpt lat="46.186365857720375" lon="10.417838953435421">
        <ele>1983.8199999999999</ele>
        <time>2018-07-14T06:07:44Z</time>
      </trkpt>
      <trkpt lat="46.1863196734339" lon="10.417884383350611">
        <ele>1984.3</ele>
        <time>2018-07-14T06:07:53Z</time>
      </trkpt>
      <trkpt lat="46.186230489984155" lon="10.417938865721226">
        <ele>1985.26</ele>
        <time>2018-07-14T06:08:04Z</time>
      </trkpt>
      <trkpt lat="46.186168463900685" lon="10.418011704459786">
        <ele>1986.22</ele>
        <time>2018-07-14T06:08:15Z</time>
      </trkpt>
      <trkpt lat="46.186093697324395" lon="10.41801723651588">
        <ele>1986.7</ele>
        <time>2018-07-14T06:08:24Z</time>
      </trkpt>
      <trkpt lat="46.18605338037014" lon="10.418047159910202">
        <ele>1987.6600000000001</ele>
        <time>2018-07-14T06:08:34Z</time>
      </trkpt>
      <trkpt lat="46.186019014567137" lon="10.418113293126225">
        <ele>1988.1400000000001</ele>
        <time>2018-07-14T06:08:43Z</time>
      </trkpt>
      <trkpt lat="46.185981715098023" lon="10.418162159621716">
        <ele>1988.6199999999999</ele>
        <time>2018-07-14T06:08:51Z</time>
      </trkpt>
      <trkpt lat="46.185921700671315" lon="10.418228125199676">
        <ele>1990.0699999999999</ele>
        <time>2018-07-14T06:09:01Z</time>
      </trkpt>
      <trkpt lat="46.185852382332087" lon="10.41828109882772">
        <ele>1991.03</ele>
        <time>2018-07-14T06:09:12Z</time>
      </trkpt>
      <trkpt lat="46.185812233015895" lon="10.418310603126884">
        <ele>1991.99</ele>
        <time>2018-07-14T06:09:20Z</time>
      </trkpt>
      <trkpt lat="46.185754481703043" lon="10.418330132961273">
        <ele>1992.47</ele>
        <time>2018-07-14T06:09:30Z</time>
      </trkpt>
      <trkpt lat="46.185715589672327" lon="10.418331893160939">
        <ele>1993.4300000000001</ele>
        <time>2018-07-14T06:09:40Z</time>
      </trkpt>
      <trkpt lat="46.185692958533764" lon="10.418294342234731">
        <ele>1993.9100000000001</ele>
        <time>2018-07-14T06:09:49Z</time>
      </trkpt>
      <trkpt lat="46.185658928006887" lon="10.418306328356266">
        <ele>1994.8699999999999</ele>
        <time>2018-07-14T06:09:56Z</time>
      </trkpt>
      <trkpt lat="46.18559162132442" lon="10.4183011315763">
        <ele>1995.8299999999999</ele>
        <time>2018-07-14T06:10:07Z</time>
      </trkpt>
      <trkpt lat="46.185519620776176" lon="10.418317057192326">
        <ele>1996.8</ele>
        <time>2018-07-14T06:10:17Z</time>
      </trkpt>
      <trkpt lat="46.185482405126095" lon="10.418279673904181">
        <ele>1997.76</ele>
        <time>2018-07-14T06:10:26Z</time>
      </trkpt>
      <trkpt lat="46.18546019308269" lon="10.418308088555932">
        <ele>1998.72</ele>
        <time>2018-07-14T06:10:36Z</time>
      </trkpt>
      <trkpt lat="46.185408225283027" lon="10.418329462409019">
        <ele>2000.1600000000001</ele>
        <time>2018-07-14T06:10:46Z</time>
      </trkpt>
      <trkpt lat="46.1853370629251" lon="10.418341029435396">
        <ele>2001.1199999999999</ele>
        <time>2018-07-14T06:10:57Z</time>
      </trkpt>
      <trkpt lat="46.185325160622597" lon="10.418348154053092">
        <ele>2001.5999999999999</ele>
        <time>2018-07-14T06:10:59Z</time>
      </trkpt>
      <trkpt lat="46.185302278026938" lon="10.418368019163609">
        <ele>2001.5999999999999</ele>
        <time>2018-07-14T06:11:03Z</time>
      </trkpt>
      <trkpt lat="46.185208149254322" lon="10.41836273856461">
        <ele>2003.04</ele>
        <time>2018-07-14T06:11:15Z</time>
      </trkpt>
      <trkpt lat="46.185137825086713" lon="10.418386459350586">
        <ele>2004.49</ele>
        <time>2018-07-14T06:11:26Z</time>
      </trkpt>
      <trkpt lat="46.1850780621171" lon="10.418388219550252">
        <ele>2004.97</ele>
        <time>2018-07-14T06:11:35Z</time>
      </trkpt>
      <trkpt lat="46.185030620545149" lon="10.418385872617364">
        <ele>2005.9300000000001</ele>
        <time>2018-07-14T06:11:43Z</time>
      </trkpt>
      <trkpt lat="46.185016874223948" lon="10.41839056648314">
        <ele>2005.9300000000001</ele>
        <time>2018-07-14T06:11:46Z</time>
      </trkpt>
      <trkpt lat="46.184943784028292" lon="10.418378999456763">
        <ele>2006.8900000000001</ele>
        <time>2018-07-14T06:11:56Z</time>
      </trkpt>
      <trkpt lat="46.184893576428294" lon="10.418361900374293">
        <ele>2008.3299999999999</ele>
        <time>2018-07-14T06:12:06Z</time>
      </trkpt>
      <trkpt lat="46.184841608628631" lon="10.418363409116864">
        <ele>2009.29</ele>
        <time>2018-07-14T06:12:15Z</time>
      </trkpt>
      <trkpt lat="46.184745384380221" lon="10.418344717472792">
        <ele>2011.22</ele>
        <time>2018-07-14T06:12:28Z</time>
      </trkpt>
      <trkpt lat="46.18466810323298" lon="10.418313955888152">
        <ele>2013.1400000000001</ele>
        <time>2018-07-14T06:12:41Z</time>
      </trkpt>
      <trkpt lat="46.184602472931147" lon="10.418313285335898">
        <ele>2014.0999999999999</ele>
        <time>2018-07-14T06:12:50Z</time>
      </trkpt>
      <trkpt lat="46.184522425755858" lon="10.418387381359935">
        <ele>2015.0599999999999</ele>
        <time>2018-07-14T06:13:02Z</time>
      </trkpt>
      <trkpt lat="46.18450004607439" lon="10.418458376079798">
        <ele>2015.54</ele>
        <time>2018-07-14T06:13:11Z</time>
      </trkpt>
      <trkpt lat="46.184429638087749" lon="10.418524760752916">
        <ele>2016.98</ele>
        <time>2018-07-14T06:13:24Z</time>
      </trkpt>
      <trkpt lat="46.184375826269388" lon="10.418542362749577">
        <ele>2018.4300000000001</ele>
        <time>2018-07-14T06:13:36Z</time>
      </trkpt>
      <trkpt lat="46.184334419667721" lon="10.418547475710511">
        <ele>2019.8699999999999</ele>
        <time>2018-07-14T06:13:46Z</time>
      </trkpt>
      <trkpt lat="46.184283625334501" lon="10.418565664440393">
        <ele>2021.3099999999999</ele>
        <time>2018-07-14T06:13:57Z</time>
      </trkpt>
      <trkpt lat="46.184246074408293" lon="10.41859919205308">
        <ele>2022.75</ele>
        <time>2018-07-14T06:14:08Z</time>
      </trkpt>
      <trkpt lat="46.184171307832003" lon="10.418604472652078">
        <ele>2024.1900000000001</ele>
        <time>2018-07-14T06:14:21Z</time>
      </trkpt>
      <trkpt lat="46.184102827683091" lon="10.418613692745566">
        <ele>2025.6400000000001</ele>
        <time>2018-07-14T06:14:33Z</time>
      </trkpt>
      <trkpt lat="46.184049351140857" lon="10.418694326654077">
        <ele>2027.0799999999999</ele>
        <time>2018-07-14T06:14:44Z</time>
      </trkpt>
      <trkpt lat="46.184013141319156" lon="10.418739588931203">
        <ele>2028.04</ele>
        <time>2018-07-14T06:14:55Z</time>
      </trkpt>
      <trkpt lat="46.183956731110811" lon="10.418807566165924">
        <ele>2029.48</ele>
        <time>2018-07-14T06:15:08Z</time>
      </trkpt>
      <trkpt lat="46.183909038081765" lon="10.41885282844305">
        <ele>2030.9200000000001</ele>
        <time>2018-07-14T06:15:19Z</time>
      </trkpt>
      <trkpt lat="46.183854890987277" lon="10.418870011344552">
        <ele>2032.3599999999999</ele>
        <time>2018-07-14T06:15:32Z</time>
      </trkpt>
      <trkpt lat="46.183785740286112" lon="10.418867915868759">
        <ele>2033.3299999999999</ele>
        <time>2018-07-14T06:15:44Z</time>
      </trkpt>
      <trkpt lat="46.183705609291792" lon="10.418879399076104">
        <ele>2035.25</ele>
        <time>2018-07-14T06:15:56Z</time>
      </trkpt>
      <trkpt lat="46.183654647320509" lon="10.418898593634367">
        <ele>2036.21</ele>
        <time>2018-07-14T06:16:09Z</time>
      </trkpt>
      <trkpt lat="46.183642996475101" lon="10.418883757665753">
        <ele>2037.1700000000001</ele>
        <time>2018-07-14T06:16:20Z</time>
      </trkpt>
      <trkpt lat="46.183676524087787" lon="10.418897503986955">
        <ele>2036.21</ele>
        <time>2018-07-14T06:16:29Z</time>
      </trkpt>
      <trkpt lat="46.18368155322969" lon="10.418887529522181">
        <ele>2036.21</ele>
        <time>2018-07-14T06:16:45Z</time>
      </trkpt>
      <trkpt lat="46.183685576543212" lon="10.41889582760632">
        <ele>2036.21</ele>
        <time>2018-07-14T06:16:59Z</time>
      </trkpt>
      <trkpt lat="46.183663783594966" lon="10.418881578370929">
        <ele>2036.21</ele>
        <time>2018-07-14T06:17:16Z</time>
      </trkpt>
      <trkpt lat="46.183682726696134" lon="10.418886356055737">
        <ele>2036.21</ele>
        <time>2018-07-14T06:17:30Z</time>
      </trkpt>
      <trkpt lat="46.183707285672426" lon="10.418895492330194">
        <ele>2036.21</ele>
        <time>2018-07-14T06:17:44Z</time>
      </trkpt>
      <trkpt lat="46.183694545179605" lon="10.418906304985285">
        <ele>2036.6900000000001</ele>
        <time>2018-07-14T06:17:55Z</time>
      </trkpt>
      <trkpt lat="46.183680044487119" lon="10.418902700766921">
        <ele>2036.6900000000001</ele>
        <time>2018-07-14T06:18:09Z</time>
      </trkpt>
      <trkpt lat="46.183651126921177" lon="10.41887579485774">
        <ele>2037.1700000000001</ele>
        <time>2018-07-14T06:18:32Z</time>
      </trkpt>
      <trkpt lat="46.183663615956903" lon="10.418870933353901">
        <ele>2036.6900000000001</ele>
        <time>2018-07-14T06:18:47Z</time>
      </trkpt>
      <trkpt lat="46.183666633442044" lon="10.418882668018341">
        <ele>2037.1700000000001</ele>
        <time>2018-07-14T06:19:08Z</time>
      </trkpt>
      <trkpt lat="46.183667136356235" lon="10.418830616399646">
        <ele>2037.1700000000001</ele>
        <time>2018-07-14T06:19:22Z</time>
      </trkpt>
      <trkpt lat="46.183660347014666" lon="10.418839417397976">
        <ele>2037.6500000000001</ele>
        <time>2018-07-14T06:19:37Z</time>
      </trkpt>
      <trkpt lat="46.18360779248178" lon="10.418818881735206">
        <ele>2039.0899999999999</ele>
        <time>2018-07-14T06:19:47Z</time>
      </trkpt>
      <trkpt lat="46.183555154129863" lon="10.418789880350232">
        <ele>2041.5</ele>
        <time>2018-07-14T06:19:59Z</time>
      </trkpt>
      <trkpt lat="46.183499749749899" lon="10.418748389929533">
        <ele>2043.4200000000001</ele>
        <time>2018-07-14T06:20:09Z</time>
      </trkpt>
      <trkpt lat="46.183458091691136" lon="10.41876096278429">
        <ele>2045.3399999999999</ele>
        <time>2018-07-14T06:20:20Z</time>
      </trkpt>
      <trkpt lat="46.183402184396982" lon="10.418734475970268">
        <ele>2046.78</ele>
        <time>2018-07-14T06:20:31Z</time>
      </trkpt>
      <trkpt lat="46.183337140828371" lon="10.418728608638048">
        <ele>2048.71</ele>
        <time>2018-07-14T06:20:44Z</time>
      </trkpt>
      <trkpt lat="46.183298248797655" lon="10.418705055490136">
        <ele>2050.1500000000001</ele>
        <time>2018-07-14T06:20:55Z</time>
      </trkpt>
      <trkpt lat="46.183309983462095" lon="10.418603047728539">
        <ele>2051.5900000000001</ele>
        <time>2018-07-14T06:21:07Z</time>
      </trkpt>
      <trkpt lat="46.183305373415351" lon="10.418542278930545">
        <ele>2053.5100000000002</ele>
        <time>2018-07-14T06:21:17Z</time>
      </trkpt>
      <trkpt lat="46.183298667892814" lon="10.418500788509846">
        <ele>2054.96</ele>
        <time>2018-07-14T06:21:27Z</time>
      </trkpt>
      <trkpt lat="46.183246616274118" lon="10.418478827923536">
        <ele>2056.8800000000001</ele>
        <time>2018-07-14T06:21:39Z</time>
      </trkpt>
      <trkpt lat="46.18318852968514" lon="10.4184306319803">
        <ele>2058.8000000000002</ele>
        <time>2018-07-14T06:21:53Z</time>
      </trkpt>
      <trkpt lat="46.183147290721536" lon="10.418403977528214">
        <ele>2060.2399999999998</ele>
        <time>2018-07-14T06:22:04Z</time>
      </trkpt>
      <trkpt lat="46.183121809735894" lon="10.418352596461773">
        <ele>2061.6799999999998</ele>
        <time>2018-07-14T06:22:15Z</time>
      </trkpt>
      <trkpt lat="46.183060202747583" lon="10.418341616168618">
        <ele>2063.6100000000001</ele>
        <time>2018-07-14T06:22:28Z</time>
      </trkpt>
      <trkpt lat="46.183056011795998" lon="10.418317224830389">
        <ele>2063.6100000000001</ele>
        <time>2018-07-14T06:22:40Z</time>
      </trkpt>
      <trkpt lat="46.183003541082144" lon="10.418335162103176">
        <ele>2065.0500000000002</ele>
        <time>2018-07-14T06:22:49Z</time>
      </trkpt>
      <trkpt lat="46.182958278805017" lon="10.418291408568621">
        <ele>2066.4899999999998</ele>
        <time>2018-07-14T06:23:02Z</time>
      </trkpt>
      <trkpt lat="46.183008151128888" lon="10.418208679184318">
        <ele>2068.4099999999999</ele>
        <time>2018-07-14T06:23:13Z</time>
      </trkpt>
      <trkpt lat="46.183060789480805" lon="10.418146988376975">
        <ele>2069.8600000000001</ele>
        <time>2018-07-14T06:23:23Z</time>
      </trkpt>
      <trkpt lat="46.183082582429051" lon="10.418113712221384">
        <ele>2070.8200000000002</ele>
        <time>2018-07-14T06:23:33Z</time>
      </trkpt>
      <trkpt lat="46.183110410347581" lon="10.418061073869467">
        <ele>2072.7399999999998</ele>
        <time>2018-07-14T06:23:45Z</time>
      </trkpt>
      <trkpt lat="46.183138573542237" lon="10.418009608983994">
        <ele>2074.6599999999999</ele>
        <time>2018-07-14T06:23:58Z</time>
      </trkpt>
      <trkpt lat="46.183130443096161" lon="10.417960323393345">
        <ele>2076.0999999999999</ele>
        <time>2018-07-14T06:24:09Z</time>
      </trkpt>
      <trkpt lat="46.183103872463107" lon="10.417966106906533">
        <ele>2078.0300000000002</ele>
        <time>2018-07-14T06:24:19Z</time>
      </trkpt>
      <trkpt lat="46.183076715096831" lon="10.417955042794347">
        <ele>2079.4699999999998</ele>
        <time>2018-07-14T06:24:31Z</time>
      </trkpt>
      <trkpt lat="46.183087779209018" lon="10.417888406664133">
        <ele>2081.3899999999999</ele>
        <time>2018-07-14T06:24:44Z</time>
      </trkpt>
      <trkpt lat="46.183036733418703" lon="10.417890585958958">
        <ele>2082.8299999999999</ele>
        <time>2018-07-14T06:24:56Z</time>
      </trkpt>
      <trkpt lat="46.182989710941911" lon="10.417905170470476">
        <ele>2084.2800000000002</ele>
        <time>2018-07-14T06:25:06Z</time>
      </trkpt>
      <trkpt lat="46.182981161400676" lon="10.417856303974986">
        <ele>2086.1999999999998</ele>
        <time>2018-07-14T06:25:16Z</time>
      </trkpt>
      <trkpt lat="46.183020221069455" lon="10.417780699208379">
        <ele>2088.1199999999999</ele>
        <time>2018-07-14T06:25:29Z</time>
      </trkpt>
      <trkpt lat="46.183009995147586" lon="10.417772987857461">
        <ele>2089.0799999999999</ele>
        <time>2018-07-14T06:25:39Z</time>
      </trkpt>
      <trkpt lat="46.182974372059107" lon="10.417800731956959">
        <ele>2090.52</ele>
        <time>2018-07-14T06:25:50Z</time>
      </trkpt>
      <trkpt lat="46.182942520827055" lon="10.417777094990015">
        <ele>2091.4899999999998</ele>
        <time>2018-07-14T06:26:01Z</time>
      </trkpt>
      <trkpt lat="46.182928523048759" lon="10.417736610397696">
        <ele>2092.9299999999998</ele>
        <time>2018-07-14T06:26:12Z</time>
      </trkpt>
      <trkpt lat="46.182935480028391" lon="10.417689336463809">
        <ele>2094.8499999999999</ele>
        <time>2018-07-14T06:26:25Z</time>
      </trkpt>
      <trkpt lat="46.182916453108191" lon="10.417689001187682">
        <ele>2096.29</ele>
        <time>2018-07-14T06:26:36Z</time>
      </trkpt>
      <trkpt lat="46.182911172509193" lon="10.417736107483506">
        <ele>2097.73</ele>
        <time>2018-07-14T06:26:47Z</time>
      </trkpt>
      <trkpt lat="46.182868843898177" lon="10.417656982317567">
        <ele>2099.1799999999998</ele>
        <time>2018-07-14T06:26:56Z</time>
      </trkpt>
      <trkpt lat="46.182859120890498" lon="10.417644912377">
        <ele>2101.5799999999999</ele>
        <time>2018-07-14T06:27:08Z</time>
      </trkpt>
      <trkpt lat="46.182795334607363" lon="10.417684055864811">
        <ele>2103.02</ele>
        <time>2018-07-14T06:27:20Z</time>
      </trkpt>
      <trkpt lat="46.182759460061789" lon="10.417675422504544">
        <ele>2104.46</ele>
        <time>2018-07-14T06:27:30Z</time>
      </trkpt>
      <trkpt lat="46.182726100087166" lon="10.417692521587014">
        <ele>2105.9099999999999</ele>
        <time>2018-07-14T06:27:40Z</time>
      </trkpt>
      <trkpt lat="46.182720400393009" lon="10.417628651484847">
        <ele>2107.8299999999999</ele>
        <time>2018-07-14T06:27:50Z</time>
      </trkpt>
      <trkpt lat="46.182703720405698" lon="10.417618760839105">
        <ele>2108.79</ele>
        <time>2018-07-14T06:27:59Z</time>
      </trkpt>
      <trkpt lat="46.182678071781993" lon="10.417644996196032">
        <ele>2110.23</ele>
        <time>2018-07-14T06:28:09Z</time>
      </trkpt>
      <trkpt lat="46.182633731514215" lon="10.417647091671824">
        <ele>2111.6700000000001</ele>
        <time>2018-07-14T06:28:21Z</time>
      </trkpt>
      <trkpt lat="46.182603305205703" lon="10.417667711153626">
        <ele>2113.1199999999999</ele>
        <time>2018-07-14T06:28:30Z</time>
      </trkpt>
      <trkpt lat="46.18255184032023" lon="10.417654970660806">
        <ele>2114.5599999999999</ele>
        <time>2018-07-14T06:28:40Z</time>
      </trkpt>
      <trkpt lat="46.182538345456123" lon="10.417610965669155">
        <ele>2116</ele>
        <time>2018-07-14T06:28:52Z</time>
      </trkpt>
      <trkpt lat="46.182561814785004" lon="10.417516082525253">
        <ele>2117.9200000000001</ele>
        <time>2018-07-14T06:29:05Z</time>
      </trkpt>
      <trkpt lat="46.182576902210712" lon="10.417472496628761">
        <ele>2119.8400000000001</ele>
        <time>2018-07-14T06:29:17Z</time>
      </trkpt>
      <trkpt lat="46.182571034878492" lon="10.417444668710232">
        <ele>2120.8099999999999</ele>
        <time>2018-07-14T06:29:29Z</time>
      </trkpt>
      <trkpt lat="46.182577237486839" lon="10.417426228523254">
        <ele>2122.73</ele>
        <time>2018-07-14T06:29:40Z</time>
      </trkpt>
      <trkpt lat="46.182525102049112" lon="10.417422205209732">
        <ele>2123.6900000000001</ele>
        <time>2018-07-14T06:29:50Z</time>
      </trkpt>
      <trkpt lat="46.182485036551952" lon="10.417447853833437">
        <ele>2125.6100000000001</ele>
        <time>2018-07-14T06:30:01Z</time>
      </trkpt>
      <trkpt lat="46.182487802579999" lon="10.41740351356566">
        <ele>2127.0500000000002</ele>
        <time>2018-07-14T06:30:11Z</time>
      </trkpt>
      <trkpt lat="46.182515881955624" lon="10.417333273217082">
        <ele>2128.5</ele>
        <time>2018-07-14T06:30:22Z</time>
      </trkpt>
      <trkpt lat="46.182520072907209" lon="10.417280718684196">
        <ele>2129.9400000000001</ele>
        <time>2018-07-14T06:30:34Z</time>
      </trkpt>
      <trkpt lat="46.182516636326909" lon="10.417241407558322">
        <ele>2131.8600000000001</ele>
        <time>2018-07-14T06:30:45Z</time>
      </trkpt>
      <trkpt lat="46.18250347673893" lon="10.417220536619425">
        <ele>2132.8200000000002</ele>
        <time>2018-07-14T06:30:55Z</time>
      </trkpt>
      <trkpt lat="46.182502806186676" lon="10.417247945442796">
        <ele>2133.7800000000002</ele>
        <time>2018-07-14T06:31:01Z</time>
      </trkpt>
      <trkpt lat="46.182430805638433" lon="10.417291950434446">
        <ele>2134.7399999999998</ele>
        <time>2018-07-14T06:31:13Z</time>
      </trkpt>
      <trkpt lat="46.182411443442106" lon="10.417251717299223">
        <ele>2136.1900000000001</ele>
        <time>2018-07-14T06:31:23Z</time>
      </trkpt>
      <trkpt lat="46.182443965226412" lon="10.417189104482532">
        <ele>2138.1100000000001</ele>
        <time>2018-07-14T06:31:34Z</time>
      </trkpt>
      <trkpt lat="46.18246098048985" lon="10.41712112724781">
        <ele>2140.0300000000002</ele>
        <time>2018-07-14T06:31:47Z</time>
      </trkpt>
      <trkpt lat="46.182431057095528" lon="10.417140573263168">
        <ele>2141.4699999999998</ele>
        <time>2018-07-14T06:31:57Z</time>
      </trkpt>
      <trkpt lat="46.182388728484511" lon="10.417137555778027">
        <ele>2142.9200000000001</ele>
        <time>2018-07-14T06:32:09Z</time>
      </trkpt>
      <trkpt lat="46.182399541139603" lon="10.417101597413421">
        <ele>2144.8400000000001</ele>
        <time>2018-07-14T06:32:21Z</time>
      </trkpt>
      <trkpt lat="46.182369031012058" lon="10.4171406570822">
        <ele>2146.7600000000002</ele>
        <time>2018-07-14T06:32:32Z</time>
      </trkpt>
      <trkpt lat="46.182313039898872" lon="10.417152810841799">
        <ele>2147.7199999999998</ele>
        <time>2018-07-14T06:32:42Z</time>
      </trkpt>
      <trkpt lat="46.182295773178339" lon="10.417090868577361">
        <ele>2149.1599999999999</ele>
        <time>2018-07-14T06:32:53Z</time>
      </trkpt>
      <trkpt lat="46.182304741814733" lon="10.417026998475194">
        <ele>2151.0900000000001</ele>
        <time>2018-07-14T06:33:03Z</time>
      </trkpt>
      <trkpt lat="46.182311195880175" lon="10.416999673470855">
        <ele>2152.0500000000002</ele>
        <time>2018-07-14T06:33:14Z</time>
      </trkpt>
      <trkpt lat="46.182289654389024" lon="10.417017610743642">
        <ele>2153.9699999999998</ele>
        <time>2018-07-14T06:33:24Z</time>
      </trkpt>
      <trkpt lat="46.182249840348959" lon="10.417031105607748">
        <ele>2155.4099999999999</ele>
        <time>2018-07-14T06:33:36Z</time>
      </trkpt>
      <trkpt lat="46.182199381291866" lon="10.416993722319603">
        <ele>2157.8200000000002</ele>
        <time>2018-07-14T06:33:50Z</time>
      </trkpt>
      <trkpt lat="46.182149508967996" lon="10.416995482519269">
        <ele>2159.2600000000002</ele>
        <time>2018-07-14T06:34:00Z</time>
      </trkpt>
      <trkpt lat="46.182138193398714" lon="10.416919961571693">
        <ele>2160.6999999999998</ele>
        <time>2018-07-14T06:34:11Z</time>
      </trkpt>
      <trkpt lat="46.182181863114238" lon="10.41689045727253">
        <ele>2162.6199999999999</ele>
        <time>2018-07-14T06:34:22Z</time>
      </trkpt>
      <trkpt lat="46.182210613042116" lon="10.416841674596071">
        <ele>2164.0599999999999</ele>
        <time>2018-07-14T06:34:34Z</time>
      </trkpt>
      <trkpt lat="46.182235339656472" lon="10.416788198053837">
        <ele>2165.0300000000002</ele>
        <time>2018-07-14T06:34:45Z</time>
      </trkpt>
      <trkpt lat="46.182198375463486" lon="10.416818792000413">
        <ele>2166.9499999999998</ele>
        <time>2018-07-14T06:34:58Z</time>
      </trkpt>
      <trkpt lat="46.182164344936609" lon="10.416804123669863">
        <ele>2168.8699999999999</ele>
        <time>2018-07-14T06:35:10Z</time>
      </trkpt>
      <trkpt lat="46.182174906134605" lon="10.416759448125958">
        <ele>2169.8299999999999</ele>
        <time>2018-07-14T06:35:18Z</time>
      </trkpt>
      <trkpt lat="46.182173145934939" lon="10.416703876107931">
        <ele>2171.27</ele>
        <time>2018-07-14T06:35:30Z</time>
      </trkpt>
      <trkpt lat="46.182174989953637" lon="10.416672276332974">
        <ele>2172.7199999999998</ele>
        <time>2018-07-14T06:35:40Z</time>
      </trkpt>
      <trkpt lat="46.182153699919581" lon="10.41669256053865">
        <ele>2174.1599999999999</ele>
        <time>2018-07-14T06:35:50Z</time>
      </trkpt>
      <trkpt lat="46.182140791788697" lon="10.416715024039149">
        <ele>2174.6399999999999</ele>
        <time>2018-07-14T06:36:00Z</time>
      </trkpt>
      <trkpt lat="46.182115310803056" lon="10.416734972968698">
        <ele>2175.5999999999999</ele>
        <time>2018-07-14T06:36:12Z</time>
      </trkpt>
      <trkpt lat="46.182138361036777" lon="10.416731284931302">
        <ele>2175.5999999999999</ele>
        <time>2018-07-14T06:36:31Z</time>
      </trkpt>
      <trkpt lat="46.182111538946629" lon="10.416744695976377">
        <ele>2176.0799999999999</ele>
        <time>2018-07-14T06:36:43Z</time>
      </trkpt>
      <trkpt lat="46.182080693542957" lon="10.416676718741655">
        <ele>2177.52</ele>
        <time>2018-07-14T06:36:54Z</time>
      </trkpt>
      <trkpt lat="46.182096367701888" lon="10.416591139510274">
        <ele>2179.4499999999998</ele>
        <time>2018-07-14T06:37:06Z</time>
      </trkpt>
      <trkpt lat="46.182104665786028" lon="10.416534645482898">
        <ele>2181.3699999999999</ele>
        <time>2018-07-14T06:37:17Z</time>
      </trkpt>
      <trkpt lat="46.182092009112239" lon="10.416503632441163">
        <ele>2183.29</ele>
        <time>2018-07-14T06:37:26Z</time>
      </trkpt>
      <trkpt lat="46.182089243084192" lon="10.416446132585406">
        <ele>2184.73</ele>
        <time>2018-07-14T06:37:37Z</time>
      </trkpt>
      <trkpt lat="46.182058649137616" lon="10.416401708498597">
        <ele>2185.6900000000001</ele>
        <time>2018-07-14T06:37:48Z</time>
      </trkpt>
      <trkpt lat="46.182048004120588" lon="10.41639156639576">
        <ele>2187.1399999999999</ele>
        <time>2018-07-14T06:38:00Z</time>
      </trkpt>
      <trkpt lat="46.182049261406064" lon="10.416379412636161">
        <ele>2188.5799999999999</ele>
        <time>2018-07-14T06:38:11Z</time>
      </trkpt>
      <trkpt lat="46.18207398802042" lon="10.416324092075229">
        <ele>2190.02</ele>
        <time>2018-07-14T06:38:21Z</time>
      </trkpt>
      <trkpt lat="46.182092344388366" lon="10.41628704406321">
        <ele>2190.98</ele>
        <time>2018-07-14T06:38:30Z</time>
      </trkpt>
      <trkpt lat="46.182068036869168" lon="10.416306657716632">
        <ele>2192.4200000000001</ele>
        <time>2018-07-14T06:38:39Z</time>
      </trkpt>
      <trkpt lat="46.182086225599051" lon="10.416247146204114">
        <ele>2193.8699999999999</ele>
        <time>2018-07-14T06:38:49Z</time>
      </trkpt>
      <trkpt lat="46.182082202285528" lon="10.416194004938006">
        <ele>2195.3099999999999</ele>
        <time>2018-07-14T06:39:00Z</time>
      </trkpt>
      <trkpt lat="46.182077173143625" lon="10.416147233918309">
        <ele>2196.75</ele>
        <time>2018-07-14T06:39:10Z</time>
      </trkpt>
      <trkpt lat="46.182058062404394" lon="10.416180090978742">
        <ele>2198.1900000000001</ele>
        <time>2018-07-14T06:39:19Z</time>
      </trkpt>
      <trkpt lat="46.182048674672842" lon="10.416103145107627">
        <ele>2199.1500000000001</ele>
        <time>2018-07-14T06:39:29Z</time>
      </trkpt>
      <trkpt lat="46.182021014392376" lon="10.416034162044525">
        <ele>2201.0799999999999</ele>
        <time>2018-07-14T06:39:40Z</time>
      </trkpt>
      <trkpt lat="46.182001736015081" lon="10.416053859516978">
        <ele>2202.52</ele>
        <time>2018-07-14T06:39:49Z</time>
      </trkpt>
      <trkpt lat="46.182006010785699" lon="10.415986971929669">
        <ele>2204.4400000000001</ele>
        <time>2018-07-14T06:40:01Z</time>
      </trkpt>
      <trkpt lat="46.181995701044798" lon="10.41594011709094">
        <ele>2205.4000000000001</ele>
        <time>2018-07-14T06:40:12Z</time>
      </trkpt>
      <trkpt lat="46.181969465687871" lon="10.415942464023829">
        <ele>2206.8400000000001</ele>
        <time>2018-07-14T06:40:22Z</time>
      </trkpt>
      <trkpt lat="46.181943900883198" lon="10.415941793471575">
        <ele>2208.29</ele>
        <time>2018-07-14T06:40:33Z</time>
      </trkpt>
      <trkpt lat="46.181910373270512" lon="10.415917402133346">
        <ele>2209.73</ele>
        <time>2018-07-14T06:40:44Z</time>
      </trkpt>
      <trkpt lat="46.181884305551648" lon="10.415903739631176">
        <ele>2211.1700000000001</ele>
        <time>2018-07-14T06:40:53Z</time>
      </trkpt>
      <trkpt lat="46.18186192587018" lon="10.415874738246202">
        <ele>2212.6100000000001</ele>
        <time>2018-07-14T06:41:04Z</time>
      </trkpt>
      <trkpt lat="46.181831834837794" lon="10.415888568386436">
        <ele>2213.5700000000002</ele>
        <time>2018-07-14T06:41:16Z</time>
      </trkpt>
      <trkpt lat="46.181834852322936" lon="10.415923604741693">
        <ele>2213.5700000000002</ele>
        <time>2018-07-14T06:41:39Z</time>
      </trkpt>
      <trkpt lat="46.181779699400067" lon="10.415894770994782">
        <ele>2215.98</ele>
        <time>2018-07-14T06:41:52Z</time>
      </trkpt>
      <trkpt lat="46.181783387437463" lon="10.415791673585773">
        <ele>2217.4200000000001</ele>
        <time>2018-07-14T06:42:02Z</time>
      </trkpt>
      <trkpt lat="46.181786069646478" lon="10.415703747421503">
        <ele>2219.3400000000001</ele>
        <time>2018-07-14T06:42:14Z</time>
      </trkpt>
      <trkpt lat="46.181778525933623" lon="10.415671309456229">
        <ele>2221.2600000000002</ele>
        <time>2018-07-14T06:42:25Z</time>
      </trkpt>
      <trkpt lat="46.181743154302239" lon="10.415676757693291">
        <ele>2222.71</ele>
        <time>2018-07-14T06:42:37Z</time>
      </trkpt>
      <trkpt lat="46.181751368567348" lon="10.415601404383779">
        <ele>2224.1500000000001</ele>
        <time>2018-07-14T06:42:47Z</time>
      </trkpt>
      <trkpt lat="46.181753380224109" lon="10.41556041687727">
        <ele>2225.1100000000001</ele>
        <time>2018-07-14T06:42:57Z</time>
      </trkpt>
      <trkpt lat="46.18171876296401" lon="10.415578354150057">
        <ele>2227.0300000000002</ele>
        <time>2018-07-14T06:43:08Z</time>
      </trkpt>
      <trkpt lat="46.181699903681874" lon="10.415549268946052">
        <ele>2227.9899999999998</ele>
        <time>2018-07-14T06:43:17Z</time>
      </trkpt>
      <trkpt lat="46.18168942630291" lon="10.415521776303649">
        <ele>2229.9200000000001</ele>
        <time>2018-07-14T06:43:29Z</time>
      </trkpt>
      <trkpt lat="46.181718930602074" lon="10.415448853746057">
        <ele>2231.8400000000001</ele>
        <time>2018-07-14T06:43:43Z</time>
      </trkpt>
      <trkpt lat="46.18172362446785" lon="10.41543242521584">
        <ele>2232.8000000000002</ele>
        <time>2018-07-14T06:43:54Z</time>
      </trkpt>
      <trkpt lat="46.181684648618102" lon="10.415438711643219">
        <ele>2233.7600000000002</ele>
        <time>2018-07-14T06:44:08Z</time>
      </trkpt>
      <trkpt lat="46.181700741872191" lon="10.4154465906322">
        <ele>2233.7600000000002</ele>
        <time>2018-07-14T06:44:30Z</time>
      </trkpt>
      <trkpt lat="46.181687833741307" lon="10.415416583418846">
        <ele>2234.7199999999998</ele>
        <time>2018-07-14T06:44:41Z</time>
      </trkpt>
      <trkpt lat="46.181668723002076" lon="10.415400490164757">
        <ele>2234.7199999999998</ele>
        <time>2018-07-14T06:44:59Z</time>
      </trkpt>
      <trkpt lat="46.181678362190723" lon="10.41534592397511">
        <ele>2236.1599999999999</ele>
        <time>2018-07-14T06:45:13Z</time>
      </trkpt>
      <trkpt lat="46.181646008044481" lon="10.415351456031203">
        <ele>2238.0900000000001</ele>
        <time>2018-07-14T06:45:23Z</time>
      </trkpt>
      <trkpt lat="46.181650031358004" lon="10.415428737178445">
        <ele>2238.5700000000002</ele>
        <time>2018-07-14T06:45:36Z</time>
      </trkpt>
      <trkpt lat="46.181640140712261" lon="10.415407950058579">
        <ele>2239.5300000000002</ele>
        <time>2018-07-14T06:45:47Z</time>
      </trkpt>
      <trkpt lat="46.181601835414767" lon="10.415416583418846">
        <ele>2240.9699999999998</ele>
        <time>2018-07-14T06:45:57Z</time>
      </trkpt>
      <trkpt lat="46.181603260338306" lon="10.415444746613503">
        <ele>2240.9699999999998</ele>
        <time>2018-07-14T06:46:11Z</time>
      </trkpt>
      <trkpt lat="46.18158683180809" lon="10.415481626987457">
        <ele>2241.4499999999998</ele>
        <time>2018-07-14T06:46:24Z</time>
      </trkpt>
      <trkpt lat="46.18157166056335" lon="10.415536612272263">
        <ele>2242.4099999999999</ele>
        <time>2018-07-14T06:46:46Z</time>
      </trkpt>
      <trkpt lat="46.181507036089897" lon="10.415405435487628">
        <ele>2244.3299999999999</ele>
        <time>2018-07-14T06:46:59Z</time>
      </trkpt>
      <trkpt lat="46.181485326960683" lon="10.415351539850235">
        <ele>2246.7399999999998</ele>
        <time>2018-07-14T06:47:10Z</time>
      </trkpt>
      <trkpt lat="46.181515753269196" lon="10.415262272581458">
        <ele>2248.1799999999998</ele>
        <time>2018-07-14T06:47:20Z</time>
      </trkpt>
      <trkpt lat="46.181526398286223" lon="10.415179207921028">
        <ele>2249.6199999999999</ele>
        <time>2018-07-14T06:47:30Z</time>
      </trkpt>
      <trkpt lat="46.181510221213102" lon="10.415124809369445">
        <ele>2251.54</ele>
        <time>2018-07-14T06:47:43Z</time>
      </trkpt>
      <trkpt lat="46.181513071060181" lon="10.415130257606506">
        <ele>2253.4699999999998</ele>
        <time>2018-07-14T06:47:54Z</time>
      </trkpt>
      <trkpt lat="46.181484069675207" lon="10.415153978392482">
        <ele>2254.9099999999999</ele>
        <time>2018-07-14T06:48:04Z</time>
      </trkpt>
      <trkpt lat="46.18142656981945" lon="10.415164539590478">
        <ele>2256.8299999999999</ele>
        <time>2018-07-14T06:48:18Z</time>
      </trkpt>
      <trkpt lat="46.181387258693576" lon="10.415172418579459">
        <ele>2258.75</ele>
        <time>2018-07-14T06:48:29Z</time>
      </trkpt>
      <trkpt lat="46.181395556777716" lon="10.415080552920699">
        <ele>2260.1999999999998</ele>
        <time>2018-07-14T06:48:40Z</time>
      </trkpt>
      <trkpt lat="46.181354820728302" lon="10.415092622861266">
        <ele>2261.6399999999999</ele>
        <time>2018-07-14T06:48:51Z</time>
      </trkpt>
      <trkpt lat="46.181316263973713" lon="10.415079882368445">
        <ele>2263.5599999999999</ele>
        <time>2018-07-14T06:49:02Z</time>
      </trkpt>
      <trkpt lat="46.181284915655851" lon="10.415095053613186">
        <ele>2265</ele>
        <time>2018-07-14T06:49:12Z</time>
      </trkpt>
      <trkpt lat="46.181250885128975" lon="10.415071584284306">
        <ele>2266.4499999999998</ele>
        <time>2018-07-14T06:49:23Z</time>
      </trkpt>
      <trkpt lat="46.181207466870546" lon="10.415073512122035">
        <ele>2267.8899999999999</ele>
        <time>2018-07-14T06:49:34Z</time>
      </trkpt>
      <trkpt lat="46.181166144087911" lon="10.415119361132383">
        <ele>2269.3299999999999</ele>
        <time>2018-07-14T06:49:45Z</time>
      </trkpt>
      <trkpt lat="46.181139489635825" lon="10.415114080533385">
        <ele>2270.77</ele>
        <time>2018-07-14T06:49:59Z</time>
      </trkpt>
      <trkpt lat="46.181112583726645" lon="10.415134197100997">
        <ele>2272.21</ele>
        <time>2018-07-14T06:50:09Z</time>
      </trkpt>
      <trkpt lat="46.181084085255861" lon="10.415103267878294">
        <ele>2273.6599999999999</ele>
        <time>2018-07-14T06:50:20Z</time>
      </trkpt>
      <trkpt lat="46.181066734716296" lon="10.41510452516377">
        <ele>2274.1399999999999</ele>
        <time>2018-07-14T06:50:32Z</time>
      </trkpt>
      <trkpt lat="46.181062208488584" lon="10.415118439123034">
        <ele>2275.0999999999999</ele>
        <time>2018-07-14T06:50:54Z</time>
      </trkpt>
      <trkpt lat="46.181031027808785" lon="10.415131011977792">
        <ele>2276.0599999999999</ele>
        <time>2018-07-14T06:51:07Z</time>
      </trkpt>
      <trkpt lat="46.181007055565715" lon="10.41515632532537">
        <ele>2277.98</ele>
        <time>2018-07-14T06:51:17Z</time>
      </trkpt>
      <trkpt lat="46.180993393063545" lon="10.415184572339058">
        <ele>2279.4200000000001</ele>
        <time>2018-07-14T06:51:27Z</time>
      </trkpt>
      <trkpt lat="46.180971683934331" lon="10.415167724713683">
        <ele>2280.3800000000001</ele>
        <time>2018-07-14T06:51:37Z</time>
      </trkpt>
      <trkpt lat="46.180959697812796" lon="10.415189852938056">
        <ele>2281.3499999999999</ele>
        <time>2018-07-14T06:51:52Z</time>
      </trkpt>
      <trkpt lat="46.180924158543348" lon="10.415225140750408">
        <ele>2283.75</ele>
        <time>2018-07-14T06:52:05Z</time>
      </trkpt>
      <trkpt lat="46.180889792740345" lon="10.415151799097657">
        <ele>2285.6700000000001</ele>
        <time>2018-07-14T06:52:16Z</time>
      </trkpt>
      <trkpt lat="46.180862132459879" lon="10.415106369182467">
        <ele>2287.5900000000001</ele>
        <time>2018-07-14T06:52:26Z</time>
      </trkpt>
      <trkpt lat="46.18084411136806" lon="10.415084408596158">
        <ele>2289.04</ele>
        <time>2018-07-14T06:52:37Z</time>
      </trkpt>
      <trkpt lat="46.180829275399446" lon="10.415144506841898">
        <ele>2290.48</ele>
        <time>2018-07-14T06:52:48Z</time>
      </trkpt>
      <trkpt lat="46.180815445259213" lon="10.415182141587138">
        <ele>2291.9200000000001</ele>
        <time>2018-07-14T06:52:58Z</time>
      </trkpt>
      <trkpt lat="46.180773368105292" lon="10.415187254548073">
        <ele>2293.8400000000001</ele>
        <time>2018-07-14T06:53:08Z</time>
      </trkpt>
      <trkpt lat="46.180781750008464" lon="10.415108380839229">
        <ele>2294.8000000000002</ele>
        <time>2018-07-14T06:53:16Z</time>
      </trkpt>
      <trkpt lat="46.180757274851203" lon="10.415090192109346">
        <ele>2296.25</ele>
        <time>2018-07-14T06:53:27Z</time>
      </trkpt>
      <trkpt lat="46.180749144405127" lon="10.415134197100997">
        <ele>2297.21</ele>
        <time>2018-07-14T06:53:38Z</time>
      </trkpt>
      <trkpt lat="46.180704636499286" lon="10.415081391111016">
        <ele>2298.6500000000001</ele>
        <time>2018-07-14T06:53:48Z</time>
      </trkpt>
      <trkpt lat="46.180746126919985" lon="10.415051467716694">
        <ele>2299.6100000000001</ele>
        <time>2018-07-14T06:53:56Z</time>
      </trkpt>
      <trkpt lat="46.180723160505295" lon="10.415016515180469">
        <ele>2301.0500000000002</ele>
        <time>2018-07-14T06:54:07Z</time>
      </trkpt>
      <trkpt lat="46.180687956511974" lon="10.415006540715694">
        <ele>2302.98</ele>
        <time>2018-07-14T06:54:20Z</time>
      </trkpt>
      <trkpt lat="46.180691896006465" lon="10.414946107193828">
        <ele>2304.4200000000001</ele>
        <time>2018-07-14T06:54:31Z</time>
      </trkpt>
      <trkpt lat="46.180665828287601" lon="10.414921883493662">
        <ele>2305.3800000000001</ele>
        <time>2018-07-14T06:54:41Z</time>
      </trkpt>
      <trkpt lat="46.180659038946033" lon="10.414944849908352">
        <ele>2306.3400000000001</ele>
        <time>2018-07-14T06:54:48Z</time>
      </trkpt>
      <trkpt lat="46.180623583495617" lon="10.414947867393494">
        <ele>2307.7800000000002</ele>
        <time>2018-07-14T06:54:58Z</time>
      </trkpt>
      <trkpt lat="46.18057974614203" lon="10.414883829653263">
        <ele>2309.2199999999998</ele>
        <time>2018-07-14T06:55:10Z</time>
      </trkpt>
      <trkpt lat="46.180568849667907" lon="10.414848877117038">
        <ele>2311.1500000000001</ele>
        <time>2018-07-14T06:55:23Z</time>
      </trkpt>
      <trkpt lat="46.180570442229509" lon="10.414878968149424">
        <ele>2312.5900000000001</ele>
        <time>2018-07-14T06:55:34Z</time>
      </trkpt>
      <trkpt lat="46.180543368682265" lon="10.41491936892271">
        <ele>2314.0300000000002</ele>
        <time>2018-07-14T06:55:44Z</time>
      </trkpt>
      <trkpt lat="46.180524341762066" lon="10.414906879886985">
        <ele>2315.4699999999998</ele>
        <time>2018-07-14T06:55:52Z</time>
      </trkpt>
      <trkpt lat="46.180517468601465" lon="10.414852062240243">
        <ele>2315.9499999999998</ele>
        <time>2018-07-14T06:55:58Z</time>
      </trkpt>
      <trkpt lat="46.180526604875922" lon="10.414791209623218">
        <ele>2317.4000000000001</ele>
        <time>2018-07-14T06:56:07Z</time>
      </trkpt>
      <trkpt lat="46.180507075041533" lon="10.414750892668962">
        <ele>2318.8400000000001</ele>
        <time>2018-07-14T06:56:15Z</time>
      </trkpt>
      <trkpt lat="46.180487377569079" lon="10.41471510194242">
        <ele>2319.8000000000002</ele>
        <time>2018-07-14T06:56:24Z</time>
      </trkpt>
      <trkpt lat="46.180489053949714" lon="10.414687609300017">
        <ele>2320.7600000000002</ele>
        <time>2018-07-14T06:56:33Z</time>
      </trkpt>
      <trkpt lat="46.180483186617494" lon="10.414665145799518">
        <ele>2321.7199999999998</ele>
        <time>2018-07-14T06:56:48Z</time>
      </trkpt>
      <trkpt lat="46.180475894361734" lon="10.414619883522391">
        <ele>2322.1999999999998</ele>
        <time>2018-07-14T06:57:01Z</time>
      </trkpt>
      <trkpt lat="46.180499782785773" lon="10.414607143029571">
        <ele>2323.1599999999999</ele>
        <time>2018-07-14T06:57:11Z</time>
      </trkpt>
      <trkpt lat="46.180513864383101" lon="10.414597922936082">
        <ele>2323.6399999999999</ele>
        <time>2018-07-14T06:57:24Z</time>
      </trkpt>
      <trkpt lat="46.180495675653219" lon="10.414602365344763">
        <ele>2323.6399999999999</ele>
        <time>2018-07-14T06:57:28Z</time>
      </trkpt>
      <trkpt lat="46.180423675104976" lon="10.414670258760452">
        <ele>2323.6399999999999</ele>
        <time>2018-07-14T06:57:39Z</time>
      </trkpt>
      <trkpt lat="46.180450413376093" lon="10.414650728926063">
        <ele>2326.0500000000002</ele>
        <time>2018-07-14T07:09:27Z</time>
      </trkpt>
      <trkpt lat="46.180468602105975" lon="10.414757933467627">
        <ele>2327.4899999999998</ele>
        <time>2018-07-14T07:09:38Z</time>
      </trkpt>
      <trkpt lat="46.180449072271585" lon="10.414735050871968">
        <ele>2327.4899999999998</ele>
        <time>2018-07-14T07:09:51Z</time>
      </trkpt>
      <trkpt lat="46.180440271273255" lon="10.41466916911304">
        <ele>2326.5300000000002</ele>
        <time>2018-07-14T07:10:06Z</time>
      </trkpt>
      <trkpt lat="46.180459130555391" lon="10.414611250162125">
        <ele>2326.0500000000002</ele>
        <time>2018-07-14T07:10:16Z</time>
      </trkpt>
      <trkpt lat="46.180481510236859" lon="10.414621392264962">
        <ele>2324.6100000000001</ele>
        <time>2018-07-14T07:10:27Z</time>
      </trkpt>
      <trkpt lat="46.180505901575089" lon="10.414576968178153">
        <ele>2325.5700000000002</ele>
        <time>2018-07-14T07:10:39Z</time>
      </trkpt>
      <trkpt lat="46.180507075041533" lon="10.414585685357451">
        <ele>2326.0500000000002</ele>
        <time>2018-07-14T07:10:49Z</time>
      </trkpt>
      <trkpt lat="46.180498944595456" lon="10.41459389962256">
        <ele>2326.5300000000002</ele>
        <time>2018-07-14T07:11:06Z</time>
      </trkpt>
      <trkpt lat="46.180487042292953" lon="10.414655674248934">
        <ele>2325.0900000000001</ele>
        <time>2018-07-14T07:11:18Z</time>
      </trkpt>
      <trkpt lat="46.180532807484269" lon="10.414724070578814">
        <ele>2323.6399999999999</ele>
        <time>2018-07-14T07:11:29Z</time>
      </trkpt>
      <trkpt lat="46.180555103346705" lon="10.414741756394506">
        <ele>2323.6399999999999</ele>
        <time>2018-07-14T07:11:40Z</time>
      </trkpt>
      <trkpt lat="46.18053724989295" lon="10.414718287065625">
        <ele>2322.6799999999998</ele>
        <time>2018-07-14T07:11:54Z</time>
      </trkpt>
      <trkpt lat="46.18055485188961" lon="10.414749635383487">
        <ele>2323.1599999999999</ele>
        <time>2018-07-14T07:12:09Z</time>
      </trkpt>
      <trkpt lat="46.180536663159728" lon="10.414695823565125">
        <ele>2323.1599999999999</ele>
        <time>2018-07-14T07:12:17Z</time>
      </trkpt>
      <trkpt lat="46.180547727271914" lon="10.414654668420553">
        <ele>2324.6100000000001</ele>
        <time>2018-07-14T07:12:27Z</time>
      </trkpt>
      <trkpt lat="46.18056264705956" lon="10.414604293182492">
        <ele>2327.0100000000002</ele>
        <time>2018-07-14T07:12:41Z</time>
      </trkpt>
      <trkpt lat="46.180567843839526" lon="10.414563054218888">
        <ele>2328.9299999999998</ele>
        <time>2018-07-14T07:12:51Z</time>
      </trkpt>
      <trkpt lat="46.180608747527003" lon="10.414527179673314">
        <ele>2330.3699999999999</ele>
        <time>2018-07-14T07:13:01Z</time>
      </trkpt>
      <trkpt lat="46.180562479421496" lon="10.414599347859621">
        <ele>2330.3699999999999</ele>
        <time>2018-07-14T07:16:20Z</time>
      </trkpt>
      <trkpt lat="46.180518306791782" lon="10.414616027846932">
        <ele>2328.4499999999998</ele>
        <time>2018-07-14T07:16:30Z</time>
      </trkpt>
      <trkpt lat="46.180491400882602" lon="10.414632372558117">
        <ele>2327.4899999999998</ele>
        <time>2018-07-14T07:16:40Z</time>
      </trkpt>
      <trkpt lat="46.180486623197794" lon="10.414629271253943">
        <ele>2327.4899999999998</ele>
        <time>2018-07-14T07:16:55Z</time>
      </trkpt>
      <trkpt lat="46.180454017594457" lon="10.414621140807867">
        <ele>2327.0100000000002</ele>
        <time>2018-07-14T07:17:05Z</time>
      </trkpt>
      <trkpt lat="46.180441277101636" lon="10.414578812196851">
        <ele>2325.5700000000002</ele>
        <time>2018-07-14T07:17:20Z</time>
      </trkpt>
      <trkpt lat="46.180459633469582" lon="10.414487281814218">
        <ele>2323.1599999999999</ele>
        <time>2018-07-14T07:17:32Z</time>
      </trkpt>
      <trkpt lat="46.180474050343037" lon="10.414490550756454">
        <ele>2322.6799999999998</ele>
        <time>2018-07-14T07:17:44Z</time>
      </trkpt>
      <trkpt lat="46.180472122505307" lon="10.414441181346774">
        <ele>2321.7199999999998</ele>
        <time>2018-07-14T07:17:54Z</time>
      </trkpt>
      <trkpt lat="46.18046055547893" lon="10.414419807493687">
        <ele>2320.2800000000002</ele>
        <time>2018-07-14T07:18:04Z</time>
      </trkpt>
      <trkpt lat="46.180415041744709" lon="10.414405725896358">
        <ele>2318.3600000000001</ele>
        <time>2018-07-14T07:18:14Z</time>
      </trkpt>
      <trkpt lat="46.180390063673258" lon="10.414394494146109">
        <ele>2316.9099999999999</ele>
        <time>2018-07-14T07:18:26Z</time>
      </trkpt>
      <trkpt lat="46.180378077551723" lon="10.414417963474989">
        <ele>2315.9499999999998</ele>
        <time>2018-07-14T07:18:41Z</time>
      </trkpt>
      <trkpt lat="46.180362151935697" lon="10.414420142769814">
        <ele>2315.9499999999998</ele>
        <time>2018-07-14T07:18:55Z</time>
      </trkpt>
      <trkpt lat="46.180346058681607" lon="10.414418634027243">
        <ele>2315.9499999999998</ele>
        <time>2018-07-14T07:19:10Z</time>
      </trkpt>
      <trkpt lat="46.180345304310322" lon="10.414372365921736">
        <ele>2315.9499999999998</ele>
        <time>2018-07-14T07:19:26Z</time>
      </trkpt>
      <trkpt lat="46.180342957377434" lon="10.414347806945443">
        <ele>2314.5100000000002</ele>
        <time>2018-07-14T07:19:36Z</time>
      </trkpt>
      <trkpt lat="46.180340191349387" lon="10.414335401728749">
        <ele>2314.0300000000002</ele>
        <time>2018-07-14T07:19:47Z</time>
      </trkpt>
      <trkpt lat="46.180347902700305" lon="10.414356607943773">
        <ele>2314.5100000000002</ele>
        <time>2018-07-14T07:20:05Z</time>
      </trkpt>
      <trkpt lat="46.180327199399471" lon="10.414346884936094">
        <ele>2314.0300000000002</ele>
        <time>2018-07-14T07:20:22Z</time>
      </trkpt>
      <trkpt lat="46.180333904922009" lon="10.414361972361803">
        <ele>2314.0300000000002</ele>
        <time>2018-07-14T07:20:42Z</time>
      </trkpt>
      <trkpt lat="46.180321834981441" lon="10.414361972361803">
        <ele>2314.5100000000002</ele>
        <time>2018-07-14T07:21:04Z</time>
      </trkpt>
      <trkpt lat="46.180336000397801" lon="10.414342945441604">
        <ele>2314.5100000000002</ele>
        <time>2018-07-14T07:21:21Z</time>
      </trkpt>
      <trkpt lat="46.180326361209154" lon="10.414318637922406">
        <ele>2314.5100000000002</ele>
        <time>2018-07-14T07:21:46Z</time>
      </trkpt>
      <trkpt lat="46.180328456684947" lon="10.414326516911387">
        <ele>2314.5100000000002</ele>
        <time>2018-07-14T07:22:06Z</time>
      </trkpt>
      <trkpt lat="46.180333569645882" lon="10.414337664842606">
        <ele>2314.5100000000002</ele>
        <time>2018-07-14T07:22:31Z</time>
      </trkpt>
      <trkpt lat="46.180363912135363" lon="10.414323164150119">
        <ele>2314.9899999999998</ele>
        <time>2018-07-14T07:22:46Z</time>
      </trkpt>
      <trkpt lat="46.180360475555062" lon="10.414308160543442">
        <ele>2314.9899999999998</ele>
        <time>2018-07-14T07:23:04Z</time>
      </trkpt>
      <trkpt lat="46.180358380079269" lon="10.414319979026914">
        <ele>2314.9899999999998</ele>
        <time>2018-07-14T07:23:19Z</time>
      </trkpt>
      <trkpt lat="46.180360559374094" lon="10.414309082552791">
        <ele>2314.9899999999998</ele>
        <time>2018-07-14T07:23:34Z</time>
      </trkpt>
      <trkpt lat="46.180353853851557" lon="10.414306903257966">
        <ele>2314.9899999999998</ele>
        <time>2018-07-14T07:23:48Z</time>
      </trkpt>
      <trkpt lat="46.180357458069921" lon="10.414317464455962">
        <ele>2314.9899999999998</ele>
        <time>2018-07-14T07:24:11Z</time>
      </trkpt>
      <trkpt lat="46.180359469726682" lon="10.414255689829588">
        <ele>2313.5500000000002</ele>
        <time>2018-07-14T07:24:22Z</time>
      </trkpt>
      <trkpt lat="46.180370198562741" lon="10.41416684165597">
        <ele>2310.6700000000001</ele>
        <time>2018-07-14T07:24:34Z</time>
      </trkpt>
      <trkpt lat="46.180367767810822" lon="10.414099618792534">
        <ele>2308.2600000000002</ele>
        <time>2018-07-14T07:24:46Z</time>
      </trkpt>
      <trkpt lat="46.18034421466291" lon="10.414101462811232">
        <ele>2305.8600000000001</ele>
        <time>2018-07-14T07:24:56Z</time>
      </trkpt>
      <trkpt lat="46.180303227156401" lon="10.414083190262318">
        <ele>2303.9400000000001</ele>
        <time>2018-07-14T07:25:05Z</time>
      </trkpt>
      <trkpt lat="46.180354524403811" lon="10.413981266319752">
        <ele>2302.0100000000002</ele>
        <time>2018-07-14T07:25:17Z</time>
      </trkpt>
      <trkpt lat="46.18036282248795" lon="10.413892166689038">
        <ele>2300.0900000000001</ele>
        <time>2018-07-14T07:25:28Z</time>
      </trkpt>
      <trkpt lat="46.180362990126014" lon="10.413817148655653">
        <ele>2296.73</ele>
        <time>2018-07-14T07:25:39Z</time>
      </trkpt>
      <trkpt lat="46.180321583524346" lon="10.413848077878356">
        <ele>2294.8000000000002</ele>
        <time>2018-07-14T07:25:49Z</time>
      </trkpt>
      <trkpt lat="46.180323930457234" lon="10.413758391514421">
        <ele>2292.4000000000001</ele>
        <time>2018-07-14T07:25:59Z</time>
      </trkpt>
      <trkpt lat="46.18032711558044" lon="10.413687648251653">
        <ele>2290</ele>
        <time>2018-07-14T07:26:11Z</time>
      </trkpt>
      <trkpt lat="46.180335413664579" lon="10.413589663803577">
        <ele>2287.5900000000001</ele>
        <time>2018-07-14T07:26:22Z</time>
      </trkpt>
      <trkpt lat="46.180334156379104" lon="10.413536857813597">
        <ele>2285.1900000000001</ele>
        <time>2018-07-14T07:26:33Z</time>
      </trkpt>
      <trkpt lat="46.180353686213493" lon="10.413453541696072">
        <ele>2283.27</ele>
        <time>2018-07-14T07:26:43Z</time>
      </trkpt>
      <trkpt lat="46.180319068953395" lon="10.413402244448662">
        <ele>2280.8699999999999</ele>
        <time>2018-07-14T07:26:54Z</time>
      </trkpt>
      <trkpt lat="46.180317644029856" lon="10.413304511457682">
        <ele>2278.46</ele>
        <time>2018-07-14T07:27:05Z</time>
      </trkpt>
      <trkpt lat="46.180314458906651" lon="10.413239719346166">
        <ele>2276.54</ele>
        <time>2018-07-14T07:27:17Z</time>
      </trkpt>
      <trkpt lat="46.180249582976103" lon="10.413310127332807">
        <ele>2274.1399999999999</ele>
        <time>2018-07-14T07:27:29Z</time>
      </trkpt>
      <trkpt lat="46.180194010958076" lon="10.413363771513104">
        <ele>2271.25</ele>
        <time>2018-07-14T07:27:41Z</time>
      </trkpt>
      <trkpt lat="46.18014388717711" lon="10.413357485085726">
        <ele>2268.8499999999999</ele>
        <time>2018-07-14T07:27:52Z</time>
      </trkpt>
      <trkpt lat="46.180166769772768" lon="10.41325656697154">
        <ele>2266.9299999999998</ele>
        <time>2018-07-14T07:28:02Z</time>
      </trkpt>
      <trkpt lat="46.180150844156742" lon="10.413204180076718">
        <ele>2264.52</ele>
        <time>2018-07-14T07:28:12Z</time>
      </trkpt>
      <trkpt lat="46.180151849985123" lon="10.413117595016956">
        <ele>2262.1199999999999</ele>
        <time>2018-07-14T07:28:22Z</time>
      </trkpt>
      <trkpt lat="46.180152855813503" lon="10.413060849532485">
        <ele>2260.1999999999998</ele>
        <time>2018-07-14T07:28:33Z</time>
      </trkpt>
      <trkpt lat="46.180126368999481" lon="10.413009217008948">
        <ele>2257.79</ele>
        <time>2018-07-14T07:28:44Z</time>
      </trkpt>
      <trkpt lat="46.180141707882285" lon="10.412959009408951">
        <ele>2255.8699999999999</ele>
        <time>2018-07-14T07:28:55Z</time>
      </trkpt>
      <trkpt lat="46.180121339857578" lon="10.412926571443677">
        <ele>2254.4299999999998</ele>
        <time>2018-07-14T07:29:05Z</time>
      </trkpt>
      <trkpt lat="46.180067863315344" lon="10.41298340074718">
        <ele>2252.0300000000002</ele>
        <time>2018-07-14T07:29:15Z</time>
      </trkpt>
      <trkpt lat="46.180045483633876" lon="10.412955824285746">
        <ele>2251.0599999999999</ele>
        <time>2018-07-14T07:29:23Z</time>
      </trkpt>
      <trkpt lat="46.180039448663592" lon="10.412919698283076">
        <ele>2249.6199999999999</ele>
        <time>2018-07-14T07:29:31Z</time>
      </trkpt>
      <trkpt lat="46.180053278803825" lon="10.412853145971894">
        <ele>2247.2199999999998</ele>
        <time>2018-07-14T07:29:42Z</time>
      </trkpt>
      <trkpt lat="46.180030647665262" lon="10.412824396044016">
        <ele>2245.7800000000002</ele>
        <time>2018-07-14T07:29:52Z</time>
      </trkpt>
      <trkpt lat="46.179979434236884" lon="10.412880890071392">
        <ele>2243.8499999999999</ele>
        <time>2018-07-14T07:30:04Z</time>
      </trkpt>
      <trkpt lat="46.179976752027869" lon="10.412794724106789">
        <ele>2241.4499999999998</ele>
        <time>2018-07-14T07:30:15Z</time>
      </trkpt>
      <trkpt lat="46.179927047342062" lon="10.412848116829991">
        <ele>2239.5300000000002</ele>
        <time>2018-07-14T07:30:26Z</time>
      </trkpt>
      <trkpt lat="46.179899387061596" lon="10.412804782390594">
        <ele>2237.6100000000001</ele>
        <time>2018-07-14T07:30:36Z</time>
      </trkpt>
      <trkpt lat="46.179909445345402" lon="10.412775445729494">
        <ele>2236.1599999999999</ele>
        <time>2018-07-14T07:30:48Z</time>
      </trkpt>
      <trkpt lat="46.179922018200159" lon="10.412684669718146">
        <ele>2234.2399999999998</ele>
        <time>2018-07-14T07:31:02Z</time>
      </trkpt>
      <trkpt lat="46.179918916895986" lon="10.412636892870069">
        <ele>2232.3200000000002</ele>
        <time>2018-07-14T07:31:12Z</time>
      </trkpt>
      <trkpt lat="46.179882120341063" lon="10.41263940744102">
        <ele>2230.4000000000001</ele>
        <time>2018-07-14T07:31:22Z</time>
      </trkpt>
      <trkpt lat="46.179882623255253" lon="10.412528263404965">
        <ele>2227.9899999999998</ele>
        <time>2018-07-14T07:31:36Z</time>
      </trkpt>
      <trkpt lat="46.179870385676622" lon="10.412478893995285">
        <ele>2226.5500000000002</ele>
        <time>2018-07-14T07:31:46Z</time>
      </trkpt>
      <trkpt lat="46.179863512516022" lon="10.41241317987442">
        <ele>2225.1100000000001</ele>
        <time>2018-07-14T07:31:58Z</time>
      </trkpt>
      <trkpt lat="46.17986879311502" lon="10.412404714152217">
        <ele>2225.1100000000001</ele>
        <time>2018-07-14T07:32:08Z</time>
      </trkpt>
      <trkpt lat="46.179872313514352" lon="10.412421142682433">
        <ele>2224.6300000000001</ele>
        <time>2018-07-14T07:32:20Z</time>
      </trkpt>
      <trkpt lat="46.179864350706339" lon="10.412430949509144">
        <ele>2224.6300000000001</ele>
        <time>2018-07-14T07:32:35Z</time>
      </trkpt>
      <trkpt lat="46.179865691810846" lon="10.412436816841364">
        <ele>2219.8200000000002</ele>
        <time>2018-07-14T07:32:38Z</time>
      </trkpt>
      <trkpt lat="46.179868122562766" lon="10.412438157945871">
        <ele>2228.4699999999998</ele>
        <time>2018-07-14T07:32:39Z</time>
      </trkpt>
      <trkpt lat="46.179863093420863" lon="10.41243514046073">
        <ele>2224.1500000000001</ele>
        <time>2018-07-14T07:32:40Z</time>
      </trkpt>
      <trkpt lat="46.179850017651916" lon="10.412435308098793">
        <ele>2224.1500000000001</ele>
        <time>2018-07-14T07:32:57Z</time>
      </trkpt>
      <trkpt lat="46.179841635748744" lon="10.412447126582265">
        <ele>2224.1500000000001</ele>
        <time>2018-07-14T07:33:14Z</time>
      </trkpt>
      <trkpt lat="46.179822944104671" lon="10.412445534020662">
        <ele>2223.1900000000001</ele>
        <time>2018-07-14T07:33:24Z</time>
      </trkpt>
      <trkpt lat="46.17980676703155" lon="10.412420304492116">
        <ele>2222.2199999999998</ele>
        <time>2018-07-14T07:33:37Z</time>
      </trkpt>
      <trkpt lat="46.179821854457259" lon="10.412380238994956">
        <ele>2221.2600000000002</ele>
        <time>2018-07-14T07:33:52Z</time>
      </trkpt>
      <trkpt lat="46.179834678769112" lon="10.412337994202971">
        <ele>2220.7800000000002</ele>
        <time>2018-07-14T07:34:03Z</time>
      </trkpt>
      <trkpt lat="46.179801067337394" lon="10.41234671138227">
        <ele>2219.8200000000002</ele>
        <time>2018-07-14T07:34:18Z</time>
      </trkpt>
      <trkpt lat="46.179781872779131" lon="10.41239901445806">
        <ele>2218.3800000000001</ele>
        <time>2018-07-14T07:34:28Z</time>
      </trkpt>
      <trkpt lat="46.17977793328464" lon="10.4123330488801">
        <ele>2216.46</ele>
        <time>2018-07-14T07:34:38Z</time>
      </trkpt>
      <trkpt lat="46.17977793328464" lon="10.412317793816328">
        <ele>2215.98</ele>
        <time>2018-07-14T07:34:48Z</time>
      </trkpt>
      <trkpt lat="46.179772485047579" lon="10.412292648106813">
        <ele>2215.0100000000002</ele>
        <time>2018-07-14T07:34:59Z</time>
      </trkpt>
      <trkpt lat="46.179767288267612" lon="10.412223832681775">
        <ele>2213.5700000000002</ele>
        <time>2018-07-14T07:35:10Z</time>
      </trkpt>
      <trkpt lat="46.179756978526711" lon="10.412174127995968">
        <ele>2211.6500000000001</ele>
        <time>2018-07-14T07:35:21Z</time>
      </trkpt>
      <trkpt lat="46.179725714027882" lon="10.412162225693464">
        <ele>2209.73</ele>
        <time>2018-07-14T07:35:31Z</time>
      </trkpt>
      <trkpt lat="46.179712889716029" lon="10.412202877923846">
        <ele>2208.77</ele>
        <time>2018-07-14T07:35:41Z</time>
      </trkpt>
      <trkpt lat="46.179689923301339" lon="10.412227772176266">
        <ele>2207.8099999999999</ele>
        <time>2018-07-14T07:35:50Z</time>
      </trkpt>
      <trkpt lat="46.179673159494996" lon="10.412175888195634">
        <ele>2206.3600000000001</ele>
        <time>2018-07-14T07:36:01Z</time>
      </trkpt>
      <trkpt lat="46.179659329354763" lon="10.41213565506041">
        <ele>2203.96</ele>
        <time>2018-07-14T07:36:13Z</time>
      </trkpt>
      <trkpt lat="46.17963770404458" lon="10.412074634805322">
        <ele>2202.04</ele>
        <time>2018-07-14T07:36:22Z</time>
      </trkpt>
      <trkpt lat="46.179617252200842" lon="10.412008333951235">
        <ele>2199.1500000000001</ele>
        <time>2018-07-14T07:36:35Z</time>
      </trkpt>
      <trkpt lat="46.179579868912697" lon="10.412102714180946">
        <ele>2197.23</ele>
        <time>2018-07-14T07:36:46Z</time>
      </trkpt>
      <trkpt lat="46.179571319371462" lon="10.412018895149231">
        <ele>2195.79</ele>
        <time>2018-07-14T07:36:55Z</time>
      </trkpt>
      <trkpt lat="46.179566457867622" lon="10.411999952048063">
        <ele>2194.8299999999999</ele>
        <time>2018-07-14T07:37:06Z</time>
      </trkpt>
      <trkpt lat="46.179569978266954" lon="10.411957623437047">
        <ele>2193.8699999999999</ele>
        <time>2018-07-14T07:37:18Z</time>
      </trkpt>
      <trkpt lat="46.179528571665287" lon="10.411964161321521">
        <ele>2191.9400000000001</ele>
        <time>2018-07-14T07:37:29Z</time>
      </trkpt>
      <trkpt lat="46.179495714604855" lon="10.412026606500149">
        <ele>2189.0599999999999</ele>
        <time>2018-07-14T07:37:40Z</time>
      </trkpt>
      <trkpt lat="46.179464533925056" lon="10.412042196840048">
        <ele>2187.1399999999999</ele>
        <time>2018-07-14T07:37:50Z</time>
      </trkpt>
      <trkpt lat="46.179457241669297" lon="10.411955779418349">
        <ele>2185.21</ele>
        <time>2018-07-14T07:38:02Z</time>
      </trkpt>
      <trkpt lat="46.179429246112704" lon="10.41198511607945">
        <ele>2182.3299999999999</ele>
        <time>2018-07-14T07:38:15Z</time>
      </trkpt>
      <trkpt lat="46.179418014362454" lon="10.412058625370264">
        <ele>2180.8899999999999</ele>
        <time>2018-07-14T07:38:25Z</time>
      </trkpt>
      <trkpt lat="46.179382223635912" lon="10.412019900977612">
        <ele>2178.9699999999998</ele>
        <time>2018-07-14T07:38:34Z</time>
      </trkpt>
      <trkpt lat="46.179346600547433" lon="10.411942871287465">
        <ele>2176.0799999999999</ele>
        <time>2018-07-14T07:38:44Z</time>
      </trkpt>
      <trkpt lat="46.179337464272976" lon="10.411848407238722">
        <ele>2174.1599999999999</ele>
        <time>2018-07-14T07:38:56Z</time>
      </trkpt>
      <trkpt lat="46.179326148703694" lon="10.411817729473114">
        <ele>2173.1999999999998</ele>
        <time>2018-07-14T07:39:11Z</time>
      </trkpt>
      <trkpt lat="46.1793327704072" lon="10.411768024787307">
        <ele>2172.2399999999998</ele>
        <time>2018-07-14T07:39:21Z</time>
      </trkpt>
      <trkpt lat="46.179302176460624" lon="10.411657048389316">
        <ele>2169.8299999999999</ele>
        <time>2018-07-14T07:39:35Z</time>
      </trkpt>
      <trkpt lat="46.179282478988171" lon="10.411660065874457">
        <ele>2166.9499999999998</ele>
        <time>2018-07-14T07:39:42Z</time>
      </trkpt>
      <trkpt lat="46.179241156205535" lon="10.411730222404003">
        <ele>2164.5500000000002</ele>
        <time>2018-07-14T07:39:54Z</time>
      </trkpt>
      <trkpt lat="46.17923310957849" lon="10.411676662042737">
        <ele>2163.5799999999999</ele>
        <time>2018-07-14T07:40:01Z</time>
      </trkpt>
      <trkpt lat="46.179217267781496" lon="10.411501144990325">
        <ele>2160.6999999999998</ele>
        <time>2018-07-14T07:40:14Z</time>
      </trkpt>
      <trkpt lat="46.179170412942767" lon="10.411492511630058">
        <ele>2158.3000000000002</ele>
        <time>2018-07-14T07:40:24Z</time>
      </trkpt>
      <trkpt lat="46.179158594459295" lon="10.411432078108191">
        <ele>2156.3699999999999</ele>
        <time>2018-07-14T07:40:33Z</time>
      </trkpt>
      <trkpt lat="46.179199079051614" lon="10.411386396735907">
        <ele>2154.4499999999998</ele>
        <time>2018-07-14T07:40:45Z</time>
      </trkpt>
      <trkpt lat="46.179210729897022" lon="10.411341469734907">
        <ele>2152.5300000000002</ele>
        <time>2018-07-14T07:40:54Z</time>
      </trkpt>
      <trkpt lat="46.179198157042265" lon="10.411329483613372">
        <ele>2151.0900000000001</ele>
        <time>2018-07-14T07:41:03Z</time>
      </trkpt>
      <trkpt lat="46.179180052131414" lon="10.411299979314208">
        <ele>2149.1599999999999</ele>
        <time>2018-07-14T07:41:12Z</time>
      </trkpt>
      <trkpt lat="46.179206874221563" lon="10.41126050055027">
        <ele>2147.2399999999998</ele>
        <time>2018-07-14T07:41:24Z</time>
      </trkpt>
      <trkpt lat="46.1791617795825" lon="10.411221357062459">
        <ele>2146.2800000000002</ele>
        <time>2018-07-14T07:41:36Z</time>
      </trkpt>
      <trkpt lat="46.179133784025908" lon="10.411191685125232">
        <ele>2142.9200000000001</ele>
        <time>2018-07-14T07:41:46Z</time>
      </trkpt>
      <trkpt lat="46.179144093766809" lon="10.41112270206213">
        <ele>2141.4699999999998</ele>
        <time>2018-07-14T07:41:56Z</time>
      </trkpt>
      <trkpt lat="46.179188350215554" lon="10.411085821688175">
        <ele>2139.0700000000002</ele>
        <time>2018-07-14T07:42:08Z</time>
      </trkpt>
      <trkpt lat="46.179218273609877" lon="10.411113649606705">
        <ele>2137.1500000000001</ele>
        <time>2018-07-14T07:42:19Z</time>
      </trkpt>
      <trkpt lat="46.179242329671979" lon="10.411045840010047">
        <ele>2135.23</ele>
        <time>2018-07-14T07:42:29Z</time>
      </trkpt>
      <trkpt lat="46.179262781515718" lon="10.411064364016056">
        <ele>2134.7399999999998</ele>
        <time>2018-07-14T07:42:40Z</time>
      </trkpt>
      <trkpt lat="46.179274348542094" lon="10.410992279648781">
        <ele>2133.3000000000002</ele>
        <time>2018-07-14T07:42:51Z</time>
      </trkpt>
      <trkpt lat="46.179282898083329" lon="10.410952800884843">
        <ele>2131.8600000000001</ele>
        <time>2018-07-14T07:43:00Z</time>
      </trkpt>
      <trkpt lat="46.179244760423899" lon="10.410904185846448">
        <ele>2129.9400000000001</ele>
        <time>2018-07-14T07:43:09Z</time>
      </trkpt>
      <trkpt lat="46.179261608049273" lon="10.410808799788356">
        <ele>2127.5300000000002</ele>
        <time>2018-07-14T07:43:19Z</time>
      </trkpt>
      <trkpt lat="46.179277114570141" lon="10.410799579694867">
        <ele>2126.5700000000002</ele>
        <time>2018-07-14T07:43:30Z</time>
      </trkpt>
      <trkpt lat="46.179294800385833" lon="10.410789353772998">
        <ele>2127.5300000000002</ele>
        <time>2018-07-14T07:43:37Z</time>
      </trkpt>
      <trkpt lat="46.179296979680657" lon="10.41075088083744">
        <ele>2124.6500000000001</ele>
        <time>2018-07-14T07:43:48Z</time>
      </trkpt>
      <trkpt lat="46.179295554757118" lon="10.410701343789697">
        <ele>2123.21</ele>
        <time>2018-07-14T07:43:58Z</time>
      </trkpt>
      <trkpt lat="46.179306032136083" lon="10.41067217476666">
        <ele>2122.73</ele>
        <time>2018-07-14T07:44:09Z</time>
      </trkpt>
      <trkpt lat="46.179315419867635" lon="10.410617692396045">
        <ele>2121.29</ele>
        <time>2018-07-14T07:44:18Z</time>
      </trkpt>
      <trkpt lat="46.179366130381823" lon="10.410573352128267">
        <ele>2118.4000000000001</ele>
        <time>2018-07-14T07:44:30Z</time>
      </trkpt>
      <trkpt lat="46.179359843954444" lon="10.410523731261492">
        <ele>2116.96</ele>
        <time>2018-07-14T07:44:43Z</time>
      </trkpt>
      <trkpt lat="46.179353976622224" lon="10.410469835624099">
        <ele>2115.52</ele>
        <time>2018-07-14T07:44:47Z</time>
      </trkpt>
      <trkpt lat="46.179365376010537" lon="10.410456173121929">
        <ele>2115.04</ele>
        <time>2018-07-14T07:44:49Z</time>
      </trkpt>
      <trkpt lat="46.179425977170467" lon="10.410415520891547">
        <ele>2113.1199999999999</ele>
        <time>2018-07-14T07:45:00Z</time>
      </trkpt>
      <trkpt lat="46.17940753698349" lon="10.41038048453629">
        <ele>2110.71</ele>
        <time>2018-07-14T07:45:12Z</time>
      </trkpt>
      <trkpt lat="46.179371830075979" lon="10.410392889752984">
        <ele>2108.3099999999999</ele>
        <time>2018-07-14T07:45:22Z</time>
      </trkpt>
      <trkpt lat="46.179340230301023" lon="10.410384424030781">
        <ele>2105.4200000000001</ele>
        <time>2018-07-14T07:45:34Z</time>
      </trkpt>
      <trkpt lat="46.179341319948435" lon="10.410254839807749">
        <ele>2103.98</ele>
        <time>2018-07-14T07:45:45Z</time>
      </trkpt>
      <trkpt lat="46.179328411817551" lon="10.410211589187384">
        <ele>2101.5799999999999</ele>
        <time>2018-07-14T07:45:55Z</time>
      </trkpt>
      <trkpt lat="46.1792844068259" lon="10.410151742398739">
        <ele>2099.6599999999999</ele>
        <time>2018-07-14T07:46:06Z</time>
      </trkpt>
      <trkpt lat="46.179285161197186" lon="10.410123998299241">
        <ele>2097.73</ele>
        <time>2018-07-14T07:46:17Z</time>
      </trkpt>
      <trkpt lat="46.17925071157515" lon="10.410041688010097">
        <ele>2095.8099999999999</ele>
        <time>2018-07-14T07:46:30Z</time>
      </trkpt>
      <trkpt lat="46.179224560037255" lon="10.410044034942985">
        <ele>2093.8899999999999</ele>
        <time>2018-07-14T07:46:44Z</time>
      </trkpt>
      <trkpt lat="46.179232355207205" lon="10.409982511773705">
        <ele>2092.9299999999998</ele>
        <time>2018-07-14T07:46:54Z</time>
      </trkpt>
      <trkpt lat="46.179222632199526" lon="10.40998469106853">
        <ele>2091.4899999999998</ele>
        <time>2018-07-14T07:47:05Z</time>
      </trkpt>
      <trkpt lat="46.179186841472983" lon="10.409966753795743">
        <ele>2089.5599999999999</ele>
        <time>2018-07-14T07:47:15Z</time>
      </trkpt>
      <trkpt lat="46.179150547832251" lon="10.409914450719953">
        <ele>2087.6399999999999</ele>
        <time>2018-07-14T07:47:24Z</time>
      </trkpt>
      <trkpt lat="46.179119702428579" lon="10.409819986671209">
        <ele>2084.7600000000002</ele>
        <time>2018-07-14T07:47:34Z</time>
      </trkpt>
      <trkpt lat="46.179087096825242" lon="10.409733820706606">
        <ele>2082.3499999999999</ele>
        <time>2018-07-14T07:47:44Z</time>
      </trkpt>
      <trkpt lat="46.179006295278668" lon="10.409693084657192">
        <ele>2078.9899999999998</ele>
        <time>2018-07-14T07:47:57Z</time>
      </trkpt>
      <trkpt lat="46.178974360227585" lon="10.409659892320633">
        <ele>2078.0300000000002</ele>
        <time>2018-07-14T07:48:06Z</time>
      </trkpt>
      <trkpt lat="46.178989112377167" lon="10.409605829045177">
        <ele>2076.0999999999999</ele>
        <time>2018-07-14T07:48:15Z</time>
      </trkpt>
      <trkpt lat="46.178958769887686" lon="10.409658467397094">
        <ele>2074.6599999999999</ele>
        <time>2018-07-14T07:48:25Z</time>
      </trkpt>
      <trkpt lat="46.178927756845951" lon="10.409596357494593">
        <ele>2072.7399999999998</ele>
        <time>2018-07-14T07:48:34Z</time>
      </trkpt>
      <trkpt lat="46.178938066586852" lon="10.409546904265881">
        <ele>2071.3000000000002</ele>
        <time>2018-07-14T07:48:43Z</time>
      </trkpt>
      <trkpt lat="46.17891937494278" lon="10.409552101045847">
        <ele>2069.3800000000001</ele>
        <time>2018-07-14T07:48:54Z</time>
      </trkpt>
      <trkpt lat="46.178886434063315" lon="10.409482615068555">
        <ele>2067.4499999999998</ele>
        <time>2018-07-14T07:49:06Z</time>
      </trkpt>
      <trkpt lat="46.178841423243284" lon="10.409410195425153">
        <ele>2065.0500000000002</ele>
        <time>2018-07-14T07:49:16Z</time>
      </trkpt>
      <trkpt lat="46.17883731611073" lon="10.409387480467558">
        <ele>2064.5700000000002</ele>
        <time>2018-07-14T07:49:18Z</time>
      </trkpt>
      <trkpt lat="46.178806805983186" lon="10.409312881529331">
        <ele>2062.6500000000001</ele>
        <time>2018-07-14T07:49:29Z</time>
      </trkpt>
      <trkpt lat="46.178822480142117" lon="10.409286059439182">
        <ele>2061.1999999999998</ele>
        <time>2018-07-14T07:49:37Z</time>
      </trkpt>
      <trkpt lat="46.178807141259313" lon="10.409336434677243">
        <ele>2059.7600000000002</ele>
        <time>2018-07-14T07:49:48Z</time>
      </trkpt>
      <trkpt lat="46.178791802376509" lon="10.409256722778082">
        <ele>2058.3200000000002</ele>
        <time>2018-07-14T07:49:58Z</time>
      </trkpt>
      <trkpt lat="46.178787695243955" lon="10.409275330603123">
        <ele>2056.4000000000001</ele>
        <time>2018-07-14T07:50:09Z</time>
      </trkpt>
      <trkpt lat="46.178786521777511" lon="10.409212131053209">
        <ele>2054.96</ele>
        <time>2018-07-14T07:50:19Z</time>
      </trkpt>
      <trkpt lat="46.178779816254973" lon="10.409207688644528">
        <ele>2053.5100000000002</ele>
        <time>2018-07-14T07:50:30Z</time>
      </trkpt>
      <trkpt lat="46.178782414644957" lon="10.409227553755045">
        <ele>2051.1100000000001</ele>
        <time>2018-07-14T07:50:44Z</time>
      </trkpt>
      <trkpt lat="46.178786857053638" lon="10.409158738330007">
        <ele>2050.6300000000001</ele>
        <time>2018-07-14T07:50:54Z</time>
      </trkpt>
      <trkpt lat="46.178769925609231" lon="10.409172736108303">
        <ele>2048.71</ele>
        <time>2018-07-14T07:51:07Z</time>
      </trkpt>
      <trkpt lat="46.178767075762153" lon="10.409248173236847">
        <ele>2047.75</ele>
        <time>2018-07-14T07:51:18Z</time>
      </trkpt>
      <trkpt lat="46.178747545927763" lon="10.409164018929005">
        <ele>2046.3</ele>
        <time>2018-07-14T07:51:30Z</time>
      </trkpt>
      <trkpt lat="46.178783671930432" lon="10.409409860149026">
        <ele>2045.8199999999999</ele>
        <time>2018-07-14T07:51:40Z</time>
      </trkpt>
      <trkpt lat="46.17875324562192" lon="10.409490913152695">
        <ele>2043.9000000000001</ele>
        <time>2018-07-14T07:51:51Z</time>
      </trkpt>
      <trkpt lat="46.178730949759483" lon="10.409446405246854">
        <ele>2042.46</ele>
        <time>2018-07-14T07:52:00Z</time>
      </trkpt>
      <trkpt lat="46.178744276985526" lon="10.409395694732666">
        <ele>2041.98</ele>
        <time>2018-07-14T07:52:11Z</time>
      </trkpt>
      <trkpt lat="46.178726088255644" lon="10.409394102171063">
        <ele>2041.02</ele>
        <time>2018-07-14T07:52:20Z</time>
      </trkpt>
      <trkpt lat="46.178727680817246" lon="10.409347750246525">
        <ele>2039.5699999999999</ele>
        <time>2018-07-14T07:52:29Z</time>
      </trkpt>
      <trkpt lat="46.178711084648967" lon="10.409298380836844">
        <ele>2038.1300000000001</ele>
        <time>2018-07-14T07:52:38Z</time>
      </trkpt>
      <trkpt lat="46.178705636411905" lon="10.409269882366061">
        <ele>2037.1700000000001</ele>
        <time>2018-07-14T07:52:49Z</time>
      </trkpt>
      <trkpt lat="46.178689291700721" lon="10.409242976456881">
        <ele>2035.73</ele>
        <time>2018-07-14T07:52:57Z</time>
      </trkpt>
      <trkpt lat="46.178691135719419" lon="10.409184386953712">
        <ele>2034.29</ele>
        <time>2018-07-14T07:53:05Z</time>
      </trkpt>
      <trkpt lat="46.178689626976848" lon="10.409169048070908">
        <ele>2032.8399999999999</ele>
        <time>2018-07-14T07:53:16Z</time>
      </trkpt>
      <trkpt lat="46.178683508187532" lon="10.409185141324997">
        <ele>2031.8800000000001</ele>
        <time>2018-07-14T07:53:27Z</time>
      </trkpt>
      <trkpt lat="46.178644532337785" lon="10.409217663109303">
        <ele>2030.9200000000001</ele>
        <time>2018-07-14T07:53:38Z</time>
      </trkpt>
      <trkpt lat="46.178607065230608" lon="10.409170389175415">
        <ele>2029.96</ele>
        <time>2018-07-14T07:53:48Z</time>
      </trkpt>
      <trkpt lat="46.178593570366502" lon="10.409128898754716">
        <ele>2028.04</ele>
        <time>2018-07-14T07:53:58Z</time>
      </trkpt>
      <trkpt lat="46.178620811551809" lon="10.409061759710312">
        <ele>2026.5999999999999</ele>
        <time>2018-07-14T07:54:09Z</time>
      </trkpt>
      <trkpt lat="46.178604383021593" lon="10.409076511859894">
        <ele>2025.1500000000001</ele>
        <time>2018-07-14T07:54:20Z</time>
      </trkpt>
      <trkpt lat="46.17856758646667" lon="10.409048264846206">
        <ele>2022.75</ele>
        <time>2018-07-14T07:54:31Z</time>
      </trkpt>
      <trkpt lat="46.178555097430944" lon="10.409046672284603">
        <ele>2021.3099999999999</ele>
        <time>2018-07-14T07:54:41Z</time>
      </trkpt>
      <trkpt lat="46.178527437150478" lon="10.409064022824168">
        <ele>2020.3499999999999</ele>
        <time>2018-07-14T07:54:51Z</time>
      </trkpt>
      <trkpt lat="46.178499860689044" lon="10.409023035317659">
        <ele>2018.9100000000001</ele>
        <time>2018-07-14T07:55:00Z</time>
      </trkpt>
      <trkpt lat="46.178507823497057" lon="10.408990764990449">
        <ele>2017.9400000000001</ele>
        <time>2018-07-14T07:55:12Z</time>
      </trkpt>
      <trkpt lat="46.178497262299061" lon="10.408978862687945">
        <ele>2017.46</ele>
        <time>2018-07-14T07:55:20Z</time>
      </trkpt>
      <trkpt lat="46.178480917587876" lon="10.408979868516326">
        <ele>2016.5</ele>
        <time>2018-07-14T07:55:32Z</time>
      </trkpt>
      <trkpt lat="46.17845568805933" lon="10.408980874344707">
        <ele>2015.0599999999999</ele>
        <time>2018-07-14T07:55:40Z</time>
      </trkpt>
      <trkpt lat="46.178438840433955" lon="10.408945418894291">
        <ele>2013.1400000000001</ele>
        <time>2018-07-14T07:55:49Z</time>
      </trkpt>
      <trkpt lat="46.178414113819599" lon="10.408965451642871">
        <ele>2011.22</ele>
        <time>2018-07-14T07:55:58Z</time>
      </trkpt>
      <trkpt lat="46.178407659754157" lon="10.40891163982451">
        <ele>2010.73</ele>
        <time>2018-07-14T07:56:06Z</time>
      </trkpt>
      <trkpt lat="46.178366923704743" lon="10.408957069739699">
        <ele>2008.3299999999999</ele>
        <time>2018-07-14T07:56:15Z</time>
      </trkpt>
      <trkpt lat="46.178337251767516" lon="10.408924045041203">
        <ele>2006.4100000000001</ele>
        <time>2018-07-14T07:56:24Z</time>
      </trkpt>
      <trkpt lat="46.178312357515097" lon="10.408856486901641">
        <ele>2004.49</ele>
        <time>2018-07-14T07:56:35Z</time>
      </trkpt>
      <trkpt lat="46.17827732115984" lon="10.408840561285615">
        <ele>2002.0799999999999</ele>
        <time>2018-07-14T07:56:45Z</time>
      </trkpt>
      <trkpt lat="46.178244212642312" lon="10.408829832449555">
        <ele>1999.2</ele>
        <time>2018-07-14T07:56:55Z</time>
      </trkpt>
      <trkpt lat="46.178230047225952" lon="10.40875380858779">
        <ele>1996.8</ele>
        <time>2018-07-14T07:57:07Z</time>
      </trkpt>
      <trkpt lat="46.178215043619275" lon="10.408724807202816">
        <ele>1994.3900000000001</ele>
        <time>2018-07-14T07:57:17Z</time>
      </trkpt>
      <trkpt lat="46.17821822874248" lon="10.408735116943717">
        <ele>1993.9100000000001</ele>
        <time>2018-07-14T07:57:29Z</time>
      </trkpt>
      <trkpt lat="46.178191574290395" lon="10.408718688413501">
        <ele>1992.95</ele>
        <time>2018-07-14T07:57:40Z</time>
      </trkpt>
      <trkpt lat="46.17815762758255" lon="10.408666301518679">
        <ele>1990.55</ele>
        <time>2018-07-14T07:57:51Z</time>
      </trkpt>
      <trkpt lat="46.17811462841928" lon="10.408680802211165">
        <ele>1988.6199999999999</ele>
        <time>2018-07-14T07:58:01Z</time>
      </trkpt>
      <trkpt lat="46.178092584013939" lon="10.408616093918681">
        <ele>1986.22</ele>
        <time>2018-07-14T07:58:12Z</time>
      </trkpt>
      <trkpt lat="46.178068444132805" lon="10.408573178574443">
        <ele>1984.3</ele>
        <time>2018-07-14T07:58:24Z</time>
      </trkpt>
      <trkpt lat="46.178063834086061" lon="10.408563790842891">
        <ele>1983.8199999999999</ele>
        <time>2018-07-14T07:58:32Z</time>
      </trkpt>
      <trkpt lat="46.178027959540486" lon="10.408551217988133">
        <ele>1981.4100000000001</ele>
        <time>2018-07-14T07:58:41Z</time>
      </trkpt>
      <trkpt lat="46.17800910025835" lon="10.408486174419522">
        <ele>1979.49</ele>
        <time>2018-07-14T07:58:51Z</time>
      </trkpt>
      <trkpt lat="46.177988983690739" lon="10.408459100872278">
        <ele>1978.05</ele>
        <time>2018-07-14T07:59:01Z</time>
      </trkpt>
      <trkpt lat="46.177970124408603" lon="10.408432530239224">
        <ele>1976.1300000000001</ele>
        <time>2018-07-14T07:59:12Z</time>
      </trkpt>
      <trkpt lat="46.177941206842661" lon="10.408410150557756">
        <ele>1974.2</ele>
        <time>2018-07-14T07:59:23Z</time>
      </trkpt>
      <trkpt lat="46.177914468571544" lon="10.40838148444891">
        <ele>1972.28</ele>
        <time>2018-07-14T07:59:31Z</time>
      </trkpt>
      <trkpt lat="46.177902230992913" lon="10.408303113654256">
        <ele>1970.3599999999999</ele>
        <time>2018-07-14T07:59:41Z</time>
      </trkpt>
      <trkpt lat="46.17789619602263" lon="10.408274615183473">
        <ele>1969.4000000000001</ele>
        <time>2018-07-14T07:59:49Z</time>
      </trkpt>
      <trkpt lat="46.177906086668372" lon="10.408197836950421">
        <ele>1967.48</ele>
        <time>2018-07-14T07:59:59Z</time>
      </trkpt>
      <trkpt lat="46.177911534905434" lon="10.408172439783812">
        <ele>1966.99</ele>
        <time>2018-07-14T08:00:01Z</time>
      </trkpt>
      <trkpt lat="46.177922515198588" lon="10.408100020140409">
        <ele>1965.55</ele>
        <time>2018-07-14T08:00:11Z</time>
      </trkpt>
      <trkpt lat="46.177889658138156" lon="10.408055763691664">
        <ele>1963.6300000000001</ele>
        <time>2018-07-14T08:00:21Z</time>
      </trkpt>
      <trkpt lat="46.177868451923132" lon="10.40801553055644">
        <ele>1961.71</ele>
        <time>2018-07-14T08:00:32Z</time>
      </trkpt>
      <trkpt lat="46.177846742793918" lon="10.407981919124722">
        <ele>1960.27</ele>
        <time>2018-07-14T08:00:43Z</time>
      </trkpt>
      <trkpt lat="46.177832828834653" lon="10.407940428704023">
        <ele>1958.3399999999999</ele>
        <time>2018-07-14T08:00:52Z</time>
      </trkpt>
      <trkpt lat="46.17780139669776" lon="10.407921234145761">
        <ele>1956.9000000000001</ele>
        <time>2018-07-14T08:01:01Z</time>
      </trkpt>
      <trkpt lat="46.17777549661696" lon="10.407871948555112">
        <ele>1954.5</ele>
        <time>2018-07-14T08:01:11Z</time>
      </trkpt>
      <trkpt lat="46.177748423069715" lon="10.407817466184497">
        <ele>1952.5699999999999</ele>
        <time>2018-07-14T08:01:21Z</time>
      </trkpt>
      <trkpt lat="46.177754458039999" lon="10.407764911651611">
        <ele>1951.1300000000001</ele>
        <time>2018-07-14T08:01:30Z</time>
      </trkpt>
      <trkpt lat="46.177734425291419" lon="10.407707830891013">
        <ele>1948.25</ele>
        <time>2018-07-14T08:01:41Z</time>
      </trkpt>
      <trkpt lat="46.177709531039" lon="10.407681511715055">
        <ele>1946.8099999999999</ele>
        <time>2018-07-14T08:01:51Z</time>
      </trkpt>
      <trkpt lat="46.177686396986246" lon="10.407657539471984">
        <ele>1945.3599999999999</ele>
        <time>2018-07-14T08:01:59Z</time>
      </trkpt>
      <trkpt lat="46.177672734484076" lon="10.407601213082671">
        <ele>1943.9200000000001</ele>
        <time>2018-07-14T08:02:09Z</time>
      </trkpt>
      <trkpt lat="46.177643649280071" lon="10.407593585550785">
        <ele>1942.48</ele>
        <time>2018-07-14T08:02:21Z</time>
      </trkpt>
      <trkpt lat="46.177656054496765" lon="10.407573468983173">
        <ele>1942.48</ele>
        <time>2018-07-14T08:02:44Z</time>
      </trkpt>
      <trkpt lat="46.177655383944511" lon="10.407537342980504">
        <ele>1941.52</ele>
        <time>2018-07-14T08:02:57Z</time>
      </trkpt>
      <trkpt lat="46.177655383944511" lon="10.407534912228584">
        <ele>1941.52</ele>
        <time>2018-07-14T08:03:08Z</time>
      </trkpt>
      <trkpt lat="46.177699137479067" lon="10.407435921952128">
        <ele>1940.5599999999999</ele>
        <time>2018-07-14T08:03:19Z</time>
      </trkpt>
      <trkpt lat="46.177713805809617" lon="10.407387977465987">
        <ele>1940.0799999999999</ele>
        <time>2018-07-14T08:03:28Z</time>
      </trkpt>
      <trkpt lat="46.17770416662097" lon="10.407363334670663">
        <ele>1939.5999999999999</ele>
        <time>2018-07-14T08:03:37Z</time>
      </trkpt>
      <trkpt lat="46.177694359794259" lon="10.407318910583854">
        <ele>1939.1199999999999</ele>
        <time>2018-07-14T08:03:46Z</time>
      </trkpt>
      <trkpt lat="46.177681284025311" lon="10.40728404186666">
        <ele>1937.1900000000001</ele>
        <time>2018-07-14T08:03:55Z</time>
      </trkpt>
      <trkpt lat="46.177687654271722" lon="10.407279264181852">
        <ele>1936.71</ele>
        <time>2018-07-14T08:04:06Z</time>
      </trkpt>
      <trkpt lat="46.177713638171554" lon="10.40730700828135">
        <ele>1936.71</ele>
        <time>2018-07-14T08:04:13Z</time>
      </trkpt>
      <trkpt lat="46.177705675363541" lon="10.407299045473337">
        <ele>1936.71</ele>
        <time>2018-07-14T08:04:30Z</time>
      </trkpt>
      <trkpt lat="46.177701149135828" lon="10.407316228374839">
        <ele>1936.71</ele>
        <time>2018-07-14T08:04:45Z</time>
      </trkpt>
      <trkpt lat="46.177711375057697" lon="10.407309271395206">
        <ele>1936.71</ele>
        <time>2018-07-14T08:05:00Z</time>
      </trkpt>
      <trkpt lat="46.177686480805278" lon="10.407326789572835">
        <ele>1936.23</ele>
        <time>2018-07-14T08:05:08Z</time>
      </trkpt>
      <trkpt lat="46.177693102508783" lon="10.407303906977177">
        <ele>1936.23</ele>
        <time>2018-07-14T08:05:25Z</time>
      </trkpt>
      <trkpt lat="46.177629735320807" lon="10.407339949160814">
        <ele>1936.23</ele>
        <time>2018-07-14T08:05:45Z</time>
      </trkpt>
      <trkpt lat="46.177639458328485" lon="10.407309103757143">
        <ele>1936.23</ele>
        <time>2018-07-14T08:05:59Z</time>
      </trkpt>
      <trkpt lat="46.177623448893428" lon="10.407315222546458">
        <ele>1936.23</ele>
        <time>2018-07-14T08:06:18Z</time>
      </trkpt>
      <trkpt lat="46.177688660100102" lon="10.407306337729096">
        <ele>1936.23</ele>
        <time>2018-07-14T08:06:42Z</time>
      </trkpt>
      <trkpt lat="46.177681367844343" lon="10.407320754602551">
        <ele>1936.23</ele>
        <time>2018-07-14T08:07:02Z</time>
      </trkpt>
      <trkpt lat="46.177690085023642" lon="10.407306840643287">
        <ele>1936.23</ele>
        <time>2018-07-14T08:07:23Z</time>
      </trkpt>
      <trkpt lat="46.177701065316796" lon="10.407290747389197">
        <ele>1935.75</ele>
        <time>2018-07-14T08:07:47Z</time>
      </trkpt>
      <trkpt lat="46.177708189934492" lon="10.407288735732436">
        <ele>1935.75</ele>
        <time>2018-07-14T08:08:12Z</time>
      </trkpt>
      <trkpt lat="46.177691929042339" lon="10.407282197847962">
        <ele>1935.75</ele>
        <time>2018-07-14T08:08:43Z</time>
      </trkpt>
      <trkpt lat="46.177684050053358" lon="10.407293010503054">
        <ele>1935.75</ele>
        <time>2018-07-14T08:09:13Z</time>
      </trkpt>
      <trkpt lat="46.177659155800939" lon="10.407312288880348">
        <ele>1935.75</ele>
        <time>2018-07-14T08:09:38Z</time>
      </trkpt>
      <trkpt lat="46.177645325660706" lon="10.40729041211307">
        <ele>1935.75</ele>
        <time>2018-07-14T08:09:46Z</time>
      </trkpt>
      <trkpt lat="46.177665861323476" lon="10.407265014946461">
        <ele>1935.75</ele>
        <time>2018-07-14T08:10:10Z</time>
      </trkpt>
      <trkpt lat="46.177657898515463" lon="10.407268200069666">
        <ele>1920.8499999999999</ele>
        <time>2018-07-14T08:10:20Z</time>
      </trkpt>
      <trkpt lat="46.177658904343843" lon="10.407265350222588">
        <ele>1928.0599999999999</ele>
        <time>2018-07-14T08:10:21Z</time>
      </trkpt>
      <trkpt lat="46.177656557410955" lon="10.407265098765492">
        <ele>1934.3099999999999</ele>
        <time>2018-07-14T08:10:22Z</time>
      </trkpt>
      <trkpt lat="46.177654210478067" lon="10.407267361879349">
        <ele>1939.5999999999999</ele>
        <time>2018-07-14T08:10:23Z</time>
      </trkpt>
      <trkpt lat="46.177654210478067" lon="10.407273732125759">
        <ele>1945.3599999999999</ele>
        <time>2018-07-14T08:10:25Z</time>
      </trkpt>
      <trkpt lat="46.177650270983577" lon="10.407274989411235">
        <ele>1937.6700000000001</ele>
        <time>2018-07-14T08:10:26Z</time>
      </trkpt>
      <trkpt lat="46.177647924050689" lon="10.407273396849632">
        <ele>1935.75</ele>
        <time>2018-07-14T08:10:28Z</time>
      </trkpt>
      <trkpt lat="46.177663682028651" lon="10.407264931127429">
        <ele>1935.75</ele>
        <time>2018-07-14T08:10:56Z</time>
      </trkpt>
      <trkpt lat="46.177659491077065" lon="10.407292507588863">
        <ele>1935.75</ele>
        <time>2018-07-14T08:11:20Z</time>
      </trkpt>
      <trkpt lat="46.177716571837664" lon="10.407283287495375">
        <ele>1935.75</ele>
        <time>2018-07-14T08:11:46Z</time>
      </trkpt>
      <trkpt lat="46.177686732262373" lon="10.407293681055307">
        <ele>1935.27</ele>
        <time>2018-07-14T08:12:14Z</time>
      </trkpt>
      <trkpt lat="46.177691342309117" lon="10.407311953604221">
        <ele>1935.27</ele>
        <time>2018-07-14T08:12:41Z</time>
      </trkpt>
      <trkpt lat="46.177715985104442" lon="10.407310947775841">
        <ele>1935.27</ele>
        <time>2018-07-14T08:13:09Z</time>
      </trkpt>
      <trkpt lat="46.177681870758533" lon="10.407279599457979">
        <ele>1934.79</ele>
        <time>2018-07-14T08:13:32Z</time>
      </trkpt>
      <trkpt lat="46.177714643999934" lon="10.407298039644957">
        <ele>1934.79</ele>
        <time>2018-07-14T08:14:02Z</time>
      </trkpt>
      <trkpt lat="46.177717326208949" lon="10.407279180362821">
        <ele>1929.5</ele>
        <time>2018-07-14T08:14:23Z</time>
      </trkpt>
      <trkpt lat="46.177717242389917" lon="10.407284209504724">
        <ele>1939.1199999999999</ele>
        <time>2018-07-14T08:14:24Z</time>
      </trkpt>
      <trkpt lat="46.177713889628649" lon="10.407303152605891">
        <ele>1934.3099999999999</ele>
        <time>2018-07-14T08:14:51Z</time>
      </trkpt>
      <trkpt lat="46.177681870758533" lon="10.407305834814906">
        <ele>1934.3099999999999</ele>
        <time>2018-07-14T08:15:17Z</time>
      </trkpt>
      <trkpt lat="46.177681619301438" lon="10.407299716025591">
        <ele>1934.3099999999999</ele>
        <time>2018-07-14T08:15:46Z</time>
      </trkpt>
      <trkpt lat="46.177673153579235" lon="10.407300805673003">
        <ele>1935.75</ele>
        <time>2018-07-14T08:15:53Z</time>
      </trkpt>
      <trkpt lat="46.177680948749185" lon="10.407299967482686">
        <ele>1934.3099999999999</ele>
        <time>2018-07-14T08:15:55Z</time>
      </trkpt>
      <trkpt lat="46.17765580303967" lon="10.407279850915074">
        <ele>1934.3099999999999</ele>
        <time>2018-07-14T08:16:26Z</time>
      </trkpt>
      <trkpt lat="46.177664939314127" lon="10.407295860350132">
        <ele>1933.8299999999999</ele>
        <time>2018-07-14T08:16:53Z</time>
      </trkpt>
      <trkpt lat="46.17766217328608" lon="10.407294435426593">
        <ele>1934.3099999999999</ele>
        <time>2018-07-14T08:17:19Z</time>
      </trkpt>
      <trkpt lat="46.177683463320136" lon="10.407275408506393">
        <ele>1933.8299999999999</ele>
        <time>2018-07-14T08:17:46Z</time>
      </trkpt>
      <trkpt lat="46.177665526047349" lon="10.407302817329764">
        <ele>1933.8299999999999</ele>
        <time>2018-07-14T08:18:11Z</time>
      </trkpt>
      <trkpt lat="46.17767097428441" lon="10.407305080443621">
        <ele>1933.3499999999999</ele>
        <time>2018-07-14T08:18:43Z</time>
      </trkpt>
      <trkpt lat="46.177654461935163" lon="10.407288987189531">
        <ele>1933.3499999999999</ele>
        <time>2018-07-14T08:19:14Z</time>
      </trkpt>
      <trkpt lat="46.177682122215629" lon="10.407287059351802">
        <ele>1933.3499999999999</ele>
        <time>2018-07-14T08:19:45Z</time>
      </trkpt>
      <trkpt lat="46.177709866315126" lon="10.407266188412905">
        <ele>1932.8699999999999</ele>
        <time>2018-07-14T08:20:13Z</time>
      </trkpt>
      <trkpt lat="46.177740124985576" lon="10.407264260575175">
        <ele>1932.8699999999999</ele>
        <time>2018-07-14T08:20:40Z</time>
      </trkpt>
      <trkpt lat="46.177768036723137" lon="10.407251939177513">
        <ele>1933.3499999999999</ele>
        <time>2018-07-14T08:21:03Z</time>
      </trkpt>
      <trkpt lat="46.177705675363541" lon="10.407278928905725">
        <ele>1932.8699999999999</ele>
        <time>2018-07-14T08:21:34Z</time>
      </trkpt>
      <trkpt lat="46.177727887406945" lon="10.407293094322085">
        <ele>1932.8699999999999</ele>
        <time>2018-07-14T08:22:03Z</time>
      </trkpt>
      <trkpt lat="46.177730485796928" lon="10.407273648306727">
        <ele>1933.3499999999999</ele>
        <time>2018-07-14T08:22:32Z</time>
      </trkpt>
      <trkpt lat="46.177725037559867" lon="10.407289322465658">
        <ele>1932.8699999999999</ele>
        <time>2018-07-14T08:22:54Z</time>
      </trkpt>
      <trkpt lat="46.177716571837664" lon="10.407302062958479">
        <ele>1932.8699999999999</ele>
        <time>2018-07-14T08:23:25Z</time>
      </trkpt>
      <trkpt lat="46.1776870675385" lon="10.407320503145456">
        <ele>1933.3499999999999</ele>
        <time>2018-07-14T08:23:59Z</time>
      </trkpt>
      <trkpt lat="46.177708441391587" lon="10.407299967482686">
        <ele>1932.8699999999999</ele>
        <time>2018-07-14T08:24:21Z</time>
      </trkpt>
      <trkpt lat="46.177703831344843" lon="10.407284209504724">
        <ele>1932.8699999999999</ele>
        <time>2018-07-14T08:24:51Z</time>
      </trkpt>
      <trkpt lat="46.177709614858031" lon="10.407294686883688">
        <ele>1932.8699999999999</ele>
        <time>2018-07-14T08:25:12Z</time>
      </trkpt>
      <trkpt lat="46.177709782496095" lon="10.407322514802217">
        <ele>1932.8699999999999</ele>
        <time>2018-07-14T08:25:40Z</time>
      </trkpt>
      <trkpt lat="46.17766410112381" lon="10.407318407669663">
        <ele>1932.8699999999999</ele>
        <time>2018-07-14T08:26:13Z</time>
      </trkpt>
      <trkpt lat="46.177685726433992" lon="10.407301727682352">
        <ele>1932.3900000000001</ele>
        <time>2018-07-14T08:26:36Z</time>
      </trkpt>
      <trkpt lat="46.177697544917464" lon="10.407288065180182">
        <ele>1932.8699999999999</ele>
        <time>2018-07-14T08:26:55Z</time>
      </trkpt>
      <trkpt lat="46.177697377279401" lon="10.407270714640617">
        <ele>1932.8699999999999</ele>
        <time>2018-07-14T08:27:21Z</time>
      </trkpt>
      <trkpt lat="46.177697712555528" lon="10.407294854521751">
        <ele>1932.8699999999999</ele>
        <time>2018-07-14T08:27:25Z</time>
      </trkpt>
      <trkpt lat="46.177684804424644" lon="10.407298039644957">
        <ele>1933.3499999999999</ele>
        <time>2018-07-14T08:27:33Z</time>
      </trkpt>
      <trkpt lat="46.177696790546179" lon="10.407313546165824">
        <ele>1933.3499999999999</ele>
        <time>2018-07-14T08:27:45Z</time>
      </trkpt>
      <trkpt lat="46.17770810611546" lon="10.407320754602551">
        <ele>1933.3499999999999</ele>
        <time>2018-07-14T08:27:56Z</time>
      </trkpt>
      <trkpt lat="46.177721852436662" lon="10.40732896886766">
        <ele>1933.3499999999999</ele>
        <time>2018-07-14T08:28:08Z</time>
      </trkpt>
      <trkpt lat="46.177721517160535" lon="10.407355036586523">
        <ele>1933.3499999999999</ele>
        <time>2018-07-14T08:28:23Z</time>
      </trkpt>
      <trkpt lat="46.177695533260703" lon="10.407386217266321">
        <ele>1933.3499999999999</ele>
        <time>2018-07-14T08:28:36Z</time>
      </trkpt>
      <trkpt lat="46.17766653187573" lon="10.407347409054637">
        <ele>1932.8699999999999</ele>
        <time>2018-07-14T08:28:40Z</time>
      </trkpt>
      <trkpt lat="46.177648343145847" lon="10.407278845086694">
        <ele>1932.3900000000001</ele>
        <time>2018-07-14T08:28:42Z</time>
      </trkpt>
      <trkpt lat="46.177651695907116" lon="10.407145321369171">
        <ele>1931.4300000000001</ele>
        <time>2018-07-14T08:28:53Z</time>
      </trkpt>
      <trkpt lat="46.177641218528152" lon="10.407117661088705">
        <ele>1929.98</ele>
        <time>2018-07-14T08:28:59Z</time>
      </trkpt>
      <trkpt lat="46.1776421405375" lon="10.407018084079027">
        <ele>1927.5799999999999</ele>
        <time>2018-07-14T08:29:10Z</time>
      </trkpt>
      <trkpt lat="46.177648510783911" lon="10.40696645155549">
        <ele>1926.6199999999999</ele>
        <time>2018-07-14T08:29:16Z</time>
      </trkpt>
      <trkpt lat="46.177659658715129" lon="10.406867628917098">
        <ele>1924.22</ele>
        <time>2018-07-14T08:29:28Z</time>
      </trkpt>
      <trkpt lat="46.17765873670578" lon="10.406761430203915">
        <ele>1921.8099999999999</ele>
        <time>2018-07-14T08:29:38Z</time>
      </trkpt>
      <trkpt lat="46.177669214084744" lon="10.406642910093069">
        <ele>1919.8900000000001</ele>
        <time>2018-07-14T08:29:49Z</time>
      </trkpt>
      <trkpt lat="46.177657227963209" lon="10.406524473801255">
        <ele>1917.01</ele>
        <time>2018-07-14T08:30:00Z</time>
      </trkpt>
      <trkpt lat="46.177653623744845" lon="10.406396230682731">
        <ele>1914.5999999999999</ele>
        <time>2018-07-14T08:30:11Z</time>
      </trkpt>
      <trkpt lat="46.177632082253695" lon="10.406257174909115">
        <ele>1911.24</ele>
        <time>2018-07-14T08:30:23Z</time>
      </trkpt>
      <trkpt lat="46.177626382559538" lon="10.406194059178233">
        <ele>1910.28</ele>
        <time>2018-07-14T08:30:28Z</time>
      </trkpt>
      <trkpt lat="46.177581623196602" lon="10.40608593262732">
        <ele>1907.3900000000001</ele>
        <time>2018-07-14T08:30:40Z</time>
      </trkpt>
      <trkpt lat="46.177570978179574" lon="10.406018123030663">
        <ele>1905.95</ele>
        <time>2018-07-14T08:30:50Z</time>
      </trkpt>
      <trkpt lat="46.177561422809958" lon="10.406048465520144">
        <ele>1904.51</ele>
        <time>2018-07-14T08:30:55Z</time>
      </trkpt>
      <trkpt lat="46.177519513294101" lon="10.40615726262331">
        <ele>1902.5899999999999</ele>
        <time>2018-07-14T08:31:06Z</time>
      </trkpt>
      <trkpt lat="46.177470898255706" lon="10.406078221276402">
        <ele>1900.6600000000001</ele>
        <time>2018-07-14T08:31:16Z</time>
      </trkpt>
      <trkpt lat="46.17742664180696" lon="10.406026085838675">
        <ele>1898.74</ele>
        <time>2018-07-14T08:31:25Z</time>
      </trkpt>
      <trkpt lat="46.177408620715141" lon="10.405964143574238">
        <ele>1897.3</ele>
        <time>2018-07-14T08:31:33Z</time>
      </trkpt>
      <trkpt lat="46.177377523854375" lon="10.405833721160889">
        <ele>1894.9000000000001</ele>
        <time>2018-07-14T08:31:46Z</time>
      </trkpt>
      <trkpt lat="46.177360089495778" lon="10.405701287090778">
        <ele>1892.01</ele>
        <time>2018-07-14T08:31:58Z</time>
      </trkpt>
      <trkpt lat="46.177343912422657" lon="10.405677147209644">
        <ele>1890.0899999999999</ele>
        <time>2018-07-14T08:32:09Z</time>
      </trkpt>
      <trkpt lat="46.177307451143861" lon="10.405706148594618">
        <ele>1888.1700000000001</ele>
        <time>2018-07-14T08:32:19Z</time>
      </trkpt>
      <trkpt lat="46.177318012341857" lon="10.405586371198297">
        <ele>1886.24</ele>
        <time>2018-07-14T08:32:31Z</time>
      </trkpt>
      <trkpt lat="46.177285071462393" lon="10.40561000816524">
        <ele>1884.8</ele>
        <time>2018-07-14T08:32:41Z</time>
      </trkpt>
      <trkpt lat="46.177252382040024" lon="10.40556357242167">
        <ele>1882.4000000000001</ele>
        <time>2018-07-14T08:32:50Z</time>
      </trkpt>
      <trkpt lat="46.177225476130843" lon="10.405477322638035">
        <ele>1880</ele>
        <time>2018-07-14T08:33:00Z</time>
      </trkpt>
      <trkpt lat="46.177211729809642" lon="10.405411859974265">
        <ele>1877.5899999999999</ele>
        <time>2018-07-14T08:33:09Z</time>
      </trkpt>
      <trkpt lat="46.177158672362566" lon="10.405330471694469">
        <ele>1876.1500000000001</ele>
        <time>2018-07-14T08:33:21Z</time>
      </trkpt>
      <trkpt lat="46.177124138921499" lon="10.405273139476776">
        <ele>1874.23</ele>
        <time>2018-07-14T08:33:31Z</time>
      </trkpt>
      <trkpt lat="46.177144758403301" lon="10.405183453112841">
        <ele>1872.79</ele>
        <time>2018-07-14T08:33:40Z</time>
      </trkpt>
      <trkpt lat="46.177114583551884" lon="10.405130730941892">
        <ele>1870.8599999999999</ele>
        <time>2018-07-14T08:33:50Z</time>
      </trkpt>
      <trkpt lat="46.177069824188948" lon="10.405023694038391">
        <ele>1868.9400000000001</ele>
        <time>2018-07-14T08:34:01Z</time>
      </trkpt>
      <trkpt lat="46.177031435072422" lon="10.404996117576957">
        <ele>1868.46</ele>
        <time>2018-07-14T08:34:06Z</time>
      </trkpt>
      <trkpt lat="46.176947448402643" lon="10.404910957440734">
        <ele>1867.02</ele>
        <time>2018-07-14T08:34:18Z</time>
      </trkpt>
      <trkpt lat="46.176886009052396" lon="10.404891511425376">
        <ele>1865.0899999999999</ele>
        <time>2018-07-14T08:34:28Z</time>
      </trkpt>
      <trkpt lat="46.176825491711497" lon="10.404854379594326">
        <ele>1862.6900000000001</ele>
        <time>2018-07-14T08:34:38Z</time>
      </trkpt>
      <trkpt lat="46.176774194464087" lon="10.404781876131892">
        <ele>1860.77</ele>
        <time>2018-07-14T08:34:48Z</time>
      </trkpt>
      <trkpt lat="46.176799004897475" lon="10.404780032113194">
        <ele>1860.77</ele>
        <time>2018-07-14T08:34:59Z</time>
      </trkpt>
      <trkpt lat="46.176784420385957" lon="10.404818588867784">
        <ele>1860.29</ele>
        <time>2018-07-14T08:35:15Z</time>
      </trkpt>
      <trkpt lat="46.176744271069765" lon="10.404702248051763">
        <ele>1858.8499999999999</ele>
        <time>2018-07-14T08:35:23Z</time>
      </trkpt>
      <trkpt lat="46.176703367382288" lon="10.404581297188997">
        <ele>1856.4400000000001</ele>
        <time>2018-07-14T08:35:35Z</time>
      </trkpt>
      <trkpt lat="46.176679562777281" lon="10.404592277482152">
        <ele>1854.04</ele>
        <time>2018-07-14T08:35:47Z</time>
      </trkpt>
      <trkpt lat="46.176614016294479" lon="10.404586577787995">
        <ele>1851.6400000000001</ele>
        <time>2018-07-14T08:35:57Z</time>
      </trkpt>
      <trkpt lat="46.176558611914515" lon="10.404518265277147">
        <ele>1848.75</ele>
        <time>2018-07-14T08:36:07Z</time>
      </trkpt>
      <trkpt lat="46.176530532538891" lon="10.404410306364298">
        <ele>1845.8699999999999</ele>
        <time>2018-07-14T08:36:17Z</time>
      </trkpt>
      <trkpt lat="46.176480241119862" lon="10.404288684949279">
        <ele>1842.98</ele>
        <time>2018-07-14T08:36:31Z</time>
      </trkpt>
      <trkpt lat="46.176429111510515" lon="10.404186425730586">
        <ele>1839.6199999999999</ele>
        <time>2018-07-14T08:36:43Z</time>
      </trkpt>
      <trkpt lat="46.176389046013355" lon="10.404077544808388">
        <ele>1836.26</ele>
        <time>2018-07-14T08:36:56Z</time>
      </trkpt>
      <trkpt lat="46.176356859505177" lon="10.404176115989685">
        <ele>1833.8499999999999</ele>
        <time>2018-07-14T08:37:08Z</time>
      </trkpt>
      <trkpt lat="46.176303718239069" lon="10.404138062149286">
        <ele>1831.9300000000001</ele>
        <time>2018-07-14T08:37:18Z</time>
      </trkpt>
      <trkpt lat="46.176279745995998" lon="10.40408986620605">
        <ele>1830.97</ele>
        <time>2018-07-14T08:37:28Z</time>
      </trkpt>
      <trkpt lat="46.17626465857029" lon="10.404121046885848">
        <ele>1829.53</ele>
        <time>2018-07-14T08:37:36Z</time>
      </trkpt>
      <trkpt lat="46.176239848136902" lon="10.404148288071156">
        <ele>1828.0799999999999</ele>
        <time>2018-07-14T08:37:45Z</time>
      </trkpt>
      <trkpt lat="46.176206152886152" lon="10.404084753245115">
        <ele>1826.1600000000001</ele>
        <time>2018-07-14T08:37:56Z</time>
      </trkpt>
      <trkpt lat="46.176183773204684" lon="10.404033707454801">
        <ele>1823.76</ele>
        <time>2018-07-14T08:38:07Z</time>
      </trkpt>
      <trkpt lat="46.17618209682405" lon="10.404025493189692">
        <ele>1823.28</ele>
        <time>2018-07-14T08:38:08Z</time>
      </trkpt>
      <trkpt lat="46.176164913922548" lon="10.403953660279512">
        <ele>1820.3900000000001</ele>
        <time>2018-07-14T08:38:19Z</time>
      </trkpt>
      <trkpt lat="46.176147731021047" lon="10.403877384960651">
        <ele>1817.51</ele>
        <time>2018-07-14T08:38:30Z</time>
      </trkpt>
      <trkpt lat="46.176150161772966" lon="10.403825752437115">
        <ele>1815.1099999999999</ele>
        <time>2018-07-14T08:38:41Z</time>
      </trkpt>
      <trkpt lat="46.17613566108048" lon="10.403786608949304">
        <ele>1814.6300000000001</ele>
        <time>2018-07-14T08:38:57Z</time>
      </trkpt>
      <trkpt lat="46.176105737686157" lon="10.403699185699224">
        <ele>1811.26</ele>
        <time>2018-07-14T08:39:10Z</time>
      </trkpt>
      <trkpt lat="46.176106492057443" lon="10.403574882075191">
        <ele>1808.3800000000001</ele>
        <time>2018-07-14T08:39:22Z</time>
      </trkpt>
      <trkpt lat="46.176116382703185" lon="10.40345904417336">
        <ele>1805.97</ele>
        <time>2018-07-14T08:39:34Z</time>
      </trkpt>
      <trkpt lat="46.176103306934237" lon="10.40337304584682">
        <ele>1802.6099999999999</ele>
        <time>2018-07-14T08:39:46Z</time>
      </trkpt>
      <trkpt lat="46.176088890060782" lon="10.403253436088562">
        <ele>1800.21</ele>
        <time>2018-07-14T08:39:57Z</time>
      </trkpt>
      <trkpt lat="46.176098026335239" lon="10.403179256245494">
        <ele>1798.76</ele>
        <time>2018-07-14T08:40:03Z</time>
      </trkpt>
      <trkpt lat="46.176078831776977" lon="10.403105411678553">
        <ele>1796.8399999999999</ele>
        <time>2018-07-14T08:40:14Z</time>
      </trkpt>
      <trkpt lat="46.176059553399682" lon="10.403052354231477">
        <ele>1795.4000000000001</ele>
        <time>2018-07-14T08:40:21Z</time>
      </trkpt>
      <trkpt lat="46.176075479015708" lon="10.402991333976388">
        <ele>1794.4400000000001</ele>
        <time>2018-07-14T08:40:32Z</time>
      </trkpt>
      <trkpt lat="46.176076820120215" lon="10.402939198538661">
        <ele>1793.48</ele>
        <time>2018-07-14T08:40:43Z</time>
      </trkpt>
      <trkpt lat="46.17610783316195" lon="10.402786480262876">
        <ele>1793</ele>
        <time>2018-07-14T08:40:54Z</time>
      </trkpt>
      <trkpt lat="46.176102720201015" lon="10.402699057012796">
        <ele>1792.52</ele>
        <time>2018-07-14T08:41:03Z</time>
      </trkpt>
      <trkpt lat="46.176089979708195" lon="10.402668127790093">
        <ele>1792.52</ele>
        <time>2018-07-14T08:41:06Z</time>
      </trkpt>
      <trkpt lat="46.176068019121885" lon="10.402563605457544">
        <ele>1792.52</ele>
        <time>2018-07-14T08:41:17Z</time>
      </trkpt>
      <trkpt lat="46.176027031615376" lon="10.402452712878585">
        <ele>1792.52</ele>
        <time>2018-07-14T08:41:27Z</time>
      </trkpt>
      <trkpt lat="46.175982858985662" lon="10.402394207194448">
        <ele>1792.03</ele>
        <time>2018-07-14T08:41:36Z</time>
      </trkpt>
      <trkpt lat="46.175951091572642" lon="10.40232396684587">
        <ele>1793</ele>
        <time>2018-07-14T08:41:47Z</time>
      </trkpt>
      <trkpt lat="46.175924940034747" lon="10.40222279727459">
        <ele>1793.96</ele>
        <time>2018-07-14T08:41:59Z</time>
      </trkpt>
      <trkpt lat="46.175925526767969" lon="10.402178708463907">
        <ele>1797.3199999999999</ele>
        <time>2018-07-14T08:42:08Z</time>
      </trkpt>
      <trkpt lat="46.175921838730574" lon="10.402175355702639">
        <ele>1796.3599999999999</ele>
        <time>2018-07-14T08:42:09Z</time>
      </trkpt>
      <trkpt lat="46.175908176228404" lon="10.402063289657235">
        <ele>1796.3599999999999</ele>
        <time>2018-07-14T08:42:19Z</time>
      </trkpt>
      <trkpt lat="46.175891663879156" lon="10.40199070237577">
        <ele>1797.3199999999999</ele>
        <time>2018-07-14T08:42:28Z</time>
      </trkpt>
      <trkpt lat="46.175826787948608" lon="10.401861034333706">
        <ele>1795.8800000000001</ele>
        <time>2018-07-14T08:42:40Z</time>
      </trkpt>
      <trkpt lat="46.175808850675821" lon="10.401812419295311">
        <ele>1796.8399999999999</ele>
        <time>2018-07-14T08:42:48Z</time>
      </trkpt>
      <trkpt lat="46.17576140910387" lon="10.401688450947404">
        <ele>1796.8399999999999</ele>
        <time>2018-07-14T08:42:59Z</time>
      </trkpt>
      <trkpt lat="46.175725115463138" lon="10.401607230305672">
        <ele>1797.3199999999999</ele>
        <time>2018-07-14T08:43:09Z</time>
      </trkpt>
      <trkpt lat="46.175702651962638" lon="10.401504468172789">
        <ele>1797.8</ele>
        <time>2018-07-14T08:43:20Z</time>
      </trkpt>
      <trkpt lat="46.17566610686481" lon="10.401419643312693">
        <ele>1798.76</ele>
        <time>2018-07-14T08:43:31Z</time>
      </trkpt>
      <trkpt lat="46.175651187077165" lon="10.401358120143414">
        <ele>1798.28</ele>
        <time>2018-07-14T08:43:40Z</time>
      </trkpt>
      <trkpt lat="46.175649091601372" lon="10.401321155950427">
        <ele>1797.8</ele>
        <time>2018-07-14T08:43:51Z</time>
      </trkpt>
      <trkpt lat="46.175597878172994" lon="10.401244796812534">
        <ele>1795.8800000000001</ele>
        <time>2018-07-14T08:44:02Z</time>
      </trkpt>
      <trkpt lat="46.17560357786715" lon="10.401174305006862">
        <ele>1794.9200000000001</ele>
        <time>2018-07-14T08:44:16Z</time>
      </trkpt>
      <trkpt lat="46.175598464906216" lon="10.401118481531739">
        <ele>1792.52</ele>
        <time>2018-07-14T08:44:29Z</time>
      </trkpt>
      <trkpt lat="46.175591256469488" lon="10.401064166799188">
        <ele>1790.5899999999999</ele>
        <time>2018-07-14T08:44:39Z</time>
      </trkpt>
      <trkpt lat="46.175619922578335" lon="10.40099635720253">
        <ele>1790.5899999999999</ele>
        <time>2018-07-14T08:44:50Z</time>
      </trkpt>
      <trkpt lat="46.175626460462809" lon="10.400966266170144">
        <ele>1791.55</ele>
        <time>2018-07-14T08:44:59Z</time>
      </trkpt>
      <trkpt lat="46.175624029710889" lon="10.40093676187098">
        <ele>1792.03</ele>
        <time>2018-07-14T08:45:11Z</time>
      </trkpt>
      <trkpt lat="46.175589328631759" lon="10.400907509028912">
        <ele>1792.52</ele>
        <time>2018-07-14T08:45:18Z</time>
      </trkpt>
      <trkpt lat="46.175536690279841" lon="10.400881944224238">
        <ele>1792.52</ele>
        <time>2018-07-14T08:45:27Z</time>
      </trkpt>
      <trkpt lat="46.175530152395368" lon="10.40087079629302">
        <ele>1792.03</ele>
        <time>2018-07-14T08:45:28Z</time>
      </trkpt>
      <trkpt lat="46.175503833219409" lon="10.400720927864313">
        <ele>1791.0699999999999</ele>
        <time>2018-07-14T08:45:39Z</time>
      </trkpt>
      <trkpt lat="46.175492769107223" lon="10.400676168501377">
        <ele>1791.0699999999999</ele>
        <time>2018-07-14T08:45:42Z</time>
      </trkpt>
      <trkpt lat="46.175470808520913" lon="10.400573154911399">
        <ele>1790.5899999999999</ele>
        <time>2018-07-14T08:45:50Z</time>
      </trkpt>
      <trkpt lat="46.175454799085855" lon="10.400521690025926">
        <ele>1789.6300000000001</ele>
        <time>2018-07-14T08:45:55Z</time>
      </trkpt>
      <trkpt lat="46.175432670861483" lon="10.400437200441957">
        <ele>1788.6700000000001</ele>
        <time>2018-07-14T08:46:01Z</time>
      </trkpt>
      <trkpt lat="46.175388162955642" lon="10.400313902646303">
        <ele>1787.23</ele>
        <time>2018-07-14T08:46:11Z</time>
      </trkpt>
      <trkpt lat="46.175352036952972" lon="10.400159675627947">
        <ele>1786.27</ele>
        <time>2018-07-14T08:46:22Z</time>
      </trkpt>
      <trkpt lat="46.175312055274844" lon="10.400048950687051">
        <ele>1786.27</ele>
        <time>2018-07-14T08:46:33Z</time>
      </trkpt>
      <trkpt lat="46.175321862101555" lon="10.399977788329124">
        <ele>1784.3399999999999</ele>
        <time>2018-07-14T08:46:42Z</time>
      </trkpt>
      <trkpt lat="46.175358239561319" lon="10.399863040074706">
        <ele>1781.9400000000001</ele>
        <time>2018-07-14T08:46:53Z</time>
      </trkpt>
      <trkpt lat="46.175375673919916" lon="10.399819537997246">
        <ele>1780.02</ele>
        <time>2018-07-14T08:47:04Z</time>
      </trkpt>
      <trkpt lat="46.17537098005414" lon="10.399763630703092">
        <ele>1779.54</ele>
        <time>2018-07-14T08:47:15Z</time>
      </trkpt>
      <trkpt lat="46.175361089408398" lon="10.399707974866033">
        <ele>1779.0599999999999</ele>
        <time>2018-07-14T08:47:23Z</time>
      </trkpt>
      <trkpt lat="46.17536561563611" lon="10.399625916033983">
        <ele>1780.98</ele>
        <time>2018-07-14T08:47:34Z</time>
      </trkpt>
      <trkpt lat="46.175393862649798" lon="10.399577049538493">
        <ele>1782.4200000000001</ele>
        <time>2018-07-14T08:47:43Z</time>
      </trkpt>
      <trkpt lat="46.175422864034772" lon="10.399527512490749">
        <ele>1783.3800000000001</ele>
        <time>2018-07-14T08:47:51Z</time>
      </trkpt>
      <trkpt lat="46.175407860428095" lon="10.399501444771886">
        <ele>1784.3399999999999</ele>
        <time>2018-07-14T08:48:01Z</time>
      </trkpt>
      <trkpt lat="46.175386235117912" lon="10.399460541084409">
        <ele>1785.3099999999999</ele>
        <time>2018-07-14T08:48:12Z</time>
      </trkpt>
      <trkpt lat="46.175429150462151" lon="10.399453165009618">
        <ele>1786.27</ele>
        <time>2018-07-14T08:48:23Z</time>
      </trkpt>
      <trkpt lat="46.175443734973669" lon="10.399442184716463">
        <ele>1788.6700000000001</ele>
        <time>2018-07-14T08:48:34Z</time>
      </trkpt>
      <trkpt lat="46.175430156290531" lon="10.399410920217633">
        <ele>1789.1500000000001</ele>
        <time>2018-07-14T08:48:41Z</time>
      </trkpt>
      <trkpt lat="46.175417248159647" lon="10.399384936317801">
        <ele>1790.5899999999999</ele>
        <time>2018-07-14T08:48:51Z</time>
      </trkpt>
      <trkpt lat="46.175473658367991" lon="10.399419888854027">
        <ele>1792.03</ele>
        <time>2018-07-14T08:49:01Z</time>
      </trkpt>
      <trkpt lat="46.175482291728258" lon="10.399418547749519">
        <ele>1793</ele>
        <time>2018-07-14T08:49:10Z</time>
      </trkpt>
      <trkpt lat="46.17540224455297" lon="10.399367501959205">
        <ele>1793.96</ele>
        <time>2018-07-14T08:49:22Z</time>
      </trkpt>
      <trkpt lat="46.175395958125591" lon="10.399304134771228">
        <ele>1795.4000000000001</ele>
        <time>2018-07-14T08:49:32Z</time>
      </trkpt>
      <trkpt lat="46.175391431897879" lon="10.399251161143184">
        <ele>1796.3599999999999</ele>
        <time>2018-07-14T08:49:43Z</time>
      </trkpt>
      <trkpt lat="46.175413727760315" lon="10.39916499517858">
        <ele>1795.8800000000001</ele>
        <time>2018-07-14T08:49:54Z</time>
      </trkpt>
      <trkpt lat="46.175426216796041" lon="10.399058293551207">
        <ele>1795.4000000000001</ele>
        <time>2018-07-14T08:50:04Z</time>
      </trkpt>
      <trkpt lat="46.175422947853804" lon="10.39905066601932">
        <ele>1794.9200000000001</ele>
        <time>2018-07-14T08:50:05Z</time>
      </trkpt>
      <trkpt lat="46.175387995317578" lon="10.398923931643367">
        <ele>1794.4400000000001</ele>
        <time>2018-07-14T08:50:16Z</time>
      </trkpt>
      <trkpt lat="46.175371902063489" lon="10.398837849497795">
        <ele>1794.9200000000001</ele>
        <time>2018-07-14T08:50:26Z</time>
      </trkpt>
      <trkpt lat="46.175336027517915" lon="10.39876040071249">
        <ele>1795.4000000000001</ele>
        <time>2018-07-14T08:50:38Z</time>
      </trkpt>
      <trkpt lat="46.175321694463491" lon="10.398686304688454">
        <ele>1794.4400000000001</ele>
        <time>2018-07-14T08:50:48Z</time>
      </trkpt>
      <trkpt lat="46.175320101901889" lon="10.398658309131861">
        <ele>1793</ele>
        <time>2018-07-14T08:50:58Z</time>
      </trkpt>
      <trkpt lat="46.17533435113728" lon="10.398743050172925">
        <ele>1790.5899999999999</ele>
        <time>2018-07-14T08:51:10Z</time>
      </trkpt>
      <trkpt lat="46.175301410257816" lon="10.398656046018004">
        <ele>1788.6700000000001</ele>
        <time>2018-07-14T08:51:20Z</time>
      </trkpt>
      <trkpt lat="46.175271738320589" lon="10.398563509806991">
        <ele>1786.27</ele>
        <time>2018-07-14T08:51:28Z</time>
      </trkpt>
      <trkpt lat="46.175267631188035" lon="10.398551439866424">
        <ele>1786.27</ele>
        <time>2018-07-14T08:51:29Z</time>
      </trkpt>
      <trkpt lat="46.175260003656149" lon="10.398526126518846">
        <ele>1786.27</ele>
        <time>2018-07-14T08:51:31Z</time>
      </trkpt>
      <trkpt lat="46.17522387765348" lon="10.39842814207077">
        <ele>1786.27</ele>
        <time>2018-07-14T08:51:42Z</time>
      </trkpt>
      <trkpt lat="46.175200156867504" lon="10.398365361616015">
        <ele>1785.3099999999999</ele>
        <time>2018-07-14T08:51:48Z</time>
      </trkpt>
      <trkpt lat="46.17520677857101" lon="10.398243488743901">
        <ele>1784.3399999999999</ele>
        <time>2018-07-14T08:51:58Z</time>
      </trkpt>
      <trkpt lat="46.175141735002398" lon="10.398159082978964">
        <ele>1781.46</ele>
        <time>2018-07-14T08:52:09Z</time>
      </trkpt>
      <trkpt lat="46.175103178247809" lon="10.398068893700838">
        <ele>1780.02</ele>
        <time>2018-07-14T08:52:19Z</time>
      </trkpt>
      <trkpt lat="46.175088845193386" lon="10.397974429652095">
        <ele>1780.02</ele>
        <time>2018-07-14T08:52:27Z</time>
      </trkpt>
      <trkpt lat="46.175057496875525" lon="10.397866889834404">
        <ele>1778.5799999999999</ele>
        <time>2018-07-14T08:52:38Z</time>
      </trkpt>
      <trkpt lat="46.175054563209414" lon="10.397808132693172">
        <ele>1777.6099999999999</ele>
        <time>2018-07-14T08:52:43Z</time>
      </trkpt>
      <trkpt lat="46.175048612058163" lon="10.3976771235466">
        <ele>1775.6900000000001</ele>
        <time>2018-07-14T08:52:55Z</time>
      </trkpt>
      <trkpt lat="46.175038469955325" lon="10.397614007815719">
        <ele>1774.73</ele>
        <time>2018-07-14T08:53:01Z</time>
      </trkpt>
      <trkpt lat="46.175019107758999" lon="10.397513760253787">
        <ele>1773.77</ele>
        <time>2018-07-14T08:53:08Z</time>
      </trkpt>
      <trkpt lat="46.174930259585381" lon="10.397390965372324">
        <ele>1773.29</ele>
        <time>2018-07-14T08:53:19Z</time>
      </trkpt>
      <trkpt lat="46.174877118319273" lon="10.397324580699205">
        <ele>1773.77</ele>
        <time>2018-07-14T08:53:30Z</time>
      </trkpt>
      <trkpt lat="46.174867982044816" lon="10.397183261811733">
        <ele>1773.77</ele>
        <time>2018-07-14T08:53:42Z</time>
      </trkpt>
      <trkpt lat="46.17483152076602" lon="10.397113189101219">
        <ele>1773.77</ele>
        <time>2018-07-14T08:53:52Z</time>
      </trkpt>
      <trkpt lat="46.174761950969696" lon="10.397025095298886">
        <ele>1772.8099999999999</ele>
        <time>2018-07-14T08:54:02Z</time>
      </trkpt>
      <trkpt lat="46.174716018140316" lon="10.396962817758322">
        <ele>1771.3699999999999</ele>
        <time>2018-07-14T08:54:08Z</time>
      </trkpt>
      <trkpt lat="46.174694392830133" lon="10.396836753934622">
        <ele>1770.4100000000001</ele>
        <time>2018-07-14T08:54:19Z</time>
      </trkpt>
      <trkpt lat="46.174631947651505" lon="10.396740613505244">
        <ele>1767.52</ele>
        <time>2018-07-14T08:54:30Z</time>
      </trkpt>
      <trkpt lat="46.174644101411104" lon="10.396605245769024">
        <ele>1766.0799999999999</ele>
        <time>2018-07-14T08:54:41Z</time>
      </trkpt>
      <trkpt lat="46.174621554091573" lon="10.396559061482549">
        <ele>1765.5999999999999</ele>
        <time>2018-07-14T08:54:54Z</time>
      </trkpt>
      <trkpt lat="46.174590541049838" lon="10.396495023742318">
        <ele>1762.71</ele>
        <time>2018-07-14T08:55:06Z</time>
      </trkpt>
      <trkpt lat="46.174601102247834" lon="10.396394692361355">
        <ele>1760.3099999999999</ele>
        <time>2018-07-14T08:55:16Z</time>
      </trkpt>
      <trkpt lat="46.174576710909605" lon="10.396310202777386">
        <ele>1758.8699999999999</ele>
        <time>2018-07-14T08:55:26Z</time>
      </trkpt>
      <trkpt lat="46.17456179112196" lon="10.396259240806103">
        <ele>1758.3900000000001</ele>
        <time>2018-07-14T08:55:31Z</time>
      </trkpt>
      <trkpt lat="46.174571849405766" lon="10.396093279123306">
        <ele>1757.4300000000001</ele>
        <time>2018-07-14T08:55:43Z</time>
      </trkpt>
      <trkpt lat="46.174483923241496" lon="10.396097972989082">
        <ele>1758.3900000000001</ele>
        <time>2018-07-14T08:55:55Z</time>
      </trkpt>
      <trkpt lat="46.174389123916626" lon="10.39607685059309">
        <ele>1756.47</ele>
        <time>2018-07-14T08:56:04Z</time>
      </trkpt>
      <trkpt lat="46.174372946843505" lon="10.396055225282907">
        <ele>1756.95</ele>
        <time>2018-07-14T08:56:06Z</time>
      </trkpt>
      <trkpt lat="46.174339083954692" lon="10.395945506170392">
        <ele>1755.99</ele>
        <time>2018-07-14T08:56:14Z</time>
      </trkpt>
      <trkpt lat="46.17428963072598" lon="10.395827237516642">
        <ele>1756.47</ele>
        <time>2018-07-14T08:56:26Z</time>
      </trkpt>
      <trkpt lat="46.174217378720641" lon="10.39578071795404">
        <ele>1755.02</ele>
        <time>2018-07-14T08:56:35Z</time>
      </trkpt>
      <trkpt lat="46.174176642671227" lon="10.39568449370563">
        <ele>1755.5</ele>
        <time>2018-07-14T08:56:48Z</time>
      </trkpt>
      <trkpt lat="46.174169685691595" lon="10.395562285557389">
        <ele>1754.54</ele>
        <time>2018-07-14T08:57:00Z</time>
      </trkpt>
      <trkpt lat="46.174059882760048" lon="10.395529344677925">
        <ele>1752.1400000000001</ele>
        <time>2018-07-14T08:57:12Z</time>
      </trkpt>
      <trkpt lat="46.174035407602787" lon="10.395467402413487">
        <ele>1750.7</ele>
        <time>2018-07-14T08:57:22Z</time>
      </trkpt>
      <trkpt lat="46.174013027921319" lon="10.395370507612824">
        <ele>1748.29</ele>
        <time>2018-07-14T08:57:32Z</time>
      </trkpt>
      <trkpt lat="46.173957288265228" lon="10.395321641117334">
        <ele>1745.4100000000001</ele>
        <time>2018-07-14T08:57:42Z</time>
      </trkpt>
      <trkpt lat="46.17392803542316" lon="10.395220723003149">
        <ele>1743.49</ele>
        <time>2018-07-14T08:57:54Z</time>
      </trkpt>
      <trkpt lat="46.173862740397453" lon="10.395142352208495">
        <ele>1741.5699999999999</ele>
        <time>2018-07-14T08:58:04Z</time>
      </trkpt>
      <trkpt lat="46.17381127551198" lon="10.395088037475944">
        <ele>1739.1600000000001</ele>
        <time>2018-07-14T08:58:13Z</time>
      </trkpt>
      <trkpt lat="46.173733407631516" lon="10.395019808784127">
        <ele>1737.72</ele>
        <time>2018-07-14T08:58:24Z</time>
      </trkpt>
      <trkpt lat="46.173663334921002" lon="10.394971193745732">
        <ele>1735.8</ele>
        <time>2018-07-14T08:58:33Z</time>
      </trkpt>
      <trkpt lat="46.173572894185781" lon="10.394946802407503">
        <ele>1733.3900000000001</ele>
        <time>2018-07-14T08:58:45Z</time>
      </trkpt>
      <trkpt lat="46.17349217645824" lon="10.394880836829543">
        <ele>1731.95</ele>
        <time>2018-07-14T08:58:55Z</time>
      </trkpt>
      <trkpt lat="46.173449512571096" lon="10.394753767177463">
        <ele>1730.51</ele>
        <time>2018-07-14T08:59:04Z</time>
      </trkpt>
      <trkpt lat="46.173397460952401" lon="10.394676988944411">
        <ele>1730.03</ele>
        <time>2018-07-14T08:59:14Z</time>
      </trkpt>
      <trkpt lat="46.173355216160417" lon="10.394591996446252">
        <ele>1729.55</ele>
        <time>2018-07-14T08:59:25Z</time>
      </trkpt>
      <trkpt lat="46.173316240310669" lon="10.394528713077307">
        <ele>1729.0699999999999</ele>
        <time>2018-07-14T08:59:33Z</time>
      </trkpt>
      <trkpt lat="46.173290256410837" lon="10.394462579861283">
        <ele>1728.1099999999999</ele>
        <time>2018-07-14T08:59:43Z</time>
      </trkpt>
      <trkpt lat="46.173288999125361" lon="10.394440786913037">
        <ele>1728.1099999999999</ele>
        <time>2018-07-14T08:59:55Z</time>
      </trkpt>
      <trkpt lat="46.173189505934715" lon="10.394359985366464">
        <ele>1725.22</ele>
        <time>2018-07-14T09:00:11Z</time>
      </trkpt>
      <trkpt lat="46.173156900331378" lon="10.394310280680656">
        <ele>1723.78</ele>
        <time>2018-07-14T09:00:21Z</time>
      </trkpt>
      <trkpt lat="46.173150697723031" lon="10.394292259588838">
        <ele>1723.78</ele>
        <time>2018-07-14T09:00:23Z</time>
      </trkpt>
      <trkpt lat="46.17315111681819" lon="10.394168039783835">
        <ele>1723.78</ele>
        <time>2018-07-14T09:00:34Z</time>
      </trkpt>
      <trkpt lat="46.173085821792483" lon="10.394077263772488">
        <ele>1721.8599999999999</ele>
        <time>2018-07-14T09:00:44Z</time>
      </trkpt>
      <trkpt lat="46.173029914498329" lon="10.393988499417901">
        <ele>1722.8199999999999</ele>
        <time>2018-07-14T09:00:55Z</time>
      </trkpt>
      <trkpt lat="46.172996470704675" lon="10.393863022327423">
        <ele>1722.3399999999999</ele>
        <time>2018-07-14T09:01:06Z</time>
      </trkpt>
      <trkpt lat="46.172947185114026" lon="10.393755566328764">
        <ele>1721.3800000000001</ele>
        <time>2018-07-14T09:01:16Z</time>
      </trkpt>
      <trkpt lat="46.172901671379805" lon="10.393725391477346">
        <ele>1720.9000000000001</ele>
        <time>2018-07-14T09:01:22Z</time>
      </trkpt>
      <trkpt lat="46.172838136553764" lon="10.393662108108401">
        <ele>1720.4200000000001</ele>
        <time>2018-07-14T09:01:33Z</time>
      </trkpt>
      <trkpt lat="46.172851966693997" lon="10.393615169450641">
        <ele>1720.9000000000001</ele>
        <time>2018-07-14T09:01:42Z</time>
      </trkpt>
      <trkpt lat="46.172855654731393" lon="10.393590945750475">
        <ele>1720.4200000000001</ele>
        <time>2018-07-14T09:01:55Z</time>
      </trkpt>
      <trkpt lat="46.172809889540076" lon="10.393563453108072">
        <ele>1718.97</ele>
        <time>2018-07-14T09:02:10Z</time>
      </trkpt>
      <trkpt lat="46.172777283936739" lon="10.393526153638959">
        <ele>1717.53</ele>
        <time>2018-07-14T09:02:23Z</time>
      </trkpt>
      <trkpt lat="46.172752138227224" lon="10.393469324335456">
        <ele>1717.53</ele>
        <time>2018-07-14T09:02:35Z</time>
      </trkpt>
      <trkpt lat="46.172737386077642" lon="10.393383745104074">
        <ele>1718.01</ele>
        <time>2018-07-14T09:02:44Z</time>
      </trkpt>
      <trkpt lat="46.172720706090331" lon="10.393320880830288">
        <ele>1718.01</ele>
        <time>2018-07-14T09:02:52Z</time>
      </trkpt>
      <trkpt lat="46.172660440206528" lon="10.393214430660009">
        <ele>1718.01</ele>
        <time>2018-07-14T09:03:02Z</time>
      </trkpt>
      <trkpt lat="46.1726238951087" lon="10.393178388476372">
        <ele>1718.01</ele>
        <time>2018-07-14T09:03:09Z</time>
      </trkpt>
      <trkpt lat="46.172580057755113" lon="10.393057940527797">
        <ele>1718.01</ele>
        <time>2018-07-14T09:03:20Z</time>
      </trkpt>
      <trkpt lat="46.172577207908034" lon="10.392985939979553">
        <ele>1718.97</ele>
        <time>2018-07-14T09:03:30Z</time>
      </trkpt>
      <trkpt lat="46.172515014186502" lon="10.392926931381226">
        <ele>1720.9000000000001</ele>
        <time>2018-07-14T09:03:42Z</time>
      </trkpt>
      <trkpt lat="46.172484336420894" lon="10.392827019095421">
        <ele>1720.9000000000001</ele>
        <time>2018-07-14T09:03:54Z</time>
      </trkpt>
      <trkpt lat="46.172499004751444" lon="10.392718389630318">
        <ele>1719.9400000000001</ele>
        <time>2018-07-14T09:04:03Z</time>
      </trkpt>
      <trkpt lat="46.172508643940091" lon="10.392657034099102">
        <ele>1718.97</ele>
        <time>2018-07-14T09:04:12Z</time>
      </trkpt>
      <trkpt lat="46.172476289793849" lon="10.392566006630659">
        <ele>1717.05</ele>
        <time>2018-07-14T09:04:23Z</time>
      </trkpt>
      <trkpt lat="46.172409234568477" lon="10.39247858338058">
        <ele>1714.6500000000001</ele>
        <time>2018-07-14T09:04:35Z</time>
      </trkpt>
      <trkpt lat="46.172362463548779" lon="10.39243315346539">
        <ele>1714.1700000000001</ele>
        <time>2018-07-14T09:04:43Z</time>
      </trkpt>
      <trkpt lat="46.172375874593854" lon="10.392393674701452">
        <ele>1714.6500000000001</ele>
        <time>2018-07-14T09:04:52Z</time>
      </trkpt>
      <trkpt lat="46.172393811866641" lon="10.392281441017985">
        <ele>1715.6099999999999</ele>
        <time>2018-07-14T09:05:03Z</time>
      </trkpt>
      <trkpt lat="46.172411162406206" lon="10.392242632806301">
        <ele>1715.1300000000001</ele>
        <time>2018-07-14T09:05:08Z</time>
      </trkpt>
      <trkpt lat="46.172398841008544" lon="10.392116568982601">
        <ele>1714.1700000000001</ele>
        <time>2018-07-14T09:05:19Z</time>
      </trkpt>
      <trkpt lat="46.172409486025572" lon="10.39195479825139">
        <ele>1713.6900000000001</ele>
        <time>2018-07-14T09:05:30Z</time>
      </trkpt>
      <trkpt lat="46.172414179891348" lon="10.391881037503481">
        <ele>1714.1700000000001</ele>
        <time>2018-07-14T09:05:40Z</time>
      </trkpt>
      <trkpt lat="46.172351818531752" lon="10.391828315332532">
        <ele>1716.0899999999999</ele>
        <time>2018-07-14T09:05:53Z</time>
      </trkpt>
      <trkpt lat="46.172325918450952" lon="10.391761008650064">
        <ele>1717.53</ele>
        <time>2018-07-14T09:06:07Z</time>
      </trkpt>
      <trkpt lat="46.172267748042941" lon="10.391740472987294">
        <ele>1718.49</ele>
        <time>2018-07-14T09:06:16Z</time>
      </trkpt>
      <trkpt lat="46.172189377248287" lon="10.391701329499483">
        <ele>1719.9400000000001</ele>
        <time>2018-07-14T09:06:27Z</time>
      </trkpt>
      <trkpt lat="46.172131961211562" lon="10.391631256788969">
        <ele>1719.9400000000001</ele>
        <time>2018-07-14T09:06:38Z</time>
      </trkpt>
      <trkpt lat="46.172115616500378" lon="10.391602339223027">
        <ele>1720.4200000000001</ele>
        <time>2018-07-14T09:06:48Z</time>
      </trkpt>
      <trkpt lat="46.172139504924417" lon="10.391502594575286">
        <ele>1721.8599999999999</ele>
        <time>2018-07-14T09:07:01Z</time>
      </trkpt>
      <trkpt lat="46.172116370871663" lon="10.391357420012355">
        <ele>1720.9000000000001</ele>
        <time>2018-07-14T09:07:11Z</time>
      </trkpt>
      <trkpt lat="46.172110922634602" lon="10.391312744468451">
        <ele>1720.9000000000001</ele>
        <time>2018-07-14T09:07:16Z</time>
      </trkpt>
      <trkpt lat="46.1720678396523" lon="10.391200510784984">
        <ele>1720.9000000000001</ele>
        <time>2018-07-14T09:07:26Z</time>
      </trkpt>
      <trkpt lat="46.172081669792533" lon="10.391077799722552">
        <ele>1721.8599999999999</ele>
        <time>2018-07-14T09:07:38Z</time>
      </trkpt>
      <trkpt lat="46.172114443033934" lon="10.390954501926899">
        <ele>1722.8199999999999</ele>
        <time>2018-07-14T09:07:48Z</time>
      </trkpt>
      <trkpt lat="46.172098685055971" lon="10.39079281501472">
        <ele>1722.3399999999999</ele>
        <time>2018-07-14T09:07:59Z</time>
      </trkpt>
      <trkpt lat="46.17214797064662" lon="10.39065258577466">
        <ele>1723.3</ele>
        <time>2018-07-14T09:08:10Z</time>
      </trkpt>
      <trkpt lat="46.172156939283013" lon="10.390613609924912">
        <ele>1723.78</ele>
        <time>2018-07-14T09:08:14Z</time>
      </trkpt>
      <trkpt lat="46.172168254852295" lon="10.390550242736936">
        <ele>1726.1800000000001</ele>
        <time>2018-07-14T09:08:23Z</time>
      </trkpt>
      <trkpt lat="46.172141935676336" lon="10.390488216653466">
        <ele>1725.7</ele>
        <time>2018-07-14T09:08:33Z</time>
      </trkpt>
      <trkpt lat="46.172123746946454" lon="10.390374809503555">
        <ele>1726.6700000000001</ele>
        <time>2018-07-14T09:08:43Z</time>
      </trkpt>
      <trkpt lat="46.172175547108054" lon="10.390295013785362">
        <ele>1727.1500000000001</ele>
        <time>2018-07-14T09:08:53Z</time>
      </trkpt>
      <trkpt lat="46.172224162146449" lon="10.390206417068839">
        <ele>1728.1099999999999</ele>
        <time>2018-07-14T09:09:05Z</time>
      </trkpt>
      <trkpt lat="46.172270178794861" lon="10.390162914991379">
        <ele>1729.0699999999999</ele>
        <time>2018-07-14T09:09:16Z</time>
      </trkpt>
      <trkpt lat="46.172316279262304" lon="10.390079263597727">
        <ele>1730.03</ele>
        <time>2018-07-14T09:09:26Z</time>
      </trkpt>
      <trkpt lat="46.172355674207211" lon="10.39001053199172">
        <ele>1730.99</ele>
        <time>2018-07-14T09:09:38Z</time>
      </trkpt>
      <trkpt lat="46.172360787168145" lon="10.389916738495231">
        <ele>1730.99</ele>
        <time>2018-07-14T09:09:47Z</time>
      </trkpt>
      <trkpt lat="46.17240009829402" lon="10.38982143625617">
        <ele>1731.95</ele>
        <time>2018-07-14T09:09:58Z</time>
      </trkpt>
      <trkpt lat="46.172399511560798" lon="10.389768043532968">
        <ele>1731.95</ele>
        <time>2018-07-14T09:10:02Z</time>
      </trkpt>
      <trkpt lat="46.172419795766473" lon="10.38965430110693">
        <ele>1732.9100000000001</ele>
        <time>2018-07-14T09:10:13Z</time>
      </trkpt>
      <trkpt lat="46.17243530228734" lon="10.389583390206099">
        <ele>1735.8</ele>
        <time>2018-07-14T09:10:24Z</time>
      </trkpt>
      <trkpt lat="46.172436978667974" lon="10.389581127092242">
        <ele>1736.28</ele>
        <time>2018-07-14T09:10:25Z</time>
      </trkpt>
      <trkpt lat="46.172432117164135" lon="10.389533853158355">
        <ele>1736.76</ele>
        <time>2018-07-14T09:10:37Z</time>
      </trkpt>
      <trkpt lat="46.172419963404536" lon="10.389487165957689">
        <ele>1739.1600000000001</ele>
        <time>2018-07-14T09:10:50Z</time>
      </trkpt>
      <trkpt lat="46.172384256497025" lon="10.389451375231147">
        <ele>1741.0799999999999</ele>
        <time>2018-07-14T09:11:05Z</time>
      </trkpt>
      <trkpt lat="46.17236053571105" lon="10.389504935592413">
        <ele>1741.5699999999999</ele>
        <time>2018-07-14T09:11:19Z</time>
      </trkpt>
      <trkpt lat="46.172309657558799" lon="10.389357497915626">
        <ele>1743.01</ele>
        <time>2018-07-14T09:11:33Z</time>
      </trkpt>
      <trkpt lat="46.172260288149118" lon="10.389268565922976">
        <ele>1743.97</ele>
        <time>2018-07-14T09:11:46Z</time>
      </trkpt>
      <trkpt lat="46.172264395281672" lon="10.389158679172397">
        <ele>1744.45</ele>
        <time>2018-07-14T09:11:57Z</time>
      </trkpt>
      <trkpt lat="46.172220641747117" lon="10.389129761606455">
        <ele>1744.45</ele>
        <time>2018-07-14T09:12:05Z</time>
      </trkpt>
      <trkpt lat="46.172202620655298" lon="10.389014007523656">
        <ele>1745.4100000000001</ele>
        <time>2018-07-14T09:12:15Z</time>
      </trkpt>
      <trkpt lat="46.172183258458972" lon="10.388931697234511">
        <ele>1747.8099999999999</ele>
        <time>2018-07-14T09:12:26Z</time>
      </trkpt>
      <trkpt lat="46.17215333506465" lon="10.388795072212815">
        <ele>1747.3299999999999</ele>
        <time>2018-07-14T09:12:39Z</time>
      </trkpt>
      <trkpt lat="46.172149060294032" lon="10.388708570972085">
        <ele>1747.8099999999999</ele>
        <time>2018-07-14T09:12:48Z</time>
      </trkpt>
      <trkpt lat="46.172101367264986" lon="10.388636821880937">
        <ele>1749.26</ele>
        <time>2018-07-14T09:13:01Z</time>
      </trkpt>
      <trkpt lat="46.172112934291363" lon="10.388606647029519">
        <ele>1751.1800000000001</ele>
        <time>2018-07-14T09:13:12Z</time>
      </trkpt>
      <trkpt lat="46.172075299546123" lon="10.38852509111166">
        <ele>1752.6199999999999</ele>
        <time>2018-07-14T09:13:26Z</time>
      </trkpt>
      <trkpt lat="46.172027438879013" lon="10.388386957347393">
        <ele>1754.0599999999999</ele>
        <time>2018-07-14T09:13:40Z</time>
      </trkpt>
      <trkpt lat="46.171992151066661" lon="10.388234406709671">
        <ele>1755.5</ele>
        <time>2018-07-14T09:13:52Z</time>
      </trkpt>
      <trkpt lat="46.171970274299383" lon="10.3881845343858">
        <ele>1756.95</ele>
        <time>2018-07-14T09:14:02Z</time>
      </trkpt>
      <trkpt lat="46.171910846605897" lon="10.388057380914688">
        <ele>1757.9100000000001</ele>
        <time>2018-07-14T09:14:14Z</time>
      </trkpt>
      <trkpt lat="46.171888969838619" lon="10.387962916865945">
        <ele>1758.3900000000001</ele>
        <time>2018-07-14T09:14:21Z</time>
      </trkpt>
      <trkpt lat="46.171888886019588" lon="10.387927126139402">
        <ele>1758.3900000000001</ele>
        <time>2018-07-14T09:14:26Z</time>
      </trkpt>
      <trkpt lat="46.171837253496051" lon="10.387720176950097">
        <ele>1757.9100000000001</ele>
        <time>2018-07-14T09:14:36Z</time>
      </trkpt>
      <trkpt lat="46.171847395598888" lon="10.387594783678651">
        <ele>1757.4300000000001</ele>
        <time>2018-07-14T09:14:45Z</time>
      </trkpt>
      <trkpt lat="46.171869188547134" lon="10.38746771402657">
        <ele>1758.3900000000001</ele>
        <time>2018-07-14T09:14:56Z</time>
      </trkpt>
      <trkpt lat="46.171890813857317" lon="10.387359671294689">
        <ele>1759.8299999999999</ele>
        <time>2018-07-14T09:15:07Z</time>
      </trkpt>
      <trkpt lat="46.171861561015248" lon="10.3872986510396">
        <ele>1760.79</ele>
        <time>2018-07-14T09:15:18Z</time>
      </trkpt>
      <trkpt lat="46.171818980947137" lon="10.387228410691023">
        <ele>1763.2</ele>
        <time>2018-07-14T09:15:33Z</time>
      </trkpt>
      <trkpt lat="46.171797104179859" lon="10.387209551408887">
        <ele>1764.6400000000001</ele>
        <time>2018-07-14T09:15:44Z</time>
      </trkpt>
      <trkpt lat="46.171744633466005" lon="10.387165127322078">
        <ele>1764.6400000000001</ele>
        <time>2018-07-14T09:15:59Z</time>
      </trkpt>
      <trkpt lat="46.171723511070013" lon="10.387152889743447">
        <ele>1764.6400000000001</ele>
        <time>2018-07-14T09:16:01Z</time>
      </trkpt>
      <trkpt lat="46.171676823869348" lon="10.387106370180845">
        <ele>1766.0799999999999</ele>
        <time>2018-07-14T09:16:12Z</time>
      </trkpt>
      <trkpt lat="46.17163885384798" lon="10.386944096535444">
        <ele>1767.04</ele>
        <time>2018-07-14T09:16:25Z</time>
      </trkpt>
      <trkpt lat="46.171627203002572" lon="10.386926159262657">
        <ele>1768</ele>
        <time>2018-07-14T09:16:40Z</time>
      </trkpt>
      <trkpt lat="46.171547491103411" lon="10.386854661628604">
        <ele>1768.48</ele>
        <time>2018-07-14T09:16:52Z</time>
      </trkpt>
      <trkpt lat="46.171514047309756" lon="10.386818200349808">
        <ele>1769.9200000000001</ele>
        <time>2018-07-14T09:17:05Z</time>
      </trkpt>
      <trkpt lat="46.17149518802762" lon="10.386785175651312">
        <ele>1769.4400000000001</ele>
        <time>2018-07-14T09:17:15Z</time>
      </trkpt>
      <trkpt lat="46.171489069238305" lon="10.386703703552485">
        <ele>1769.9200000000001</ele>
        <time>2018-07-14T09:17:28Z</time>
      </trkpt>
      <trkpt lat="46.171468617394567" lon="10.386517038568854">
        <ele>1770.8900000000001</ele>
        <time>2018-07-14T09:17:38Z</time>
      </trkpt>
      <trkpt lat="46.171413632109761" lon="10.386356860399246">
        <ele>1768.96</ele>
        <time>2018-07-14T09:17:51Z</time>
      </trkpt>
      <trkpt lat="46.171386307105422" lon="10.386242279782891">
        <ele>1768.48</ele>
        <time>2018-07-14T09:18:00Z</time>
      </trkpt>
      <trkpt lat="46.171345235779881" lon="10.386145887896419">
        <ele>1767.52</ele>
        <time>2018-07-14T09:18:10Z</time>
      </trkpt>
      <trkpt lat="46.171335009858012" lon="10.386103475466371">
        <ele>1767.52</ele>
        <time>2018-07-14T09:18:14Z</time>
      </trkpt>
      <trkpt lat="46.171309528872371" lon="10.385963749140501">
        <ele>1767.52</ele>
        <time>2018-07-14T09:18:26Z</time>
      </trkpt>
      <trkpt lat="46.171287316828966" lon="10.385887809097767">
        <ele>1768.48</ele>
        <time>2018-07-14T09:18:35Z</time>
      </trkpt>
      <trkpt lat="46.17127725854516" lon="10.38581564091146">
        <ele>1769.4400000000001</ele>
        <time>2018-07-14T09:18:44Z</time>
      </trkpt>
      <trkpt lat="46.171270301565528" lon="10.38573207333684">
        <ele>1770.4100000000001</ele>
        <time>2018-07-14T09:18:56Z</time>
      </trkpt>
      <trkpt lat="46.171295950189233" lon="10.385627802461386">
        <ele>1771.8499999999999</ele>
        <time>2018-07-14T09:19:08Z</time>
      </trkpt>
      <trkpt lat="46.171322101727128" lon="10.385467372834682">
        <ele>1773.29</ele>
        <time>2018-07-14T09:19:20Z</time>
      </trkpt>
      <trkpt lat="46.171285472810268" lon="10.385375423356891">
        <ele>1773.77</ele>
        <time>2018-07-14T09:19:32Z</time>
      </trkpt>
      <trkpt lat="46.17127038538456" lon="10.385315241292119">
        <ele>1775.21</ele>
        <time>2018-07-14T09:19:43Z</time>
      </trkpt>
      <trkpt lat="46.171256471425295" lon="10.385197643190622">
        <ele>1777.6099999999999</ele>
        <time>2018-07-14T09:19:52Z</time>
      </trkpt>
      <trkpt lat="46.171212047338486" lon="10.385186746716499">
        <ele>1778.5799999999999</ele>
        <time>2018-07-14T09:20:00Z</time>
      </trkpt>
      <trkpt lat="46.171180866658688" lon="10.385174006223679">
        <ele>1779.0599999999999</ele>
        <time>2018-07-14T09:20:09Z</time>
      </trkpt>
      <trkpt lat="46.171132083982229" lon="10.385134527459741">
        <ele>1779.54</ele>
        <time>2018-07-14T09:20:24Z</time>
      </trkpt>
      <trkpt lat="46.171102831140161" lon="10.385084738954902">
        <ele>1781.46</ele>
        <time>2018-07-14T09:20:31Z</time>
      </trkpt>
      <trkpt lat="46.171005852520466" lon="10.384973511099815">
        <ele>1780.98</ele>
        <time>2018-07-14T09:20:45Z</time>
      </trkpt>
      <trkpt lat="46.170974085107446" lon="10.384822888299823">
        <ele>1780.98</ele>
        <time>2018-07-14T09:20:54Z</time>
      </trkpt>
      <trkpt lat="46.170944245532155" lon="10.384691627696157">
        <ele>1780.98</ele>
        <time>2018-07-14T09:21:05Z</time>
      </trkpt>
      <trkpt lat="46.170922704041004" lon="10.384672600775957">
        <ele>1780.98</ele>
        <time>2018-07-14T09:21:09Z</time>
      </trkpt>
      <trkpt lat="46.170847099274397" lon="10.384550979360938">
        <ele>1780.98</ele>
        <time>2018-07-14T09:21:22Z</time>
      </trkpt>
      <trkpt lat="46.170852379873395" lon="10.384418293833733">
        <ele>1780.98</ele>
        <time>2018-07-14T09:21:34Z</time>
      </trkpt>
      <trkpt lat="46.170853804796934" lon="10.384212853386998">
        <ele>1782.4200000000001</ele>
        <time>2018-07-14T09:21:46Z</time>
      </trkpt>
      <trkpt lat="46.170849781483412" lon="10.384115120396018">
        <ele>1784.8199999999999</ele>
        <time>2018-07-14T09:21:59Z</time>
      </trkpt>
      <trkpt lat="46.170831760391593" lon="10.38401504047215">
        <ele>1785.3099999999999</ele>
        <time>2018-07-14T09:22:10Z</time>
      </trkpt>
      <trkpt lat="46.170812398195267" lon="10.383942201733589">
        <ele>1786.75</ele>
        <time>2018-07-14T09:22:19Z</time>
      </trkpt>
      <trkpt lat="46.170837292447686" lon="10.383841535076499">
        <ele>1787.71</ele>
        <time>2018-07-14T09:22:29Z</time>
      </trkpt>
      <trkpt lat="46.170838968828321" lon="10.383822843432426">
        <ele>1789.1500000000001</ele>
        <time>2018-07-14T09:22:32Z</time>
      </trkpt>
      <trkpt lat="46.170812733471394" lon="10.383764840662479">
        <ele>1789.1500000000001</ele>
        <time>2018-07-14T09:22:44Z</time>
      </trkpt>
      <trkpt lat="46.170795299112797" lon="10.383682530373335">
        <ele>1790.1099999999999</ele>
        <time>2018-07-14T09:22:54Z</time>
      </trkpt>
      <trkpt lat="46.170756826177239" lon="10.383577337488532">
        <ele>1792.03</ele>
        <time>2018-07-14T09:23:09Z</time>
      </trkpt>
      <trkpt lat="46.170636797323823" lon="10.383485974743962">
        <ele>1792.52</ele>
        <time>2018-07-14T09:23:21Z</time>
      </trkpt>
      <trkpt lat="46.170605784282088" lon="10.383430067449808">
        <ele>1793.96</ele>
        <time>2018-07-14T09:23:33Z</time>
      </trkpt>
      <trkpt lat="46.170577704906464" lon="10.383377093821764">
        <ele>1794.9200000000001</ele>
        <time>2018-07-14T09:23:43Z</time>
      </trkpt>
      <trkpt lat="46.170548368245363" lon="10.383358653634787">
        <ele>1796.8399999999999</ele>
        <time>2018-07-14T09:23:54Z</time>
      </trkpt>
      <trkpt lat="46.170494137331843" lon="10.383307440206409">
        <ele>1797.8</ele>
        <time>2018-07-14T09:24:05Z</time>
      </trkpt>
      <trkpt lat="46.170454574748874" lon="10.383199900388718">
        <ele>1797.3199999999999</ele>
        <time>2018-07-14T09:24:14Z</time>
      </trkpt>
      <trkpt lat="46.170420628041029" lon="10.383165618404746">
        <ele>1796.8399999999999</ele>
        <time>2018-07-14T09:24:18Z</time>
      </trkpt>
      <trkpt lat="46.17038014344871" lon="10.38306562229991">
        <ele>1797.8</ele>
        <time>2018-07-14T09:24:27Z</time>
      </trkpt>
      <trkpt lat="46.170349884778261" lon="10.382871916517615">
        <ele>1798.76</ele>
        <time>2018-07-14T09:24:37Z</time>
      </trkpt>
      <trkpt lat="46.170363295823336" lon="10.382828498259187">
        <ele>1799.73</ele>
        <time>2018-07-14T09:24:46Z</time>
      </trkpt>
      <trkpt lat="46.170318955555558" lon="10.382734956219792">
        <ele>1800.21</ele>
        <time>2018-07-14T09:24:57Z</time>
      </trkpt>
      <trkpt lat="46.170289954170585" lon="10.382620040327311">
        <ele>1801.6500000000001</ele>
        <time>2018-07-14T09:25:09Z</time>
      </trkpt>
      <trkpt lat="46.17028433829546" lon="10.382555332034826">
        <ele>1802.1300000000001</ele>
        <time>2018-07-14T09:25:16Z</time>
      </trkpt>
      <trkpt lat="46.170259611681104" lon="10.382393896579742">
        <ele>1801.6500000000001</ele>
        <time>2018-07-14T09:25:28Z</time>
      </trkpt>
      <trkpt lat="46.170259863138199" lon="10.382350897416472">
        <ele>1801.6500000000001</ele>
        <time>2018-07-14T09:25:32Z</time>
      </trkpt>
      <trkpt lat="46.170249972492456" lon="10.382227851077914">
        <ele>1803.0899999999999</ele>
        <time>2018-07-14T09:25:47Z</time>
      </trkpt>
      <trkpt lat="46.170249134302139" lon="10.382150150835514">
        <ele>1805.01</ele>
        <time>2018-07-14T09:25:57Z</time>
      </trkpt>
      <trkpt lat="46.17023547179997" lon="10.382041521370411">
        <ele>1806.9400000000001</ele>
        <time>2018-07-14T09:26:12Z</time>
      </trkpt>
      <trkpt lat="46.170236729085445" lon="10.381944207474589">
        <ele>1808.3800000000001</ele>
        <time>2018-07-14T09:26:25Z</time>
      </trkpt>
      <trkpt lat="46.170220132917166" lon="10.381875308230519">
        <ele>1809.8199999999999</ele>
        <time>2018-07-14T09:26:36Z</time>
      </trkpt>
      <trkpt lat="46.170153161510825" lon="10.381772378459573">
        <ele>1811.26</ele>
        <time>2018-07-14T09:26:49Z</time>
      </trkpt>
      <trkpt lat="46.170087112113833" lon="10.381664671003819">
        <ele>1812.22</ele>
        <time>2018-07-14T09:27:00Z</time>
      </trkpt>
      <trkpt lat="46.170080993324518" lon="10.38157481700182">
        <ele>1813.6600000000001</ele>
        <time>2018-07-14T09:27:13Z</time>
      </trkpt>
      <trkpt lat="46.170077556744218" lon="10.381479430943727">
        <ele>1814.6300000000001</ele>
        <time>2018-07-14T09:27:24Z</time>
      </trkpt>
      <trkpt lat="46.170054841786623" lon="10.381383877247572">
        <ele>1816.55</ele>
        <time>2018-07-14T09:27:37Z</time>
      </trkpt>
      <trkpt lat="46.170043693855405" lon="10.381305841729045">
        <ele>1817.99</ele>
        <time>2018-07-14T09:27:48Z</time>
      </trkpt>
      <trkpt lat="46.170026510953903" lon="10.38120592944324">
        <ele>1819.9100000000001</ele>
        <time>2018-07-14T09:28:02Z</time>
      </trkpt>
      <trkpt lat="46.170018380507827" lon="10.381142143160105">
        <ele>1821.3499999999999</ele>
        <time>2018-07-14T09:28:13Z</time>
      </trkpt>
      <trkpt lat="46.170054171234369" lon="10.381084056571126">
        <ele>1822.8</ele>
        <time>2018-07-14T09:28:23Z</time>
      </trkpt>
      <trkpt lat="46.170075377449393" lon="10.380988083779812">
        <ele>1824.72</ele>
        <time>2018-07-14T09:28:36Z</time>
      </trkpt>
      <trkpt lat="46.170107815414667" lon="10.380963692441583">
        <ele>1825.2</ele>
        <time>2018-07-14T09:28:51Z</time>
      </trkpt>
      <trkpt lat="46.170100104063749" lon="10.380956903100014">
        <ele>1824.72</ele>
        <time>2018-07-14T09:28:57Z</time>
      </trkpt>
      <trkpt lat="46.170100858435035" lon="10.381041476503015">
        <ele>1824.24</ele>
        <time>2018-07-14T09:29:12Z</time>
      </trkpt>
      <trkpt lat="46.170065151527524" lon="10.381008284166455">
        <ele>1824.24</ele>
        <time>2018-07-14T09:29:41Z</time>
      </trkpt>
      <trkpt lat="46.170079316943884" lon="10.380996214225888">
        <ele>1824.24</ele>
        <time>2018-07-14T09:30:08Z</time>
      </trkpt>
      <trkpt lat="46.170195657759905" lon="10.380962770432234">
        <ele>1824.72</ele>
        <time>2018-07-14T09:30:31Z</time>
      </trkpt>
      <trkpt lat="46.17005224339664" lon="10.3808902669698">
        <ele>1824.72</ele>
        <time>2018-07-14T09:30:52Z</time>
      </trkpt>
      <trkpt lat="46.170062134042382" lon="10.381068969145417">
        <ele>1824.72</ele>
        <time>2018-07-14T09:31:19Z</time>
      </trkpt>
      <trkpt lat="46.170044951140881" lon="10.38101146928966">
        <ele>1824.72</ele>
        <time>2018-07-14T09:31:45Z</time>
      </trkpt>
      <trkpt lat="46.170056685805321" lon="10.380997555330396">
        <ele>1825.2</ele>
        <time>2018-07-14T09:32:07Z</time>
      </trkpt>
      <trkpt lat="46.170113766565919" lon="10.380977941676974">
        <ele>1825.6800000000001</ele>
        <time>2018-07-14T09:32:21Z</time>
      </trkpt>
      <trkpt lat="46.170173278078437" lon="10.381011636927724">
        <ele>1827.1199999999999</ele>
        <time>2018-07-14T09:32:32Z</time>
      </trkpt>
      <trkpt lat="46.1702183727175" lon="10.38103393279016">
        <ele>1829.05</ele>
        <time>2018-07-14T09:32:43Z</time>
      </trkpt>
      <trkpt lat="46.170289451256394" lon="10.381106687709689">
        <ele>1829.53</ele>
        <time>2018-07-14T09:32:54Z</time>
      </trkpt>
      <trkpt lat="46.170336054638028" lon="10.381153207272291">
        <ele>1830.97</ele>
        <time>2018-07-14T09:33:03Z</time>
      </trkpt>
      <trkpt lat="46.170368660241365" lon="10.381219340488315">
        <ele>1832.8900000000001</ele>
        <time>2018-07-14T09:33:15Z</time>
      </trkpt>
      <trkpt lat="46.170427165925503" lon="10.38123719394207">
        <ele>1834.3299999999999</ele>
        <time>2018-07-14T09:33:26Z</time>
      </trkpt>
      <trkpt lat="46.170434877276421" lon="10.381194949150085">
        <ele>1835.77</ele>
        <time>2018-07-14T09:33:37Z</time>
      </trkpt>
      <trkpt lat="46.17045046761632" lon="10.381105514243245">
        <ele>1836.26</ele>
        <time>2018-07-14T09:33:47Z</time>
      </trkpt>
      <trkpt lat="46.170445689931512" lon="10.381105430424213">
        <ele>1835.77</ele>
        <time>2018-07-14T09:33:51Z</time>
      </trkpt>
      <trkpt lat="46.170467650517821" lon="10.381113812327385">
        <ele>1835.29</ele>
        <time>2018-07-14T09:34:00Z</time>
      </trkpt>
      <trkpt lat="46.170485839247704" lon="10.381161756813526">
        <ele>1835.77</ele>
        <time>2018-07-14T09:34:28Z</time>
      </trkpt>
      <trkpt lat="46.170443510636687" lon="10.381138874217868">
        <ele>1835.77</ele>
        <time>2018-07-14T09:34:55Z</time>
      </trkpt>
      <trkpt lat="46.170428087934852" lon="10.381173994392157">
        <ele>1835.77</ele>
        <time>2018-07-14T09:35:23Z</time>
      </trkpt>
      <trkpt lat="46.170380897819996" lon="10.381163852289319">
        <ele>1835.77</ele>
        <time>2018-07-14T09:35:49Z</time>
      </trkpt>
      <trkpt lat="46.170417359098792" lon="10.381154548376799">
        <ele>1836.26</ele>
        <time>2018-07-14T09:36:11Z</time>
      </trkpt>
      <trkpt lat="46.170475697144866" lon="10.381200397387147">
        <ele>1836.26</ele>
        <time>2018-07-14T09:36:33Z</time>
      </trkpt>
      <trkpt lat="46.170449461787939" lon="10.381200984120369">
        <ele>1836.26</ele>
        <time>2018-07-14T09:36:56Z</time>
      </trkpt>
      <trkpt lat="46.17042456753552" lon="10.381207019090652">
        <ele>1836.26</ele>
        <time>2018-07-14T09:37:20Z</time>
      </trkpt>
      <trkpt lat="46.170438984408975" lon="10.381175754591823">
        <ele>1836.26</ele>
        <time>2018-07-14T09:37:41Z</time>
      </trkpt>
      <trkpt lat="46.170467147603631" lon="10.381147423759103">
        <ele>1836.26</ele>
        <time>2018-07-14T09:37:56Z</time>
      </trkpt>
      <trkpt lat="46.17047930136323" lon="10.381123702973127">
        <ele>1837.22</ele>
        <time>2018-07-14T09:38:17Z</time>
      </trkpt>
      <trkpt lat="46.170449210330844" lon="10.381146250292659">
        <ele>1837.22</ele>
        <time>2018-07-14T09:38:27Z</time>
      </trkpt>
      <trkpt lat="46.170443762093782" lon="10.381153291091323">
        <ele>1836.26</ele>
        <time>2018-07-14T09:38:35Z</time>
      </trkpt>
      <trkpt lat="46.170368241146207" lon="10.381020354107022">
        <ele>1836.26</ele>
        <time>2018-07-14T09:38:51Z</time>
      </trkpt>
      <trkpt lat="46.170331528410316" lon="10.380944078788161">
        <ele>1835.77</ele>
        <time>2018-07-14T09:39:03Z</time>
      </trkpt>
      <trkpt lat="46.170318955555558" lon="10.38089806213975">
        <ele>1835.29</ele>
        <time>2018-07-14T09:39:12Z</time>
      </trkpt>
      <trkpt lat="46.170318704098463" lon="10.380878197029233">
        <ele>1835.29</ele>
        <time>2018-07-14T09:39:31Z</time>
      </trkpt>
      <trkpt lat="46.170342257246375" lon="10.380949610844254">
        <ele>1835.29</ele>
        <time>2018-07-14T09:39:52Z</time>
      </trkpt>
      <trkpt lat="46.170337647199631" lon="10.380960507318377">
        <ele>1835.29</ele>
        <time>2018-07-14T09:40:21Z</time>
      </trkpt>
      <trkpt lat="46.170341670513153" lon="10.380951119586825">
        <ele>1835.29</ele>
        <time>2018-07-14T09:40:44Z</time>
      </trkpt>
      <trkpt lat="46.170315770432353" lon="10.380940558388829">
        <ele>1835.29</ele>
        <time>2018-07-14T09:41:06Z</time>
      </trkpt>
      <trkpt lat="46.170358266681433" lon="10.380940977483988">
        <ele>1835.29</ele>
        <time>2018-07-14T09:41:27Z</time>
      </trkpt>
      <trkpt lat="46.170323733240366" lon="10.380936954170465">
        <ele>1835.29</ele>
        <time>2018-07-14T09:41:54Z</time>
      </trkpt>
      <trkpt lat="46.170299174264073" lon="10.38091373629868">
        <ele>1835.29</ele>
        <time>2018-07-14T09:42:15Z</time>
      </trkpt>
      <trkpt lat="46.170314764603972" lon="10.380938211455941">
        <ele>1835.29</ele>
        <time>2018-07-14T09:42:38Z</time>
      </trkpt>
      <trkpt lat="46.170300431549549" lon="10.380934523418546">
        <ele>1835.29</ele>
        <time>2018-07-14T09:43:03Z</time>
      </trkpt>
      <trkpt lat="46.170331193134189" lon="10.380940474569798">
        <ele>1835.29</ele>
        <time>2018-07-14T09:43:24Z</time>
      </trkpt>
      <trkpt lat="46.170323062688112" lon="10.380945252254605">
        <ele>1835.29</ele>
        <time>2018-07-14T09:43:42Z</time>
      </trkpt>
      <trkpt lat="46.170353824272752" lon="10.380940558388829">
        <ele>1835.29</ele>
        <time>2018-07-14T09:44:04Z</time>
      </trkpt>
      <trkpt lat="46.170325912535191" lon="10.380954053252935">
        <ele>1835.29</ele>
        <time>2018-07-14T09:44:22Z</time>
      </trkpt>
      <trkpt lat="46.170325074344873" lon="10.38094793446362">
        <ele>1835.77</ele>
        <time>2018-07-14T09:44:44Z</time>
      </trkpt>
      <trkpt lat="46.170360362157226" lon="10.380957825109363">
        <ele>1835.77</ele>
        <time>2018-07-14T09:45:11Z</time>
      </trkpt>
      <trkpt lat="46.170350555330515" lon="10.380952376872301">
        <ele>1835.77</ele>
        <time>2018-07-14T09:45:34Z</time>
      </trkpt>
      <trkpt lat="46.170376958325505" lon="10.380958495661616">
        <ele>1835.29</ele>
        <time>2018-07-14T09:46:00Z</time>
      </trkpt>
      <trkpt lat="46.170323565602303" lon="10.380958328023553">
        <ele>1835.77</ele>
        <time>2018-07-14T09:46:28Z</time>
      </trkpt>
      <trkpt lat="46.170303951948881" lon="10.380967548117042">
        <ele>1835.77</ele>
        <time>2018-07-14T09:46:54Z</time>
      </trkpt>
      <trkpt lat="46.170323649421334" lon="10.380929913371801">
        <ele>1835.29</ele>
        <time>2018-07-14T09:47:24Z</time>
      </trkpt>
      <trkpt lat="46.170308897271752" lon="10.38089320063591">
        <ele>1835.77</ele>
        <time>2018-07-14T09:47:45Z</time>
      </trkpt>
      <trkpt lat="46.170321386307478" lon="10.38088783621788">
        <ele>1835.77</ele>
        <time>2018-07-14T09:48:10Z</time>
      </trkpt>
      <trkpt lat="46.17031660862267" lon="10.380926644429564">
        <ele>1835.77</ele>
        <time>2018-07-14T09:48:31Z</time>
      </trkpt>
      <trkpt lat="46.170289283618331" lon="10.38094156421721">
        <ele>1835.29</ele>
        <time>2018-07-14T09:48:51Z</time>
      </trkpt>
      <trkpt lat="46.170313507318497" lon="10.380927985534072">
        <ele>1835.29</ele>
        <time>2018-07-14T09:49:12Z</time>
      </trkpt>
      <trkpt lat="46.170332869514823" lon="10.380934439599514">
        <ele>1835.29</ele>
        <time>2018-07-14T09:49:40Z</time>
      </trkpt>
      <trkpt lat="46.170326415449381" lon="10.380938714370131">
        <ele>1835.77</ele>
        <time>2018-07-14T09:50:05Z</time>
      </trkpt>
      <trkpt lat="46.170331025496125" lon="10.38093569688499">
        <ele>1836.26</ele>
        <time>2018-07-14T09:50:14Z</time>
      </trkpt>
      <trkpt lat="46.170334964990616" lon="10.38095036521554">
        <ele>1836.74</ele>
        <time>2018-07-14T09:50:26Z</time>
      </trkpt>
      <trkpt lat="46.170330019667745" lon="10.380938714370131">
        <ele>1836.26</ele>
        <time>2018-07-14T09:50:38Z</time>
      </trkpt>
      <trkpt lat="46.170316440984607" lon="10.3809386305511">
        <ele>1836.74</ele>
        <time>2018-07-14T09:50:49Z</time>
      </trkpt>
      <trkpt lat="46.170301269739866" lon="10.38089076988399">
        <ele>1836.26</ele>
        <time>2018-07-14T09:50:59Z</time>
      </trkpt>
      <trkpt lat="46.170297581702471" lon="10.380899235606194">
        <ele>1836.74</ele>
        <time>2018-07-14T09:51:11Z</time>
      </trkpt>
      <trkpt lat="46.170298755168915" lon="10.380898145958781">
        <ele>1836.26</ele>
        <time>2018-07-14T09:51:26Z</time>
      </trkpt>
      <trkpt lat="46.170290959998965" lon="10.380882136523724">
        <ele>1836.74</ele>
        <time>2018-07-14T09:51:38Z</time>
      </trkpt>
      <trkpt lat="46.170260198414326" lon="10.380821703001857">
        <ele>1836.26</ele>
        <time>2018-07-14T09:51:47Z</time>
      </trkpt>
      <trkpt lat="46.170236309990287" lon="10.380766717717052">
        <ele>1836.74</ele>
        <time>2018-07-14T09:51:56Z</time>
      </trkpt>
      <trkpt lat="46.17021887563169" lon="10.380701925605536">
        <ele>1837.7</ele>
        <time>2018-07-14T09:52:03Z</time>
      </trkpt>
      <trkpt lat="46.170221138745546" lon="10.380579633638263">
        <ele>1839.1400000000001</ele>
        <time>2018-07-14T09:52:15Z</time>
      </trkpt>
      <trkpt lat="46.170265059918165" lon="10.380468992516398">
        <ele>1839.6199999999999</ele>
        <time>2018-07-14T09:52:28Z</time>
      </trkpt>
      <trkpt lat="46.170300766825676" lon="10.380371594801545">
        <ele>1839.1400000000001</ele>
        <time>2018-07-14T09:52:37Z</time>
      </trkpt>
      <trkpt lat="46.170362206175923" lon="10.380270341411233">
        <ele>1838.6600000000001</ele>
        <time>2018-07-14T09:52:49Z</time>
      </trkpt>
      <trkpt lat="46.170444935560226" lon="10.380195574834943">
        <ele>1837.7</ele>
        <time>2018-07-14T09:52:59Z</time>
      </trkpt>
      <trkpt lat="46.170501513406634" lon="10.380090298131108">
        <ele>1838.1800000000001</ele>
        <time>2018-07-14T09:53:11Z</time>
      </trkpt>
      <trkpt lat="46.170507129281759" lon="10.380097841843963">
        <ele>1838.6600000000001</ele>
        <time>2018-07-14T09:53:20Z</time>
      </trkpt>
      <trkpt lat="46.170505955815315" lon="10.380103373900056">
        <ele>1838.6600000000001</ele>
        <time>2018-07-14T09:53:31Z</time>
      </trkpt>
      <trkpt lat="46.170498663559556" lon="10.380118545144796">
        <ele>1838.6600000000001</ele>
        <time>2018-07-14T09:53:43Z</time>
      </trkpt>
      <trkpt lat="46.170498915016651" lon="10.380142936483026">
        <ele>1838.6600000000001</ele>
        <time>2018-07-14T09:54:06Z</time>
      </trkpt>
      <trkpt lat="46.170484581962228" lon="10.380126005038619">
        <ele>1838.6600000000001</ele>
        <time>2018-07-14T09:54:28Z</time>
      </trkpt>
      <trkpt lat="46.17048810236156" lon="10.380092980340123">
        <ele>1838.6600000000001</ele>
        <time>2018-07-14T09:54:50Z</time>
      </trkpt>
      <trkpt lat="46.17050520144403" lon="10.380068589001894">
        <ele>1838.1800000000001</ele>
        <time>2018-07-14T09:54:52Z</time>
      </trkpt>
      <trkpt lat="46.170611651614308" lon="10.379946464672685">
        <ele>1836.74</ele>
        <time>2018-07-14T09:55:04Z</time>
      </trkpt>
      <trkpt lat="46.170677030459046" lon="10.379921654239297">
        <ele>1835.77</ele>
        <time>2018-07-14T09:55:11Z</time>
      </trkpt>
      <trkpt lat="46.170709216967225" lon="10.379901118576527">
        <ele>1835.29</ele>
        <time>2018-07-14T09:55:15Z</time>
      </trkpt>
      <trkpt lat="46.170755904167891" lon="10.379878571256995">
        <ele>1835.29</ele>
        <time>2018-07-14T09:55:20Z</time>
      </trkpt>
      <trkpt lat="46.170869981870055" lon="10.379856359213591">
        <ele>1835.77</ele>
        <time>2018-07-14T09:55:32Z</time>
      </trkpt>
      <trkpt lat="46.170896468684077" lon="10.379817886278033">
        <ele>1835.77</ele>
        <time>2018-07-14T09:55:37Z</time>
      </trkpt>
      <trkpt lat="46.170966038480401" lon="10.37973708473146">
        <ele>1835.29</ele>
        <time>2018-07-14T09:55:47Z</time>
      </trkpt>
      <trkpt lat="46.171005265787244" lon="10.379676315933466">
        <ele>1834.8099999999999</ele>
        <time>2018-07-14T09:55:59Z</time>
      </trkpt>
      <trkpt lat="46.171021610498428" lon="10.379688050597906">
        <ele>1833.8499999999999</ele>
        <time>2018-07-14T09:56:02Z</time>
      </trkpt>
      <trkpt lat="46.171087408438325" lon="10.379679333418608">
        <ele>1832.4100000000001</ele>
        <time>2018-07-14T09:56:13Z</time>
      </trkpt>
      <trkpt lat="46.171159241348505" lon="10.379646979272366">
        <ele>1830.01</ele>
        <time>2018-07-14T09:56:25Z</time>
      </trkpt>
      <trkpt lat="46.171227050945163" lon="10.379672795534134">
        <ele>1829.53</ele>
        <time>2018-07-14T09:56:34Z</time>
      </trkpt>
      <trkpt lat="46.171277426183224" lon="10.379645973443985">
        <ele>1828.5599999999999</ele>
        <time>2018-07-14T09:56:46Z</time>
      </trkpt>
      <trkpt lat="46.17130558937788" lon="10.379614708945155">
        <ele>1828.0799999999999</ele>
        <time>2018-07-14T09:56:55Z</time>
      </trkpt>
      <trkpt lat="46.17136032320559" lon="10.37955142557621">
        <ele>1826.1600000000001</ele>
        <time>2018-07-14T09:57:05Z</time>
      </trkpt>
      <trkpt lat="46.171416398137808" lon="10.379549246281385">
        <ele>1824.72</ele>
        <time>2018-07-14T09:57:16Z</time>
      </trkpt>
      <trkpt lat="46.171466605737805" lon="10.379595849663019">
        <ele>1823.76</ele>
        <time>2018-07-14T09:57:26Z</time>
      </trkpt>
      <trkpt lat="46.171510359272361" lon="10.379661899060011">
        <ele>1821.3499999999999</ele>
        <time>2018-07-14T09:57:35Z</time>
      </trkpt>
      <trkpt lat="46.171570876613259" lon="10.379704227671027">
        <ele>1820.8699999999999</ele>
        <time>2018-07-14T09:57:44Z</time>
      </trkpt>
      <trkpt lat="46.171613456681371" lon="10.379660725593567">
        <ele>1819.4300000000001</ele>
        <time>2018-07-14T09:57:54Z</time>
      </trkpt>
      <trkpt lat="46.171675566583872" lon="10.379659133031964">
        <ele>1817.99</ele>
        <time>2018-07-14T09:58:03Z</time>
      </trkpt>
      <trkpt lat="46.171750081703067" lon="10.379690313711762">
        <ele>1817.51</ele>
        <time>2018-07-14T09:58:13Z</time>
      </trkpt>
      <trkpt lat="46.171805066987872" lon="10.379707412794232">
        <ele>1817.03</ele>
        <time>2018-07-14T09:58:21Z</time>
      </trkpt>
      <trkpt lat="46.171859716996551" lon="10.379680842161179">
        <ele>1815.5899999999999</ele>
        <time>2018-07-14T09:58:31Z</time>
      </trkpt>
      <trkpt lat="46.171913780272007" lon="10.379622085019946">
        <ele>1813.1800000000001</ele>
        <time>2018-07-14T09:58:43Z</time>
      </trkpt>
      <trkpt lat="46.171991312876344" lon="10.379569111391902">
        <ele>1811.74</ele>
        <time>2018-07-14T09:58:54Z</time>
      </trkpt>
      <trkpt lat="46.172054344788194" lon="10.379466265439987">
        <ele>1808.8599999999999</ele>
        <time>2018-07-14T09:59:08Z</time>
      </trkpt>
      <trkpt lat="46.172095835208893" lon="10.379406753927469">
        <ele>1806.9400000000001</ele>
        <time>2018-07-14T09:59:20Z</time>
      </trkpt>
      <trkpt lat="46.172142773866653" lon="10.379358641803265">
        <ele>1805.01</ele>
        <time>2018-07-14T09:59:29Z</time>
      </trkpt>
      <trkpt lat="46.172216450795531" lon="10.379271553829312">
        <ele>1804.05</ele>
        <time>2018-07-14T09:59:40Z</time>
      </trkpt>
      <trkpt lat="46.172242518514395" lon="10.379177089780569">
        <ele>1802.6099999999999</ele>
        <time>2018-07-14T09:59:50Z</time>
      </trkpt>
      <trkpt lat="46.172278225421906" lon="10.379150519147515">
        <ele>1801.6500000000001</ele>
        <time>2018-07-14T10:00:00Z</time>
      </trkpt>
      <trkpt lat="46.172280488535762" lon="10.379136856645346">
        <ele>1800.6900000000001</ele>
        <time>2018-07-14T10:00:10Z</time>
      </trkpt>
      <trkpt lat="46.172294737771153" lon="10.379106011241674">
        <ele>1799.73</ele>
        <time>2018-07-14T10:00:24Z</time>
      </trkpt>
      <trkpt lat="46.17231510579586" lon="10.379062257707119">
        <ele>1797.8</ele>
        <time>2018-07-14T10:00:37Z</time>
      </trkpt>
      <trkpt lat="46.172368917614222" lon="10.379020432010293">
        <ele>1795.8800000000001</ele>
        <time>2018-07-14T10:00:49Z</time>
      </trkpt>
      <trkpt lat="46.172413425520062" lon="10.379013307392597">
        <ele>1793.96</ele>
        <time>2018-07-14T10:01:00Z</time>
      </trkpt>
      <trkpt lat="46.172440247610211" lon="10.37897726520896">
        <ele>1792.52</ele>
        <time>2018-07-14T10:01:10Z</time>
      </trkpt>
      <trkpt lat="46.172442510724068" lon="10.378975672647357">
        <ele>1790.1099999999999</ele>
        <time>2018-07-14T10:01:23Z</time>
      </trkpt>
      <trkpt lat="46.172468494623899" lon="10.378986736759543">
        <ele>1788.6700000000001</ele>
        <time>2018-07-14T10:01:32Z</time>
      </trkpt>
      <trkpt lat="46.172497747465968" lon="10.378987407311797">
        <ele>1787.23</ele>
        <time>2018-07-14T10:01:42Z</time>
      </trkpt>
      <trkpt lat="46.172544937580824" lon="10.378991430625319">
        <ele>1785.3099999999999</ele>
        <time>2018-07-14T10:01:53Z</time>
      </trkpt>
      <trkpt lat="46.172559102997184" lon="10.378962680697441">
        <ele>1783.3800000000001</ele>
        <time>2018-07-14T10:02:02Z</time>
      </trkpt>
      <trkpt lat="46.172562036663294" lon="10.378935104236007">
        <ele>1781.9400000000001</ele>
        <time>2018-07-14T10:02:12Z</time>
      </trkpt>
      <trkpt lat="46.172620458528399" lon="10.378916831687093">
        <ele>1780.02</ele>
        <time>2018-07-14T10:02:22Z</time>
      </trkpt>
      <trkpt lat="46.172664379701018" lon="10.378865618258715">
        <ele>1777.6099999999999</ele>
        <time>2018-07-14T10:02:33Z</time>
      </trkpt>
      <trkpt lat="46.172699667513371" lon="10.378849860280752">
        <ele>1776.1700000000001</ele>
        <time>2018-07-14T10:02:41Z</time>
      </trkpt>
      <trkpt lat="46.172759179025888" lon="10.378811722621322">
        <ele>1773.77</ele>
        <time>2018-07-14T10:02:52Z</time>
      </trkpt>
      <trkpt lat="46.172787677496672" lon="10.378744667395949">
        <ele>1771.3699999999999</ele>
        <time>2018-07-14T10:03:03Z</time>
      </trkpt>
      <trkpt lat="46.172808380797505" lon="10.378700075671077">
        <ele>1769.9200000000001</ele>
        <time>2018-07-14T10:03:08Z</time>
      </trkpt>
      <trkpt lat="46.172842914238572" lon="10.378676187247038">
        <ele>1768.48</ele>
        <time>2018-07-14T10:03:19Z</time>
      </trkpt>
      <trkpt lat="46.172865126281977" lon="10.378626147285104">
        <ele>1767.04</ele>
        <time>2018-07-14T10:03:25Z</time>
      </trkpt>
      <trkpt lat="46.172899240627885" lon="10.37850234657526">
        <ele>1766.5599999999999</ele>
        <time>2018-07-14T10:03:35Z</time>
      </trkpt>
      <trkpt lat="46.172961518168449" lon="10.378450965508819">
        <ele>1765.5999999999999</ele>
        <time>2018-07-14T10:03:43Z</time>
      </trkpt>
      <trkpt lat="46.173029830679297" lon="10.378428837284446">
        <ele>1764.1600000000001</ele>
        <time>2018-07-14T10:03:51Z</time>
      </trkpt>
      <trkpt lat="46.173124546185136" lon="10.378384832292795">
        <ele>1764.1600000000001</ele>
        <time>2018-07-14T10:04:01Z</time>
      </trkpt>
      <trkpt lat="46.173176178708673" lon="10.378364967182279">
        <ele>1762.23</ele>
        <time>2018-07-14T10:04:10Z</time>
      </trkpt>
      <trkpt lat="46.173246586695313" lon="10.378303695470095">
        <ele>1761.27</ele>
        <time>2018-07-14T10:04:19Z</time>
      </trkpt>
      <trkpt lat="46.173347588628531" lon="10.378287434577942">
        <ele>1759.3499999999999</ele>
        <time>2018-07-14T10:04:31Z</time>
      </trkpt>
      <trkpt lat="46.173391677439213" lon="10.378250721842051">
        <ele>1757.4300000000001</ele>
        <time>2018-07-14T10:04:41Z</time>
      </trkpt>
      <trkpt lat="46.173433754593134" lon="10.378185259178281">
        <ele>1755.5</ele>
        <time>2018-07-14T10:04:51Z</time>
      </trkpt>
      <trkpt lat="46.173480190336704" lon="10.378147959709167">
        <ele>1753.5799999999999</ele>
        <time>2018-07-14T10:05:01Z</time>
      </trkpt>
      <trkpt lat="46.173518495634198" lon="10.378107978031039">
        <ele>1752.1400000000001</ele>
        <time>2018-07-14T10:05:10Z</time>
      </trkpt>
      <trkpt lat="46.173551939427853" lon="10.378075120970607">
        <ele>1751.1800000000001</ele>
        <time>2018-07-14T10:05:14Z</time>
      </trkpt>
      <trkpt lat="46.173643050715327" lon="10.378003371879458">
        <ele>1749.74</ele>
        <time>2018-07-14T10:05:23Z</time>
      </trkpt>
      <trkpt lat="46.17372184060514" lon="10.378006557002664">
        <ele>1749.26</ele>
        <time>2018-07-14T10:05:35Z</time>
      </trkpt>
      <trkpt lat="46.17372821085155" lon="10.378055926412344">
        <ele>1748.78</ele>
        <time>2018-07-14T10:05:46Z</time>
      </trkpt>
      <trkpt lat="46.173724271357059" lon="10.378065649420023">
        <ele>1748.78</ele>
        <time>2018-07-14T10:06:03Z</time>
      </trkpt>
      <trkpt lat="46.173757631331682" lon="10.377983087673783">
        <ele>1747.8099999999999</ele>
        <time>2018-07-14T10:06:15Z</time>
      </trkpt>
      <trkpt lat="46.173843126744032" lon="10.378011837601662">
        <ele>1746.3699999999999</ele>
        <time>2018-07-14T10:06:26Z</time>
      </trkpt>
      <trkpt lat="46.1738620698452" lon="10.378011334687471">
        <ele>1744.9300000000001</ele>
        <time>2018-07-14T10:06:35Z</time>
      </trkpt>
      <trkpt lat="46.173917641863227" lon="10.378003371879458">
        <ele>1743.01</ele>
        <time>2018-07-14T10:06:46Z</time>
      </trkpt>
      <trkpt lat="46.173955695703626" lon="10.377976717427373">
        <ele>1741.5699999999999</ele>
        <time>2018-07-14T10:06:55Z</time>
      </trkpt>
      <trkpt lat="46.174027696251869" lon="10.37799121811986">
        <ele>1739.6400000000001</ele>
        <time>2018-07-14T10:07:04Z</time>
      </trkpt>
      <trkpt lat="46.174080669879913" lon="10.377958612516522">
        <ele>1737.24</ele>
        <time>2018-07-14T10:07:14Z</time>
      </trkpt>
      <trkpt lat="46.174042280763388" lon="10.377930114045739">
        <ele>1734.8399999999999</ele>
        <time>2018-07-14T10:07:23Z</time>
      </trkpt>
      <trkpt lat="46.174099696800113" lon="10.377852749079466">
        <ele>1731.95</ele>
        <time>2018-07-14T10:07:34Z</time>
      </trkpt>
      <trkpt lat="46.17415183223784" lon="10.377844199538231">
        <ele>1729.55</ele>
        <time>2018-07-14T10:07:46Z</time>
      </trkpt>
      <trkpt lat="46.174207320436835" lon="10.377913434058428">
        <ele>1728.1099999999999</ele>
        <time>2018-07-14T10:07:56Z</time>
      </trkpt>
      <trkpt lat="46.174261132255197" lon="10.377966072410345">
        <ele>1726.1800000000001</ele>
        <time>2018-07-14T10:08:04Z</time>
      </trkpt>
      <trkpt lat="46.174348387867212" lon="10.377974538132548">
        <ele>1724.74</ele>
        <time>2018-07-14T10:08:16Z</time>
      </trkpt>
      <trkpt lat="46.174353500828147" lon="10.37796825170517">
        <ele>1724.74</ele>
        <time>2018-07-14T10:08:17Z</time>
      </trkpt>
      <trkpt lat="46.174386274069548" lon="10.377928437665105">
        <ele>1723.78</ele>
        <time>2018-07-14T10:08:28Z</time>
      </trkpt>
      <trkpt lat="46.174422735348344" lon="10.377887114882469">
        <ele>1723.3</ele>
        <time>2018-07-14T10:08:46Z</time>
      </trkpt>
      <trkpt lat="46.174482582136989" lon="10.37778309546411">
        <ele>1722.8199999999999</ele>
        <time>2018-07-14T10:08:57Z</time>
      </trkpt>
      <trkpt lat="46.174572352319956" lon="10.377709753811359">
        <ele>1723.3</ele>
        <time>2018-07-14T10:09:07Z</time>
      </trkpt>
      <trkpt lat="46.174608562141657" lon="10.377695169299841">
        <ele>1723.78</ele>
        <time>2018-07-14T10:09:12Z</time>
      </trkpt>
      <trkpt lat="46.174666564911604" lon="10.377706652507186">
        <ele>1725.7</ele>
        <time>2018-07-14T10:09:22Z</time>
      </trkpt>
      <trkpt lat="46.174690285697579" lon="10.37765845656395">
        <ele>1727.1500000000001</ele>
        <time>2018-07-14T10:09:32Z</time>
      </trkpt>
      <trkpt lat="46.174710066989064" lon="10.377609087154269">
        <ele>1728.1099999999999</ele>
        <time>2018-07-14T10:09:41Z</time>
      </trkpt>
      <trkpt lat="46.174718532711267" lon="10.377544378861785">
        <ele>1729.55</ele>
        <time>2018-07-14T10:09:53Z</time>
      </trkpt>
      <trkpt lat="46.174781061708927" lon="10.377488387748599">
        <ele>1730.51</ele>
        <time>2018-07-14T10:10:04Z</time>
      </trkpt>
      <trkpt lat="46.174851385876536" lon="10.3773985337466">
        <ele>1728.5899999999999</ele>
        <time>2018-07-14T10:10:16Z</time>
      </trkpt>
      <trkpt lat="46.174896564334631" lon="10.377335585653782">
        <ele>1726.6700000000001</ele>
        <time>2018-07-14T10:10:25Z</time>
      </trkpt>
      <trkpt lat="46.174949957057834" lon="10.377264088019729">
        <ele>1724.26</ele>
        <time>2018-07-14T10:10:35Z</time>
      </trkpt>
      <trkpt lat="46.175023131072521" lon="10.377238523215055">
        <ele>1722.8199999999999</ele>
        <time>2018-07-14T10:10:46Z</time>
      </trkpt>
      <trkpt lat="46.175034111365676" lon="10.377204576507211">
        <ele>1722.8199999999999</ele>
        <time>2018-07-14T10:10:54Z</time>
      </trkpt>
      <trkpt lat="46.175045510753989" lon="10.377165684476495">
        <ele>1722.3399999999999</ele>
        <time>2018-07-14T10:10:57Z</time>
      </trkpt>
      <trkpt lat="46.175131592899561" lon="10.377143640071154">
        <ele>1720.4200000000001</ele>
        <time>2018-07-14T10:11:07Z</time>
      </trkpt>
      <trkpt lat="46.175215411931276" lon="10.377096869051456">
        <ele>1718.49</ele>
        <time>2018-07-14T10:11:18Z</time>
      </trkpt>
      <trkpt lat="46.175284562632442" lon="10.377042554318905">
        <ele>1716.5699999999999</ele>
        <time>2018-07-14T10:11:30Z</time>
      </trkpt>
      <trkpt lat="46.175303505733609" lon="10.377031657844782">
        <ele>1716.0899999999999</ele>
        <time>2018-07-14T10:11:40Z</time>
      </trkpt>
      <trkpt lat="46.175322951748967" lon="10.377027550712228">
        <ele>1715.6099999999999</ele>
        <time>2018-07-14T10:11:49Z</time>
      </trkpt>
      <trkpt lat="46.175396796315908" lon="10.377029310911894">
        <ele>1715.1300000000001</ele>
        <time>2018-07-14T10:11:58Z</time>
      </trkpt>
      <trkpt lat="46.175483632832766" lon="10.377101646736264">
        <ele>1712.73</ele>
        <time>2018-07-14T10:12:09Z</time>
      </trkpt>
      <trkpt lat="46.175541970878839" lon="10.377136263996363">
        <ele>1710.8</ele>
        <time>2018-07-14T10:12:18Z</time>
      </trkpt>
      <trkpt lat="46.175643224269152" lon="10.377139113843441">
        <ele>1709.3599999999999</ele>
        <time>2018-07-14T10:12:30Z</time>
      </trkpt>
      <trkpt lat="46.175713967531919" lon="10.377131570130587">
        <ele>1707.4400000000001</ele>
        <time>2018-07-14T10:12:40Z</time>
      </trkpt>
      <trkpt lat="46.175804492086172" lon="10.377106089144945">
        <ele>1706</ele>
        <time>2018-07-14T10:12:51Z</time>
      </trkpt>
      <trkpt lat="46.175885796546936" lon="10.377050349488854">
        <ele>1705.52</ele>
        <time>2018-07-14T10:12:59Z</time>
      </trkpt>
      <trkpt lat="46.17597003467381" lon="10.376993101090193">
        <ele>1703.5899999999999</ele>
        <time>2018-07-14T10:13:09Z</time>
      </trkpt>
      <trkpt lat="46.175993336364627" lon="10.376992430537939">
        <ele>1702.6300000000001</ele>
        <time>2018-07-14T10:13:12Z</time>
      </trkpt>
      <trkpt lat="46.176065420731902" lon="10.377039033919573">
        <ele>1701.1900000000001</ele>
        <time>2018-07-14T10:13:23Z</time>
      </trkpt>
      <trkpt lat="46.176146054640412" lon="10.377069376409054">
        <ele>1699.27</ele>
        <time>2018-07-14T10:13:33Z</time>
      </trkpt>
      <trkpt lat="46.176228281110525" lon="10.377017911523581">
        <ele>1696.8599999999999</ele>
        <time>2018-07-14T10:13:45Z</time>
      </trkpt>
      <trkpt lat="46.176300784572959" lon="10.377070382237434">
        <ele>1695.9000000000001</ele>
        <time>2018-07-14T10:13:54Z</time>
      </trkpt>
      <trkpt lat="46.176368594169617" lon="10.377099635079503">
        <ele>1694.9400000000001</ele>
        <time>2018-07-14T10:14:05Z</time>
      </trkpt>
      <trkpt lat="46.176417293027043" lon="10.377144142985344">
        <ele>1695.9000000000001</ele>
        <time>2018-07-14T10:14:14Z</time>
      </trkpt>
      <trkpt lat="46.176449982449412" lon="10.377125702798367">
        <ele>1695.4200000000001</ele>
        <time>2018-07-14T10:14:19Z</time>
      </trkpt>
      <trkpt lat="46.176534304395318" lon="10.377067448571324">
        <ele>1694.46</ele>
        <time>2018-07-14T10:14:31Z</time>
      </trkpt>
      <trkpt lat="46.176580237224698" lon="10.376977929845452">
        <ele>1692.54</ele>
        <time>2018-07-14T10:14:42Z</time>
      </trkpt>
      <trkpt lat="46.176644777879119" lon="10.377018917351961">
        <ele>1691.0999999999999</ele>
        <time>2018-07-14T10:14:52Z</time>
      </trkpt>
      <trkpt lat="46.176680065691471" lon="10.377013804391026">
        <ele>1689.6500000000001</ele>
        <time>2018-07-14T10:15:06Z</time>
      </trkpt>
      <trkpt lat="46.176712336018682" lon="10.37695387378335">
        <ele>1687.25</ele>
        <time>2018-07-14T10:15:14Z</time>
      </trkpt>
      <trkpt lat="46.176776792854071" lon="10.376877933740616">
        <ele>1686.29</ele>
        <time>2018-07-14T10:15:27Z</time>
      </trkpt>
      <trkpt lat="46.176806632429361" lon="10.376794952899218">
        <ele>1684.3699999999999</ele>
        <time>2018-07-14T10:15:36Z</time>
      </trkpt>
      <trkpt lat="46.17679338902235" lon="10.376665201038122">
        <ele>1684.3699999999999</ele>
        <time>2018-07-14T10:15:47Z</time>
      </trkpt>
      <trkpt lat="46.176773104816675" lon="10.376569228246808">
        <ele>1684.8499999999999</ele>
        <time>2018-07-14T10:15:58Z</time>
      </trkpt>
      <trkpt lat="46.176772015169263" lon="10.376569647341967">
        <ele>1684.3699999999999</ele>
        <time>2018-07-14T10:15:59Z</time>
      </trkpt>
      <trkpt lat="46.176821636036038" lon="10.376456407830119">
        <ele>1683.8900000000001</ele>
        <time>2018-07-14T10:16:09Z</time>
      </trkpt>
      <trkpt lat="46.176857929676771" lon="10.376361608505249">
        <ele>1683.8900000000001</ele>
        <time>2018-07-14T10:16:17Z</time>
      </trkpt>
      <trkpt lat="46.176856001839042" lon="10.3762277495116">
        <ele>1683.8900000000001</ele>
        <time>2018-07-14T10:16:28Z</time>
      </trkpt>
      <trkpt lat="46.176853906363249" lon="10.376215009018779">
        <ele>1683.4100000000001</ele>
        <time>2018-07-14T10:16:29Z</time>
      </trkpt>
      <trkpt lat="46.176920458674431" lon="10.376000348478556">
        <ele>1683.8900000000001</ele>
        <time>2018-07-14T10:16:44Z</time>
      </trkpt>
      <trkpt lat="46.176970833912492" lon="10.375867495313287">
        <ele>1685.3299999999999</ele>
        <time>2018-07-14T10:16:55Z</time>
      </trkpt>
      <trkpt lat="46.177026908844709" lon="10.375777892768383">
        <ele>1684.8499999999999</ele>
        <time>2018-07-14T10:17:05Z</time>
      </trkpt>
      <trkpt lat="46.17703721858561" lon="10.375697594136">
        <ele>1682.9300000000001</ele>
        <time>2018-07-14T10:17:13Z</time>
      </trkpt>
      <trkpt lat="46.17709731683135" lon="10.375658618286252">
        <ele>1684.3699999999999</ele>
        <time>2018-07-14T10:17:23Z</time>
      </trkpt>
      <trkpt lat="46.177101088687778" lon="10.375626012682915">
        <ele>1684.3699999999999</ele>
        <time>2018-07-14T10:17:26Z</time>
      </trkpt>
      <trkpt lat="46.177126402035356" lon="10.375503217801452">
        <ele>1682.9300000000001</ele>
        <time>2018-07-14T10:17:35Z</time>
      </trkpt>
      <trkpt lat="46.177131263539195" lon="10.375379668548703">
        <ele>1681</ele>
        <time>2018-07-14T10:17:47Z</time>
      </trkpt>
      <trkpt lat="46.17712514474988" lon="10.375342955812812">
        <ele>1680.04</ele>
        <time>2018-07-14T10:17:50Z</time>
      </trkpt>
      <trkpt lat="46.177118439227343" lon="10.375251760706306">
        <ele>1679.0799999999999</ele>
        <time>2018-07-14T10:17:58Z</time>
      </trkpt>
      <trkpt lat="46.177134197205305" lon="10.375148328021169">
        <ele>1678.5999999999999</ele>
        <time>2018-07-14T10:18:04Z</time>
      </trkpt>
      <trkpt lat="46.177150122821331" lon="10.375098455697298">
        <ele>1678.5999999999999</ele>
        <time>2018-07-14T10:18:07Z</time>
      </trkpt>
      <trkpt lat="46.177171915769577" lon="10.375037686899304">
        <ele>1678.5999999999999</ele>
        <time>2018-07-14T10:18:12Z</time>
      </trkpt>
      <trkpt lat="46.177183734253049" lon="10.374847333878279">
        <ele>1678.1199999999999</ele>
        <time>2018-07-14T10:18:23Z</time>
      </trkpt>
      <trkpt lat="46.177227823063731" lon="10.374697297811508">
        <ele>1679.5599999999999</ele>
        <time>2018-07-14T10:18:35Z</time>
      </trkpt>
      <trkpt lat="46.17723360657692" lon="10.374687826260924">
        <ele>1679.0799999999999</ele>
        <time>2018-07-14T10:18:36Z</time>
      </trkpt>
      <trkpt lat="46.177255064249039" lon="10.374626973643899">
        <ele>1679.5599999999999</ele>
        <time>2018-07-14T10:18:40Z</time>
      </trkpt>
      <trkpt lat="46.177304349839687" lon="10.374561846256256">
        <ele>1678.5999999999999</ele>
        <time>2018-07-14T10:18:45Z</time>
      </trkpt>
      <trkpt lat="46.177328489720821" lon="10.374520942568779">
        <ele>1677.6400000000001</ele>
        <time>2018-07-14T10:18:49Z</time>
      </trkpt>
      <trkpt lat="46.177418511360884" lon="10.37439345382154">
        <ele>1676.6800000000001</ele>
        <time>2018-07-14T10:19:02Z</time>
      </trkpt>
      <trkpt lat="46.17749160155654" lon="10.37433922290802">
        <ele>1676.6800000000001</ele>
        <time>2018-07-14T10:19:11Z</time>
      </trkpt>
      <trkpt lat="46.177530912682414" lon="10.374226905405521">
        <ele>1676.2</ele>
        <time>2018-07-14T10:19:22Z</time>
      </trkpt>
      <trkpt lat="46.177545748651028" lon="10.374140907078981">
        <ele>1675.23</ele>
        <time>2018-07-14T10:19:28Z</time>
      </trkpt>
      <trkpt lat="46.177621856331825" lon="10.374037893489003">
        <ele>1674.27</ele>
        <time>2018-07-14T10:19:38Z</time>
      </trkpt>
      <trkpt lat="46.177682038396597" lon="10.373892551288009">
        <ele>1674.27</ele>
        <time>2018-07-14T10:19:50Z</time>
      </trkpt>
      <trkpt lat="46.177721349522471" lon="10.37376070395112">
        <ele>1674.27</ele>
        <time>2018-07-14T10:20:01Z</time>
      </trkpt>
      <trkpt lat="46.177765186876059" lon="10.373646877706051">
        <ele>1675.23</ele>
        <time>2018-07-14T10:20:11Z</time>
      </trkpt>
      <trkpt lat="46.177768539637327" lon="10.37363950163126">
        <ele>1675.23</ele>
        <time>2018-07-14T10:20:12Z</time>
      </trkpt>
      <trkpt lat="46.177781196311116" lon="10.373557023704052">
        <ele>1673.79</ele>
        <time>2018-07-14T10:20:20Z</time>
      </trkpt>
      <trkpt lat="46.177817909047008" lon="10.373388295993209">
        <ele>1671.3900000000001</ele>
        <time>2018-07-14T10:20:32Z</time>
      </trkpt>
      <trkpt lat="46.177809527143836" lon="10.373348398134112">
        <ele>1670.9100000000001</ele>
        <time>2018-07-14T10:20:35Z</time>
      </trkpt>
      <trkpt lat="46.177869709208608" lon="10.373177994042635">
        <ele>1669.47</ele>
        <time>2018-07-14T10:20:47Z</time>
      </trkpt>
      <trkpt lat="46.177881024777889" lon="10.373138515278697">
        <ele>1669.47</ele>
        <time>2018-07-14T10:20:50Z</time>
      </trkpt>
      <trkpt lat="46.177926119416952" lon="10.37300968542695">
        <ele>1669.95</ele>
        <time>2018-07-14T10:21:00Z</time>
      </trkpt>
      <trkpt lat="46.177971046417952" lon="10.372904492542148">
        <ele>1666.5799999999999</ele>
        <time>2018-07-14T10:21:12Z</time>
      </trkpt>
      <trkpt lat="46.177983283996582" lon="10.372793432325125">
        <ele>1664.6600000000001</ele>
        <time>2018-07-14T10:21:21Z</time>
      </trkpt>
      <trkpt lat="46.178011279553175" lon="10.372601319104433">
        <ele>1662.74</ele>
        <time>2018-07-14T10:21:34Z</time>
      </trkpt>
      <trkpt lat="46.178033240139484" lon="10.372554045170546">
        <ele>1661.78</ele>
        <time>2018-07-14T10:21:38Z</time>
      </trkpt>
      <trkpt lat="46.178079843521118" lon="10.372510207816958">
        <ele>1660.8099999999999</ele>
        <time>2018-07-14T10:21:45Z</time>
      </trkpt>
      <trkpt lat="46.17814832367003" lon="10.372417168691754">
        <ele>1659.3699999999999</ele>
        <time>2018-07-14T10:21:56Z</time>
      </trkpt>
      <trkpt lat="46.17817766033113" lon="10.372275849804282">
        <ele>1657.9300000000001</ele>
        <time>2018-07-14T10:22:08Z</time>
      </trkpt>
      <trkpt lat="46.178196854889393" lon="10.372157413512468">
        <ele>1656.01</ele>
        <time>2018-07-14T10:22:20Z</time>
      </trkpt>
      <trkpt lat="46.178203644230962" lon="10.37212623283267">
        <ele>1655.05</ele>
        <time>2018-07-14T10:22:26Z</time>
      </trkpt>
      <trkpt lat="46.17820942774415" lon="10.372063368558884">
        <ele>1654.0899999999999</ele>
        <time>2018-07-14T10:22:32Z</time>
      </trkpt>
      <trkpt lat="46.178219150751829" lon="10.372042832896113">
        <ele>1653.5999999999999</ele>
        <time>2018-07-14T10:22:34Z</time>
      </trkpt>
      <trkpt lat="46.178250163793564" lon="10.37183890119195">
        <ele>1652.6400000000001</ele>
        <time>2018-07-14T10:22:47Z</time>
      </trkpt>
      <trkpt lat="46.178255695849657" lon="10.371728176251054">
        <ele>1651.2</ele>
        <time>2018-07-14T10:22:55Z</time>
      </trkpt>
      <trkpt lat="46.178245553746819" lon="10.371683835983276">
        <ele>1650.72</ele>
        <time>2018-07-14T10:23:06Z</time>
      </trkpt>
      <trkpt lat="46.178205404430628" lon="10.371729098260403">
        <ele>1650.24</ele>
        <time>2018-07-14T10:23:28Z</time>
      </trkpt>
      <trkpt lat="46.178279081359506" lon="10.371667155995965">
        <ele>1650.24</ele>
        <time>2018-07-14T10:23:45Z</time>
      </trkpt>
      <trkpt lat="46.178286205977201" lon="10.371579732745886">
        <ele>1649.76</ele>
        <time>2018-07-14T10:23:54Z</time>
      </trkpt>
      <trkpt lat="46.178302885964513" lon="10.371454507112503">
        <ele>1648.3199999999999</ele>
        <time>2018-07-14T10:24:03Z</time>
      </trkpt>
      <trkpt lat="46.17830615490675" lon="10.371338333934546">
        <ele>1645.4300000000001</ele>
        <time>2018-07-14T10:24:13Z</time>
      </trkpt>
      <trkpt lat="46.178320487961173" lon="10.371212186291814">
        <ele>1643.03</ele>
        <time>2018-07-14T10:24:21Z</time>
      </trkpt>
      <trkpt lat="46.178334318101406" lon="10.371069610118866">
        <ele>1643.03</ele>
        <time>2018-07-14T10:24:32Z</time>
      </trkpt>
      <trkpt lat="46.17830908857286" lon="10.370963411405683">
        <ele>1640.1500000000001</ele>
        <time>2018-07-14T10:24:44Z</time>
      </trkpt>
      <trkpt lat="46.178311603143811" lon="10.370821254327893">
        <ele>1638.22</ele>
        <time>2018-07-14T10:24:55Z</time>
      </trkpt>
      <trkpt lat="46.178329791873693" lon="10.370729640126228">
        <ele>1638.22</ele>
        <time>2018-07-14T10:25:02Z</time>
      </trkpt>
      <trkpt lat="46.178335240110755" lon="10.370690915733576">
        <ele>1636.3</ele>
        <time>2018-07-14T10:25:05Z</time>
      </trkpt>
      <trkpt lat="46.178334904834628" lon="10.370680689811707">
        <ele>1636.3</ele>
        <time>2018-07-14T10:25:06Z</time>
      </trkpt>
      <trkpt lat="46.178360972553492" lon="10.370559152215719">
        <ele>1634.8599999999999</ele>
        <time>2018-07-14T10:25:16Z</time>
      </trkpt>
      <trkpt lat="46.17838335223496" lon="10.370473824441433">
        <ele>1632.46</ele>
        <time>2018-07-14T10:25:27Z</time>
      </trkpt>
      <trkpt lat="46.178372958675027" lon="10.370368966832757">
        <ele>1630.53</ele>
        <time>2018-07-14T10:25:37Z</time>
      </trkpt>
      <trkpt lat="46.178362062200904" lon="10.370288416743279">
        <ele>1627.6500000000001</ele>
        <time>2018-07-14T10:25:49Z</time>
      </trkpt>
      <trkpt lat="46.178346471861005" lon="10.370226390659809">
        <ele>1626.21</ele>
        <time>2018-07-14T10:25:59Z</time>
      </trkpt>
      <trkpt lat="46.17833892814815" lon="10.370132178068161">
        <ele>1623.8</ele>
        <time>2018-07-14T10:26:10Z</time>
      </trkpt>
      <trkpt lat="46.178337838500738" lon="10.370038216933608">
        <ele>1621.8800000000001</ele>
        <time>2018-07-14T10:26:21Z</time>
      </trkpt>
      <trkpt lat="46.178376981988549" lon="10.369964707642794">
        <ele>1621.4000000000001</ele>
        <time>2018-07-14T10:26:43Z</time>
      </trkpt>
      <trkpt lat="46.178445294499397" lon="10.369873763993382">
        <ele>1619.48</ele>
        <time>2018-07-14T10:26:54Z</time>
      </trkpt>
      <trkpt lat="46.17845619097352" lon="10.369803858920932">
        <ele>1618.04</ele>
        <time>2018-07-14T10:27:04Z</time>
      </trkpt>
      <trkpt lat="46.17846691980958" lon="10.369736636057496">
        <ele>1616.5899999999999</ele>
        <time>2018-07-14T10:27:18Z</time>
      </trkpt>
      <trkpt lat="46.178504135459661" lon="10.369591042399406">
        <ele>1614.6700000000001</ele>
        <time>2018-07-14T10:27:28Z</time>
      </trkpt>
      <trkpt lat="46.17850698530674" lon="10.36958048120141">
        <ele>1614.6700000000001</ele>
        <time>2018-07-14T10:27:29Z</time>
      </trkpt>
      <trkpt lat="46.178545877337456" lon="10.369422901421785">
        <ele>1611.79</ele>
        <time>2018-07-14T10:27:41Z</time>
      </trkpt>
      <trkpt lat="46.178609244525433" lon="10.369315529242158">
        <ele>1610.8299999999999</ele>
        <time>2018-07-14T10:27:51Z</time>
      </trkpt>
      <trkpt lat="46.178692812100053" lon="10.369149735197425">
        <ele>1609.3800000000001</ele>
        <time>2018-07-14T10:28:04Z</time>
      </trkpt>
      <trkpt lat="46.178763723000884" lon="10.36899802275002">
        <ele>1607.46</ele>
        <time>2018-07-14T10:28:15Z</time>
      </trkpt>
      <trkpt lat="46.178840333595872" lon="10.368861984461546">
        <ele>1606.02</ele>
        <time>2018-07-14T10:28:26Z</time>
      </trkpt>
      <trkpt lat="46.178903533145785" lon="10.368756372481585">
        <ele>1604.5799999999999</ele>
        <time>2018-07-14T10:28:34Z</time>
      </trkpt>
      <trkpt lat="46.17894577793777" lon="10.368720749393106">
        <ele>1604.0999999999999</ele>
        <time>2018-07-14T10:28:38Z</time>
      </trkpt>
      <trkpt lat="46.179029513150454" lon="10.368604240939021">
        <ele>1602.1700000000001</ele>
        <time>2018-07-14T10:28:48Z</time>
      </trkpt>
      <trkpt lat="46.179058682173491" lon="10.368543304502964">
        <ele>1601.6900000000001</ele>
        <time>2018-07-14T10:28:52Z</time>
      </trkpt>
      <trkpt lat="46.179145686328411" lon="10.368409194052219">
        <ele>1599.77</ele>
        <time>2018-07-14T10:29:05Z</time>
      </trkpt>
      <trkpt lat="46.179245766252279" lon="10.368279526010156">
        <ele>1597.3699999999999</ele>
        <time>2018-07-14T10:29:16Z</time>
      </trkpt>
      <trkpt lat="46.179324137046933" lon="10.368179278448224">
        <ele>1595.9300000000001</ele>
        <time>2018-07-14T10:29:27Z</time>
      </trkpt>
      <trkpt lat="46.179433101788163" lon="10.368063189089298">
        <ele>1594.96</ele>
        <time>2018-07-14T10:29:38Z</time>
      </trkpt>
      <trkpt lat="46.179531086236238" lon="10.367947518825531">
        <ele>1594.48</ele>
        <time>2018-07-14T10:29:49Z</time>
      </trkpt>
      <trkpt lat="46.179622113704681" lon="10.367906028404832">
        <ele>1595.9300000000001</ele>
        <time>2018-07-14T10:29:59Z</time>
      </trkpt>
      <trkpt lat="46.179716074839234" lon="10.367863196879625">
        <ele>1597.3699999999999</ele>
        <time>2018-07-14T10:30:11Z</time>
      </trkpt>
      <trkpt lat="46.179799642413855" lon="10.367816174402833">
        <ele>1598.3299999999999</ele>
        <time>2018-07-14T10:30:23Z</time>
      </trkpt>
      <trkpt lat="46.179887317121029" lon="10.367759428918362">
        <ele>1598.8099999999999</ele>
        <time>2018-07-14T10:30:35Z</time>
      </trkpt>
      <trkpt lat="46.179994773119688" lon="10.367706036195159">
        <ele>1598.3299999999999</ele>
        <time>2018-07-14T10:30:47Z</time>
      </trkpt>
      <trkpt lat="46.180080771446228" lon="10.367638561874628">
        <ele>1596.4100000000001</ele>
        <time>2018-07-14T10:30:57Z</time>
      </trkpt>
      <trkpt lat="46.180191580206156" lon="10.36746765486896">
        <ele>1596.8900000000001</ele>
        <time>2018-07-14T10:31:12Z</time>
      </trkpt>
      <trkpt lat="46.180220162495971" lon="10.367440665140748">
        <ele>1596.8900000000001</ele>
        <time>2018-07-14T10:31:15Z</time>
      </trkpt>
      <trkpt lat="46.180306496098638" lon="10.367380566895008">
        <ele>1597.8499999999999</ele>
        <time>2018-07-14T10:31:25Z</time>
      </trkpt>
      <trkpt lat="46.18033105507493" lon="10.367368496954441">
        <ele>1597.8499999999999</ele>
        <time>2018-07-14T10:31:28Z</time>
      </trkpt>
      <trkpt lat="46.180383777245879" lon="10.367372184991837">
        <ele>1598.8099999999999</ele>
        <time>2018-07-14T10:31:34Z</time>
      </trkpt>
      <trkpt lat="46.180483186617494" lon="10.367340166121721">
        <ele>1600.25</ele>
        <time>2018-07-14T10:31:44Z</time>
      </trkpt>
      <trkpt lat="46.18056071922183" lon="10.367309655994177">
        <ele>1601.6900000000001</ele>
        <time>2018-07-14T10:31:54Z</time>
      </trkpt>
      <trkpt lat="46.180664990097284" lon="10.367268584668636">
        <ele>1603.6199999999999</ele>
        <time>2018-07-14T10:32:06Z</time>
      </trkpt>
      <trkpt lat="46.180703463032842" lon="10.367249893024564">
        <ele>1604.0999999999999</ele>
        <time>2018-07-14T10:32:11Z</time>
      </trkpt>
      <trkpt lat="46.180728944018483" lon="10.367226423695683">
        <ele>1604.5799999999999</ele>
        <time>2018-07-14T10:32:14Z</time>
      </trkpt>
      <trkpt lat="46.18082944303751" lon="10.367158446460962">
        <ele>1606.02</ele>
        <time>2018-07-14T10:32:26Z</time>
      </trkpt>
      <trkpt lat="46.180882332846522" lon="10.367124415934086">
        <ele>1607.46</ele>
        <time>2018-07-14T10:32:33Z</time>
      </trkpt>
      <trkpt lat="46.180900186300278" lon="10.367110753431916">
        <ele>1607.46</ele>
        <time>2018-07-14T10:32:35Z</time>
      </trkpt>
      <trkpt lat="46.180914519354701" lon="10.367098012939095">
        <ele>1607.46</ele>
        <time>2018-07-14T10:32:37Z</time>
      </trkpt>
      <trkpt lat="46.180923236533999" lon="10.367044201120734">
        <ele>1607.46</ele>
        <time>2018-07-14T10:32:41Z</time>
      </trkpt>
      <trkpt lat="46.180996410548687" lon="10.366915622726083">
        <ele>1606.02</ele>
        <time>2018-07-14T10:32:53Z</time>
      </trkpt>
      <trkpt lat="46.181078804656863" lon="10.366807663813233">
        <ele>1605.0599999999999</ele>
        <time>2018-07-14T10:33:04Z</time>
      </trkpt>
      <trkpt lat="46.181209059432149" lon="10.366658298298717">
        <ele>1603.6199999999999</ele>
        <time>2018-07-14T10:33:18Z</time>
      </trkpt>
      <trkpt lat="46.181230265647173" lon="10.366631140932441">
        <ele>1601.6900000000001</ele>
        <time>2018-07-14T10:33:20Z</time>
      </trkpt>
      <trkpt lat="46.181239988654852" lon="10.36661546677351">
        <ele>1604.5799999999999</ele>
        <time>2018-07-14T10:33:21Z</time>
      </trkpt>
      <trkpt lat="46.181250214576721" lon="10.366601971909404">
        <ele>1603.1400000000001</ele>
        <time>2018-07-14T10:33:22Z</time>
      </trkpt>
      <trkpt lat="46.181259686127305" lon="10.366590907797217">
        <ele>1604.0999999999999</ele>
        <time>2018-07-14T10:33:23Z</time>
      </trkpt>
      <trkpt lat="46.181403016671538" lon="10.366428047418594">
        <ele>1601.21</ele>
        <time>2018-07-14T10:33:37Z</time>
      </trkpt>
      <trkpt lat="46.181496307253838" lon="10.366318412125111">
        <ele>1599.77</ele>
        <time>2018-07-14T10:33:47Z</time>
      </trkpt>
      <trkpt lat="46.181670064106584" lon="10.366133758798242">
        <ele>1597.8499999999999</ele>
        <time>2018-07-14T10:34:02Z</time>
      </trkpt>
      <trkpt lat="46.181819764897227" lon="10.365992020815611">
        <ele>1595.9300000000001</ele>
        <time>2018-07-14T10:34:15Z</time>
      </trkpt>
      <trkpt lat="46.181943817064166" lon="10.365879703313112">
        <ele>1594</ele>
        <time>2018-07-14T10:34:27Z</time>
      </trkpt>
      <trkpt lat="46.181952534243464" lon="10.365869728848338">
        <ele>1594</ele>
        <time>2018-07-14T10:34:28Z</time>
      </trkpt>
      <trkpt lat="46.182094356045127" lon="10.36573545075953">
        <ele>1592.0799999999999</ele>
        <time>2018-07-14T10:34:42Z</time>
      </trkpt>
      <trkpt lat="46.182221593335271" lon="10.365628665313125">
        <ele>1590.6400000000001</ele>
        <time>2018-07-14T10:34:54Z</time>
      </trkpt>
      <trkpt lat="46.182352183386683" lon="10.365475779399276">
        <ele>1589.2</ele>
        <time>2018-07-14T10:35:07Z</time>
      </trkpt>
      <trkpt lat="46.182455029338598" lon="10.365377962589264">
        <ele>1587.27</ele>
        <time>2018-07-14T10:35:17Z</time>
      </trkpt>
      <trkpt lat="46.182574555277824" lon="10.365249803289771">
        <ele>1585.8299999999999</ele>
        <time>2018-07-14T10:35:29Z</time>
      </trkpt>
      <trkpt lat="46.182694751769304" lon="10.365127762779593">
        <ele>1584.3900000000001</ele>
        <time>2018-07-14T10:35:41Z</time>
      </trkpt>
      <trkpt lat="46.182703301310539" lon="10.365117201581597">
        <ele>1584.3900000000001</ele>
        <time>2018-07-14T10:35:42Z</time>
      </trkpt>
      <trkpt lat="46.182851660996675" lon="10.364956855773926">
        <ele>1581.99</ele>
        <time>2018-07-14T10:35:56Z</time>
      </trkpt>
      <trkpt lat="46.182932714000344" lon="10.364845041185617">
        <ele>1581.03</ele>
        <time>2018-07-14T10:36:06Z</time>
      </trkpt>
      <trkpt lat="46.18307814002037" lon="10.364732723683119">
        <ele>1579.0999999999999</ele>
        <time>2018-07-14T10:36:19Z</time>
      </trkpt>
      <trkpt lat="46.183242257684469" lon="10.364799443632364">
        <ele>1577.1800000000001</ele>
        <time>2018-07-14T10:36:32Z</time>
      </trkpt>
      <trkpt lat="46.183370500802994" lon="10.364831043407321">
        <ele>1575.74</ele>
        <time>2018-07-14T10:36:43Z</time>
      </trkpt>
      <trkpt lat="46.183432191610336" lon="10.364832049235702">
        <ele>1575.26</ele>
        <time>2018-07-14T10:36:48Z</time>
      </trkpt>
      <trkpt lat="46.183608043938875" lon="10.364847807213664">
        <ele>1573.3299999999999</ele>
        <time>2018-07-14T10:37:03Z</time>
      </trkpt>
      <trkpt lat="46.183747015893459" lon="10.36495559848845">
        <ele>1571.8900000000001</ele>
        <time>2018-07-14T10:37:16Z</time>
      </trkpt>
      <trkpt lat="46.183821950107813" lon="10.365174869075418">
        <ele>1569.97</ele>
        <time>2018-07-14T10:37:30Z</time>
      </trkpt>
      <trkpt lat="46.18385505862534" lon="10.365338483825326">
        <ele>1568.53</ele>
        <time>2018-07-14T10:37:41Z</time>
      </trkpt>
      <trkpt lat="46.183887580409646" lon="10.365503774955869">
        <ele>1567.5699999999999</ele>
        <time>2018-07-14T10:37:51Z</time>
      </trkpt>
      <trkpt lat="46.183899231255054" lon="10.365576362237334">
        <ele>1566.6099999999999</ele>
        <time>2018-07-14T10:37:55Z</time>
      </trkpt>
      <trkpt lat="46.183946253731847" lon="10.365851288661361">
        <ele>1564.6800000000001</ele>
        <time>2018-07-14T10:38:11Z</time>
      </trkpt>
      <trkpt lat="46.183994617313147" lon="10.366028817370534">
        <ele>1563.24</ele>
        <time>2018-07-14T10:38:24Z</time>
      </trkpt>
      <trkpt lat="46.184112969785929" lon="10.366083886474371">
        <ele>1562.76</ele>
        <time>2018-07-14T10:38:35Z</time>
      </trkpt>
      <trkpt lat="46.184251941740513" lon="10.366066787391901">
        <ele>1562.28</ele>
        <time>2018-07-14T10:38:48Z</time>
      </trkpt>
      <trkpt lat="46.18426744826138" lon="10.366068044677377">
        <ele>1562.76</ele>
        <time>2018-07-14T10:38:50Z</time>
      </trkpt>
      <trkpt lat="46.184298461303115" lon="10.366057232022285">
        <ele>1563.24</ele>
        <time>2018-07-14T10:38:53Z</time>
      </trkpt>
      <trkpt lat="46.184365684166551" lon="10.365956146270037">
        <ele>1562.76</ele>
        <time>2018-07-14T10:39:03Z</time>
      </trkpt>
      <trkpt lat="46.184392170980573" lon="10.36593628115952">
        <ele>1562.76</ele>
        <time>2018-07-14T10:39:07Z</time>
      </trkpt>
      <trkpt lat="46.184473894536495" lon="10.365937035530806">
        <ele>1562.76</ele>
        <time>2018-07-14T10:39:14Z</time>
      </trkpt>
      <trkpt lat="46.184515217319131" lon="10.365973664447665">
        <ele>1563.72</ele>
        <time>2018-07-14T10:39:24Z</time>
      </trkpt>
      <trkpt lat="46.184508092701435" lon="10.365965953096747">
        <ele>1562.76</ele>
        <time>2018-07-14T10:39:26Z</time>
      </trkpt>
      <trkpt lat="46.184505578130484" lon="10.365979867056012">
        <ele>1561.8</ele>
        <time>2018-07-14T10:39:35Z</time>
      </trkpt>
      <trkpt lat="46.184538686648011" lon="10.365971066057682">
        <ele>1562.76</ele>
        <time>2018-07-14T10:39:57Z</time>
      </trkpt>
      <trkpt lat="46.184497950598598" lon="10.366004426032305">
        <ele>1562.28</ele>
        <time>2018-07-14T10:40:11Z</time>
      </trkpt>
    </trkseg>
  </trk>

</gpx>